<?xml version="1.0" encoding="UTF-8" standalone="no" ?>
<gpx xmlns="http://www.topografix.com/GPX/1/1" xmlns:xsi="http://www.w3.org/2001/XMLSchema-instance" xsi:schemaLocation="http://www.topografix.com/GPX/1/1 http://www.topografix.com/GPX/1/1/gpx.xsd" version="1.1" creator="VisuGPX - https://www.visugpx.com">
  <metadata>
    <name>Vtt 14/08/2022 Zungroupe + Luc et Pierre</name>
  </metadata>
  <trk>
    <name><![CDATA[Vtt 14/08/2022 Zungroupe + Luc et Pierre_1]]></name>
    <trkseg>
      <trkpt lat="43.95346" lon="1.86939">
        <ele>281.4</ele>
        <time>2022-08-14T06:01:56Z</time>
      </trkpt>
      <trkpt lat="43.95342" lon="1.86937">
        <ele>275</ele>
        <time>2022-08-14T06:02:00Z</time>
      </trkpt>
      <trkpt lat="43.9534" lon="1.86938">
        <ele>275</ele>
        <time>2022-08-14T06:02:01Z</time>
      </trkpt>
      <trkpt lat="43.95339" lon="1.86939">
        <ele>275</ele>
        <time>2022-08-14T06:02:02Z</time>
      </trkpt>
      <trkpt lat="43.95338" lon="1.8694">
        <ele>275</ele>
        <time>2022-08-14T06:02:03Z</time>
      </trkpt>
      <trkpt lat="43.95336" lon="1.8694">
        <ele>275</ele>
        <time>2022-08-14T06:02:04Z</time>
      </trkpt>
      <trkpt lat="43.95335" lon="1.86941">
        <ele>274.8</ele>
        <time>2022-08-14T06:02:05Z</time>
      </trkpt>
      <trkpt lat="43.95331" lon="1.86941">
        <ele>274.8</ele>
        <time>2022-08-14T06:02:07Z</time>
      </trkpt>
      <trkpt lat="43.9533" lon="1.8694">
        <ele>274.6</ele>
        <time>2022-08-14T06:02:08Z</time>
      </trkpt>
      <trkpt lat="43.95329" lon="1.86939">
        <ele>274.6</ele>
        <time>2022-08-14T06:02:09Z</time>
      </trkpt>
      <trkpt lat="43.95328" lon="1.86938">
        <ele>274.6</ele>
        <time>2022-08-14T06:02:10Z</time>
      </trkpt>
      <trkpt lat="43.95326" lon="1.86936">
        <ele>274.4</ele>
        <time>2022-08-14T06:02:11Z</time>
      </trkpt>
      <trkpt lat="43.95325" lon="1.86933">
        <ele>274.4</ele>
        <time>2022-08-14T06:02:12Z</time>
      </trkpt>
      <trkpt lat="43.95324" lon="1.86932">
        <ele>274.4</ele>
        <time>2022-08-14T06:02:13Z</time>
      </trkpt>
      <trkpt lat="43.95321" lon="1.86929">
        <ele>274.2</ele>
        <time>2022-08-14T06:02:14Z</time>
      </trkpt>
      <trkpt lat="43.95309" lon="1.86914">
        <ele>274</ele>
        <time>2022-08-14T06:02:20Z</time>
      </trkpt>
      <trkpt lat="43.95308" lon="1.8691">
        <ele>274</ele>
        <time>2022-08-14T06:02:21Z</time>
      </trkpt>
      <trkpt lat="43.95308" lon="1.86907">
        <ele>274</ele>
        <time>2022-08-14T06:02:22Z</time>
      </trkpt>
      <trkpt lat="43.95308" lon="1.86904">
        <ele>274</ele>
        <time>2022-08-14T06:02:23Z</time>
      </trkpt>
      <trkpt lat="43.95309" lon="1.86901">
        <ele>274</ele>
        <time>2022-08-14T06:02:24Z</time>
      </trkpt>
      <trkpt lat="43.95309" lon="1.869">
        <ele>274</ele>
        <time>2022-08-14T06:02:25Z</time>
      </trkpt>
      <trkpt lat="43.95309" lon="1.869">
        <ele>274</ele>
        <time>2022-08-14T06:02:26Z</time>
      </trkpt>
      <trkpt lat="43.95309" lon="1.86901">
        <ele>274</ele>
        <time>2022-08-14T06:02:41Z</time>
      </trkpt>
      <trkpt lat="43.95313" lon="1.86885">
        <ele>274</ele>
        <time>2022-08-14T06:02:46Z</time>
      </trkpt>
      <trkpt lat="43.95314" lon="1.86879">
        <ele>274</ele>
        <time>2022-08-14T06:02:47Z</time>
      </trkpt>
      <trkpt lat="43.95319" lon="1.86868">
        <ele>273.8</ele>
        <time>2022-08-14T06:02:49Z</time>
      </trkpt>
      <trkpt lat="43.95322" lon="1.86863">
        <ele>273.8</ele>
        <time>2022-08-14T06:02:50Z</time>
      </trkpt>
      <trkpt lat="43.95325" lon="1.86859">
        <ele>273.8</ele>
        <time>2022-08-14T06:02:51Z</time>
      </trkpt>
      <trkpt lat="43.95328" lon="1.86856">
        <ele>273.8</ele>
        <time>2022-08-14T06:02:52Z</time>
      </trkpt>
      <trkpt lat="43.9533" lon="1.86853">
        <ele>273.6</ele>
        <time>2022-08-14T06:02:53Z</time>
      </trkpt>
      <trkpt lat="43.95332" lon="1.86852">
        <ele>273.6</ele>
        <time>2022-08-14T06:02:54Z</time>
      </trkpt>
      <trkpt lat="43.95332" lon="1.86851">
        <ele>273.4</ele>
        <time>2022-08-14T06:02:55Z</time>
      </trkpt>
      <trkpt lat="43.95333" lon="1.8685">
        <ele>273.4</ele>
        <time>2022-08-14T06:02:57Z</time>
      </trkpt>
      <trkpt lat="43.95332" lon="1.86849">
        <ele>273.2</ele>
        <time>2022-08-14T06:02:58Z</time>
      </trkpt>
      <trkpt lat="43.95329" lon="1.86851">
        <ele>272.6</ele>
        <time>2022-08-14T06:03:45Z</time>
      </trkpt>
      <trkpt lat="43.95328" lon="1.86853">
        <ele>272.6</ele>
        <time>2022-08-14T06:03:49Z</time>
      </trkpt>
      <trkpt lat="43.95326" lon="1.86854">
        <ele>272.6</ele>
        <time>2022-08-14T06:03:50Z</time>
      </trkpt>
      <trkpt lat="43.95319" lon="1.86862">
        <ele>272.6</ele>
        <time>2022-08-14T06:03:53Z</time>
      </trkpt>
      <trkpt lat="43.95314" lon="1.86872">
        <ele>272.6</ele>
        <time>2022-08-14T06:03:55Z</time>
      </trkpt>
      <trkpt lat="43.95312" lon="1.86883">
        <ele>272.8</ele>
        <time>2022-08-14T06:03:57Z</time>
      </trkpt>
      <trkpt lat="43.95312" lon="1.86888">
        <ele>272.8</ele>
        <time>2022-08-14T06:03:58Z</time>
      </trkpt>
      <trkpt lat="43.95312" lon="1.86892">
        <ele>272.8</ele>
        <time>2022-08-14T06:03:59Z</time>
      </trkpt>
      <trkpt lat="43.95313" lon="1.86895">
        <ele>273</ele>
        <time>2022-08-14T06:04:00Z</time>
      </trkpt>
      <trkpt lat="43.95313" lon="1.86896">
        <ele>273.2</ele>
        <time>2022-08-14T06:04:01Z</time>
      </trkpt>
      <trkpt lat="43.95313" lon="1.86896">
        <ele>273.4</ele>
        <time>2022-08-14T06:04:02Z</time>
      </trkpt>
      <trkpt lat="43.95308" lon="1.86908">
        <ele>273.8</ele>
        <time>2022-08-14T06:04:12Z</time>
      </trkpt>
      <trkpt lat="43.95307" lon="1.86909">
        <ele>273.8</ele>
        <time>2022-08-14T06:04:13Z</time>
      </trkpt>
      <trkpt lat="43.95306" lon="1.86911">
        <ele>273.8</ele>
        <time>2022-08-14T06:04:14Z</time>
      </trkpt>
      <trkpt lat="43.95305" lon="1.86913">
        <ele>273.8</ele>
        <time>2022-08-14T06:04:16Z</time>
      </trkpt>
      <trkpt lat="43.953" lon="1.86911">
        <ele>273.6</ele>
        <time>2022-08-14T06:04:27Z</time>
      </trkpt>
      <trkpt lat="43.95297" lon="1.86908">
        <ele>273.8</ele>
        <time>2022-08-14T06:04:29Z</time>
      </trkpt>
      <trkpt lat="43.95296" lon="1.86906">
        <ele>273.8</ele>
        <time>2022-08-14T06:04:30Z</time>
      </trkpt>
      <trkpt lat="43.95295" lon="1.86904">
        <ele>273.8</ele>
        <time>2022-08-14T06:04:31Z</time>
      </trkpt>
      <trkpt lat="43.95291" lon="1.86896">
        <ele>273.8</ele>
        <time>2022-08-14T06:04:34Z</time>
      </trkpt>
      <trkpt lat="43.95277" lon="1.86873">
        <ele>273.6</ele>
        <time>2022-08-14T06:04:42Z</time>
      </trkpt>
      <trkpt lat="43.95275" lon="1.86871">
        <ele>273.6</ele>
        <time>2022-08-14T06:04:43Z</time>
      </trkpt>
      <trkpt lat="43.95274" lon="1.86869">
        <ele>273.6</ele>
        <time>2022-08-14T06:04:44Z</time>
      </trkpt>
      <trkpt lat="43.95273" lon="1.86866">
        <ele>273.6</ele>
        <time>2022-08-14T06:04:45Z</time>
      </trkpt>
      <trkpt lat="43.95271" lon="1.86862">
        <ele>273.6</ele>
        <time>2022-08-14T06:04:47Z</time>
      </trkpt>
      <trkpt lat="43.9527" lon="1.86859">
        <ele>273.6</ele>
        <time>2022-08-14T06:04:48Z</time>
      </trkpt>
      <trkpt lat="43.95261" lon="1.86842">
        <ele>273.4</ele>
        <time>2022-08-14T06:04:54Z</time>
      </trkpt>
      <trkpt lat="43.95259" lon="1.8684">
        <ele>273.4</ele>
        <time>2022-08-14T06:04:55Z</time>
      </trkpt>
      <trkpt lat="43.95258" lon="1.86838">
        <ele>273.2</ele>
        <time>2022-08-14T06:04:56Z</time>
      </trkpt>
      <trkpt lat="43.95244" lon="1.86814">
        <ele>273</ele>
        <time>2022-08-14T06:05:04Z</time>
      </trkpt>
      <trkpt lat="43.9524" lon="1.86806">
        <ele>273</ele>
        <time>2022-08-14T06:05:06Z</time>
      </trkpt>
      <trkpt lat="43.95237" lon="1.86799">
        <ele>273</ele>
        <time>2022-08-14T06:05:08Z</time>
      </trkpt>
      <trkpt lat="43.95234" lon="1.8679">
        <ele>273</ele>
        <time>2022-08-14T06:05:10Z</time>
      </trkpt>
      <trkpt lat="43.95232" lon="1.86787">
        <ele>272.8</ele>
        <time>2022-08-14T06:05:11Z</time>
      </trkpt>
      <trkpt lat="43.9523" lon="1.86783">
        <ele>272.8</ele>
        <time>2022-08-14T06:05:12Z</time>
      </trkpt>
      <trkpt lat="43.95229" lon="1.86781">
        <ele>272.8</ele>
        <time>2022-08-14T06:05:13Z</time>
      </trkpt>
      <trkpt lat="43.95228" lon="1.86776">
        <ele>272.6</ele>
        <time>2022-08-14T06:05:14Z</time>
      </trkpt>
      <trkpt lat="43.95231" lon="1.86772">
        <ele>272.6</ele>
        <time>2022-08-14T06:05:16Z</time>
      </trkpt>
      <trkpt lat="43.95234" lon="1.86771">
        <ele>272.6</ele>
        <time>2022-08-14T06:05:17Z</time>
      </trkpt>
      <trkpt lat="43.95237" lon="1.86772">
        <ele>272.6</ele>
        <time>2022-08-14T06:05:18Z</time>
      </trkpt>
      <trkpt lat="43.95243" lon="1.86773">
        <ele>272.6</ele>
        <time>2022-08-14T06:05:20Z</time>
      </trkpt>
      <trkpt lat="43.95271" lon="1.86776">
        <ele>272.8</ele>
        <time>2022-08-14T06:05:28Z</time>
      </trkpt>
      <trkpt lat="43.95283" lon="1.86777">
        <ele>272.6</ele>
        <time>2022-08-14T06:05:31Z</time>
      </trkpt>
      <trkpt lat="43.9529" lon="1.86779">
        <ele>272.6</ele>
        <time>2022-08-14T06:05:33Z</time>
      </trkpt>
      <trkpt lat="43.95298" lon="1.86783">
        <ele>272.6</ele>
        <time>2022-08-14T06:05:35Z</time>
      </trkpt>
      <trkpt lat="43.9531" lon="1.86788">
        <ele>272.4</ele>
        <time>2022-08-14T06:05:38Z</time>
      </trkpt>
      <trkpt lat="43.95315" lon="1.86789">
        <ele>272.2</ele>
        <time>2022-08-14T06:05:39Z</time>
      </trkpt>
      <trkpt lat="43.95319" lon="1.86791">
        <ele>272.2</ele>
        <time>2022-08-14T06:05:40Z</time>
      </trkpt>
      <trkpt lat="43.95323" lon="1.86793">
        <ele>272.2</ele>
        <time>2022-08-14T06:05:41Z</time>
      </trkpt>
      <trkpt lat="43.95326" lon="1.86794">
        <ele>272</ele>
        <time>2022-08-14T06:05:42Z</time>
      </trkpt>
      <trkpt lat="43.9533" lon="1.86794">
        <ele>272</ele>
        <time>2022-08-14T06:05:43Z</time>
      </trkpt>
      <trkpt lat="43.95333" lon="1.86795">
        <ele>271.8</ele>
        <time>2022-08-14T06:05:44Z</time>
      </trkpt>
      <trkpt lat="43.95336" lon="1.86796">
        <ele>271.6</ele>
        <time>2022-08-14T06:05:45Z</time>
      </trkpt>
      <trkpt lat="43.95339" lon="1.86799">
        <ele>271.4</ele>
        <time>2022-08-14T06:05:46Z</time>
      </trkpt>
      <trkpt lat="43.95343" lon="1.86802">
        <ele>271.4</ele>
        <time>2022-08-14T06:05:47Z</time>
      </trkpt>
      <trkpt lat="43.95347" lon="1.86804">
        <ele>271.4</ele>
        <time>2022-08-14T06:05:48Z</time>
      </trkpt>
      <trkpt lat="43.95351" lon="1.86808">
        <ele>271.4</ele>
        <time>2022-08-14T06:05:49Z</time>
      </trkpt>
      <trkpt lat="43.95355" lon="1.86811">
        <ele>271.4</ele>
        <time>2022-08-14T06:05:50Z</time>
      </trkpt>
      <trkpt lat="43.95358" lon="1.86813">
        <ele>271.4</ele>
        <time>2022-08-14T06:05:51Z</time>
      </trkpt>
      <trkpt lat="43.95362" lon="1.86815">
        <ele>271.6</ele>
        <time>2022-08-14T06:05:52Z</time>
      </trkpt>
      <trkpt lat="43.95364" lon="1.86814">
        <ele>271.8</ele>
        <time>2022-08-14T06:05:53Z</time>
      </trkpt>
      <trkpt lat="43.95376" lon="1.86792">
        <ele>272.4</ele>
        <time>2022-08-14T06:05:58Z</time>
      </trkpt>
      <trkpt lat="43.95378" lon="1.86786">
        <ele>272.6</ele>
        <time>2022-08-14T06:05:59Z</time>
      </trkpt>
      <trkpt lat="43.95383" lon="1.86775">
        <ele>272.6</ele>
        <time>2022-08-14T06:06:01Z</time>
      </trkpt>
      <trkpt lat="43.95388" lon="1.86766">
        <ele>272.6</ele>
        <time>2022-08-14T06:06:03Z</time>
      </trkpt>
      <trkpt lat="43.95389" lon="1.86761">
        <ele>272.6</ele>
        <time>2022-08-14T06:06:04Z</time>
      </trkpt>
      <trkpt lat="43.95392" lon="1.86756">
        <ele>272.4</ele>
        <time>2022-08-14T06:06:05Z</time>
      </trkpt>
      <trkpt lat="43.95393" lon="1.86753">
        <ele>272.2</ele>
        <time>2022-08-14T06:06:06Z</time>
      </trkpt>
      <trkpt lat="43.95394" lon="1.86751">
        <ele>272</ele>
        <time>2022-08-14T06:06:07Z</time>
      </trkpt>
      <trkpt lat="43.95395" lon="1.8675">
        <ele>271.6</ele>
        <time>2022-08-14T06:06:08Z</time>
      </trkpt>
      <trkpt lat="43.95394" lon="1.86748">
        <ele>271.4</ele>
        <time>2022-08-14T06:06:09Z</time>
      </trkpt>
      <trkpt lat="43.95395" lon="1.86747">
        <ele>271</ele>
        <time>2022-08-14T06:06:10Z</time>
      </trkpt>
      <trkpt lat="43.95394" lon="1.86746">
        <ele>270.8</ele>
        <time>2022-08-14T06:06:11Z</time>
      </trkpt>
      <trkpt lat="43.95393" lon="1.86745">
        <ele>269.8</ele>
        <time>2022-08-14T06:06:27Z</time>
      </trkpt>
      <trkpt lat="43.9539" lon="1.86743">
        <ele>269.8</ele>
        <time>2022-08-14T06:06:30Z</time>
      </trkpt>
      <trkpt lat="43.95389" lon="1.86744">
        <ele>269.8</ele>
        <time>2022-08-14T06:06:31Z</time>
      </trkpt>
      <trkpt lat="43.95388" lon="1.86745">
        <ele>269.6</ele>
        <time>2022-08-14T06:06:32Z</time>
      </trkpt>
      <trkpt lat="43.95388" lon="1.86746">
        <ele>269.6</ele>
        <time>2022-08-14T06:06:33Z</time>
      </trkpt>
      <trkpt lat="43.95385" lon="1.86747">
        <ele>269.6</ele>
        <time>2022-08-14T06:06:35Z</time>
      </trkpt>
      <trkpt lat="43.95382" lon="1.86747">
        <ele>269.8</ele>
        <time>2022-08-14T06:06:37Z</time>
      </trkpt>
      <trkpt lat="43.9538" lon="1.86748">
        <ele>269.8</ele>
        <time>2022-08-14T06:06:38Z</time>
      </trkpt>
      <trkpt lat="43.95378" lon="1.8675">
        <ele>270</ele>
        <time>2022-08-14T06:06:39Z</time>
      </trkpt>
      <trkpt lat="43.95377" lon="1.8675">
        <ele>270</ele>
        <time>2022-08-14T06:06:40Z</time>
      </trkpt>
      <trkpt lat="43.95375" lon="1.8675">
        <ele>270</ele>
        <time>2022-08-14T06:06:41Z</time>
      </trkpt>
      <trkpt lat="43.95374" lon="1.86749">
        <ele>270</ele>
        <time>2022-08-14T06:06:42Z</time>
      </trkpt>
      <trkpt lat="43.95373" lon="1.86748">
        <ele>270.2</ele>
        <time>2022-08-14T06:06:43Z</time>
      </trkpt>
      <trkpt lat="43.9537" lon="1.86745">
        <ele>270.4</ele>
        <time>2022-08-14T06:06:45Z</time>
      </trkpt>
      <trkpt lat="43.95369" lon="1.86744">
        <ele>270.4</ele>
        <time>2022-08-14T06:06:46Z</time>
      </trkpt>
      <trkpt lat="43.95368" lon="1.86741">
        <ele>270.4</ele>
        <time>2022-08-14T06:06:47Z</time>
      </trkpt>
      <trkpt lat="43.95367" lon="1.86739">
        <ele>270.2</ele>
        <time>2022-08-14T06:06:48Z</time>
      </trkpt>
      <trkpt lat="43.95366" lon="1.86736">
        <ele>270.2</ele>
        <time>2022-08-14T06:06:49Z</time>
      </trkpt>
      <trkpt lat="43.95364" lon="1.86733">
        <ele>270</ele>
        <time>2022-08-14T06:06:50Z</time>
      </trkpt>
      <trkpt lat="43.95364" lon="1.8673">
        <ele>270</ele>
        <time>2022-08-14T06:06:51Z</time>
      </trkpt>
      <trkpt lat="43.95363" lon="1.86728">
        <ele>269.8</ele>
        <time>2022-08-14T06:06:52Z</time>
      </trkpt>
      <trkpt lat="43.95361" lon="1.86724">
        <ele>269.4</ele>
        <time>2022-08-14T06:06:54Z</time>
      </trkpt>
      <trkpt lat="43.95359" lon="1.86722">
        <ele>269.4</ele>
        <time>2022-08-14T06:06:55Z</time>
      </trkpt>
      <trkpt lat="43.95357" lon="1.8672">
        <ele>269.2</ele>
        <time>2022-08-14T06:06:56Z</time>
      </trkpt>
      <trkpt lat="43.95355" lon="1.86717">
        <ele>268.8</ele>
        <time>2022-08-14T06:06:57Z</time>
      </trkpt>
      <trkpt lat="43.95353" lon="1.86714">
        <ele>268.8</ele>
        <time>2022-08-14T06:06:58Z</time>
      </trkpt>
      <trkpt lat="43.9535" lon="1.86712">
        <ele>268.4</ele>
        <time>2022-08-14T06:06:59Z</time>
      </trkpt>
      <trkpt lat="43.95348" lon="1.8671">
        <ele>268.2</ele>
        <time>2022-08-14T06:07:00Z</time>
      </trkpt>
      <trkpt lat="43.95346" lon="1.86708">
        <ele>268</ele>
        <time>2022-08-14T06:07:01Z</time>
      </trkpt>
      <trkpt lat="43.95345" lon="1.86706">
        <ele>267.8</ele>
        <time>2022-08-14T06:07:02Z</time>
      </trkpt>
      <trkpt lat="43.95341" lon="1.86698">
        <ele>267.6</ele>
        <time>2022-08-14T06:07:04Z</time>
      </trkpt>
      <trkpt lat="43.95339" lon="1.86695">
        <ele>267.2</ele>
        <time>2022-08-14T06:07:05Z</time>
      </trkpt>
      <trkpt lat="43.95339" lon="1.86693">
        <ele>267</ele>
        <time>2022-08-14T06:07:06Z</time>
      </trkpt>
      <trkpt lat="43.95338" lon="1.86692">
        <ele>267</ele>
        <time>2022-08-14T06:07:07Z</time>
      </trkpt>
      <trkpt lat="43.95336" lon="1.86692">
        <ele>266.8</ele>
        <time>2022-08-14T06:07:08Z</time>
      </trkpt>
      <trkpt lat="43.95334" lon="1.86691">
        <ele>266.6</ele>
        <time>2022-08-14T06:07:09Z</time>
      </trkpt>
      <trkpt lat="43.95332" lon="1.86688">
        <ele>266.6</ele>
        <time>2022-08-14T06:07:10Z</time>
      </trkpt>
      <trkpt lat="43.95331" lon="1.86686">
        <ele>266.4</ele>
        <time>2022-08-14T06:07:11Z</time>
      </trkpt>
      <trkpt lat="43.9533" lon="1.86684">
        <ele>266.4</ele>
        <time>2022-08-14T06:07:12Z</time>
      </trkpt>
      <trkpt lat="43.95329" lon="1.86682">
        <ele>266.4</ele>
        <time>2022-08-14T06:07:13Z</time>
      </trkpt>
      <trkpt lat="43.95329" lon="1.86682">
        <ele>266.4</ele>
        <time>2022-08-14T06:07:14Z</time>
      </trkpt>
      <trkpt lat="43.95329" lon="1.86682">
        <ele>266.2</ele>
        <time>2022-08-14T06:07:15Z</time>
      </trkpt>
      <trkpt lat="43.95328" lon="1.86679">
        <ele>266.2</ele>
        <time>2022-08-14T06:07:16Z</time>
      </trkpt>
      <trkpt lat="43.95328" lon="1.86677">
        <ele>266.2</ele>
        <time>2022-08-14T06:07:17Z</time>
      </trkpt>
      <trkpt lat="43.95327" lon="1.86675">
        <ele>266.2</ele>
        <time>2022-08-14T06:07:18Z</time>
      </trkpt>
      <trkpt lat="43.95325" lon="1.86673">
        <ele>266.2</ele>
        <time>2022-08-14T06:07:19Z</time>
      </trkpt>
      <trkpt lat="43.9532" lon="1.8667">
        <ele>266.2</ele>
        <time>2022-08-14T06:07:21Z</time>
      </trkpt>
      <trkpt lat="43.95319" lon="1.86668">
        <ele>266.2</ele>
        <time>2022-08-14T06:07:22Z</time>
      </trkpt>
      <trkpt lat="43.95318" lon="1.86666">
        <ele>266.2</ele>
        <time>2022-08-14T06:07:23Z</time>
      </trkpt>
      <trkpt lat="43.95317" lon="1.86666">
        <ele>266.2</ele>
        <time>2022-08-14T06:07:24Z</time>
      </trkpt>
      <trkpt lat="43.95316" lon="1.86665">
        <ele>266.2</ele>
        <time>2022-08-14T06:07:25Z</time>
      </trkpt>
      <trkpt lat="43.95314" lon="1.86662">
        <ele>266.2</ele>
        <time>2022-08-14T06:07:27Z</time>
      </trkpt>
      <trkpt lat="43.95312" lon="1.86655">
        <ele>266.2</ele>
        <time>2022-08-14T06:07:30Z</time>
      </trkpt>
      <trkpt lat="43.9531" lon="1.86653">
        <ele>266.2</ele>
        <time>2022-08-14T06:07:31Z</time>
      </trkpt>
      <trkpt lat="43.9531" lon="1.86652">
        <ele>266.2</ele>
        <time>2022-08-14T06:07:32Z</time>
      </trkpt>
      <trkpt lat="43.9531" lon="1.8665">
        <ele>266.2</ele>
        <time>2022-08-14T06:07:33Z</time>
      </trkpt>
      <trkpt lat="43.95305" lon="1.86641">
        <ele>266.2</ele>
        <time>2022-08-14T06:07:36Z</time>
      </trkpt>
      <trkpt lat="43.95304" lon="1.86633">
        <ele>265.8</ele>
        <time>2022-08-14T06:07:40Z</time>
      </trkpt>
      <trkpt lat="43.95304" lon="1.8663">
        <ele>265.8</ele>
        <time>2022-08-14T06:07:41Z</time>
      </trkpt>
      <trkpt lat="43.95303" lon="1.86619">
        <ele>265.8</ele>
        <time>2022-08-14T06:07:44Z</time>
      </trkpt>
      <trkpt lat="43.95303" lon="1.86617">
        <ele>265.6</ele>
        <time>2022-08-14T06:07:45Z</time>
      </trkpt>
      <trkpt lat="43.95304" lon="1.86615">
        <ele>265.4</ele>
        <time>2022-08-14T06:07:46Z</time>
      </trkpt>
      <trkpt lat="43.95303" lon="1.86612">
        <ele>265.2</ele>
        <time>2022-08-14T06:07:47Z</time>
      </trkpt>
      <trkpt lat="43.95302" lon="1.8661">
        <ele>265.2</ele>
        <time>2022-08-14T06:07:48Z</time>
      </trkpt>
      <trkpt lat="43.95301" lon="1.86607">
        <ele>265</ele>
        <time>2022-08-14T06:07:49Z</time>
      </trkpt>
      <trkpt lat="43.953" lon="1.86604">
        <ele>265</ele>
        <time>2022-08-14T06:07:50Z</time>
      </trkpt>
      <trkpt lat="43.95299" lon="1.86603">
        <ele>264.8</ele>
        <time>2022-08-14T06:07:51Z</time>
      </trkpt>
      <trkpt lat="43.95296" lon="1.86595">
        <ele>264.8</ele>
        <time>2022-08-14T06:07:54Z</time>
      </trkpt>
      <trkpt lat="43.95291" lon="1.86591">
        <ele>265</ele>
        <time>2022-08-14T06:07:56Z</time>
      </trkpt>
      <trkpt lat="43.95292" lon="1.86593">
        <ele>265</ele>
        <time>2022-08-14T06:07:57Z</time>
      </trkpt>
      <trkpt lat="43.95289" lon="1.86594">
        <ele>266.4</ele>
        <time>2022-08-14T06:08:13Z</time>
      </trkpt>
      <trkpt lat="43.95288" lon="1.86594">
        <ele>266.4</ele>
        <time>2022-08-14T06:08:14Z</time>
      </trkpt>
      <trkpt lat="43.95288" lon="1.86594">
        <ele>266.4</ele>
        <time>2022-08-14T06:08:15Z</time>
      </trkpt>
      <trkpt lat="43.95287" lon="1.86592">
        <ele>266.6</ele>
        <time>2022-08-14T06:08:17Z</time>
      </trkpt>
      <trkpt lat="43.95287" lon="1.86592">
        <ele>266.8</ele>
        <time>2022-08-14T06:08:18Z</time>
      </trkpt>
      <trkpt lat="43.95286" lon="1.86591">
        <ele>266.8</ele>
        <time>2022-08-14T06:08:19Z</time>
      </trkpt>
      <trkpt lat="43.95285" lon="1.86591">
        <ele>266.8</ele>
        <time>2022-08-14T06:08:20Z</time>
      </trkpt>
      <trkpt lat="43.95283" lon="1.86589">
        <ele>267.2</ele>
        <time>2022-08-14T06:08:23Z</time>
      </trkpt>
      <trkpt lat="43.95281" lon="1.86589">
        <ele>267.2</ele>
        <time>2022-08-14T06:08:24Z</time>
      </trkpt>
      <trkpt lat="43.95279" lon="1.86588">
        <ele>267.4</ele>
        <time>2022-08-14T06:08:25Z</time>
      </trkpt>
      <trkpt lat="43.95277" lon="1.86588">
        <ele>267.4</ele>
        <time>2022-08-14T06:08:26Z</time>
      </trkpt>
      <trkpt lat="43.95273" lon="1.86588">
        <ele>267.6</ele>
        <time>2022-08-14T06:08:28Z</time>
      </trkpt>
      <trkpt lat="43.9527" lon="1.86585">
        <ele>268</ele>
        <time>2022-08-14T06:08:30Z</time>
      </trkpt>
      <trkpt lat="43.95269" lon="1.86583">
        <ele>268</ele>
        <time>2022-08-14T06:08:31Z</time>
      </trkpt>
      <trkpt lat="43.95269" lon="1.86581">
        <ele>268.2</ele>
        <time>2022-08-14T06:08:32Z</time>
      </trkpt>
      <trkpt lat="43.95267" lon="1.8658">
        <ele>268.4</ele>
        <time>2022-08-14T06:08:33Z</time>
      </trkpt>
      <trkpt lat="43.95265" lon="1.86579">
        <ele>268.4</ele>
        <time>2022-08-14T06:08:34Z</time>
      </trkpt>
      <trkpt lat="43.95263" lon="1.86579">
        <ele>268.8</ele>
        <time>2022-08-14T06:08:35Z</time>
      </trkpt>
      <trkpt lat="43.95262" lon="1.86578">
        <ele>268.8</ele>
        <time>2022-08-14T06:08:36Z</time>
      </trkpt>
      <trkpt lat="43.95261" lon="1.86577">
        <ele>269</ele>
        <time>2022-08-14T06:08:37Z</time>
      </trkpt>
      <trkpt lat="43.95261" lon="1.86574">
        <ele>269</ele>
        <time>2022-08-14T06:08:38Z</time>
      </trkpt>
      <trkpt lat="43.95259" lon="1.86571">
        <ele>269</ele>
        <time>2022-08-14T06:08:39Z</time>
      </trkpt>
      <trkpt lat="43.95257" lon="1.86568">
        <ele>269</ele>
        <time>2022-08-14T06:08:40Z</time>
      </trkpt>
      <trkpt lat="43.95256" lon="1.86567">
        <ele>269</ele>
        <time>2022-08-14T06:08:41Z</time>
      </trkpt>
      <trkpt lat="43.95255" lon="1.86565">
        <ele>269</ele>
        <time>2022-08-14T06:08:42Z</time>
      </trkpt>
      <trkpt lat="43.95252" lon="1.86561">
        <ele>269</ele>
        <time>2022-08-14T06:08:43Z</time>
      </trkpt>
      <trkpt lat="43.95249" lon="1.86558">
        <ele>269</ele>
        <time>2022-08-14T06:08:44Z</time>
      </trkpt>
      <trkpt lat="43.95247" lon="1.86555">
        <ele>268.8</ele>
        <time>2022-08-14T06:08:45Z</time>
      </trkpt>
      <trkpt lat="43.95244" lon="1.86553">
        <ele>268.8</ele>
        <time>2022-08-14T06:08:46Z</time>
      </trkpt>
      <trkpt lat="43.95242" lon="1.86551">
        <ele>268.8</ele>
        <time>2022-08-14T06:08:47Z</time>
      </trkpt>
      <trkpt lat="43.9524" lon="1.86547">
        <ele>268.6</ele>
        <time>2022-08-14T06:08:48Z</time>
      </trkpt>
      <trkpt lat="43.95238" lon="1.86545">
        <ele>268.4</ele>
        <time>2022-08-14T06:08:49Z</time>
      </trkpt>
      <trkpt lat="43.95234" lon="1.86544">
        <ele>268.2</ele>
        <time>2022-08-14T06:08:51Z</time>
      </trkpt>
      <trkpt lat="43.95232" lon="1.86545">
        <ele>268.2</ele>
        <time>2022-08-14T06:08:52Z</time>
      </trkpt>
      <trkpt lat="43.95229" lon="1.86547">
        <ele>268.2</ele>
        <time>2022-08-14T06:08:53Z</time>
      </trkpt>
      <trkpt lat="43.95227" lon="1.86548">
        <ele>268.2</ele>
        <time>2022-08-14T06:08:54Z</time>
      </trkpt>
      <trkpt lat="43.95223" lon="1.86548">
        <ele>268.2</ele>
        <time>2022-08-14T06:08:55Z</time>
      </trkpt>
      <trkpt lat="43.95219" lon="1.86548">
        <ele>268.2</ele>
        <time>2022-08-14T06:08:56Z</time>
      </trkpt>
      <trkpt lat="43.95217" lon="1.86548">
        <ele>268.2</ele>
        <time>2022-08-14T06:08:57Z</time>
      </trkpt>
      <trkpt lat="43.95215" lon="1.86549">
        <ele>268.2</ele>
        <time>2022-08-14T06:08:58Z</time>
      </trkpt>
      <trkpt lat="43.95213" lon="1.86552">
        <ele>268.2</ele>
        <time>2022-08-14T06:08:59Z</time>
      </trkpt>
      <trkpt lat="43.95203" lon="1.8656">
        <ele>269</ele>
        <time>2022-08-14T06:09:03Z</time>
      </trkpt>
      <trkpt lat="43.95202" lon="1.86561">
        <ele>269.2</ele>
        <time>2022-08-14T06:09:04Z</time>
      </trkpt>
      <trkpt lat="43.95199" lon="1.86563">
        <ele>269.4</ele>
        <time>2022-08-14T06:09:05Z</time>
      </trkpt>
      <trkpt lat="43.95196" lon="1.86566">
        <ele>269.6</ele>
        <time>2022-08-14T06:09:07Z</time>
      </trkpt>
      <trkpt lat="43.95194" lon="1.86567">
        <ele>269.8</ele>
        <time>2022-08-14T06:09:08Z</time>
      </trkpt>
      <trkpt lat="43.95193" lon="1.86569">
        <ele>270.2</ele>
        <time>2022-08-14T06:09:09Z</time>
      </trkpt>
      <trkpt lat="43.95191" lon="1.86569">
        <ele>270.4</ele>
        <time>2022-08-14T06:09:10Z</time>
      </trkpt>
      <trkpt lat="43.95189" lon="1.86571">
        <ele>270.6</ele>
        <time>2022-08-14T06:09:11Z</time>
      </trkpt>
      <trkpt lat="43.95183" lon="1.86581">
        <ele>271.2</ele>
        <time>2022-08-14T06:09:15Z</time>
      </trkpt>
      <trkpt lat="43.95181" lon="1.86584">
        <ele>271.4</ele>
        <time>2022-08-14T06:09:16Z</time>
      </trkpt>
      <trkpt lat="43.95176" lon="1.86596">
        <ele>271.6</ele>
        <time>2022-08-14T06:09:19Z</time>
      </trkpt>
      <trkpt lat="43.95174" lon="1.866">
        <ele>271.8</ele>
        <time>2022-08-14T06:09:20Z</time>
      </trkpt>
      <trkpt lat="43.95172" lon="1.86604">
        <ele>271.8</ele>
        <time>2022-08-14T06:09:21Z</time>
      </trkpt>
      <trkpt lat="43.95169" lon="1.86608">
        <ele>271.8</ele>
        <time>2022-08-14T06:09:22Z</time>
      </trkpt>
      <trkpt lat="43.95167" lon="1.86611">
        <ele>271.8</ele>
        <time>2022-08-14T06:09:23Z</time>
      </trkpt>
      <trkpt lat="43.95165" lon="1.86616">
        <ele>272</ele>
        <time>2022-08-14T06:09:24Z</time>
      </trkpt>
      <trkpt lat="43.95163" lon="1.86621">
        <ele>272</ele>
        <time>2022-08-14T06:09:25Z</time>
      </trkpt>
      <trkpt lat="43.95162" lon="1.86626">
        <ele>272</ele>
        <time>2022-08-14T06:09:26Z</time>
      </trkpt>
      <trkpt lat="43.9516" lon="1.8663">
        <ele>272</ele>
        <time>2022-08-14T06:09:27Z</time>
      </trkpt>
      <trkpt lat="43.95159" lon="1.86635">
        <ele>271.6</ele>
        <time>2022-08-14T06:09:28Z</time>
      </trkpt>
      <trkpt lat="43.95158" lon="1.86638">
        <ele>271.4</ele>
        <time>2022-08-14T06:09:29Z</time>
      </trkpt>
      <trkpt lat="43.95157" lon="1.86641">
        <ele>271.2</ele>
        <time>2022-08-14T06:09:30Z</time>
      </trkpt>
      <trkpt lat="43.95158" lon="1.86645">
        <ele>271</ele>
        <time>2022-08-14T06:09:31Z</time>
      </trkpt>
      <trkpt lat="43.95159" lon="1.86656">
        <ele>271</ele>
        <time>2022-08-14T06:09:33Z</time>
      </trkpt>
      <trkpt lat="43.95159" lon="1.8666">
        <ele>270.8</ele>
        <time>2022-08-14T06:09:34Z</time>
      </trkpt>
      <trkpt lat="43.95161" lon="1.86663">
        <ele>270.8</ele>
        <time>2022-08-14T06:09:35Z</time>
      </trkpt>
      <trkpt lat="43.95162" lon="1.86666">
        <ele>270.8</ele>
        <time>2022-08-14T06:09:36Z</time>
      </trkpt>
      <trkpt lat="43.95164" lon="1.86669">
        <ele>270.6</ele>
        <time>2022-08-14T06:09:37Z</time>
      </trkpt>
      <trkpt lat="43.95165" lon="1.86671">
        <ele>270.6</ele>
        <time>2022-08-14T06:09:38Z</time>
      </trkpt>
      <trkpt lat="43.95166" lon="1.86673">
        <ele>270.4</ele>
        <time>2022-08-14T06:09:39Z</time>
      </trkpt>
      <trkpt lat="43.95167" lon="1.86675">
        <ele>270.4</ele>
        <time>2022-08-14T06:09:40Z</time>
      </trkpt>
      <trkpt lat="43.95171" lon="1.8668">
        <ele>270.4</ele>
        <time>2022-08-14T06:09:42Z</time>
      </trkpt>
      <trkpt lat="43.95189" lon="1.8671">
        <ele>270.6</ele>
        <time>2022-08-14T06:09:51Z</time>
      </trkpt>
      <trkpt lat="43.95191" lon="1.86713">
        <ele>270.8</ele>
        <time>2022-08-14T06:09:52Z</time>
      </trkpt>
      <trkpt lat="43.95207" lon="1.86739">
        <ele>271.2</ele>
        <time>2022-08-14T06:09:59Z</time>
      </trkpt>
      <trkpt lat="43.95209" lon="1.86743">
        <ele>271.2</ele>
        <time>2022-08-14T06:10:00Z</time>
      </trkpt>
      <trkpt lat="43.95211" lon="1.86747">
        <ele>271.2</ele>
        <time>2022-08-14T06:10:01Z</time>
      </trkpt>
      <trkpt lat="43.95213" lon="1.86751">
        <ele>271.4</ele>
        <time>2022-08-14T06:10:02Z</time>
      </trkpt>
      <trkpt lat="43.95215" lon="1.86755">
        <ele>271.4</ele>
        <time>2022-08-14T06:10:03Z</time>
      </trkpt>
      <trkpt lat="43.95225" lon="1.86775">
        <ele>271.6</ele>
        <time>2022-08-14T06:10:08Z</time>
      </trkpt>
      <trkpt lat="43.95227" lon="1.86779">
        <ele>271.6</ele>
        <time>2022-08-14T06:10:09Z</time>
      </trkpt>
      <trkpt lat="43.95229" lon="1.86783">
        <ele>271.8</ele>
        <time>2022-08-14T06:10:10Z</time>
      </trkpt>
      <trkpt lat="43.95231" lon="1.86787">
        <ele>271.8</ele>
        <time>2022-08-14T06:10:11Z</time>
      </trkpt>
      <trkpt lat="43.95233" lon="1.8679">
        <ele>271.8</ele>
        <time>2022-08-14T06:10:12Z</time>
      </trkpt>
      <trkpt lat="43.95235" lon="1.86794">
        <ele>271.8</ele>
        <time>2022-08-14T06:10:13Z</time>
      </trkpt>
      <trkpt lat="43.9524" lon="1.86805">
        <ele>272</ele>
        <time>2022-08-14T06:10:16Z</time>
      </trkpt>
      <trkpt lat="43.95242" lon="1.86809">
        <ele>272</ele>
        <time>2022-08-14T06:10:17Z</time>
      </trkpt>
      <trkpt lat="43.95244" lon="1.86813">
        <ele>272</ele>
        <time>2022-08-14T06:10:18Z</time>
      </trkpt>
      <trkpt lat="43.95248" lon="1.8682">
        <ele>272.2</ele>
        <time>2022-08-14T06:10:20Z</time>
      </trkpt>
      <trkpt lat="43.95252" lon="1.86828">
        <ele>272.4</ele>
        <time>2022-08-14T06:10:22Z</time>
      </trkpt>
      <trkpt lat="43.95261" lon="1.86847">
        <ele>273</ele>
        <time>2022-08-14T06:10:27Z</time>
      </trkpt>
      <trkpt lat="43.95263" lon="1.86851">
        <ele>272.8</ele>
        <time>2022-08-14T06:10:28Z</time>
      </trkpt>
      <trkpt lat="43.95276" lon="1.86876">
        <ele>273.4</ele>
        <time>2022-08-14T06:10:34Z</time>
      </trkpt>
      <trkpt lat="43.95281" lon="1.86886">
        <ele>273.6</ele>
        <time>2022-08-14T06:10:36Z</time>
      </trkpt>
      <trkpt lat="43.95284" lon="1.86891">
        <ele>273.8</ele>
        <time>2022-08-14T06:10:37Z</time>
      </trkpt>
      <trkpt lat="43.95291" lon="1.869">
        <ele>274</ele>
        <time>2022-08-14T06:10:39Z</time>
      </trkpt>
      <trkpt lat="43.95295" lon="1.86904">
        <ele>274</ele>
        <time>2022-08-14T06:10:40Z</time>
      </trkpt>
      <trkpt lat="43.95298" lon="1.86907">
        <ele>274</ele>
        <time>2022-08-14T06:10:41Z</time>
      </trkpt>
      <trkpt lat="43.95302" lon="1.86908">
        <ele>274</ele>
        <time>2022-08-14T06:10:42Z</time>
      </trkpt>
      <trkpt lat="43.95305" lon="1.86908">
        <ele>274.2</ele>
        <time>2022-08-14T06:10:43Z</time>
      </trkpt>
      <trkpt lat="43.95307" lon="1.86905">
        <ele>274.2</ele>
        <time>2022-08-14T06:10:44Z</time>
      </trkpt>
      <trkpt lat="43.95308" lon="1.86903">
        <ele>274.2</ele>
        <time>2022-08-14T06:10:45Z</time>
      </trkpt>
      <trkpt lat="43.95309" lon="1.86899">
        <ele>274.2</ele>
        <time>2022-08-14T06:11:02Z</time>
      </trkpt>
      <trkpt lat="43.9531" lon="1.86893">
        <ele>274.2</ele>
        <time>2022-08-14T06:11:04Z</time>
      </trkpt>
      <trkpt lat="43.95311" lon="1.86889">
        <ele>274.2</ele>
        <time>2022-08-14T06:11:05Z</time>
      </trkpt>
      <trkpt lat="43.95312" lon="1.86885">
        <ele>274.2</ele>
        <time>2022-08-14T06:11:06Z</time>
      </trkpt>
      <trkpt lat="43.95314" lon="1.86881">
        <ele>274.2</ele>
        <time>2022-08-14T06:11:07Z</time>
      </trkpt>
      <trkpt lat="43.95316" lon="1.86875">
        <ele>274.2</ele>
        <time>2022-08-14T06:11:08Z</time>
      </trkpt>
      <trkpt lat="43.95319" lon="1.8687">
        <ele>274.2</ele>
        <time>2022-08-14T06:11:09Z</time>
      </trkpt>
      <trkpt lat="43.95322" lon="1.86866">
        <ele>274.2</ele>
        <time>2022-08-14T06:11:10Z</time>
      </trkpt>
      <trkpt lat="43.95325" lon="1.86863">
        <ele>274</ele>
        <time>2022-08-14T06:11:11Z</time>
      </trkpt>
      <trkpt lat="43.95327" lon="1.8686">
        <ele>274</ele>
        <time>2022-08-14T06:11:12Z</time>
      </trkpt>
      <trkpt lat="43.95327" lon="1.86858">
        <ele>274</ele>
        <time>2022-08-14T06:11:13Z</time>
      </trkpt>
      <trkpt lat="43.95327" lon="1.86857">
        <ele>274</ele>
        <time>2022-08-14T06:11:14Z</time>
      </trkpt>
      <trkpt lat="43.95326" lon="1.86856">
        <ele>273.8</ele>
        <time>2022-08-14T06:11:15Z</time>
      </trkpt>
      <trkpt lat="43.95326" lon="1.86855">
        <ele>273.6</ele>
        <time>2022-08-14T06:11:16Z</time>
      </trkpt>
      <trkpt lat="43.95326" lon="1.86855">
        <ele>273.6</ele>
        <time>2022-08-14T06:11:17Z</time>
      </trkpt>
      <trkpt lat="43.95326" lon="1.86855">
        <ele>273.4</ele>
        <time>2022-08-14T06:11:18Z</time>
      </trkpt>
      <trkpt lat="43.95324" lon="1.86848">
        <ele>272.2</ele>
        <time>2022-08-14T06:12:42Z</time>
      </trkpt>
      <trkpt lat="43.95322" lon="1.86849">
        <ele>272.2</ele>
        <time>2022-08-14T06:12:44Z</time>
      </trkpt>
      <trkpt lat="43.95322" lon="1.86851">
        <ele>272.2</ele>
        <time>2022-08-14T06:12:45Z</time>
      </trkpt>
      <trkpt lat="43.9532" lon="1.86853">
        <ele>272.4</ele>
        <time>2022-08-14T06:12:46Z</time>
      </trkpt>
      <trkpt lat="43.95314" lon="1.86865">
        <ele>272.4</ele>
        <time>2022-08-14T06:12:49Z</time>
      </trkpt>
      <trkpt lat="43.95313" lon="1.86869">
        <ele>272.4</ele>
        <time>2022-08-14T06:12:50Z</time>
      </trkpt>
      <trkpt lat="43.95311" lon="1.86874">
        <ele>272.6</ele>
        <time>2022-08-14T06:12:51Z</time>
      </trkpt>
      <trkpt lat="43.95311" lon="1.86878">
        <ele>272.6</ele>
        <time>2022-08-14T06:12:52Z</time>
      </trkpt>
      <trkpt lat="43.95311" lon="1.86883">
        <ele>272.6</ele>
        <time>2022-08-14T06:12:53Z</time>
      </trkpt>
      <trkpt lat="43.95311" lon="1.86887">
        <ele>272.8</ele>
        <time>2022-08-14T06:12:54Z</time>
      </trkpt>
      <trkpt lat="43.95312" lon="1.86891">
        <ele>272.8</ele>
        <time>2022-08-14T06:12:55Z</time>
      </trkpt>
      <trkpt lat="43.95312" lon="1.86893">
        <ele>273</ele>
        <time>2022-08-14T06:12:56Z</time>
      </trkpt>
      <trkpt lat="43.95312" lon="1.86893">
        <ele>273</ele>
        <time>2022-08-14T06:12:57Z</time>
      </trkpt>
      <trkpt lat="43.95306" lon="1.86906">
        <ele>273.6</ele>
        <time>2022-08-14T06:13:07Z</time>
      </trkpt>
      <trkpt lat="43.95304" lon="1.86907">
        <ele>273.4</ele>
        <time>2022-08-14T06:13:08Z</time>
      </trkpt>
      <trkpt lat="43.95301" lon="1.86906">
        <ele>273.2</ele>
        <time>2022-08-14T06:13:09Z</time>
      </trkpt>
      <trkpt lat="43.95297" lon="1.86902">
        <ele>273.2</ele>
        <time>2022-08-14T06:13:10Z</time>
      </trkpt>
      <trkpt lat="43.95284" lon="1.86887">
        <ele>273.2</ele>
        <time>2022-08-14T06:13:13Z</time>
      </trkpt>
      <trkpt lat="43.9528" lon="1.8688">
        <ele>273</ele>
        <time>2022-08-14T06:13:14Z</time>
      </trkpt>
      <trkpt lat="43.95264" lon="1.86852">
        <ele>273</ele>
        <time>2022-08-14T06:13:18Z</time>
      </trkpt>
      <trkpt lat="43.95238" lon="1.86806">
        <ele>272.8</ele>
        <time>2022-08-14T06:13:24Z</time>
      </trkpt>
      <trkpt lat="43.95235" lon="1.86799">
        <ele>272.6</ele>
        <time>2022-08-14T06:13:25Z</time>
      </trkpt>
      <trkpt lat="43.95232" lon="1.86792">
        <ele>272.6</ele>
        <time>2022-08-14T06:13:26Z</time>
      </trkpt>
      <trkpt lat="43.95229" lon="1.86785">
        <ele>272.6</ele>
        <time>2022-08-14T06:13:27Z</time>
      </trkpt>
      <trkpt lat="43.95226" lon="1.86779">
        <ele>272.6</ele>
        <time>2022-08-14T06:13:28Z</time>
      </trkpt>
      <trkpt lat="43.95223" lon="1.86772">
        <ele>272.4</ele>
        <time>2022-08-14T06:13:29Z</time>
      </trkpt>
      <trkpt lat="43.9522" lon="1.86766">
        <ele>272.4</ele>
        <time>2022-08-14T06:13:30Z</time>
      </trkpt>
      <trkpt lat="43.95217" lon="1.8676">
        <ele>272.4</ele>
        <time>2022-08-14T06:13:31Z</time>
      </trkpt>
      <trkpt lat="43.9521" lon="1.86747">
        <ele>272.2</ele>
        <time>2022-08-14T06:13:33Z</time>
      </trkpt>
      <trkpt lat="43.95203" lon="1.86735">
        <ele>272</ele>
        <time>2022-08-14T06:13:35Z</time>
      </trkpt>
      <trkpt lat="43.95171" lon="1.8668">
        <ele>271.8</ele>
        <time>2022-08-14T06:13:43Z</time>
      </trkpt>
      <trkpt lat="43.95154" lon="1.86652">
        <ele>271.2</ele>
        <time>2022-08-14T06:13:47Z</time>
      </trkpt>
      <trkpt lat="43.95134" lon="1.86622">
        <ele>271</ele>
        <time>2022-08-14T06:13:51Z</time>
      </trkpt>
      <trkpt lat="43.95116" lon="1.86597">
        <ele>270.6</ele>
        <time>2022-08-14T06:13:54Z</time>
      </trkpt>
      <trkpt lat="43.95111" lon="1.8659">
        <ele>269.8</ele>
        <time>2022-08-14T06:13:55Z</time>
      </trkpt>
      <trkpt lat="43.95106" lon="1.86584">
        <ele>269.2</ele>
        <time>2022-08-14T06:13:56Z</time>
      </trkpt>
      <trkpt lat="43.95102" lon="1.86579">
        <ele>268.8</ele>
        <time>2022-08-14T06:13:57Z</time>
      </trkpt>
      <trkpt lat="43.95099" lon="1.86575">
        <ele>268.2</ele>
        <time>2022-08-14T06:13:58Z</time>
      </trkpt>
      <trkpt lat="43.95096" lon="1.86572">
        <ele>267.8</ele>
        <time>2022-08-14T06:13:59Z</time>
      </trkpt>
      <trkpt lat="43.95095" lon="1.8657">
        <ele>266.6</ele>
        <time>2022-08-14T06:14:00Z</time>
      </trkpt>
      <trkpt lat="43.95094" lon="1.86569">
        <ele>266.2</ele>
        <time>2022-08-14T06:14:01Z</time>
      </trkpt>
      <trkpt lat="43.95093" lon="1.86568">
        <ele>265.6</ele>
        <time>2022-08-14T06:14:02Z</time>
      </trkpt>
      <trkpt lat="43.95093" lon="1.86568">
        <ele>264.8</ele>
        <time>2022-08-14T06:14:03Z</time>
      </trkpt>
      <trkpt lat="43.95091" lon="1.86566">
        <ele>261</ele>
        <time>2022-08-14T06:14:49Z</time>
      </trkpt>
      <trkpt lat="43.95091" lon="1.86565">
        <ele>261</ele>
        <time>2022-08-14T06:14:50Z</time>
      </trkpt>
      <trkpt lat="43.95087" lon="1.86559">
        <ele>261</ele>
        <time>2022-08-14T06:14:53Z</time>
      </trkpt>
      <trkpt lat="43.95071" lon="1.86545">
        <ele>260.8</ele>
        <time>2022-08-14T06:14:59Z</time>
      </trkpt>
      <trkpt lat="43.95058" lon="1.86533">
        <ele>260.4</ele>
        <time>2022-08-14T06:15:03Z</time>
      </trkpt>
      <trkpt lat="43.95055" lon="1.8653">
        <ele>260.2</ele>
        <time>2022-08-14T06:15:04Z</time>
      </trkpt>
      <trkpt lat="43.95053" lon="1.86527">
        <ele>260</ele>
        <time>2022-08-14T06:15:05Z</time>
      </trkpt>
      <trkpt lat="43.9505" lon="1.86525">
        <ele>259.8</ele>
        <time>2022-08-14T06:15:06Z</time>
      </trkpt>
      <trkpt lat="43.95047" lon="1.86523">
        <ele>259.8</ele>
        <time>2022-08-14T06:15:07Z</time>
      </trkpt>
      <trkpt lat="43.95044" lon="1.86523">
        <ele>259.8</ele>
        <time>2022-08-14T06:15:08Z</time>
      </trkpt>
      <trkpt lat="43.95041" lon="1.86523">
        <ele>259.6</ele>
        <time>2022-08-14T06:15:09Z</time>
      </trkpt>
      <trkpt lat="43.95039" lon="1.86526">
        <ele>259.4</ele>
        <time>2022-08-14T06:15:10Z</time>
      </trkpt>
      <trkpt lat="43.95033" lon="1.86543">
        <ele>259</ele>
        <time>2022-08-14T06:15:14Z</time>
      </trkpt>
      <trkpt lat="43.95032" lon="1.86548">
        <ele>259</ele>
        <time>2022-08-14T06:15:15Z</time>
      </trkpt>
      <trkpt lat="43.95031" lon="1.86554">
        <ele>258.8</ele>
        <time>2022-08-14T06:15:16Z</time>
      </trkpt>
      <trkpt lat="43.95031" lon="1.86564">
        <ele>258.4</ele>
        <time>2022-08-14T06:15:18Z</time>
      </trkpt>
      <trkpt lat="43.95034" lon="1.86575">
        <ele>257.8</ele>
        <time>2022-08-14T06:15:20Z</time>
      </trkpt>
      <trkpt lat="43.95036" lon="1.86582">
        <ele>257.6</ele>
        <time>2022-08-14T06:15:21Z</time>
      </trkpt>
      <trkpt lat="43.95037" lon="1.86588">
        <ele>257.2</ele>
        <time>2022-08-14T06:15:22Z</time>
      </trkpt>
      <trkpt lat="43.95038" lon="1.86596">
        <ele>256.8</ele>
        <time>2022-08-14T06:15:23Z</time>
      </trkpt>
      <trkpt lat="43.95039" lon="1.86603">
        <ele>256.2</ele>
        <time>2022-08-14T06:15:24Z</time>
      </trkpt>
      <trkpt lat="43.9504" lon="1.86616">
        <ele>255.2</ele>
        <time>2022-08-14T06:15:26Z</time>
      </trkpt>
      <trkpt lat="43.95039" lon="1.86623">
        <ele>254.8</ele>
        <time>2022-08-14T06:15:27Z</time>
      </trkpt>
      <trkpt lat="43.95037" lon="1.86631">
        <ele>254.6</ele>
        <time>2022-08-14T06:15:28Z</time>
      </trkpt>
      <trkpt lat="43.95033" lon="1.86639">
        <ele>253.8</ele>
        <time>2022-08-14T06:15:29Z</time>
      </trkpt>
      <trkpt lat="43.95028" lon="1.86647">
        <ele>253</ele>
        <time>2022-08-14T06:15:30Z</time>
      </trkpt>
      <trkpt lat="43.95024" lon="1.86655">
        <ele>252.6</ele>
        <time>2022-08-14T06:15:31Z</time>
      </trkpt>
      <trkpt lat="43.95019" lon="1.86663">
        <ele>251.6</ele>
        <time>2022-08-14T06:15:32Z</time>
      </trkpt>
      <trkpt lat="43.95015" lon="1.86671">
        <ele>251</ele>
        <time>2022-08-14T06:15:33Z</time>
      </trkpt>
      <trkpt lat="43.9501" lon="1.86679">
        <ele>250</ele>
        <time>2022-08-14T06:15:34Z</time>
      </trkpt>
      <trkpt lat="43.95005" lon="1.86686">
        <ele>249.4</ele>
        <time>2022-08-14T06:15:35Z</time>
      </trkpt>
      <trkpt lat="43.95" lon="1.86694">
        <ele>248.6</ele>
        <time>2022-08-14T06:15:36Z</time>
      </trkpt>
      <trkpt lat="43.94991" lon="1.86711">
        <ele>247.2</ele>
        <time>2022-08-14T06:15:38Z</time>
      </trkpt>
      <trkpt lat="43.94986" lon="1.86718">
        <ele>246.2</ele>
        <time>2022-08-14T06:15:39Z</time>
      </trkpt>
      <trkpt lat="43.94981" lon="1.86725">
        <ele>245.8</ele>
        <time>2022-08-14T06:15:40Z</time>
      </trkpt>
      <trkpt lat="43.94976" lon="1.86734">
        <ele>244.4</ele>
        <time>2022-08-14T06:15:41Z</time>
      </trkpt>
      <trkpt lat="43.94966" lon="1.86751">
        <ele>242.8</ele>
        <time>2022-08-14T06:15:43Z</time>
      </trkpt>
      <trkpt lat="43.94955" lon="1.86765">
        <ele>241.4</ele>
        <time>2022-08-14T06:15:45Z</time>
      </trkpt>
      <trkpt lat="43.94949" lon="1.86769">
        <ele>240.2</ele>
        <time>2022-08-14T06:15:46Z</time>
      </trkpt>
      <trkpt lat="43.94937" lon="1.86783">
        <ele>238.6</ele>
        <time>2022-08-14T06:15:48Z</time>
      </trkpt>
      <trkpt lat="43.94933" lon="1.86789">
        <ele>238.2</ele>
        <time>2022-08-14T06:15:49Z</time>
      </trkpt>
      <trkpt lat="43.94929" lon="1.86794">
        <ele>237.2</ele>
        <time>2022-08-14T06:15:50Z</time>
      </trkpt>
      <trkpt lat="43.94924" lon="1.86799">
        <ele>236.8</ele>
        <time>2022-08-14T06:15:51Z</time>
      </trkpt>
      <trkpt lat="43.9492" lon="1.86803">
        <ele>235.8</ele>
        <time>2022-08-14T06:15:52Z</time>
      </trkpt>
      <trkpt lat="43.94916" lon="1.86806">
        <ele>234.6</ele>
        <time>2022-08-14T06:15:53Z</time>
      </trkpt>
      <trkpt lat="43.94912" lon="1.86807">
        <ele>234.2</ele>
        <time>2022-08-14T06:15:54Z</time>
      </trkpt>
      <trkpt lat="43.94907" lon="1.86807">
        <ele>233.4</ele>
        <time>2022-08-14T06:15:55Z</time>
      </trkpt>
      <trkpt lat="43.94904" lon="1.86805">
        <ele>232.6</ele>
        <time>2022-08-14T06:15:56Z</time>
      </trkpt>
      <trkpt lat="43.949" lon="1.86803">
        <ele>231.8</ele>
        <time>2022-08-14T06:15:57Z</time>
      </trkpt>
      <trkpt lat="43.94897" lon="1.86801">
        <ele>231.4</ele>
        <time>2022-08-14T06:15:58Z</time>
      </trkpt>
      <trkpt lat="43.94889" lon="1.86796">
        <ele>230.4</ele>
        <time>2022-08-14T06:16:00Z</time>
      </trkpt>
      <trkpt lat="43.9488" lon="1.86789">
        <ele>229.2</ele>
        <time>2022-08-14T06:16:02Z</time>
      </trkpt>
      <trkpt lat="43.94876" lon="1.86785">
        <ele>228.8</ele>
        <time>2022-08-14T06:16:03Z</time>
      </trkpt>
      <trkpt lat="43.94872" lon="1.86782">
        <ele>228.4</ele>
        <time>2022-08-14T06:16:04Z</time>
      </trkpt>
      <trkpt lat="43.9487" lon="1.86779">
        <ele>228.4</ele>
        <time>2022-08-14T06:16:05Z</time>
      </trkpt>
      <trkpt lat="43.94866" lon="1.86775">
        <ele>228.2</ele>
        <time>2022-08-14T06:16:06Z</time>
      </trkpt>
      <trkpt lat="43.94862" lon="1.86772">
        <ele>228.2</ele>
        <time>2022-08-14T06:16:07Z</time>
      </trkpt>
      <trkpt lat="43.94858" lon="1.86769">
        <ele>228.2</ele>
        <time>2022-08-14T06:16:08Z</time>
      </trkpt>
      <trkpt lat="43.94855" lon="1.86767">
        <ele>228.2</ele>
        <time>2022-08-14T06:16:09Z</time>
      </trkpt>
      <trkpt lat="43.94851" lon="1.86766">
        <ele>228.2</ele>
        <time>2022-08-14T06:16:10Z</time>
      </trkpt>
      <trkpt lat="43.94848" lon="1.86767">
        <ele>228.2</ele>
        <time>2022-08-14T06:16:11Z</time>
      </trkpt>
      <trkpt lat="43.94843" lon="1.86769">
        <ele>228.2</ele>
        <time>2022-08-14T06:16:12Z</time>
      </trkpt>
      <trkpt lat="43.94839" lon="1.86771">
        <ele>228.4</ele>
        <time>2022-08-14T06:16:13Z</time>
      </trkpt>
      <trkpt lat="43.94833" lon="1.86773">
        <ele>228.4</ele>
        <time>2022-08-14T06:16:14Z</time>
      </trkpt>
      <trkpt lat="43.94827" lon="1.86776">
        <ele>228.4</ele>
        <time>2022-08-14T06:16:15Z</time>
      </trkpt>
      <trkpt lat="43.94821" lon="1.86779">
        <ele>228.4</ele>
        <time>2022-08-14T06:16:16Z</time>
      </trkpt>
      <trkpt lat="43.94808" lon="1.86788">
        <ele>228</ele>
        <time>2022-08-14T06:16:18Z</time>
      </trkpt>
      <trkpt lat="43.94794" lon="1.868">
        <ele>227.2</ele>
        <time>2022-08-14T06:16:20Z</time>
      </trkpt>
      <trkpt lat="43.94787" lon="1.86807">
        <ele>227</ele>
        <time>2022-08-14T06:16:21Z</time>
      </trkpt>
      <trkpt lat="43.9477" lon="1.86821">
        <ele>225.8</ele>
        <time>2022-08-14T06:16:23Z</time>
      </trkpt>
      <trkpt lat="43.94754" lon="1.86834">
        <ele>225</ele>
        <time>2022-08-14T06:16:25Z</time>
      </trkpt>
      <trkpt lat="43.94738" lon="1.86849">
        <ele>224.2</ele>
        <time>2022-08-14T06:16:27Z</time>
      </trkpt>
      <trkpt lat="43.94721" lon="1.86865">
        <ele>223</ele>
        <time>2022-08-14T06:16:29Z</time>
      </trkpt>
      <trkpt lat="43.94713" lon="1.86873">
        <ele>222.6</ele>
        <time>2022-08-14T06:16:30Z</time>
      </trkpt>
      <trkpt lat="43.94696" lon="1.86891">
        <ele>221.8</ele>
        <time>2022-08-14T06:16:32Z</time>
      </trkpt>
      <trkpt lat="43.94687" lon="1.86899">
        <ele>218.6</ele>
        <time>2022-08-14T06:16:33Z</time>
      </trkpt>
      <trkpt lat="43.94678" lon="1.86907">
        <ele>216.2</ele>
        <time>2022-08-14T06:16:34Z</time>
      </trkpt>
      <trkpt lat="43.9467" lon="1.86915">
        <ele>215.4</ele>
        <time>2022-08-14T06:16:35Z</time>
      </trkpt>
      <trkpt lat="43.94663" lon="1.86923">
        <ele>214.8</ele>
        <time>2022-08-14T06:16:36Z</time>
      </trkpt>
      <trkpt lat="43.94655" lon="1.8693">
        <ele>214.4</ele>
        <time>2022-08-14T06:16:37Z</time>
      </trkpt>
      <trkpt lat="43.94648" lon="1.86936">
        <ele>213.8</ele>
        <time>2022-08-14T06:16:38Z</time>
      </trkpt>
      <trkpt lat="43.94642" lon="1.86941">
        <ele>213.2</ele>
        <time>2022-08-14T06:16:39Z</time>
      </trkpt>
      <trkpt lat="43.94636" lon="1.86945">
        <ele>212</ele>
        <time>2022-08-14T06:16:40Z</time>
      </trkpt>
      <trkpt lat="43.9463" lon="1.86948">
        <ele>209.6</ele>
        <time>2022-08-14T06:16:41Z</time>
      </trkpt>
      <trkpt lat="43.94624" lon="1.86948">
        <ele>208</ele>
        <time>2022-08-14T06:16:42Z</time>
      </trkpt>
      <trkpt lat="43.94618" lon="1.86945">
        <ele>206.2</ele>
        <time>2022-08-14T06:16:43Z</time>
      </trkpt>
      <trkpt lat="43.94613" lon="1.86942">
        <ele>205.2</ele>
        <time>2022-08-14T06:16:44Z</time>
      </trkpt>
      <trkpt lat="43.94608" lon="1.86939">
        <ele>204</ele>
        <time>2022-08-14T06:16:45Z</time>
      </trkpt>
      <trkpt lat="43.94603" lon="1.86937">
        <ele>203.4</ele>
        <time>2022-08-14T06:16:46Z</time>
      </trkpt>
      <trkpt lat="43.94597" lon="1.86935">
        <ele>202.4</ele>
        <time>2022-08-14T06:16:47Z</time>
      </trkpt>
      <trkpt lat="43.94584" lon="1.86932">
        <ele>201</ele>
        <time>2022-08-14T06:16:49Z</time>
      </trkpt>
      <trkpt lat="43.94577" lon="1.8693">
        <ele>200</ele>
        <time>2022-08-14T06:16:50Z</time>
      </trkpt>
      <trkpt lat="43.94563" lon="1.86923">
        <ele>198.8</ele>
        <time>2022-08-14T06:16:52Z</time>
      </trkpt>
      <trkpt lat="43.94557" lon="1.86919">
        <ele>198.2</ele>
        <time>2022-08-14T06:16:53Z</time>
      </trkpt>
      <trkpt lat="43.94552" lon="1.86917">
        <ele>197.6</ele>
        <time>2022-08-14T06:16:54Z</time>
      </trkpt>
      <trkpt lat="43.94548" lon="1.86916">
        <ele>197.2</ele>
        <time>2022-08-14T06:16:55Z</time>
      </trkpt>
      <trkpt lat="43.94547" lon="1.86915">
        <ele>196.6</ele>
        <time>2022-08-14T06:16:56Z</time>
      </trkpt>
      <trkpt lat="43.94547" lon="1.86915">
        <ele>196.2</ele>
        <time>2022-08-14T06:16:57Z</time>
      </trkpt>
      <trkpt lat="43.94547" lon="1.86916">
        <ele>194.6</ele>
        <time>2022-08-14T06:17:26Z</time>
      </trkpt>
      <trkpt lat="43.94543" lon="1.86924">
        <ele>194.4</ele>
        <time>2022-08-14T06:17:28Z</time>
      </trkpt>
      <trkpt lat="43.9454" lon="1.86929">
        <ele>194.4</ele>
        <time>2022-08-14T06:17:29Z</time>
      </trkpt>
      <trkpt lat="43.94536" lon="1.86935">
        <ele>194.4</ele>
        <time>2022-08-14T06:17:30Z</time>
      </trkpt>
      <trkpt lat="43.94533" lon="1.86942">
        <ele>194.4</ele>
        <time>2022-08-14T06:17:31Z</time>
      </trkpt>
      <trkpt lat="43.9453" lon="1.86949">
        <ele>194.2</ele>
        <time>2022-08-14T06:17:32Z</time>
      </trkpt>
      <trkpt lat="43.94524" lon="1.86961">
        <ele>194</ele>
        <time>2022-08-14T06:17:34Z</time>
      </trkpt>
      <trkpt lat="43.94521" lon="1.86966">
        <ele>194</ele>
        <time>2022-08-14T06:17:35Z</time>
      </trkpt>
      <trkpt lat="43.94519" lon="1.86971">
        <ele>193.6</ele>
        <time>2022-08-14T06:17:36Z</time>
      </trkpt>
      <trkpt lat="43.94516" lon="1.86976">
        <ele>193.6</ele>
        <time>2022-08-14T06:17:37Z</time>
      </trkpt>
      <trkpt lat="43.94513" lon="1.86981">
        <ele>193.4</ele>
        <time>2022-08-14T06:17:38Z</time>
      </trkpt>
      <trkpt lat="43.94489" lon="1.8701">
        <ele>192</ele>
        <time>2022-08-14T06:17:44Z</time>
      </trkpt>
      <trkpt lat="43.94485" lon="1.87015">
        <ele>191.6</ele>
        <time>2022-08-14T06:17:45Z</time>
      </trkpt>
      <trkpt lat="43.94457" lon="1.87049">
        <ele>191.2</ele>
        <time>2022-08-14T06:17:52Z</time>
      </trkpt>
      <trkpt lat="43.94449" lon="1.87059">
        <ele>191.2</ele>
        <time>2022-08-14T06:17:54Z</time>
      </trkpt>
      <trkpt lat="43.94446" lon="1.87064">
        <ele>191.2</ele>
        <time>2022-08-14T06:17:55Z</time>
      </trkpt>
      <trkpt lat="43.94434" lon="1.87078">
        <ele>191.2</ele>
        <time>2022-08-14T06:17:58Z</time>
      </trkpt>
      <trkpt lat="43.94422" lon="1.87092">
        <ele>190.8</ele>
        <time>2022-08-14T06:18:01Z</time>
      </trkpt>
      <trkpt lat="43.94414" lon="1.87102">
        <ele>190.4</ele>
        <time>2022-08-14T06:18:03Z</time>
      </trkpt>
      <trkpt lat="43.94411" lon="1.87106">
        <ele>190.4</ele>
        <time>2022-08-14T06:18:04Z</time>
      </trkpt>
      <trkpt lat="43.94407" lon="1.8711">
        <ele>190.2</ele>
        <time>2022-08-14T06:18:05Z</time>
      </trkpt>
      <trkpt lat="43.94394" lon="1.87125">
        <ele>189.8</ele>
        <time>2022-08-14T06:18:08Z</time>
      </trkpt>
      <trkpt lat="43.94391" lon="1.87128">
        <ele>189.8</ele>
        <time>2022-08-14T06:18:09Z</time>
      </trkpt>
      <trkpt lat="43.94388" lon="1.87132">
        <ele>189.6</ele>
        <time>2022-08-14T06:18:10Z</time>
      </trkpt>
      <trkpt lat="43.94384" lon="1.87135">
        <ele>189.6</ele>
        <time>2022-08-14T06:18:11Z</time>
      </trkpt>
      <trkpt lat="43.94381" lon="1.87137">
        <ele>189.4</ele>
        <time>2022-08-14T06:18:12Z</time>
      </trkpt>
      <trkpt lat="43.94378" lon="1.87139">
        <ele>189.4</ele>
        <time>2022-08-14T06:18:13Z</time>
      </trkpt>
      <trkpt lat="43.94376" lon="1.87142">
        <ele>189.2</ele>
        <time>2022-08-14T06:18:14Z</time>
      </trkpt>
      <trkpt lat="43.94375" lon="1.87147">
        <ele>189.2</ele>
        <time>2022-08-14T06:18:15Z</time>
      </trkpt>
      <trkpt lat="43.94374" lon="1.87151">
        <ele>189.2</ele>
        <time>2022-08-14T06:18:16Z</time>
      </trkpt>
      <trkpt lat="43.94374" lon="1.87157">
        <ele>189.2</ele>
        <time>2022-08-14T06:18:17Z</time>
      </trkpt>
      <trkpt lat="43.94374" lon="1.87161">
        <ele>189</ele>
        <time>2022-08-14T06:18:18Z</time>
      </trkpt>
      <trkpt lat="43.94374" lon="1.87165">
        <ele>189</ele>
        <time>2022-08-14T06:18:19Z</time>
      </trkpt>
      <trkpt lat="43.94374" lon="1.87171">
        <ele>189</ele>
        <time>2022-08-14T06:18:20Z</time>
      </trkpt>
      <trkpt lat="43.94368" lon="1.87213">
        <ele>188.6</ele>
        <time>2022-08-14T06:18:28Z</time>
      </trkpt>
      <trkpt lat="43.94367" lon="1.87219">
        <ele>188.6</ele>
        <time>2022-08-14T06:18:29Z</time>
      </trkpt>
      <trkpt lat="43.94366" lon="1.87224">
        <ele>188.4</ele>
        <time>2022-08-14T06:18:30Z</time>
      </trkpt>
      <trkpt lat="43.94365" lon="1.87236">
        <ele>188.2</ele>
        <time>2022-08-14T06:18:32Z</time>
      </trkpt>
      <trkpt lat="43.94361" lon="1.87253">
        <ele>188</ele>
        <time>2022-08-14T06:18:35Z</time>
      </trkpt>
      <trkpt lat="43.9436" lon="1.87258">
        <ele>187.8</ele>
        <time>2022-08-14T06:18:36Z</time>
      </trkpt>
      <trkpt lat="43.94359" lon="1.87263">
        <ele>187.8</ele>
        <time>2022-08-14T06:18:37Z</time>
      </trkpt>
      <trkpt lat="43.94352" lon="1.87285">
        <ele>187.4</ele>
        <time>2022-08-14T06:18:41Z</time>
      </trkpt>
      <trkpt lat="43.9435" lon="1.8729">
        <ele>187.4</ele>
        <time>2022-08-14T06:18:42Z</time>
      </trkpt>
      <trkpt lat="43.94348" lon="1.87294">
        <ele>187.2</ele>
        <time>2022-08-14T06:18:43Z</time>
      </trkpt>
      <trkpt lat="43.94345" lon="1.873">
        <ele>187.2</ele>
        <time>2022-08-14T06:18:44Z</time>
      </trkpt>
      <trkpt lat="43.94337" lon="1.87317">
        <ele>187</ele>
        <time>2022-08-14T06:18:48Z</time>
      </trkpt>
      <trkpt lat="43.94335" lon="1.8732">
        <ele>187</ele>
        <time>2022-08-14T06:18:49Z</time>
      </trkpt>
      <trkpt lat="43.94333" lon="1.87323">
        <ele>187</ele>
        <time>2022-08-14T06:18:50Z</time>
      </trkpt>
      <trkpt lat="43.9433" lon="1.87324">
        <ele>186.8</ele>
        <time>2022-08-14T06:18:51Z</time>
      </trkpt>
      <trkpt lat="43.94327" lon="1.87324">
        <ele>186.8</ele>
        <time>2022-08-14T06:18:52Z</time>
      </trkpt>
      <trkpt lat="43.94324" lon="1.87324">
        <ele>186.8</ele>
        <time>2022-08-14T06:18:53Z</time>
      </trkpt>
      <trkpt lat="43.94318" lon="1.87324">
        <ele>186.8</ele>
        <time>2022-08-14T06:18:55Z</time>
      </trkpt>
      <trkpt lat="43.94317" lon="1.87326">
        <ele>186.8</ele>
        <time>2022-08-14T06:18:56Z</time>
      </trkpt>
      <trkpt lat="43.94318" lon="1.87335">
        <ele>186.8</ele>
        <time>2022-08-14T06:18:58Z</time>
      </trkpt>
      <trkpt lat="43.9432" lon="1.87344">
        <ele>187</ele>
        <time>2022-08-14T06:19:00Z</time>
      </trkpt>
      <trkpt lat="43.94318" lon="1.87355">
        <ele>186.8</ele>
        <time>2022-08-14T06:19:02Z</time>
      </trkpt>
      <trkpt lat="43.94316" lon="1.87359">
        <ele>186.8</ele>
        <time>2022-08-14T06:19:03Z</time>
      </trkpt>
      <trkpt lat="43.94315" lon="1.87363">
        <ele>186.8</ele>
        <time>2022-08-14T06:19:04Z</time>
      </trkpt>
      <trkpt lat="43.94313" lon="1.87368">
        <ele>186.8</ele>
        <time>2022-08-14T06:19:05Z</time>
      </trkpt>
      <trkpt lat="43.94311" lon="1.87372">
        <ele>186.6</ele>
        <time>2022-08-14T06:19:06Z</time>
      </trkpt>
      <trkpt lat="43.9431" lon="1.87375">
        <ele>186.6</ele>
        <time>2022-08-14T06:19:07Z</time>
      </trkpt>
      <trkpt lat="43.94308" lon="1.87379">
        <ele>186.4</ele>
        <time>2022-08-14T06:19:08Z</time>
      </trkpt>
      <trkpt lat="43.94307" lon="1.87383">
        <ele>186.2</ele>
        <time>2022-08-14T06:19:09Z</time>
      </trkpt>
      <trkpt lat="43.94306" lon="1.87386">
        <ele>186</ele>
        <time>2022-08-14T06:19:10Z</time>
      </trkpt>
      <trkpt lat="43.94304" lon="1.87389">
        <ele>186</ele>
        <time>2022-08-14T06:19:11Z</time>
      </trkpt>
      <trkpt lat="43.94301" lon="1.87395">
        <ele>185.8</ele>
        <time>2022-08-14T06:19:13Z</time>
      </trkpt>
      <trkpt lat="43.94286" lon="1.87427">
        <ele>185.4</ele>
        <time>2022-08-14T06:19:21Z</time>
      </trkpt>
      <trkpt lat="43.94283" lon="1.87435">
        <ele>185.4</ele>
        <time>2022-08-14T06:19:23Z</time>
      </trkpt>
      <trkpt lat="43.94281" lon="1.87438">
        <ele>185.4</ele>
        <time>2022-08-14T06:19:24Z</time>
      </trkpt>
      <trkpt lat="43.94279" lon="1.87442">
        <ele>185.2</ele>
        <time>2022-08-14T06:19:25Z</time>
      </trkpt>
      <trkpt lat="43.94269" lon="1.87462">
        <ele>185.2</ele>
        <time>2022-08-14T06:19:30Z</time>
      </trkpt>
      <trkpt lat="43.94262" lon="1.87479">
        <ele>185</ele>
        <time>2022-08-14T06:19:34Z</time>
      </trkpt>
      <trkpt lat="43.94261" lon="1.87483">
        <ele>185</ele>
        <time>2022-08-14T06:19:35Z</time>
      </trkpt>
      <trkpt lat="43.94261" lon="1.87487">
        <ele>185</ele>
        <time>2022-08-14T06:19:36Z</time>
      </trkpt>
      <trkpt lat="43.9426" lon="1.87491">
        <ele>185</ele>
        <time>2022-08-14T06:19:37Z</time>
      </trkpt>
      <trkpt lat="43.94254" lon="1.87527">
        <ele>185.2</ele>
        <time>2022-08-14T06:19:44Z</time>
      </trkpt>
      <trkpt lat="43.94253" lon="1.87532">
        <ele>185</ele>
        <time>2022-08-14T06:19:45Z</time>
      </trkpt>
      <trkpt lat="43.94252" lon="1.87536">
        <ele>184.6</ele>
        <time>2022-08-14T06:19:46Z</time>
      </trkpt>
      <trkpt lat="43.94251" lon="1.87541">
        <ele>184.6</ele>
        <time>2022-08-14T06:19:47Z</time>
      </trkpt>
      <trkpt lat="43.9425" lon="1.87546">
        <ele>184.4</ele>
        <time>2022-08-14T06:19:48Z</time>
      </trkpt>
      <trkpt lat="43.94249" lon="1.87549">
        <ele>184.4</ele>
        <time>2022-08-14T06:19:49Z</time>
      </trkpt>
      <trkpt lat="43.94243" lon="1.87585">
        <ele>183.8</ele>
        <time>2022-08-14T06:19:56Z</time>
      </trkpt>
      <trkpt lat="43.94242" lon="1.8759">
        <ele>183.6</ele>
        <time>2022-08-14T06:19:57Z</time>
      </trkpt>
      <trkpt lat="43.9424" lon="1.87603">
        <ele>183.6</ele>
        <time>2022-08-14T06:19:59Z</time>
      </trkpt>
      <trkpt lat="43.94238" lon="1.87614">
        <ele>183.6</ele>
        <time>2022-08-14T06:20:01Z</time>
      </trkpt>
      <trkpt lat="43.94237" lon="1.8762">
        <ele>183.6</ele>
        <time>2022-08-14T06:20:02Z</time>
      </trkpt>
      <trkpt lat="43.94231" lon="1.87635">
        <ele>183.4</ele>
        <time>2022-08-14T06:20:05Z</time>
      </trkpt>
      <trkpt lat="43.94229" lon="1.8764">
        <ele>183.2</ele>
        <time>2022-08-14T06:20:06Z</time>
      </trkpt>
      <trkpt lat="43.94224" lon="1.8765">
        <ele>182.6</ele>
        <time>2022-08-14T06:20:08Z</time>
      </trkpt>
      <trkpt lat="43.94222" lon="1.87655">
        <ele>182.4</ele>
        <time>2022-08-14T06:20:09Z</time>
      </trkpt>
      <trkpt lat="43.94219" lon="1.87659">
        <ele>182.4</ele>
        <time>2022-08-14T06:20:10Z</time>
      </trkpt>
      <trkpt lat="43.94215" lon="1.87668">
        <ele>182.2</ele>
        <time>2022-08-14T06:20:12Z</time>
      </trkpt>
      <trkpt lat="43.94201" lon="1.87696">
        <ele>182.2</ele>
        <time>2022-08-14T06:20:18Z</time>
      </trkpt>
      <trkpt lat="43.94199" lon="1.87701">
        <ele>182.2</ele>
        <time>2022-08-14T06:20:19Z</time>
      </trkpt>
      <trkpt lat="43.94187" lon="1.87724">
        <ele>182.2</ele>
        <time>2022-08-14T06:20:24Z</time>
      </trkpt>
      <trkpt lat="43.94184" lon="1.87728">
        <ele>182.2</ele>
        <time>2022-08-14T06:20:25Z</time>
      </trkpt>
      <trkpt lat="43.94182" lon="1.87732">
        <ele>182.2</ele>
        <time>2022-08-14T06:20:26Z</time>
      </trkpt>
      <trkpt lat="43.9418" lon="1.87735">
        <ele>182</ele>
        <time>2022-08-14T06:20:27Z</time>
      </trkpt>
      <trkpt lat="43.94178" lon="1.87738">
        <ele>182</ele>
        <time>2022-08-14T06:20:28Z</time>
      </trkpt>
      <trkpt lat="43.94176" lon="1.87741">
        <ele>181.8</ele>
        <time>2022-08-14T06:20:29Z</time>
      </trkpt>
      <trkpt lat="43.94171" lon="1.87746">
        <ele>181.8</ele>
        <time>2022-08-14T06:20:31Z</time>
      </trkpt>
      <trkpt lat="43.94154" lon="1.87757">
        <ele>181.4</ele>
        <time>2022-08-14T06:20:36Z</time>
      </trkpt>
      <trkpt lat="43.94143" lon="1.87765">
        <ele>181.4</ele>
        <time>2022-08-14T06:20:39Z</time>
      </trkpt>
      <trkpt lat="43.94134" lon="1.87777">
        <ele>181.4</ele>
        <time>2022-08-14T06:20:42Z</time>
      </trkpt>
      <trkpt lat="43.94127" lon="1.87785">
        <ele>181.4</ele>
        <time>2022-08-14T06:20:44Z</time>
      </trkpt>
      <trkpt lat="43.94122" lon="1.87795">
        <ele>181.2</ele>
        <time>2022-08-14T06:20:46Z</time>
      </trkpt>
      <trkpt lat="43.94121" lon="1.878">
        <ele>181.2</ele>
        <time>2022-08-14T06:20:47Z</time>
      </trkpt>
      <trkpt lat="43.9412" lon="1.87805">
        <ele>181.2</ele>
        <time>2022-08-14T06:20:48Z</time>
      </trkpt>
      <trkpt lat="43.94119" lon="1.87811">
        <ele>181.2</ele>
        <time>2022-08-14T06:20:49Z</time>
      </trkpt>
      <trkpt lat="43.94119" lon="1.87816">
        <ele>181.2</ele>
        <time>2022-08-14T06:20:50Z</time>
      </trkpt>
      <trkpt lat="43.94115" lon="1.87831">
        <ele>181</ele>
        <time>2022-08-14T06:20:53Z</time>
      </trkpt>
      <trkpt lat="43.94112" lon="1.87844">
        <ele>181</ele>
        <time>2022-08-14T06:20:55Z</time>
      </trkpt>
      <trkpt lat="43.941" lon="1.87879">
        <ele>180.4</ele>
        <time>2022-08-14T06:21:01Z</time>
      </trkpt>
      <trkpt lat="43.94096" lon="1.8789">
        <ele>180.2</ele>
        <time>2022-08-14T06:21:03Z</time>
      </trkpt>
      <trkpt lat="43.94094" lon="1.87896">
        <ele>180</ele>
        <time>2022-08-14T06:21:04Z</time>
      </trkpt>
      <trkpt lat="43.94092" lon="1.87901">
        <ele>180</ele>
        <time>2022-08-14T06:21:05Z</time>
      </trkpt>
      <trkpt lat="43.94085" lon="1.87917">
        <ele>180</ele>
        <time>2022-08-14T06:21:08Z</time>
      </trkpt>
      <trkpt lat="43.94083" lon="1.87923">
        <ele>180</ele>
        <time>2022-08-14T06:21:09Z</time>
      </trkpt>
      <trkpt lat="43.94081" lon="1.87928">
        <ele>180</ele>
        <time>2022-08-14T06:21:10Z</time>
      </trkpt>
      <trkpt lat="43.94075" lon="1.87938">
        <ele>179.8</ele>
        <time>2022-08-14T06:21:12Z</time>
      </trkpt>
      <trkpt lat="43.94065" lon="1.87958">
        <ele>179.4</ele>
        <time>2022-08-14T06:21:16Z</time>
      </trkpt>
      <trkpt lat="43.94062" lon="1.87963">
        <ele>179.4</ele>
        <time>2022-08-14T06:21:17Z</time>
      </trkpt>
      <trkpt lat="43.9406" lon="1.87967">
        <ele>179.2</ele>
        <time>2022-08-14T06:21:18Z</time>
      </trkpt>
      <trkpt lat="43.94058" lon="1.87971">
        <ele>179.2</ele>
        <time>2022-08-14T06:21:19Z</time>
      </trkpt>
      <trkpt lat="43.94055" lon="1.87977">
        <ele>179</ele>
        <time>2022-08-14T06:21:20Z</time>
      </trkpt>
      <trkpt lat="43.94046" lon="1.87996">
        <ele>178.8</ele>
        <time>2022-08-14T06:21:24Z</time>
      </trkpt>
      <trkpt lat="43.94041" lon="1.88007">
        <ele>178.4</ele>
        <time>2022-08-14T06:21:26Z</time>
      </trkpt>
      <trkpt lat="43.94037" lon="1.88013">
        <ele>178.4</ele>
        <time>2022-08-14T06:21:27Z</time>
      </trkpt>
      <trkpt lat="43.94031" lon="1.88023">
        <ele>178.2</ele>
        <time>2022-08-14T06:21:29Z</time>
      </trkpt>
      <trkpt lat="43.94028" lon="1.88028">
        <ele>178.2</ele>
        <time>2022-08-14T06:21:30Z</time>
      </trkpt>
      <trkpt lat="43.94024" lon="1.88033">
        <ele>178</ele>
        <time>2022-08-14T06:21:31Z</time>
      </trkpt>
      <trkpt lat="43.94005" lon="1.88067">
        <ele>177.4</ele>
        <time>2022-08-14T06:21:37Z</time>
      </trkpt>
      <trkpt lat="43.93997" lon="1.88078">
        <ele>177.2</ele>
        <time>2022-08-14T06:21:39Z</time>
      </trkpt>
      <trkpt lat="43.93993" lon="1.88083">
        <ele>177</ele>
        <time>2022-08-14T06:21:40Z</time>
      </trkpt>
      <trkpt lat="43.93986" lon="1.88093">
        <ele>176.8</ele>
        <time>2022-08-14T06:21:42Z</time>
      </trkpt>
      <trkpt lat="43.93982" lon="1.88098">
        <ele>176.8</ele>
        <time>2022-08-14T06:21:43Z</time>
      </trkpt>
      <trkpt lat="43.93979" lon="1.88101">
        <ele>176.8</ele>
        <time>2022-08-14T06:21:44Z</time>
      </trkpt>
      <trkpt lat="43.93976" lon="1.88104">
        <ele>176.6</ele>
        <time>2022-08-14T06:21:45Z</time>
      </trkpt>
      <trkpt lat="43.93973" lon="1.88105">
        <ele>176.6</ele>
        <time>2022-08-14T06:21:46Z</time>
      </trkpt>
      <trkpt lat="43.9397" lon="1.88105">
        <ele>176.6</ele>
        <time>2022-08-14T06:21:47Z</time>
      </trkpt>
      <trkpt lat="43.93967" lon="1.88104">
        <ele>176.4</ele>
        <time>2022-08-14T06:21:48Z</time>
      </trkpt>
      <trkpt lat="43.93964" lon="1.88102">
        <ele>176.4</ele>
        <time>2022-08-14T06:21:49Z</time>
      </trkpt>
      <trkpt lat="43.93961" lon="1.88102">
        <ele>176.4</ele>
        <time>2022-08-14T06:21:50Z</time>
      </trkpt>
      <trkpt lat="43.93958" lon="1.88101">
        <ele>176.4</ele>
        <time>2022-08-14T06:21:51Z</time>
      </trkpt>
      <trkpt lat="43.93955" lon="1.881">
        <ele>176.4</ele>
        <time>2022-08-14T06:21:52Z</time>
      </trkpt>
      <trkpt lat="43.93953" lon="1.88099">
        <ele>176.4</ele>
        <time>2022-08-14T06:21:53Z</time>
      </trkpt>
      <trkpt lat="43.9395" lon="1.88098">
        <ele>176.6</ele>
        <time>2022-08-14T06:21:54Z</time>
      </trkpt>
      <trkpt lat="43.93945" lon="1.88096">
        <ele>176.8</ele>
        <time>2022-08-14T06:21:56Z</time>
      </trkpt>
      <trkpt lat="43.93944" lon="1.88095">
        <ele>176.8</ele>
        <time>2022-08-14T06:21:57Z</time>
      </trkpt>
      <trkpt lat="43.93941" lon="1.88094">
        <ele>177</ele>
        <time>2022-08-14T06:21:58Z</time>
      </trkpt>
      <trkpt lat="43.9393" lon="1.88091">
        <ele>177.6</ele>
        <time>2022-08-14T06:22:02Z</time>
      </trkpt>
      <trkpt lat="43.9392" lon="1.88087">
        <ele>178</ele>
        <time>2022-08-14T06:22:05Z</time>
      </trkpt>
      <trkpt lat="43.93906" lon="1.8808">
        <ele>178.8</ele>
        <time>2022-08-14T06:22:09Z</time>
      </trkpt>
      <trkpt lat="43.93902" lon="1.88078">
        <ele>179.2</ele>
        <time>2022-08-14T06:22:10Z</time>
      </trkpt>
      <trkpt lat="43.93895" lon="1.88067">
        <ele>180.4</ele>
        <time>2022-08-14T06:22:13Z</time>
      </trkpt>
      <trkpt lat="43.93892" lon="1.88062">
        <ele>180.6</ele>
        <time>2022-08-14T06:22:14Z</time>
      </trkpt>
      <trkpt lat="43.9389" lon="1.88058">
        <ele>181.2</ele>
        <time>2022-08-14T06:22:15Z</time>
      </trkpt>
      <trkpt lat="43.93888" lon="1.88055">
        <ele>181.4</ele>
        <time>2022-08-14T06:22:16Z</time>
      </trkpt>
      <trkpt lat="43.93887" lon="1.88051">
        <ele>181.6</ele>
        <time>2022-08-14T06:22:17Z</time>
      </trkpt>
      <trkpt lat="43.93885" lon="1.88049">
        <ele>181.8</ele>
        <time>2022-08-14T06:22:18Z</time>
      </trkpt>
      <trkpt lat="43.93884" lon="1.88046">
        <ele>182.2</ele>
        <time>2022-08-14T06:22:19Z</time>
      </trkpt>
      <trkpt lat="43.93882" lon="1.88043">
        <ele>182.6</ele>
        <time>2022-08-14T06:22:20Z</time>
      </trkpt>
      <trkpt lat="43.93881" lon="1.88041">
        <ele>183.4</ele>
        <time>2022-08-14T06:22:21Z</time>
      </trkpt>
      <trkpt lat="43.9388" lon="1.88038">
        <ele>184</ele>
        <time>2022-08-14T06:22:22Z</time>
      </trkpt>
      <trkpt lat="43.93879" lon="1.88035">
        <ele>184.2</ele>
        <time>2022-08-14T06:22:23Z</time>
      </trkpt>
      <trkpt lat="43.93878" lon="1.88033">
        <ele>184.6</ele>
        <time>2022-08-14T06:22:24Z</time>
      </trkpt>
      <trkpt lat="43.93877" lon="1.8803">
        <ele>184.6</ele>
        <time>2022-08-14T06:22:25Z</time>
      </trkpt>
      <trkpt lat="43.93875" lon="1.88028">
        <ele>184.8</ele>
        <time>2022-08-14T06:22:26Z</time>
      </trkpt>
      <trkpt lat="43.93874" lon="1.88025">
        <ele>185</ele>
        <time>2022-08-14T06:22:27Z</time>
      </trkpt>
      <trkpt lat="43.93872" lon="1.88023">
        <ele>185.4</ele>
        <time>2022-08-14T06:22:28Z</time>
      </trkpt>
      <trkpt lat="43.93871" lon="1.8802">
        <ele>185.4</ele>
        <time>2022-08-14T06:22:29Z</time>
      </trkpt>
      <trkpt lat="43.9387" lon="1.88017">
        <ele>185.8</ele>
        <time>2022-08-14T06:22:30Z</time>
      </trkpt>
      <trkpt lat="43.93869" lon="1.88015">
        <ele>186.4</ele>
        <time>2022-08-14T06:22:31Z</time>
      </trkpt>
      <trkpt lat="43.93867" lon="1.88012">
        <ele>186.6</ele>
        <time>2022-08-14T06:22:32Z</time>
      </trkpt>
      <trkpt lat="43.93866" lon="1.88009">
        <ele>187.2</ele>
        <time>2022-08-14T06:22:33Z</time>
      </trkpt>
      <trkpt lat="43.93865" lon="1.88006">
        <ele>187.4</ele>
        <time>2022-08-14T06:22:34Z</time>
      </trkpt>
      <trkpt lat="43.93863" lon="1.88003">
        <ele>188</ele>
        <time>2022-08-14T06:22:35Z</time>
      </trkpt>
      <trkpt lat="43.93862" lon="1.88">
        <ele>188.2</ele>
        <time>2022-08-14T06:22:36Z</time>
      </trkpt>
      <trkpt lat="43.9386" lon="1.87997">
        <ele>188.4</ele>
        <time>2022-08-14T06:22:37Z</time>
      </trkpt>
      <trkpt lat="43.93858" lon="1.87993">
        <ele>188.6</ele>
        <time>2022-08-14T06:22:38Z</time>
      </trkpt>
      <trkpt lat="43.93856" lon="1.8799">
        <ele>188.8</ele>
        <time>2022-08-14T06:22:39Z</time>
      </trkpt>
      <trkpt lat="43.93855" lon="1.87987">
        <ele>189</ele>
        <time>2022-08-14T06:22:40Z</time>
      </trkpt>
      <trkpt lat="43.93853" lon="1.87985">
        <ele>189</ele>
        <time>2022-08-14T06:22:41Z</time>
      </trkpt>
      <trkpt lat="43.93852" lon="1.87982">
        <ele>189.2</ele>
        <time>2022-08-14T06:22:42Z</time>
      </trkpt>
      <trkpt lat="43.9385" lon="1.87979">
        <ele>189.6</ele>
        <time>2022-08-14T06:22:43Z</time>
      </trkpt>
      <trkpt lat="43.93849" lon="1.87977">
        <ele>190</ele>
        <time>2022-08-14T06:22:44Z</time>
      </trkpt>
      <trkpt lat="43.93847" lon="1.87975">
        <ele>190.4</ele>
        <time>2022-08-14T06:22:45Z</time>
      </trkpt>
      <trkpt lat="43.93846" lon="1.87973">
        <ele>190.8</ele>
        <time>2022-08-14T06:22:46Z</time>
      </trkpt>
      <trkpt lat="43.93844" lon="1.87971">
        <ele>191.2</ele>
        <time>2022-08-14T06:22:47Z</time>
      </trkpt>
      <trkpt lat="43.93843" lon="1.87969">
        <ele>191.2</ele>
        <time>2022-08-14T06:22:48Z</time>
      </trkpt>
      <trkpt lat="43.93841" lon="1.87968">
        <ele>191.6</ele>
        <time>2022-08-14T06:22:49Z</time>
      </trkpt>
      <trkpt lat="43.93839" lon="1.87966">
        <ele>191.8</ele>
        <time>2022-08-14T06:22:50Z</time>
      </trkpt>
      <trkpt lat="43.93838" lon="1.87965">
        <ele>192.4</ele>
        <time>2022-08-14T06:22:51Z</time>
      </trkpt>
      <trkpt lat="43.93837" lon="1.87963">
        <ele>192.8</ele>
        <time>2022-08-14T06:22:52Z</time>
      </trkpt>
      <trkpt lat="43.93837" lon="1.87962">
        <ele>193</ele>
        <time>2022-08-14T06:22:53Z</time>
      </trkpt>
      <trkpt lat="43.93836" lon="1.8796">
        <ele>193.4</ele>
        <time>2022-08-14T06:22:54Z</time>
      </trkpt>
      <trkpt lat="43.93836" lon="1.87957">
        <ele>193.6</ele>
        <time>2022-08-14T06:22:55Z</time>
      </trkpt>
      <trkpt lat="43.93837" lon="1.87956">
        <ele>193.8</ele>
        <time>2022-08-14T06:22:56Z</time>
      </trkpt>
      <trkpt lat="43.93837" lon="1.87954">
        <ele>194</ele>
        <time>2022-08-14T06:22:57Z</time>
      </trkpt>
      <trkpt lat="43.93838" lon="1.87952">
        <ele>194.6</ele>
        <time>2022-08-14T06:22:58Z</time>
      </trkpt>
      <trkpt lat="43.93839" lon="1.8795">
        <ele>194.8</ele>
        <time>2022-08-14T06:22:59Z</time>
      </trkpt>
      <trkpt lat="43.93841" lon="1.87949">
        <ele>195</ele>
        <time>2022-08-14T06:23:00Z</time>
      </trkpt>
      <trkpt lat="43.93842" lon="1.87948">
        <ele>195.4</ele>
        <time>2022-08-14T06:23:01Z</time>
      </trkpt>
      <trkpt lat="43.93843" lon="1.87946">
        <ele>195.4</ele>
        <time>2022-08-14T06:23:02Z</time>
      </trkpt>
      <trkpt lat="43.93845" lon="1.87944">
        <ele>195.4</ele>
        <time>2022-08-14T06:23:03Z</time>
      </trkpt>
      <trkpt lat="43.93846" lon="1.87942">
        <ele>195.6</ele>
        <time>2022-08-14T06:23:04Z</time>
      </trkpt>
      <trkpt lat="43.93847" lon="1.8794">
        <ele>195.6</ele>
        <time>2022-08-14T06:23:05Z</time>
      </trkpt>
      <trkpt lat="43.93848" lon="1.87937">
        <ele>195.6</ele>
        <time>2022-08-14T06:23:06Z</time>
      </trkpt>
      <trkpt lat="43.93849" lon="1.87935">
        <ele>195.8</ele>
        <time>2022-08-14T06:23:07Z</time>
      </trkpt>
      <trkpt lat="43.9385" lon="1.87932">
        <ele>195.8</ele>
        <time>2022-08-14T06:23:08Z</time>
      </trkpt>
      <trkpt lat="43.93851" lon="1.8793">
        <ele>195.8</ele>
        <time>2022-08-14T06:23:09Z</time>
      </trkpt>
      <trkpt lat="43.93853" lon="1.87927">
        <ele>195.8</ele>
        <time>2022-08-14T06:23:10Z</time>
      </trkpt>
      <trkpt lat="43.93854" lon="1.87925">
        <ele>195.8</ele>
        <time>2022-08-14T06:23:11Z</time>
      </trkpt>
      <trkpt lat="43.93855" lon="1.87922">
        <ele>196</ele>
        <time>2022-08-14T06:23:12Z</time>
      </trkpt>
      <trkpt lat="43.93857" lon="1.8792">
        <ele>196</ele>
        <time>2022-08-14T06:23:13Z</time>
      </trkpt>
      <trkpt lat="43.93858" lon="1.87917">
        <ele>196</ele>
        <time>2022-08-14T06:23:14Z</time>
      </trkpt>
      <trkpt lat="43.93859" lon="1.87914">
        <ele>196</ele>
        <time>2022-08-14T06:23:15Z</time>
      </trkpt>
      <trkpt lat="43.93861" lon="1.87911">
        <ele>196</ele>
        <time>2022-08-14T06:23:16Z</time>
      </trkpt>
      <trkpt lat="43.93862" lon="1.87908">
        <ele>196</ele>
        <time>2022-08-14T06:23:17Z</time>
      </trkpt>
      <trkpt lat="43.93862" lon="1.87905">
        <ele>196</ele>
        <time>2022-08-14T06:23:18Z</time>
      </trkpt>
      <trkpt lat="43.93861" lon="1.87903">
        <ele>196.2</ele>
        <time>2022-08-14T06:23:19Z</time>
      </trkpt>
      <trkpt lat="43.93861" lon="1.879">
        <ele>196.2</ele>
        <time>2022-08-14T06:23:20Z</time>
      </trkpt>
      <trkpt lat="43.93861" lon="1.87898">
        <ele>196.2</ele>
        <time>2022-08-14T06:23:21Z</time>
      </trkpt>
      <trkpt lat="43.93861" lon="1.87895">
        <ele>196.2</ele>
        <time>2022-08-14T06:23:22Z</time>
      </trkpt>
      <trkpt lat="43.93862" lon="1.87893">
        <ele>196.4</ele>
        <time>2022-08-14T06:23:23Z</time>
      </trkpt>
      <trkpt lat="43.93862" lon="1.87892">
        <ele>196.4</ele>
        <time>2022-08-14T06:23:24Z</time>
      </trkpt>
      <trkpt lat="43.93864" lon="1.8789">
        <ele>196.4</ele>
        <time>2022-08-14T06:23:25Z</time>
      </trkpt>
      <trkpt lat="43.93864" lon="1.87888">
        <ele>196.4</ele>
        <time>2022-08-14T06:23:26Z</time>
      </trkpt>
      <trkpt lat="43.93865" lon="1.87887">
        <ele>196.4</ele>
        <time>2022-08-14T06:23:27Z</time>
      </trkpt>
      <trkpt lat="43.93866" lon="1.87885">
        <ele>196.4</ele>
        <time>2022-08-14T06:23:28Z</time>
      </trkpt>
      <trkpt lat="43.93866" lon="1.87883">
        <ele>196.4</ele>
        <time>2022-08-14T06:23:29Z</time>
      </trkpt>
      <trkpt lat="43.93867" lon="1.87882">
        <ele>196.6</ele>
        <time>2022-08-14T06:23:30Z</time>
      </trkpt>
      <trkpt lat="43.93868" lon="1.87881">
        <ele>196.6</ele>
        <time>2022-08-14T06:23:31Z</time>
      </trkpt>
      <trkpt lat="43.93869" lon="1.87879">
        <ele>196.4</ele>
        <time>2022-08-14T06:23:32Z</time>
      </trkpt>
      <trkpt lat="43.93873" lon="1.87871">
        <ele>196.6</ele>
        <time>2022-08-14T06:23:37Z</time>
      </trkpt>
      <trkpt lat="43.93873" lon="1.87869">
        <ele>196.6</ele>
        <time>2022-08-14T06:23:38Z</time>
      </trkpt>
      <trkpt lat="43.93875" lon="1.87866">
        <ele>196.6</ele>
        <time>2022-08-14T06:23:40Z</time>
      </trkpt>
      <trkpt lat="43.93876" lon="1.87865">
        <ele>196.6</ele>
        <time>2022-08-14T06:23:41Z</time>
      </trkpt>
      <trkpt lat="43.93877" lon="1.87863">
        <ele>196.6</ele>
        <time>2022-08-14T06:23:42Z</time>
      </trkpt>
      <trkpt lat="43.93877" lon="1.87862">
        <ele>196.6</ele>
        <time>2022-08-14T06:23:43Z</time>
      </trkpt>
      <trkpt lat="43.93879" lon="1.87858">
        <ele>196.6</ele>
        <time>2022-08-14T06:23:45Z</time>
      </trkpt>
      <trkpt lat="43.93883" lon="1.87848">
        <ele>196.8</ele>
        <time>2022-08-14T06:23:50Z</time>
      </trkpt>
      <trkpt lat="43.93884" lon="1.87846">
        <ele>197</ele>
        <time>2022-08-14T06:23:51Z</time>
      </trkpt>
      <trkpt lat="43.93887" lon="1.87838">
        <ele>197</ele>
        <time>2022-08-14T06:23:54Z</time>
      </trkpt>
      <trkpt lat="43.93892" lon="1.87828">
        <ele>197.2</ele>
        <time>2022-08-14T06:23:58Z</time>
      </trkpt>
      <trkpt lat="43.93895" lon="1.87821">
        <ele>197.2</ele>
        <time>2022-08-14T06:24:01Z</time>
      </trkpt>
      <trkpt lat="43.93898" lon="1.87814">
        <ele>197.4</ele>
        <time>2022-08-14T06:24:04Z</time>
      </trkpt>
      <trkpt lat="43.93902" lon="1.87804">
        <ele>197.8</ele>
        <time>2022-08-14T06:24:08Z</time>
      </trkpt>
      <trkpt lat="43.93908" lon="1.87794">
        <ele>198</ele>
        <time>2022-08-14T06:24:12Z</time>
      </trkpt>
      <trkpt lat="43.93909" lon="1.87791">
        <ele>198</ele>
        <time>2022-08-14T06:24:13Z</time>
      </trkpt>
      <trkpt lat="43.9391" lon="1.87789">
        <ele>198</ele>
        <time>2022-08-14T06:24:14Z</time>
      </trkpt>
      <trkpt lat="43.93911" lon="1.87786">
        <ele>198</ele>
        <time>2022-08-14T06:24:15Z</time>
      </trkpt>
      <trkpt lat="43.93913" lon="1.87781">
        <ele>198.2</ele>
        <time>2022-08-14T06:24:17Z</time>
      </trkpt>
      <trkpt lat="43.93914" lon="1.87779">
        <ele>198.2</ele>
        <time>2022-08-14T06:24:18Z</time>
      </trkpt>
      <trkpt lat="43.93915" lon="1.87776">
        <ele>198.2</ele>
        <time>2022-08-14T06:24:19Z</time>
      </trkpt>
      <trkpt lat="43.93917" lon="1.87771">
        <ele>198.4</ele>
        <time>2022-08-14T06:24:21Z</time>
      </trkpt>
      <trkpt lat="43.93919" lon="1.87766">
        <ele>198.6</ele>
        <time>2022-08-14T06:24:23Z</time>
      </trkpt>
      <trkpt lat="43.9392" lon="1.87764">
        <ele>198.6</ele>
        <time>2022-08-14T06:24:24Z</time>
      </trkpt>
      <trkpt lat="43.93921" lon="1.87761">
        <ele>198.8</ele>
        <time>2022-08-14T06:24:25Z</time>
      </trkpt>
      <trkpt lat="43.93923" lon="1.87757">
        <ele>198.8</ele>
        <time>2022-08-14T06:24:27Z</time>
      </trkpt>
      <trkpt lat="43.93924" lon="1.87755">
        <ele>198.8</ele>
        <time>2022-08-14T06:24:28Z</time>
      </trkpt>
      <trkpt lat="43.93925" lon="1.87752">
        <ele>198.8</ele>
        <time>2022-08-14T06:24:29Z</time>
      </trkpt>
      <trkpt lat="43.93926" lon="1.8775">
        <ele>199</ele>
        <time>2022-08-14T06:24:30Z</time>
      </trkpt>
      <trkpt lat="43.93927" lon="1.87748">
        <ele>199</ele>
        <time>2022-08-14T06:24:31Z</time>
      </trkpt>
      <trkpt lat="43.93932" lon="1.87739">
        <ele>199</ele>
        <time>2022-08-14T06:24:35Z</time>
      </trkpt>
      <trkpt lat="43.93933" lon="1.87737">
        <ele>199</ele>
        <time>2022-08-14T06:24:36Z</time>
      </trkpt>
      <trkpt lat="43.93937" lon="1.87728">
        <ele>199.2</ele>
        <time>2022-08-14T06:24:40Z</time>
      </trkpt>
      <trkpt lat="43.93939" lon="1.87723">
        <ele>199.2</ele>
        <time>2022-08-14T06:24:42Z</time>
      </trkpt>
      <trkpt lat="43.93941" lon="1.87718">
        <ele>199.4</ele>
        <time>2022-08-14T06:24:44Z</time>
      </trkpt>
      <trkpt lat="43.93942" lon="1.87716">
        <ele>199.4</ele>
        <time>2022-08-14T06:24:45Z</time>
      </trkpt>
      <trkpt lat="43.93943" lon="1.87714">
        <ele>199.4</ele>
        <time>2022-08-14T06:24:46Z</time>
      </trkpt>
      <trkpt lat="43.93946" lon="1.87706">
        <ele>199.4</ele>
        <time>2022-08-14T06:24:49Z</time>
      </trkpt>
      <trkpt lat="43.93944" lon="1.87703">
        <ele>199.4</ele>
        <time>2022-08-14T06:24:50Z</time>
      </trkpt>
      <trkpt lat="43.93942" lon="1.877">
        <ele>199.2</ele>
        <time>2022-08-14T06:24:51Z</time>
      </trkpt>
      <trkpt lat="43.93932" lon="1.87686">
        <ele>199</ele>
        <time>2022-08-14T06:24:54Z</time>
      </trkpt>
      <trkpt lat="43.93927" lon="1.87681">
        <ele>198.8</ele>
        <time>2022-08-14T06:24:55Z</time>
      </trkpt>
      <trkpt lat="43.93905" lon="1.87657">
        <ele>198</ele>
        <time>2022-08-14T06:24:59Z</time>
      </trkpt>
      <trkpt lat="43.93892" lon="1.87645">
        <ele>197.2</ele>
        <time>2022-08-14T06:25:01Z</time>
      </trkpt>
      <trkpt lat="43.93878" lon="1.87633">
        <ele>196</ele>
        <time>2022-08-14T06:25:03Z</time>
      </trkpt>
      <trkpt lat="43.93872" lon="1.87626">
        <ele>195.2</ele>
        <time>2022-08-14T06:25:04Z</time>
      </trkpt>
      <trkpt lat="43.93867" lon="1.8762">
        <ele>194.8</ele>
        <time>2022-08-14T06:25:05Z</time>
      </trkpt>
      <trkpt lat="43.93863" lon="1.87613">
        <ele>194</ele>
        <time>2022-08-14T06:25:06Z</time>
      </trkpt>
      <trkpt lat="43.93861" lon="1.87607">
        <ele>193.6</ele>
        <time>2022-08-14T06:25:07Z</time>
      </trkpt>
      <trkpt lat="43.93859" lon="1.87599">
        <ele>193.6</ele>
        <time>2022-08-14T06:25:08Z</time>
      </trkpt>
      <trkpt lat="43.93858" lon="1.87593">
        <ele>192.4</ele>
        <time>2022-08-14T06:25:09Z</time>
      </trkpt>
      <trkpt lat="43.93856" lon="1.87586">
        <ele>192</ele>
        <time>2022-08-14T06:25:10Z</time>
      </trkpt>
      <trkpt lat="43.93854" lon="1.87579">
        <ele>191.4</ele>
        <time>2022-08-14T06:25:11Z</time>
      </trkpt>
      <trkpt lat="43.93846" lon="1.87569">
        <ele>190.6</ele>
        <time>2022-08-14T06:25:13Z</time>
      </trkpt>
      <trkpt lat="43.93841" lon="1.87564">
        <ele>189.8</ele>
        <time>2022-08-14T06:25:14Z</time>
      </trkpt>
      <trkpt lat="43.93836" lon="1.87559">
        <ele>189.4</ele>
        <time>2022-08-14T06:25:15Z</time>
      </trkpt>
      <trkpt lat="43.93831" lon="1.87555">
        <ele>188.8</ele>
        <time>2022-08-14T06:25:16Z</time>
      </trkpt>
      <trkpt lat="43.93828" lon="1.87551">
        <ele>188.6</ele>
        <time>2022-08-14T06:25:17Z</time>
      </trkpt>
      <trkpt lat="43.93825" lon="1.87546">
        <ele>188</ele>
        <time>2022-08-14T06:25:18Z</time>
      </trkpt>
      <trkpt lat="43.93825" lon="1.87541">
        <ele>188</ele>
        <time>2022-08-14T06:25:19Z</time>
      </trkpt>
      <trkpt lat="43.93825" lon="1.87535">
        <ele>187.4</ele>
        <time>2022-08-14T06:25:20Z</time>
      </trkpt>
      <trkpt lat="43.93825" lon="1.8753">
        <ele>186.8</ele>
        <time>2022-08-14T06:25:21Z</time>
      </trkpt>
      <trkpt lat="43.93825" lon="1.87524">
        <ele>186.6</ele>
        <time>2022-08-14T06:25:22Z</time>
      </trkpt>
      <trkpt lat="43.93825" lon="1.87518">
        <ele>185.8</ele>
        <time>2022-08-14T06:25:23Z</time>
      </trkpt>
      <trkpt lat="43.93826" lon="1.87497">
        <ele>185</ele>
        <time>2022-08-14T06:25:26Z</time>
      </trkpt>
      <trkpt lat="43.93826" lon="1.87489">
        <ele>184.6</ele>
        <time>2022-08-14T06:25:27Z</time>
      </trkpt>
      <trkpt lat="43.93827" lon="1.87447">
        <ele>183.2</ele>
        <time>2022-08-14T06:25:32Z</time>
      </trkpt>
      <trkpt lat="43.93827" lon="1.87438">
        <ele>183</ele>
        <time>2022-08-14T06:25:33Z</time>
      </trkpt>
      <trkpt lat="43.93827" lon="1.8743">
        <ele>182.8</ele>
        <time>2022-08-14T06:25:34Z</time>
      </trkpt>
      <trkpt lat="43.93827" lon="1.87423">
        <ele>182.4</ele>
        <time>2022-08-14T06:25:35Z</time>
      </trkpt>
      <trkpt lat="43.93827" lon="1.87415">
        <ele>181.4</ele>
        <time>2022-08-14T06:25:36Z</time>
      </trkpt>
      <trkpt lat="43.93826" lon="1.87409">
        <ele>181.2</ele>
        <time>2022-08-14T06:25:37Z</time>
      </trkpt>
      <trkpt lat="43.93825" lon="1.87401">
        <ele>181</ele>
        <time>2022-08-14T06:25:38Z</time>
      </trkpt>
      <trkpt lat="43.93821" lon="1.87387">
        <ele>181</ele>
        <time>2022-08-14T06:25:40Z</time>
      </trkpt>
      <trkpt lat="43.93818" lon="1.87375">
        <ele>180.8</ele>
        <time>2022-08-14T06:25:42Z</time>
      </trkpt>
      <trkpt lat="43.93816" lon="1.87369">
        <ele>180.6</ele>
        <time>2022-08-14T06:25:43Z</time>
      </trkpt>
      <trkpt lat="43.93814" lon="1.87363">
        <ele>180.6</ele>
        <time>2022-08-14T06:25:44Z</time>
      </trkpt>
      <trkpt lat="43.93812" lon="1.87357">
        <ele>180.8</ele>
        <time>2022-08-14T06:25:45Z</time>
      </trkpt>
      <trkpt lat="43.9381" lon="1.87351">
        <ele>180.6</ele>
        <time>2022-08-14T06:25:46Z</time>
      </trkpt>
      <trkpt lat="43.93806" lon="1.87346">
        <ele>180.4</ele>
        <time>2022-08-14T06:25:47Z</time>
      </trkpt>
      <trkpt lat="43.93801" lon="1.87341">
        <ele>180.2</ele>
        <time>2022-08-14T06:25:48Z</time>
      </trkpt>
      <trkpt lat="43.93797" lon="1.87337">
        <ele>180.2</ele>
        <time>2022-08-14T06:25:49Z</time>
      </trkpt>
      <trkpt lat="43.93792" lon="1.87334">
        <ele>179.6</ele>
        <time>2022-08-14T06:25:50Z</time>
      </trkpt>
      <trkpt lat="43.93786" lon="1.87332">
        <ele>179.2</ele>
        <time>2022-08-14T06:25:51Z</time>
      </trkpt>
      <trkpt lat="43.93776" lon="1.87328">
        <ele>178.8</ele>
        <time>2022-08-14T06:25:53Z</time>
      </trkpt>
      <trkpt lat="43.9377" lon="1.87326">
        <ele>178.6</ele>
        <time>2022-08-14T06:25:54Z</time>
      </trkpt>
      <trkpt lat="43.93765" lon="1.87325">
        <ele>178.4</ele>
        <time>2022-08-14T06:25:55Z</time>
      </trkpt>
      <trkpt lat="43.93761" lon="1.87324">
        <ele>178</ele>
        <time>2022-08-14T06:25:56Z</time>
      </trkpt>
      <trkpt lat="43.93757" lon="1.87324">
        <ele>177.4</ele>
        <time>2022-08-14T06:25:57Z</time>
      </trkpt>
      <trkpt lat="43.93753" lon="1.87326">
        <ele>177.2</ele>
        <time>2022-08-14T06:25:58Z</time>
      </trkpt>
      <trkpt lat="43.93751" lon="1.87329">
        <ele>177</ele>
        <time>2022-08-14T06:25:59Z</time>
      </trkpt>
      <trkpt lat="43.9375" lon="1.87333">
        <ele>176.6</ele>
        <time>2022-08-14T06:26:00Z</time>
      </trkpt>
      <trkpt lat="43.9375" lon="1.87338">
        <ele>176.6</ele>
        <time>2022-08-14T06:26:01Z</time>
      </trkpt>
      <trkpt lat="43.9375" lon="1.87342">
        <ele>176.4</ele>
        <time>2022-08-14T06:26:02Z</time>
      </trkpt>
      <trkpt lat="43.9375" lon="1.87347">
        <ele>176.2</ele>
        <time>2022-08-14T06:26:03Z</time>
      </trkpt>
      <trkpt lat="43.9375" lon="1.87351">
        <ele>175.8</ele>
        <time>2022-08-14T06:26:04Z</time>
      </trkpt>
      <trkpt lat="43.93749" lon="1.87354">
        <ele>175.6</ele>
        <time>2022-08-14T06:26:05Z</time>
      </trkpt>
      <trkpt lat="43.93748" lon="1.87368">
        <ele>175</ele>
        <time>2022-08-14T06:26:08Z</time>
      </trkpt>
      <trkpt lat="43.93746" lon="1.8738">
        <ele>174.8</ele>
        <time>2022-08-14T06:26:11Z</time>
      </trkpt>
      <trkpt lat="43.93746" lon="1.87385">
        <ele>174.8</ele>
        <time>2022-08-14T06:26:12Z</time>
      </trkpt>
      <trkpt lat="43.93744" lon="1.87393">
        <ele>174.6</ele>
        <time>2022-08-14T06:26:14Z</time>
      </trkpt>
      <trkpt lat="43.93738" lon="1.87433">
        <ele>174.4</ele>
        <time>2022-08-14T06:26:23Z</time>
      </trkpt>
      <trkpt lat="43.93738" lon="1.87438">
        <ele>174.4</ele>
        <time>2022-08-14T06:26:24Z</time>
      </trkpt>
      <trkpt lat="43.93738" lon="1.87442">
        <ele>174.4</ele>
        <time>2022-08-14T06:26:25Z</time>
      </trkpt>
      <trkpt lat="43.93738" lon="1.87447">
        <ele>174.2</ele>
        <time>2022-08-14T06:26:26Z</time>
      </trkpt>
      <trkpt lat="43.93735" lon="1.87474">
        <ele>174</ele>
        <time>2022-08-14T06:26:32Z</time>
      </trkpt>
      <trkpt lat="43.93722" lon="1.87512">
        <ele>173.6</ele>
        <time>2022-08-14T06:26:40Z</time>
      </trkpt>
      <trkpt lat="43.93719" lon="1.87521">
        <ele>173.4</ele>
        <time>2022-08-14T06:26:42Z</time>
      </trkpt>
      <trkpt lat="43.93718" lon="1.87526">
        <ele>173.4</ele>
        <time>2022-08-14T06:26:43Z</time>
      </trkpt>
      <trkpt lat="43.93717" lon="1.87531">
        <ele>173.4</ele>
        <time>2022-08-14T06:26:44Z</time>
      </trkpt>
      <trkpt lat="43.93715" lon="1.87536">
        <ele>173.4</ele>
        <time>2022-08-14T06:26:45Z</time>
      </trkpt>
      <trkpt lat="43.93715" lon="1.87539">
        <ele>173.4</ele>
        <time>2022-08-14T06:26:46Z</time>
      </trkpt>
      <trkpt lat="43.93714" lon="1.87544">
        <ele>173.2</ele>
        <time>2022-08-14T06:26:47Z</time>
      </trkpt>
      <trkpt lat="43.93713" lon="1.87548">
        <ele>173</ele>
        <time>2022-08-14T06:26:48Z</time>
      </trkpt>
      <trkpt lat="43.93712" lon="1.87552">
        <ele>173</ele>
        <time>2022-08-14T06:26:49Z</time>
      </trkpt>
      <trkpt lat="43.93711" lon="1.87555">
        <ele>173</ele>
        <time>2022-08-14T06:26:50Z</time>
      </trkpt>
      <trkpt lat="43.93709" lon="1.87559">
        <ele>173</ele>
        <time>2022-08-14T06:26:51Z</time>
      </trkpt>
      <trkpt lat="43.93708" lon="1.87562">
        <ele>173</ele>
        <time>2022-08-14T06:26:52Z</time>
      </trkpt>
      <trkpt lat="43.93707" lon="1.87566">
        <ele>173</ele>
        <time>2022-08-14T06:26:53Z</time>
      </trkpt>
      <trkpt lat="43.93705" lon="1.8757">
        <ele>173</ele>
        <time>2022-08-14T06:26:54Z</time>
      </trkpt>
      <trkpt lat="43.937" lon="1.87584">
        <ele>172.6</ele>
        <time>2022-08-14T06:26:57Z</time>
      </trkpt>
      <trkpt lat="43.93694" lon="1.87599">
        <ele>172.4</ele>
        <time>2022-08-14T06:27:00Z</time>
      </trkpt>
      <trkpt lat="43.93693" lon="1.87604">
        <ele>172.2</ele>
        <time>2022-08-14T06:27:01Z</time>
      </trkpt>
      <trkpt lat="43.9369" lon="1.87614">
        <ele>172</ele>
        <time>2022-08-14T06:27:03Z</time>
      </trkpt>
      <trkpt lat="43.93687" lon="1.87624">
        <ele>171.6</ele>
        <time>2022-08-14T06:27:05Z</time>
      </trkpt>
      <trkpt lat="43.93686" lon="1.87629">
        <ele>171.6</ele>
        <time>2022-08-14T06:27:06Z</time>
      </trkpt>
      <trkpt lat="43.93679" lon="1.87649">
        <ele>171.2</ele>
        <time>2022-08-14T06:27:10Z</time>
      </trkpt>
      <trkpt lat="43.93677" lon="1.87654">
        <ele>171.2</ele>
        <time>2022-08-14T06:27:11Z</time>
      </trkpt>
      <trkpt lat="43.93672" lon="1.87669">
        <ele>170.8</ele>
        <time>2022-08-14T06:27:14Z</time>
      </trkpt>
      <trkpt lat="43.93671" lon="1.87673">
        <ele>170.8</ele>
        <time>2022-08-14T06:27:15Z</time>
      </trkpt>
      <trkpt lat="43.93669" lon="1.87678">
        <ele>170.6</ele>
        <time>2022-08-14T06:27:16Z</time>
      </trkpt>
      <trkpt lat="43.93667" lon="1.87682">
        <ele>170.6</ele>
        <time>2022-08-14T06:27:17Z</time>
      </trkpt>
      <trkpt lat="43.93664" lon="1.87691">
        <ele>170.4</ele>
        <time>2022-08-14T06:27:19Z</time>
      </trkpt>
      <trkpt lat="43.93662" lon="1.87696">
        <ele>170.4</ele>
        <time>2022-08-14T06:27:20Z</time>
      </trkpt>
      <trkpt lat="43.9366" lon="1.877">
        <ele>170.4</ele>
        <time>2022-08-14T06:27:21Z</time>
      </trkpt>
      <trkpt lat="43.93658" lon="1.87703">
        <ele>170.4</ele>
        <time>2022-08-14T06:27:22Z</time>
      </trkpt>
      <trkpt lat="43.93656" lon="1.87706">
        <ele>170.4</ele>
        <time>2022-08-14T06:27:23Z</time>
      </trkpt>
      <trkpt lat="43.93649" lon="1.87722">
        <ele>170.2</ele>
        <time>2022-08-14T06:27:26Z</time>
      </trkpt>
      <trkpt lat="43.93646" lon="1.87726">
        <ele>170.2</ele>
        <time>2022-08-14T06:27:27Z</time>
      </trkpt>
      <trkpt lat="43.93643" lon="1.87729">
        <ele>170.2</ele>
        <time>2022-08-14T06:27:28Z</time>
      </trkpt>
      <trkpt lat="43.93641" lon="1.87731">
        <ele>170</ele>
        <time>2022-08-14T06:27:29Z</time>
      </trkpt>
      <trkpt lat="43.93638" lon="1.87734">
        <ele>170</ele>
        <time>2022-08-14T06:27:30Z</time>
      </trkpt>
      <trkpt lat="43.93636" lon="1.87737">
        <ele>169.8</ele>
        <time>2022-08-14T06:27:31Z</time>
      </trkpt>
      <trkpt lat="43.9363" lon="1.87746">
        <ele>169.6</ele>
        <time>2022-08-14T06:27:34Z</time>
      </trkpt>
      <trkpt lat="43.93628" lon="1.87752">
        <ele>169.6</ele>
        <time>2022-08-14T06:27:35Z</time>
      </trkpt>
      <trkpt lat="43.93627" lon="1.87756">
        <ele>169.6</ele>
        <time>2022-08-14T06:27:36Z</time>
      </trkpt>
      <trkpt lat="43.93619" lon="1.87778">
        <ele>169.2</ele>
        <time>2022-08-14T06:27:41Z</time>
      </trkpt>
      <trkpt lat="43.93617" lon="1.87783">
        <ele>169.2</ele>
        <time>2022-08-14T06:27:42Z</time>
      </trkpt>
      <trkpt lat="43.93614" lon="1.87791">
        <ele>169.4</ele>
        <time>2022-08-14T06:27:44Z</time>
      </trkpt>
      <trkpt lat="43.93603" lon="1.87829">
        <ele>169.2</ele>
        <time>2022-08-14T06:27:51Z</time>
      </trkpt>
      <trkpt lat="43.93599" lon="1.87839">
        <ele>169</ele>
        <time>2022-08-14T06:27:53Z</time>
      </trkpt>
      <trkpt lat="43.93589" lon="1.87867">
        <ele>168.8</ele>
        <time>2022-08-14T06:27:58Z</time>
      </trkpt>
      <trkpt lat="43.93588" lon="1.87873">
        <ele>168.8</ele>
        <time>2022-08-14T06:27:59Z</time>
      </trkpt>
      <trkpt lat="43.93586" lon="1.87879">
        <ele>168.8</ele>
        <time>2022-08-14T06:28:00Z</time>
      </trkpt>
      <trkpt lat="43.93585" lon="1.87884">
        <ele>168.6</ele>
        <time>2022-08-14T06:28:01Z</time>
      </trkpt>
      <trkpt lat="43.93583" lon="1.87889">
        <ele>168.6</ele>
        <time>2022-08-14T06:28:02Z</time>
      </trkpt>
      <trkpt lat="43.93568" lon="1.87934">
        <ele>167.8</ele>
        <time>2022-08-14T06:28:10Z</time>
      </trkpt>
      <trkpt lat="43.93566" lon="1.87939">
        <ele>167.6</ele>
        <time>2022-08-14T06:28:11Z</time>
      </trkpt>
      <trkpt lat="43.93558" lon="1.87962">
        <ele>167.4</ele>
        <time>2022-08-14T06:28:15Z</time>
      </trkpt>
      <trkpt lat="43.93552" lon="1.87978">
        <ele>167.2</ele>
        <time>2022-08-14T06:28:18Z</time>
      </trkpt>
      <trkpt lat="43.93548" lon="1.8799">
        <ele>167.2</ele>
        <time>2022-08-14T06:28:20Z</time>
      </trkpt>
      <trkpt lat="43.93546" lon="1.87995">
        <ele>167.2</ele>
        <time>2022-08-14T06:28:21Z</time>
      </trkpt>
      <trkpt lat="43.93543" lon="1.88006">
        <ele>167</ele>
        <time>2022-08-14T06:28:23Z</time>
      </trkpt>
      <trkpt lat="43.93541" lon="1.88011">
        <ele>167</ele>
        <time>2022-08-14T06:28:24Z</time>
      </trkpt>
      <trkpt lat="43.93539" lon="1.88016">
        <ele>167.2</ele>
        <time>2022-08-14T06:28:25Z</time>
      </trkpt>
      <trkpt lat="43.93538" lon="1.88021">
        <ele>167.2</ele>
        <time>2022-08-14T06:28:26Z</time>
      </trkpt>
      <trkpt lat="43.93537" lon="1.88025">
        <ele>167.2</ele>
        <time>2022-08-14T06:28:27Z</time>
      </trkpt>
      <trkpt lat="43.93536" lon="1.88029">
        <ele>167</ele>
        <time>2022-08-14T06:28:28Z</time>
      </trkpt>
      <trkpt lat="43.93535" lon="1.88032">
        <ele>167</ele>
        <time>2022-08-14T06:28:29Z</time>
      </trkpt>
      <trkpt lat="43.93532" lon="1.88035">
        <ele>167</ele>
        <time>2022-08-14T06:28:30Z</time>
      </trkpt>
      <trkpt lat="43.9353" lon="1.88035">
        <ele>167</ele>
        <time>2022-08-14T06:28:31Z</time>
      </trkpt>
      <trkpt lat="43.93527" lon="1.88034">
        <ele>167</ele>
        <time>2022-08-14T06:28:32Z</time>
      </trkpt>
      <trkpt lat="43.93519" lon="1.88026">
        <ele>167</ele>
        <time>2022-08-14T06:28:35Z</time>
      </trkpt>
      <trkpt lat="43.93517" lon="1.88023">
        <ele>167</ele>
        <time>2022-08-14T06:28:36Z</time>
      </trkpt>
      <trkpt lat="43.93514" lon="1.8802">
        <ele>167</ele>
        <time>2022-08-14T06:28:37Z</time>
      </trkpt>
      <trkpt lat="43.93502" lon="1.88006">
        <ele>166.8</ele>
        <time>2022-08-14T06:28:41Z</time>
      </trkpt>
      <trkpt lat="43.9348" lon="1.87986">
        <ele>166.8</ele>
        <time>2022-08-14T06:28:47Z</time>
      </trkpt>
      <trkpt lat="43.93477" lon="1.87983">
        <ele>166.6</ele>
        <time>2022-08-14T06:28:48Z</time>
      </trkpt>
      <trkpt lat="43.93473" lon="1.8798">
        <ele>166.6</ele>
        <time>2022-08-14T06:28:49Z</time>
      </trkpt>
      <trkpt lat="43.9347" lon="1.87978">
        <ele>166.6</ele>
        <time>2022-08-14T06:28:50Z</time>
      </trkpt>
      <trkpt lat="43.93449" lon="1.87971">
        <ele>166.8</ele>
        <time>2022-08-14T06:28:55Z</time>
      </trkpt>
      <trkpt lat="43.93441" lon="1.8797">
        <ele>167</ele>
        <time>2022-08-14T06:28:57Z</time>
      </trkpt>
      <trkpt lat="43.93432" lon="1.87968">
        <ele>166.8</ele>
        <time>2022-08-14T06:28:59Z</time>
      </trkpt>
      <trkpt lat="43.93428" lon="1.87967">
        <ele>167</ele>
        <time>2022-08-14T06:29:00Z</time>
      </trkpt>
      <trkpt lat="43.93424" lon="1.87967">
        <ele>167</ele>
        <time>2022-08-14T06:29:01Z</time>
      </trkpt>
      <trkpt lat="43.93421" lon="1.87966">
        <ele>167</ele>
        <time>2022-08-14T06:29:02Z</time>
      </trkpt>
      <trkpt lat="43.93417" lon="1.87966">
        <ele>167</ele>
        <time>2022-08-14T06:29:03Z</time>
      </trkpt>
      <trkpt lat="43.93413" lon="1.87965">
        <ele>167.2</ele>
        <time>2022-08-14T06:29:04Z</time>
      </trkpt>
      <trkpt lat="43.9341" lon="1.87965">
        <ele>167.2</ele>
        <time>2022-08-14T06:29:05Z</time>
      </trkpt>
      <trkpt lat="43.93407" lon="1.87965">
        <ele>167.2</ele>
        <time>2022-08-14T06:29:06Z</time>
      </trkpt>
      <trkpt lat="43.93404" lon="1.87964">
        <ele>167.4</ele>
        <time>2022-08-14T06:29:07Z</time>
      </trkpt>
      <trkpt lat="43.93401" lon="1.87963">
        <ele>167.6</ele>
        <time>2022-08-14T06:29:08Z</time>
      </trkpt>
      <trkpt lat="43.93398" lon="1.87963">
        <ele>167.6</ele>
        <time>2022-08-14T06:29:09Z</time>
      </trkpt>
      <trkpt lat="43.93395" lon="1.87964">
        <ele>167.8</ele>
        <time>2022-08-14T06:29:10Z</time>
      </trkpt>
      <trkpt lat="43.93393" lon="1.87967">
        <ele>167.8</ele>
        <time>2022-08-14T06:29:11Z</time>
      </trkpt>
      <trkpt lat="43.93393" lon="1.8797">
        <ele>168</ele>
        <time>2022-08-14T06:29:12Z</time>
      </trkpt>
      <trkpt lat="43.93392" lon="1.87973">
        <ele>168</ele>
        <time>2022-08-14T06:29:13Z</time>
      </trkpt>
      <trkpt lat="43.93392" lon="1.87977">
        <ele>168.2</ele>
        <time>2022-08-14T06:29:14Z</time>
      </trkpt>
      <trkpt lat="43.93391" lon="1.87981">
        <ele>168.4</ele>
        <time>2022-08-14T06:29:15Z</time>
      </trkpt>
      <trkpt lat="43.93391" lon="1.87985">
        <ele>168.4</ele>
        <time>2022-08-14T06:29:16Z</time>
      </trkpt>
      <trkpt lat="43.9339" lon="1.87989">
        <ele>168.6</ele>
        <time>2022-08-14T06:29:17Z</time>
      </trkpt>
      <trkpt lat="43.93389" lon="1.87997">
        <ele>168.8</ele>
        <time>2022-08-14T06:29:19Z</time>
      </trkpt>
      <trkpt lat="43.93389" lon="1.88001">
        <ele>168.8</ele>
        <time>2022-08-14T06:29:20Z</time>
      </trkpt>
      <trkpt lat="43.93388" lon="1.88004">
        <ele>168.8</ele>
        <time>2022-08-14T06:29:21Z</time>
      </trkpt>
      <trkpt lat="43.93385" lon="1.88017">
        <ele>169</ele>
        <time>2022-08-14T06:29:24Z</time>
      </trkpt>
      <trkpt lat="43.93381" lon="1.88038">
        <ele>169.2</ele>
        <time>2022-08-14T06:29:29Z</time>
      </trkpt>
      <trkpt lat="43.9338" lon="1.88042">
        <ele>169.4</ele>
        <time>2022-08-14T06:29:30Z</time>
      </trkpt>
      <trkpt lat="43.93379" lon="1.88046">
        <ele>169.6</ele>
        <time>2022-08-14T06:29:31Z</time>
      </trkpt>
      <trkpt lat="43.93377" lon="1.88054">
        <ele>169.8</ele>
        <time>2022-08-14T06:29:33Z</time>
      </trkpt>
      <trkpt lat="43.93376" lon="1.88062">
        <ele>170.2</ele>
        <time>2022-08-14T06:29:35Z</time>
      </trkpt>
      <trkpt lat="43.93375" lon="1.88066">
        <ele>170.4</ele>
        <time>2022-08-14T06:29:36Z</time>
      </trkpt>
      <trkpt lat="43.93374" lon="1.88074">
        <ele>170.8</ele>
        <time>2022-08-14T06:29:38Z</time>
      </trkpt>
      <trkpt lat="43.93373" lon="1.88078">
        <ele>171</ele>
        <time>2022-08-14T06:29:39Z</time>
      </trkpt>
      <trkpt lat="43.93373" lon="1.88088">
        <ele>171.4</ele>
        <time>2022-08-14T06:29:41Z</time>
      </trkpt>
      <trkpt lat="43.93374" lon="1.88093">
        <ele>171.4</ele>
        <time>2022-08-14T06:29:42Z</time>
      </trkpt>
      <trkpt lat="43.93374" lon="1.88098">
        <ele>171.6</ele>
        <time>2022-08-14T06:29:43Z</time>
      </trkpt>
      <trkpt lat="43.93374" lon="1.88103">
        <ele>171.6</ele>
        <time>2022-08-14T06:29:44Z</time>
      </trkpt>
      <trkpt lat="43.93375" lon="1.88108">
        <ele>171.6</ele>
        <time>2022-08-14T06:29:45Z</time>
      </trkpt>
      <trkpt lat="43.93376" lon="1.88115">
        <ele>171.6</ele>
        <time>2022-08-14T06:29:46Z</time>
      </trkpt>
      <trkpt lat="43.93376" lon="1.88122">
        <ele>171.6</ele>
        <time>2022-08-14T06:29:47Z</time>
      </trkpt>
      <trkpt lat="43.93377" lon="1.8813">
        <ele>171.6</ele>
        <time>2022-08-14T06:29:48Z</time>
      </trkpt>
      <trkpt lat="43.93378" lon="1.88138">
        <ele>171.6</ele>
        <time>2022-08-14T06:29:49Z</time>
      </trkpt>
      <trkpt lat="43.93379" lon="1.88147">
        <ele>171.6</ele>
        <time>2022-08-14T06:29:50Z</time>
      </trkpt>
      <trkpt lat="43.93379" lon="1.88156">
        <ele>171.2</ele>
        <time>2022-08-14T06:29:51Z</time>
      </trkpt>
      <trkpt lat="43.93379" lon="1.88166">
        <ele>171</ele>
        <time>2022-08-14T06:29:52Z</time>
      </trkpt>
      <trkpt lat="43.93378" lon="1.88176">
        <ele>170.6</ele>
        <time>2022-08-14T06:29:53Z</time>
      </trkpt>
      <trkpt lat="43.93377" lon="1.88186">
        <ele>170.4</ele>
        <time>2022-08-14T06:29:54Z</time>
      </trkpt>
      <trkpt lat="43.93376" lon="1.88196">
        <ele>170.2</ele>
        <time>2022-08-14T06:29:55Z</time>
      </trkpt>
      <trkpt lat="43.93375" lon="1.88206">
        <ele>169.4</ele>
        <time>2022-08-14T06:29:56Z</time>
      </trkpt>
      <trkpt lat="43.93372" lon="1.88226">
        <ele>168.6</ele>
        <time>2022-08-14T06:29:58Z</time>
      </trkpt>
      <trkpt lat="43.93371" lon="1.88235">
        <ele>168.4</ele>
        <time>2022-08-14T06:29:59Z</time>
      </trkpt>
      <trkpt lat="43.93368" lon="1.88253">
        <ele>167.4</ele>
        <time>2022-08-14T06:30:01Z</time>
      </trkpt>
      <trkpt lat="43.93367" lon="1.88261">
        <ele>167.4</ele>
        <time>2022-08-14T06:30:02Z</time>
      </trkpt>
      <trkpt lat="43.93365" lon="1.88269">
        <ele>166.8</ele>
        <time>2022-08-14T06:30:03Z</time>
      </trkpt>
      <trkpt lat="43.93364" lon="1.88277">
        <ele>166.8</ele>
        <time>2022-08-14T06:30:04Z</time>
      </trkpt>
      <trkpt lat="43.93359" lon="1.88302">
        <ele>166</ele>
        <time>2022-08-14T06:30:07Z</time>
      </trkpt>
      <trkpt lat="43.93351" lon="1.88328">
        <ele>165.6</ele>
        <time>2022-08-14T06:30:10Z</time>
      </trkpt>
      <trkpt lat="43.93336" lon="1.88371">
        <ele>165.2</ele>
        <time>2022-08-14T06:30:15Z</time>
      </trkpt>
      <trkpt lat="43.93333" lon="1.8838">
        <ele>165.2</ele>
        <time>2022-08-14T06:30:16Z</time>
      </trkpt>
      <trkpt lat="43.9333" lon="1.88388">
        <ele>164.8</ele>
        <time>2022-08-14T06:30:17Z</time>
      </trkpt>
      <trkpt lat="43.93321" lon="1.88414">
        <ele>164.6</ele>
        <time>2022-08-14T06:30:20Z</time>
      </trkpt>
      <trkpt lat="43.93318" lon="1.88422">
        <ele>164.6</ele>
        <time>2022-08-14T06:30:21Z</time>
      </trkpt>
      <trkpt lat="43.93313" lon="1.88439">
        <ele>164.4</ele>
        <time>2022-08-14T06:30:23Z</time>
      </trkpt>
      <trkpt lat="43.93309" lon="1.88447">
        <ele>164</ele>
        <time>2022-08-14T06:30:24Z</time>
      </trkpt>
      <trkpt lat="43.93305" lon="1.88455">
        <ele>163.8</ele>
        <time>2022-08-14T06:30:25Z</time>
      </trkpt>
      <trkpt lat="43.93297" lon="1.88469">
        <ele>163.6</ele>
        <time>2022-08-14T06:30:27Z</time>
      </trkpt>
      <trkpt lat="43.9327" lon="1.88509">
        <ele>162.8</ele>
        <time>2022-08-14T06:30:33Z</time>
      </trkpt>
      <trkpt lat="43.93266" lon="1.88515">
        <ele>162.6</ele>
        <time>2022-08-14T06:30:34Z</time>
      </trkpt>
      <trkpt lat="43.93262" lon="1.88522">
        <ele>162.6</ele>
        <time>2022-08-14T06:30:35Z</time>
      </trkpt>
      <trkpt lat="43.93259" lon="1.88528">
        <ele>162.6</ele>
        <time>2022-08-14T06:30:36Z</time>
      </trkpt>
      <trkpt lat="43.93256" lon="1.88534">
        <ele>162.4</ele>
        <time>2022-08-14T06:30:37Z</time>
      </trkpt>
      <trkpt lat="43.93253" lon="1.8854">
        <ele>162.4</ele>
        <time>2022-08-14T06:30:38Z</time>
      </trkpt>
      <trkpt lat="43.93251" lon="1.88546">
        <ele>162</ele>
        <time>2022-08-14T06:30:39Z</time>
      </trkpt>
      <trkpt lat="43.93248" lon="1.88551">
        <ele>161.8</ele>
        <time>2022-08-14T06:30:40Z</time>
      </trkpt>
      <trkpt lat="43.93246" lon="1.88557">
        <ele>161.8</ele>
        <time>2022-08-14T06:30:41Z</time>
      </trkpt>
      <trkpt lat="43.93244" lon="1.88561">
        <ele>161.6</ele>
        <time>2022-08-14T06:30:42Z</time>
      </trkpt>
      <trkpt lat="43.93243" lon="1.88565">
        <ele>161.4</ele>
        <time>2022-08-14T06:30:43Z</time>
      </trkpt>
      <trkpt lat="43.93241" lon="1.88569">
        <ele>161.4</ele>
        <time>2022-08-14T06:30:44Z</time>
      </trkpt>
      <trkpt lat="43.9324" lon="1.88572">
        <ele>161.4</ele>
        <time>2022-08-14T06:30:45Z</time>
      </trkpt>
      <trkpt lat="43.93238" lon="1.88574">
        <ele>161.2</ele>
        <time>2022-08-14T06:30:46Z</time>
      </trkpt>
      <trkpt lat="43.93237" lon="1.88575">
        <ele>161</ele>
        <time>2022-08-14T06:30:47Z</time>
      </trkpt>
      <trkpt lat="43.93235" lon="1.88576">
        <ele>161</ele>
        <time>2022-08-14T06:30:48Z</time>
      </trkpt>
      <trkpt lat="43.93234" lon="1.88577">
        <ele>160.8</ele>
        <time>2022-08-14T06:30:49Z</time>
      </trkpt>
      <trkpt lat="43.93233" lon="1.88578">
        <ele>160.8</ele>
        <time>2022-08-14T06:30:50Z</time>
      </trkpt>
      <trkpt lat="43.93226" lon="1.88584">
        <ele>160.8</ele>
        <time>2022-08-14T06:30:55Z</time>
      </trkpt>
      <trkpt lat="43.93224" lon="1.88586">
        <ele>160.8</ele>
        <time>2022-08-14T06:30:56Z</time>
      </trkpt>
      <trkpt lat="43.93223" lon="1.88589">
        <ele>160.8</ele>
        <time>2022-08-14T06:30:57Z</time>
      </trkpt>
      <trkpt lat="43.93217" lon="1.88596">
        <ele>160.8</ele>
        <time>2022-08-14T06:31:01Z</time>
      </trkpt>
      <trkpt lat="43.9321" lon="1.88606">
        <ele>161</ele>
        <time>2022-08-14T06:31:05Z</time>
      </trkpt>
      <trkpt lat="43.93203" lon="1.88612">
        <ele>161.2</ele>
        <time>2022-08-14T06:31:08Z</time>
      </trkpt>
      <trkpt lat="43.93186" lon="1.88635">
        <ele>161.8</ele>
        <time>2022-08-14T06:31:15Z</time>
      </trkpt>
      <trkpt lat="43.93181" lon="1.88641">
        <ele>161.8</ele>
        <time>2022-08-14T06:31:17Z</time>
      </trkpt>
      <trkpt lat="43.93181" lon="1.88643">
        <ele>162.2</ele>
        <time>2022-08-14T06:31:18Z</time>
      </trkpt>
      <trkpt lat="43.93179" lon="1.88646">
        <ele>162.2</ele>
        <time>2022-08-14T06:31:19Z</time>
      </trkpt>
      <trkpt lat="43.93178" lon="1.88648">
        <ele>162.2</ele>
        <time>2022-08-14T06:31:20Z</time>
      </trkpt>
      <trkpt lat="43.93176" lon="1.8865">
        <ele>162.2</ele>
        <time>2022-08-14T06:31:21Z</time>
      </trkpt>
      <trkpt lat="43.9317" lon="1.88659">
        <ele>162.4</ele>
        <time>2022-08-14T06:31:23Z</time>
      </trkpt>
      <trkpt lat="43.93168" lon="1.88663">
        <ele>162.6</ele>
        <time>2022-08-14T06:31:24Z</time>
      </trkpt>
      <trkpt lat="43.93167" lon="1.88666">
        <ele>162.6</ele>
        <time>2022-08-14T06:31:25Z</time>
      </trkpt>
      <trkpt lat="43.93161" lon="1.88669">
        <ele>162.8</ele>
        <time>2022-08-14T06:31:27Z</time>
      </trkpt>
      <trkpt lat="43.9316" lon="1.88671">
        <ele>162.8</ele>
        <time>2022-08-14T06:31:28Z</time>
      </trkpt>
      <trkpt lat="43.93159" lon="1.88674">
        <ele>162.8</ele>
        <time>2022-08-14T06:31:29Z</time>
      </trkpt>
      <trkpt lat="43.93156" lon="1.88679">
        <ele>163</ele>
        <time>2022-08-14T06:31:31Z</time>
      </trkpt>
      <trkpt lat="43.93154" lon="1.88682">
        <ele>163</ele>
        <time>2022-08-14T06:31:32Z</time>
      </trkpt>
      <trkpt lat="43.9314" lon="1.88701">
        <ele>163.6</ele>
        <time>2022-08-14T06:31:38Z</time>
      </trkpt>
      <trkpt lat="43.93138" lon="1.88703">
        <ele>163.6</ele>
        <time>2022-08-14T06:31:39Z</time>
      </trkpt>
      <trkpt lat="43.93115" lon="1.88729">
        <ele>164.2</ele>
        <time>2022-08-14T06:31:47Z</time>
      </trkpt>
      <trkpt lat="43.93107" lon="1.88736">
        <ele>164.2</ele>
        <time>2022-08-14T06:31:49Z</time>
      </trkpt>
      <trkpt lat="43.93104" lon="1.88739">
        <ele>164.2</ele>
        <time>2022-08-14T06:31:50Z</time>
      </trkpt>
      <trkpt lat="43.93101" lon="1.88742">
        <ele>164.4</ele>
        <time>2022-08-14T06:31:51Z</time>
      </trkpt>
      <trkpt lat="43.93098" lon="1.88745">
        <ele>164.4</ele>
        <time>2022-08-14T06:31:52Z</time>
      </trkpt>
      <trkpt lat="43.93092" lon="1.88752">
        <ele>164.6</ele>
        <time>2022-08-14T06:31:54Z</time>
      </trkpt>
      <trkpt lat="43.93055" lon="1.88786">
        <ele>168.6</ele>
        <time>2022-08-14T06:32:04Z</time>
      </trkpt>
      <trkpt lat="43.93026" lon="1.88803">
        <ele>165.2</ele>
        <time>2022-08-14T06:32:10Z</time>
      </trkpt>
      <trkpt lat="43.93021" lon="1.88806">
        <ele>165</ele>
        <time>2022-08-14T06:32:11Z</time>
      </trkpt>
      <trkpt lat="43.93016" lon="1.88808">
        <ele>164.8</ele>
        <time>2022-08-14T06:32:12Z</time>
      </trkpt>
      <trkpt lat="43.93011" lon="1.8881">
        <ele>164.6</ele>
        <time>2022-08-14T06:32:13Z</time>
      </trkpt>
      <trkpt lat="43.93007" lon="1.88812">
        <ele>164.6</ele>
        <time>2022-08-14T06:32:14Z</time>
      </trkpt>
      <trkpt lat="43.93002" lon="1.88815">
        <ele>164.4</ele>
        <time>2022-08-14T06:32:15Z</time>
      </trkpt>
      <trkpt lat="43.92998" lon="1.88817">
        <ele>164.4</ele>
        <time>2022-08-14T06:32:16Z</time>
      </trkpt>
      <trkpt lat="43.92994" lon="1.88819">
        <ele>164.4</ele>
        <time>2022-08-14T06:32:17Z</time>
      </trkpt>
      <trkpt lat="43.9299" lon="1.88821">
        <ele>164.2</ele>
        <time>2022-08-14T06:32:18Z</time>
      </trkpt>
      <trkpt lat="43.92985" lon="1.88823">
        <ele>164</ele>
        <time>2022-08-14T06:32:19Z</time>
      </trkpt>
      <trkpt lat="43.92982" lon="1.88825">
        <ele>163.8</ele>
        <time>2022-08-14T06:32:20Z</time>
      </trkpt>
      <trkpt lat="43.92978" lon="1.88827">
        <ele>163.6</ele>
        <time>2022-08-14T06:32:21Z</time>
      </trkpt>
      <trkpt lat="43.92975" lon="1.88829">
        <ele>163.6</ele>
        <time>2022-08-14T06:32:22Z</time>
      </trkpt>
      <trkpt lat="43.92972" lon="1.88832">
        <ele>163.8</ele>
        <time>2022-08-14T06:32:23Z</time>
      </trkpt>
      <trkpt lat="43.92964" lon="1.88837">
        <ele>163.4</ele>
        <time>2022-08-14T06:32:25Z</time>
      </trkpt>
      <trkpt lat="43.92955" lon="1.88841">
        <ele>163.2</ele>
        <time>2022-08-14T06:32:27Z</time>
      </trkpt>
      <trkpt lat="43.92951" lon="1.88844">
        <ele>163</ele>
        <time>2022-08-14T06:32:28Z</time>
      </trkpt>
      <trkpt lat="43.92947" lon="1.88846">
        <ele>163</ele>
        <time>2022-08-14T06:32:29Z</time>
      </trkpt>
      <trkpt lat="43.92927" lon="1.88858">
        <ele>163.2</ele>
        <time>2022-08-14T06:32:34Z</time>
      </trkpt>
      <trkpt lat="43.92923" lon="1.88861">
        <ele>163</ele>
        <time>2022-08-14T06:32:35Z</time>
      </trkpt>
      <trkpt lat="43.92907" lon="1.88872">
        <ele>163</ele>
        <time>2022-08-14T06:32:39Z</time>
      </trkpt>
      <trkpt lat="43.92903" lon="1.88874">
        <ele>162.8</ele>
        <time>2022-08-14T06:32:40Z</time>
      </trkpt>
      <trkpt lat="43.92899" lon="1.88877">
        <ele>162.8</ele>
        <time>2022-08-14T06:32:41Z</time>
      </trkpt>
      <trkpt lat="43.92894" lon="1.88879">
        <ele>162.8</ele>
        <time>2022-08-14T06:32:42Z</time>
      </trkpt>
      <trkpt lat="43.92885" lon="1.88885">
        <ele>162.2</ele>
        <time>2022-08-14T06:32:44Z</time>
      </trkpt>
      <trkpt lat="43.92867" lon="1.88894">
        <ele>161.6</ele>
        <time>2022-08-14T06:32:47Z</time>
      </trkpt>
      <trkpt lat="43.9286" lon="1.88897">
        <ele>160.8</ele>
        <time>2022-08-14T06:32:48Z</time>
      </trkpt>
      <trkpt lat="43.92846" lon="1.88898">
        <ele>159.8</ele>
        <time>2022-08-14T06:32:50Z</time>
      </trkpt>
      <trkpt lat="43.92838" lon="1.88898">
        <ele>159</ele>
        <time>2022-08-14T06:32:51Z</time>
      </trkpt>
      <trkpt lat="43.92823" lon="1.88898">
        <ele>157.6</ele>
        <time>2022-08-14T06:32:53Z</time>
      </trkpt>
      <trkpt lat="43.92815" lon="1.88897">
        <ele>157.4</ele>
        <time>2022-08-14T06:32:54Z</time>
      </trkpt>
      <trkpt lat="43.92808" lon="1.88896">
        <ele>156.8</ele>
        <time>2022-08-14T06:32:55Z</time>
      </trkpt>
      <trkpt lat="43.92801" lon="1.88895">
        <ele>156.2</ele>
        <time>2022-08-14T06:32:56Z</time>
      </trkpt>
      <trkpt lat="43.92794" lon="1.88894">
        <ele>155.4</ele>
        <time>2022-08-14T06:32:57Z</time>
      </trkpt>
      <trkpt lat="43.92787" lon="1.88895">
        <ele>154.8</ele>
        <time>2022-08-14T06:32:58Z</time>
      </trkpt>
      <trkpt lat="43.9278" lon="1.88895">
        <ele>154.8</ele>
        <time>2022-08-14T06:32:59Z</time>
      </trkpt>
      <trkpt lat="43.92773" lon="1.88897">
        <ele>154.6</ele>
        <time>2022-08-14T06:33:00Z</time>
      </trkpt>
      <trkpt lat="43.92767" lon="1.88899">
        <ele>154.4</ele>
        <time>2022-08-14T06:33:01Z</time>
      </trkpt>
      <trkpt lat="43.92761" lon="1.88901">
        <ele>154.4</ele>
        <time>2022-08-14T06:33:02Z</time>
      </trkpt>
      <trkpt lat="43.92755" lon="1.88903">
        <ele>154.2</ele>
        <time>2022-08-14T06:33:03Z</time>
      </trkpt>
      <trkpt lat="43.92749" lon="1.88905">
        <ele>154</ele>
        <time>2022-08-14T06:33:04Z</time>
      </trkpt>
      <trkpt lat="43.92743" lon="1.88907">
        <ele>154</ele>
        <time>2022-08-14T06:33:05Z</time>
      </trkpt>
      <trkpt lat="43.92738" lon="1.88909">
        <ele>153.8</ele>
        <time>2022-08-14T06:33:06Z</time>
      </trkpt>
      <trkpt lat="43.92734" lon="1.8891">
        <ele>153.2</ele>
        <time>2022-08-14T06:33:07Z</time>
      </trkpt>
      <trkpt lat="43.92729" lon="1.88911">
        <ele>153.2</ele>
        <time>2022-08-14T06:33:08Z</time>
      </trkpt>
      <trkpt lat="43.92726" lon="1.88911">
        <ele>152.6</ele>
        <time>2022-08-14T06:33:09Z</time>
      </trkpt>
      <trkpt lat="43.92723" lon="1.8891">
        <ele>152.6</ele>
        <time>2022-08-14T06:33:10Z</time>
      </trkpt>
      <trkpt lat="43.92721" lon="1.88907">
        <ele>152.4</ele>
        <time>2022-08-14T06:33:11Z</time>
      </trkpt>
      <trkpt lat="43.9272" lon="1.88904">
        <ele>152.4</ele>
        <time>2022-08-14T06:33:12Z</time>
      </trkpt>
      <trkpt lat="43.92718" lon="1.88902">
        <ele>152.2</ele>
        <time>2022-08-14T06:33:13Z</time>
      </trkpt>
      <trkpt lat="43.92717" lon="1.88899">
        <ele>152</ele>
        <time>2022-08-14T06:33:14Z</time>
      </trkpt>
      <trkpt lat="43.92716" lon="1.88895">
        <ele>151.8</ele>
        <time>2022-08-14T06:33:15Z</time>
      </trkpt>
      <trkpt lat="43.92712" lon="1.88887">
        <ele>151.6</ele>
        <time>2022-08-14T06:33:17Z</time>
      </trkpt>
      <trkpt lat="43.92707" lon="1.88875">
        <ele>151.4</ele>
        <time>2022-08-14T06:33:20Z</time>
      </trkpt>
      <trkpt lat="43.92706" lon="1.88871">
        <ele>151.4</ele>
        <time>2022-08-14T06:33:21Z</time>
      </trkpt>
      <trkpt lat="43.92697" lon="1.88849">
        <ele>151.4</ele>
        <time>2022-08-14T06:33:26Z</time>
      </trkpt>
      <trkpt lat="43.92695" lon="1.88845">
        <ele>151.6</ele>
        <time>2022-08-14T06:33:27Z</time>
      </trkpt>
      <trkpt lat="43.92693" lon="1.88841">
        <ele>151.6</ele>
        <time>2022-08-14T06:33:28Z</time>
      </trkpt>
      <trkpt lat="43.92691" lon="1.88837">
        <ele>151.6</ele>
        <time>2022-08-14T06:33:29Z</time>
      </trkpt>
      <trkpt lat="43.92687" lon="1.88829">
        <ele>151.8</ele>
        <time>2022-08-14T06:33:31Z</time>
      </trkpt>
      <trkpt lat="43.92678" lon="1.88812">
        <ele>152.2</ele>
        <time>2022-08-14T06:33:35Z</time>
      </trkpt>
      <trkpt lat="43.9267" lon="1.888">
        <ele>152.4</ele>
        <time>2022-08-14T06:33:38Z</time>
      </trkpt>
      <trkpt lat="43.92654" lon="1.88779">
        <ele>152.8</ele>
        <time>2022-08-14T06:33:43Z</time>
      </trkpt>
      <trkpt lat="43.9265" lon="1.88775">
        <ele>153</ele>
        <time>2022-08-14T06:33:44Z</time>
      </trkpt>
      <trkpt lat="43.92647" lon="1.88771">
        <ele>153</ele>
        <time>2022-08-14T06:33:45Z</time>
      </trkpt>
      <trkpt lat="43.92644" lon="1.88767">
        <ele>153</ele>
        <time>2022-08-14T06:33:46Z</time>
      </trkpt>
      <trkpt lat="43.92641" lon="1.88764">
        <ele>153</ele>
        <time>2022-08-14T06:33:47Z</time>
      </trkpt>
      <trkpt lat="43.92638" lon="1.8876">
        <ele>153.2</ele>
        <time>2022-08-14T06:33:48Z</time>
      </trkpt>
      <trkpt lat="43.92634" lon="1.88756">
        <ele>153.2</ele>
        <time>2022-08-14T06:33:49Z</time>
      </trkpt>
      <trkpt lat="43.92627" lon="1.88749">
        <ele>153.2</ele>
        <time>2022-08-14T06:33:51Z</time>
      </trkpt>
      <trkpt lat="43.92611" lon="1.88732">
        <ele>153.4</ele>
        <time>2022-08-14T06:33:56Z</time>
      </trkpt>
      <trkpt lat="43.92607" lon="1.88728">
        <ele>153.4</ele>
        <time>2022-08-14T06:33:57Z</time>
      </trkpt>
      <trkpt lat="43.92605" lon="1.88724">
        <ele>153.4</ele>
        <time>2022-08-14T06:33:58Z</time>
      </trkpt>
      <trkpt lat="43.92602" lon="1.8872">
        <ele>153.4</ele>
        <time>2022-08-14T06:33:59Z</time>
      </trkpt>
      <trkpt lat="43.926" lon="1.88715">
        <ele>153.2</ele>
        <time>2022-08-14T06:34:00Z</time>
      </trkpt>
      <trkpt lat="43.92599" lon="1.8871">
        <ele>153.2</ele>
        <time>2022-08-14T06:34:01Z</time>
      </trkpt>
      <trkpt lat="43.92598" lon="1.88704">
        <ele>153.2</ele>
        <time>2022-08-14T06:34:02Z</time>
      </trkpt>
      <trkpt lat="43.92599" lon="1.88699">
        <ele>153</ele>
        <time>2022-08-14T06:34:03Z</time>
      </trkpt>
      <trkpt lat="43.926" lon="1.88695">
        <ele>153</ele>
        <time>2022-08-14T06:34:04Z</time>
      </trkpt>
      <trkpt lat="43.92601" lon="1.88691">
        <ele>153</ele>
        <time>2022-08-14T06:34:05Z</time>
      </trkpt>
      <trkpt lat="43.92602" lon="1.88687">
        <ele>153</ele>
        <time>2022-08-14T06:34:06Z</time>
      </trkpt>
      <trkpt lat="43.92603" lon="1.88682">
        <ele>153</ele>
        <time>2022-08-14T06:34:07Z</time>
      </trkpt>
      <trkpt lat="43.92601" lon="1.88672">
        <ele>153</ele>
        <time>2022-08-14T06:34:09Z</time>
      </trkpt>
      <trkpt lat="43.926" lon="1.88668">
        <ele>153</ele>
        <time>2022-08-14T06:34:10Z</time>
      </trkpt>
      <trkpt lat="43.92598" lon="1.88663">
        <ele>153</ele>
        <time>2022-08-14T06:34:11Z</time>
      </trkpt>
      <trkpt lat="43.92595" lon="1.88659">
        <ele>153</ele>
        <time>2022-08-14T06:34:12Z</time>
      </trkpt>
      <trkpt lat="43.92593" lon="1.88655">
        <ele>153</ele>
        <time>2022-08-14T06:34:13Z</time>
      </trkpt>
      <trkpt lat="43.9258" lon="1.88628">
        <ele>153</ele>
        <time>2022-08-14T06:34:19Z</time>
      </trkpt>
      <trkpt lat="43.92577" lon="1.88623">
        <ele>153</ele>
        <time>2022-08-14T06:34:20Z</time>
      </trkpt>
      <trkpt lat="43.92575" lon="1.88618">
        <ele>153</ele>
        <time>2022-08-14T06:34:21Z</time>
      </trkpt>
      <trkpt lat="43.92573" lon="1.88613">
        <ele>153</ele>
        <time>2022-08-14T06:34:22Z</time>
      </trkpt>
      <trkpt lat="43.92572" lon="1.88608">
        <ele>153</ele>
        <time>2022-08-14T06:34:23Z</time>
      </trkpt>
      <trkpt lat="43.92571" lon="1.88604">
        <ele>153</ele>
        <time>2022-08-14T06:34:24Z</time>
      </trkpt>
      <trkpt lat="43.92571" lon="1.88599">
        <ele>153.2</ele>
        <time>2022-08-14T06:34:25Z</time>
      </trkpt>
      <trkpt lat="43.92572" lon="1.88594">
        <ele>153.2</ele>
        <time>2022-08-14T06:34:26Z</time>
      </trkpt>
      <trkpt lat="43.92573" lon="1.88588">
        <ele>153</ele>
        <time>2022-08-14T06:34:27Z</time>
      </trkpt>
      <trkpt lat="43.92574" lon="1.88583">
        <ele>153.2</ele>
        <time>2022-08-14T06:34:28Z</time>
      </trkpt>
      <trkpt lat="43.92576" lon="1.88578">
        <ele>153.2</ele>
        <time>2022-08-14T06:34:29Z</time>
      </trkpt>
      <trkpt lat="43.92578" lon="1.88568">
        <ele>153.2</ele>
        <time>2022-08-14T06:34:31Z</time>
      </trkpt>
      <trkpt lat="43.92579" lon="1.88563">
        <ele>153.4</ele>
        <time>2022-08-14T06:34:32Z</time>
      </trkpt>
      <trkpt lat="43.92582" lon="1.88547">
        <ele>153.4</ele>
        <time>2022-08-14T06:34:35Z</time>
      </trkpt>
      <trkpt lat="43.92584" lon="1.88536">
        <ele>153.4</ele>
        <time>2022-08-14T06:34:37Z</time>
      </trkpt>
      <trkpt lat="43.92584" lon="1.88532">
        <ele>153.4</ele>
        <time>2022-08-14T06:34:38Z</time>
      </trkpt>
      <trkpt lat="43.92585" lon="1.88527">
        <ele>153.4</ele>
        <time>2022-08-14T06:34:39Z</time>
      </trkpt>
      <trkpt lat="43.92585" lon="1.88523">
        <ele>153.6</ele>
        <time>2022-08-14T06:34:40Z</time>
      </trkpt>
      <trkpt lat="43.92586" lon="1.8852">
        <ele>153.6</ele>
        <time>2022-08-14T06:34:41Z</time>
      </trkpt>
      <trkpt lat="43.92587" lon="1.88517">
        <ele>153.8</ele>
        <time>2022-08-14T06:34:42Z</time>
      </trkpt>
      <trkpt lat="43.92588" lon="1.88514">
        <ele>153.8</ele>
        <time>2022-08-14T06:34:43Z</time>
      </trkpt>
      <trkpt lat="43.92588" lon="1.88511">
        <ele>153.8</ele>
        <time>2022-08-14T06:34:44Z</time>
      </trkpt>
      <trkpt lat="43.92589" lon="1.88508">
        <ele>154</ele>
        <time>2022-08-14T06:34:45Z</time>
      </trkpt>
      <trkpt lat="43.92589" lon="1.88506">
        <ele>154</ele>
        <time>2022-08-14T06:34:46Z</time>
      </trkpt>
      <trkpt lat="43.9259" lon="1.88503">
        <ele>154</ele>
        <time>2022-08-14T06:34:47Z</time>
      </trkpt>
      <trkpt lat="43.92591" lon="1.88501">
        <ele>154</ele>
        <time>2022-08-14T06:34:48Z</time>
      </trkpt>
      <trkpt lat="43.92592" lon="1.88497">
        <ele>154.2</ele>
        <time>2022-08-14T06:34:50Z</time>
      </trkpt>
      <trkpt lat="43.92594" lon="1.8849">
        <ele>154.2</ele>
        <time>2022-08-14T06:34:53Z</time>
      </trkpt>
      <trkpt lat="43.92596" lon="1.88485">
        <ele>154.6</ele>
        <time>2022-08-14T06:34:55Z</time>
      </trkpt>
      <trkpt lat="43.92596" lon="1.88483">
        <ele>154.6</ele>
        <time>2022-08-14T06:34:56Z</time>
      </trkpt>
      <trkpt lat="43.92603" lon="1.88457">
        <ele>155</ele>
        <time>2022-08-14T06:35:03Z</time>
      </trkpt>
      <trkpt lat="43.92605" lon="1.88448">
        <ele>154.8</ele>
        <time>2022-08-14T06:35:05Z</time>
      </trkpt>
      <trkpt lat="43.92606" lon="1.88444">
        <ele>154.8</ele>
        <time>2022-08-14T06:35:06Z</time>
      </trkpt>
      <trkpt lat="43.92608" lon="1.88439">
        <ele>155</ele>
        <time>2022-08-14T06:35:07Z</time>
      </trkpt>
      <trkpt lat="43.92608" lon="1.88434">
        <ele>155</ele>
        <time>2022-08-14T06:35:08Z</time>
      </trkpt>
      <trkpt lat="43.9261" lon="1.88425">
        <ele>155.2</ele>
        <time>2022-08-14T06:35:10Z</time>
      </trkpt>
      <trkpt lat="43.9261" lon="1.8842">
        <ele>155.2</ele>
        <time>2022-08-14T06:35:11Z</time>
      </trkpt>
      <trkpt lat="43.92611" lon="1.8841">
        <ele>155.4</ele>
        <time>2022-08-14T06:35:13Z</time>
      </trkpt>
      <trkpt lat="43.92611" lon="1.884">
        <ele>155.6</ele>
        <time>2022-08-14T06:35:15Z</time>
      </trkpt>
      <trkpt lat="43.92612" lon="1.88376">
        <ele>156.2</ele>
        <time>2022-08-14T06:35:20Z</time>
      </trkpt>
      <trkpt lat="43.92611" lon="1.88361">
        <ele>156.4</ele>
        <time>2022-08-14T06:35:23Z</time>
      </trkpt>
      <trkpt lat="43.92611" lon="1.88356">
        <ele>156.4</ele>
        <time>2022-08-14T06:35:24Z</time>
      </trkpt>
      <trkpt lat="43.9261" lon="1.88346">
        <ele>156.6</ele>
        <time>2022-08-14T06:35:26Z</time>
      </trkpt>
      <trkpt lat="43.9261" lon="1.88341">
        <ele>156.6</ele>
        <time>2022-08-14T06:35:27Z</time>
      </trkpt>
      <trkpt lat="43.9261" lon="1.88337">
        <ele>156.8</ele>
        <time>2022-08-14T06:35:28Z</time>
      </trkpt>
      <trkpt lat="43.9261" lon="1.88333">
        <ele>156.8</ele>
        <time>2022-08-14T06:35:29Z</time>
      </trkpt>
      <trkpt lat="43.9261" lon="1.88329">
        <ele>157</ele>
        <time>2022-08-14T06:35:30Z</time>
      </trkpt>
      <trkpt lat="43.9261" lon="1.88325">
        <ele>157</ele>
        <time>2022-08-14T06:35:31Z</time>
      </trkpt>
      <trkpt lat="43.92611" lon="1.88313">
        <ele>157.2</ele>
        <time>2022-08-14T06:35:34Z</time>
      </trkpt>
      <trkpt lat="43.92612" lon="1.8831">
        <ele>157.2</ele>
        <time>2022-08-14T06:35:35Z</time>
      </trkpt>
      <trkpt lat="43.92613" lon="1.88306">
        <ele>157.2</ele>
        <time>2022-08-14T06:35:36Z</time>
      </trkpt>
      <trkpt lat="43.92614" lon="1.88298">
        <ele>157.2</ele>
        <time>2022-08-14T06:35:38Z</time>
      </trkpt>
      <trkpt lat="43.92616" lon="1.88282">
        <ele>157.2</ele>
        <time>2022-08-14T06:35:42Z</time>
      </trkpt>
      <trkpt lat="43.92617" lon="1.88275">
        <ele>157</ele>
        <time>2022-08-14T06:35:44Z</time>
      </trkpt>
      <trkpt lat="43.92619" lon="1.88268">
        <ele>157.2</ele>
        <time>2022-08-14T06:35:46Z</time>
      </trkpt>
      <trkpt lat="43.9262" lon="1.88265">
        <ele>157.4</ele>
        <time>2022-08-14T06:35:47Z</time>
      </trkpt>
      <trkpt lat="43.92621" lon="1.88262">
        <ele>157.4</ele>
        <time>2022-08-14T06:35:48Z</time>
      </trkpt>
      <trkpt lat="43.92622" lon="1.8826">
        <ele>157.4</ele>
        <time>2022-08-14T06:35:49Z</time>
      </trkpt>
      <trkpt lat="43.92625" lon="1.88251">
        <ele>158</ele>
        <time>2022-08-14T06:35:52Z</time>
      </trkpt>
      <trkpt lat="43.92625" lon="1.88248">
        <ele>158</ele>
        <time>2022-08-14T06:35:53Z</time>
      </trkpt>
      <trkpt lat="43.92624" lon="1.88245">
        <ele>158.2</ele>
        <time>2022-08-14T06:35:54Z</time>
      </trkpt>
      <trkpt lat="43.92623" lon="1.88243">
        <ele>158.4</ele>
        <time>2022-08-14T06:35:55Z</time>
      </trkpt>
      <trkpt lat="43.92621" lon="1.88242">
        <ele>158.6</ele>
        <time>2022-08-14T06:35:56Z</time>
      </trkpt>
      <trkpt lat="43.92619" lon="1.88241">
        <ele>159</ele>
        <time>2022-08-14T06:35:57Z</time>
      </trkpt>
      <trkpt lat="43.92608" lon="1.88233">
        <ele>159.4</ele>
        <time>2022-08-14T06:36:02Z</time>
      </trkpt>
      <trkpt lat="43.92606" lon="1.88231">
        <ele>159.6</ele>
        <time>2022-08-14T06:36:03Z</time>
      </trkpt>
      <trkpt lat="43.92604" lon="1.88229">
        <ele>159.6</ele>
        <time>2022-08-14T06:36:04Z</time>
      </trkpt>
      <trkpt lat="43.92602" lon="1.88228">
        <ele>159.6</ele>
        <time>2022-08-14T06:36:05Z</time>
      </trkpt>
      <trkpt lat="43.92601" lon="1.88226">
        <ele>159.8</ele>
        <time>2022-08-14T06:36:06Z</time>
      </trkpt>
      <trkpt lat="43.92599" lon="1.88225">
        <ele>159.8</ele>
        <time>2022-08-14T06:36:07Z</time>
      </trkpt>
      <trkpt lat="43.92598" lon="1.88223">
        <ele>160</ele>
        <time>2022-08-14T06:36:08Z</time>
      </trkpt>
      <trkpt lat="43.92597" lon="1.88221">
        <ele>160</ele>
        <time>2022-08-14T06:36:09Z</time>
      </trkpt>
      <trkpt lat="43.92595" lon="1.88219">
        <ele>160</ele>
        <time>2022-08-14T06:36:10Z</time>
      </trkpt>
      <trkpt lat="43.92594" lon="1.88217">
        <ele>160</ele>
        <time>2022-08-14T06:36:11Z</time>
      </trkpt>
      <trkpt lat="43.92593" lon="1.88215">
        <ele>160.4</ele>
        <time>2022-08-14T06:36:12Z</time>
      </trkpt>
      <trkpt lat="43.92592" lon="1.88212">
        <ele>160.6</ele>
        <time>2022-08-14T06:36:13Z</time>
      </trkpt>
      <trkpt lat="43.92591" lon="1.8821">
        <ele>160.6</ele>
        <time>2022-08-14T06:36:14Z</time>
      </trkpt>
      <trkpt lat="43.92591" lon="1.88208">
        <ele>160.6</ele>
        <time>2022-08-14T06:36:15Z</time>
      </trkpt>
      <trkpt lat="43.9259" lon="1.88205">
        <ele>160.8</ele>
        <time>2022-08-14T06:36:16Z</time>
      </trkpt>
      <trkpt lat="43.9259" lon="1.88203">
        <ele>161</ele>
        <time>2022-08-14T06:36:17Z</time>
      </trkpt>
      <trkpt lat="43.9259" lon="1.88201">
        <ele>161</ele>
        <time>2022-08-14T06:36:18Z</time>
      </trkpt>
      <trkpt lat="43.92589" lon="1.88199">
        <ele>161.4</ele>
        <time>2022-08-14T06:36:19Z</time>
      </trkpt>
      <trkpt lat="43.92588" lon="1.88197">
        <ele>161.6</ele>
        <time>2022-08-14T06:36:20Z</time>
      </trkpt>
      <trkpt lat="43.92588" lon="1.88194">
        <ele>161.8</ele>
        <time>2022-08-14T06:36:21Z</time>
      </trkpt>
      <trkpt lat="43.92588" lon="1.88192">
        <ele>162</ele>
        <time>2022-08-14T06:36:22Z</time>
      </trkpt>
      <trkpt lat="43.92588" lon="1.8819">
        <ele>162.2</ele>
        <time>2022-08-14T06:36:23Z</time>
      </trkpt>
      <trkpt lat="43.92588" lon="1.88189">
        <ele>162.4</ele>
        <time>2022-08-14T06:36:24Z</time>
      </trkpt>
      <trkpt lat="43.92588" lon="1.88187">
        <ele>162.6</ele>
        <time>2022-08-14T06:36:25Z</time>
      </trkpt>
      <trkpt lat="43.92588" lon="1.88185">
        <ele>162.8</ele>
        <time>2022-08-14T06:36:26Z</time>
      </trkpt>
      <trkpt lat="43.92587" lon="1.88184">
        <ele>163</ele>
        <time>2022-08-14T06:36:27Z</time>
      </trkpt>
      <trkpt lat="43.92587" lon="1.88182">
        <ele>163.2</ele>
        <time>2022-08-14T06:36:28Z</time>
      </trkpt>
      <trkpt lat="43.92587" lon="1.8818">
        <ele>163.4</ele>
        <time>2022-08-14T06:36:29Z</time>
      </trkpt>
      <trkpt lat="43.92587" lon="1.88178">
        <ele>163.6</ele>
        <time>2022-08-14T06:36:30Z</time>
      </trkpt>
      <trkpt lat="43.92586" lon="1.88177">
        <ele>163.8</ele>
        <time>2022-08-14T06:36:31Z</time>
      </trkpt>
      <trkpt lat="43.92586" lon="1.88175">
        <ele>164</ele>
        <time>2022-08-14T06:36:32Z</time>
      </trkpt>
      <trkpt lat="43.92586" lon="1.88173">
        <ele>164.2</ele>
        <time>2022-08-14T06:36:33Z</time>
      </trkpt>
      <trkpt lat="43.92586" lon="1.88171">
        <ele>164.4</ele>
        <time>2022-08-14T06:36:34Z</time>
      </trkpt>
      <trkpt lat="43.92585" lon="1.88168">
        <ele>165</ele>
        <time>2022-08-14T06:36:35Z</time>
      </trkpt>
      <trkpt lat="43.92585" lon="1.88166">
        <ele>165.4</ele>
        <time>2022-08-14T06:36:36Z</time>
      </trkpt>
      <trkpt lat="43.92584" lon="1.88164">
        <ele>165.4</ele>
        <time>2022-08-14T06:36:37Z</time>
      </trkpt>
      <trkpt lat="43.92584" lon="1.88162">
        <ele>165.6</ele>
        <time>2022-08-14T06:36:38Z</time>
      </trkpt>
      <trkpt lat="43.92583" lon="1.8816">
        <ele>165.8</ele>
        <time>2022-08-14T06:36:39Z</time>
      </trkpt>
      <trkpt lat="43.92583" lon="1.88157">
        <ele>165.8</ele>
        <time>2022-08-14T06:36:40Z</time>
      </trkpt>
      <trkpt lat="43.92582" lon="1.88155">
        <ele>166</ele>
        <time>2022-08-14T06:36:41Z</time>
      </trkpt>
      <trkpt lat="43.92582" lon="1.88153">
        <ele>166</ele>
        <time>2022-08-14T06:36:42Z</time>
      </trkpt>
      <trkpt lat="43.92582" lon="1.88151">
        <ele>166.2</ele>
        <time>2022-08-14T06:36:43Z</time>
      </trkpt>
      <trkpt lat="43.92582" lon="1.88148">
        <ele>166.2</ele>
        <time>2022-08-14T06:36:44Z</time>
      </trkpt>
      <trkpt lat="43.92582" lon="1.88147">
        <ele>166.6</ele>
        <time>2022-08-14T06:36:45Z</time>
      </trkpt>
      <trkpt lat="43.92581" lon="1.88145">
        <ele>166.6</ele>
        <time>2022-08-14T06:36:46Z</time>
      </trkpt>
      <trkpt lat="43.92582" lon="1.88143">
        <ele>166.8</ele>
        <time>2022-08-14T06:36:47Z</time>
      </trkpt>
      <trkpt lat="43.92582" lon="1.88141">
        <ele>167</ele>
        <time>2022-08-14T06:36:48Z</time>
      </trkpt>
      <trkpt lat="43.92582" lon="1.88139">
        <ele>167.2</ele>
        <time>2022-08-14T06:36:49Z</time>
      </trkpt>
      <trkpt lat="43.92582" lon="1.88137">
        <ele>167.4</ele>
        <time>2022-08-14T06:36:50Z</time>
      </trkpt>
      <trkpt lat="43.92582" lon="1.88135">
        <ele>167.6</ele>
        <time>2022-08-14T06:36:51Z</time>
      </trkpt>
      <trkpt lat="43.92583" lon="1.88133">
        <ele>167.8</ele>
        <time>2022-08-14T06:36:52Z</time>
      </trkpt>
      <trkpt lat="43.92583" lon="1.88131">
        <ele>168</ele>
        <time>2022-08-14T06:36:53Z</time>
      </trkpt>
      <trkpt lat="43.92584" lon="1.88129">
        <ele>168.4</ele>
        <time>2022-08-14T06:36:54Z</time>
      </trkpt>
      <trkpt lat="43.92585" lon="1.88127">
        <ele>168.6</ele>
        <time>2022-08-14T06:36:55Z</time>
      </trkpt>
      <trkpt lat="43.92585" lon="1.88126">
        <ele>169</ele>
        <time>2022-08-14T06:36:56Z</time>
      </trkpt>
      <trkpt lat="43.92586" lon="1.88124">
        <ele>169</ele>
        <time>2022-08-14T06:36:57Z</time>
      </trkpt>
      <trkpt lat="43.92587" lon="1.88123">
        <ele>169.4</ele>
        <time>2022-08-14T06:36:58Z</time>
      </trkpt>
      <trkpt lat="43.92588" lon="1.88121">
        <ele>169.8</ele>
        <time>2022-08-14T06:36:59Z</time>
      </trkpt>
      <trkpt lat="43.92589" lon="1.88119">
        <ele>169.8</ele>
        <time>2022-08-14T06:37:00Z</time>
      </trkpt>
      <trkpt lat="43.9259" lon="1.88117">
        <ele>170.2</ele>
        <time>2022-08-14T06:37:01Z</time>
      </trkpt>
      <trkpt lat="43.9259" lon="1.88116">
        <ele>170.4</ele>
        <time>2022-08-14T06:37:02Z</time>
      </trkpt>
      <trkpt lat="43.92591" lon="1.88114">
        <ele>170.6</ele>
        <time>2022-08-14T06:37:03Z</time>
      </trkpt>
      <trkpt lat="43.92592" lon="1.88112">
        <ele>170.6</ele>
        <time>2022-08-14T06:37:04Z</time>
      </trkpt>
      <trkpt lat="43.92592" lon="1.88111">
        <ele>171</ele>
        <time>2022-08-14T06:37:05Z</time>
      </trkpt>
      <trkpt lat="43.92593" lon="1.88109">
        <ele>171.2</ele>
        <time>2022-08-14T06:37:06Z</time>
      </trkpt>
      <trkpt lat="43.92593" lon="1.88107">
        <ele>171.4</ele>
        <time>2022-08-14T06:37:07Z</time>
      </trkpt>
      <trkpt lat="43.92594" lon="1.88104">
        <ele>171.8</ele>
        <time>2022-08-14T06:37:08Z</time>
      </trkpt>
      <trkpt lat="43.92595" lon="1.88102">
        <ele>171.8</ele>
        <time>2022-08-14T06:37:09Z</time>
      </trkpt>
      <trkpt lat="43.92596" lon="1.881">
        <ele>172</ele>
        <time>2022-08-14T06:37:10Z</time>
      </trkpt>
      <trkpt lat="43.92596" lon="1.88098">
        <ele>172.2</ele>
        <time>2022-08-14T06:37:11Z</time>
      </trkpt>
      <trkpt lat="43.92597" lon="1.88096">
        <ele>172.4</ele>
        <time>2022-08-14T06:37:12Z</time>
      </trkpt>
      <trkpt lat="43.92598" lon="1.88094">
        <ele>172.6</ele>
        <time>2022-08-14T06:37:13Z</time>
      </trkpt>
      <trkpt lat="43.92598" lon="1.88092">
        <ele>172.8</ele>
        <time>2022-08-14T06:37:14Z</time>
      </trkpt>
      <trkpt lat="43.92599" lon="1.8809">
        <ele>172.8</ele>
        <time>2022-08-14T06:37:15Z</time>
      </trkpt>
      <trkpt lat="43.92599" lon="1.88088">
        <ele>172.8</ele>
        <time>2022-08-14T06:37:16Z</time>
      </trkpt>
      <trkpt lat="43.926" lon="1.88086">
        <ele>173</ele>
        <time>2022-08-14T06:37:17Z</time>
      </trkpt>
      <trkpt lat="43.926" lon="1.88084">
        <ele>173.2</ele>
        <time>2022-08-14T06:37:18Z</time>
      </trkpt>
      <trkpt lat="43.926" lon="1.88082">
        <ele>173.2</ele>
        <time>2022-08-14T06:37:19Z</time>
      </trkpt>
      <trkpt lat="43.92601" lon="1.8808">
        <ele>173.2</ele>
        <time>2022-08-14T06:37:20Z</time>
      </trkpt>
      <trkpt lat="43.92601" lon="1.88078">
        <ele>173.4</ele>
        <time>2022-08-14T06:37:21Z</time>
      </trkpt>
      <trkpt lat="43.92602" lon="1.88076">
        <ele>173.6</ele>
        <time>2022-08-14T06:37:22Z</time>
      </trkpt>
      <trkpt lat="43.92602" lon="1.88073">
        <ele>173.6</ele>
        <time>2022-08-14T06:37:23Z</time>
      </trkpt>
      <trkpt lat="43.92603" lon="1.88071">
        <ele>173.6</ele>
        <time>2022-08-14T06:37:24Z</time>
      </trkpt>
      <trkpt lat="43.92603" lon="1.88069">
        <ele>173.8</ele>
        <time>2022-08-14T06:37:25Z</time>
      </trkpt>
      <trkpt lat="43.92603" lon="1.88067">
        <ele>173.8</ele>
        <time>2022-08-14T06:37:26Z</time>
      </trkpt>
      <trkpt lat="43.92603" lon="1.88065">
        <ele>173.8</ele>
        <time>2022-08-14T06:37:27Z</time>
      </trkpt>
      <trkpt lat="43.92604" lon="1.88064">
        <ele>174</ele>
        <time>2022-08-14T06:37:28Z</time>
      </trkpt>
      <trkpt lat="43.92603" lon="1.88062">
        <ele>174.2</ele>
        <time>2022-08-14T06:37:29Z</time>
      </trkpt>
      <trkpt lat="43.92603" lon="1.88059">
        <ele>174.2</ele>
        <time>2022-08-14T06:37:30Z</time>
      </trkpt>
      <trkpt lat="43.92603" lon="1.88058">
        <ele>174.4</ele>
        <time>2022-08-14T06:37:31Z</time>
      </trkpt>
      <trkpt lat="43.92602" lon="1.88056">
        <ele>174.6</ele>
        <time>2022-08-14T06:37:32Z</time>
      </trkpt>
      <trkpt lat="43.92601" lon="1.88055">
        <ele>174.8</ele>
        <time>2022-08-14T06:37:33Z</time>
      </trkpt>
      <trkpt lat="43.92601" lon="1.88053">
        <ele>174.8</ele>
        <time>2022-08-14T06:37:34Z</time>
      </trkpt>
      <trkpt lat="43.926" lon="1.88052">
        <ele>175</ele>
        <time>2022-08-14T06:37:35Z</time>
      </trkpt>
      <trkpt lat="43.926" lon="1.8805">
        <ele>175</ele>
        <time>2022-08-14T06:37:36Z</time>
      </trkpt>
      <trkpt lat="43.92599" lon="1.88049">
        <ele>175.2</ele>
        <time>2022-08-14T06:37:37Z</time>
      </trkpt>
      <trkpt lat="43.92598" lon="1.88047">
        <ele>175.4</ele>
        <time>2022-08-14T06:37:38Z</time>
      </trkpt>
      <trkpt lat="43.92598" lon="1.88045">
        <ele>175.4</ele>
        <time>2022-08-14T06:37:39Z</time>
      </trkpt>
      <trkpt lat="43.92597" lon="1.88043">
        <ele>175.4</ele>
        <time>2022-08-14T06:37:40Z</time>
      </trkpt>
      <trkpt lat="43.92596" lon="1.88042">
        <ele>175.6</ele>
        <time>2022-08-14T06:37:41Z</time>
      </trkpt>
      <trkpt lat="43.92595" lon="1.8804">
        <ele>176</ele>
        <time>2022-08-14T06:37:42Z</time>
      </trkpt>
      <trkpt lat="43.92595" lon="1.88039">
        <ele>176</ele>
        <time>2022-08-14T06:37:43Z</time>
      </trkpt>
      <trkpt lat="43.92594" lon="1.88037">
        <ele>176</ele>
        <time>2022-08-14T06:37:44Z</time>
      </trkpt>
      <trkpt lat="43.92594" lon="1.88036">
        <ele>176.2</ele>
        <time>2022-08-14T06:37:45Z</time>
      </trkpt>
      <trkpt lat="43.92593" lon="1.88035">
        <ele>176.4</ele>
        <time>2022-08-14T06:37:46Z</time>
      </trkpt>
      <trkpt lat="43.92592" lon="1.88034">
        <ele>176.6</ele>
        <time>2022-08-14T06:37:47Z</time>
      </trkpt>
      <trkpt lat="43.92591" lon="1.88032">
        <ele>176.8</ele>
        <time>2022-08-14T06:37:48Z</time>
      </trkpt>
      <trkpt lat="43.9259" lon="1.88031">
        <ele>177</ele>
        <time>2022-08-14T06:37:49Z</time>
      </trkpt>
      <trkpt lat="43.92589" lon="1.88029">
        <ele>177.2</ele>
        <time>2022-08-14T06:37:50Z</time>
      </trkpt>
      <trkpt lat="43.92588" lon="1.88028">
        <ele>177.4</ele>
        <time>2022-08-14T06:37:51Z</time>
      </trkpt>
      <trkpt lat="43.92587" lon="1.88026">
        <ele>177.4</ele>
        <time>2022-08-14T06:37:52Z</time>
      </trkpt>
      <trkpt lat="43.92586" lon="1.88024">
        <ele>177.6</ele>
        <time>2022-08-14T06:37:53Z</time>
      </trkpt>
      <trkpt lat="43.92586" lon="1.88023">
        <ele>177.6</ele>
        <time>2022-08-14T06:37:54Z</time>
      </trkpt>
      <trkpt lat="43.92585" lon="1.88022">
        <ele>177.8</ele>
        <time>2022-08-14T06:37:55Z</time>
      </trkpt>
      <trkpt lat="43.92584" lon="1.88021">
        <ele>177.8</ele>
        <time>2022-08-14T06:37:56Z</time>
      </trkpt>
      <trkpt lat="43.92583" lon="1.88019">
        <ele>178</ele>
        <time>2022-08-14T06:37:57Z</time>
      </trkpt>
      <trkpt lat="43.92582" lon="1.88017">
        <ele>178.2</ele>
        <time>2022-08-14T06:37:58Z</time>
      </trkpt>
      <trkpt lat="43.92582" lon="1.88016">
        <ele>178.4</ele>
        <time>2022-08-14T06:37:59Z</time>
      </trkpt>
      <trkpt lat="43.92581" lon="1.88014">
        <ele>178.4</ele>
        <time>2022-08-14T06:38:00Z</time>
      </trkpt>
      <trkpt lat="43.9258" lon="1.88013">
        <ele>178.6</ele>
        <time>2022-08-14T06:38:01Z</time>
      </trkpt>
      <trkpt lat="43.92579" lon="1.88012">
        <ele>178.8</ele>
        <time>2022-08-14T06:38:02Z</time>
      </trkpt>
      <trkpt lat="43.92578" lon="1.88011">
        <ele>179</ele>
        <time>2022-08-14T06:38:03Z</time>
      </trkpt>
      <trkpt lat="43.92577" lon="1.88009">
        <ele>179</ele>
        <time>2022-08-14T06:38:04Z</time>
      </trkpt>
      <trkpt lat="43.92576" lon="1.88007">
        <ele>179.2</ele>
        <time>2022-08-14T06:38:05Z</time>
      </trkpt>
      <trkpt lat="43.92576" lon="1.88006">
        <ele>179.2</ele>
        <time>2022-08-14T06:38:06Z</time>
      </trkpt>
      <trkpt lat="43.92575" lon="1.88005">
        <ele>179.4</ele>
        <time>2022-08-14T06:38:07Z</time>
      </trkpt>
      <trkpt lat="43.92574" lon="1.88004">
        <ele>179.6</ele>
        <time>2022-08-14T06:38:08Z</time>
      </trkpt>
      <trkpt lat="43.92573" lon="1.88002">
        <ele>179.6</ele>
        <time>2022-08-14T06:38:09Z</time>
      </trkpt>
      <trkpt lat="43.92572" lon="1.88001">
        <ele>180</ele>
        <time>2022-08-14T06:38:10Z</time>
      </trkpt>
      <trkpt lat="43.92571" lon="1.88">
        <ele>180.2</ele>
        <time>2022-08-14T06:38:11Z</time>
      </trkpt>
      <trkpt lat="43.92571" lon="1.87998">
        <ele>180.4</ele>
        <time>2022-08-14T06:38:12Z</time>
      </trkpt>
      <trkpt lat="43.9257" lon="1.87997">
        <ele>180.6</ele>
        <time>2022-08-14T06:38:13Z</time>
      </trkpt>
      <trkpt lat="43.92569" lon="1.87996">
        <ele>180.8</ele>
        <time>2022-08-14T06:38:14Z</time>
      </trkpt>
      <trkpt lat="43.92568" lon="1.87995">
        <ele>180.8</ele>
        <time>2022-08-14T06:38:15Z</time>
      </trkpt>
      <trkpt lat="43.92567" lon="1.87993">
        <ele>181.2</ele>
        <time>2022-08-14T06:38:16Z</time>
      </trkpt>
      <trkpt lat="43.92566" lon="1.87992">
        <ele>181.2</ele>
        <time>2022-08-14T06:38:17Z</time>
      </trkpt>
      <trkpt lat="43.92566" lon="1.8799">
        <ele>181.4</ele>
        <time>2022-08-14T06:38:18Z</time>
      </trkpt>
      <trkpt lat="43.92565" lon="1.87989">
        <ele>181.4</ele>
        <time>2022-08-14T06:38:19Z</time>
      </trkpt>
      <trkpt lat="43.92564" lon="1.87987">
        <ele>181.6</ele>
        <time>2022-08-14T06:38:20Z</time>
      </trkpt>
      <trkpt lat="43.92563" lon="1.87985">
        <ele>182.2</ele>
        <time>2022-08-14T06:38:21Z</time>
      </trkpt>
      <trkpt lat="43.92562" lon="1.87984">
        <ele>182.4</ele>
        <time>2022-08-14T06:38:22Z</time>
      </trkpt>
      <trkpt lat="43.92561" lon="1.87982">
        <ele>182.6</ele>
        <time>2022-08-14T06:38:23Z</time>
      </trkpt>
      <trkpt lat="43.9256" lon="1.8798">
        <ele>182.8</ele>
        <time>2022-08-14T06:38:24Z</time>
      </trkpt>
      <trkpt lat="43.92559" lon="1.87979">
        <ele>183</ele>
        <time>2022-08-14T06:38:25Z</time>
      </trkpt>
      <trkpt lat="43.92558" lon="1.87977">
        <ele>183.4</ele>
        <time>2022-08-14T06:38:26Z</time>
      </trkpt>
      <trkpt lat="43.92557" lon="1.87975">
        <ele>183.6</ele>
        <time>2022-08-14T06:38:27Z</time>
      </trkpt>
      <trkpt lat="43.92556" lon="1.87974">
        <ele>184.2</ele>
        <time>2022-08-14T06:38:28Z</time>
      </trkpt>
      <trkpt lat="43.92555" lon="1.87972">
        <ele>184.4</ele>
        <time>2022-08-14T06:38:29Z</time>
      </trkpt>
      <trkpt lat="43.92554" lon="1.87971">
        <ele>184.6</ele>
        <time>2022-08-14T06:38:30Z</time>
      </trkpt>
      <trkpt lat="43.92553" lon="1.8797">
        <ele>184.8</ele>
        <time>2022-08-14T06:38:31Z</time>
      </trkpt>
      <trkpt lat="43.92552" lon="1.87969">
        <ele>185.2</ele>
        <time>2022-08-14T06:38:32Z</time>
      </trkpt>
      <trkpt lat="43.92551" lon="1.87968">
        <ele>185.4</ele>
        <time>2022-08-14T06:38:33Z</time>
      </trkpt>
      <trkpt lat="43.9255" lon="1.87967">
        <ele>185.4</ele>
        <time>2022-08-14T06:38:34Z</time>
      </trkpt>
      <trkpt lat="43.92549" lon="1.87966">
        <ele>185.6</ele>
        <time>2022-08-14T06:38:35Z</time>
      </trkpt>
      <trkpt lat="43.92548" lon="1.87965">
        <ele>185.8</ele>
        <time>2022-08-14T06:38:36Z</time>
      </trkpt>
      <trkpt lat="43.92547" lon="1.87963">
        <ele>186</ele>
        <time>2022-08-14T06:38:37Z</time>
      </trkpt>
      <trkpt lat="43.92545" lon="1.87962">
        <ele>186.2</ele>
        <time>2022-08-14T06:38:38Z</time>
      </trkpt>
      <trkpt lat="43.92544" lon="1.87961">
        <ele>186.6</ele>
        <time>2022-08-14T06:38:39Z</time>
      </trkpt>
      <trkpt lat="43.92543" lon="1.8796">
        <ele>187</ele>
        <time>2022-08-14T06:38:40Z</time>
      </trkpt>
      <trkpt lat="43.92542" lon="1.87959">
        <ele>187.2</ele>
        <time>2022-08-14T06:38:41Z</time>
      </trkpt>
      <trkpt lat="43.92541" lon="1.87959">
        <ele>187.4</ele>
        <time>2022-08-14T06:38:42Z</time>
      </trkpt>
      <trkpt lat="43.92539" lon="1.87958">
        <ele>187.6</ele>
        <time>2022-08-14T06:38:43Z</time>
      </trkpt>
      <trkpt lat="43.92538" lon="1.87957">
        <ele>187.8</ele>
        <time>2022-08-14T06:38:44Z</time>
      </trkpt>
      <trkpt lat="43.92537" lon="1.87956">
        <ele>187.8</ele>
        <time>2022-08-14T06:38:45Z</time>
      </trkpt>
      <trkpt lat="43.92536" lon="1.87955">
        <ele>188</ele>
        <time>2022-08-14T06:38:46Z</time>
      </trkpt>
      <trkpt lat="43.92535" lon="1.87954">
        <ele>188.2</ele>
        <time>2022-08-14T06:38:47Z</time>
      </trkpt>
      <trkpt lat="43.92533" lon="1.87953">
        <ele>188.6</ele>
        <time>2022-08-14T06:38:48Z</time>
      </trkpt>
      <trkpt lat="43.92532" lon="1.87952">
        <ele>189.2</ele>
        <time>2022-08-14T06:38:49Z</time>
      </trkpt>
      <trkpt lat="43.92531" lon="1.8795">
        <ele>189.2</ele>
        <time>2022-08-14T06:38:50Z</time>
      </trkpt>
      <trkpt lat="43.9253" lon="1.87949">
        <ele>189.6</ele>
        <time>2022-08-14T06:38:51Z</time>
      </trkpt>
      <trkpt lat="43.92528" lon="1.87947">
        <ele>189.8</ele>
        <time>2022-08-14T06:38:52Z</time>
      </trkpt>
      <trkpt lat="43.92527" lon="1.87946">
        <ele>190</ele>
        <time>2022-08-14T06:38:53Z</time>
      </trkpt>
      <trkpt lat="43.92526" lon="1.87945">
        <ele>190.2</ele>
        <time>2022-08-14T06:38:54Z</time>
      </trkpt>
      <trkpt lat="43.92526" lon="1.87944">
        <ele>190.4</ele>
        <time>2022-08-14T06:38:55Z</time>
      </trkpt>
      <trkpt lat="43.92525" lon="1.87943">
        <ele>190.8</ele>
        <time>2022-08-14T06:38:56Z</time>
      </trkpt>
      <trkpt lat="43.92524" lon="1.87942">
        <ele>191</ele>
        <time>2022-08-14T06:38:57Z</time>
      </trkpt>
      <trkpt lat="43.92524" lon="1.8794">
        <ele>191</ele>
        <time>2022-08-14T06:38:58Z</time>
      </trkpt>
      <trkpt lat="43.92523" lon="1.87939">
        <ele>191.2</ele>
        <time>2022-08-14T06:38:59Z</time>
      </trkpt>
      <trkpt lat="43.92522" lon="1.87937">
        <ele>191.4</ele>
        <time>2022-08-14T06:39:00Z</time>
      </trkpt>
      <trkpt lat="43.92522" lon="1.87936">
        <ele>191.6</ele>
        <time>2022-08-14T06:39:01Z</time>
      </trkpt>
      <trkpt lat="43.92521" lon="1.87934">
        <ele>191.8</ele>
        <time>2022-08-14T06:39:02Z</time>
      </trkpt>
      <trkpt lat="43.9252" lon="1.87933">
        <ele>192</ele>
        <time>2022-08-14T06:39:03Z</time>
      </trkpt>
      <trkpt lat="43.92519" lon="1.87931">
        <ele>192</ele>
        <time>2022-08-14T06:39:04Z</time>
      </trkpt>
      <trkpt lat="43.92518" lon="1.8793">
        <ele>192.2</ele>
        <time>2022-08-14T06:39:05Z</time>
      </trkpt>
      <trkpt lat="43.92517" lon="1.87928">
        <ele>192.4</ele>
        <time>2022-08-14T06:39:06Z</time>
      </trkpt>
      <trkpt lat="43.92516" lon="1.87927">
        <ele>192.6</ele>
        <time>2022-08-14T06:39:07Z</time>
      </trkpt>
      <trkpt lat="43.92515" lon="1.87925">
        <ele>192.8</ele>
        <time>2022-08-14T06:39:08Z</time>
      </trkpt>
      <trkpt lat="43.92514" lon="1.87924">
        <ele>193</ele>
        <time>2022-08-14T06:39:09Z</time>
      </trkpt>
      <trkpt lat="43.92512" lon="1.87922">
        <ele>193.2</ele>
        <time>2022-08-14T06:39:10Z</time>
      </trkpt>
      <trkpt lat="43.92511" lon="1.87921">
        <ele>193.4</ele>
        <time>2022-08-14T06:39:11Z</time>
      </trkpt>
      <trkpt lat="43.92509" lon="1.8792">
        <ele>193.8</ele>
        <time>2022-08-14T06:39:12Z</time>
      </trkpt>
      <trkpt lat="43.92508" lon="1.87919">
        <ele>194</ele>
        <time>2022-08-14T06:39:13Z</time>
      </trkpt>
      <trkpt lat="43.92507" lon="1.87918">
        <ele>194.2</ele>
        <time>2022-08-14T06:39:14Z</time>
      </trkpt>
      <trkpt lat="43.92506" lon="1.87916">
        <ele>194.4</ele>
        <time>2022-08-14T06:39:15Z</time>
      </trkpt>
      <trkpt lat="43.92505" lon="1.87915">
        <ele>194.8</ele>
        <time>2022-08-14T06:39:16Z</time>
      </trkpt>
      <trkpt lat="43.92504" lon="1.87914">
        <ele>194.8</ele>
        <time>2022-08-14T06:39:17Z</time>
      </trkpt>
      <trkpt lat="43.92503" lon="1.87913">
        <ele>195.2</ele>
        <time>2022-08-14T06:39:18Z</time>
      </trkpt>
      <trkpt lat="43.92502" lon="1.87911">
        <ele>195.4</ele>
        <time>2022-08-14T06:39:19Z</time>
      </trkpt>
      <trkpt lat="43.92501" lon="1.8791">
        <ele>195.4</ele>
        <time>2022-08-14T06:39:20Z</time>
      </trkpt>
      <trkpt lat="43.925" lon="1.87909">
        <ele>195.6</ele>
        <time>2022-08-14T06:39:21Z</time>
      </trkpt>
      <trkpt lat="43.92498" lon="1.87907">
        <ele>195.8</ele>
        <time>2022-08-14T06:39:22Z</time>
      </trkpt>
      <trkpt lat="43.92497" lon="1.87906">
        <ele>196.2</ele>
        <time>2022-08-14T06:39:23Z</time>
      </trkpt>
      <trkpt lat="43.92496" lon="1.87904">
        <ele>196.2</ele>
        <time>2022-08-14T06:39:24Z</time>
      </trkpt>
      <trkpt lat="43.92495" lon="1.87903">
        <ele>196.4</ele>
        <time>2022-08-14T06:39:25Z</time>
      </trkpt>
      <trkpt lat="43.92494" lon="1.87902">
        <ele>196.6</ele>
        <time>2022-08-14T06:39:26Z</time>
      </trkpt>
      <trkpt lat="43.92493" lon="1.87901">
        <ele>196.8</ele>
        <time>2022-08-14T06:39:27Z</time>
      </trkpt>
      <trkpt lat="43.92492" lon="1.87899">
        <ele>197</ele>
        <time>2022-08-14T06:39:28Z</time>
      </trkpt>
      <trkpt lat="43.92491" lon="1.87898">
        <ele>197.2</ele>
        <time>2022-08-14T06:39:29Z</time>
      </trkpt>
      <trkpt lat="43.92491" lon="1.87898">
        <ele>197.4</ele>
        <time>2022-08-14T06:39:30Z</time>
      </trkpt>
      <trkpt lat="43.9249" lon="1.87896">
        <ele>197.4</ele>
        <time>2022-08-14T06:39:31Z</time>
      </trkpt>
      <trkpt lat="43.92489" lon="1.87895">
        <ele>197.6</ele>
        <time>2022-08-14T06:39:32Z</time>
      </trkpt>
      <trkpt lat="43.92488" lon="1.87893">
        <ele>197.8</ele>
        <time>2022-08-14T06:39:33Z</time>
      </trkpt>
      <trkpt lat="43.92487" lon="1.87889">
        <ele>198.8</ele>
        <time>2022-08-14T06:43:35Z</time>
      </trkpt>
      <trkpt lat="43.92487" lon="1.87887">
        <ele>198.8</ele>
        <time>2022-08-14T06:43:36Z</time>
      </trkpt>
      <trkpt lat="43.92488" lon="1.87873">
        <ele>198.8</ele>
        <time>2022-08-14T06:43:42Z</time>
      </trkpt>
      <trkpt lat="43.92489" lon="1.87871">
        <ele>198.8</ele>
        <time>2022-08-14T06:43:43Z</time>
      </trkpt>
      <trkpt lat="43.9249" lon="1.87869">
        <ele>198.8</ele>
        <time>2022-08-14T06:43:44Z</time>
      </trkpt>
      <trkpt lat="43.92497" lon="1.87853">
        <ele>199</ele>
        <time>2022-08-14T06:43:52Z</time>
      </trkpt>
      <trkpt lat="43.92499" lon="1.87849">
        <ele>199</ele>
        <time>2022-08-14T06:43:54Z</time>
      </trkpt>
      <trkpt lat="43.92502" lon="1.87843">
        <ele>199.4</ele>
        <time>2022-08-14T06:43:57Z</time>
      </trkpt>
      <trkpt lat="43.92503" lon="1.87841">
        <ele>199.4</ele>
        <time>2022-08-14T06:43:58Z</time>
      </trkpt>
      <trkpt lat="43.92504" lon="1.87839">
        <ele>199.6</ele>
        <time>2022-08-14T06:43:59Z</time>
      </trkpt>
      <trkpt lat="43.92506" lon="1.87836">
        <ele>199.8</ele>
        <time>2022-08-14T06:44:01Z</time>
      </trkpt>
      <trkpt lat="43.92507" lon="1.87834">
        <ele>200</ele>
        <time>2022-08-14T06:44:02Z</time>
      </trkpt>
      <trkpt lat="43.92513" lon="1.87821">
        <ele>200.8</ele>
        <time>2022-08-14T06:44:08Z</time>
      </trkpt>
      <trkpt lat="43.92514" lon="1.87819">
        <ele>201</ele>
        <time>2022-08-14T06:44:09Z</time>
      </trkpt>
      <trkpt lat="43.92515" lon="1.87817">
        <ele>201.2</ele>
        <time>2022-08-14T06:44:10Z</time>
      </trkpt>
      <trkpt lat="43.92516" lon="1.87815">
        <ele>201.2</ele>
        <time>2022-08-14T06:44:11Z</time>
      </trkpt>
      <trkpt lat="43.92517" lon="1.87813">
        <ele>201.4</ele>
        <time>2022-08-14T06:44:12Z</time>
      </trkpt>
      <trkpt lat="43.92518" lon="1.87811">
        <ele>201.4</ele>
        <time>2022-08-14T06:44:13Z</time>
      </trkpt>
      <trkpt lat="43.92519" lon="1.87809">
        <ele>201.6</ele>
        <time>2022-08-14T06:44:14Z</time>
      </trkpt>
      <trkpt lat="43.92522" lon="1.87806">
        <ele>201.8</ele>
        <time>2022-08-14T06:44:16Z</time>
      </trkpt>
      <trkpt lat="43.92524" lon="1.87802">
        <ele>202.2</ele>
        <time>2022-08-14T06:44:18Z</time>
      </trkpt>
      <trkpt lat="43.92525" lon="1.878">
        <ele>202.2</ele>
        <time>2022-08-14T06:44:19Z</time>
      </trkpt>
      <trkpt lat="43.92526" lon="1.87799">
        <ele>202.6</ele>
        <time>2022-08-14T06:44:20Z</time>
      </trkpt>
      <trkpt lat="43.92527" lon="1.87797">
        <ele>202.6</ele>
        <time>2022-08-14T06:44:21Z</time>
      </trkpt>
      <trkpt lat="43.92528" lon="1.87795">
        <ele>203</ele>
        <time>2022-08-14T06:44:22Z</time>
      </trkpt>
      <trkpt lat="43.92529" lon="1.87793">
        <ele>203.4</ele>
        <time>2022-08-14T06:44:23Z</time>
      </trkpt>
      <trkpt lat="43.9253" lon="1.87791">
        <ele>203.6</ele>
        <time>2022-08-14T06:44:24Z</time>
      </trkpt>
      <trkpt lat="43.92531" lon="1.8779">
        <ele>203.8</ele>
        <time>2022-08-14T06:44:25Z</time>
      </trkpt>
      <trkpt lat="43.92532" lon="1.87788">
        <ele>204</ele>
        <time>2022-08-14T06:44:26Z</time>
      </trkpt>
      <trkpt lat="43.92533" lon="1.87786">
        <ele>204</ele>
        <time>2022-08-14T06:44:27Z</time>
      </trkpt>
      <trkpt lat="43.92533" lon="1.87784">
        <ele>204.2</ele>
        <time>2022-08-14T06:44:28Z</time>
      </trkpt>
      <trkpt lat="43.92534" lon="1.87782">
        <ele>204.4</ele>
        <time>2022-08-14T06:44:29Z</time>
      </trkpt>
      <trkpt lat="43.92535" lon="1.87781">
        <ele>204.6</ele>
        <time>2022-08-14T06:44:30Z</time>
      </trkpt>
      <trkpt lat="43.92536" lon="1.87779">
        <ele>204.8</ele>
        <time>2022-08-14T06:44:31Z</time>
      </trkpt>
      <trkpt lat="43.92537" lon="1.87778">
        <ele>205</ele>
        <time>2022-08-14T06:44:32Z</time>
      </trkpt>
      <trkpt lat="43.92538" lon="1.87776">
        <ele>205</ele>
        <time>2022-08-14T06:44:33Z</time>
      </trkpt>
      <trkpt lat="43.92539" lon="1.87774">
        <ele>205.2</ele>
        <time>2022-08-14T06:44:34Z</time>
      </trkpt>
      <trkpt lat="43.9254" lon="1.87772">
        <ele>205.4</ele>
        <time>2022-08-14T06:44:35Z</time>
      </trkpt>
      <trkpt lat="43.92541" lon="1.8777">
        <ele>205.6</ele>
        <time>2022-08-14T06:44:36Z</time>
      </trkpt>
      <trkpt lat="43.92542" lon="1.87768">
        <ele>205.8</ele>
        <time>2022-08-14T06:44:37Z</time>
      </trkpt>
      <trkpt lat="43.92543" lon="1.87766">
        <ele>206.2</ele>
        <time>2022-08-14T06:44:38Z</time>
      </trkpt>
      <trkpt lat="43.92544" lon="1.87764">
        <ele>206.6</ele>
        <time>2022-08-14T06:44:39Z</time>
      </trkpt>
      <trkpt lat="43.92545" lon="1.87762">
        <ele>206.8</ele>
        <time>2022-08-14T06:44:40Z</time>
      </trkpt>
      <trkpt lat="43.92546" lon="1.8776">
        <ele>207.2</ele>
        <time>2022-08-14T06:44:41Z</time>
      </trkpt>
      <trkpt lat="43.92547" lon="1.87759">
        <ele>207.4</ele>
        <time>2022-08-14T06:44:42Z</time>
      </trkpt>
      <trkpt lat="43.92548" lon="1.87757">
        <ele>207.6</ele>
        <time>2022-08-14T06:44:43Z</time>
      </trkpt>
      <trkpt lat="43.92549" lon="1.87755">
        <ele>207.8</ele>
        <time>2022-08-14T06:44:44Z</time>
      </trkpt>
      <trkpt lat="43.9255" lon="1.87754">
        <ele>208</ele>
        <time>2022-08-14T06:44:45Z</time>
      </trkpt>
      <trkpt lat="43.92552" lon="1.87752">
        <ele>208.4</ele>
        <time>2022-08-14T06:44:46Z</time>
      </trkpt>
      <trkpt lat="43.92553" lon="1.87751">
        <ele>208.4</ele>
        <time>2022-08-14T06:44:47Z</time>
      </trkpt>
      <trkpt lat="43.92554" lon="1.87749">
        <ele>208.6</ele>
        <time>2022-08-14T06:44:48Z</time>
      </trkpt>
      <trkpt lat="43.92556" lon="1.87747">
        <ele>208.8</ele>
        <time>2022-08-14T06:44:49Z</time>
      </trkpt>
      <trkpt lat="43.92557" lon="1.87746">
        <ele>209</ele>
        <time>2022-08-14T06:44:50Z</time>
      </trkpt>
      <trkpt lat="43.92559" lon="1.87745">
        <ele>209</ele>
        <time>2022-08-14T06:44:51Z</time>
      </trkpt>
      <trkpt lat="43.92561" lon="1.87744">
        <ele>209.2</ele>
        <time>2022-08-14T06:44:52Z</time>
      </trkpt>
      <trkpt lat="43.92563" lon="1.87743">
        <ele>209.6</ele>
        <time>2022-08-14T06:44:53Z</time>
      </trkpt>
      <trkpt lat="43.92565" lon="1.87742">
        <ele>209.6</ele>
        <time>2022-08-14T06:44:54Z</time>
      </trkpt>
      <trkpt lat="43.92566" lon="1.87741">
        <ele>210</ele>
        <time>2022-08-14T06:44:55Z</time>
      </trkpt>
      <trkpt lat="43.92568" lon="1.8774">
        <ele>210</ele>
        <time>2022-08-14T06:44:56Z</time>
      </trkpt>
      <trkpt lat="43.9257" lon="1.87738">
        <ele>210.4</ele>
        <time>2022-08-14T06:44:57Z</time>
      </trkpt>
      <trkpt lat="43.92572" lon="1.87737">
        <ele>210.4</ele>
        <time>2022-08-14T06:44:58Z</time>
      </trkpt>
      <trkpt lat="43.92574" lon="1.87736">
        <ele>210.6</ele>
        <time>2022-08-14T06:44:59Z</time>
      </trkpt>
      <trkpt lat="43.92576" lon="1.87735">
        <ele>210.6</ele>
        <time>2022-08-14T06:45:00Z</time>
      </trkpt>
      <trkpt lat="43.92578" lon="1.87734">
        <ele>210.8</ele>
        <time>2022-08-14T06:45:01Z</time>
      </trkpt>
      <trkpt lat="43.9258" lon="1.87733">
        <ele>210.8</ele>
        <time>2022-08-14T06:45:02Z</time>
      </trkpt>
      <trkpt lat="43.92583" lon="1.87731">
        <ele>211</ele>
        <time>2022-08-14T06:45:03Z</time>
      </trkpt>
      <trkpt lat="43.92585" lon="1.8773">
        <ele>211</ele>
        <time>2022-08-14T06:45:04Z</time>
      </trkpt>
      <trkpt lat="43.92587" lon="1.87729">
        <ele>211.2</ele>
        <time>2022-08-14T06:45:05Z</time>
      </trkpt>
      <trkpt lat="43.92589" lon="1.87728">
        <ele>211.2</ele>
        <time>2022-08-14T06:45:06Z</time>
      </trkpt>
      <trkpt lat="43.92591" lon="1.87727">
        <ele>211.2</ele>
        <time>2022-08-14T06:45:07Z</time>
      </trkpt>
      <trkpt lat="43.92594" lon="1.87727">
        <ele>211.2</ele>
        <time>2022-08-14T06:45:08Z</time>
      </trkpt>
      <trkpt lat="43.92596" lon="1.87726">
        <ele>211.4</ele>
        <time>2022-08-14T06:45:09Z</time>
      </trkpt>
      <trkpt lat="43.92598" lon="1.87725">
        <ele>211.4</ele>
        <time>2022-08-14T06:45:10Z</time>
      </trkpt>
      <trkpt lat="43.926" lon="1.87724">
        <ele>211.4</ele>
        <time>2022-08-14T06:45:11Z</time>
      </trkpt>
      <trkpt lat="43.92603" lon="1.87723">
        <ele>211.4</ele>
        <time>2022-08-14T06:45:12Z</time>
      </trkpt>
      <trkpt lat="43.92605" lon="1.87722">
        <ele>211.6</ele>
        <time>2022-08-14T06:45:13Z</time>
      </trkpt>
      <trkpt lat="43.92607" lon="1.87721">
        <ele>211.6</ele>
        <time>2022-08-14T06:45:14Z</time>
      </trkpt>
      <trkpt lat="43.92609" lon="1.87719">
        <ele>211.6</ele>
        <time>2022-08-14T06:45:15Z</time>
      </trkpt>
      <trkpt lat="43.92612" lon="1.87718">
        <ele>211.6</ele>
        <time>2022-08-14T06:45:16Z</time>
      </trkpt>
      <trkpt lat="43.92614" lon="1.87716">
        <ele>211.6</ele>
        <time>2022-08-14T06:45:17Z</time>
      </trkpt>
      <trkpt lat="43.92616" lon="1.87714">
        <ele>211.6</ele>
        <time>2022-08-14T06:45:18Z</time>
      </trkpt>
      <trkpt lat="43.92618" lon="1.87712">
        <ele>211.6</ele>
        <time>2022-08-14T06:45:19Z</time>
      </trkpt>
      <trkpt lat="43.92621" lon="1.87711">
        <ele>211.6</ele>
        <time>2022-08-14T06:45:20Z</time>
      </trkpt>
      <trkpt lat="43.92623" lon="1.87709">
        <ele>211.6</ele>
        <time>2022-08-14T06:45:21Z</time>
      </trkpt>
      <trkpt lat="43.92625" lon="1.87707">
        <ele>211.8</ele>
        <time>2022-08-14T06:45:22Z</time>
      </trkpt>
      <trkpt lat="43.92627" lon="1.87705">
        <ele>211.8</ele>
        <time>2022-08-14T06:45:23Z</time>
      </trkpt>
      <trkpt lat="43.92629" lon="1.87703">
        <ele>211.8</ele>
        <time>2022-08-14T06:45:24Z</time>
      </trkpt>
      <trkpt lat="43.92637" lon="1.87689">
        <ele>212.2</ele>
        <time>2022-08-14T06:45:29Z</time>
      </trkpt>
      <trkpt lat="43.9264" lon="1.87683">
        <ele>212.4</ele>
        <time>2022-08-14T06:45:31Z</time>
      </trkpt>
      <trkpt lat="43.92646" lon="1.87671">
        <ele>213</ele>
        <time>2022-08-14T06:45:35Z</time>
      </trkpt>
      <trkpt lat="43.92647" lon="1.87668">
        <ele>213.6</ele>
        <time>2022-08-14T06:45:36Z</time>
      </trkpt>
      <trkpt lat="43.92649" lon="1.87662">
        <ele>214</ele>
        <time>2022-08-14T06:45:38Z</time>
      </trkpt>
      <trkpt lat="43.92652" lon="1.87651">
        <ele>214.6</ele>
        <time>2022-08-14T06:45:41Z</time>
      </trkpt>
      <trkpt lat="43.92653" lon="1.87647">
        <ele>215</ele>
        <time>2022-08-14T06:45:42Z</time>
      </trkpt>
      <trkpt lat="43.92655" lon="1.87645">
        <ele>215.4</ele>
        <time>2022-08-14T06:45:43Z</time>
      </trkpt>
      <trkpt lat="43.92656" lon="1.87642">
        <ele>215.4</ele>
        <time>2022-08-14T06:45:44Z</time>
      </trkpt>
      <trkpt lat="43.92657" lon="1.87639">
        <ele>215.8</ele>
        <time>2022-08-14T06:45:45Z</time>
      </trkpt>
      <trkpt lat="43.92659" lon="1.87637">
        <ele>215.8</ele>
        <time>2022-08-14T06:45:46Z</time>
      </trkpt>
      <trkpt lat="43.9266" lon="1.87634">
        <ele>216.2</ele>
        <time>2022-08-14T06:45:47Z</time>
      </trkpt>
      <trkpt lat="43.92662" lon="1.87632">
        <ele>216.2</ele>
        <time>2022-08-14T06:45:48Z</time>
      </trkpt>
      <trkpt lat="43.92663" lon="1.8763">
        <ele>216.4</ele>
        <time>2022-08-14T06:45:49Z</time>
      </trkpt>
      <trkpt lat="43.92664" lon="1.87628">
        <ele>216.8</ele>
        <time>2022-08-14T06:45:50Z</time>
      </trkpt>
      <trkpt lat="43.92666" lon="1.87625">
        <ele>216.8</ele>
        <time>2022-08-14T06:45:51Z</time>
      </trkpt>
      <trkpt lat="43.92667" lon="1.87622">
        <ele>217</ele>
        <time>2022-08-14T06:45:52Z</time>
      </trkpt>
      <trkpt lat="43.92669" lon="1.8762">
        <ele>217.2</ele>
        <time>2022-08-14T06:45:53Z</time>
      </trkpt>
      <trkpt lat="43.9267" lon="1.87618">
        <ele>217.4</ele>
        <time>2022-08-14T06:45:54Z</time>
      </trkpt>
      <trkpt lat="43.92672" lon="1.87615">
        <ele>217.4</ele>
        <time>2022-08-14T06:45:55Z</time>
      </trkpt>
      <trkpt lat="43.92673" lon="1.87613">
        <ele>217.6</ele>
        <time>2022-08-14T06:45:56Z</time>
      </trkpt>
      <trkpt lat="43.92674" lon="1.8761">
        <ele>217.8</ele>
        <time>2022-08-14T06:45:57Z</time>
      </trkpt>
      <trkpt lat="43.92676" lon="1.87608">
        <ele>218</ele>
        <time>2022-08-14T06:45:58Z</time>
      </trkpt>
      <trkpt lat="43.92677" lon="1.87605">
        <ele>218</ele>
        <time>2022-08-14T06:45:59Z</time>
      </trkpt>
      <trkpt lat="43.92679" lon="1.87603">
        <ele>218</ele>
        <time>2022-08-14T06:46:00Z</time>
      </trkpt>
      <trkpt lat="43.92681" lon="1.87601">
        <ele>218.2</ele>
        <time>2022-08-14T06:46:01Z</time>
      </trkpt>
      <trkpt lat="43.92683" lon="1.87598">
        <ele>218.2</ele>
        <time>2022-08-14T06:46:02Z</time>
      </trkpt>
      <trkpt lat="43.92684" lon="1.87596">
        <ele>218.4</ele>
        <time>2022-08-14T06:46:03Z</time>
      </trkpt>
      <trkpt lat="43.92686" lon="1.87594">
        <ele>218.6</ele>
        <time>2022-08-14T06:46:04Z</time>
      </trkpt>
      <trkpt lat="43.92687" lon="1.87592">
        <ele>218.6</ele>
        <time>2022-08-14T06:46:05Z</time>
      </trkpt>
      <trkpt lat="43.92689" lon="1.8759">
        <ele>218.6</ele>
        <time>2022-08-14T06:46:06Z</time>
      </trkpt>
      <trkpt lat="43.92691" lon="1.87588">
        <ele>218.8</ele>
        <time>2022-08-14T06:46:07Z</time>
      </trkpt>
      <trkpt lat="43.92692" lon="1.87585">
        <ele>219</ele>
        <time>2022-08-14T06:46:08Z</time>
      </trkpt>
      <trkpt lat="43.92694" lon="1.87583">
        <ele>219</ele>
        <time>2022-08-14T06:46:09Z</time>
      </trkpt>
      <trkpt lat="43.92695" lon="1.87581">
        <ele>219.2</ele>
        <time>2022-08-14T06:46:10Z</time>
      </trkpt>
      <trkpt lat="43.92697" lon="1.87579">
        <ele>219.2</ele>
        <time>2022-08-14T06:46:11Z</time>
      </trkpt>
      <trkpt lat="43.92699" lon="1.87576">
        <ele>219.4</ele>
        <time>2022-08-14T06:46:12Z</time>
      </trkpt>
      <trkpt lat="43.92701" lon="1.87573">
        <ele>219.4</ele>
        <time>2022-08-14T06:46:13Z</time>
      </trkpt>
      <trkpt lat="43.92703" lon="1.87569">
        <ele>219.6</ele>
        <time>2022-08-14T06:46:14Z</time>
      </trkpt>
      <trkpt lat="43.92706" lon="1.87566">
        <ele>219.6</ele>
        <time>2022-08-14T06:46:15Z</time>
      </trkpt>
      <trkpt lat="43.92708" lon="1.87564">
        <ele>219.8</ele>
        <time>2022-08-14T06:46:16Z</time>
      </trkpt>
      <trkpt lat="43.9271" lon="1.87561">
        <ele>219.8</ele>
        <time>2022-08-14T06:46:17Z</time>
      </trkpt>
      <trkpt lat="43.92712" lon="1.87559">
        <ele>220</ele>
        <time>2022-08-14T06:46:18Z</time>
      </trkpt>
      <trkpt lat="43.92714" lon="1.87556">
        <ele>220</ele>
        <time>2022-08-14T06:46:19Z</time>
      </trkpt>
      <trkpt lat="43.92716" lon="1.87554">
        <ele>220.2</ele>
        <time>2022-08-14T06:46:20Z</time>
      </trkpt>
      <trkpt lat="43.92718" lon="1.87552">
        <ele>220.2</ele>
        <time>2022-08-14T06:46:21Z</time>
      </trkpt>
      <trkpt lat="43.9272" lon="1.87548">
        <ele>220.2</ele>
        <time>2022-08-14T06:46:22Z</time>
      </trkpt>
      <trkpt lat="43.92723" lon="1.87544">
        <ele>220.2</ele>
        <time>2022-08-14T06:46:23Z</time>
      </trkpt>
      <trkpt lat="43.92725" lon="1.87541">
        <ele>220.2</ele>
        <time>2022-08-14T06:46:24Z</time>
      </trkpt>
      <trkpt lat="43.92727" lon="1.87537">
        <ele>220.2</ele>
        <time>2022-08-14T06:46:25Z</time>
      </trkpt>
      <trkpt lat="43.9273" lon="1.87533">
        <ele>220.2</ele>
        <time>2022-08-14T06:46:26Z</time>
      </trkpt>
      <trkpt lat="43.92732" lon="1.87529">
        <ele>220.2</ele>
        <time>2022-08-14T06:46:27Z</time>
      </trkpt>
      <trkpt lat="43.92733" lon="1.87523">
        <ele>220.2</ele>
        <time>2022-08-14T06:46:28Z</time>
      </trkpt>
      <trkpt lat="43.92736" lon="1.87517">
        <ele>220</ele>
        <time>2022-08-14T06:46:29Z</time>
      </trkpt>
      <trkpt lat="43.92743" lon="1.87503">
        <ele>219.4</ele>
        <time>2022-08-14T06:46:31Z</time>
      </trkpt>
      <trkpt lat="43.92749" lon="1.87491">
        <ele>218.8</ele>
        <time>2022-08-14T06:46:33Z</time>
      </trkpt>
      <trkpt lat="43.92752" lon="1.87487">
        <ele>218.6</ele>
        <time>2022-08-14T06:46:34Z</time>
      </trkpt>
      <trkpt lat="43.92756" lon="1.87482">
        <ele>218.6</ele>
        <time>2022-08-14T06:46:35Z</time>
      </trkpt>
      <trkpt lat="43.92759" lon="1.87476">
        <ele>218.4</ele>
        <time>2022-08-14T06:46:36Z</time>
      </trkpt>
      <trkpt lat="43.92762" lon="1.8747">
        <ele>218.4</ele>
        <time>2022-08-14T06:46:37Z</time>
      </trkpt>
      <trkpt lat="43.92765" lon="1.87464">
        <ele>218.2</ele>
        <time>2022-08-14T06:46:38Z</time>
      </trkpt>
      <trkpt lat="43.92766" lon="1.8746">
        <ele>218</ele>
        <time>2022-08-14T06:46:39Z</time>
      </trkpt>
      <trkpt lat="43.92769" lon="1.87455">
        <ele>217.8</ele>
        <time>2022-08-14T06:46:40Z</time>
      </trkpt>
      <trkpt lat="43.92772" lon="1.87451">
        <ele>217.6</ele>
        <time>2022-08-14T06:46:41Z</time>
      </trkpt>
      <trkpt lat="43.92774" lon="1.87447">
        <ele>217.4</ele>
        <time>2022-08-14T06:46:42Z</time>
      </trkpt>
      <trkpt lat="43.92777" lon="1.87443">
        <ele>217.4</ele>
        <time>2022-08-14T06:46:43Z</time>
      </trkpt>
      <trkpt lat="43.92787" lon="1.87424">
        <ele>217</ele>
        <time>2022-08-14T06:46:47Z</time>
      </trkpt>
      <trkpt lat="43.92793" lon="1.87415">
        <ele>216.6</ele>
        <time>2022-08-14T06:46:49Z</time>
      </trkpt>
      <trkpt lat="43.92814" lon="1.87385">
        <ele>215.6</ele>
        <time>2022-08-14T06:46:55Z</time>
      </trkpt>
      <trkpt lat="43.92818" lon="1.87381">
        <ele>215.2</ele>
        <time>2022-08-14T06:46:56Z</time>
      </trkpt>
      <trkpt lat="43.92825" lon="1.87373">
        <ele>214.4</ele>
        <time>2022-08-14T06:46:58Z</time>
      </trkpt>
      <trkpt lat="43.92828" lon="1.87368">
        <ele>213.8</ele>
        <time>2022-08-14T06:46:59Z</time>
      </trkpt>
      <trkpt lat="43.92835" lon="1.87356">
        <ele>213.2</ele>
        <time>2022-08-14T06:47:01Z</time>
      </trkpt>
      <trkpt lat="43.92839" lon="1.87351">
        <ele>213</ele>
        <time>2022-08-14T06:47:02Z</time>
      </trkpt>
      <trkpt lat="43.92848" lon="1.87341">
        <ele>212.6</ele>
        <time>2022-08-14T06:47:04Z</time>
      </trkpt>
      <trkpt lat="43.92852" lon="1.87337">
        <ele>211.8</ele>
        <time>2022-08-14T06:47:05Z</time>
      </trkpt>
      <trkpt lat="43.92856" lon="1.87334">
        <ele>211.2</ele>
        <time>2022-08-14T06:47:06Z</time>
      </trkpt>
      <trkpt lat="43.9286" lon="1.8733">
        <ele>211</ele>
        <time>2022-08-14T06:47:07Z</time>
      </trkpt>
      <trkpt lat="43.92863" lon="1.87326">
        <ele>210.8</ele>
        <time>2022-08-14T06:47:08Z</time>
      </trkpt>
      <trkpt lat="43.92867" lon="1.87322">
        <ele>210.6</ele>
        <time>2022-08-14T06:47:09Z</time>
      </trkpt>
      <trkpt lat="43.9287" lon="1.87319">
        <ele>210.6</ele>
        <time>2022-08-14T06:47:10Z</time>
      </trkpt>
      <trkpt lat="43.92873" lon="1.87315">
        <ele>210.4</ele>
        <time>2022-08-14T06:47:11Z</time>
      </trkpt>
      <trkpt lat="43.92876" lon="1.87311">
        <ele>210.4</ele>
        <time>2022-08-14T06:47:12Z</time>
      </trkpt>
      <trkpt lat="43.92879" lon="1.87306">
        <ele>210.4</ele>
        <time>2022-08-14T06:47:13Z</time>
      </trkpt>
      <trkpt lat="43.92881" lon="1.87302">
        <ele>210.4</ele>
        <time>2022-08-14T06:47:14Z</time>
      </trkpt>
      <trkpt lat="43.92883" lon="1.87298">
        <ele>210.4</ele>
        <time>2022-08-14T06:47:15Z</time>
      </trkpt>
      <trkpt lat="43.92885" lon="1.87294">
        <ele>210.4</ele>
        <time>2022-08-14T06:47:16Z</time>
      </trkpt>
      <trkpt lat="43.92887" lon="1.8729">
        <ele>210.4</ele>
        <time>2022-08-14T06:47:17Z</time>
      </trkpt>
      <trkpt lat="43.9289" lon="1.87285">
        <ele>210.4</ele>
        <time>2022-08-14T06:47:18Z</time>
      </trkpt>
      <trkpt lat="43.92892" lon="1.8728">
        <ele>210.4</ele>
        <time>2022-08-14T06:47:19Z</time>
      </trkpt>
      <trkpt lat="43.92893" lon="1.87276">
        <ele>210.4</ele>
        <time>2022-08-14T06:47:20Z</time>
      </trkpt>
      <trkpt lat="43.92898" lon="1.87263">
        <ele>210.4</ele>
        <time>2022-08-14T06:47:23Z</time>
      </trkpt>
      <trkpt lat="43.929" lon="1.87259">
        <ele>210.4</ele>
        <time>2022-08-14T06:47:24Z</time>
      </trkpt>
      <trkpt lat="43.92902" lon="1.87255">
        <ele>210.4</ele>
        <time>2022-08-14T06:47:25Z</time>
      </trkpt>
      <trkpt lat="43.92906" lon="1.87246">
        <ele>210.6</ele>
        <time>2022-08-14T06:47:27Z</time>
      </trkpt>
      <trkpt lat="43.92909" lon="1.87239">
        <ele>210.8</ele>
        <time>2022-08-14T06:47:29Z</time>
      </trkpt>
      <trkpt lat="43.92911" lon="1.87235">
        <ele>210.8</ele>
        <time>2022-08-14T06:47:30Z</time>
      </trkpt>
      <trkpt lat="43.92915" lon="1.87228">
        <ele>211</ele>
        <time>2022-08-14T06:47:32Z</time>
      </trkpt>
      <trkpt lat="43.92917" lon="1.87224">
        <ele>211</ele>
        <time>2022-08-14T06:47:33Z</time>
      </trkpt>
      <trkpt lat="43.92918" lon="1.87221">
        <ele>211</ele>
        <time>2022-08-14T06:47:34Z</time>
      </trkpt>
      <trkpt lat="43.9292" lon="1.87217">
        <ele>211.2</ele>
        <time>2022-08-14T06:47:35Z</time>
      </trkpt>
      <trkpt lat="43.92921" lon="1.87214">
        <ele>211.2</ele>
        <time>2022-08-14T06:47:36Z</time>
      </trkpt>
      <trkpt lat="43.92922" lon="1.87211">
        <ele>211.4</ele>
        <time>2022-08-14T06:47:37Z</time>
      </trkpt>
      <trkpt lat="43.92924" lon="1.87209">
        <ele>211.6</ele>
        <time>2022-08-14T06:47:38Z</time>
      </trkpt>
      <trkpt lat="43.92925" lon="1.87207">
        <ele>211.6</ele>
        <time>2022-08-14T06:47:39Z</time>
      </trkpt>
      <trkpt lat="43.92926" lon="1.87204">
        <ele>211.8</ele>
        <time>2022-08-14T06:47:40Z</time>
      </trkpt>
      <trkpt lat="43.92929" lon="1.87199">
        <ele>212</ele>
        <time>2022-08-14T06:47:42Z</time>
      </trkpt>
      <trkpt lat="43.92937" lon="1.87177">
        <ele>212.8</ele>
        <time>2022-08-14T06:47:49Z</time>
      </trkpt>
      <trkpt lat="43.92938" lon="1.87171">
        <ele>213.2</ele>
        <time>2022-08-14T06:47:51Z</time>
      </trkpt>
      <trkpt lat="43.92939" lon="1.87168">
        <ele>213.2</ele>
        <time>2022-08-14T06:47:52Z</time>
      </trkpt>
      <trkpt lat="43.9294" lon="1.87165">
        <ele>213.4</ele>
        <time>2022-08-14T06:47:53Z</time>
      </trkpt>
      <trkpt lat="43.92941" lon="1.87162">
        <ele>213.4</ele>
        <time>2022-08-14T06:47:54Z</time>
      </trkpt>
      <trkpt lat="43.92941" lon="1.8716">
        <ele>213.6</ele>
        <time>2022-08-14T06:47:55Z</time>
      </trkpt>
      <trkpt lat="43.92942" lon="1.87158">
        <ele>213.8</ele>
        <time>2022-08-14T06:47:56Z</time>
      </trkpt>
      <trkpt lat="43.92942" lon="1.87156">
        <ele>213.8</ele>
        <time>2022-08-14T06:47:57Z</time>
      </trkpt>
      <trkpt lat="43.92943" lon="1.87154">
        <ele>214</ele>
        <time>2022-08-14T06:47:58Z</time>
      </trkpt>
      <trkpt lat="43.92945" lon="1.87153">
        <ele>214.2</ele>
        <time>2022-08-14T06:47:59Z</time>
      </trkpt>
      <trkpt lat="43.92946" lon="1.87151">
        <ele>214.6</ele>
        <time>2022-08-14T06:48:00Z</time>
      </trkpt>
      <trkpt lat="43.92946" lon="1.87149">
        <ele>214.8</ele>
        <time>2022-08-14T06:48:01Z</time>
      </trkpt>
      <trkpt lat="43.92947" lon="1.87147">
        <ele>214.8</ele>
        <time>2022-08-14T06:48:02Z</time>
      </trkpt>
      <trkpt lat="43.92947" lon="1.87146">
        <ele>214.8</ele>
        <time>2022-08-14T06:48:03Z</time>
      </trkpt>
      <trkpt lat="43.92947" lon="1.87144">
        <ele>215</ele>
        <time>2022-08-14T06:48:04Z</time>
      </trkpt>
      <trkpt lat="43.92948" lon="1.87142">
        <ele>215</ele>
        <time>2022-08-14T06:48:05Z</time>
      </trkpt>
      <trkpt lat="43.92948" lon="1.8714">
        <ele>215.2</ele>
        <time>2022-08-14T06:48:06Z</time>
      </trkpt>
      <trkpt lat="43.92948" lon="1.87138">
        <ele>215.4</ele>
        <time>2022-08-14T06:48:07Z</time>
      </trkpt>
      <trkpt lat="43.92947" lon="1.87136">
        <ele>215.4</ele>
        <time>2022-08-14T06:48:08Z</time>
      </trkpt>
      <trkpt lat="43.92946" lon="1.87135">
        <ele>215.6</ele>
        <time>2022-08-14T06:48:09Z</time>
      </trkpt>
      <trkpt lat="43.92944" lon="1.87133">
        <ele>215.6</ele>
        <time>2022-08-14T06:48:10Z</time>
      </trkpt>
      <trkpt lat="43.92943" lon="1.87133">
        <ele>215.6</ele>
        <time>2022-08-14T06:48:11Z</time>
      </trkpt>
      <trkpt lat="43.92941" lon="1.87132">
        <ele>215.6</ele>
        <time>2022-08-14T06:48:12Z</time>
      </trkpt>
      <trkpt lat="43.9294" lon="1.87131">
        <ele>215.8</ele>
        <time>2022-08-14T06:48:13Z</time>
      </trkpt>
      <trkpt lat="43.92939" lon="1.87129">
        <ele>216</ele>
        <time>2022-08-14T06:48:14Z</time>
      </trkpt>
      <trkpt lat="43.92938" lon="1.87127">
        <ele>216</ele>
        <time>2022-08-14T06:48:15Z</time>
      </trkpt>
      <trkpt lat="43.92937" lon="1.87124">
        <ele>216.2</ele>
        <time>2022-08-14T06:48:16Z</time>
      </trkpt>
      <trkpt lat="43.92937" lon="1.87121">
        <ele>216.4</ele>
        <time>2022-08-14T06:48:17Z</time>
      </trkpt>
      <trkpt lat="43.92936" lon="1.87119">
        <ele>216.6</ele>
        <time>2022-08-14T06:48:18Z</time>
      </trkpt>
      <trkpt lat="43.92936" lon="1.87117">
        <ele>216.8</ele>
        <time>2022-08-14T06:48:19Z</time>
      </trkpt>
      <trkpt lat="43.92936" lon="1.87114">
        <ele>217</ele>
        <time>2022-08-14T06:48:20Z</time>
      </trkpt>
      <trkpt lat="43.92936" lon="1.87111">
        <ele>217.2</ele>
        <time>2022-08-14T06:48:21Z</time>
      </trkpt>
      <trkpt lat="43.92935" lon="1.87108">
        <ele>217.4</ele>
        <time>2022-08-14T06:48:22Z</time>
      </trkpt>
      <trkpt lat="43.92934" lon="1.87106">
        <ele>217.6</ele>
        <time>2022-08-14T06:48:23Z</time>
      </trkpt>
      <trkpt lat="43.92933" lon="1.87103">
        <ele>218</ele>
        <time>2022-08-14T06:48:24Z</time>
      </trkpt>
      <trkpt lat="43.92932" lon="1.871">
        <ele>218</ele>
        <time>2022-08-14T06:48:25Z</time>
      </trkpt>
      <trkpt lat="43.92931" lon="1.87097">
        <ele>218.2</ele>
        <time>2022-08-14T06:48:26Z</time>
      </trkpt>
      <trkpt lat="43.92931" lon="1.87094">
        <ele>218.4</ele>
        <time>2022-08-14T06:48:27Z</time>
      </trkpt>
      <trkpt lat="43.9293" lon="1.87092">
        <ele>218.6</ele>
        <time>2022-08-14T06:48:28Z</time>
      </trkpt>
      <trkpt lat="43.92929" lon="1.87089">
        <ele>218.6</ele>
        <time>2022-08-14T06:48:29Z</time>
      </trkpt>
      <trkpt lat="43.92929" lon="1.87087">
        <ele>219</ele>
        <time>2022-08-14T06:48:30Z</time>
      </trkpt>
      <trkpt lat="43.92928" lon="1.87084">
        <ele>219.2</ele>
        <time>2022-08-14T06:48:31Z</time>
      </trkpt>
      <trkpt lat="43.92927" lon="1.87082">
        <ele>219.6</ele>
        <time>2022-08-14T06:48:32Z</time>
      </trkpt>
      <trkpt lat="43.92925" lon="1.87079">
        <ele>220.2</ele>
        <time>2022-08-14T06:48:33Z</time>
      </trkpt>
      <trkpt lat="43.92924" lon="1.87076">
        <ele>220.4</ele>
        <time>2022-08-14T06:48:34Z</time>
      </trkpt>
      <trkpt lat="43.92923" lon="1.87073">
        <ele>220.8</ele>
        <time>2022-08-14T06:48:35Z</time>
      </trkpt>
      <trkpt lat="43.92922" lon="1.8707">
        <ele>220.8</ele>
        <time>2022-08-14T06:48:36Z</time>
      </trkpt>
      <trkpt lat="43.9292" lon="1.87067">
        <ele>221.2</ele>
        <time>2022-08-14T06:48:37Z</time>
      </trkpt>
      <trkpt lat="43.92918" lon="1.87064">
        <ele>221.4</ele>
        <time>2022-08-14T06:48:38Z</time>
      </trkpt>
      <trkpt lat="43.92918" lon="1.87061">
        <ele>221.8</ele>
        <time>2022-08-14T06:48:39Z</time>
      </trkpt>
      <trkpt lat="43.92917" lon="1.87059">
        <ele>222.2</ele>
        <time>2022-08-14T06:48:40Z</time>
      </trkpt>
      <trkpt lat="43.92916" lon="1.87054">
        <ele>222.4</ele>
        <time>2022-08-14T06:48:41Z</time>
      </trkpt>
      <trkpt lat="43.92915" lon="1.87051">
        <ele>223</ele>
        <time>2022-08-14T06:48:42Z</time>
      </trkpt>
      <trkpt lat="43.92915" lon="1.87048">
        <ele>223</ele>
        <time>2022-08-14T06:48:43Z</time>
      </trkpt>
      <trkpt lat="43.92914" lon="1.87044">
        <ele>223.4</ele>
        <time>2022-08-14T06:48:44Z</time>
      </trkpt>
      <trkpt lat="43.92914" lon="1.87041">
        <ele>223.4</ele>
        <time>2022-08-14T06:48:45Z</time>
      </trkpt>
      <trkpt lat="43.92913" lon="1.87037">
        <ele>223.8</ele>
        <time>2022-08-14T06:48:46Z</time>
      </trkpt>
      <trkpt lat="43.92912" lon="1.87034">
        <ele>224.2</ele>
        <time>2022-08-14T06:48:47Z</time>
      </trkpt>
      <trkpt lat="43.92911" lon="1.87031">
        <ele>224.4</ele>
        <time>2022-08-14T06:48:48Z</time>
      </trkpt>
      <trkpt lat="43.92911" lon="1.87028">
        <ele>225</ele>
        <time>2022-08-14T06:48:49Z</time>
      </trkpt>
      <trkpt lat="43.9291" lon="1.87025">
        <ele>225.2</ele>
        <time>2022-08-14T06:48:50Z</time>
      </trkpt>
      <trkpt lat="43.9291" lon="1.87022">
        <ele>225.8</ele>
        <time>2022-08-14T06:48:51Z</time>
      </trkpt>
      <trkpt lat="43.92909" lon="1.87019">
        <ele>226</ele>
        <time>2022-08-14T06:48:52Z</time>
      </trkpt>
      <trkpt lat="43.92909" lon="1.87017">
        <ele>226.4</ele>
        <time>2022-08-14T06:48:53Z</time>
      </trkpt>
      <trkpt lat="43.92908" lon="1.87014">
        <ele>227</ele>
        <time>2022-08-14T06:48:54Z</time>
      </trkpt>
      <trkpt lat="43.92908" lon="1.87012">
        <ele>227.4</ele>
        <time>2022-08-14T06:48:55Z</time>
      </trkpt>
      <trkpt lat="43.92908" lon="1.8701">
        <ele>227.6</ele>
        <time>2022-08-14T06:48:56Z</time>
      </trkpt>
      <trkpt lat="43.92907" lon="1.87007">
        <ele>228</ele>
        <time>2022-08-14T06:48:57Z</time>
      </trkpt>
      <trkpt lat="43.92907" lon="1.87005">
        <ele>228.4</ele>
        <time>2022-08-14T06:48:58Z</time>
      </trkpt>
      <trkpt lat="43.92907" lon="1.87002">
        <ele>228.8</ele>
        <time>2022-08-14T06:48:59Z</time>
      </trkpt>
      <trkpt lat="43.92907" lon="1.86999">
        <ele>228.8</ele>
        <time>2022-08-14T06:49:00Z</time>
      </trkpt>
      <trkpt lat="43.92907" lon="1.86996">
        <ele>229.2</ele>
        <time>2022-08-14T06:49:01Z</time>
      </trkpt>
      <trkpt lat="43.92906" lon="1.86993">
        <ele>229.4</ele>
        <time>2022-08-14T06:49:02Z</time>
      </trkpt>
      <trkpt lat="43.92906" lon="1.8699">
        <ele>229.8</ele>
        <time>2022-08-14T06:49:03Z</time>
      </trkpt>
      <trkpt lat="43.92906" lon="1.86988">
        <ele>230</ele>
        <time>2022-08-14T06:49:04Z</time>
      </trkpt>
      <trkpt lat="43.92906" lon="1.86986">
        <ele>230.6</ele>
        <time>2022-08-14T06:49:05Z</time>
      </trkpt>
      <trkpt lat="43.92906" lon="1.86984">
        <ele>230.8</ele>
        <time>2022-08-14T06:49:06Z</time>
      </trkpt>
      <trkpt lat="43.92906" lon="1.86981">
        <ele>231</ele>
        <time>2022-08-14T06:49:07Z</time>
      </trkpt>
      <trkpt lat="43.92905" lon="1.86978">
        <ele>231.2</ele>
        <time>2022-08-14T06:49:08Z</time>
      </trkpt>
      <trkpt lat="43.92904" lon="1.86976">
        <ele>231.6</ele>
        <time>2022-08-14T06:49:09Z</time>
      </trkpt>
      <trkpt lat="43.92903" lon="1.86974">
        <ele>232</ele>
        <time>2022-08-14T06:49:10Z</time>
      </trkpt>
      <trkpt lat="43.92902" lon="1.86973">
        <ele>232</ele>
        <time>2022-08-14T06:49:11Z</time>
      </trkpt>
      <trkpt lat="43.92899" lon="1.86972">
        <ele>232.4</ele>
        <time>2022-08-14T06:49:12Z</time>
      </trkpt>
      <trkpt lat="43.92898" lon="1.86971">
        <ele>232.6</ele>
        <time>2022-08-14T06:49:13Z</time>
      </trkpt>
      <trkpt lat="43.92897" lon="1.86971">
        <ele>232.8</ele>
        <time>2022-08-14T06:49:14Z</time>
      </trkpt>
      <trkpt lat="43.92896" lon="1.86972">
        <ele>233</ele>
        <time>2022-08-14T06:49:15Z</time>
      </trkpt>
      <trkpt lat="43.92895" lon="1.86972">
        <ele>233</ele>
        <time>2022-08-14T06:49:16Z</time>
      </trkpt>
      <trkpt lat="43.92893" lon="1.86973">
        <ele>233.2</ele>
        <time>2022-08-14T06:49:17Z</time>
      </trkpt>
      <trkpt lat="43.92891" lon="1.86973">
        <ele>233.2</ele>
        <time>2022-08-14T06:49:18Z</time>
      </trkpt>
      <trkpt lat="43.92889" lon="1.86973">
        <ele>233.4</ele>
        <time>2022-08-14T06:49:19Z</time>
      </trkpt>
      <trkpt lat="43.92888" lon="1.86973">
        <ele>233.4</ele>
        <time>2022-08-14T06:49:20Z</time>
      </trkpt>
      <trkpt lat="43.92886" lon="1.86974">
        <ele>233.4</ele>
        <time>2022-08-14T06:49:21Z</time>
      </trkpt>
      <trkpt lat="43.92884" lon="1.86975">
        <ele>233.4</ele>
        <time>2022-08-14T06:49:22Z</time>
      </trkpt>
      <trkpt lat="43.92882" lon="1.86976">
        <ele>233.4</ele>
        <time>2022-08-14T06:49:23Z</time>
      </trkpt>
      <trkpt lat="43.92881" lon="1.86976">
        <ele>233.4</ele>
        <time>2022-08-14T06:49:24Z</time>
      </trkpt>
      <trkpt lat="43.92878" lon="1.86977">
        <ele>233.4</ele>
        <time>2022-08-14T06:49:25Z</time>
      </trkpt>
      <trkpt lat="43.92876" lon="1.86977">
        <ele>233.4</ele>
        <time>2022-08-14T06:49:26Z</time>
      </trkpt>
      <trkpt lat="43.92874" lon="1.86978">
        <ele>233.4</ele>
        <time>2022-08-14T06:49:27Z</time>
      </trkpt>
      <trkpt lat="43.92871" lon="1.86979">
        <ele>233.2</ele>
        <time>2022-08-14T06:49:28Z</time>
      </trkpt>
      <trkpt lat="43.92868" lon="1.8698">
        <ele>233</ele>
        <time>2022-08-14T06:49:29Z</time>
      </trkpt>
      <trkpt lat="43.92865" lon="1.86981">
        <ele>232.8</ele>
        <time>2022-08-14T06:49:30Z</time>
      </trkpt>
      <trkpt lat="43.92862" lon="1.86982">
        <ele>232.8</ele>
        <time>2022-08-14T06:49:31Z</time>
      </trkpt>
      <trkpt lat="43.92859" lon="1.86983">
        <ele>232.6</ele>
        <time>2022-08-14T06:49:32Z</time>
      </trkpt>
      <trkpt lat="43.92856" lon="1.86984">
        <ele>232.4</ele>
        <time>2022-08-14T06:49:33Z</time>
      </trkpt>
      <trkpt lat="43.92852" lon="1.86985">
        <ele>232.4</ele>
        <time>2022-08-14T06:49:34Z</time>
      </trkpt>
      <trkpt lat="43.92848" lon="1.86986">
        <ele>232.2</ele>
        <time>2022-08-14T06:49:35Z</time>
      </trkpt>
      <trkpt lat="43.92833" lon="1.86992">
        <ele>231.6</ele>
        <time>2022-08-14T06:49:39Z</time>
      </trkpt>
      <trkpt lat="43.92829" lon="1.86993">
        <ele>231.4</ele>
        <time>2022-08-14T06:49:40Z</time>
      </trkpt>
      <trkpt lat="43.92817" lon="1.86997">
        <ele>230.8</ele>
        <time>2022-08-14T06:49:43Z</time>
      </trkpt>
      <trkpt lat="43.92809" lon="1.87">
        <ele>230.4</ele>
        <time>2022-08-14T06:49:45Z</time>
      </trkpt>
      <trkpt lat="43.92805" lon="1.87002">
        <ele>229.8</ele>
        <time>2022-08-14T06:49:46Z</time>
      </trkpt>
      <trkpt lat="43.92801" lon="1.87003">
        <ele>229.6</ele>
        <time>2022-08-14T06:49:47Z</time>
      </trkpt>
      <trkpt lat="43.92797" lon="1.87005">
        <ele>229.4</ele>
        <time>2022-08-14T06:49:48Z</time>
      </trkpt>
      <trkpt lat="43.92794" lon="1.87006">
        <ele>229.2</ele>
        <time>2022-08-14T06:49:49Z</time>
      </trkpt>
      <trkpt lat="43.92791" lon="1.87007">
        <ele>229.2</ele>
        <time>2022-08-14T06:49:50Z</time>
      </trkpt>
      <trkpt lat="43.92789" lon="1.87008">
        <ele>229.2</ele>
        <time>2022-08-14T06:49:51Z</time>
      </trkpt>
      <trkpt lat="43.92786" lon="1.87009">
        <ele>229.2</ele>
        <time>2022-08-14T06:49:52Z</time>
      </trkpt>
      <trkpt lat="43.92784" lon="1.87009">
        <ele>229</ele>
        <time>2022-08-14T06:49:53Z</time>
      </trkpt>
      <trkpt lat="43.92783" lon="1.8701">
        <ele>229</ele>
        <time>2022-08-14T06:49:54Z</time>
      </trkpt>
      <trkpt lat="43.92783" lon="1.8701">
        <ele>228.4</ele>
        <time>2022-08-14T06:50:46Z</time>
      </trkpt>
      <trkpt lat="43.92782" lon="1.8701">
        <ele>228.4</ele>
        <time>2022-08-14T06:50:47Z</time>
      </trkpt>
      <trkpt lat="43.92782" lon="1.8701">
        <ele>228.4</ele>
        <time>2022-08-14T06:50:49Z</time>
      </trkpt>
      <trkpt lat="43.92777" lon="1.87009">
        <ele>228.6</ele>
        <time>2022-08-14T06:50:55Z</time>
      </trkpt>
      <trkpt lat="43.92775" lon="1.8701">
        <ele>228.6</ele>
        <time>2022-08-14T06:50:56Z</time>
      </trkpt>
      <trkpt lat="43.92767" lon="1.87012">
        <ele>228.8</ele>
        <time>2022-08-14T06:50:59Z</time>
      </trkpt>
      <trkpt lat="43.92764" lon="1.87012">
        <ele>228.8</ele>
        <time>2022-08-14T06:51:00Z</time>
      </trkpt>
      <trkpt lat="43.9276" lon="1.87013">
        <ele>228.8</ele>
        <time>2022-08-14T06:51:01Z</time>
      </trkpt>
      <trkpt lat="43.92752" lon="1.87015">
        <ele>228.6</ele>
        <time>2022-08-14T06:51:03Z</time>
      </trkpt>
      <trkpt lat="43.92739" lon="1.8702">
        <ele>228.4</ele>
        <time>2022-08-14T06:51:05Z</time>
      </trkpt>
      <trkpt lat="43.92725" lon="1.87025">
        <ele>227.6</ele>
        <time>2022-08-14T06:51:07Z</time>
      </trkpt>
      <trkpt lat="43.92719" lon="1.87027">
        <ele>227.4</ele>
        <time>2022-08-14T06:51:08Z</time>
      </trkpt>
      <trkpt lat="43.92714" lon="1.87029">
        <ele>227</ele>
        <time>2022-08-14T06:51:09Z</time>
      </trkpt>
      <trkpt lat="43.92709" lon="1.8703">
        <ele>226.4</ele>
        <time>2022-08-14T06:51:10Z</time>
      </trkpt>
      <trkpt lat="43.92705" lon="1.87032">
        <ele>225.8</ele>
        <time>2022-08-14T06:51:11Z</time>
      </trkpt>
      <trkpt lat="43.92701" lon="1.87034">
        <ele>225.4</ele>
        <time>2022-08-14T06:51:12Z</time>
      </trkpt>
      <trkpt lat="43.92691" lon="1.8704">
        <ele>224.6</ele>
        <time>2022-08-14T06:51:14Z</time>
      </trkpt>
      <trkpt lat="43.92681" lon="1.87047">
        <ele>223.4</ele>
        <time>2022-08-14T06:51:16Z</time>
      </trkpt>
      <trkpt lat="43.92658" lon="1.87063">
        <ele>222</ele>
        <time>2022-08-14T06:51:20Z</time>
      </trkpt>
      <trkpt lat="43.92642" lon="1.87073">
        <ele>221.4</ele>
        <time>2022-08-14T06:51:23Z</time>
      </trkpt>
      <trkpt lat="43.92635" lon="1.87075">
        <ele>221</ele>
        <time>2022-08-14T06:51:24Z</time>
      </trkpt>
      <trkpt lat="43.92629" lon="1.87075">
        <ele>220.2</ele>
        <time>2022-08-14T06:51:25Z</time>
      </trkpt>
      <trkpt lat="43.92623" lon="1.87074">
        <ele>219.8</ele>
        <time>2022-08-14T06:51:26Z</time>
      </trkpt>
      <trkpt lat="43.92617" lon="1.87073">
        <ele>219</ele>
        <time>2022-08-14T06:51:27Z</time>
      </trkpt>
      <trkpt lat="43.9261" lon="1.87072">
        <ele>218.8</ele>
        <time>2022-08-14T06:51:28Z</time>
      </trkpt>
      <trkpt lat="43.92598" lon="1.87071">
        <ele>218</ele>
        <time>2022-08-14T06:51:30Z</time>
      </trkpt>
      <trkpt lat="43.92592" lon="1.87072">
        <ele>217.8</ele>
        <time>2022-08-14T06:51:31Z</time>
      </trkpt>
      <trkpt lat="43.92579" lon="1.87076">
        <ele>217.2</ele>
        <time>2022-08-14T06:51:33Z</time>
      </trkpt>
      <trkpt lat="43.92572" lon="1.87078">
        <ele>216.6</ele>
        <time>2022-08-14T06:51:34Z</time>
      </trkpt>
      <trkpt lat="43.92552" lon="1.87086">
        <ele>215.4</ele>
        <time>2022-08-14T06:51:37Z</time>
      </trkpt>
      <trkpt lat="43.92546" lon="1.87089">
        <ele>214.4</ele>
        <time>2022-08-14T06:51:38Z</time>
      </trkpt>
      <trkpt lat="43.9254" lon="1.87093">
        <ele>213.2</ele>
        <time>2022-08-14T06:51:39Z</time>
      </trkpt>
      <trkpt lat="43.92535" lon="1.87098">
        <ele>212.8</ele>
        <time>2022-08-14T06:51:40Z</time>
      </trkpt>
      <trkpt lat="43.9253" lon="1.87102">
        <ele>211.8</ele>
        <time>2022-08-14T06:51:41Z</time>
      </trkpt>
      <trkpt lat="43.92525" lon="1.87106">
        <ele>211.4</ele>
        <time>2022-08-14T06:51:42Z</time>
      </trkpt>
      <trkpt lat="43.92521" lon="1.8711">
        <ele>210.2</ele>
        <time>2022-08-14T06:51:43Z</time>
      </trkpt>
      <trkpt lat="43.92517" lon="1.87114">
        <ele>209.4</ele>
        <time>2022-08-14T06:51:44Z</time>
      </trkpt>
      <trkpt lat="43.92514" lon="1.87116">
        <ele>208</ele>
        <time>2022-08-14T06:51:45Z</time>
      </trkpt>
      <trkpt lat="43.9251" lon="1.87116">
        <ele>206.4</ele>
        <time>2022-08-14T06:51:46Z</time>
      </trkpt>
      <trkpt lat="43.92502" lon="1.87105">
        <ele>204.2</ele>
        <time>2022-08-14T06:51:48Z</time>
      </trkpt>
      <trkpt lat="43.925" lon="1.87098">
        <ele>203.4</ele>
        <time>2022-08-14T06:51:49Z</time>
      </trkpt>
      <trkpt lat="43.92497" lon="1.8709">
        <ele>201.4</ele>
        <time>2022-08-14T06:51:50Z</time>
      </trkpt>
      <trkpt lat="43.92493" lon="1.87083">
        <ele>200.6</ele>
        <time>2022-08-14T06:51:51Z</time>
      </trkpt>
      <trkpt lat="43.92488" lon="1.87077">
        <ele>199.4</ele>
        <time>2022-08-14T06:51:52Z</time>
      </trkpt>
      <trkpt lat="43.92482" lon="1.87073">
        <ele>198.4</ele>
        <time>2022-08-14T06:51:53Z</time>
      </trkpt>
      <trkpt lat="43.92474" lon="1.87068">
        <ele>197.8</ele>
        <time>2022-08-14T06:51:54Z</time>
      </trkpt>
      <trkpt lat="43.92466" lon="1.87063">
        <ele>196.6</ele>
        <time>2022-08-14T06:51:55Z</time>
      </trkpt>
      <trkpt lat="43.92457" lon="1.87058">
        <ele>196</ele>
        <time>2022-08-14T06:51:56Z</time>
      </trkpt>
      <trkpt lat="43.92448" lon="1.87052">
        <ele>195.2</ele>
        <time>2022-08-14T06:51:57Z</time>
      </trkpt>
      <trkpt lat="43.92431" lon="1.87043">
        <ele>193.8</ele>
        <time>2022-08-14T06:51:59Z</time>
      </trkpt>
      <trkpt lat="43.92412" lon="1.87032">
        <ele>190.4</ele>
        <time>2022-08-14T06:52:01Z</time>
      </trkpt>
      <trkpt lat="43.92402" lon="1.87025">
        <ele>189</ele>
        <time>2022-08-14T06:52:02Z</time>
      </trkpt>
      <trkpt lat="43.92393" lon="1.87017">
        <ele>188.4</ele>
        <time>2022-08-14T06:52:03Z</time>
      </trkpt>
      <trkpt lat="43.92383" lon="1.87009">
        <ele>186.8</ele>
        <time>2022-08-14T06:52:04Z</time>
      </trkpt>
      <trkpt lat="43.92374" lon="1.87001">
        <ele>185.8</ele>
        <time>2022-08-14T06:52:05Z</time>
      </trkpt>
      <trkpt lat="43.92365" lon="1.86994">
        <ele>184</ele>
        <time>2022-08-14T06:52:06Z</time>
      </trkpt>
      <trkpt lat="43.92356" lon="1.86987">
        <ele>182.8</ele>
        <time>2022-08-14T06:52:07Z</time>
      </trkpt>
      <trkpt lat="43.92347" lon="1.86981">
        <ele>180.6</ele>
        <time>2022-08-14T06:52:08Z</time>
      </trkpt>
      <trkpt lat="43.92337" lon="1.86977">
        <ele>179.2</ele>
        <time>2022-08-14T06:52:09Z</time>
      </trkpt>
      <trkpt lat="43.92328" lon="1.86974">
        <ele>178.8</ele>
        <time>2022-08-14T06:52:10Z</time>
      </trkpt>
      <trkpt lat="43.92318" lon="1.86972">
        <ele>178.2</ele>
        <time>2022-08-14T06:52:11Z</time>
      </trkpt>
      <trkpt lat="43.92309" lon="1.86969">
        <ele>177.6</ele>
        <time>2022-08-14T06:52:12Z</time>
      </trkpt>
      <trkpt lat="43.92302" lon="1.86967">
        <ele>176.6</ele>
        <time>2022-08-14T06:52:13Z</time>
      </trkpt>
      <trkpt lat="43.92297" lon="1.86966">
        <ele>176.2</ele>
        <time>2022-08-14T06:52:14Z</time>
      </trkpt>
      <trkpt lat="43.92293" lon="1.86966">
        <ele>175.6</ele>
        <time>2022-08-14T06:52:15Z</time>
      </trkpt>
      <trkpt lat="43.9229" lon="1.8697">
        <ele>175</ele>
        <time>2022-08-14T06:52:16Z</time>
      </trkpt>
      <trkpt lat="43.92289" lon="1.86974">
        <ele>174.4</ele>
        <time>2022-08-14T06:52:17Z</time>
      </trkpt>
      <trkpt lat="43.92288" lon="1.86979">
        <ele>174</ele>
        <time>2022-08-14T06:52:18Z</time>
      </trkpt>
      <trkpt lat="43.92286" lon="1.86984">
        <ele>174</ele>
        <time>2022-08-14T06:52:19Z</time>
      </trkpt>
      <trkpt lat="43.92281" lon="1.86988">
        <ele>173.8</ele>
        <time>2022-08-14T06:52:21Z</time>
      </trkpt>
      <trkpt lat="43.92279" lon="1.86988">
        <ele>173.4</ele>
        <time>2022-08-14T06:52:22Z</time>
      </trkpt>
      <trkpt lat="43.92276" lon="1.86987">
        <ele>173.4</ele>
        <time>2022-08-14T06:52:23Z</time>
      </trkpt>
      <trkpt lat="43.92271" lon="1.86984">
        <ele>173.2</ele>
        <time>2022-08-14T06:52:25Z</time>
      </trkpt>
      <trkpt lat="43.92268" lon="1.86984">
        <ele>173.2</ele>
        <time>2022-08-14T06:52:26Z</time>
      </trkpt>
      <trkpt lat="43.92266" lon="1.86983">
        <ele>173.2</ele>
        <time>2022-08-14T06:52:27Z</time>
      </trkpt>
      <trkpt lat="43.92261" lon="1.86982">
        <ele>173.2</ele>
        <time>2022-08-14T06:52:29Z</time>
      </trkpt>
      <trkpt lat="43.92256" lon="1.86981">
        <ele>173.4</ele>
        <time>2022-08-14T06:52:31Z</time>
      </trkpt>
      <trkpt lat="43.92254" lon="1.8698">
        <ele>173.6</ele>
        <time>2022-08-14T06:52:32Z</time>
      </trkpt>
      <trkpt lat="43.92251" lon="1.8698">
        <ele>173.6</ele>
        <time>2022-08-14T06:52:33Z</time>
      </trkpt>
      <trkpt lat="43.92247" lon="1.8698">
        <ele>174</ele>
        <time>2022-08-14T06:52:35Z</time>
      </trkpt>
      <trkpt lat="43.92245" lon="1.86979">
        <ele>174.2</ele>
        <time>2022-08-14T06:52:36Z</time>
      </trkpt>
      <trkpt lat="43.92243" lon="1.86979">
        <ele>174.4</ele>
        <time>2022-08-14T06:52:37Z</time>
      </trkpt>
      <trkpt lat="43.92241" lon="1.86979">
        <ele>174.8</ele>
        <time>2022-08-14T06:52:38Z</time>
      </trkpt>
      <trkpt lat="43.9224" lon="1.86979">
        <ele>175</ele>
        <time>2022-08-14T06:52:39Z</time>
      </trkpt>
      <trkpt lat="43.92239" lon="1.86979">
        <ele>175.4</ele>
        <time>2022-08-14T06:52:40Z</time>
      </trkpt>
      <trkpt lat="43.92237" lon="1.86979">
        <ele>175.6</ele>
        <time>2022-08-14T06:52:41Z</time>
      </trkpt>
      <trkpt lat="43.92235" lon="1.86979">
        <ele>176</ele>
        <time>2022-08-14T06:52:42Z</time>
      </trkpt>
      <trkpt lat="43.92233" lon="1.86978">
        <ele>176.2</ele>
        <time>2022-08-14T06:52:43Z</time>
      </trkpt>
      <trkpt lat="43.92229" lon="1.8698">
        <ele>176.6</ele>
        <time>2022-08-14T06:52:46Z</time>
      </trkpt>
      <trkpt lat="43.92228" lon="1.8698">
        <ele>176.8</ele>
        <time>2022-08-14T06:52:47Z</time>
      </trkpt>
      <trkpt lat="43.92227" lon="1.86979">
        <ele>177.2</ele>
        <time>2022-08-14T06:52:48Z</time>
      </trkpt>
      <trkpt lat="43.92226" lon="1.86979">
        <ele>177.4</ele>
        <time>2022-08-14T06:52:49Z</time>
      </trkpt>
      <trkpt lat="43.92225" lon="1.86979">
        <ele>177.6</ele>
        <time>2022-08-14T06:52:50Z</time>
      </trkpt>
      <trkpt lat="43.92222" lon="1.86977">
        <ele>178</ele>
        <time>2022-08-14T06:52:52Z</time>
      </trkpt>
      <trkpt lat="43.92221" lon="1.86977">
        <ele>178</ele>
        <time>2022-08-14T06:52:53Z</time>
      </trkpt>
      <trkpt lat="43.9222" lon="1.86977">
        <ele>178.2</ele>
        <time>2022-08-14T06:52:54Z</time>
      </trkpt>
      <trkpt lat="43.92219" lon="1.86977">
        <ele>178.4</ele>
        <time>2022-08-14T06:52:55Z</time>
      </trkpt>
      <trkpt lat="43.92219" lon="1.86977">
        <ele>178.6</ele>
        <time>2022-08-14T06:52:56Z</time>
      </trkpt>
      <trkpt lat="43.92218" lon="1.86977">
        <ele>178.8</ele>
        <time>2022-08-14T06:52:57Z</time>
      </trkpt>
      <trkpt lat="43.92217" lon="1.86976">
        <ele>179</ele>
        <time>2022-08-14T06:52:58Z</time>
      </trkpt>
      <trkpt lat="43.92215" lon="1.86976">
        <ele>179.2</ele>
        <time>2022-08-14T06:52:59Z</time>
      </trkpt>
      <trkpt lat="43.92214" lon="1.86975">
        <ele>179.2</ele>
        <time>2022-08-14T06:53:00Z</time>
      </trkpt>
      <trkpt lat="43.92213" lon="1.86975">
        <ele>179.2</ele>
        <time>2022-08-14T06:53:01Z</time>
      </trkpt>
      <trkpt lat="43.92211" lon="1.86975">
        <ele>179.4</ele>
        <time>2022-08-14T06:53:02Z</time>
      </trkpt>
      <trkpt lat="43.9221" lon="1.86974">
        <ele>179.6</ele>
        <time>2022-08-14T06:53:03Z</time>
      </trkpt>
      <trkpt lat="43.92209" lon="1.86974">
        <ele>180</ele>
        <time>2022-08-14T06:53:04Z</time>
      </trkpt>
      <trkpt lat="43.92207" lon="1.86974">
        <ele>180.2</ele>
        <time>2022-08-14T06:53:05Z</time>
      </trkpt>
      <trkpt lat="43.92206" lon="1.86973">
        <ele>180.4</ele>
        <time>2022-08-14T06:53:06Z</time>
      </trkpt>
      <trkpt lat="43.92204" lon="1.86973">
        <ele>180.6</ele>
        <time>2022-08-14T06:53:07Z</time>
      </trkpt>
      <trkpt lat="43.92203" lon="1.86973">
        <ele>180.8</ele>
        <time>2022-08-14T06:53:08Z</time>
      </trkpt>
      <trkpt lat="43.92201" lon="1.86973">
        <ele>181</ele>
        <time>2022-08-14T06:53:09Z</time>
      </trkpt>
      <trkpt lat="43.922" lon="1.86972">
        <ele>181.4</ele>
        <time>2022-08-14T06:53:10Z</time>
      </trkpt>
      <trkpt lat="43.92199" lon="1.86972">
        <ele>181.6</ele>
        <time>2022-08-14T06:53:11Z</time>
      </trkpt>
      <trkpt lat="43.92197" lon="1.86972">
        <ele>181.8</ele>
        <time>2022-08-14T06:53:12Z</time>
      </trkpt>
      <trkpt lat="43.92195" lon="1.86972">
        <ele>182</ele>
        <time>2022-08-14T06:53:13Z</time>
      </trkpt>
      <trkpt lat="43.92194" lon="1.86972">
        <ele>182.2</ele>
        <time>2022-08-14T06:53:14Z</time>
      </trkpt>
      <trkpt lat="43.92192" lon="1.86971">
        <ele>182.6</ele>
        <time>2022-08-14T06:53:15Z</time>
      </trkpt>
      <trkpt lat="43.9219" lon="1.8697">
        <ele>182.8</ele>
        <time>2022-08-14T06:53:16Z</time>
      </trkpt>
      <trkpt lat="43.92188" lon="1.86969">
        <ele>183</ele>
        <time>2022-08-14T06:53:17Z</time>
      </trkpt>
      <trkpt lat="43.92187" lon="1.8697">
        <ele>183.4</ele>
        <time>2022-08-14T06:53:18Z</time>
      </trkpt>
      <trkpt lat="43.92185" lon="1.8697">
        <ele>183.8</ele>
        <time>2022-08-14T06:53:19Z</time>
      </trkpt>
      <trkpt lat="43.92183" lon="1.8697">
        <ele>184.2</ele>
        <time>2022-08-14T06:53:20Z</time>
      </trkpt>
      <trkpt lat="43.92182" lon="1.8697">
        <ele>184.4</ele>
        <time>2022-08-14T06:53:21Z</time>
      </trkpt>
      <trkpt lat="43.92181" lon="1.86969">
        <ele>184.6</ele>
        <time>2022-08-14T06:53:22Z</time>
      </trkpt>
      <trkpt lat="43.92178" lon="1.86969">
        <ele>184.8</ele>
        <time>2022-08-14T06:53:23Z</time>
      </trkpt>
      <trkpt lat="43.92176" lon="1.86968">
        <ele>185</ele>
        <time>2022-08-14T06:53:24Z</time>
      </trkpt>
      <trkpt lat="43.92174" lon="1.86968">
        <ele>185</ele>
        <time>2022-08-14T06:53:25Z</time>
      </trkpt>
      <trkpt lat="43.92172" lon="1.86968">
        <ele>185.4</ele>
        <time>2022-08-14T06:53:26Z</time>
      </trkpt>
      <trkpt lat="43.9217" lon="1.86968">
        <ele>186.2</ele>
        <time>2022-08-14T06:53:27Z</time>
      </trkpt>
      <trkpt lat="43.92169" lon="1.86968">
        <ele>186.6</ele>
        <time>2022-08-14T06:53:28Z</time>
      </trkpt>
      <trkpt lat="43.92167" lon="1.86967">
        <ele>187</ele>
        <time>2022-08-14T06:53:29Z</time>
      </trkpt>
      <trkpt lat="43.92165" lon="1.86966">
        <ele>187.2</ele>
        <time>2022-08-14T06:53:30Z</time>
      </trkpt>
      <trkpt lat="43.92164" lon="1.86966">
        <ele>187.6</ele>
        <time>2022-08-14T06:53:31Z</time>
      </trkpt>
      <trkpt lat="43.92162" lon="1.86967">
        <ele>187.8</ele>
        <time>2022-08-14T06:53:32Z</time>
      </trkpt>
      <trkpt lat="43.92161" lon="1.86967">
        <ele>188.4</ele>
        <time>2022-08-14T06:53:33Z</time>
      </trkpt>
      <trkpt lat="43.9216" lon="1.86967">
        <ele>189</ele>
        <time>2022-08-14T06:53:34Z</time>
      </trkpt>
      <trkpt lat="43.92159" lon="1.86966">
        <ele>189.2</ele>
        <time>2022-08-14T06:53:35Z</time>
      </trkpt>
      <trkpt lat="43.92157" lon="1.86965">
        <ele>189.6</ele>
        <time>2022-08-14T06:53:36Z</time>
      </trkpt>
      <trkpt lat="43.92154" lon="1.86964">
        <ele>189.8</ele>
        <time>2022-08-14T06:53:37Z</time>
      </trkpt>
      <trkpt lat="43.92152" lon="1.86963">
        <ele>190.2</ele>
        <time>2022-08-14T06:53:38Z</time>
      </trkpt>
      <trkpt lat="43.92151" lon="1.86963">
        <ele>190.4</ele>
        <time>2022-08-14T06:53:39Z</time>
      </trkpt>
      <trkpt lat="43.92149" lon="1.86963">
        <ele>190.8</ele>
        <time>2022-08-14T06:53:40Z</time>
      </trkpt>
      <trkpt lat="43.92148" lon="1.86963">
        <ele>191</ele>
        <time>2022-08-14T06:53:41Z</time>
      </trkpt>
      <trkpt lat="43.92146" lon="1.86963">
        <ele>191.2</ele>
        <time>2022-08-14T06:53:42Z</time>
      </trkpt>
      <trkpt lat="43.92145" lon="1.86963">
        <ele>191.6</ele>
        <time>2022-08-14T06:53:43Z</time>
      </trkpt>
      <trkpt lat="43.92144" lon="1.86963">
        <ele>191.6</ele>
        <time>2022-08-14T06:53:44Z</time>
      </trkpt>
      <trkpt lat="43.92142" lon="1.86962">
        <ele>192</ele>
        <time>2022-08-14T06:53:45Z</time>
      </trkpt>
      <trkpt lat="43.92141" lon="1.86962">
        <ele>192.2</ele>
        <time>2022-08-14T06:53:46Z</time>
      </trkpt>
      <trkpt lat="43.9214" lon="1.86962">
        <ele>192.6</ele>
        <time>2022-08-14T06:53:47Z</time>
      </trkpt>
      <trkpt lat="43.92139" lon="1.86962">
        <ele>192.8</ele>
        <time>2022-08-14T06:53:48Z</time>
      </trkpt>
      <trkpt lat="43.92138" lon="1.86962">
        <ele>193</ele>
        <time>2022-08-14T06:53:49Z</time>
      </trkpt>
      <trkpt lat="43.92136" lon="1.86962">
        <ele>193.2</ele>
        <time>2022-08-14T06:53:50Z</time>
      </trkpt>
      <trkpt lat="43.92135" lon="1.86962">
        <ele>193.4</ele>
        <time>2022-08-14T06:53:51Z</time>
      </trkpt>
      <trkpt lat="43.92134" lon="1.86963">
        <ele>194</ele>
        <time>2022-08-14T06:53:52Z</time>
      </trkpt>
      <trkpt lat="43.92132" lon="1.86963">
        <ele>194.2</ele>
        <time>2022-08-14T06:53:53Z</time>
      </trkpt>
      <trkpt lat="43.92131" lon="1.86964">
        <ele>194.6</ele>
        <time>2022-08-14T06:53:54Z</time>
      </trkpt>
      <trkpt lat="43.9213" lon="1.86964">
        <ele>194.6</ele>
        <time>2022-08-14T06:53:55Z</time>
      </trkpt>
      <trkpt lat="43.92128" lon="1.86965">
        <ele>194.8</ele>
        <time>2022-08-14T06:53:56Z</time>
      </trkpt>
      <trkpt lat="43.92127" lon="1.86965">
        <ele>195.2</ele>
        <time>2022-08-14T06:53:57Z</time>
      </trkpt>
      <trkpt lat="43.92126" lon="1.86965">
        <ele>195.2</ele>
        <time>2022-08-14T06:53:58Z</time>
      </trkpt>
      <trkpt lat="43.92125" lon="1.86964">
        <ele>195.6</ele>
        <time>2022-08-14T06:53:59Z</time>
      </trkpt>
      <trkpt lat="43.92122" lon="1.86963">
        <ele>195.8</ele>
        <time>2022-08-14T06:54:00Z</time>
      </trkpt>
      <trkpt lat="43.9212" lon="1.86964">
        <ele>196</ele>
        <time>2022-08-14T06:54:01Z</time>
      </trkpt>
      <trkpt lat="43.92119" lon="1.86965">
        <ele>196</ele>
        <time>2022-08-14T06:54:02Z</time>
      </trkpt>
      <trkpt lat="43.92118" lon="1.86965">
        <ele>196.4</ele>
        <time>2022-08-14T06:54:03Z</time>
      </trkpt>
      <trkpt lat="43.92116" lon="1.86966">
        <ele>196.4</ele>
        <time>2022-08-14T06:54:04Z</time>
      </trkpt>
      <trkpt lat="43.92116" lon="1.86966">
        <ele>196.8</ele>
        <time>2022-08-14T06:54:05Z</time>
      </trkpt>
      <trkpt lat="43.92114" lon="1.86966">
        <ele>197</ele>
        <time>2022-08-14T06:54:06Z</time>
      </trkpt>
      <trkpt lat="43.92113" lon="1.86966">
        <ele>197.2</ele>
        <time>2022-08-14T06:54:07Z</time>
      </trkpt>
      <trkpt lat="43.92112" lon="1.86967">
        <ele>197.4</ele>
        <time>2022-08-14T06:54:08Z</time>
      </trkpt>
      <trkpt lat="43.92111" lon="1.86966">
        <ele>197.6</ele>
        <time>2022-08-14T06:54:09Z</time>
      </trkpt>
      <trkpt lat="43.9211" lon="1.86966">
        <ele>198</ele>
        <time>2022-08-14T06:54:10Z</time>
      </trkpt>
      <trkpt lat="43.92108" lon="1.86966">
        <ele>198.2</ele>
        <time>2022-08-14T06:54:11Z</time>
      </trkpt>
      <trkpt lat="43.92107" lon="1.86966">
        <ele>198.6</ele>
        <time>2022-08-14T06:54:12Z</time>
      </trkpt>
      <trkpt lat="43.92105" lon="1.86966">
        <ele>199</ele>
        <time>2022-08-14T06:54:13Z</time>
      </trkpt>
      <trkpt lat="43.92104" lon="1.86965">
        <ele>199</ele>
        <time>2022-08-14T06:54:14Z</time>
      </trkpt>
      <trkpt lat="43.92103" lon="1.86965">
        <ele>199.2</ele>
        <time>2022-08-14T06:54:15Z</time>
      </trkpt>
      <trkpt lat="43.92102" lon="1.86964">
        <ele>199.4</ele>
        <time>2022-08-14T06:54:16Z</time>
      </trkpt>
      <trkpt lat="43.92101" lon="1.86964">
        <ele>199.6</ele>
        <time>2022-08-14T06:54:17Z</time>
      </trkpt>
      <trkpt lat="43.921" lon="1.86963">
        <ele>199.8</ele>
        <time>2022-08-14T06:54:18Z</time>
      </trkpt>
      <trkpt lat="43.92099" lon="1.86963">
        <ele>200</ele>
        <time>2022-08-14T06:54:19Z</time>
      </trkpt>
      <trkpt lat="43.92098" lon="1.86962">
        <ele>200.2</ele>
        <time>2022-08-14T06:54:20Z</time>
      </trkpt>
      <trkpt lat="43.92098" lon="1.86962">
        <ele>201.4</ele>
        <time>2022-08-14T06:54:38Z</time>
      </trkpt>
      <trkpt lat="43.92098" lon="1.86962">
        <ele>201.4</ele>
        <time>2022-08-14T06:54:39Z</time>
      </trkpt>
      <trkpt lat="43.92098" lon="1.86962">
        <ele>201.6</ele>
        <time>2022-08-14T06:54:49Z</time>
      </trkpt>
      <trkpt lat="43.92096" lon="1.86961">
        <ele>201.6</ele>
        <time>2022-08-14T06:54:52Z</time>
      </trkpt>
      <trkpt lat="43.92094" lon="1.8696">
        <ele>201.6</ele>
        <time>2022-08-14T06:54:54Z</time>
      </trkpt>
      <trkpt lat="43.92094" lon="1.86959">
        <ele>201.8</ele>
        <time>2022-08-14T06:54:55Z</time>
      </trkpt>
      <trkpt lat="43.92093" lon="1.86959">
        <ele>202</ele>
        <time>2022-08-14T06:55:06Z</time>
      </trkpt>
      <trkpt lat="43.92087" lon="1.86956">
        <ele>202</ele>
        <time>2022-08-14T06:55:09Z</time>
      </trkpt>
      <trkpt lat="43.92078" lon="1.86951">
        <ele>201.8</ele>
        <time>2022-08-14T06:55:11Z</time>
      </trkpt>
      <trkpt lat="43.92068" lon="1.86944">
        <ele>201.4</ele>
        <time>2022-08-14T06:55:13Z</time>
      </trkpt>
      <trkpt lat="43.92063" lon="1.86941">
        <ele>201.2</ele>
        <time>2022-08-14T06:55:14Z</time>
      </trkpt>
      <trkpt lat="43.92049" lon="1.86928">
        <ele>199.8</ele>
        <time>2022-08-14T06:55:17Z</time>
      </trkpt>
      <trkpt lat="43.92042" lon="1.86921">
        <ele>199.6</ele>
        <time>2022-08-14T06:55:18Z</time>
      </trkpt>
      <trkpt lat="43.9203" lon="1.86911">
        <ele>198.8</ele>
        <time>2022-08-14T06:55:20Z</time>
      </trkpt>
      <trkpt lat="43.92024" lon="1.86906">
        <ele>197.4</ele>
        <time>2022-08-14T06:55:21Z</time>
      </trkpt>
      <trkpt lat="43.92019" lon="1.86902">
        <ele>196.8</ele>
        <time>2022-08-14T06:55:22Z</time>
      </trkpt>
      <trkpt lat="43.92015" lon="1.86898">
        <ele>195.8</ele>
        <time>2022-08-14T06:55:23Z</time>
      </trkpt>
      <trkpt lat="43.92011" lon="1.86894">
        <ele>195</ele>
        <time>2022-08-14T06:55:24Z</time>
      </trkpt>
      <trkpt lat="43.92007" lon="1.86888">
        <ele>194.6</ele>
        <time>2022-08-14T06:55:25Z</time>
      </trkpt>
      <trkpt lat="43.92001" lon="1.8688">
        <ele>193.6</ele>
        <time>2022-08-14T06:55:26Z</time>
      </trkpt>
      <trkpt lat="43.91996" lon="1.86873">
        <ele>193.2</ele>
        <time>2022-08-14T06:55:27Z</time>
      </trkpt>
      <trkpt lat="43.9199" lon="1.86865">
        <ele>192.4</ele>
        <time>2022-08-14T06:55:28Z</time>
      </trkpt>
      <trkpt lat="43.9198" lon="1.8685">
        <ele>191.4</ele>
        <time>2022-08-14T06:55:30Z</time>
      </trkpt>
      <trkpt lat="43.91975" lon="1.86843">
        <ele>190.8</ele>
        <time>2022-08-14T06:55:31Z</time>
      </trkpt>
      <trkpt lat="43.91965" lon="1.86829">
        <ele>189</ele>
        <time>2022-08-14T06:55:33Z</time>
      </trkpt>
      <trkpt lat="43.9196" lon="1.86822">
        <ele>188.2</ele>
        <time>2022-08-14T06:55:34Z</time>
      </trkpt>
      <trkpt lat="43.91955" lon="1.86816">
        <ele>187.2</ele>
        <time>2022-08-14T06:55:35Z</time>
      </trkpt>
      <trkpt lat="43.91951" lon="1.86811">
        <ele>186.8</ele>
        <time>2022-08-14T06:55:36Z</time>
      </trkpt>
      <trkpt lat="43.91946" lon="1.86806">
        <ele>185.2</ele>
        <time>2022-08-14T06:55:37Z</time>
      </trkpt>
      <trkpt lat="43.91936" lon="1.86795">
        <ele>183.6</ele>
        <time>2022-08-14T06:55:39Z</time>
      </trkpt>
      <trkpt lat="43.91931" lon="1.8679">
        <ele>182.8</ele>
        <time>2022-08-14T06:55:40Z</time>
      </trkpt>
      <trkpt lat="43.91926" lon="1.86785">
        <ele>182.4</ele>
        <time>2022-08-14T06:55:41Z</time>
      </trkpt>
      <trkpt lat="43.91921" lon="1.8678">
        <ele>181.8</ele>
        <time>2022-08-14T06:55:42Z</time>
      </trkpt>
      <trkpt lat="43.91916" lon="1.86777">
        <ele>181.6</ele>
        <time>2022-08-14T06:55:43Z</time>
      </trkpt>
      <trkpt lat="43.91911" lon="1.86774">
        <ele>180.8</ele>
        <time>2022-08-14T06:55:44Z</time>
      </trkpt>
      <trkpt lat="43.91906" lon="1.86772">
        <ele>180.6</ele>
        <time>2022-08-14T06:55:45Z</time>
      </trkpt>
      <trkpt lat="43.919" lon="1.8677">
        <ele>179.4</ele>
        <time>2022-08-14T06:55:46Z</time>
      </trkpt>
      <trkpt lat="43.91887" lon="1.8677">
        <ele>178</ele>
        <time>2022-08-14T06:55:48Z</time>
      </trkpt>
      <trkpt lat="43.91874" lon="1.8677">
        <ele>177.2</ele>
        <time>2022-08-14T06:55:50Z</time>
      </trkpt>
      <trkpt lat="43.91868" lon="1.8677">
        <ele>176.6</ele>
        <time>2022-08-14T06:55:51Z</time>
      </trkpt>
      <trkpt lat="43.91856" lon="1.86769">
        <ele>175.6</ele>
        <time>2022-08-14T06:55:53Z</time>
      </trkpt>
      <trkpt lat="43.91844" lon="1.86765">
        <ele>174.6</ele>
        <time>2022-08-14T06:55:55Z</time>
      </trkpt>
      <trkpt lat="43.91838" lon="1.86761">
        <ele>174.2</ele>
        <time>2022-08-14T06:55:56Z</time>
      </trkpt>
      <trkpt lat="43.91825" lon="1.86753">
        <ele>172</ele>
        <time>2022-08-14T06:55:58Z</time>
      </trkpt>
      <trkpt lat="43.91819" lon="1.86749">
        <ele>171.6</ele>
        <time>2022-08-14T06:55:59Z</time>
      </trkpt>
      <trkpt lat="43.91814" lon="1.86745">
        <ele>170.4</ele>
        <time>2022-08-14T06:56:00Z</time>
      </trkpt>
      <trkpt lat="43.9181" lon="1.86742">
        <ele>170</ele>
        <time>2022-08-14T06:56:01Z</time>
      </trkpt>
      <trkpt lat="43.91806" lon="1.86739">
        <ele>169.4</ele>
        <time>2022-08-14T06:56:02Z</time>
      </trkpt>
      <trkpt lat="43.91804" lon="1.86736">
        <ele>168.8</ele>
        <time>2022-08-14T06:56:03Z</time>
      </trkpt>
      <trkpt lat="43.91802" lon="1.86732">
        <ele>168.8</ele>
        <time>2022-08-14T06:56:04Z</time>
      </trkpt>
      <trkpt lat="43.91802" lon="1.86729">
        <ele>168.4</ele>
        <time>2022-08-14T06:56:05Z</time>
      </trkpt>
      <trkpt lat="43.91803" lon="1.86726">
        <ele>168</ele>
        <time>2022-08-14T06:56:06Z</time>
      </trkpt>
      <trkpt lat="43.91804" lon="1.86724">
        <ele>167.6</ele>
        <time>2022-08-14T06:56:07Z</time>
      </trkpt>
      <trkpt lat="43.91806" lon="1.86722">
        <ele>167.4</ele>
        <time>2022-08-14T06:56:08Z</time>
      </trkpt>
      <trkpt lat="43.91807" lon="1.86719">
        <ele>167.2</ele>
        <time>2022-08-14T06:56:09Z</time>
      </trkpt>
      <trkpt lat="43.91809" lon="1.86715">
        <ele>167.2</ele>
        <time>2022-08-14T06:56:10Z</time>
      </trkpt>
      <trkpt lat="43.91813" lon="1.86705">
        <ele>166.8</ele>
        <time>2022-08-14T06:56:13Z</time>
      </trkpt>
      <trkpt lat="43.91814" lon="1.86701">
        <ele>166.6</ele>
        <time>2022-08-14T06:56:14Z</time>
      </trkpt>
      <trkpt lat="43.91817" lon="1.86693">
        <ele>166.6</ele>
        <time>2022-08-14T06:56:16Z</time>
      </trkpt>
      <trkpt lat="43.91818" lon="1.86689">
        <ele>166.6</ele>
        <time>2022-08-14T06:56:17Z</time>
      </trkpt>
      <trkpt lat="43.9182" lon="1.86686">
        <ele>166.6</ele>
        <time>2022-08-14T06:56:18Z</time>
      </trkpt>
      <trkpt lat="43.91821" lon="1.86683">
        <ele>166.6</ele>
        <time>2022-08-14T06:56:19Z</time>
      </trkpt>
      <trkpt lat="43.91822" lon="1.86679">
        <ele>166.8</ele>
        <time>2022-08-14T06:56:20Z</time>
      </trkpt>
      <trkpt lat="43.91823" lon="1.86677">
        <ele>166.8</ele>
        <time>2022-08-14T06:56:21Z</time>
      </trkpt>
      <trkpt lat="43.91824" lon="1.86674">
        <ele>167</ele>
        <time>2022-08-14T06:56:22Z</time>
      </trkpt>
      <trkpt lat="43.91832" lon="1.86658">
        <ele>167.4</ele>
        <time>2022-08-14T06:56:27Z</time>
      </trkpt>
      <trkpt lat="43.91834" lon="1.86651">
        <ele>167.4</ele>
        <time>2022-08-14T06:56:29Z</time>
      </trkpt>
      <trkpt lat="43.91837" lon="1.86644">
        <ele>167.6</ele>
        <time>2022-08-14T06:56:31Z</time>
      </trkpt>
      <trkpt lat="43.91839" lon="1.86641">
        <ele>167.8</ele>
        <time>2022-08-14T06:56:32Z</time>
      </trkpt>
      <trkpt lat="43.9184" lon="1.86638">
        <ele>167.8</ele>
        <time>2022-08-14T06:56:33Z</time>
      </trkpt>
      <trkpt lat="43.91841" lon="1.86634">
        <ele>167.8</ele>
        <time>2022-08-14T06:56:34Z</time>
      </trkpt>
      <trkpt lat="43.91844" lon="1.86627">
        <ele>168.2</ele>
        <time>2022-08-14T06:56:36Z</time>
      </trkpt>
      <trkpt lat="43.91845" lon="1.86623">
        <ele>168.2</ele>
        <time>2022-08-14T06:56:37Z</time>
      </trkpt>
      <trkpt lat="43.91846" lon="1.8662">
        <ele>168.2</ele>
        <time>2022-08-14T06:56:38Z</time>
      </trkpt>
      <trkpt lat="43.91847" lon="1.86618">
        <ele>168.2</ele>
        <time>2022-08-14T06:56:39Z</time>
      </trkpt>
      <trkpt lat="43.91848" lon="1.86615">
        <ele>168.2</ele>
        <time>2022-08-14T06:56:40Z</time>
      </trkpt>
      <trkpt lat="43.91854" lon="1.86599">
        <ele>168.6</ele>
        <time>2022-08-14T06:56:45Z</time>
      </trkpt>
      <trkpt lat="43.91855" lon="1.86596">
        <ele>168.8</ele>
        <time>2022-08-14T06:56:46Z</time>
      </trkpt>
      <trkpt lat="43.91858" lon="1.86589">
        <ele>169</ele>
        <time>2022-08-14T06:56:48Z</time>
      </trkpt>
      <trkpt lat="43.9186" lon="1.86583">
        <ele>169.2</ele>
        <time>2022-08-14T06:56:50Z</time>
      </trkpt>
      <trkpt lat="43.91861" lon="1.8658">
        <ele>169.4</ele>
        <time>2022-08-14T06:56:51Z</time>
      </trkpt>
      <trkpt lat="43.91862" lon="1.86577">
        <ele>169.6</ele>
        <time>2022-08-14T06:56:52Z</time>
      </trkpt>
      <trkpt lat="43.91863" lon="1.86574">
        <ele>169.6</ele>
        <time>2022-08-14T06:56:53Z</time>
      </trkpt>
      <trkpt lat="43.91865" lon="1.86571">
        <ele>169.6</ele>
        <time>2022-08-14T06:56:54Z</time>
      </trkpt>
      <trkpt lat="43.91868" lon="1.86566">
        <ele>169.8</ele>
        <time>2022-08-14T06:56:56Z</time>
      </trkpt>
      <trkpt lat="43.9187" lon="1.8656">
        <ele>170.2</ele>
        <time>2022-08-14T06:56:58Z</time>
      </trkpt>
      <trkpt lat="43.91875" lon="1.86553">
        <ele>170.4</ele>
        <time>2022-08-14T06:57:01Z</time>
      </trkpt>
      <trkpt lat="43.91876" lon="1.8655">
        <ele>170.6</ele>
        <time>2022-08-14T06:57:02Z</time>
      </trkpt>
      <trkpt lat="43.91879" lon="1.86545">
        <ele>170.8</ele>
        <time>2022-08-14T06:57:04Z</time>
      </trkpt>
      <trkpt lat="43.9188" lon="1.86542">
        <ele>171</ele>
        <time>2022-08-14T06:57:05Z</time>
      </trkpt>
      <trkpt lat="43.91882" lon="1.86539">
        <ele>171</ele>
        <time>2022-08-14T06:57:06Z</time>
      </trkpt>
      <trkpt lat="43.91883" lon="1.86537">
        <ele>171.2</ele>
        <time>2022-08-14T06:57:07Z</time>
      </trkpt>
      <trkpt lat="43.91884" lon="1.86534">
        <ele>171.2</ele>
        <time>2022-08-14T06:57:08Z</time>
      </trkpt>
      <trkpt lat="43.91886" lon="1.86532">
        <ele>171.2</ele>
        <time>2022-08-14T06:57:09Z</time>
      </trkpt>
      <trkpt lat="43.91887" lon="1.8653">
        <ele>171.4</ele>
        <time>2022-08-14T06:57:10Z</time>
      </trkpt>
      <trkpt lat="43.91888" lon="1.86527">
        <ele>171.4</ele>
        <time>2022-08-14T06:57:11Z</time>
      </trkpt>
      <trkpt lat="43.9189" lon="1.86525">
        <ele>171.6</ele>
        <time>2022-08-14T06:57:12Z</time>
      </trkpt>
      <trkpt lat="43.91892" lon="1.86523">
        <ele>171.6</ele>
        <time>2022-08-14T06:57:13Z</time>
      </trkpt>
      <trkpt lat="43.91893" lon="1.8652">
        <ele>171.8</ele>
        <time>2022-08-14T06:57:14Z</time>
      </trkpt>
      <trkpt lat="43.91895" lon="1.86518">
        <ele>171.8</ele>
        <time>2022-08-14T06:57:15Z</time>
      </trkpt>
      <trkpt lat="43.91896" lon="1.86515">
        <ele>172</ele>
        <time>2022-08-14T06:57:16Z</time>
      </trkpt>
      <trkpt lat="43.91897" lon="1.86513">
        <ele>172</ele>
        <time>2022-08-14T06:57:17Z</time>
      </trkpt>
      <trkpt lat="43.91898" lon="1.86511">
        <ele>172</ele>
        <time>2022-08-14T06:57:18Z</time>
      </trkpt>
      <trkpt lat="43.919" lon="1.86508">
        <ele>172</ele>
        <time>2022-08-14T06:57:19Z</time>
      </trkpt>
      <trkpt lat="43.91901" lon="1.86506">
        <ele>172.2</ele>
        <time>2022-08-14T06:57:20Z</time>
      </trkpt>
      <trkpt lat="43.91902" lon="1.86504">
        <ele>172.2</ele>
        <time>2022-08-14T06:57:21Z</time>
      </trkpt>
      <trkpt lat="43.91905" lon="1.86499">
        <ele>172.4</ele>
        <time>2022-08-14T06:57:23Z</time>
      </trkpt>
      <trkpt lat="43.91906" lon="1.86496">
        <ele>172.4</ele>
        <time>2022-08-14T06:57:24Z</time>
      </trkpt>
      <trkpt lat="43.9191" lon="1.86488">
        <ele>172.8</ele>
        <time>2022-08-14T06:57:27Z</time>
      </trkpt>
      <trkpt lat="43.91911" lon="1.86487">
        <ele>173</ele>
        <time>2022-08-14T06:57:28Z</time>
      </trkpt>
      <trkpt lat="43.91915" lon="1.86477">
        <ele>173.8</ele>
        <time>2022-08-14T06:57:32Z</time>
      </trkpt>
      <trkpt lat="43.91918" lon="1.86472">
        <ele>174</ele>
        <time>2022-08-14T06:57:34Z</time>
      </trkpt>
      <trkpt lat="43.91919" lon="1.8647">
        <ele>174</ele>
        <time>2022-08-14T06:57:35Z</time>
      </trkpt>
      <trkpt lat="43.9192" lon="1.86467">
        <ele>174.2</ele>
        <time>2022-08-14T06:57:36Z</time>
      </trkpt>
      <trkpt lat="43.91921" lon="1.86465">
        <ele>174.2</ele>
        <time>2022-08-14T06:57:37Z</time>
      </trkpt>
      <trkpt lat="43.91922" lon="1.86463">
        <ele>174.4</ele>
        <time>2022-08-14T06:57:38Z</time>
      </trkpt>
      <trkpt lat="43.91924" lon="1.86461">
        <ele>174.4</ele>
        <time>2022-08-14T06:57:39Z</time>
      </trkpt>
      <trkpt lat="43.91925" lon="1.86459">
        <ele>174.6</ele>
        <time>2022-08-14T06:57:40Z</time>
      </trkpt>
      <trkpt lat="43.91926" lon="1.86457">
        <ele>174.6</ele>
        <time>2022-08-14T06:57:41Z</time>
      </trkpt>
      <trkpt lat="43.91927" lon="1.86455">
        <ele>174.6</ele>
        <time>2022-08-14T06:57:42Z</time>
      </trkpt>
      <trkpt lat="43.91929" lon="1.86453">
        <ele>174.8</ele>
        <time>2022-08-14T06:57:43Z</time>
      </trkpt>
      <trkpt lat="43.9193" lon="1.8645">
        <ele>174.8</ele>
        <time>2022-08-14T06:57:44Z</time>
      </trkpt>
      <trkpt lat="43.91931" lon="1.86448">
        <ele>174.8</ele>
        <time>2022-08-14T06:57:45Z</time>
      </trkpt>
      <trkpt lat="43.91932" lon="1.86446">
        <ele>174.8</ele>
        <time>2022-08-14T06:57:46Z</time>
      </trkpt>
      <trkpt lat="43.91933" lon="1.86444">
        <ele>174.8</ele>
        <time>2022-08-14T06:57:47Z</time>
      </trkpt>
      <trkpt lat="43.91934" lon="1.86442">
        <ele>175.2</ele>
        <time>2022-08-14T06:57:48Z</time>
      </trkpt>
      <trkpt lat="43.91935" lon="1.8644">
        <ele>175</ele>
        <time>2022-08-14T06:57:49Z</time>
      </trkpt>
      <trkpt lat="43.91937" lon="1.86438">
        <ele>175.2</ele>
        <time>2022-08-14T06:57:50Z</time>
      </trkpt>
      <trkpt lat="43.91938" lon="1.86435">
        <ele>175.2</ele>
        <time>2022-08-14T06:57:51Z</time>
      </trkpt>
      <trkpt lat="43.91939" lon="1.86433">
        <ele>175.4</ele>
        <time>2022-08-14T06:57:52Z</time>
      </trkpt>
      <trkpt lat="43.91941" lon="1.86431">
        <ele>175.4</ele>
        <time>2022-08-14T06:57:53Z</time>
      </trkpt>
      <trkpt lat="43.91944" lon="1.86427">
        <ele>175.6</ele>
        <time>2022-08-14T06:57:55Z</time>
      </trkpt>
      <trkpt lat="43.91946" lon="1.86425">
        <ele>175.8</ele>
        <time>2022-08-14T06:57:56Z</time>
      </trkpt>
      <trkpt lat="43.91947" lon="1.86423">
        <ele>175.8</ele>
        <time>2022-08-14T06:57:57Z</time>
      </trkpt>
      <trkpt lat="43.91948" lon="1.8642">
        <ele>176</ele>
        <time>2022-08-14T06:57:58Z</time>
      </trkpt>
      <trkpt lat="43.91956" lon="1.8641">
        <ele>176.2</ele>
        <time>2022-08-14T06:58:03Z</time>
      </trkpt>
      <trkpt lat="43.91959" lon="1.86406">
        <ele>176.6</ele>
        <time>2022-08-14T06:58:05Z</time>
      </trkpt>
      <trkpt lat="43.91961" lon="1.86405">
        <ele>176.8</ele>
        <time>2022-08-14T06:58:06Z</time>
      </trkpt>
      <trkpt lat="43.91962" lon="1.86403">
        <ele>176.8</ele>
        <time>2022-08-14T06:58:07Z</time>
      </trkpt>
      <trkpt lat="43.91965" lon="1.86399">
        <ele>177</ele>
        <time>2022-08-14T06:58:09Z</time>
      </trkpt>
      <trkpt lat="43.91966" lon="1.86398">
        <ele>177</ele>
        <time>2022-08-14T06:58:10Z</time>
      </trkpt>
      <trkpt lat="43.91968" lon="1.86396">
        <ele>177.2</ele>
        <time>2022-08-14T06:58:11Z</time>
      </trkpt>
      <trkpt lat="43.91969" lon="1.86394">
        <ele>177.2</ele>
        <time>2022-08-14T06:58:12Z</time>
      </trkpt>
      <trkpt lat="43.9197" lon="1.86393">
        <ele>177.4</ele>
        <time>2022-08-14T06:58:13Z</time>
      </trkpt>
      <trkpt lat="43.91976" lon="1.86387">
        <ele>178</ele>
        <time>2022-08-14T06:58:17Z</time>
      </trkpt>
      <trkpt lat="43.91978" lon="1.86385">
        <ele>178.2</ele>
        <time>2022-08-14T06:58:18Z</time>
      </trkpt>
      <trkpt lat="43.91979" lon="1.86384">
        <ele>178.2</ele>
        <time>2022-08-14T06:58:19Z</time>
      </trkpt>
      <trkpt lat="43.91981" lon="1.86382">
        <ele>178.2</ele>
        <time>2022-08-14T06:58:20Z</time>
      </trkpt>
      <trkpt lat="43.91982" lon="1.8638">
        <ele>178.4</ele>
        <time>2022-08-14T06:58:21Z</time>
      </trkpt>
      <trkpt lat="43.91983" lon="1.86379">
        <ele>178.6</ele>
        <time>2022-08-14T06:58:22Z</time>
      </trkpt>
      <trkpt lat="43.91984" lon="1.86377">
        <ele>178.8</ele>
        <time>2022-08-14T06:58:23Z</time>
      </trkpt>
      <trkpt lat="43.91985" lon="1.86375">
        <ele>178.8</ele>
        <time>2022-08-14T06:58:24Z</time>
      </trkpt>
      <trkpt lat="43.91987" lon="1.86373">
        <ele>179</ele>
        <time>2022-08-14T06:58:25Z</time>
      </trkpt>
      <trkpt lat="43.91988" lon="1.86371">
        <ele>179.2</ele>
        <time>2022-08-14T06:58:26Z</time>
      </trkpt>
      <trkpt lat="43.91989" lon="1.86368">
        <ele>179.2</ele>
        <time>2022-08-14T06:58:27Z</time>
      </trkpt>
      <trkpt lat="43.9199" lon="1.86366">
        <ele>179.4</ele>
        <time>2022-08-14T06:58:28Z</time>
      </trkpt>
      <trkpt lat="43.91991" lon="1.86364">
        <ele>179.4</ele>
        <time>2022-08-14T06:58:29Z</time>
      </trkpt>
      <trkpt lat="43.91992" lon="1.86362">
        <ele>179.6</ele>
        <time>2022-08-14T06:58:30Z</time>
      </trkpt>
      <trkpt lat="43.91992" lon="1.8636">
        <ele>179.6</ele>
        <time>2022-08-14T06:58:31Z</time>
      </trkpt>
      <trkpt lat="43.91993" lon="1.86359">
        <ele>179.8</ele>
        <time>2022-08-14T06:58:32Z</time>
      </trkpt>
      <trkpt lat="43.91994" lon="1.86357">
        <ele>180</ele>
        <time>2022-08-14T06:58:33Z</time>
      </trkpt>
      <trkpt lat="43.91995" lon="1.86355">
        <ele>180.2</ele>
        <time>2022-08-14T06:58:34Z</time>
      </trkpt>
      <trkpt lat="43.91996" lon="1.86352">
        <ele>180.2</ele>
        <time>2022-08-14T06:58:35Z</time>
      </trkpt>
      <trkpt lat="43.91997" lon="1.8635">
        <ele>180.4</ele>
        <time>2022-08-14T06:58:36Z</time>
      </trkpt>
      <trkpt lat="43.91998" lon="1.86347">
        <ele>180.4</ele>
        <time>2022-08-14T06:58:37Z</time>
      </trkpt>
      <trkpt lat="43.91999" lon="1.86345">
        <ele>180.6</ele>
        <time>2022-08-14T06:58:38Z</time>
      </trkpt>
      <trkpt lat="43.92" lon="1.86343">
        <ele>180.8</ele>
        <time>2022-08-14T06:58:39Z</time>
      </trkpt>
      <trkpt lat="43.92001" lon="1.86341">
        <ele>181</ele>
        <time>2022-08-14T06:58:40Z</time>
      </trkpt>
      <trkpt lat="43.92001" lon="1.86338">
        <ele>181.2</ele>
        <time>2022-08-14T06:58:41Z</time>
      </trkpt>
      <trkpt lat="43.92002" lon="1.86335">
        <ele>181.2</ele>
        <time>2022-08-14T06:58:42Z</time>
      </trkpt>
      <trkpt lat="43.92003" lon="1.86333">
        <ele>181.4</ele>
        <time>2022-08-14T06:58:43Z</time>
      </trkpt>
      <trkpt lat="43.92004" lon="1.8633">
        <ele>181.4</ele>
        <time>2022-08-14T06:58:44Z</time>
      </trkpt>
      <trkpt lat="43.92005" lon="1.86327">
        <ele>181.8</ele>
        <time>2022-08-14T06:58:45Z</time>
      </trkpt>
      <trkpt lat="43.92005" lon="1.86325">
        <ele>182.2</ele>
        <time>2022-08-14T06:58:46Z</time>
      </trkpt>
      <trkpt lat="43.92006" lon="1.86322">
        <ele>182.2</ele>
        <time>2022-08-14T06:58:47Z</time>
      </trkpt>
      <trkpt lat="43.92007" lon="1.86319">
        <ele>182.4</ele>
        <time>2022-08-14T06:58:48Z</time>
      </trkpt>
      <trkpt lat="43.92008" lon="1.86317">
        <ele>182.6</ele>
        <time>2022-08-14T06:58:49Z</time>
      </trkpt>
      <trkpt lat="43.92009" lon="1.86315">
        <ele>182.8</ele>
        <time>2022-08-14T06:58:50Z</time>
      </trkpt>
      <trkpt lat="43.92009" lon="1.86313">
        <ele>182.8</ele>
        <time>2022-08-14T06:58:51Z</time>
      </trkpt>
      <trkpt lat="43.9201" lon="1.8631">
        <ele>183</ele>
        <time>2022-08-14T06:58:52Z</time>
      </trkpt>
      <trkpt lat="43.92011" lon="1.86307">
        <ele>183</ele>
        <time>2022-08-14T06:58:53Z</time>
      </trkpt>
      <trkpt lat="43.92012" lon="1.86305">
        <ele>183.2</ele>
        <time>2022-08-14T06:58:54Z</time>
      </trkpt>
      <trkpt lat="43.92013" lon="1.86302">
        <ele>183.2</ele>
        <time>2022-08-14T06:58:55Z</time>
      </trkpt>
      <trkpt lat="43.92014" lon="1.863">
        <ele>183.4</ele>
        <time>2022-08-14T06:58:56Z</time>
      </trkpt>
      <trkpt lat="43.92015" lon="1.86297">
        <ele>183.6</ele>
        <time>2022-08-14T06:58:57Z</time>
      </trkpt>
      <trkpt lat="43.92015" lon="1.86295">
        <ele>183.6</ele>
        <time>2022-08-14T06:58:58Z</time>
      </trkpt>
      <trkpt lat="43.92016" lon="1.86292">
        <ele>183.8</ele>
        <time>2022-08-14T06:58:59Z</time>
      </trkpt>
      <trkpt lat="43.92017" lon="1.8629">
        <ele>184</ele>
        <time>2022-08-14T06:59:00Z</time>
      </trkpt>
      <trkpt lat="43.92018" lon="1.86288">
        <ele>184.2</ele>
        <time>2022-08-14T06:59:01Z</time>
      </trkpt>
      <trkpt lat="43.92019" lon="1.86285">
        <ele>184.4</ele>
        <time>2022-08-14T06:59:02Z</time>
      </trkpt>
      <trkpt lat="43.9202" lon="1.86283">
        <ele>184.4</ele>
        <time>2022-08-14T06:59:03Z</time>
      </trkpt>
      <trkpt lat="43.92021" lon="1.86281">
        <ele>184.6</ele>
        <time>2022-08-14T06:59:04Z</time>
      </trkpt>
      <trkpt lat="43.92022" lon="1.86278">
        <ele>184.8</ele>
        <time>2022-08-14T06:59:05Z</time>
      </trkpt>
      <trkpt lat="43.92023" lon="1.86276">
        <ele>184.8</ele>
        <time>2022-08-14T06:59:06Z</time>
      </trkpt>
      <trkpt lat="43.92025" lon="1.86273">
        <ele>185</ele>
        <time>2022-08-14T06:59:07Z</time>
      </trkpt>
      <trkpt lat="43.92026" lon="1.86272">
        <ele>185.2</ele>
        <time>2022-08-14T06:59:08Z</time>
      </trkpt>
      <trkpt lat="43.92027" lon="1.86269">
        <ele>185.4</ele>
        <time>2022-08-14T06:59:09Z</time>
      </trkpt>
      <trkpt lat="43.92028" lon="1.86267">
        <ele>185.6</ele>
        <time>2022-08-14T06:59:10Z</time>
      </trkpt>
      <trkpt lat="43.92028" lon="1.86265">
        <ele>185.8</ele>
        <time>2022-08-14T06:59:11Z</time>
      </trkpt>
      <trkpt lat="43.9203" lon="1.86263">
        <ele>186</ele>
        <time>2022-08-14T06:59:12Z</time>
      </trkpt>
      <trkpt lat="43.92031" lon="1.86261">
        <ele>186.2</ele>
        <time>2022-08-14T06:59:13Z</time>
      </trkpt>
      <trkpt lat="43.92032" lon="1.86258">
        <ele>186.4</ele>
        <time>2022-08-14T06:59:14Z</time>
      </trkpt>
      <trkpt lat="43.92033" lon="1.86256">
        <ele>186.4</ele>
        <time>2022-08-14T06:59:15Z</time>
      </trkpt>
      <trkpt lat="43.92034" lon="1.86254">
        <ele>186.6</ele>
        <time>2022-08-14T06:59:16Z</time>
      </trkpt>
      <trkpt lat="43.92035" lon="1.86252">
        <ele>186.6</ele>
        <time>2022-08-14T06:59:17Z</time>
      </trkpt>
      <trkpt lat="43.92036" lon="1.86249">
        <ele>186.6</ele>
        <time>2022-08-14T06:59:18Z</time>
      </trkpt>
      <trkpt lat="43.92037" lon="1.86247">
        <ele>186.8</ele>
        <time>2022-08-14T06:59:19Z</time>
      </trkpt>
      <trkpt lat="43.92038" lon="1.86245">
        <ele>187</ele>
        <time>2022-08-14T06:59:20Z</time>
      </trkpt>
      <trkpt lat="43.92039" lon="1.86243">
        <ele>187</ele>
        <time>2022-08-14T06:59:21Z</time>
      </trkpt>
      <trkpt lat="43.9204" lon="1.86241">
        <ele>187.2</ele>
        <time>2022-08-14T06:59:22Z</time>
      </trkpt>
      <trkpt lat="43.92041" lon="1.86239">
        <ele>187.2</ele>
        <time>2022-08-14T06:59:23Z</time>
      </trkpt>
      <trkpt lat="43.92042" lon="1.86237">
        <ele>187.4</ele>
        <time>2022-08-14T06:59:24Z</time>
      </trkpt>
      <trkpt lat="43.92043" lon="1.86235">
        <ele>187.6</ele>
        <time>2022-08-14T06:59:25Z</time>
      </trkpt>
      <trkpt lat="43.92045" lon="1.86232">
        <ele>187.8</ele>
        <time>2022-08-14T06:59:26Z</time>
      </trkpt>
      <trkpt lat="43.92046" lon="1.8623">
        <ele>187.8</ele>
        <time>2022-08-14T06:59:27Z</time>
      </trkpt>
      <trkpt lat="43.92047" lon="1.86228">
        <ele>188</ele>
        <time>2022-08-14T06:59:28Z</time>
      </trkpt>
      <trkpt lat="43.92048" lon="1.86226">
        <ele>188</ele>
        <time>2022-08-14T06:59:29Z</time>
      </trkpt>
      <trkpt lat="43.92049" lon="1.86224">
        <ele>188.2</ele>
        <time>2022-08-14T06:59:30Z</time>
      </trkpt>
      <trkpt lat="43.9205" lon="1.86222">
        <ele>188.2</ele>
        <time>2022-08-14T06:59:31Z</time>
      </trkpt>
      <trkpt lat="43.92051" lon="1.8622">
        <ele>188.2</ele>
        <time>2022-08-14T06:59:32Z</time>
      </trkpt>
      <trkpt lat="43.92052" lon="1.86217">
        <ele>188.4</ele>
        <time>2022-08-14T06:59:33Z</time>
      </trkpt>
      <trkpt lat="43.92053" lon="1.86215">
        <ele>188.6</ele>
        <time>2022-08-14T06:59:34Z</time>
      </trkpt>
      <trkpt lat="43.92054" lon="1.86213">
        <ele>188.6</ele>
        <time>2022-08-14T06:59:35Z</time>
      </trkpt>
      <trkpt lat="43.92056" lon="1.86211">
        <ele>188.6</ele>
        <time>2022-08-14T06:59:36Z</time>
      </trkpt>
      <trkpt lat="43.92057" lon="1.86209">
        <ele>188.8</ele>
        <time>2022-08-14T06:59:37Z</time>
      </trkpt>
      <trkpt lat="43.92058" lon="1.86207">
        <ele>188.8</ele>
        <time>2022-08-14T06:59:38Z</time>
      </trkpt>
      <trkpt lat="43.92059" lon="1.86204">
        <ele>188.8</ele>
        <time>2022-08-14T06:59:39Z</time>
      </trkpt>
      <trkpt lat="43.9206" lon="1.86202">
        <ele>189</ele>
        <time>2022-08-14T06:59:40Z</time>
      </trkpt>
      <trkpt lat="43.92061" lon="1.862">
        <ele>189</ele>
        <time>2022-08-14T06:59:41Z</time>
      </trkpt>
      <trkpt lat="43.92063" lon="1.86198">
        <ele>189</ele>
        <time>2022-08-14T06:59:42Z</time>
      </trkpt>
      <trkpt lat="43.92064" lon="1.86196">
        <ele>189.2</ele>
        <time>2022-08-14T06:59:43Z</time>
      </trkpt>
      <trkpt lat="43.92065" lon="1.86194">
        <ele>189.4</ele>
        <time>2022-08-14T06:59:44Z</time>
      </trkpt>
      <trkpt lat="43.92066" lon="1.86192">
        <ele>189.6</ele>
        <time>2022-08-14T06:59:45Z</time>
      </trkpt>
      <trkpt lat="43.92067" lon="1.8619">
        <ele>189.6</ele>
        <time>2022-08-14T06:59:46Z</time>
      </trkpt>
      <trkpt lat="43.92069" lon="1.86187">
        <ele>190</ele>
        <time>2022-08-14T06:59:47Z</time>
      </trkpt>
      <trkpt lat="43.9207" lon="1.86185">
        <ele>190</ele>
        <time>2022-08-14T06:59:48Z</time>
      </trkpt>
      <trkpt lat="43.92072" lon="1.86184">
        <ele>190.2</ele>
        <time>2022-08-14T06:59:49Z</time>
      </trkpt>
      <trkpt lat="43.92073" lon="1.86182">
        <ele>190.4</ele>
        <time>2022-08-14T06:59:50Z</time>
      </trkpt>
      <trkpt lat="43.92074" lon="1.8618">
        <ele>190.4</ele>
        <time>2022-08-14T06:59:51Z</time>
      </trkpt>
      <trkpt lat="43.92075" lon="1.86178">
        <ele>190.6</ele>
        <time>2022-08-14T06:59:52Z</time>
      </trkpt>
      <trkpt lat="43.92076" lon="1.86176">
        <ele>190.6</ele>
        <time>2022-08-14T06:59:53Z</time>
      </trkpt>
      <trkpt lat="43.92078" lon="1.86174">
        <ele>190.8</ele>
        <time>2022-08-14T06:59:54Z</time>
      </trkpt>
      <trkpt lat="43.92079" lon="1.86171">
        <ele>190.8</ele>
        <time>2022-08-14T06:59:55Z</time>
      </trkpt>
      <trkpt lat="43.92081" lon="1.8617">
        <ele>191</ele>
        <time>2022-08-14T06:59:56Z</time>
      </trkpt>
      <trkpt lat="43.92082" lon="1.86168">
        <ele>191.2</ele>
        <time>2022-08-14T06:59:57Z</time>
      </trkpt>
      <trkpt lat="43.92083" lon="1.86166">
        <ele>191.2</ele>
        <time>2022-08-14T06:59:58Z</time>
      </trkpt>
      <trkpt lat="43.92084" lon="1.86164">
        <ele>191.4</ele>
        <time>2022-08-14T06:59:59Z</time>
      </trkpt>
      <trkpt lat="43.92086" lon="1.86162">
        <ele>191.4</ele>
        <time>2022-08-14T07:00:00Z</time>
      </trkpt>
      <trkpt lat="43.92087" lon="1.8616">
        <ele>191.6</ele>
        <time>2022-08-14T07:00:01Z</time>
      </trkpt>
      <trkpt lat="43.92088" lon="1.86158">
        <ele>191.6</ele>
        <time>2022-08-14T07:00:02Z</time>
      </trkpt>
      <trkpt lat="43.92089" lon="1.86155">
        <ele>191.8</ele>
        <time>2022-08-14T07:00:03Z</time>
      </trkpt>
      <trkpt lat="43.92091" lon="1.86154">
        <ele>191.8</ele>
        <time>2022-08-14T07:00:04Z</time>
      </trkpt>
      <trkpt lat="43.92092" lon="1.86152">
        <ele>191.8</ele>
        <time>2022-08-14T07:00:05Z</time>
      </trkpt>
      <trkpt lat="43.92093" lon="1.8615">
        <ele>192</ele>
        <time>2022-08-14T07:00:06Z</time>
      </trkpt>
      <trkpt lat="43.92095" lon="1.86148">
        <ele>192</ele>
        <time>2022-08-14T07:00:07Z</time>
      </trkpt>
      <trkpt lat="43.92096" lon="1.86145">
        <ele>192.2</ele>
        <time>2022-08-14T07:00:08Z</time>
      </trkpt>
      <trkpt lat="43.92097" lon="1.86144">
        <ele>192.4</ele>
        <time>2022-08-14T07:00:09Z</time>
      </trkpt>
      <trkpt lat="43.92098" lon="1.86142">
        <ele>192.4</ele>
        <time>2022-08-14T07:00:10Z</time>
      </trkpt>
      <trkpt lat="43.921" lon="1.86139">
        <ele>192.4</ele>
        <time>2022-08-14T07:00:11Z</time>
      </trkpt>
      <trkpt lat="43.92101" lon="1.86137">
        <ele>192.6</ele>
        <time>2022-08-14T07:00:12Z</time>
      </trkpt>
      <trkpt lat="43.92102" lon="1.86135">
        <ele>192.8</ele>
        <time>2022-08-14T07:00:13Z</time>
      </trkpt>
      <trkpt lat="43.92104" lon="1.86133">
        <ele>193</ele>
        <time>2022-08-14T07:00:14Z</time>
      </trkpt>
      <trkpt lat="43.92105" lon="1.86131">
        <ele>193.2</ele>
        <time>2022-08-14T07:00:15Z</time>
      </trkpt>
      <trkpt lat="43.92106" lon="1.86129">
        <ele>193.2</ele>
        <time>2022-08-14T07:00:16Z</time>
      </trkpt>
      <trkpt lat="43.92107" lon="1.86127">
        <ele>193.4</ele>
        <time>2022-08-14T07:00:17Z</time>
      </trkpt>
      <trkpt lat="43.92109" lon="1.86125">
        <ele>193.6</ele>
        <time>2022-08-14T07:00:18Z</time>
      </trkpt>
      <trkpt lat="43.9211" lon="1.86123">
        <ele>193.8</ele>
        <time>2022-08-14T07:00:19Z</time>
      </trkpt>
      <trkpt lat="43.92111" lon="1.86121">
        <ele>193.8</ele>
        <time>2022-08-14T07:00:20Z</time>
      </trkpt>
      <trkpt lat="43.92113" lon="1.86119">
        <ele>194</ele>
        <time>2022-08-14T07:00:21Z</time>
      </trkpt>
      <trkpt lat="43.92114" lon="1.86117">
        <ele>194.2</ele>
        <time>2022-08-14T07:00:22Z</time>
      </trkpt>
      <trkpt lat="43.92115" lon="1.86115">
        <ele>194.2</ele>
        <time>2022-08-14T07:00:23Z</time>
      </trkpt>
      <trkpt lat="43.92117" lon="1.86113">
        <ele>194.4</ele>
        <time>2022-08-14T07:00:24Z</time>
      </trkpt>
      <trkpt lat="43.92117" lon="1.86111">
        <ele>194.6</ele>
        <time>2022-08-14T07:00:25Z</time>
      </trkpt>
      <trkpt lat="43.92119" lon="1.86109">
        <ele>194.8</ele>
        <time>2022-08-14T07:00:26Z</time>
      </trkpt>
      <trkpt lat="43.92121" lon="1.86107">
        <ele>194.8</ele>
        <time>2022-08-14T07:00:27Z</time>
      </trkpt>
      <trkpt lat="43.92122" lon="1.86105">
        <ele>195</ele>
        <time>2022-08-14T07:00:28Z</time>
      </trkpt>
      <trkpt lat="43.92124" lon="1.86103">
        <ele>195.2</ele>
        <time>2022-08-14T07:00:29Z</time>
      </trkpt>
      <trkpt lat="43.92125" lon="1.86101">
        <ele>195.2</ele>
        <time>2022-08-14T07:00:30Z</time>
      </trkpt>
      <trkpt lat="43.92126" lon="1.86099">
        <ele>195.4</ele>
        <time>2022-08-14T07:00:31Z</time>
      </trkpt>
      <trkpt lat="43.92127" lon="1.86097">
        <ele>195.4</ele>
        <time>2022-08-14T07:00:32Z</time>
      </trkpt>
      <trkpt lat="43.92128" lon="1.86095">
        <ele>195.6</ele>
        <time>2022-08-14T07:00:33Z</time>
      </trkpt>
      <trkpt lat="43.9213" lon="1.86093">
        <ele>195.8</ele>
        <time>2022-08-14T07:00:34Z</time>
      </trkpt>
      <trkpt lat="43.92131" lon="1.86092">
        <ele>196</ele>
        <time>2022-08-14T07:00:35Z</time>
      </trkpt>
      <trkpt lat="43.92132" lon="1.8609">
        <ele>196</ele>
        <time>2022-08-14T07:00:36Z</time>
      </trkpt>
      <trkpt lat="43.92134" lon="1.86088">
        <ele>196</ele>
        <time>2022-08-14T07:00:37Z</time>
      </trkpt>
      <trkpt lat="43.92136" lon="1.86087">
        <ele>196.4</ele>
        <time>2022-08-14T07:00:38Z</time>
      </trkpt>
      <trkpt lat="43.92137" lon="1.86086">
        <ele>196.4</ele>
        <time>2022-08-14T07:00:39Z</time>
      </trkpt>
      <trkpt lat="43.92138" lon="1.86085">
        <ele>196.6</ele>
        <time>2022-08-14T07:00:40Z</time>
      </trkpt>
      <trkpt lat="43.92138" lon="1.86085">
        <ele>196.8</ele>
        <time>2022-08-14T07:00:41Z</time>
      </trkpt>
      <trkpt lat="43.92138" lon="1.86082">
        <ele>198</ele>
        <time>2022-08-14T07:00:52Z</time>
      </trkpt>
      <trkpt lat="43.92139" lon="1.8608">
        <ele>198</ele>
        <time>2022-08-14T07:00:53Z</time>
      </trkpt>
      <trkpt lat="43.9214" lon="1.86079">
        <ele>198</ele>
        <time>2022-08-14T07:00:54Z</time>
      </trkpt>
      <trkpt lat="43.92141" lon="1.86077">
        <ele>198</ele>
        <time>2022-08-14T07:00:55Z</time>
      </trkpt>
      <trkpt lat="43.92142" lon="1.86075">
        <ele>198</ele>
        <time>2022-08-14T07:00:56Z</time>
      </trkpt>
      <trkpt lat="43.92143" lon="1.86073">
        <ele>198</ele>
        <time>2022-08-14T07:00:57Z</time>
      </trkpt>
      <trkpt lat="43.92144" lon="1.86071">
        <ele>198</ele>
        <time>2022-08-14T07:00:58Z</time>
      </trkpt>
      <trkpt lat="43.92146" lon="1.86069">
        <ele>198.2</ele>
        <time>2022-08-14T07:00:59Z</time>
      </trkpt>
      <trkpt lat="43.92147" lon="1.86067">
        <ele>198.2</ele>
        <time>2022-08-14T07:01:00Z</time>
      </trkpt>
      <trkpt lat="43.92148" lon="1.86065">
        <ele>198.4</ele>
        <time>2022-08-14T07:01:01Z</time>
      </trkpt>
      <trkpt lat="43.9215" lon="1.86062">
        <ele>198.4</ele>
        <time>2022-08-14T07:01:02Z</time>
      </trkpt>
      <trkpt lat="43.92152" lon="1.86059">
        <ele>198.8</ele>
        <time>2022-08-14T07:01:04Z</time>
      </trkpt>
      <trkpt lat="43.92154" lon="1.86057">
        <ele>199</ele>
        <time>2022-08-14T07:01:05Z</time>
      </trkpt>
      <trkpt lat="43.92155" lon="1.86055">
        <ele>199.2</ele>
        <time>2022-08-14T07:01:06Z</time>
      </trkpt>
      <trkpt lat="43.92156" lon="1.86053">
        <ele>199.2</ele>
        <time>2022-08-14T07:01:07Z</time>
      </trkpt>
      <trkpt lat="43.92158" lon="1.86052">
        <ele>199.4</ele>
        <time>2022-08-14T07:01:08Z</time>
      </trkpt>
      <trkpt lat="43.92162" lon="1.86046">
        <ele>199.8</ele>
        <time>2022-08-14T07:01:11Z</time>
      </trkpt>
      <trkpt lat="43.92167" lon="1.86039">
        <ele>200</ele>
        <time>2022-08-14T07:01:14Z</time>
      </trkpt>
      <trkpt lat="43.92171" lon="1.86035">
        <ele>200.4</ele>
        <time>2022-08-14T07:01:16Z</time>
      </trkpt>
      <trkpt lat="43.92173" lon="1.86033">
        <ele>200.6</ele>
        <time>2022-08-14T07:01:17Z</time>
      </trkpt>
      <trkpt lat="43.92175" lon="1.86031">
        <ele>200.6</ele>
        <time>2022-08-14T07:01:18Z</time>
      </trkpt>
      <trkpt lat="43.92178" lon="1.86029">
        <ele>200.8</ele>
        <time>2022-08-14T07:01:19Z</time>
      </trkpt>
      <trkpt lat="43.92181" lon="1.86027">
        <ele>200.8</ele>
        <time>2022-08-14T07:01:20Z</time>
      </trkpt>
      <trkpt lat="43.92184" lon="1.86025">
        <ele>200.8</ele>
        <time>2022-08-14T07:01:21Z</time>
      </trkpt>
      <trkpt lat="43.92187" lon="1.86024">
        <ele>201</ele>
        <time>2022-08-14T07:01:22Z</time>
      </trkpt>
      <trkpt lat="43.92191" lon="1.86023">
        <ele>201</ele>
        <time>2022-08-14T07:01:23Z</time>
      </trkpt>
      <trkpt lat="43.92194" lon="1.86023">
        <ele>201</ele>
        <time>2022-08-14T07:01:24Z</time>
      </trkpt>
      <trkpt lat="43.92198" lon="1.86022">
        <ele>201.2</ele>
        <time>2022-08-14T07:01:25Z</time>
      </trkpt>
      <trkpt lat="43.92201" lon="1.86022">
        <ele>201.2</ele>
        <time>2022-08-14T07:01:26Z</time>
      </trkpt>
      <trkpt lat="43.92204" lon="1.86023">
        <ele>201.2</ele>
        <time>2022-08-14T07:01:27Z</time>
      </trkpt>
      <trkpt lat="43.92208" lon="1.86023">
        <ele>201.2</ele>
        <time>2022-08-14T07:01:28Z</time>
      </trkpt>
      <trkpt lat="43.92211" lon="1.86024">
        <ele>201.2</ele>
        <time>2022-08-14T07:01:29Z</time>
      </trkpt>
      <trkpt lat="43.92214" lon="1.86024">
        <ele>201.2</ele>
        <time>2022-08-14T07:01:30Z</time>
      </trkpt>
      <trkpt lat="43.92217" lon="1.86025">
        <ele>201.2</ele>
        <time>2022-08-14T07:01:31Z</time>
      </trkpt>
      <trkpt lat="43.9222" lon="1.86026">
        <ele>201.2</ele>
        <time>2022-08-14T07:01:32Z</time>
      </trkpt>
      <trkpt lat="43.92223" lon="1.86027">
        <ele>201.2</ele>
        <time>2022-08-14T07:01:33Z</time>
      </trkpt>
      <trkpt lat="43.92226" lon="1.86028">
        <ele>201.2</ele>
        <time>2022-08-14T07:01:34Z</time>
      </trkpt>
      <trkpt lat="43.92229" lon="1.8603">
        <ele>201.2</ele>
        <time>2022-08-14T07:01:35Z</time>
      </trkpt>
      <trkpt lat="43.92232" lon="1.86031">
        <ele>201.2</ele>
        <time>2022-08-14T07:01:36Z</time>
      </trkpt>
      <trkpt lat="43.92243" lon="1.86036">
        <ele>201.2</ele>
        <time>2022-08-14T07:01:40Z</time>
      </trkpt>
      <trkpt lat="43.92246" lon="1.86037">
        <ele>201.4</ele>
        <time>2022-08-14T07:01:41Z</time>
      </trkpt>
      <trkpt lat="43.9227" lon="1.86047">
        <ele>202</ele>
        <time>2022-08-14T07:01:48Z</time>
      </trkpt>
      <trkpt lat="43.92273" lon="1.86048">
        <ele>202</ele>
        <time>2022-08-14T07:01:49Z</time>
      </trkpt>
      <trkpt lat="43.9228" lon="1.86049">
        <ele>202.4</ele>
        <time>2022-08-14T07:01:51Z</time>
      </trkpt>
      <trkpt lat="43.92287" lon="1.86048">
        <ele>202.6</ele>
        <time>2022-08-14T07:01:53Z</time>
      </trkpt>
      <trkpt lat="43.9229" lon="1.86047">
        <ele>202.4</ele>
        <time>2022-08-14T07:01:54Z</time>
      </trkpt>
      <trkpt lat="43.92294" lon="1.86046">
        <ele>202.6</ele>
        <time>2022-08-14T07:01:55Z</time>
      </trkpt>
      <trkpt lat="43.923" lon="1.86042">
        <ele>202.4</ele>
        <time>2022-08-14T07:01:57Z</time>
      </trkpt>
      <trkpt lat="43.92303" lon="1.86039">
        <ele>202.8</ele>
        <time>2022-08-14T07:01:58Z</time>
      </trkpt>
      <trkpt lat="43.9231" lon="1.86035">
        <ele>203.2</ele>
        <time>2022-08-14T07:02:00Z</time>
      </trkpt>
      <trkpt lat="43.92312" lon="1.86033">
        <ele>203.2</ele>
        <time>2022-08-14T07:02:01Z</time>
      </trkpt>
      <trkpt lat="43.92315" lon="1.8603">
        <ele>203.2</ele>
        <time>2022-08-14T07:02:02Z</time>
      </trkpt>
      <trkpt lat="43.92317" lon="1.86028">
        <ele>203.4</ele>
        <time>2022-08-14T07:02:03Z</time>
      </trkpt>
      <trkpt lat="43.9232" lon="1.86026">
        <ele>203.4</ele>
        <time>2022-08-14T07:02:04Z</time>
      </trkpt>
      <trkpt lat="43.92325" lon="1.86022">
        <ele>203.6</ele>
        <time>2022-08-14T07:02:06Z</time>
      </trkpt>
      <trkpt lat="43.92342" lon="1.86002">
        <ele>204.2</ele>
        <time>2022-08-14T07:02:13Z</time>
      </trkpt>
      <trkpt lat="43.92345" lon="1.85999">
        <ele>204.2</ele>
        <time>2022-08-14T07:02:14Z</time>
      </trkpt>
      <trkpt lat="43.92346" lon="1.85995">
        <ele>204.4</ele>
        <time>2022-08-14T07:02:15Z</time>
      </trkpt>
      <trkpt lat="43.92348" lon="1.85992">
        <ele>204.4</ele>
        <time>2022-08-14T07:02:16Z</time>
      </trkpt>
      <trkpt lat="43.9235" lon="1.85989">
        <ele>204.6</ele>
        <time>2022-08-14T07:02:17Z</time>
      </trkpt>
      <trkpt lat="43.92352" lon="1.85986">
        <ele>204.8</ele>
        <time>2022-08-14T07:02:18Z</time>
      </trkpt>
      <trkpt lat="43.92361" lon="1.85969">
        <ele>205.2</ele>
        <time>2022-08-14T07:02:23Z</time>
      </trkpt>
      <trkpt lat="43.92364" lon="1.8596">
        <ele>205.2</ele>
        <time>2022-08-14T07:02:25Z</time>
      </trkpt>
      <trkpt lat="43.92368" lon="1.85948">
        <ele>205.6</ele>
        <time>2022-08-14T07:02:28Z</time>
      </trkpt>
      <trkpt lat="43.9237" lon="1.85944">
        <ele>205.6</ele>
        <time>2022-08-14T07:02:29Z</time>
      </trkpt>
      <trkpt lat="43.92371" lon="1.8594">
        <ele>205.6</ele>
        <time>2022-08-14T07:02:30Z</time>
      </trkpt>
      <trkpt lat="43.92375" lon="1.85929">
        <ele>205.8</ele>
        <time>2022-08-14T07:02:33Z</time>
      </trkpt>
      <trkpt lat="43.9238" lon="1.85912">
        <ele>206.4</ele>
        <time>2022-08-14T07:02:37Z</time>
      </trkpt>
      <trkpt lat="43.92381" lon="1.85908">
        <ele>206.6</ele>
        <time>2022-08-14T07:02:38Z</time>
      </trkpt>
      <trkpt lat="43.92382" lon="1.85905">
        <ele>206.6</ele>
        <time>2022-08-14T07:02:39Z</time>
      </trkpt>
      <trkpt lat="43.92384" lon="1.85902">
        <ele>206.6</ele>
        <time>2022-08-14T07:02:40Z</time>
      </trkpt>
      <trkpt lat="43.92385" lon="1.85899">
        <ele>206.6</ele>
        <time>2022-08-14T07:02:41Z</time>
      </trkpt>
      <trkpt lat="43.92386" lon="1.85896">
        <ele>206.8</ele>
        <time>2022-08-14T07:02:42Z</time>
      </trkpt>
      <trkpt lat="43.92387" lon="1.85893">
        <ele>207</ele>
        <time>2022-08-14T07:02:43Z</time>
      </trkpt>
      <trkpt lat="43.92387" lon="1.8589">
        <ele>207</ele>
        <time>2022-08-14T07:02:44Z</time>
      </trkpt>
      <trkpt lat="43.92389" lon="1.85884">
        <ele>207.2</ele>
        <time>2022-08-14T07:02:46Z</time>
      </trkpt>
      <trkpt lat="43.92391" lon="1.85877">
        <ele>207.4</ele>
        <time>2022-08-14T07:02:48Z</time>
      </trkpt>
      <trkpt lat="43.92391" lon="1.85874">
        <ele>207.6</ele>
        <time>2022-08-14T07:02:49Z</time>
      </trkpt>
      <trkpt lat="43.92392" lon="1.85871">
        <ele>207.6</ele>
        <time>2022-08-14T07:02:50Z</time>
      </trkpt>
      <trkpt lat="43.92392" lon="1.85867">
        <ele>207.8</ele>
        <time>2022-08-14T07:02:51Z</time>
      </trkpt>
      <trkpt lat="43.92392" lon="1.85864">
        <ele>207.8</ele>
        <time>2022-08-14T07:02:52Z</time>
      </trkpt>
      <trkpt lat="43.92393" lon="1.85861">
        <ele>208</ele>
        <time>2022-08-14T07:02:53Z</time>
      </trkpt>
      <trkpt lat="43.92393" lon="1.85857">
        <ele>208</ele>
        <time>2022-08-14T07:02:54Z</time>
      </trkpt>
      <trkpt lat="43.92392" lon="1.85853">
        <ele>208.6</ele>
        <time>2022-08-14T07:02:55Z</time>
      </trkpt>
      <trkpt lat="43.92392" lon="1.8585">
        <ele>208.6</ele>
        <time>2022-08-14T07:02:56Z</time>
      </trkpt>
      <trkpt lat="43.92392" lon="1.85846">
        <ele>208.8</ele>
        <time>2022-08-14T07:02:57Z</time>
      </trkpt>
      <trkpt lat="43.92392" lon="1.85843">
        <ele>209</ele>
        <time>2022-08-14T07:02:58Z</time>
      </trkpt>
      <trkpt lat="43.92392" lon="1.85839">
        <ele>209</ele>
        <time>2022-08-14T07:02:59Z</time>
      </trkpt>
      <trkpt lat="43.92391" lon="1.85836">
        <ele>209.4</ele>
        <time>2022-08-14T07:03:00Z</time>
      </trkpt>
      <trkpt lat="43.92391" lon="1.85832">
        <ele>209.4</ele>
        <time>2022-08-14T07:03:01Z</time>
      </trkpt>
      <trkpt lat="43.92391" lon="1.85829">
        <ele>209.8</ele>
        <time>2022-08-14T07:03:02Z</time>
      </trkpt>
      <trkpt lat="43.92391" lon="1.85825">
        <ele>209.8</ele>
        <time>2022-08-14T07:03:03Z</time>
      </trkpt>
      <trkpt lat="43.92391" lon="1.85822">
        <ele>210.2</ele>
        <time>2022-08-14T07:03:04Z</time>
      </trkpt>
      <trkpt lat="43.92391" lon="1.85819">
        <ele>210.4</ele>
        <time>2022-08-14T07:03:05Z</time>
      </trkpt>
      <trkpt lat="43.9239" lon="1.85816">
        <ele>210.4</ele>
        <time>2022-08-14T07:03:06Z</time>
      </trkpt>
      <trkpt lat="43.9239" lon="1.85814">
        <ele>210.6</ele>
        <time>2022-08-14T07:03:07Z</time>
      </trkpt>
      <trkpt lat="43.9239" lon="1.85812">
        <ele>210.6</ele>
        <time>2022-08-14T07:03:08Z</time>
      </trkpt>
      <trkpt lat="43.9239" lon="1.85809">
        <ele>210.6</ele>
        <time>2022-08-14T07:03:09Z</time>
      </trkpt>
      <trkpt lat="43.9239" lon="1.85807">
        <ele>210.8</ele>
        <time>2022-08-14T07:03:10Z</time>
      </trkpt>
      <trkpt lat="43.9239" lon="1.85804">
        <ele>210.8</ele>
        <time>2022-08-14T07:03:11Z</time>
      </trkpt>
      <trkpt lat="43.92389" lon="1.85802">
        <ele>210.8</ele>
        <time>2022-08-14T07:03:12Z</time>
      </trkpt>
      <trkpt lat="43.92389" lon="1.85799">
        <ele>211</ele>
        <time>2022-08-14T07:03:13Z</time>
      </trkpt>
      <trkpt lat="43.92389" lon="1.85796">
        <ele>211</ele>
        <time>2022-08-14T07:03:14Z</time>
      </trkpt>
      <trkpt lat="43.92389" lon="1.85793">
        <ele>211.2</ele>
        <time>2022-08-14T07:03:15Z</time>
      </trkpt>
      <trkpt lat="43.92389" lon="1.8579">
        <ele>211.2</ele>
        <time>2022-08-14T07:03:16Z</time>
      </trkpt>
      <trkpt lat="43.92389" lon="1.85788">
        <ele>211.2</ele>
        <time>2022-08-14T07:03:17Z</time>
      </trkpt>
      <trkpt lat="43.92389" lon="1.85785">
        <ele>211.4</ele>
        <time>2022-08-14T07:03:18Z</time>
      </trkpt>
      <trkpt lat="43.92388" lon="1.85781">
        <ele>211.4</ele>
        <time>2022-08-14T07:03:19Z</time>
      </trkpt>
      <trkpt lat="43.92388" lon="1.85779">
        <ele>211.4</ele>
        <time>2022-08-14T07:03:20Z</time>
      </trkpt>
      <trkpt lat="43.92388" lon="1.85776">
        <ele>211.6</ele>
        <time>2022-08-14T07:03:21Z</time>
      </trkpt>
      <trkpt lat="43.92388" lon="1.85774">
        <ele>211.6</ele>
        <time>2022-08-14T07:03:22Z</time>
      </trkpt>
      <trkpt lat="43.92388" lon="1.85771">
        <ele>211.8</ele>
        <time>2022-08-14T07:03:23Z</time>
      </trkpt>
      <trkpt lat="43.92388" lon="1.85768">
        <ele>212</ele>
        <time>2022-08-14T07:03:24Z</time>
      </trkpt>
      <trkpt lat="43.92387" lon="1.85766">
        <ele>212</ele>
        <time>2022-08-14T07:03:25Z</time>
      </trkpt>
      <trkpt lat="43.92387" lon="1.85763">
        <ele>212</ele>
        <time>2022-08-14T07:03:26Z</time>
      </trkpt>
      <trkpt lat="43.92387" lon="1.85761">
        <ele>212.2</ele>
        <time>2022-08-14T07:03:27Z</time>
      </trkpt>
      <trkpt lat="43.92387" lon="1.85758">
        <ele>212.4</ele>
        <time>2022-08-14T07:03:28Z</time>
      </trkpt>
      <trkpt lat="43.92387" lon="1.85756">
        <ele>212.6</ele>
        <time>2022-08-14T07:03:29Z</time>
      </trkpt>
      <trkpt lat="43.92388" lon="1.85754">
        <ele>212.6</ele>
        <time>2022-08-14T07:03:30Z</time>
      </trkpt>
      <trkpt lat="43.92388" lon="1.85753">
        <ele>212.6</ele>
        <time>2022-08-14T07:03:31Z</time>
      </trkpt>
      <trkpt lat="43.92388" lon="1.85751">
        <ele>212.8</ele>
        <time>2022-08-14T07:03:32Z</time>
      </trkpt>
      <trkpt lat="43.92388" lon="1.85749">
        <ele>212.8</ele>
        <time>2022-08-14T07:03:33Z</time>
      </trkpt>
      <trkpt lat="43.92389" lon="1.85747">
        <ele>213</ele>
        <time>2022-08-14T07:03:34Z</time>
      </trkpt>
      <trkpt lat="43.92389" lon="1.85746">
        <ele>213.2</ele>
        <time>2022-08-14T07:03:35Z</time>
      </trkpt>
      <trkpt lat="43.92389" lon="1.85744">
        <ele>213.2</ele>
        <time>2022-08-14T07:03:36Z</time>
      </trkpt>
      <trkpt lat="43.92389" lon="1.85742">
        <ele>213.4</ele>
        <time>2022-08-14T07:03:37Z</time>
      </trkpt>
      <trkpt lat="43.92388" lon="1.8574">
        <ele>213.6</ele>
        <time>2022-08-14T07:03:38Z</time>
      </trkpt>
      <trkpt lat="43.92388" lon="1.85738">
        <ele>213.8</ele>
        <time>2022-08-14T07:03:39Z</time>
      </trkpt>
      <trkpt lat="43.92388" lon="1.85736">
        <ele>214</ele>
        <time>2022-08-14T07:03:40Z</time>
      </trkpt>
      <trkpt lat="43.92389" lon="1.85734">
        <ele>214</ele>
        <time>2022-08-14T07:03:41Z</time>
      </trkpt>
      <trkpt lat="43.92388" lon="1.85733">
        <ele>214.2</ele>
        <time>2022-08-14T07:03:42Z</time>
      </trkpt>
      <trkpt lat="43.92388" lon="1.85731">
        <ele>214.2</ele>
        <time>2022-08-14T07:03:43Z</time>
      </trkpt>
      <trkpt lat="43.92389" lon="1.85729">
        <ele>214.4</ele>
        <time>2022-08-14T07:03:44Z</time>
      </trkpt>
      <trkpt lat="43.92389" lon="1.85727">
        <ele>214.6</ele>
        <time>2022-08-14T07:03:45Z</time>
      </trkpt>
      <trkpt lat="43.92389" lon="1.85725">
        <ele>215.2</ele>
        <time>2022-08-14T07:03:46Z</time>
      </trkpt>
      <trkpt lat="43.92389" lon="1.85723">
        <ele>215.6</ele>
        <time>2022-08-14T07:03:47Z</time>
      </trkpt>
      <trkpt lat="43.9239" lon="1.85721">
        <ele>215.8</ele>
        <time>2022-08-14T07:03:48Z</time>
      </trkpt>
      <trkpt lat="43.9239" lon="1.85719">
        <ele>215.8</ele>
        <time>2022-08-14T07:03:49Z</time>
      </trkpt>
      <trkpt lat="43.9239" lon="1.85717">
        <ele>216</ele>
        <time>2022-08-14T07:03:50Z</time>
      </trkpt>
      <trkpt lat="43.9239" lon="1.85716">
        <ele>216</ele>
        <time>2022-08-14T07:03:51Z</time>
      </trkpt>
      <trkpt lat="43.9239" lon="1.85714">
        <ele>216.2</ele>
        <time>2022-08-14T07:03:52Z</time>
      </trkpt>
      <trkpt lat="43.92391" lon="1.85712">
        <ele>216.4</ele>
        <time>2022-08-14T07:03:53Z</time>
      </trkpt>
      <trkpt lat="43.92391" lon="1.8571">
        <ele>216.4</ele>
        <time>2022-08-14T07:03:54Z</time>
      </trkpt>
      <trkpt lat="43.92391" lon="1.85709">
        <ele>216.6</ele>
        <time>2022-08-14T07:03:55Z</time>
      </trkpt>
      <trkpt lat="43.92391" lon="1.85707">
        <ele>216.8</ele>
        <time>2022-08-14T07:03:56Z</time>
      </trkpt>
      <trkpt lat="43.92392" lon="1.85706">
        <ele>217.2</ele>
        <time>2022-08-14T07:03:57Z</time>
      </trkpt>
      <trkpt lat="43.92392" lon="1.85705">
        <ele>217.2</ele>
        <time>2022-08-14T07:03:58Z</time>
      </trkpt>
      <trkpt lat="43.92393" lon="1.85704">
        <ele>217.4</ele>
        <time>2022-08-14T07:03:59Z</time>
      </trkpt>
      <trkpt lat="43.92393" lon="1.85702">
        <ele>217.6</ele>
        <time>2022-08-14T07:04:00Z</time>
      </trkpt>
      <trkpt lat="43.92393" lon="1.85701">
        <ele>217.8</ele>
        <time>2022-08-14T07:04:01Z</time>
      </trkpt>
      <trkpt lat="43.92393" lon="1.857">
        <ele>218</ele>
        <time>2022-08-14T07:04:02Z</time>
      </trkpt>
      <trkpt lat="43.92394" lon="1.85698">
        <ele>218</ele>
        <time>2022-08-14T07:04:03Z</time>
      </trkpt>
      <trkpt lat="43.92394" lon="1.85697">
        <ele>218.2</ele>
        <time>2022-08-14T07:04:04Z</time>
      </trkpt>
      <trkpt lat="43.92395" lon="1.85695">
        <ele>218.4</ele>
        <time>2022-08-14T07:04:05Z</time>
      </trkpt>
      <trkpt lat="43.92395" lon="1.85694">
        <ele>218.6</ele>
        <time>2022-08-14T07:04:06Z</time>
      </trkpt>
      <trkpt lat="43.92395" lon="1.85693">
        <ele>218.8</ele>
        <time>2022-08-14T07:04:07Z</time>
      </trkpt>
      <trkpt lat="43.92395" lon="1.85691">
        <ele>219.2</ele>
        <time>2022-08-14T07:04:08Z</time>
      </trkpt>
      <trkpt lat="43.92396" lon="1.85691">
        <ele>220.2</ele>
        <time>2022-08-14T07:04:45Z</time>
      </trkpt>
      <trkpt lat="43.92397" lon="1.85683">
        <ele>220.4</ele>
        <time>2022-08-14T07:04:50Z</time>
      </trkpt>
      <trkpt lat="43.924" lon="1.85667">
        <ele>221.2</ele>
        <time>2022-08-14T07:04:56Z</time>
      </trkpt>
      <trkpt lat="43.92401" lon="1.85666">
        <ele>221.6</ele>
        <time>2022-08-14T07:04:57Z</time>
      </trkpt>
      <trkpt lat="43.92402" lon="1.85664">
        <ele>221.6</ele>
        <time>2022-08-14T07:04:58Z</time>
      </trkpt>
      <trkpt lat="43.92403" lon="1.85663">
        <ele>222</ele>
        <time>2022-08-14T07:04:59Z</time>
      </trkpt>
      <trkpt lat="43.92404" lon="1.85661">
        <ele>222</ele>
        <time>2022-08-14T07:05:00Z</time>
      </trkpt>
      <trkpt lat="43.92405" lon="1.85656">
        <ele>222.2</ele>
        <time>2022-08-14T07:05:02Z</time>
      </trkpt>
      <trkpt lat="43.92408" lon="1.85651">
        <ele>222.8</ele>
        <time>2022-08-14T07:05:04Z</time>
      </trkpt>
      <trkpt lat="43.92412" lon="1.85644">
        <ele>223.2</ele>
        <time>2022-08-14T07:05:07Z</time>
      </trkpt>
      <trkpt lat="43.92413" lon="1.85642">
        <ele>223.4</ele>
        <time>2022-08-14T07:05:08Z</time>
      </trkpt>
      <trkpt lat="43.92414" lon="1.8564">
        <ele>223.6</ele>
        <time>2022-08-14T07:05:09Z</time>
      </trkpt>
      <trkpt lat="43.92415" lon="1.85638">
        <ele>223.8</ele>
        <time>2022-08-14T07:05:10Z</time>
      </trkpt>
      <trkpt lat="43.92416" lon="1.85637">
        <ele>224</ele>
        <time>2022-08-14T07:05:11Z</time>
      </trkpt>
      <trkpt lat="43.92418" lon="1.85634">
        <ele>224</ele>
        <time>2022-08-14T07:05:12Z</time>
      </trkpt>
      <trkpt lat="43.9242" lon="1.85631">
        <ele>224.2</ele>
        <time>2022-08-14T07:05:13Z</time>
      </trkpt>
      <trkpt lat="43.92421" lon="1.85629">
        <ele>224.4</ele>
        <time>2022-08-14T07:05:14Z</time>
      </trkpt>
      <trkpt lat="43.92423" lon="1.85626">
        <ele>224.6</ele>
        <time>2022-08-14T07:05:15Z</time>
      </trkpt>
      <trkpt lat="43.92425" lon="1.85623">
        <ele>224.8</ele>
        <time>2022-08-14T07:05:16Z</time>
      </trkpt>
      <trkpt lat="43.92427" lon="1.8562">
        <ele>225</ele>
        <time>2022-08-14T07:05:17Z</time>
      </trkpt>
      <trkpt lat="43.92429" lon="1.85617">
        <ele>225.4</ele>
        <time>2022-08-14T07:05:18Z</time>
      </trkpt>
      <trkpt lat="43.9243" lon="1.85615">
        <ele>225.6</ele>
        <time>2022-08-14T07:05:19Z</time>
      </trkpt>
      <trkpt lat="43.92432" lon="1.85611">
        <ele>225.8</ele>
        <time>2022-08-14T07:05:20Z</time>
      </trkpt>
      <trkpt lat="43.92434" lon="1.85608">
        <ele>225.8</ele>
        <time>2022-08-14T07:05:21Z</time>
      </trkpt>
      <trkpt lat="43.92436" lon="1.85606">
        <ele>226.2</ele>
        <time>2022-08-14T07:05:22Z</time>
      </trkpt>
      <trkpt lat="43.92437" lon="1.85603">
        <ele>226.4</ele>
        <time>2022-08-14T07:05:23Z</time>
      </trkpt>
      <trkpt lat="43.92439" lon="1.85601">
        <ele>226.8</ele>
        <time>2022-08-14T07:05:24Z</time>
      </trkpt>
      <trkpt lat="43.92441" lon="1.85599">
        <ele>227</ele>
        <time>2022-08-14T07:05:25Z</time>
      </trkpt>
      <trkpt lat="43.92442" lon="1.85596">
        <ele>227.2</ele>
        <time>2022-08-14T07:05:26Z</time>
      </trkpt>
      <trkpt lat="43.92444" lon="1.85593">
        <ele>227.4</ele>
        <time>2022-08-14T07:05:27Z</time>
      </trkpt>
      <trkpt lat="43.92445" lon="1.8559">
        <ele>227.6</ele>
        <time>2022-08-14T07:05:28Z</time>
      </trkpt>
      <trkpt lat="43.92446" lon="1.85588">
        <ele>228</ele>
        <time>2022-08-14T07:05:29Z</time>
      </trkpt>
      <trkpt lat="43.92448" lon="1.85585">
        <ele>228.2</ele>
        <time>2022-08-14T07:05:30Z</time>
      </trkpt>
      <trkpt lat="43.92449" lon="1.85582">
        <ele>228.4</ele>
        <time>2022-08-14T07:05:31Z</time>
      </trkpt>
      <trkpt lat="43.92451" lon="1.8558">
        <ele>228.6</ele>
        <time>2022-08-14T07:05:32Z</time>
      </trkpt>
      <trkpt lat="43.92452" lon="1.85578">
        <ele>228.8</ele>
        <time>2022-08-14T07:05:33Z</time>
      </trkpt>
      <trkpt lat="43.92453" lon="1.85576">
        <ele>229.2</ele>
        <time>2022-08-14T07:05:34Z</time>
      </trkpt>
      <trkpt lat="43.92454" lon="1.85573">
        <ele>229.8</ele>
        <time>2022-08-14T07:05:35Z</time>
      </trkpt>
      <trkpt lat="43.92455" lon="1.85571">
        <ele>230.4</ele>
        <time>2022-08-14T07:05:36Z</time>
      </trkpt>
      <trkpt lat="43.92456" lon="1.85569">
        <ele>230.6</ele>
        <time>2022-08-14T07:05:37Z</time>
      </trkpt>
      <trkpt lat="43.92457" lon="1.85567">
        <ele>230.8</ele>
        <time>2022-08-14T07:05:38Z</time>
      </trkpt>
      <trkpt lat="43.92458" lon="1.85565">
        <ele>231</ele>
        <time>2022-08-14T07:05:39Z</time>
      </trkpt>
      <trkpt lat="43.92458" lon="1.85563">
        <ele>231.4</ele>
        <time>2022-08-14T07:05:40Z</time>
      </trkpt>
      <trkpt lat="43.92459" lon="1.85561">
        <ele>231.4</ele>
        <time>2022-08-14T07:05:41Z</time>
      </trkpt>
      <trkpt lat="43.92459" lon="1.85558">
        <ele>231.6</ele>
        <time>2022-08-14T07:05:42Z</time>
      </trkpt>
      <trkpt lat="43.9246" lon="1.85556">
        <ele>232</ele>
        <time>2022-08-14T07:05:43Z</time>
      </trkpt>
      <trkpt lat="43.92461" lon="1.85554">
        <ele>232.2</ele>
        <time>2022-08-14T07:05:44Z</time>
      </trkpt>
      <trkpt lat="43.92462" lon="1.85552">
        <ele>232.6</ele>
        <time>2022-08-14T07:05:45Z</time>
      </trkpt>
      <trkpt lat="43.92463" lon="1.8555">
        <ele>232.8</ele>
        <time>2022-08-14T07:05:46Z</time>
      </trkpt>
      <trkpt lat="43.92464" lon="1.85548">
        <ele>233</ele>
        <time>2022-08-14T07:05:47Z</time>
      </trkpt>
      <trkpt lat="43.92464" lon="1.85546">
        <ele>233</ele>
        <time>2022-08-14T07:05:48Z</time>
      </trkpt>
      <trkpt lat="43.92465" lon="1.85543">
        <ele>233.4</ele>
        <time>2022-08-14T07:05:49Z</time>
      </trkpt>
      <trkpt lat="43.92466" lon="1.85541">
        <ele>233.8</ele>
        <time>2022-08-14T07:05:50Z</time>
      </trkpt>
      <trkpt lat="43.92467" lon="1.85539">
        <ele>234</ele>
        <time>2022-08-14T07:05:51Z</time>
      </trkpt>
      <trkpt lat="43.92468" lon="1.85538">
        <ele>234.2</ele>
        <time>2022-08-14T07:05:52Z</time>
      </trkpt>
      <trkpt lat="43.92469" lon="1.85536">
        <ele>234.2</ele>
        <time>2022-08-14T07:05:53Z</time>
      </trkpt>
      <trkpt lat="43.9247" lon="1.85534">
        <ele>234.6</ele>
        <time>2022-08-14T07:05:54Z</time>
      </trkpt>
      <trkpt lat="43.92471" lon="1.85532">
        <ele>234.8</ele>
        <time>2022-08-14T07:05:55Z</time>
      </trkpt>
      <trkpt lat="43.92472" lon="1.8553">
        <ele>235</ele>
        <time>2022-08-14T07:05:56Z</time>
      </trkpt>
      <trkpt lat="43.92474" lon="1.85528">
        <ele>235.2</ele>
        <time>2022-08-14T07:05:57Z</time>
      </trkpt>
      <trkpt lat="43.92475" lon="1.85526">
        <ele>235.6</ele>
        <time>2022-08-14T07:05:58Z</time>
      </trkpt>
      <trkpt lat="43.92476" lon="1.85525">
        <ele>236</ele>
        <time>2022-08-14T07:05:59Z</time>
      </trkpt>
      <trkpt lat="43.92477" lon="1.85522">
        <ele>236</ele>
        <time>2022-08-14T07:06:00Z</time>
      </trkpt>
      <trkpt lat="43.92478" lon="1.8552">
        <ele>236.4</ele>
        <time>2022-08-14T07:06:01Z</time>
      </trkpt>
      <trkpt lat="43.92479" lon="1.85518">
        <ele>236.6</ele>
        <time>2022-08-14T07:06:02Z</time>
      </trkpt>
      <trkpt lat="43.9248" lon="1.85517">
        <ele>237.2</ele>
        <time>2022-08-14T07:06:03Z</time>
      </trkpt>
      <trkpt lat="43.92481" lon="1.85514">
        <ele>237.4</ele>
        <time>2022-08-14T07:06:04Z</time>
      </trkpt>
      <trkpt lat="43.92481" lon="1.85512">
        <ele>237.6</ele>
        <time>2022-08-14T07:06:05Z</time>
      </trkpt>
      <trkpt lat="43.92482" lon="1.8551">
        <ele>237.8</ele>
        <time>2022-08-14T07:06:06Z</time>
      </trkpt>
      <trkpt lat="43.92483" lon="1.85508">
        <ele>238</ele>
        <time>2022-08-14T07:06:07Z</time>
      </trkpt>
      <trkpt lat="43.92484" lon="1.85506">
        <ele>238.2</ele>
        <time>2022-08-14T07:06:08Z</time>
      </trkpt>
      <trkpt lat="43.92485" lon="1.85503">
        <ele>238.4</ele>
        <time>2022-08-14T07:06:09Z</time>
      </trkpt>
      <trkpt lat="43.92486" lon="1.85501">
        <ele>238.8</ele>
        <time>2022-08-14T07:06:10Z</time>
      </trkpt>
      <trkpt lat="43.92488" lon="1.85499">
        <ele>239</ele>
        <time>2022-08-14T07:06:11Z</time>
      </trkpt>
      <trkpt lat="43.92489" lon="1.85497">
        <ele>239</ele>
        <time>2022-08-14T07:06:12Z</time>
      </trkpt>
      <trkpt lat="43.9249" lon="1.85496">
        <ele>239.2</ele>
        <time>2022-08-14T07:06:13Z</time>
      </trkpt>
      <trkpt lat="43.9249" lon="1.85494">
        <ele>239.4</ele>
        <time>2022-08-14T07:06:14Z</time>
      </trkpt>
      <trkpt lat="43.92492" lon="1.85492">
        <ele>239.6</ele>
        <time>2022-08-14T07:06:15Z</time>
      </trkpt>
      <trkpt lat="43.92493" lon="1.85489">
        <ele>239.6</ele>
        <time>2022-08-14T07:06:16Z</time>
      </trkpt>
      <trkpt lat="43.92494" lon="1.85488">
        <ele>240</ele>
        <time>2022-08-14T07:06:17Z</time>
      </trkpt>
      <trkpt lat="43.92494" lon="1.85485">
        <ele>240.2</ele>
        <time>2022-08-14T07:06:18Z</time>
      </trkpt>
      <trkpt lat="43.92495" lon="1.85483">
        <ele>240.8</ele>
        <time>2022-08-14T07:06:19Z</time>
      </trkpt>
      <trkpt lat="43.92495" lon="1.8548">
        <ele>240.8</ele>
        <time>2022-08-14T07:06:20Z</time>
      </trkpt>
      <trkpt lat="43.92496" lon="1.85478">
        <ele>241.2</ele>
        <time>2022-08-14T07:06:21Z</time>
      </trkpt>
      <trkpt lat="43.92497" lon="1.85475">
        <ele>241.4</ele>
        <time>2022-08-14T07:06:22Z</time>
      </trkpt>
      <trkpt lat="43.92497" lon="1.85473">
        <ele>241.6</ele>
        <time>2022-08-14T07:06:23Z</time>
      </trkpt>
      <trkpt lat="43.92498" lon="1.85471">
        <ele>241.8</ele>
        <time>2022-08-14T07:06:24Z</time>
      </trkpt>
      <trkpt lat="43.92498" lon="1.85469">
        <ele>242</ele>
        <time>2022-08-14T07:06:25Z</time>
      </trkpt>
      <trkpt lat="43.92499" lon="1.85466">
        <ele>242.2</ele>
        <time>2022-08-14T07:06:26Z</time>
      </trkpt>
      <trkpt lat="43.92499" lon="1.85462">
        <ele>242.4</ele>
        <time>2022-08-14T07:06:27Z</time>
      </trkpt>
      <trkpt lat="43.925" lon="1.85459">
        <ele>242.6</ele>
        <time>2022-08-14T07:06:28Z</time>
      </trkpt>
      <trkpt lat="43.92501" lon="1.85456">
        <ele>242.8</ele>
        <time>2022-08-14T07:06:29Z</time>
      </trkpt>
      <trkpt lat="43.92501" lon="1.85453">
        <ele>242.8</ele>
        <time>2022-08-14T07:06:30Z</time>
      </trkpt>
      <trkpt lat="43.92502" lon="1.8545">
        <ele>243</ele>
        <time>2022-08-14T07:06:31Z</time>
      </trkpt>
      <trkpt lat="43.92502" lon="1.85447">
        <ele>243</ele>
        <time>2022-08-14T07:06:32Z</time>
      </trkpt>
      <trkpt lat="43.92503" lon="1.85445">
        <ele>243.4</ele>
        <time>2022-08-14T07:06:33Z</time>
      </trkpt>
      <trkpt lat="43.92504" lon="1.85441">
        <ele>243.6</ele>
        <time>2022-08-14T07:06:34Z</time>
      </trkpt>
      <trkpt lat="43.92505" lon="1.85438">
        <ele>243.8</ele>
        <time>2022-08-14T07:06:35Z</time>
      </trkpt>
      <trkpt lat="43.92505" lon="1.85435">
        <ele>244</ele>
        <time>2022-08-14T07:06:36Z</time>
      </trkpt>
      <trkpt lat="43.92506" lon="1.85431">
        <ele>244.2</ele>
        <time>2022-08-14T07:06:37Z</time>
      </trkpt>
      <trkpt lat="43.92507" lon="1.85428">
        <ele>244.6</ele>
        <time>2022-08-14T07:06:38Z</time>
      </trkpt>
      <trkpt lat="43.92509" lon="1.85425">
        <ele>244.8</ele>
        <time>2022-08-14T07:06:39Z</time>
      </trkpt>
      <trkpt lat="43.9251" lon="1.85422">
        <ele>245.2</ele>
        <time>2022-08-14T07:06:40Z</time>
      </trkpt>
      <trkpt lat="43.92511" lon="1.85419">
        <ele>245.4</ele>
        <time>2022-08-14T07:06:41Z</time>
      </trkpt>
      <trkpt lat="43.92511" lon="1.85416">
        <ele>245.6</ele>
        <time>2022-08-14T07:06:42Z</time>
      </trkpt>
      <trkpt lat="43.92512" lon="1.85413">
        <ele>245.8</ele>
        <time>2022-08-14T07:06:43Z</time>
      </trkpt>
      <trkpt lat="43.92513" lon="1.8541">
        <ele>246.2</ele>
        <time>2022-08-14T07:06:44Z</time>
      </trkpt>
      <trkpt lat="43.92514" lon="1.85407">
        <ele>246.4</ele>
        <time>2022-08-14T07:06:45Z</time>
      </trkpt>
      <trkpt lat="43.92514" lon="1.85405">
        <ele>246.6</ele>
        <time>2022-08-14T07:06:46Z</time>
      </trkpt>
      <trkpt lat="43.92514" lon="1.85403">
        <ele>246.8</ele>
        <time>2022-08-14T07:06:47Z</time>
      </trkpt>
      <trkpt lat="43.92514" lon="1.85401">
        <ele>247</ele>
        <time>2022-08-14T07:06:48Z</time>
      </trkpt>
      <trkpt lat="43.92515" lon="1.85399">
        <ele>247.2</ele>
        <time>2022-08-14T07:06:49Z</time>
      </trkpt>
      <trkpt lat="43.92515" lon="1.85397">
        <ele>247.4</ele>
        <time>2022-08-14T07:06:50Z</time>
      </trkpt>
      <trkpt lat="43.92515" lon="1.85395">
        <ele>247.8</ele>
        <time>2022-08-14T07:06:51Z</time>
      </trkpt>
      <trkpt lat="43.92516" lon="1.85393">
        <ele>248</ele>
        <time>2022-08-14T07:06:52Z</time>
      </trkpt>
      <trkpt lat="43.92517" lon="1.85391">
        <ele>248.6</ele>
        <time>2022-08-14T07:06:53Z</time>
      </trkpt>
      <trkpt lat="43.92517" lon="1.85389">
        <ele>249</ele>
        <time>2022-08-14T07:06:54Z</time>
      </trkpt>
      <trkpt lat="43.92518" lon="1.85387">
        <ele>249.2</ele>
        <time>2022-08-14T07:06:55Z</time>
      </trkpt>
      <trkpt lat="43.92518" lon="1.85385">
        <ele>249.4</ele>
        <time>2022-08-14T07:06:56Z</time>
      </trkpt>
      <trkpt lat="43.92519" lon="1.85384">
        <ele>249.6</ele>
        <time>2022-08-14T07:06:57Z</time>
      </trkpt>
      <trkpt lat="43.92519" lon="1.85382">
        <ele>249.8</ele>
        <time>2022-08-14T07:06:58Z</time>
      </trkpt>
      <trkpt lat="43.9252" lon="1.85381">
        <ele>249.8</ele>
        <time>2022-08-14T07:06:59Z</time>
      </trkpt>
      <trkpt lat="43.92521" lon="1.85379">
        <ele>250</ele>
        <time>2022-08-14T07:07:00Z</time>
      </trkpt>
      <trkpt lat="43.92521" lon="1.85376">
        <ele>250.2</ele>
        <time>2022-08-14T07:07:01Z</time>
      </trkpt>
      <trkpt lat="43.92522" lon="1.85374">
        <ele>250.2</ele>
        <time>2022-08-14T07:07:02Z</time>
      </trkpt>
      <trkpt lat="43.92523" lon="1.85372">
        <ele>250.4</ele>
        <time>2022-08-14T07:07:03Z</time>
      </trkpt>
      <trkpt lat="43.92523" lon="1.8537">
        <ele>250.4</ele>
        <time>2022-08-14T07:07:04Z</time>
      </trkpt>
      <trkpt lat="43.92523" lon="1.85368">
        <ele>250.6</ele>
        <time>2022-08-14T07:07:05Z</time>
      </trkpt>
      <trkpt lat="43.92524" lon="1.85365">
        <ele>250.8</ele>
        <time>2022-08-14T07:07:06Z</time>
      </trkpt>
      <trkpt lat="43.92524" lon="1.85363">
        <ele>250.8</ele>
        <time>2022-08-14T07:07:07Z</time>
      </trkpt>
      <trkpt lat="43.92525" lon="1.8536">
        <ele>251.2</ele>
        <time>2022-08-14T07:07:08Z</time>
      </trkpt>
      <trkpt lat="43.92525" lon="1.85358">
        <ele>251.4</ele>
        <time>2022-08-14T07:07:09Z</time>
      </trkpt>
      <trkpt lat="43.92526" lon="1.85356">
        <ele>251.4</ele>
        <time>2022-08-14T07:07:10Z</time>
      </trkpt>
      <trkpt lat="43.92527" lon="1.85353">
        <ele>251.6</ele>
        <time>2022-08-14T07:07:11Z</time>
      </trkpt>
      <trkpt lat="43.92528" lon="1.85351">
        <ele>251.8</ele>
        <time>2022-08-14T07:07:12Z</time>
      </trkpt>
      <trkpt lat="43.92529" lon="1.8535">
        <ele>251.8</ele>
        <time>2022-08-14T07:07:13Z</time>
      </trkpt>
      <trkpt lat="43.92529" lon="1.85348">
        <ele>252</ele>
        <time>2022-08-14T07:07:14Z</time>
      </trkpt>
      <trkpt lat="43.9253" lon="1.85346">
        <ele>252</ele>
        <time>2022-08-14T07:07:15Z</time>
      </trkpt>
      <trkpt lat="43.9253" lon="1.85344">
        <ele>252.2</ele>
        <time>2022-08-14T07:07:16Z</time>
      </trkpt>
      <trkpt lat="43.92531" lon="1.85341">
        <ele>252.2</ele>
        <time>2022-08-14T07:07:17Z</time>
      </trkpt>
      <trkpt lat="43.92532" lon="1.85339">
        <ele>252.2</ele>
        <time>2022-08-14T07:07:18Z</time>
      </trkpt>
      <trkpt lat="43.92532" lon="1.85337">
        <ele>252.6</ele>
        <time>2022-08-14T07:07:19Z</time>
      </trkpt>
      <trkpt lat="43.92533" lon="1.85334">
        <ele>252.6</ele>
        <time>2022-08-14T07:07:20Z</time>
      </trkpt>
      <trkpt lat="43.92534" lon="1.85332">
        <ele>252.8</ele>
        <time>2022-08-14T07:07:21Z</time>
      </trkpt>
      <trkpt lat="43.92534" lon="1.85329">
        <ele>252.8</ele>
        <time>2022-08-14T07:07:22Z</time>
      </trkpt>
      <trkpt lat="43.92535" lon="1.85327">
        <ele>253</ele>
        <time>2022-08-14T07:07:23Z</time>
      </trkpt>
      <trkpt lat="43.92536" lon="1.85324">
        <ele>253</ele>
        <time>2022-08-14T07:07:24Z</time>
      </trkpt>
      <trkpt lat="43.92536" lon="1.85322">
        <ele>253.2</ele>
        <time>2022-08-14T07:07:25Z</time>
      </trkpt>
      <trkpt lat="43.92537" lon="1.8532">
        <ele>253.2</ele>
        <time>2022-08-14T07:07:26Z</time>
      </trkpt>
      <trkpt lat="43.92538" lon="1.85317">
        <ele>253.2</ele>
        <time>2022-08-14T07:07:27Z</time>
      </trkpt>
      <trkpt lat="43.92539" lon="1.85315">
        <ele>253.4</ele>
        <time>2022-08-14T07:07:28Z</time>
      </trkpt>
      <trkpt lat="43.9254" lon="1.85313">
        <ele>253.6</ele>
        <time>2022-08-14T07:07:29Z</time>
      </trkpt>
      <trkpt lat="43.92542" lon="1.85312">
        <ele>253.8</ele>
        <time>2022-08-14T07:07:30Z</time>
      </trkpt>
      <trkpt lat="43.92543" lon="1.8531">
        <ele>253.8</ele>
        <time>2022-08-14T07:07:31Z</time>
      </trkpt>
      <trkpt lat="43.92544" lon="1.85308">
        <ele>253.8</ele>
        <time>2022-08-14T07:07:32Z</time>
      </trkpt>
      <trkpt lat="43.92545" lon="1.85306">
        <ele>254</ele>
        <time>2022-08-14T07:07:33Z</time>
      </trkpt>
      <trkpt lat="43.92545" lon="1.85304">
        <ele>254</ele>
        <time>2022-08-14T07:07:34Z</time>
      </trkpt>
      <trkpt lat="43.92546" lon="1.85299">
        <ele>254</ele>
        <time>2022-08-14T07:07:35Z</time>
      </trkpt>
      <trkpt lat="43.92548" lon="1.85296">
        <ele>254.2</ele>
        <time>2022-08-14T07:07:36Z</time>
      </trkpt>
      <trkpt lat="43.92549" lon="1.85294">
        <ele>254.2</ele>
        <time>2022-08-14T07:07:37Z</time>
      </trkpt>
      <trkpt lat="43.9255" lon="1.85291">
        <ele>254.4</ele>
        <time>2022-08-14T07:07:38Z</time>
      </trkpt>
      <trkpt lat="43.92551" lon="1.85288">
        <ele>254.4</ele>
        <time>2022-08-14T07:07:39Z</time>
      </trkpt>
      <trkpt lat="43.92553" lon="1.85286">
        <ele>254.6</ele>
        <time>2022-08-14T07:07:40Z</time>
      </trkpt>
      <trkpt lat="43.92555" lon="1.85282">
        <ele>254.6</ele>
        <time>2022-08-14T07:07:41Z</time>
      </trkpt>
      <trkpt lat="43.92556" lon="1.85279">
        <ele>254.8</ele>
        <time>2022-08-14T07:07:42Z</time>
      </trkpt>
      <trkpt lat="43.92557" lon="1.85275">
        <ele>254.8</ele>
        <time>2022-08-14T07:07:43Z</time>
      </trkpt>
      <trkpt lat="43.92559" lon="1.85272">
        <ele>255</ele>
        <time>2022-08-14T07:07:44Z</time>
      </trkpt>
      <trkpt lat="43.9256" lon="1.8527">
        <ele>255</ele>
        <time>2022-08-14T07:07:45Z</time>
      </trkpt>
      <trkpt lat="43.92562" lon="1.85266">
        <ele>255</ele>
        <time>2022-08-14T07:07:46Z</time>
      </trkpt>
      <trkpt lat="43.92564" lon="1.85262">
        <ele>255.2</ele>
        <time>2022-08-14T07:07:47Z</time>
      </trkpt>
      <trkpt lat="43.92566" lon="1.85259">
        <ele>255.2</ele>
        <time>2022-08-14T07:07:48Z</time>
      </trkpt>
      <trkpt lat="43.92569" lon="1.85257">
        <ele>255.4</ele>
        <time>2022-08-14T07:07:50Z</time>
      </trkpt>
      <trkpt lat="43.92571" lon="1.85255">
        <ele>255.4</ele>
        <time>2022-08-14T07:07:51Z</time>
      </trkpt>
      <trkpt lat="43.92576" lon="1.85248">
        <ele>255.6</ele>
        <time>2022-08-14T07:07:53Z</time>
      </trkpt>
      <trkpt lat="43.92577" lon="1.85247">
        <ele>255.6</ele>
        <time>2022-08-14T07:07:54Z</time>
      </trkpt>
      <trkpt lat="43.92577" lon="1.85245">
        <ele>256</ele>
        <time>2022-08-14T07:07:55Z</time>
      </trkpt>
      <trkpt lat="43.92579" lon="1.85244">
        <ele>256.2</ele>
        <time>2022-08-14T07:07:56Z</time>
      </trkpt>
      <trkpt lat="43.92581" lon="1.85242">
        <ele>256.4</ele>
        <time>2022-08-14T07:07:57Z</time>
      </trkpt>
      <trkpt lat="43.92583" lon="1.8524">
        <ele>256.4</ele>
        <time>2022-08-14T07:07:58Z</time>
      </trkpt>
      <trkpt lat="43.92587" lon="1.85234">
        <ele>256.6</ele>
        <time>2022-08-14T07:08:00Z</time>
      </trkpt>
      <trkpt lat="43.92591" lon="1.85232">
        <ele>256.8</ele>
        <time>2022-08-14T07:08:02Z</time>
      </trkpt>
      <trkpt lat="43.92593" lon="1.85231">
        <ele>257</ele>
        <time>2022-08-14T07:08:03Z</time>
      </trkpt>
      <trkpt lat="43.92595" lon="1.85231">
        <ele>257</ele>
        <time>2022-08-14T07:08:04Z</time>
      </trkpt>
      <trkpt lat="43.92597" lon="1.85229">
        <ele>257.2</ele>
        <time>2022-08-14T07:08:05Z</time>
      </trkpt>
      <trkpt lat="43.92599" lon="1.85228">
        <ele>257.2</ele>
        <time>2022-08-14T07:08:06Z</time>
      </trkpt>
      <trkpt lat="43.92601" lon="1.85226">
        <ele>257.4</ele>
        <time>2022-08-14T07:08:07Z</time>
      </trkpt>
      <trkpt lat="43.92606" lon="1.85222">
        <ele>257.4</ele>
        <time>2022-08-14T07:08:08Z</time>
      </trkpt>
      <trkpt lat="43.92608" lon="1.8522">
        <ele>257.6</ele>
        <time>2022-08-14T07:08:09Z</time>
      </trkpt>
      <trkpt lat="43.92611" lon="1.85218">
        <ele>257.8</ele>
        <time>2022-08-14T07:08:10Z</time>
      </trkpt>
      <trkpt lat="43.92612" lon="1.85218">
        <ele>258.2</ele>
        <time>2022-08-14T07:08:11Z</time>
      </trkpt>
      <trkpt lat="43.92615" lon="1.85218">
        <ele>258.8</ele>
        <time>2022-08-14T07:08:12Z</time>
      </trkpt>
      <trkpt lat="43.92616" lon="1.85218">
        <ele>259.4</ele>
        <time>2022-08-14T07:08:13Z</time>
      </trkpt>
      <trkpt lat="43.92618" lon="1.85217">
        <ele>259.8</ele>
        <time>2022-08-14T07:08:14Z</time>
      </trkpt>
      <trkpt lat="43.9262" lon="1.85217">
        <ele>260.2</ele>
        <time>2022-08-14T07:08:15Z</time>
      </trkpt>
      <trkpt lat="43.92621" lon="1.85217">
        <ele>260.4</ele>
        <time>2022-08-14T07:08:16Z</time>
      </trkpt>
      <trkpt lat="43.92623" lon="1.85217">
        <ele>260.6</ele>
        <time>2022-08-14T07:08:17Z</time>
      </trkpt>
      <trkpt lat="43.92625" lon="1.85215">
        <ele>260.8</ele>
        <time>2022-08-14T07:08:18Z</time>
      </trkpt>
      <trkpt lat="43.92627" lon="1.85213">
        <ele>261</ele>
        <time>2022-08-14T07:08:19Z</time>
      </trkpt>
      <trkpt lat="43.92629" lon="1.85212">
        <ele>261</ele>
        <time>2022-08-14T07:08:20Z</time>
      </trkpt>
      <trkpt lat="43.92632" lon="1.85212">
        <ele>261.4</ele>
        <time>2022-08-14T07:08:21Z</time>
      </trkpt>
      <trkpt lat="43.92634" lon="1.85211">
        <ele>261.4</ele>
        <time>2022-08-14T07:08:22Z</time>
      </trkpt>
      <trkpt lat="43.92636" lon="1.85209">
        <ele>261.6</ele>
        <time>2022-08-14T07:08:23Z</time>
      </trkpt>
      <trkpt lat="43.92639" lon="1.85208">
        <ele>261.8</ele>
        <time>2022-08-14T07:08:24Z</time>
      </trkpt>
      <trkpt lat="43.9264" lon="1.85207">
        <ele>262</ele>
        <time>2022-08-14T07:08:25Z</time>
      </trkpt>
      <trkpt lat="43.92642" lon="1.85208">
        <ele>262.6</ele>
        <time>2022-08-14T07:08:26Z</time>
      </trkpt>
      <trkpt lat="43.92644" lon="1.85207">
        <ele>263.6</ele>
        <time>2022-08-14T07:08:27Z</time>
      </trkpt>
      <trkpt lat="43.92645" lon="1.85207">
        <ele>263.8</ele>
        <time>2022-08-14T07:08:28Z</time>
      </trkpt>
      <trkpt lat="43.92646" lon="1.85207">
        <ele>264.2</ele>
        <time>2022-08-14T07:08:29Z</time>
      </trkpt>
      <trkpt lat="43.92647" lon="1.85207">
        <ele>264.6</ele>
        <time>2022-08-14T07:08:30Z</time>
      </trkpt>
      <trkpt lat="43.92648" lon="1.85207">
        <ele>264.8</ele>
        <time>2022-08-14T07:08:31Z</time>
      </trkpt>
      <trkpt lat="43.92649" lon="1.85207">
        <ele>265.2</ele>
        <time>2022-08-14T07:08:32Z</time>
      </trkpt>
      <trkpt lat="43.9265" lon="1.85206">
        <ele>265.6</ele>
        <time>2022-08-14T07:08:33Z</time>
      </trkpt>
      <trkpt lat="43.92651" lon="1.85206">
        <ele>266.2</ele>
        <time>2022-08-14T07:08:34Z</time>
      </trkpt>
      <trkpt lat="43.92653" lon="1.85205">
        <ele>266.4</ele>
        <time>2022-08-14T07:08:35Z</time>
      </trkpt>
      <trkpt lat="43.92654" lon="1.85205">
        <ele>266.8</ele>
        <time>2022-08-14T07:08:36Z</time>
      </trkpt>
      <trkpt lat="43.92656" lon="1.85204">
        <ele>267.2</ele>
        <time>2022-08-14T07:08:37Z</time>
      </trkpt>
      <trkpt lat="43.92658" lon="1.85204">
        <ele>267.2</ele>
        <time>2022-08-14T07:08:38Z</time>
      </trkpt>
      <trkpt lat="43.92659" lon="1.85203">
        <ele>267.6</ele>
        <time>2022-08-14T07:08:39Z</time>
      </trkpt>
      <trkpt lat="43.92661" lon="1.85202">
        <ele>267.8</ele>
        <time>2022-08-14T07:08:40Z</time>
      </trkpt>
      <trkpt lat="43.92662" lon="1.85202">
        <ele>268.4</ele>
        <time>2022-08-14T07:08:41Z</time>
      </trkpt>
      <trkpt lat="43.92664" lon="1.85201">
        <ele>268.6</ele>
        <time>2022-08-14T07:08:42Z</time>
      </trkpt>
      <trkpt lat="43.92665" lon="1.852">
        <ele>268.8</ele>
        <time>2022-08-14T07:08:43Z</time>
      </trkpt>
      <trkpt lat="43.92666" lon="1.85199">
        <ele>269</ele>
        <time>2022-08-14T07:08:44Z</time>
      </trkpt>
      <trkpt lat="43.92667" lon="1.85198">
        <ele>269.4</ele>
        <time>2022-08-14T07:08:45Z</time>
      </trkpt>
      <trkpt lat="43.92668" lon="1.85196">
        <ele>269.8</ele>
        <time>2022-08-14T07:08:46Z</time>
      </trkpt>
      <trkpt lat="43.9267" lon="1.85194">
        <ele>269.8</ele>
        <time>2022-08-14T07:08:47Z</time>
      </trkpt>
      <trkpt lat="43.92672" lon="1.85194">
        <ele>270</ele>
        <time>2022-08-14T07:08:48Z</time>
      </trkpt>
      <trkpt lat="43.92674" lon="1.85193">
        <ele>270</ele>
        <time>2022-08-14T07:08:49Z</time>
      </trkpt>
      <trkpt lat="43.92676" lon="1.85192">
        <ele>270</ele>
        <time>2022-08-14T07:08:50Z</time>
      </trkpt>
      <trkpt lat="43.92678" lon="1.85192">
        <ele>270.2</ele>
        <time>2022-08-14T07:08:51Z</time>
      </trkpt>
      <trkpt lat="43.9268" lon="1.85191">
        <ele>270.2</ele>
        <time>2022-08-14T07:08:52Z</time>
      </trkpt>
      <trkpt lat="43.92681" lon="1.85189">
        <ele>270.2</ele>
        <time>2022-08-14T07:08:53Z</time>
      </trkpt>
      <trkpt lat="43.92682" lon="1.85186">
        <ele>270</ele>
        <time>2022-08-14T07:08:54Z</time>
      </trkpt>
      <trkpt lat="43.92682" lon="1.85184">
        <ele>270</ele>
        <time>2022-08-14T07:08:55Z</time>
      </trkpt>
      <trkpt lat="43.92682" lon="1.85184">
        <ele>270.2</ele>
        <time>2022-08-14T07:08:56Z</time>
      </trkpt>
      <trkpt lat="43.92681" lon="1.85184">
        <ele>269.8</ele>
        <time>2022-08-14T07:08:57Z</time>
      </trkpt>
      <trkpt lat="43.92681" lon="1.85184">
        <ele>269.8</ele>
        <time>2022-08-14T07:08:58Z</time>
      </trkpt>
      <trkpt lat="43.9268" lon="1.85185">
        <ele>269.8</ele>
        <time>2022-08-14T07:08:59Z</time>
      </trkpt>
      <trkpt lat="43.92679" lon="1.85185">
        <ele>269.8</ele>
        <time>2022-08-14T07:09:00Z</time>
      </trkpt>
      <trkpt lat="43.92679" lon="1.85186">
        <ele>269.8</ele>
        <time>2022-08-14T07:09:01Z</time>
      </trkpt>
      <trkpt lat="43.92679" lon="1.85186">
        <ele>269.8</ele>
        <time>2022-08-14T07:09:02Z</time>
      </trkpt>
      <trkpt lat="43.92679" lon="1.85186">
        <ele>269.8</ele>
        <time>2022-08-14T07:09:03Z</time>
      </trkpt>
      <trkpt lat="43.92678" lon="1.85187">
        <ele>270</ele>
        <time>2022-08-14T07:09:04Z</time>
      </trkpt>
      <trkpt lat="43.92678" lon="1.85188">
        <ele>270</ele>
        <time>2022-08-14T07:09:05Z</time>
      </trkpt>
      <trkpt lat="43.92677" lon="1.85189">
        <ele>270</ele>
        <time>2022-08-14T07:09:06Z</time>
      </trkpt>
      <trkpt lat="43.92676" lon="1.8519">
        <ele>270</ele>
        <time>2022-08-14T07:09:07Z</time>
      </trkpt>
      <trkpt lat="43.92675" lon="1.85191">
        <ele>270</ele>
        <time>2022-08-14T07:09:08Z</time>
      </trkpt>
      <trkpt lat="43.92675" lon="1.85191">
        <ele>270</ele>
        <time>2022-08-14T07:09:09Z</time>
      </trkpt>
      <trkpt lat="43.92675" lon="1.85191">
        <ele>270</ele>
        <time>2022-08-14T07:09:35Z</time>
      </trkpt>
      <trkpt lat="43.92673" lon="1.85193">
        <ele>270</ele>
        <time>2022-08-14T07:09:38Z</time>
      </trkpt>
      <trkpt lat="43.92672" lon="1.85193">
        <ele>270.4</ele>
        <time>2022-08-14T07:10:30Z</time>
      </trkpt>
      <trkpt lat="43.92672" lon="1.85193">
        <ele>270.4</ele>
        <time>2022-08-14T07:10:33Z</time>
      </trkpt>
      <trkpt lat="43.92672" lon="1.85193">
        <ele>270.4</ele>
        <time>2022-08-14T07:14:07Z</time>
      </trkpt>
      <trkpt lat="43.92673" lon="1.85193">
        <ele>270.4</ele>
        <time>2022-08-14T07:14:08Z</time>
      </trkpt>
      <trkpt lat="43.92679" lon="1.85189">
        <ele>270.2</ele>
        <time>2022-08-14T07:14:12Z</time>
      </trkpt>
      <trkpt lat="43.92681" lon="1.85189">
        <ele>270</ele>
        <time>2022-08-14T07:14:13Z</time>
      </trkpt>
      <trkpt lat="43.92682" lon="1.85188">
        <ele>269.8</ele>
        <time>2022-08-14T07:14:14Z</time>
      </trkpt>
      <trkpt lat="43.92683" lon="1.85188">
        <ele>269.6</ele>
        <time>2022-08-14T07:14:15Z</time>
      </trkpt>
      <trkpt lat="43.92686" lon="1.85186">
        <ele>269.6</ele>
        <time>2022-08-14T07:14:17Z</time>
      </trkpt>
      <trkpt lat="43.92688" lon="1.85184">
        <ele>269.6</ele>
        <time>2022-08-14T07:14:18Z</time>
      </trkpt>
      <trkpt lat="43.9269" lon="1.85182">
        <ele>269.4</ele>
        <time>2022-08-14T07:14:19Z</time>
      </trkpt>
      <trkpt lat="43.92692" lon="1.85181">
        <ele>269.2</ele>
        <time>2022-08-14T07:14:20Z</time>
      </trkpt>
      <trkpt lat="43.92693" lon="1.8518">
        <ele>269.2</ele>
        <time>2022-08-14T07:14:21Z</time>
      </trkpt>
      <trkpt lat="43.92693" lon="1.85178">
        <ele>269.2</ele>
        <time>2022-08-14T07:14:22Z</time>
      </trkpt>
      <trkpt lat="43.92694" lon="1.85177">
        <ele>269.2</ele>
        <time>2022-08-14T07:14:23Z</time>
      </trkpt>
      <trkpt lat="43.92697" lon="1.85174">
        <ele>269.2</ele>
        <time>2022-08-14T07:14:26Z</time>
      </trkpt>
      <trkpt lat="43.92698" lon="1.85172">
        <ele>269.4</ele>
        <time>2022-08-14T07:14:27Z</time>
      </trkpt>
      <trkpt lat="43.92699" lon="1.85171">
        <ele>269.4</ele>
        <time>2022-08-14T07:14:28Z</time>
      </trkpt>
      <trkpt lat="43.927" lon="1.8517">
        <ele>269.4</ele>
        <time>2022-08-14T07:14:29Z</time>
      </trkpt>
      <trkpt lat="43.92702" lon="1.85167">
        <ele>269.2</ele>
        <time>2022-08-14T07:14:30Z</time>
      </trkpt>
      <trkpt lat="43.92703" lon="1.85165">
        <ele>269.2</ele>
        <time>2022-08-14T07:14:31Z</time>
      </trkpt>
      <trkpt lat="43.92708" lon="1.85161">
        <ele>269</ele>
        <time>2022-08-14T07:14:33Z</time>
      </trkpt>
      <trkpt lat="43.9271" lon="1.85159">
        <ele>269</ele>
        <time>2022-08-14T07:14:34Z</time>
      </trkpt>
      <trkpt lat="43.92716" lon="1.85152">
        <ele>268.8</ele>
        <time>2022-08-14T07:14:37Z</time>
      </trkpt>
      <trkpt lat="43.92718" lon="1.85149">
        <ele>268.6</ele>
        <time>2022-08-14T07:14:38Z</time>
      </trkpt>
      <trkpt lat="43.9272" lon="1.85146">
        <ele>268.6</ele>
        <time>2022-08-14T07:14:39Z</time>
      </trkpt>
      <trkpt lat="43.92722" lon="1.85142">
        <ele>268.6</ele>
        <time>2022-08-14T07:14:40Z</time>
      </trkpt>
      <trkpt lat="43.9273" lon="1.8513">
        <ele>268.2</ele>
        <time>2022-08-14T07:14:44Z</time>
      </trkpt>
      <trkpt lat="43.92731" lon="1.85128">
        <ele>268</ele>
        <time>2022-08-14T07:14:45Z</time>
      </trkpt>
      <trkpt lat="43.92731" lon="1.85127">
        <ele>268</ele>
        <time>2022-08-14T07:14:46Z</time>
      </trkpt>
      <trkpt lat="43.92735" lon="1.85117">
        <ele>266.6</ele>
        <time>2022-08-14T07:16:30Z</time>
      </trkpt>
      <trkpt lat="43.92741" lon="1.85109">
        <ele>266.8</ele>
        <time>2022-08-14T07:16:33Z</time>
      </trkpt>
      <trkpt lat="43.92751" lon="1.85094">
        <ele>266.8</ele>
        <time>2022-08-14T07:16:38Z</time>
      </trkpt>
      <trkpt lat="43.92758" lon="1.85085">
        <ele>266.8</ele>
        <time>2022-08-14T07:16:41Z</time>
      </trkpt>
      <trkpt lat="43.92765" lon="1.85076">
        <ele>266.8</ele>
        <time>2022-08-14T07:16:44Z</time>
      </trkpt>
      <trkpt lat="43.92783" lon="1.85052">
        <ele>266</ele>
        <time>2022-08-14T07:16:51Z</time>
      </trkpt>
      <trkpt lat="43.92789" lon="1.85046">
        <ele>265.8</ele>
        <time>2022-08-14T07:16:53Z</time>
      </trkpt>
      <trkpt lat="43.92792" lon="1.85043">
        <ele>265.8</ele>
        <time>2022-08-14T07:16:54Z</time>
      </trkpt>
      <trkpt lat="43.92795" lon="1.8504">
        <ele>265.8</ele>
        <time>2022-08-14T07:16:55Z</time>
      </trkpt>
      <trkpt lat="43.92798" lon="1.85036">
        <ele>265.6</ele>
        <time>2022-08-14T07:16:56Z</time>
      </trkpt>
      <trkpt lat="43.928" lon="1.85033">
        <ele>265.6</ele>
        <time>2022-08-14T07:16:57Z</time>
      </trkpt>
      <trkpt lat="43.92803" lon="1.85029">
        <ele>265.4</ele>
        <time>2022-08-14T07:16:58Z</time>
      </trkpt>
      <trkpt lat="43.9281" lon="1.85016">
        <ele>265.4</ele>
        <time>2022-08-14T07:17:01Z</time>
      </trkpt>
      <trkpt lat="43.92816" lon="1.85">
        <ele>265.2</ele>
        <time>2022-08-14T07:17:04Z</time>
      </trkpt>
      <trkpt lat="43.9282" lon="1.84991">
        <ele>265.2</ele>
        <time>2022-08-14T07:17:06Z</time>
      </trkpt>
      <trkpt lat="43.92824" lon="1.84981">
        <ele>265.2</ele>
        <time>2022-08-14T07:17:08Z</time>
      </trkpt>
      <trkpt lat="43.92828" lon="1.84969">
        <ele>265.2</ele>
        <time>2022-08-14T07:17:10Z</time>
      </trkpt>
      <trkpt lat="43.9283" lon="1.84964">
        <ele>265.2</ele>
        <time>2022-08-14T07:17:11Z</time>
      </trkpt>
      <trkpt lat="43.9284" lon="1.84936">
        <ele>265</ele>
        <time>2022-08-14T07:17:16Z</time>
      </trkpt>
      <trkpt lat="43.92847" lon="1.84918">
        <ele>264.8</ele>
        <time>2022-08-14T07:17:19Z</time>
      </trkpt>
      <trkpt lat="43.92848" lon="1.84913">
        <ele>264.6</ele>
        <time>2022-08-14T07:17:20Z</time>
      </trkpt>
      <trkpt lat="43.92851" lon="1.84908">
        <ele>264.6</ele>
        <time>2022-08-14T07:17:21Z</time>
      </trkpt>
      <trkpt lat="43.92858" lon="1.84884">
        <ele>264.4</ele>
        <time>2022-08-14T07:17:25Z</time>
      </trkpt>
      <trkpt lat="43.92861" lon="1.84873">
        <ele>264.6</ele>
        <time>2022-08-14T07:17:27Z</time>
      </trkpt>
      <trkpt lat="43.92863" lon="1.84866">
        <ele>264.6</ele>
        <time>2022-08-14T07:17:28Z</time>
      </trkpt>
      <trkpt lat="43.92876" lon="1.84815">
        <ele>264.4</ele>
        <time>2022-08-14T07:17:36Z</time>
      </trkpt>
      <trkpt lat="43.92878" lon="1.84809">
        <ele>264.4</ele>
        <time>2022-08-14T07:17:37Z</time>
      </trkpt>
      <trkpt lat="43.92879" lon="1.84803">
        <ele>264.4</ele>
        <time>2022-08-14T07:17:38Z</time>
      </trkpt>
      <trkpt lat="43.92887" lon="1.84771">
        <ele>264.6</ele>
        <time>2022-08-14T07:17:43Z</time>
      </trkpt>
      <trkpt lat="43.9289" lon="1.84764">
        <ele>264.6</ele>
        <time>2022-08-14T07:17:44Z</time>
      </trkpt>
      <trkpt lat="43.92892" lon="1.84757">
        <ele>264.6</ele>
        <time>2022-08-14T07:17:45Z</time>
      </trkpt>
      <trkpt lat="43.92895" lon="1.84751">
        <ele>264.6</ele>
        <time>2022-08-14T07:17:46Z</time>
      </trkpt>
      <trkpt lat="43.92897" lon="1.84747">
        <ele>264.6</ele>
        <time>2022-08-14T07:17:47Z</time>
      </trkpt>
      <trkpt lat="43.92903" lon="1.84736">
        <ele>264.6</ele>
        <time>2022-08-14T07:17:49Z</time>
      </trkpt>
      <trkpt lat="43.92906" lon="1.84731">
        <ele>264.6</ele>
        <time>2022-08-14T07:17:50Z</time>
      </trkpt>
      <trkpt lat="43.92922" lon="1.84708">
        <ele>264.2</ele>
        <time>2022-08-14T07:17:54Z</time>
      </trkpt>
      <trkpt lat="43.92926" lon="1.84703">
        <ele>264.2</ele>
        <time>2022-08-14T07:17:55Z</time>
      </trkpt>
      <trkpt lat="43.92928" lon="1.84699">
        <ele>264.2</ele>
        <time>2022-08-14T07:17:56Z</time>
      </trkpt>
      <trkpt lat="43.92931" lon="1.84695">
        <ele>264.2</ele>
        <time>2022-08-14T07:17:57Z</time>
      </trkpt>
      <trkpt lat="43.92934" lon="1.84691">
        <ele>264.2</ele>
        <time>2022-08-14T07:17:58Z</time>
      </trkpt>
      <trkpt lat="43.92937" lon="1.84689">
        <ele>264.2</ele>
        <time>2022-08-14T07:17:59Z</time>
      </trkpt>
      <trkpt lat="43.9294" lon="1.84686">
        <ele>264.4</ele>
        <time>2022-08-14T07:18:00Z</time>
      </trkpt>
      <trkpt lat="43.92941" lon="1.84684">
        <ele>264.4</ele>
        <time>2022-08-14T07:18:01Z</time>
      </trkpt>
      <trkpt lat="43.92943" lon="1.84681">
        <ele>264.4</ele>
        <time>2022-08-14T07:18:02Z</time>
      </trkpt>
      <trkpt lat="43.92946" lon="1.84679">
        <ele>264.4</ele>
        <time>2022-08-14T07:18:03Z</time>
      </trkpt>
      <trkpt lat="43.92947" lon="1.84677">
        <ele>264.4</ele>
        <time>2022-08-14T07:18:04Z</time>
      </trkpt>
      <trkpt lat="43.92949" lon="1.84675">
        <ele>264.6</ele>
        <time>2022-08-14T07:18:05Z</time>
      </trkpt>
      <trkpt lat="43.92951" lon="1.84673">
        <ele>264.8</ele>
        <time>2022-08-14T07:18:06Z</time>
      </trkpt>
      <trkpt lat="43.92958" lon="1.84665">
        <ele>265.2</ele>
        <time>2022-08-14T07:18:09Z</time>
      </trkpt>
      <trkpt lat="43.92966" lon="1.84658">
        <ele>265.4</ele>
        <time>2022-08-14T07:18:12Z</time>
      </trkpt>
      <trkpt lat="43.92972" lon="1.8465">
        <ele>265.8</ele>
        <time>2022-08-14T07:18:14Z</time>
      </trkpt>
      <trkpt lat="43.9298" lon="1.8464">
        <ele>266.4</ele>
        <time>2022-08-14T07:18:16Z</time>
      </trkpt>
      <trkpt lat="43.92996" lon="1.84619">
        <ele>268.2</ele>
        <time>2022-08-14T07:18:20Z</time>
      </trkpt>
      <trkpt lat="43.93001" lon="1.84613">
        <ele>268.4</ele>
        <time>2022-08-14T07:18:21Z</time>
      </trkpt>
      <trkpt lat="43.93006" lon="1.84607">
        <ele>268.8</ele>
        <time>2022-08-14T07:18:22Z</time>
      </trkpt>
      <trkpt lat="43.9301" lon="1.84603">
        <ele>269.2</ele>
        <time>2022-08-14T07:18:23Z</time>
      </trkpt>
      <trkpt lat="43.93014" lon="1.84597">
        <ele>269.4</ele>
        <time>2022-08-14T07:18:24Z</time>
      </trkpt>
      <trkpt lat="43.9302" lon="1.8459">
        <ele>269.6</ele>
        <time>2022-08-14T07:18:25Z</time>
      </trkpt>
      <trkpt lat="43.93023" lon="1.84586">
        <ele>269.8</ele>
        <time>2022-08-14T07:18:26Z</time>
      </trkpt>
      <trkpt lat="43.93028" lon="1.84581">
        <ele>270.4</ele>
        <time>2022-08-14T07:18:27Z</time>
      </trkpt>
      <trkpt lat="43.93031" lon="1.84578">
        <ele>270.6</ele>
        <time>2022-08-14T07:18:28Z</time>
      </trkpt>
      <trkpt lat="43.93034" lon="1.84574">
        <ele>271.2</ele>
        <time>2022-08-14T07:18:29Z</time>
      </trkpt>
      <trkpt lat="43.93038" lon="1.84569">
        <ele>271.4</ele>
        <time>2022-08-14T07:18:30Z</time>
      </trkpt>
      <trkpt lat="43.9304" lon="1.84567">
        <ele>271.8</ele>
        <time>2022-08-14T07:18:31Z</time>
      </trkpt>
      <trkpt lat="43.93042" lon="1.84563">
        <ele>272</ele>
        <time>2022-08-14T07:18:32Z</time>
      </trkpt>
      <trkpt lat="43.93045" lon="1.8456">
        <ele>272.4</ele>
        <time>2022-08-14T07:18:33Z</time>
      </trkpt>
      <trkpt lat="43.93049" lon="1.84556">
        <ele>272.6</ele>
        <time>2022-08-14T07:18:34Z</time>
      </trkpt>
      <trkpt lat="43.93051" lon="1.84554">
        <ele>272.8</ele>
        <time>2022-08-14T07:18:35Z</time>
      </trkpt>
      <trkpt lat="43.93055" lon="1.8455">
        <ele>273</ele>
        <time>2022-08-14T07:18:36Z</time>
      </trkpt>
      <trkpt lat="43.93058" lon="1.84547">
        <ele>273</ele>
        <time>2022-08-14T07:18:37Z</time>
      </trkpt>
      <trkpt lat="43.93061" lon="1.84544">
        <ele>273</ele>
        <time>2022-08-14T07:18:38Z</time>
      </trkpt>
      <trkpt lat="43.93065" lon="1.8454">
        <ele>273.2</ele>
        <time>2022-08-14T07:18:39Z</time>
      </trkpt>
      <trkpt lat="43.93068" lon="1.84537">
        <ele>273.2</ele>
        <time>2022-08-14T07:18:40Z</time>
      </trkpt>
      <trkpt lat="43.93071" lon="1.84534">
        <ele>273.2</ele>
        <time>2022-08-14T07:18:41Z</time>
      </trkpt>
      <trkpt lat="43.93075" lon="1.8453">
        <ele>273.2</ele>
        <time>2022-08-14T07:18:42Z</time>
      </trkpt>
      <trkpt lat="43.93079" lon="1.84525">
        <ele>273.2</ele>
        <time>2022-08-14T07:18:43Z</time>
      </trkpt>
      <trkpt lat="43.93082" lon="1.84522">
        <ele>273.2</ele>
        <time>2022-08-14T07:18:44Z</time>
      </trkpt>
      <trkpt lat="43.93087" lon="1.84517">
        <ele>273.2</ele>
        <time>2022-08-14T07:18:45Z</time>
      </trkpt>
      <trkpt lat="43.9309" lon="1.84514">
        <ele>273.2</ele>
        <time>2022-08-14T07:18:46Z</time>
      </trkpt>
      <trkpt lat="43.93094" lon="1.8451">
        <ele>273</ele>
        <time>2022-08-14T07:18:47Z</time>
      </trkpt>
      <trkpt lat="43.93099" lon="1.84505">
        <ele>273</ele>
        <time>2022-08-14T07:18:48Z</time>
      </trkpt>
      <trkpt lat="43.93102" lon="1.845">
        <ele>272.8</ele>
        <time>2022-08-14T07:18:49Z</time>
      </trkpt>
      <trkpt lat="43.93105" lon="1.84497">
        <ele>272.8</ele>
        <time>2022-08-14T07:18:50Z</time>
      </trkpt>
      <trkpt lat="43.93109" lon="1.84493">
        <ele>272.8</ele>
        <time>2022-08-14T07:18:51Z</time>
      </trkpt>
      <trkpt lat="43.93113" lon="1.84488">
        <ele>272.6</ele>
        <time>2022-08-14T07:18:52Z</time>
      </trkpt>
      <trkpt lat="43.93116" lon="1.84484">
        <ele>272.6</ele>
        <time>2022-08-14T07:18:53Z</time>
      </trkpt>
      <trkpt lat="43.93119" lon="1.84481">
        <ele>272.6</ele>
        <time>2022-08-14T07:18:54Z</time>
      </trkpt>
      <trkpt lat="43.93123" lon="1.84477">
        <ele>272.4</ele>
        <time>2022-08-14T07:18:55Z</time>
      </trkpt>
      <trkpt lat="43.93126" lon="1.84473">
        <ele>272.4</ele>
        <time>2022-08-14T07:18:56Z</time>
      </trkpt>
      <trkpt lat="43.9313" lon="1.84469">
        <ele>272.2</ele>
        <time>2022-08-14T07:18:57Z</time>
      </trkpt>
      <trkpt lat="43.93133" lon="1.84465">
        <ele>272.2</ele>
        <time>2022-08-14T07:18:58Z</time>
      </trkpt>
      <trkpt lat="43.93134" lon="1.84462">
        <ele>272</ele>
        <time>2022-08-14T07:18:59Z</time>
      </trkpt>
      <trkpt lat="43.93135" lon="1.84458">
        <ele>272</ele>
        <time>2022-08-14T07:19:00Z</time>
      </trkpt>
      <trkpt lat="43.93135" lon="1.84454">
        <ele>272</ele>
        <time>2022-08-14T07:19:01Z</time>
      </trkpt>
      <trkpt lat="43.93134" lon="1.84453">
        <ele>272</ele>
        <time>2022-08-14T07:19:02Z</time>
      </trkpt>
      <trkpt lat="43.93133" lon="1.84452">
        <ele>270.6</ele>
        <time>2022-08-14T07:19:22Z</time>
      </trkpt>
      <trkpt lat="43.93129" lon="1.84446">
        <ele>270.6</ele>
        <time>2022-08-14T07:19:24Z</time>
      </trkpt>
      <trkpt lat="43.93127" lon="1.84442">
        <ele>270.6</ele>
        <time>2022-08-14T07:19:25Z</time>
      </trkpt>
      <trkpt lat="43.93117" lon="1.84423">
        <ele>270.6</ele>
        <time>2022-08-14T07:19:28Z</time>
      </trkpt>
      <trkpt lat="43.93102" lon="1.84391">
        <ele>270.4</ele>
        <time>2022-08-14T07:19:32Z</time>
      </trkpt>
      <trkpt lat="43.93098" lon="1.84383">
        <ele>270.4</ele>
        <time>2022-08-14T07:19:33Z</time>
      </trkpt>
      <trkpt lat="43.93095" lon="1.84376">
        <ele>270.4</ele>
        <time>2022-08-14T07:19:34Z</time>
      </trkpt>
      <trkpt lat="43.93093" lon="1.84371">
        <ele>270.4</ele>
        <time>2022-08-14T07:19:35Z</time>
      </trkpt>
      <trkpt lat="43.9309" lon="1.84365">
        <ele>270.4</ele>
        <time>2022-08-14T07:19:36Z</time>
      </trkpt>
      <trkpt lat="43.93088" lon="1.8436">
        <ele>270.4</ele>
        <time>2022-08-14T07:19:37Z</time>
      </trkpt>
      <trkpt lat="43.93085" lon="1.84355">
        <ele>270</ele>
        <time>2022-08-14T07:19:38Z</time>
      </trkpt>
      <trkpt lat="43.93082" lon="1.84349">
        <ele>270.2</ele>
        <time>2022-08-14T07:19:39Z</time>
      </trkpt>
      <trkpt lat="43.93077" lon="1.84339">
        <ele>270</ele>
        <time>2022-08-14T07:19:41Z</time>
      </trkpt>
      <trkpt lat="43.93071" lon="1.84328">
        <ele>270.4</ele>
        <time>2022-08-14T07:19:43Z</time>
      </trkpt>
      <trkpt lat="43.93068" lon="1.84323">
        <ele>270.4</ele>
        <time>2022-08-14T07:19:44Z</time>
      </trkpt>
      <trkpt lat="43.93066" lon="1.84318">
        <ele>270.4</ele>
        <time>2022-08-14T07:19:45Z</time>
      </trkpt>
      <trkpt lat="43.93063" lon="1.84313">
        <ele>270.4</ele>
        <time>2022-08-14T07:19:46Z</time>
      </trkpt>
      <trkpt lat="43.93061" lon="1.84308">
        <ele>270.4</ele>
        <time>2022-08-14T07:19:47Z</time>
      </trkpt>
      <trkpt lat="43.93058" lon="1.84302">
        <ele>270.2</ele>
        <time>2022-08-14T07:19:48Z</time>
      </trkpt>
      <trkpt lat="43.93055" lon="1.84297">
        <ele>270.4</ele>
        <time>2022-08-14T07:19:49Z</time>
      </trkpt>
      <trkpt lat="43.93054" lon="1.84294">
        <ele>270.4</ele>
        <time>2022-08-14T07:19:50Z</time>
      </trkpt>
      <trkpt lat="43.93051" lon="1.84289">
        <ele>270.4</ele>
        <time>2022-08-14T07:19:51Z</time>
      </trkpt>
      <trkpt lat="43.93049" lon="1.84285">
        <ele>270.6</ele>
        <time>2022-08-14T07:19:52Z</time>
      </trkpt>
      <trkpt lat="43.93048" lon="1.84283">
        <ele>270.6</ele>
        <time>2022-08-14T07:19:53Z</time>
      </trkpt>
      <trkpt lat="43.93047" lon="1.84279">
        <ele>270.6</ele>
        <time>2022-08-14T07:19:54Z</time>
      </trkpt>
      <trkpt lat="43.93038" lon="1.8426">
        <ele>271</ele>
        <time>2022-08-14T07:19:59Z</time>
      </trkpt>
      <trkpt lat="43.93028" lon="1.8424">
        <ele>271.4</ele>
        <time>2022-08-14T07:20:04Z</time>
      </trkpt>
      <trkpt lat="43.93025" lon="1.84236">
        <ele>271.4</ele>
        <time>2022-08-14T07:20:05Z</time>
      </trkpt>
      <trkpt lat="43.93023" lon="1.84231">
        <ele>271.4</ele>
        <time>2022-08-14T07:20:06Z</time>
      </trkpt>
      <trkpt lat="43.93021" lon="1.84227">
        <ele>271.8</ele>
        <time>2022-08-14T07:20:07Z</time>
      </trkpt>
      <trkpt lat="43.93019" lon="1.84224">
        <ele>272</ele>
        <time>2022-08-14T07:20:08Z</time>
      </trkpt>
      <trkpt lat="43.93018" lon="1.8422">
        <ele>272</ele>
        <time>2022-08-14T07:20:09Z</time>
      </trkpt>
      <trkpt lat="43.93016" lon="1.84215">
        <ele>272.2</ele>
        <time>2022-08-14T07:20:10Z</time>
      </trkpt>
      <trkpt lat="43.93015" lon="1.84213">
        <ele>272.2</ele>
        <time>2022-08-14T07:20:11Z</time>
      </trkpt>
      <trkpt lat="43.93013" lon="1.84209">
        <ele>272.4</ele>
        <time>2022-08-14T07:20:12Z</time>
      </trkpt>
      <trkpt lat="43.93012" lon="1.84206">
        <ele>272.4</ele>
        <time>2022-08-14T07:20:13Z</time>
      </trkpt>
      <trkpt lat="43.93011" lon="1.84203">
        <ele>272.6</ele>
        <time>2022-08-14T07:20:14Z</time>
      </trkpt>
      <trkpt lat="43.9301" lon="1.84199">
        <ele>272.8</ele>
        <time>2022-08-14T07:20:15Z</time>
      </trkpt>
      <trkpt lat="43.93009" lon="1.84196">
        <ele>273</ele>
        <time>2022-08-14T07:20:16Z</time>
      </trkpt>
      <trkpt lat="43.93006" lon="1.8418">
        <ele>273.4</ele>
        <time>2022-08-14T07:20:20Z</time>
      </trkpt>
      <trkpt lat="43.93006" lon="1.84177">
        <ele>273.4</ele>
        <time>2022-08-14T07:20:21Z</time>
      </trkpt>
      <trkpt lat="43.93006" lon="1.84173">
        <ele>273.6</ele>
        <time>2022-08-14T07:20:22Z</time>
      </trkpt>
      <trkpt lat="43.93006" lon="1.84169">
        <ele>273.8</ele>
        <time>2022-08-14T07:20:23Z</time>
      </trkpt>
      <trkpt lat="43.93006" lon="1.84166">
        <ele>274</ele>
        <time>2022-08-14T07:20:24Z</time>
      </trkpt>
      <trkpt lat="43.93006" lon="1.84162">
        <ele>274.2</ele>
        <time>2022-08-14T07:20:25Z</time>
      </trkpt>
      <trkpt lat="43.93006" lon="1.8416">
        <ele>274.6</ele>
        <time>2022-08-14T07:20:26Z</time>
      </trkpt>
      <trkpt lat="43.93006" lon="1.84157">
        <ele>274.6</ele>
        <time>2022-08-14T07:20:27Z</time>
      </trkpt>
      <trkpt lat="43.93006" lon="1.84152">
        <ele>274.8</ele>
        <time>2022-08-14T07:20:28Z</time>
      </trkpt>
      <trkpt lat="43.93006" lon="1.8415">
        <ele>275</ele>
        <time>2022-08-14T07:20:29Z</time>
      </trkpt>
      <trkpt lat="43.93005" lon="1.84146">
        <ele>275</ele>
        <time>2022-08-14T07:20:30Z</time>
      </trkpt>
      <trkpt lat="43.93004" lon="1.84142">
        <ele>275</ele>
        <time>2022-08-14T07:20:31Z</time>
      </trkpt>
      <trkpt lat="43.93003" lon="1.84138">
        <ele>275</ele>
        <time>2022-08-14T07:20:32Z</time>
      </trkpt>
      <trkpt lat="43.93002" lon="1.84134">
        <ele>275.2</ele>
        <time>2022-08-14T07:20:33Z</time>
      </trkpt>
      <trkpt lat="43.93" lon="1.84131">
        <ele>275.2</ele>
        <time>2022-08-14T07:20:34Z</time>
      </trkpt>
      <trkpt lat="43.93" lon="1.84128">
        <ele>275.2</ele>
        <time>2022-08-14T07:20:35Z</time>
      </trkpt>
      <trkpt lat="43.92999" lon="1.84126">
        <ele>275.2</ele>
        <time>2022-08-14T07:20:36Z</time>
      </trkpt>
      <trkpt lat="43.92998" lon="1.84123">
        <ele>275.2</ele>
        <time>2022-08-14T07:20:37Z</time>
      </trkpt>
      <trkpt lat="43.92997" lon="1.84121">
        <ele>275.2</ele>
        <time>2022-08-14T07:20:38Z</time>
      </trkpt>
      <trkpt lat="43.92997" lon="1.84119">
        <ele>275.2</ele>
        <time>2022-08-14T07:20:39Z</time>
      </trkpt>
      <trkpt lat="43.92995" lon="1.84117">
        <ele>275</ele>
        <time>2022-08-14T07:20:40Z</time>
      </trkpt>
      <trkpt lat="43.92994" lon="1.84115">
        <ele>275</ele>
        <time>2022-08-14T07:20:41Z</time>
      </trkpt>
      <trkpt lat="43.92994" lon="1.84113">
        <ele>275</ele>
        <time>2022-08-14T07:20:42Z</time>
      </trkpt>
      <trkpt lat="43.92993" lon="1.84112">
        <ele>275</ele>
        <time>2022-08-14T07:20:43Z</time>
      </trkpt>
      <trkpt lat="43.92993" lon="1.84112">
        <ele>274.8</ele>
        <time>2022-08-14T07:20:44Z</time>
      </trkpt>
      <trkpt lat="43.92992" lon="1.8411">
        <ele>274.8</ele>
        <time>2022-08-14T07:20:45Z</time>
      </trkpt>
      <trkpt lat="43.92992" lon="1.84108">
        <ele>274.8</ele>
        <time>2022-08-14T07:20:46Z</time>
      </trkpt>
      <trkpt lat="43.92992" lon="1.84106">
        <ele>274.8</ele>
        <time>2022-08-14T07:20:47Z</time>
      </trkpt>
      <trkpt lat="43.92992" lon="1.84103">
        <ele>274.6</ele>
        <time>2022-08-14T07:20:48Z</time>
      </trkpt>
      <trkpt lat="43.92992" lon="1.84099">
        <ele>274.6</ele>
        <time>2022-08-14T07:20:49Z</time>
      </trkpt>
      <trkpt lat="43.92991" lon="1.84095">
        <ele>274.6</ele>
        <time>2022-08-14T07:20:50Z</time>
      </trkpt>
      <trkpt lat="43.92985" lon="1.8408">
        <ele>274.4</ele>
        <time>2022-08-14T07:20:55Z</time>
      </trkpt>
      <trkpt lat="43.92983" lon="1.84077">
        <ele>274.4</ele>
        <time>2022-08-14T07:20:56Z</time>
      </trkpt>
      <trkpt lat="43.92979" lon="1.84068">
        <ele>274.2</ele>
        <time>2022-08-14T07:20:58Z</time>
      </trkpt>
      <trkpt lat="43.92977" lon="1.84063">
        <ele>274.2</ele>
        <time>2022-08-14T07:20:59Z</time>
      </trkpt>
      <trkpt lat="43.92974" lon="1.84059">
        <ele>274</ele>
        <time>2022-08-14T07:21:00Z</time>
      </trkpt>
      <trkpt lat="43.92971" lon="1.84055">
        <ele>274</ele>
        <time>2022-08-14T07:21:01Z</time>
      </trkpt>
      <trkpt lat="43.92969" lon="1.84051">
        <ele>273.8</ele>
        <time>2022-08-14T07:21:02Z</time>
      </trkpt>
      <trkpt lat="43.92967" lon="1.84048">
        <ele>273.6</ele>
        <time>2022-08-14T07:21:03Z</time>
      </trkpt>
      <trkpt lat="43.92963" lon="1.84037">
        <ele>273.4</ele>
        <time>2022-08-14T07:21:06Z</time>
      </trkpt>
      <trkpt lat="43.92962" lon="1.84033">
        <ele>273.2</ele>
        <time>2022-08-14T07:21:07Z</time>
      </trkpt>
      <trkpt lat="43.9296" lon="1.84027">
        <ele>273</ele>
        <time>2022-08-14T07:21:08Z</time>
      </trkpt>
      <trkpt lat="43.92959" lon="1.84023">
        <ele>272.8</ele>
        <time>2022-08-14T07:21:09Z</time>
      </trkpt>
      <trkpt lat="43.92957" lon="1.84017">
        <ele>272.8</ele>
        <time>2022-08-14T07:21:10Z</time>
      </trkpt>
      <trkpt lat="43.92955" lon="1.84008">
        <ele>272.8</ele>
        <time>2022-08-14T07:21:12Z</time>
      </trkpt>
      <trkpt lat="43.92951" lon="1.83988">
        <ele>272.4</ele>
        <time>2022-08-14T07:21:16Z</time>
      </trkpt>
      <trkpt lat="43.92948" lon="1.83983">
        <ele>272.2</ele>
        <time>2022-08-14T07:21:17Z</time>
      </trkpt>
      <trkpt lat="43.92946" lon="1.8398">
        <ele>272.2</ele>
        <time>2022-08-14T07:21:18Z</time>
      </trkpt>
      <trkpt lat="43.92945" lon="1.83974">
        <ele>272.2</ele>
        <time>2022-08-14T07:21:19Z</time>
      </trkpt>
      <trkpt lat="43.92944" lon="1.8397">
        <ele>272</ele>
        <time>2022-08-14T07:21:20Z</time>
      </trkpt>
      <trkpt lat="43.92942" lon="1.83966">
        <ele>272</ele>
        <time>2022-08-14T07:21:21Z</time>
      </trkpt>
      <trkpt lat="43.92941" lon="1.83961">
        <ele>271.8</ele>
        <time>2022-08-14T07:21:22Z</time>
      </trkpt>
      <trkpt lat="43.9294" lon="1.83956">
        <ele>271.8</ele>
        <time>2022-08-14T07:21:23Z</time>
      </trkpt>
      <trkpt lat="43.92936" lon="1.83939">
        <ele>271.6</ele>
        <time>2022-08-14T07:21:26Z</time>
      </trkpt>
      <trkpt lat="43.92935" lon="1.83935">
        <ele>271.6</ele>
        <time>2022-08-14T07:21:27Z</time>
      </trkpt>
      <trkpt lat="43.92932" lon="1.83924">
        <ele>271.6</ele>
        <time>2022-08-14T07:21:29Z</time>
      </trkpt>
      <trkpt lat="43.92931" lon="1.83911">
        <ele>271.6</ele>
        <time>2022-08-14T07:21:31Z</time>
      </trkpt>
      <trkpt lat="43.92928" lon="1.83898">
        <ele>271.4</ele>
        <time>2022-08-14T07:21:33Z</time>
      </trkpt>
      <trkpt lat="43.92926" lon="1.83893">
        <ele>271.6</ele>
        <time>2022-08-14T07:21:34Z</time>
      </trkpt>
      <trkpt lat="43.92927" lon="1.83887">
        <ele>271.6</ele>
        <time>2022-08-14T07:21:35Z</time>
      </trkpt>
      <trkpt lat="43.92926" lon="1.83884">
        <ele>271.6</ele>
        <time>2022-08-14T07:21:36Z</time>
      </trkpt>
      <trkpt lat="43.92925" lon="1.8388">
        <ele>271.6</ele>
        <time>2022-08-14T07:21:37Z</time>
      </trkpt>
      <trkpt lat="43.92924" lon="1.83876">
        <ele>271.6</ele>
        <time>2022-08-14T07:21:38Z</time>
      </trkpt>
      <trkpt lat="43.92924" lon="1.83867">
        <ele>271.6</ele>
        <time>2022-08-14T07:21:40Z</time>
      </trkpt>
      <trkpt lat="43.92925" lon="1.83863">
        <ele>271.6</ele>
        <time>2022-08-14T07:21:41Z</time>
      </trkpt>
      <trkpt lat="43.92917" lon="1.83844">
        <ele>271.6</ele>
        <time>2022-08-14T07:21:45Z</time>
      </trkpt>
      <trkpt lat="43.92915" lon="1.83839">
        <ele>271.6</ele>
        <time>2022-08-14T07:21:46Z</time>
      </trkpt>
      <trkpt lat="43.92915" lon="1.83833">
        <ele>271.6</ele>
        <time>2022-08-14T07:21:47Z</time>
      </trkpt>
      <trkpt lat="43.92909" lon="1.83817">
        <ele>271.6</ele>
        <time>2022-08-14T07:21:50Z</time>
      </trkpt>
      <trkpt lat="43.92908" lon="1.83813">
        <ele>271.4</ele>
        <time>2022-08-14T07:21:51Z</time>
      </trkpt>
      <trkpt lat="43.92909" lon="1.8381">
        <ele>271.4</ele>
        <time>2022-08-14T07:21:52Z</time>
      </trkpt>
      <trkpt lat="43.92909" lon="1.83807">
        <ele>271.6</ele>
        <time>2022-08-14T07:21:53Z</time>
      </trkpt>
      <trkpt lat="43.92909" lon="1.83803">
        <ele>271.6</ele>
        <time>2022-08-14T07:21:54Z</time>
      </trkpt>
      <trkpt lat="43.92909" lon="1.83799">
        <ele>271.6</ele>
        <time>2022-08-14T07:21:55Z</time>
      </trkpt>
      <trkpt lat="43.9291" lon="1.83796">
        <ele>271.6</ele>
        <time>2022-08-14T07:21:56Z</time>
      </trkpt>
      <trkpt lat="43.9291" lon="1.83793">
        <ele>271.6</ele>
        <time>2022-08-14T07:21:57Z</time>
      </trkpt>
      <trkpt lat="43.92911" lon="1.83781">
        <ele>271.6</ele>
        <time>2022-08-14T07:21:59Z</time>
      </trkpt>
      <trkpt lat="43.92915" lon="1.83767">
        <ele>271.8</ele>
        <time>2022-08-14T07:22:02Z</time>
      </trkpt>
      <trkpt lat="43.9292" lon="1.83741">
        <ele>271.8</ele>
        <time>2022-08-14T07:22:07Z</time>
      </trkpt>
      <trkpt lat="43.92921" lon="1.83736">
        <ele>271.8</ele>
        <time>2022-08-14T07:22:08Z</time>
      </trkpt>
      <trkpt lat="43.92926" lon="1.83722">
        <ele>271.8</ele>
        <time>2022-08-14T07:22:11Z</time>
      </trkpt>
      <trkpt lat="43.9293" lon="1.83699">
        <ele>271.6</ele>
        <time>2022-08-14T07:22:14Z</time>
      </trkpt>
      <trkpt lat="43.92935" lon="1.83666">
        <ele>270.6</ele>
        <time>2022-08-14T07:22:18Z</time>
      </trkpt>
      <trkpt lat="43.92938" lon="1.83656">
        <ele>270.6</ele>
        <time>2022-08-14T07:22:19Z</time>
      </trkpt>
      <trkpt lat="43.92943" lon="1.83647">
        <ele>270.2</ele>
        <time>2022-08-14T07:22:20Z</time>
      </trkpt>
      <trkpt lat="43.92946" lon="1.8364">
        <ele>270.2</ele>
        <time>2022-08-14T07:22:21Z</time>
      </trkpt>
      <trkpt lat="43.92949" lon="1.83633">
        <ele>270</ele>
        <time>2022-08-14T07:22:22Z</time>
      </trkpt>
      <trkpt lat="43.9295" lon="1.83628">
        <ele>269.8</ele>
        <time>2022-08-14T07:22:23Z</time>
      </trkpt>
      <trkpt lat="43.92953" lon="1.83622">
        <ele>269.6</ele>
        <time>2022-08-14T07:22:24Z</time>
      </trkpt>
      <trkpt lat="43.92957" lon="1.83615">
        <ele>269.2</ele>
        <time>2022-08-14T07:22:25Z</time>
      </trkpt>
      <trkpt lat="43.92963" lon="1.83603">
        <ele>268.8</ele>
        <time>2022-08-14T07:22:27Z</time>
      </trkpt>
      <trkpt lat="43.92967" lon="1.83598">
        <ele>268.8</ele>
        <time>2022-08-14T07:22:28Z</time>
      </trkpt>
      <trkpt lat="43.9297" lon="1.83593">
        <ele>268.6</ele>
        <time>2022-08-14T07:22:29Z</time>
      </trkpt>
      <trkpt lat="43.92972" lon="1.83589">
        <ele>268.4</ele>
        <time>2022-08-14T07:22:30Z</time>
      </trkpt>
      <trkpt lat="43.92974" lon="1.83584">
        <ele>268.4</ele>
        <time>2022-08-14T07:22:31Z</time>
      </trkpt>
      <trkpt lat="43.92974" lon="1.8358">
        <ele>268.2</ele>
        <time>2022-08-14T07:22:32Z</time>
      </trkpt>
      <trkpt lat="43.92974" lon="1.83578">
        <ele>268</ele>
        <time>2022-08-14T07:22:33Z</time>
      </trkpt>
      <trkpt lat="43.92974" lon="1.83574">
        <ele>267.8</ele>
        <time>2022-08-14T07:22:34Z</time>
      </trkpt>
      <trkpt lat="43.92974" lon="1.83571">
        <ele>267.8</ele>
        <time>2022-08-14T07:22:35Z</time>
      </trkpt>
      <trkpt lat="43.92974" lon="1.83567">
        <ele>267.8</ele>
        <time>2022-08-14T07:22:36Z</time>
      </trkpt>
      <trkpt lat="43.92974" lon="1.83564">
        <ele>267.8</ele>
        <time>2022-08-14T07:22:37Z</time>
      </trkpt>
      <trkpt lat="43.92973" lon="1.83561">
        <ele>267.6</ele>
        <time>2022-08-14T07:22:38Z</time>
      </trkpt>
      <trkpt lat="43.92974" lon="1.83559">
        <ele>267.6</ele>
        <time>2022-08-14T07:22:39Z</time>
      </trkpt>
      <trkpt lat="43.92974" lon="1.83557">
        <ele>267.6</ele>
        <time>2022-08-14T07:22:40Z</time>
      </trkpt>
      <trkpt lat="43.92975" lon="1.83555">
        <ele>267.6</ele>
        <time>2022-08-14T07:22:41Z</time>
      </trkpt>
      <trkpt lat="43.92976" lon="1.83552">
        <ele>267.6</ele>
        <time>2022-08-14T07:22:42Z</time>
      </trkpt>
      <trkpt lat="43.92979" lon="1.83545">
        <ele>267.8</ele>
        <time>2022-08-14T07:22:44Z</time>
      </trkpt>
      <trkpt lat="43.92982" lon="1.83539">
        <ele>268</ele>
        <time>2022-08-14T07:22:46Z</time>
      </trkpt>
      <trkpt lat="43.92986" lon="1.83528">
        <ele>268</ele>
        <time>2022-08-14T07:22:49Z</time>
      </trkpt>
      <trkpt lat="43.9299" lon="1.83519">
        <ele>268.2</ele>
        <time>2022-08-14T07:22:51Z</time>
      </trkpt>
      <trkpt lat="43.92993" lon="1.83511">
        <ele>268</ele>
        <time>2022-08-14T07:22:53Z</time>
      </trkpt>
      <trkpt lat="43.93" lon="1.83495">
        <ele>268.2</ele>
        <time>2022-08-14T07:22:57Z</time>
      </trkpt>
      <trkpt lat="43.93002" lon="1.83491">
        <ele>268</ele>
        <time>2022-08-14T07:22:58Z</time>
      </trkpt>
      <trkpt lat="43.93003" lon="1.83487">
        <ele>268</ele>
        <time>2022-08-14T07:22:59Z</time>
      </trkpt>
      <trkpt lat="43.93004" lon="1.83484">
        <ele>268</ele>
        <time>2022-08-14T07:23:00Z</time>
      </trkpt>
      <trkpt lat="43.93007" lon="1.83472">
        <ele>268</ele>
        <time>2022-08-14T07:23:03Z</time>
      </trkpt>
      <trkpt lat="43.93007" lon="1.83468">
        <ele>268</ele>
        <time>2022-08-14T07:23:04Z</time>
      </trkpt>
      <trkpt lat="43.93008" lon="1.83462">
        <ele>268</ele>
        <time>2022-08-14T07:23:05Z</time>
      </trkpt>
      <trkpt lat="43.93009" lon="1.83456">
        <ele>268</ele>
        <time>2022-08-14T07:23:06Z</time>
      </trkpt>
      <trkpt lat="43.93009" lon="1.83452">
        <ele>268</ele>
        <time>2022-08-14T07:23:07Z</time>
      </trkpt>
      <trkpt lat="43.93008" lon="1.83443">
        <ele>268</ele>
        <time>2022-08-14T07:23:09Z</time>
      </trkpt>
      <trkpt lat="43.93007" lon="1.83436">
        <ele>268</ele>
        <time>2022-08-14T07:23:10Z</time>
      </trkpt>
      <trkpt lat="43.93007" lon="1.83429">
        <ele>268</ele>
        <time>2022-08-14T07:23:11Z</time>
      </trkpt>
      <trkpt lat="43.93007" lon="1.8342">
        <ele>268.2</ele>
        <time>2022-08-14T07:23:12Z</time>
      </trkpt>
      <trkpt lat="43.93008" lon="1.8341">
        <ele>268.2</ele>
        <time>2022-08-14T07:23:14Z</time>
      </trkpt>
      <trkpt lat="43.93011" lon="1.83402">
        <ele>268.2</ele>
        <time>2022-08-14T07:23:16Z</time>
      </trkpt>
      <trkpt lat="43.93012" lon="1.83398">
        <ele>268.2</ele>
        <time>2022-08-14T07:23:17Z</time>
      </trkpt>
      <trkpt lat="43.93014" lon="1.83391">
        <ele>268.2</ele>
        <time>2022-08-14T07:23:19Z</time>
      </trkpt>
      <trkpt lat="43.93015" lon="1.83385">
        <ele>268.2</ele>
        <time>2022-08-14T07:23:20Z</time>
      </trkpt>
      <trkpt lat="43.93017" lon="1.83376">
        <ele>268.4</ele>
        <time>2022-08-14T07:23:22Z</time>
      </trkpt>
      <trkpt lat="43.9302" lon="1.83355">
        <ele>268.6</ele>
        <time>2022-08-14T07:23:26Z</time>
      </trkpt>
      <trkpt lat="43.93021" lon="1.83345">
        <ele>268.8</ele>
        <time>2022-08-14T07:23:28Z</time>
      </trkpt>
      <trkpt lat="43.93023" lon="1.83328">
        <ele>268.8</ele>
        <time>2022-08-14T07:23:31Z</time>
      </trkpt>
      <trkpt lat="43.93025" lon="1.8332">
        <ele>268.8</ele>
        <time>2022-08-14T07:23:32Z</time>
      </trkpt>
      <trkpt lat="43.93026" lon="1.83317">
        <ele>268.6</ele>
        <time>2022-08-14T07:23:33Z</time>
      </trkpt>
      <trkpt lat="43.93027" lon="1.83313">
        <ele>268.6</ele>
        <time>2022-08-14T07:23:34Z</time>
      </trkpt>
      <trkpt lat="43.93028" lon="1.83307">
        <ele>268.6</ele>
        <time>2022-08-14T07:23:35Z</time>
      </trkpt>
      <trkpt lat="43.93029" lon="1.83301">
        <ele>268.6</ele>
        <time>2022-08-14T07:23:36Z</time>
      </trkpt>
      <trkpt lat="43.93031" lon="1.83297">
        <ele>268.6</ele>
        <time>2022-08-14T07:23:37Z</time>
      </trkpt>
      <trkpt lat="43.93033" lon="1.83292">
        <ele>268.4</ele>
        <time>2022-08-14T07:23:38Z</time>
      </trkpt>
      <trkpt lat="43.93035" lon="1.83288">
        <ele>268.4</ele>
        <time>2022-08-14T07:23:39Z</time>
      </trkpt>
      <trkpt lat="43.93035" lon="1.83284">
        <ele>268.2</ele>
        <time>2022-08-14T07:23:40Z</time>
      </trkpt>
      <trkpt lat="43.93035" lon="1.8328">
        <ele>268.2</ele>
        <time>2022-08-14T07:23:41Z</time>
      </trkpt>
      <trkpt lat="43.93035" lon="1.83275">
        <ele>268.2</ele>
        <time>2022-08-14T07:23:42Z</time>
      </trkpt>
      <trkpt lat="43.93036" lon="1.83272">
        <ele>268.2</ele>
        <time>2022-08-14T07:23:43Z</time>
      </trkpt>
      <trkpt lat="43.93037" lon="1.83268">
        <ele>268</ele>
        <time>2022-08-14T07:23:44Z</time>
      </trkpt>
      <trkpt lat="43.93039" lon="1.83258">
        <ele>267.8</ele>
        <time>2022-08-14T07:23:46Z</time>
      </trkpt>
      <trkpt lat="43.93039" lon="1.83255">
        <ele>267.6</ele>
        <time>2022-08-14T07:23:47Z</time>
      </trkpt>
      <trkpt lat="43.93041" lon="1.83253">
        <ele>267.6</ele>
        <time>2022-08-14T07:23:48Z</time>
      </trkpt>
      <trkpt lat="43.93042" lon="1.8325">
        <ele>267.6</ele>
        <time>2022-08-14T07:23:49Z</time>
      </trkpt>
      <trkpt lat="43.93043" lon="1.83247">
        <ele>267.2</ele>
        <time>2022-08-14T07:23:50Z</time>
      </trkpt>
      <trkpt lat="43.93044" lon="1.83244">
        <ele>267.2</ele>
        <time>2022-08-14T07:23:51Z</time>
      </trkpt>
      <trkpt lat="43.93045" lon="1.83241">
        <ele>267.2</ele>
        <time>2022-08-14T07:23:52Z</time>
      </trkpt>
      <trkpt lat="43.93044" lon="1.83238">
        <ele>267.2</ele>
        <time>2022-08-14T07:23:53Z</time>
      </trkpt>
      <trkpt lat="43.93044" lon="1.83235">
        <ele>267.2</ele>
        <time>2022-08-14T07:23:54Z</time>
      </trkpt>
      <trkpt lat="43.93045" lon="1.83233">
        <ele>267.2</ele>
        <time>2022-08-14T07:23:55Z</time>
      </trkpt>
      <trkpt lat="43.93047" lon="1.83227">
        <ele>267.2</ele>
        <time>2022-08-14T07:23:57Z</time>
      </trkpt>
      <trkpt lat="43.93048" lon="1.83222">
        <ele>267.2</ele>
        <time>2022-08-14T07:23:58Z</time>
      </trkpt>
      <trkpt lat="43.93049" lon="1.83219">
        <ele>267.2</ele>
        <time>2022-08-14T07:23:59Z</time>
      </trkpt>
      <trkpt lat="43.9305" lon="1.83215">
        <ele>267.2</ele>
        <time>2022-08-14T07:24:00Z</time>
      </trkpt>
      <trkpt lat="43.93051" lon="1.83209">
        <ele>267.4</ele>
        <time>2022-08-14T07:24:02Z</time>
      </trkpt>
      <trkpt lat="43.93052" lon="1.83206">
        <ele>267.4</ele>
        <time>2022-08-14T07:24:03Z</time>
      </trkpt>
      <trkpt lat="43.93054" lon="1.83197">
        <ele>267.4</ele>
        <time>2022-08-14T07:24:05Z</time>
      </trkpt>
      <trkpt lat="43.9306" lon="1.83181">
        <ele>267.6</ele>
        <time>2022-08-14T07:24:10Z</time>
      </trkpt>
      <trkpt lat="43.93063" lon="1.83178">
        <ele>267.6</ele>
        <time>2022-08-14T07:24:12Z</time>
      </trkpt>
      <trkpt lat="43.93063" lon="1.83168">
        <ele>267.8</ele>
        <time>2022-08-14T07:24:14Z</time>
      </trkpt>
      <trkpt lat="43.93063" lon="1.83165">
        <ele>267.8</ele>
        <time>2022-08-14T07:24:15Z</time>
      </trkpt>
      <trkpt lat="43.93062" lon="1.83162">
        <ele>267.8</ele>
        <time>2022-08-14T07:24:16Z</time>
      </trkpt>
      <trkpt lat="43.93061" lon="1.83158">
        <ele>268</ele>
        <time>2022-08-14T07:24:18Z</time>
      </trkpt>
      <trkpt lat="43.9306" lon="1.83147">
        <ele>268</ele>
        <time>2022-08-14T07:24:20Z</time>
      </trkpt>
      <trkpt lat="43.93059" lon="1.83143">
        <ele>268</ele>
        <time>2022-08-14T07:24:21Z</time>
      </trkpt>
      <trkpt lat="43.93058" lon="1.83137">
        <ele>268</ele>
        <time>2022-08-14T07:24:23Z</time>
      </trkpt>
      <trkpt lat="43.93058" lon="1.83133">
        <ele>268</ele>
        <time>2022-08-14T07:24:24Z</time>
      </trkpt>
      <trkpt lat="43.93059" lon="1.83126">
        <ele>268.2</ele>
        <time>2022-08-14T07:24:26Z</time>
      </trkpt>
      <trkpt lat="43.93059" lon="1.83122">
        <ele>268.2</ele>
        <time>2022-08-14T07:24:27Z</time>
      </trkpt>
      <trkpt lat="43.9306" lon="1.8312">
        <ele>268.2</ele>
        <time>2022-08-14T07:24:28Z</time>
      </trkpt>
      <trkpt lat="43.9306" lon="1.83116">
        <ele>268.2</ele>
        <time>2022-08-14T07:24:29Z</time>
      </trkpt>
      <trkpt lat="43.9306" lon="1.83103">
        <ele>268.2</ele>
        <time>2022-08-14T07:24:32Z</time>
      </trkpt>
      <trkpt lat="43.93059" lon="1.83099">
        <ele>268.2</ele>
        <time>2022-08-14T07:24:33Z</time>
      </trkpt>
      <trkpt lat="43.93059" lon="1.83082">
        <ele>268.4</ele>
        <time>2022-08-14T07:24:36Z</time>
      </trkpt>
      <trkpt lat="43.93059" lon="1.83079">
        <ele>268.4</ele>
        <time>2022-08-14T07:24:37Z</time>
      </trkpt>
      <trkpt lat="43.93059" lon="1.83077">
        <ele>268.4</ele>
        <time>2022-08-14T07:24:38Z</time>
      </trkpt>
      <trkpt lat="43.93057" lon="1.83071">
        <ele>268.6</ele>
        <time>2022-08-14T07:24:40Z</time>
      </trkpt>
      <trkpt lat="43.93056" lon="1.8306">
        <ele>268.8</ele>
        <time>2022-08-14T07:24:43Z</time>
      </trkpt>
      <trkpt lat="43.93056" lon="1.83058">
        <ele>269</ele>
        <time>2022-08-14T07:24:44Z</time>
      </trkpt>
      <trkpt lat="43.93054" lon="1.8305">
        <ele>269</ele>
        <time>2022-08-14T07:24:46Z</time>
      </trkpt>
      <trkpt lat="43.93053" lon="1.8304">
        <ele>269</ele>
        <time>2022-08-14T07:24:48Z</time>
      </trkpt>
      <trkpt lat="43.93053" lon="1.83037">
        <ele>269</ele>
        <time>2022-08-14T07:24:49Z</time>
      </trkpt>
      <trkpt lat="43.93053" lon="1.83035">
        <ele>269</ele>
        <time>2022-08-14T07:24:50Z</time>
      </trkpt>
      <trkpt lat="43.93054" lon="1.83032">
        <ele>269</ele>
        <time>2022-08-14T07:24:51Z</time>
      </trkpt>
      <trkpt lat="43.93055" lon="1.83027">
        <ele>269</ele>
        <time>2022-08-14T07:24:52Z</time>
      </trkpt>
      <trkpt lat="43.93055" lon="1.83024">
        <ele>268.8</ele>
        <time>2022-08-14T07:24:53Z</time>
      </trkpt>
      <trkpt lat="43.93054" lon="1.83018">
        <ele>268.8</ele>
        <time>2022-08-14T07:24:55Z</time>
      </trkpt>
      <trkpt lat="43.93053" lon="1.83016">
        <ele>268.6</ele>
        <time>2022-08-14T07:24:56Z</time>
      </trkpt>
      <trkpt lat="43.93053" lon="1.83013">
        <ele>268.8</ele>
        <time>2022-08-14T07:24:57Z</time>
      </trkpt>
      <trkpt lat="43.93054" lon="1.83011">
        <ele>268.8</ele>
        <time>2022-08-14T07:24:58Z</time>
      </trkpt>
      <trkpt lat="43.93056" lon="1.83008">
        <ele>268.8</ele>
        <time>2022-08-14T07:24:59Z</time>
      </trkpt>
      <trkpt lat="43.93057" lon="1.83005">
        <ele>268.6</ele>
        <time>2022-08-14T07:25:00Z</time>
      </trkpt>
      <trkpt lat="43.93058" lon="1.83003">
        <ele>268.6</ele>
        <time>2022-08-14T07:25:01Z</time>
      </trkpt>
      <trkpt lat="43.93058" lon="1.83002">
        <ele>268.6</ele>
        <time>2022-08-14T07:25:02Z</time>
      </trkpt>
      <trkpt lat="43.93059" lon="1.83001">
        <ele>268.6</ele>
        <time>2022-08-14T07:25:03Z</time>
      </trkpt>
      <trkpt lat="43.93059" lon="1.83001">
        <ele>268.4</ele>
        <time>2022-08-14T07:25:16Z</time>
      </trkpt>
      <trkpt lat="43.9306" lon="1.82999">
        <ele>268.4</ele>
        <time>2022-08-14T07:25:18Z</time>
      </trkpt>
      <trkpt lat="43.93071" lon="1.82983">
        <ele>268.2</ele>
        <time>2022-08-14T07:25:24Z</time>
      </trkpt>
      <trkpt lat="43.93077" lon="1.82974">
        <ele>268</ele>
        <time>2022-08-14T07:25:27Z</time>
      </trkpt>
      <trkpt lat="43.93085" lon="1.82963">
        <ele>267.8</ele>
        <time>2022-08-14T07:25:30Z</time>
      </trkpt>
      <trkpt lat="43.93095" lon="1.82946">
        <ele>267.4</ele>
        <time>2022-08-14T07:25:33Z</time>
      </trkpt>
      <trkpt lat="43.93104" lon="1.82937">
        <ele>267.2</ele>
        <time>2022-08-14T07:25:35Z</time>
      </trkpt>
      <trkpt lat="43.93109" lon="1.82932">
        <ele>267.2</ele>
        <time>2022-08-14T07:25:36Z</time>
      </trkpt>
      <trkpt lat="43.93113" lon="1.82926">
        <ele>267</ele>
        <time>2022-08-14T07:25:37Z</time>
      </trkpt>
      <trkpt lat="43.9312" lon="1.82911">
        <ele>266.6</ele>
        <time>2022-08-14T07:25:39Z</time>
      </trkpt>
      <trkpt lat="43.9313" lon="1.82895">
        <ele>266.2</ele>
        <time>2022-08-14T07:25:41Z</time>
      </trkpt>
      <trkpt lat="43.93137" lon="1.82887">
        <ele>265.8</ele>
        <time>2022-08-14T07:25:42Z</time>
      </trkpt>
      <trkpt lat="43.93142" lon="1.82882">
        <ele>265.6</ele>
        <time>2022-08-14T07:25:43Z</time>
      </trkpt>
      <trkpt lat="43.93149" lon="1.82878">
        <ele>265.4</ele>
        <time>2022-08-14T07:25:44Z</time>
      </trkpt>
      <trkpt lat="43.93156" lon="1.82875">
        <ele>265.2</ele>
        <time>2022-08-14T07:25:45Z</time>
      </trkpt>
      <trkpt lat="43.93163" lon="1.82875">
        <ele>264.8</ele>
        <time>2022-08-14T07:25:46Z</time>
      </trkpt>
      <trkpt lat="43.9317" lon="1.82878">
        <ele>264.2</ele>
        <time>2022-08-14T07:25:47Z</time>
      </trkpt>
      <trkpt lat="43.93177" lon="1.82881">
        <ele>264</ele>
        <time>2022-08-14T07:25:48Z</time>
      </trkpt>
      <trkpt lat="43.93184" lon="1.82883">
        <ele>263.6</ele>
        <time>2022-08-14T07:25:49Z</time>
      </trkpt>
      <trkpt lat="43.9319" lon="1.82882">
        <ele>263.6</ele>
        <time>2022-08-14T07:25:50Z</time>
      </trkpt>
      <trkpt lat="43.93195" lon="1.82882">
        <ele>263</ele>
        <time>2022-08-14T07:25:51Z</time>
      </trkpt>
      <trkpt lat="43.93199" lon="1.82881">
        <ele>263</ele>
        <time>2022-08-14T07:25:52Z</time>
      </trkpt>
      <trkpt lat="43.93202" lon="1.82881">
        <ele>262.4</ele>
        <time>2022-08-14T07:25:53Z</time>
      </trkpt>
      <trkpt lat="43.93206" lon="1.8288">
        <ele>262</ele>
        <time>2022-08-14T07:25:54Z</time>
      </trkpt>
      <trkpt lat="43.93209" lon="1.82879">
        <ele>262</ele>
        <time>2022-08-14T07:25:55Z</time>
      </trkpt>
      <trkpt lat="43.93216" lon="1.82879">
        <ele>261.8</ele>
        <time>2022-08-14T07:25:57Z</time>
      </trkpt>
      <trkpt lat="43.9322" lon="1.8288">
        <ele>261.4</ele>
        <time>2022-08-14T07:25:58Z</time>
      </trkpt>
      <trkpt lat="43.93223" lon="1.8288">
        <ele>261.4</ele>
        <time>2022-08-14T07:25:59Z</time>
      </trkpt>
      <trkpt lat="43.93233" lon="1.82882">
        <ele>261</ele>
        <time>2022-08-14T07:26:01Z</time>
      </trkpt>
      <trkpt lat="43.93243" lon="1.82887">
        <ele>260.2</ele>
        <time>2022-08-14T07:26:03Z</time>
      </trkpt>
      <trkpt lat="43.93248" lon="1.82889">
        <ele>260.2</ele>
        <time>2022-08-14T07:26:04Z</time>
      </trkpt>
      <trkpt lat="43.93254" lon="1.82888">
        <ele>260</ele>
        <time>2022-08-14T07:26:05Z</time>
      </trkpt>
      <trkpt lat="43.93259" lon="1.82888">
        <ele>260</ele>
        <time>2022-08-14T07:26:06Z</time>
      </trkpt>
      <trkpt lat="43.93269" lon="1.82889">
        <ele>259.4</ele>
        <time>2022-08-14T07:26:08Z</time>
      </trkpt>
      <trkpt lat="43.93274" lon="1.8289">
        <ele>259.2</ele>
        <time>2022-08-14T07:26:09Z</time>
      </trkpt>
      <trkpt lat="43.93279" lon="1.82891">
        <ele>259.2</ele>
        <time>2022-08-14T07:26:10Z</time>
      </trkpt>
      <trkpt lat="43.93288" lon="1.82891">
        <ele>259</ele>
        <time>2022-08-14T07:26:11Z</time>
      </trkpt>
      <trkpt lat="43.93293" lon="1.82894">
        <ele>258.8</ele>
        <time>2022-08-14T07:26:12Z</time>
      </trkpt>
      <trkpt lat="43.93297" lon="1.82897">
        <ele>258.8</ele>
        <time>2022-08-14T07:26:13Z</time>
      </trkpt>
      <trkpt lat="43.93301" lon="1.82899">
        <ele>258.6</ele>
        <time>2022-08-14T07:26:14Z</time>
      </trkpt>
      <trkpt lat="43.93302" lon="1.82899">
        <ele>258.4</ele>
        <time>2022-08-14T07:26:15Z</time>
      </trkpt>
      <trkpt lat="43.93303" lon="1.829">
        <ele>256.4</ele>
        <time>2022-08-14T07:26:34Z</time>
      </trkpt>
      <trkpt lat="43.93304" lon="1.82901">
        <ele>256.2</ele>
        <time>2022-08-14T07:26:35Z</time>
      </trkpt>
      <trkpt lat="43.93305" lon="1.82902">
        <ele>256.2</ele>
        <time>2022-08-14T07:26:36Z</time>
      </trkpt>
      <trkpt lat="43.93305" lon="1.82903">
        <ele>256</ele>
        <time>2022-08-14T07:26:37Z</time>
      </trkpt>
      <trkpt lat="43.93306" lon="1.82905">
        <ele>256</ele>
        <time>2022-08-14T07:26:38Z</time>
      </trkpt>
      <trkpt lat="43.93306" lon="1.82906">
        <ele>256</ele>
        <time>2022-08-14T07:26:39Z</time>
      </trkpt>
      <trkpt lat="43.93306" lon="1.82908">
        <ele>256</ele>
        <time>2022-08-14T07:26:40Z</time>
      </trkpt>
      <trkpt lat="43.93306" lon="1.82908">
        <ele>255.8</ele>
        <time>2022-08-14T07:26:41Z</time>
      </trkpt>
      <trkpt lat="43.93309" lon="1.82912">
        <ele>255.2</ele>
        <time>2022-08-14T07:26:44Z</time>
      </trkpt>
      <trkpt lat="43.93311" lon="1.82914">
        <ele>254.8</ele>
        <time>2022-08-14T07:26:47Z</time>
      </trkpt>
      <trkpt lat="43.93312" lon="1.82916">
        <ele>254.6</ele>
        <time>2022-08-14T07:26:48Z</time>
      </trkpt>
      <trkpt lat="43.93313" lon="1.82918">
        <ele>254.2</ele>
        <time>2022-08-14T07:26:49Z</time>
      </trkpt>
      <trkpt lat="43.93315" lon="1.82921">
        <ele>254</ele>
        <time>2022-08-14T07:26:50Z</time>
      </trkpt>
      <trkpt lat="43.93317" lon="1.82924">
        <ele>253.6</ele>
        <time>2022-08-14T07:26:52Z</time>
      </trkpt>
      <trkpt lat="43.93318" lon="1.82926">
        <ele>253.4</ele>
        <time>2022-08-14T07:26:53Z</time>
      </trkpt>
      <trkpt lat="43.9332" lon="1.82929">
        <ele>253.2</ele>
        <time>2022-08-14T07:26:54Z</time>
      </trkpt>
      <trkpt lat="43.93322" lon="1.82932">
        <ele>252.8</ele>
        <time>2022-08-14T07:26:55Z</time>
      </trkpt>
      <trkpt lat="43.93323" lon="1.82935">
        <ele>252.8</ele>
        <time>2022-08-14T07:26:56Z</time>
      </trkpt>
      <trkpt lat="43.93327" lon="1.82943">
        <ele>251.6</ele>
        <time>2022-08-14T07:26:59Z</time>
      </trkpt>
      <trkpt lat="43.93328" lon="1.82946">
        <ele>251.4</ele>
        <time>2022-08-14T07:27:00Z</time>
      </trkpt>
      <trkpt lat="43.93332" lon="1.82954">
        <ele>248.8</ele>
        <time>2022-08-14T07:27:21Z</time>
      </trkpt>
      <trkpt lat="43.93333" lon="1.82956">
        <ele>248.8</ele>
        <time>2022-08-14T07:27:22Z</time>
      </trkpt>
      <trkpt lat="43.93334" lon="1.82957">
        <ele>248.6</ele>
        <time>2022-08-14T07:27:23Z</time>
      </trkpt>
      <trkpt lat="43.93337" lon="1.82961">
        <ele>248.2</ele>
        <time>2022-08-14T07:27:27Z</time>
      </trkpt>
      <trkpt lat="43.93341" lon="1.82967">
        <ele>248</ele>
        <time>2022-08-14T07:27:31Z</time>
      </trkpt>
      <trkpt lat="43.93342" lon="1.82968">
        <ele>247.8</ele>
        <time>2022-08-14T07:27:32Z</time>
      </trkpt>
      <trkpt lat="43.93343" lon="1.82969">
        <ele>247.8</ele>
        <time>2022-08-14T07:27:33Z</time>
      </trkpt>
      <trkpt lat="43.9335" lon="1.82974">
        <ele>247.2</ele>
        <time>2022-08-14T07:27:36Z</time>
      </trkpt>
      <trkpt lat="43.93352" lon="1.82975">
        <ele>246.8</ele>
        <time>2022-08-14T07:27:37Z</time>
      </trkpt>
      <trkpt lat="43.93354" lon="1.82976">
        <ele>246.8</ele>
        <time>2022-08-14T07:27:38Z</time>
      </trkpt>
      <trkpt lat="43.93357" lon="1.82978">
        <ele>246.4</ele>
        <time>2022-08-14T07:27:39Z</time>
      </trkpt>
      <trkpt lat="43.93359" lon="1.82981">
        <ele>246.4</ele>
        <time>2022-08-14T07:27:40Z</time>
      </trkpt>
      <trkpt lat="43.93362" lon="1.82982">
        <ele>246.2</ele>
        <time>2022-08-14T07:27:41Z</time>
      </trkpt>
      <trkpt lat="43.93365" lon="1.82984">
        <ele>246</ele>
        <time>2022-08-14T07:27:42Z</time>
      </trkpt>
      <trkpt lat="43.93369" lon="1.82985">
        <ele>245</ele>
        <time>2022-08-14T07:27:43Z</time>
      </trkpt>
      <trkpt lat="43.93377" lon="1.82986">
        <ele>243.6</ele>
        <time>2022-08-14T07:27:46Z</time>
      </trkpt>
      <trkpt lat="43.93379" lon="1.82985">
        <ele>243.2</ele>
        <time>2022-08-14T07:27:47Z</time>
      </trkpt>
      <trkpt lat="43.93382" lon="1.82982">
        <ele>242.4</ele>
        <time>2022-08-14T07:27:48Z</time>
      </trkpt>
      <trkpt lat="43.93384" lon="1.82981">
        <ele>242.2</ele>
        <time>2022-08-14T07:27:49Z</time>
      </trkpt>
      <trkpt lat="43.93385" lon="1.82979">
        <ele>241.6</ele>
        <time>2022-08-14T07:27:50Z</time>
      </trkpt>
      <trkpt lat="43.93386" lon="1.82979">
        <ele>241.2</ele>
        <time>2022-08-14T07:27:51Z</time>
      </trkpt>
      <trkpt lat="43.93386" lon="1.82979">
        <ele>239.4</ele>
        <time>2022-08-14T07:28:21Z</time>
      </trkpt>
      <trkpt lat="43.93392" lon="1.8298">
        <ele>239.4</ele>
        <time>2022-08-14T07:28:25Z</time>
      </trkpt>
      <trkpt lat="43.93398" lon="1.82979">
        <ele>238.6</ele>
        <time>2022-08-14T07:28:29Z</time>
      </trkpt>
      <trkpt lat="43.93402" lon="1.82978">
        <ele>238.2</ele>
        <time>2022-08-14T07:28:31Z</time>
      </trkpt>
      <trkpt lat="43.93406" lon="1.82978">
        <ele>237.8</ele>
        <time>2022-08-14T07:28:33Z</time>
      </trkpt>
      <trkpt lat="43.93412" lon="1.82975">
        <ele>237.2</ele>
        <time>2022-08-14T07:28:35Z</time>
      </trkpt>
      <trkpt lat="43.93414" lon="1.82974">
        <ele>237</ele>
        <time>2022-08-14T07:28:36Z</time>
      </trkpt>
      <trkpt lat="43.93415" lon="1.82972">
        <ele>236.8</ele>
        <time>2022-08-14T07:28:37Z</time>
      </trkpt>
      <trkpt lat="43.93416" lon="1.8297">
        <ele>236.2</ele>
        <time>2022-08-14T07:28:38Z</time>
      </trkpt>
      <trkpt lat="43.93418" lon="1.82965">
        <ele>235.6</ele>
        <time>2022-08-14T07:28:40Z</time>
      </trkpt>
      <trkpt lat="43.93419" lon="1.82963">
        <ele>235.4</ele>
        <time>2022-08-14T07:28:41Z</time>
      </trkpt>
      <trkpt lat="43.93419" lon="1.8296">
        <ele>235.4</ele>
        <time>2022-08-14T07:28:42Z</time>
      </trkpt>
      <trkpt lat="43.9342" lon="1.82958">
        <ele>234.8</ele>
        <time>2022-08-14T07:28:43Z</time>
      </trkpt>
      <trkpt lat="43.93421" lon="1.82955">
        <ele>234.6</ele>
        <time>2022-08-14T07:28:44Z</time>
      </trkpt>
      <trkpt lat="43.93422" lon="1.82953">
        <ele>234.4</ele>
        <time>2022-08-14T07:28:45Z</time>
      </trkpt>
      <trkpt lat="43.93423" lon="1.82949">
        <ele>234.4</ele>
        <time>2022-08-14T07:28:46Z</time>
      </trkpt>
      <trkpt lat="43.93424" lon="1.82946">
        <ele>234.2</ele>
        <time>2022-08-14T07:28:47Z</time>
      </trkpt>
      <trkpt lat="43.93425" lon="1.82942">
        <ele>234.2</ele>
        <time>2022-08-14T07:28:48Z</time>
      </trkpt>
      <trkpt lat="43.93424" lon="1.8294">
        <ele>234.2</ele>
        <time>2022-08-14T07:28:49Z</time>
      </trkpt>
      <trkpt lat="43.93424" lon="1.82938">
        <ele>234.2</ele>
        <time>2022-08-14T07:28:50Z</time>
      </trkpt>
      <trkpt lat="43.93425" lon="1.82935">
        <ele>234.2</ele>
        <time>2022-08-14T07:28:51Z</time>
      </trkpt>
      <trkpt lat="43.93426" lon="1.82927">
        <ele>234.2</ele>
        <time>2022-08-14T07:28:53Z</time>
      </trkpt>
      <trkpt lat="43.93426" lon="1.82925">
        <ele>234.2</ele>
        <time>2022-08-14T07:28:54Z</time>
      </trkpt>
      <trkpt lat="43.93426" lon="1.82919">
        <ele>234.6</ele>
        <time>2022-08-14T07:28:56Z</time>
      </trkpt>
      <trkpt lat="43.93426" lon="1.82918">
        <ele>235</ele>
        <time>2022-08-14T07:28:57Z</time>
      </trkpt>
      <trkpt lat="43.93426" lon="1.82916">
        <ele>235.4</ele>
        <time>2022-08-14T07:28:58Z</time>
      </trkpt>
      <trkpt lat="43.93429" lon="1.82911">
        <ele>235.8</ele>
        <time>2022-08-14T07:29:00Z</time>
      </trkpt>
      <trkpt lat="43.93429" lon="1.82907">
        <ele>236.2</ele>
        <time>2022-08-14T07:29:02Z</time>
      </trkpt>
      <trkpt lat="43.9343" lon="1.82902">
        <ele>236.4</ele>
        <time>2022-08-14T07:29:03Z</time>
      </trkpt>
      <trkpt lat="43.93432" lon="1.82897">
        <ele>236.6</ele>
        <time>2022-08-14T07:29:05Z</time>
      </trkpt>
      <trkpt lat="43.93433" lon="1.82895">
        <ele>236.8</ele>
        <time>2022-08-14T07:29:06Z</time>
      </trkpt>
      <trkpt lat="43.93433" lon="1.82894">
        <ele>236.8</ele>
        <time>2022-08-14T07:29:07Z</time>
      </trkpt>
      <trkpt lat="43.93434" lon="1.82893">
        <ele>237</ele>
        <time>2022-08-14T07:29:08Z</time>
      </trkpt>
      <trkpt lat="43.93435" lon="1.82892">
        <ele>237</ele>
        <time>2022-08-14T07:29:09Z</time>
      </trkpt>
      <trkpt lat="43.93435" lon="1.82891">
        <ele>237</ele>
        <time>2022-08-14T07:29:10Z</time>
      </trkpt>
      <trkpt lat="43.93439" lon="1.82887">
        <ele>237.2</ele>
        <time>2022-08-14T07:29:12Z</time>
      </trkpt>
      <trkpt lat="43.93441" lon="1.82885">
        <ele>237.2</ele>
        <time>2022-08-14T07:29:14Z</time>
      </trkpt>
      <trkpt lat="43.93445" lon="1.82881">
        <ele>237.2</ele>
        <time>2022-08-14T07:29:17Z</time>
      </trkpt>
      <trkpt lat="43.93448" lon="1.82872">
        <ele>237.4</ele>
        <time>2022-08-14T07:29:20Z</time>
      </trkpt>
      <trkpt lat="43.93449" lon="1.82869">
        <ele>237.4</ele>
        <time>2022-08-14T07:29:21Z</time>
      </trkpt>
      <trkpt lat="43.9345" lon="1.82867">
        <ele>237.4</ele>
        <time>2022-08-14T07:29:22Z</time>
      </trkpt>
      <trkpt lat="43.93451" lon="1.82865">
        <ele>237.4</ele>
        <time>2022-08-14T07:29:23Z</time>
      </trkpt>
      <trkpt lat="43.93455" lon="1.82854">
        <ele>238</ele>
        <time>2022-08-14T07:29:26Z</time>
      </trkpt>
      <trkpt lat="43.93456" lon="1.82841">
        <ele>238.6</ele>
        <time>2022-08-14T07:29:29Z</time>
      </trkpt>
      <trkpt lat="43.93456" lon="1.82837">
        <ele>238.8</ele>
        <time>2022-08-14T07:29:30Z</time>
      </trkpt>
      <trkpt lat="43.93456" lon="1.82834">
        <ele>238.8</ele>
        <time>2022-08-14T07:29:31Z</time>
      </trkpt>
      <trkpt lat="43.93456" lon="1.82831">
        <ele>238.8</ele>
        <time>2022-08-14T07:29:32Z</time>
      </trkpt>
      <trkpt lat="43.93457" lon="1.82827">
        <ele>238.8</ele>
        <time>2022-08-14T07:29:33Z</time>
      </trkpt>
      <trkpt lat="43.93457" lon="1.82823">
        <ele>238.8</ele>
        <time>2022-08-14T07:29:34Z</time>
      </trkpt>
      <trkpt lat="43.93457" lon="1.82818">
        <ele>238.8</ele>
        <time>2022-08-14T07:29:35Z</time>
      </trkpt>
      <trkpt lat="43.93457" lon="1.82815">
        <ele>238.8</ele>
        <time>2022-08-14T07:29:36Z</time>
      </trkpt>
      <trkpt lat="43.93457" lon="1.82812">
        <ele>238.8</ele>
        <time>2022-08-14T07:29:37Z</time>
      </trkpt>
      <trkpt lat="43.93457" lon="1.8281">
        <ele>238.6</ele>
        <time>2022-08-14T07:29:38Z</time>
      </trkpt>
      <trkpt lat="43.93458" lon="1.82807">
        <ele>238.6</ele>
        <time>2022-08-14T07:29:39Z</time>
      </trkpt>
      <trkpt lat="43.93458" lon="1.82804">
        <ele>238.6</ele>
        <time>2022-08-14T07:29:40Z</time>
      </trkpt>
      <trkpt lat="43.93457" lon="1.82798">
        <ele>238.6</ele>
        <time>2022-08-14T07:29:41Z</time>
      </trkpt>
      <trkpt lat="43.93456" lon="1.82794">
        <ele>238.6</ele>
        <time>2022-08-14T07:29:42Z</time>
      </trkpt>
      <trkpt lat="43.93456" lon="1.82792">
        <ele>238.6</ele>
        <time>2022-08-14T07:29:43Z</time>
      </trkpt>
      <trkpt lat="43.93456" lon="1.82789">
        <ele>238.6</ele>
        <time>2022-08-14T07:29:44Z</time>
      </trkpt>
      <trkpt lat="43.93457" lon="1.82786">
        <ele>238.6</ele>
        <time>2022-08-14T07:29:45Z</time>
      </trkpt>
      <trkpt lat="43.93458" lon="1.82779">
        <ele>237.8</ele>
        <time>2022-08-14T07:30:00Z</time>
      </trkpt>
      <trkpt lat="43.93458" lon="1.82777">
        <ele>237.8</ele>
        <time>2022-08-14T07:30:01Z</time>
      </trkpt>
      <trkpt lat="43.93459" lon="1.82776">
        <ele>237.8</ele>
        <time>2022-08-14T07:30:02Z</time>
      </trkpt>
      <trkpt lat="43.93461" lon="1.82774">
        <ele>237.8</ele>
        <time>2022-08-14T07:30:03Z</time>
      </trkpt>
      <trkpt lat="43.93462" lon="1.82773">
        <ele>237.6</ele>
        <time>2022-08-14T07:30:04Z</time>
      </trkpt>
      <trkpt lat="43.93462" lon="1.82771">
        <ele>237.4</ele>
        <time>2022-08-14T07:30:05Z</time>
      </trkpt>
      <trkpt lat="43.93463" lon="1.8277">
        <ele>237.4</ele>
        <time>2022-08-14T07:30:06Z</time>
      </trkpt>
      <trkpt lat="43.93463" lon="1.8277">
        <ele>237.2</ele>
        <time>2022-08-14T07:30:07Z</time>
      </trkpt>
      <trkpt lat="43.93464" lon="1.82766">
        <ele>236.6</ele>
        <time>2022-08-14T07:30:09Z</time>
      </trkpt>
      <trkpt lat="43.93465" lon="1.82766">
        <ele>236</ele>
        <time>2022-08-14T07:30:10Z</time>
      </trkpt>
      <trkpt lat="43.93465" lon="1.82765">
        <ele>235.8</ele>
        <time>2022-08-14T07:30:11Z</time>
      </trkpt>
      <trkpt lat="43.93466" lon="1.82764">
        <ele>235.6</ele>
        <time>2022-08-14T07:30:12Z</time>
      </trkpt>
      <trkpt lat="43.93466" lon="1.82764">
        <ele>235.6</ele>
        <time>2022-08-14T07:30:13Z</time>
      </trkpt>
      <trkpt lat="43.93466" lon="1.82764">
        <ele>235.2</ele>
        <time>2022-08-14T07:30:14Z</time>
      </trkpt>
      <trkpt lat="43.93466" lon="1.82764">
        <ele>234.8</ele>
        <time>2022-08-14T07:30:15Z</time>
      </trkpt>
      <trkpt lat="43.93468" lon="1.82759">
        <ele>234.2</ele>
        <time>2022-08-14T07:30:18Z</time>
      </trkpt>
      <trkpt lat="43.9347" lon="1.82755">
        <ele>233.8</ele>
        <time>2022-08-14T07:30:19Z</time>
      </trkpt>
      <trkpt lat="43.93476" lon="1.82739">
        <ele>232.2</ele>
        <time>2022-08-14T07:30:24Z</time>
      </trkpt>
      <trkpt lat="43.93476" lon="1.82736">
        <ele>231.6</ele>
        <time>2022-08-14T07:30:25Z</time>
      </trkpt>
      <trkpt lat="43.93478" lon="1.82728">
        <ele>230.8</ele>
        <time>2022-08-14T07:30:27Z</time>
      </trkpt>
      <trkpt lat="43.93479" lon="1.82723">
        <ele>230</ele>
        <time>2022-08-14T07:30:28Z</time>
      </trkpt>
      <trkpt lat="43.93482" lon="1.82718">
        <ele>229.8</ele>
        <time>2022-08-14T07:30:29Z</time>
      </trkpt>
      <trkpt lat="43.93485" lon="1.82713">
        <ele>229</ele>
        <time>2022-08-14T07:30:30Z</time>
      </trkpt>
      <trkpt lat="43.93487" lon="1.82708">
        <ele>227.6</ele>
        <time>2022-08-14T07:30:31Z</time>
      </trkpt>
      <trkpt lat="43.93488" lon="1.82705">
        <ele>227.2</ele>
        <time>2022-08-14T07:30:32Z</time>
      </trkpt>
      <trkpt lat="43.93491" lon="1.827">
        <ele>226.2</ele>
        <time>2022-08-14T07:30:33Z</time>
      </trkpt>
      <trkpt lat="43.93498" lon="1.82692">
        <ele>224.6</ele>
        <time>2022-08-14T07:30:35Z</time>
      </trkpt>
      <trkpt lat="43.935" lon="1.82688">
        <ele>223.8</ele>
        <time>2022-08-14T07:30:36Z</time>
      </trkpt>
      <trkpt lat="43.93502" lon="1.82682">
        <ele>222.4</ele>
        <time>2022-08-14T07:30:37Z</time>
      </trkpt>
      <trkpt lat="43.93508" lon="1.8267">
        <ele>221</ele>
        <time>2022-08-14T07:30:39Z</time>
      </trkpt>
      <trkpt lat="43.93515" lon="1.82657">
        <ele>220</ele>
        <time>2022-08-14T07:30:41Z</time>
      </trkpt>
      <trkpt lat="43.93518" lon="1.82654">
        <ele>219.2</ele>
        <time>2022-08-14T07:30:42Z</time>
      </trkpt>
      <trkpt lat="43.9352" lon="1.82651">
        <ele>218.2</ele>
        <time>2022-08-14T07:30:43Z</time>
      </trkpt>
      <trkpt lat="43.93522" lon="1.82648">
        <ele>217.2</ele>
        <time>2022-08-14T07:30:44Z</time>
      </trkpt>
      <trkpt lat="43.93523" lon="1.82647">
        <ele>216.6</ele>
        <time>2022-08-14T07:30:45Z</time>
      </trkpt>
      <trkpt lat="43.93523" lon="1.82647">
        <ele>213.6</ele>
        <time>2022-08-14T07:33:14Z</time>
      </trkpt>
      <trkpt lat="43.93525" lon="1.82646">
        <ele>213.6</ele>
        <time>2022-08-14T07:33:15Z</time>
      </trkpt>
      <trkpt lat="43.93536" lon="1.82641">
        <ele>213.8</ele>
        <time>2022-08-14T07:33:20Z</time>
      </trkpt>
      <trkpt lat="43.93553" lon="1.82637">
        <ele>213.6</ele>
        <time>2022-08-14T07:33:25Z</time>
      </trkpt>
      <trkpt lat="43.93555" lon="1.82637">
        <ele>213.4</ele>
        <time>2022-08-14T07:33:26Z</time>
      </trkpt>
      <trkpt lat="43.93558" lon="1.82637">
        <ele>213.2</ele>
        <time>2022-08-14T07:33:27Z</time>
      </trkpt>
      <trkpt lat="43.9356" lon="1.82637">
        <ele>213</ele>
        <time>2022-08-14T07:33:28Z</time>
      </trkpt>
      <trkpt lat="43.93562" lon="1.82637">
        <ele>212.8</ele>
        <time>2022-08-14T07:33:29Z</time>
      </trkpt>
      <trkpt lat="43.93564" lon="1.82636">
        <ele>212.8</ele>
        <time>2022-08-14T07:33:30Z</time>
      </trkpt>
      <trkpt lat="43.93566" lon="1.82636">
        <ele>212.6</ele>
        <time>2022-08-14T07:33:31Z</time>
      </trkpt>
      <trkpt lat="43.93568" lon="1.82635">
        <ele>212.6</ele>
        <time>2022-08-14T07:33:32Z</time>
      </trkpt>
      <trkpt lat="43.93573" lon="1.82635">
        <ele>212.4</ele>
        <time>2022-08-14T07:33:34Z</time>
      </trkpt>
      <trkpt lat="43.93574" lon="1.82635">
        <ele>212.4</ele>
        <time>2022-08-14T07:33:35Z</time>
      </trkpt>
      <trkpt lat="43.93576" lon="1.82635">
        <ele>212.4</ele>
        <time>2022-08-14T07:33:36Z</time>
      </trkpt>
      <trkpt lat="43.93585" lon="1.82634">
        <ele>212.6</ele>
        <time>2022-08-14T07:33:40Z</time>
      </trkpt>
      <trkpt lat="43.93586" lon="1.82634">
        <ele>212.6</ele>
        <time>2022-08-14T07:33:41Z</time>
      </trkpt>
      <trkpt lat="43.93587" lon="1.82634">
        <ele>212.8</ele>
        <time>2022-08-14T07:33:42Z</time>
      </trkpt>
      <trkpt lat="43.93591" lon="1.82633">
        <ele>212.8</ele>
        <time>2022-08-14T07:33:44Z</time>
      </trkpt>
      <trkpt lat="43.93594" lon="1.82632">
        <ele>213</ele>
        <time>2022-08-14T07:33:46Z</time>
      </trkpt>
      <trkpt lat="43.93596" lon="1.82632">
        <ele>213</ele>
        <time>2022-08-14T07:33:47Z</time>
      </trkpt>
      <trkpt lat="43.93598" lon="1.82632">
        <ele>213</ele>
        <time>2022-08-14T07:33:48Z</time>
      </trkpt>
      <trkpt lat="43.93599" lon="1.82632">
        <ele>213</ele>
        <time>2022-08-14T07:33:49Z</time>
      </trkpt>
      <trkpt lat="43.93608" lon="1.82632">
        <ele>213.2</ele>
        <time>2022-08-14T07:33:55Z</time>
      </trkpt>
      <trkpt lat="43.93609" lon="1.82633">
        <ele>213.2</ele>
        <time>2022-08-14T07:33:56Z</time>
      </trkpt>
      <trkpt lat="43.9361" lon="1.82633">
        <ele>213.4</ele>
        <time>2022-08-14T07:33:57Z</time>
      </trkpt>
      <trkpt lat="43.93613" lon="1.82634">
        <ele>213.6</ele>
        <time>2022-08-14T07:33:59Z</time>
      </trkpt>
      <trkpt lat="43.93614" lon="1.82633">
        <ele>213.6</ele>
        <time>2022-08-14T07:34:00Z</time>
      </trkpt>
      <trkpt lat="43.93616" lon="1.82633">
        <ele>213.8</ele>
        <time>2022-08-14T07:34:01Z</time>
      </trkpt>
      <trkpt lat="43.93617" lon="1.82632">
        <ele>213.8</ele>
        <time>2022-08-14T07:34:02Z</time>
      </trkpt>
      <trkpt lat="43.93619" lon="1.82631">
        <ele>214</ele>
        <time>2022-08-14T07:34:03Z</time>
      </trkpt>
      <trkpt lat="43.9362" lon="1.82629">
        <ele>214.2</ele>
        <time>2022-08-14T07:34:04Z</time>
      </trkpt>
      <trkpt lat="43.93621" lon="1.82627">
        <ele>214.2</ele>
        <time>2022-08-14T07:34:05Z</time>
      </trkpt>
      <trkpt lat="43.93627" lon="1.82622">
        <ele>214.8</ele>
        <time>2022-08-14T07:34:08Z</time>
      </trkpt>
      <trkpt lat="43.93628" lon="1.8262">
        <ele>215</ele>
        <time>2022-08-14T07:34:09Z</time>
      </trkpt>
      <trkpt lat="43.93634" lon="1.82615">
        <ele>215.2</ele>
        <time>2022-08-14T07:34:11Z</time>
      </trkpt>
      <trkpt lat="43.93636" lon="1.82612">
        <ele>215.2</ele>
        <time>2022-08-14T07:34:12Z</time>
      </trkpt>
      <trkpt lat="43.93639" lon="1.82606">
        <ele>215.6</ele>
        <time>2022-08-14T07:34:14Z</time>
      </trkpt>
      <trkpt lat="43.93642" lon="1.82604">
        <ele>215.8</ele>
        <time>2022-08-14T07:34:15Z</time>
      </trkpt>
      <trkpt lat="43.93644" lon="1.82601">
        <ele>215.8</ele>
        <time>2022-08-14T07:34:16Z</time>
      </trkpt>
      <trkpt lat="43.93648" lon="1.826">
        <ele>216</ele>
        <time>2022-08-14T07:34:17Z</time>
      </trkpt>
      <trkpt lat="43.9365" lon="1.82598">
        <ele>216.2</ele>
        <time>2022-08-14T07:34:18Z</time>
      </trkpt>
      <trkpt lat="43.93653" lon="1.82595">
        <ele>216.4</ele>
        <time>2022-08-14T07:34:19Z</time>
      </trkpt>
      <trkpt lat="43.93655" lon="1.82594">
        <ele>217</ele>
        <time>2022-08-14T07:34:20Z</time>
      </trkpt>
      <trkpt lat="43.93658" lon="1.82591">
        <ele>217.2</ele>
        <time>2022-08-14T07:34:21Z</time>
      </trkpt>
      <trkpt lat="43.9366" lon="1.82588">
        <ele>217.8</ele>
        <time>2022-08-14T07:34:22Z</time>
      </trkpt>
      <trkpt lat="43.93662" lon="1.82586">
        <ele>218</ele>
        <time>2022-08-14T07:34:23Z</time>
      </trkpt>
      <trkpt lat="43.93666" lon="1.82583">
        <ele>218.2</ele>
        <time>2022-08-14T07:34:24Z</time>
      </trkpt>
      <trkpt lat="43.93668" lon="1.8258">
        <ele>218.4</ele>
        <time>2022-08-14T07:34:25Z</time>
      </trkpt>
      <trkpt lat="43.9367" lon="1.82578">
        <ele>218.6</ele>
        <time>2022-08-14T07:34:26Z</time>
      </trkpt>
      <trkpt lat="43.93673" lon="1.82575">
        <ele>218.8</ele>
        <time>2022-08-14T07:34:27Z</time>
      </trkpt>
      <trkpt lat="43.93674" lon="1.82573">
        <ele>219.8</ele>
        <time>2022-08-14T07:34:28Z</time>
      </trkpt>
      <trkpt lat="43.93677" lon="1.8257">
        <ele>220.6</ele>
        <time>2022-08-14T07:34:29Z</time>
      </trkpt>
      <trkpt lat="43.93678" lon="1.82567">
        <ele>221</ele>
        <time>2022-08-14T07:34:30Z</time>
      </trkpt>
      <trkpt lat="43.93679" lon="1.82563">
        <ele>221.4</ele>
        <time>2022-08-14T07:34:31Z</time>
      </trkpt>
      <trkpt lat="43.93679" lon="1.82561">
        <ele>221.6</ele>
        <time>2022-08-14T07:34:32Z</time>
      </trkpt>
      <trkpt lat="43.93676" lon="1.8256">
        <ele>222</ele>
        <time>2022-08-14T07:34:33Z</time>
      </trkpt>
      <trkpt lat="43.93672" lon="1.82558">
        <ele>222.2</ele>
        <time>2022-08-14T07:34:34Z</time>
      </trkpt>
      <trkpt lat="43.93671" lon="1.82557">
        <ele>222.6</ele>
        <time>2022-08-14T07:34:35Z</time>
      </trkpt>
      <trkpt lat="43.93669" lon="1.82554">
        <ele>222.6</ele>
        <time>2022-08-14T07:34:36Z</time>
      </trkpt>
      <trkpt lat="43.93668" lon="1.82551">
        <ele>222.8</ele>
        <time>2022-08-14T07:34:37Z</time>
      </trkpt>
      <trkpt lat="43.93667" lon="1.82549">
        <ele>222.8</ele>
        <time>2022-08-14T07:34:38Z</time>
      </trkpt>
      <trkpt lat="43.93666" lon="1.82547">
        <ele>222.8</ele>
        <time>2022-08-14T07:34:39Z</time>
      </trkpt>
      <trkpt lat="43.93665" lon="1.82545">
        <ele>222.8</ele>
        <time>2022-08-14T07:34:40Z</time>
      </trkpt>
      <trkpt lat="43.93663" lon="1.82543">
        <ele>222.8</ele>
        <time>2022-08-14T07:34:41Z</time>
      </trkpt>
      <trkpt lat="43.93661" lon="1.82539">
        <ele>222.8</ele>
        <time>2022-08-14T07:34:42Z</time>
      </trkpt>
      <trkpt lat="43.93658" lon="1.82534">
        <ele>222.8</ele>
        <time>2022-08-14T07:34:43Z</time>
      </trkpt>
      <trkpt lat="43.93655" lon="1.82529">
        <ele>222.8</ele>
        <time>2022-08-14T07:34:44Z</time>
      </trkpt>
      <trkpt lat="43.93653" lon="1.82526">
        <ele>222.8</ele>
        <time>2022-08-14T07:34:45Z</time>
      </trkpt>
      <trkpt lat="43.93652" lon="1.82523">
        <ele>222.8</ele>
        <time>2022-08-14T07:34:46Z</time>
      </trkpt>
      <trkpt lat="43.9365" lon="1.82518">
        <ele>222.6</ele>
        <time>2022-08-14T07:34:47Z</time>
      </trkpt>
      <trkpt lat="43.9365" lon="1.82514">
        <ele>222.4</ele>
        <time>2022-08-14T07:34:48Z</time>
      </trkpt>
      <trkpt lat="43.93648" lon="1.8251">
        <ele>222</ele>
        <time>2022-08-14T07:34:49Z</time>
      </trkpt>
      <trkpt lat="43.93647" lon="1.82506">
        <ele>222</ele>
        <time>2022-08-14T07:34:50Z</time>
      </trkpt>
      <trkpt lat="43.93646" lon="1.82502">
        <ele>222</ele>
        <time>2022-08-14T07:34:51Z</time>
      </trkpt>
      <trkpt lat="43.93644" lon="1.82497">
        <ele>221.8</ele>
        <time>2022-08-14T07:34:52Z</time>
      </trkpt>
      <trkpt lat="43.93644" lon="1.82493">
        <ele>221.8</ele>
        <time>2022-08-14T07:34:53Z</time>
      </trkpt>
      <trkpt lat="43.93643" lon="1.8249">
        <ele>221.6</ele>
        <time>2022-08-14T07:34:54Z</time>
      </trkpt>
      <trkpt lat="43.93643" lon="1.82487">
        <ele>221.6</ele>
        <time>2022-08-14T07:34:55Z</time>
      </trkpt>
      <trkpt lat="43.93643" lon="1.82484">
        <ele>221.4</ele>
        <time>2022-08-14T07:34:56Z</time>
      </trkpt>
      <trkpt lat="43.93645" lon="1.82469">
        <ele>221</ele>
        <time>2022-08-14T07:35:00Z</time>
      </trkpt>
      <trkpt lat="43.93649" lon="1.82458">
        <ele>221</ele>
        <time>2022-08-14T07:35:02Z</time>
      </trkpt>
      <trkpt lat="43.93651" lon="1.82451">
        <ele>220.8</ele>
        <time>2022-08-14T07:35:03Z</time>
      </trkpt>
      <trkpt lat="43.93658" lon="1.82424">
        <ele>220</ele>
        <time>2022-08-14T07:35:07Z</time>
      </trkpt>
      <trkpt lat="43.93659" lon="1.82417">
        <ele>219.8</ele>
        <time>2022-08-14T07:35:08Z</time>
      </trkpt>
      <trkpt lat="43.93662" lon="1.8241">
        <ele>219.8</ele>
        <time>2022-08-14T07:35:09Z</time>
      </trkpt>
      <trkpt lat="43.93665" lon="1.82392">
        <ele>219.2</ele>
        <time>2022-08-14T07:35:11Z</time>
      </trkpt>
      <trkpt lat="43.93666" lon="1.82383">
        <ele>218.8</ele>
        <time>2022-08-14T07:35:12Z</time>
      </trkpt>
      <trkpt lat="43.93667" lon="1.82374">
        <ele>218.6</ele>
        <time>2022-08-14T07:35:13Z</time>
      </trkpt>
      <trkpt lat="43.93668" lon="1.82367">
        <ele>218.4</ele>
        <time>2022-08-14T07:35:14Z</time>
      </trkpt>
      <trkpt lat="43.93671" lon="1.82335">
        <ele>217.6</ele>
        <time>2022-08-14T07:35:18Z</time>
      </trkpt>
      <trkpt lat="43.93671" lon="1.82328">
        <ele>217.2</ele>
        <time>2022-08-14T07:35:19Z</time>
      </trkpt>
      <trkpt lat="43.93672" lon="1.82321">
        <ele>217.2</ele>
        <time>2022-08-14T07:35:20Z</time>
      </trkpt>
      <trkpt lat="43.93672" lon="1.82314">
        <ele>217</ele>
        <time>2022-08-14T07:35:21Z</time>
      </trkpt>
      <trkpt lat="43.93673" lon="1.82307">
        <ele>216.8</ele>
        <time>2022-08-14T07:35:22Z</time>
      </trkpt>
      <trkpt lat="43.93673" lon="1.82299">
        <ele>216.8</ele>
        <time>2022-08-14T07:35:23Z</time>
      </trkpt>
      <trkpt lat="43.93674" lon="1.82294">
        <ele>216.6</ele>
        <time>2022-08-14T07:35:24Z</time>
      </trkpt>
      <trkpt lat="43.93674" lon="1.82288">
        <ele>216.6</ele>
        <time>2022-08-14T07:35:25Z</time>
      </trkpt>
      <trkpt lat="43.93674" lon="1.82281">
        <ele>216.6</ele>
        <time>2022-08-14T07:35:26Z</time>
      </trkpt>
      <trkpt lat="43.93675" lon="1.82275">
        <ele>216.6</ele>
        <time>2022-08-14T07:35:27Z</time>
      </trkpt>
      <trkpt lat="43.93675" lon="1.82268">
        <ele>216.6</ele>
        <time>2022-08-14T07:35:28Z</time>
      </trkpt>
      <trkpt lat="43.93675" lon="1.82264">
        <ele>216.6</ele>
        <time>2022-08-14T07:35:29Z</time>
      </trkpt>
      <trkpt lat="43.93671" lon="1.82241">
        <ele>216.6</ele>
        <time>2022-08-14T07:35:33Z</time>
      </trkpt>
      <trkpt lat="43.93669" lon="1.82236">
        <ele>216.6</ele>
        <time>2022-08-14T07:35:34Z</time>
      </trkpt>
      <trkpt lat="43.93667" lon="1.82231">
        <ele>216.2</ele>
        <time>2022-08-14T07:35:35Z</time>
      </trkpt>
      <trkpt lat="43.93657" lon="1.82217">
        <ele>216</ele>
        <time>2022-08-14T07:35:38Z</time>
      </trkpt>
      <trkpt lat="43.93654" lon="1.82213">
        <ele>215.8</ele>
        <time>2022-08-14T07:35:39Z</time>
      </trkpt>
      <trkpt lat="43.93651" lon="1.82209">
        <ele>215.8</ele>
        <time>2022-08-14T07:35:40Z</time>
      </trkpt>
      <trkpt lat="43.93647" lon="1.82205">
        <ele>215.6</ele>
        <time>2022-08-14T07:35:41Z</time>
      </trkpt>
      <trkpt lat="43.93643" lon="1.822">
        <ele>215.4</ele>
        <time>2022-08-14T07:35:42Z</time>
      </trkpt>
      <trkpt lat="43.9364" lon="1.82196">
        <ele>215.4</ele>
        <time>2022-08-14T07:35:43Z</time>
      </trkpt>
      <trkpt lat="43.93633" lon="1.82189">
        <ele>215.4</ele>
        <time>2022-08-14T07:35:45Z</time>
      </trkpt>
      <trkpt lat="43.93627" lon="1.82181">
        <ele>215.4</ele>
        <time>2022-08-14T07:35:47Z</time>
      </trkpt>
      <trkpt lat="43.93625" lon="1.82176">
        <ele>215.4</ele>
        <time>2022-08-14T07:35:48Z</time>
      </trkpt>
      <trkpt lat="43.93622" lon="1.82172">
        <ele>215.4</ele>
        <time>2022-08-14T07:35:49Z</time>
      </trkpt>
      <trkpt lat="43.93619" lon="1.82167">
        <ele>215.2</ele>
        <time>2022-08-14T07:35:50Z</time>
      </trkpt>
      <trkpt lat="43.93616" lon="1.82163">
        <ele>215</ele>
        <time>2022-08-14T07:35:51Z</time>
      </trkpt>
      <trkpt lat="43.93613" lon="1.82159">
        <ele>215</ele>
        <time>2022-08-14T07:35:52Z</time>
      </trkpt>
      <trkpt lat="43.93605" lon="1.82154">
        <ele>214.6</ele>
        <time>2022-08-14T07:35:54Z</time>
      </trkpt>
      <trkpt lat="43.936" lon="1.82154">
        <ele>214.2</ele>
        <time>2022-08-14T07:35:55Z</time>
      </trkpt>
      <trkpt lat="43.93593" lon="1.82155">
        <ele>214</ele>
        <time>2022-08-14T07:35:56Z</time>
      </trkpt>
      <trkpt lat="43.93587" lon="1.82157">
        <ele>213.8</ele>
        <time>2022-08-14T07:35:57Z</time>
      </trkpt>
      <trkpt lat="43.9358" lon="1.82159">
        <ele>213.6</ele>
        <time>2022-08-14T07:35:58Z</time>
      </trkpt>
      <trkpt lat="43.93566" lon="1.82163">
        <ele>212.8</ele>
        <time>2022-08-14T07:36:00Z</time>
      </trkpt>
      <trkpt lat="43.93558" lon="1.82165">
        <ele>212.8</ele>
        <time>2022-08-14T07:36:01Z</time>
      </trkpt>
      <trkpt lat="43.93553" lon="1.82167">
        <ele>212.6</ele>
        <time>2022-08-14T07:36:02Z</time>
      </trkpt>
      <trkpt lat="43.93548" lon="1.82168">
        <ele>212.2</ele>
        <time>2022-08-14T07:36:03Z</time>
      </trkpt>
      <trkpt lat="43.93543" lon="1.82169">
        <ele>211.4</ele>
        <time>2022-08-14T07:36:04Z</time>
      </trkpt>
      <trkpt lat="43.93538" lon="1.8217">
        <ele>210.8</ele>
        <time>2022-08-14T07:36:05Z</time>
      </trkpt>
      <trkpt lat="43.93534" lon="1.82171">
        <ele>210.8</ele>
        <time>2022-08-14T07:36:06Z</time>
      </trkpt>
      <trkpt lat="43.9353" lon="1.82172">
        <ele>210.6</ele>
        <time>2022-08-14T07:36:07Z</time>
      </trkpt>
      <trkpt lat="43.93526" lon="1.82173">
        <ele>210.6</ele>
        <time>2022-08-14T07:36:08Z</time>
      </trkpt>
      <trkpt lat="43.93522" lon="1.82174">
        <ele>210.6</ele>
        <time>2022-08-14T07:36:09Z</time>
      </trkpt>
      <trkpt lat="43.93519" lon="1.82175">
        <ele>210.6</ele>
        <time>2022-08-14T07:36:10Z</time>
      </trkpt>
      <trkpt lat="43.93517" lon="1.82177">
        <ele>210.8</ele>
        <time>2022-08-14T07:36:11Z</time>
      </trkpt>
      <trkpt lat="43.93514" lon="1.82179">
        <ele>210.8</ele>
        <time>2022-08-14T07:36:12Z</time>
      </trkpt>
      <trkpt lat="43.93513" lon="1.82181">
        <ele>210.8</ele>
        <time>2022-08-14T07:36:13Z</time>
      </trkpt>
      <trkpt lat="43.93511" lon="1.82182">
        <ele>211.2</ele>
        <time>2022-08-14T07:36:14Z</time>
      </trkpt>
      <trkpt lat="43.93509" lon="1.82183">
        <ele>211.2</ele>
        <time>2022-08-14T07:36:15Z</time>
      </trkpt>
      <trkpt lat="43.93507" lon="1.82184">
        <ele>211.6</ele>
        <time>2022-08-14T07:36:16Z</time>
      </trkpt>
      <trkpt lat="43.93506" lon="1.82185">
        <ele>211.8</ele>
        <time>2022-08-14T07:36:17Z</time>
      </trkpt>
      <trkpt lat="43.93505" lon="1.82186">
        <ele>212</ele>
        <time>2022-08-14T07:36:18Z</time>
      </trkpt>
      <trkpt lat="43.93504" lon="1.82187">
        <ele>212.2</ele>
        <time>2022-08-14T07:36:19Z</time>
      </trkpt>
      <trkpt lat="43.93503" lon="1.82189">
        <ele>212.6</ele>
        <time>2022-08-14T07:36:20Z</time>
      </trkpt>
      <trkpt lat="43.93502" lon="1.8219">
        <ele>213</ele>
        <time>2022-08-14T07:36:21Z</time>
      </trkpt>
      <trkpt lat="43.93499" lon="1.8219">
        <ele>213.4</ele>
        <time>2022-08-14T07:36:24Z</time>
      </trkpt>
      <trkpt lat="43.93498" lon="1.8219">
        <ele>213.8</ele>
        <time>2022-08-14T07:36:25Z</time>
      </trkpt>
      <trkpt lat="43.93497" lon="1.8219">
        <ele>214</ele>
        <time>2022-08-14T07:36:26Z</time>
      </trkpt>
      <trkpt lat="43.93496" lon="1.82189">
        <ele>214.6</ele>
        <time>2022-08-14T07:36:27Z</time>
      </trkpt>
      <trkpt lat="43.93495" lon="1.82189">
        <ele>214.8</ele>
        <time>2022-08-14T07:36:28Z</time>
      </trkpt>
      <trkpt lat="43.93494" lon="1.82188">
        <ele>215</ele>
        <time>2022-08-14T07:36:29Z</time>
      </trkpt>
      <trkpt lat="43.93491" lon="1.82187">
        <ele>215.2</ele>
        <time>2022-08-14T07:36:31Z</time>
      </trkpt>
      <trkpt lat="43.93489" lon="1.82187">
        <ele>215.4</ele>
        <time>2022-08-14T07:36:32Z</time>
      </trkpt>
      <trkpt lat="43.93488" lon="1.82187">
        <ele>215.6</ele>
        <time>2022-08-14T07:36:33Z</time>
      </trkpt>
      <trkpt lat="43.93487" lon="1.82187">
        <ele>216</ele>
        <time>2022-08-14T07:36:34Z</time>
      </trkpt>
      <trkpt lat="43.93485" lon="1.82187">
        <ele>216</ele>
        <time>2022-08-14T07:36:35Z</time>
      </trkpt>
      <trkpt lat="43.93485" lon="1.82186">
        <ele>216.2</ele>
        <time>2022-08-14T07:36:36Z</time>
      </trkpt>
      <trkpt lat="43.93484" lon="1.82186">
        <ele>216.4</ele>
        <time>2022-08-14T07:36:37Z</time>
      </trkpt>
      <trkpt lat="43.93483" lon="1.82186">
        <ele>216.4</ele>
        <time>2022-08-14T07:36:38Z</time>
      </trkpt>
      <trkpt lat="43.93482" lon="1.82185">
        <ele>216.6</ele>
        <time>2022-08-14T07:36:39Z</time>
      </trkpt>
      <trkpt lat="43.93481" lon="1.82185">
        <ele>216.8</ele>
        <time>2022-08-14T07:36:40Z</time>
      </trkpt>
      <trkpt lat="43.9348" lon="1.82183">
        <ele>217</ele>
        <time>2022-08-14T07:36:41Z</time>
      </trkpt>
      <trkpt lat="43.93479" lon="1.82183">
        <ele>217</ele>
        <time>2022-08-14T07:36:42Z</time>
      </trkpt>
      <trkpt lat="43.93478" lon="1.82182">
        <ele>217.2</ele>
        <time>2022-08-14T07:36:43Z</time>
      </trkpt>
      <trkpt lat="43.93477" lon="1.82181">
        <ele>217.2</ele>
        <time>2022-08-14T07:36:44Z</time>
      </trkpt>
      <trkpt lat="43.93476" lon="1.82181">
        <ele>217.4</ele>
        <time>2022-08-14T07:36:45Z</time>
      </trkpt>
      <trkpt lat="43.93475" lon="1.82181">
        <ele>217.4</ele>
        <time>2022-08-14T07:36:46Z</time>
      </trkpt>
      <trkpt lat="43.93475" lon="1.8218">
        <ele>217.6</ele>
        <time>2022-08-14T07:36:47Z</time>
      </trkpt>
      <trkpt lat="43.93473" lon="1.8218">
        <ele>217.6</ele>
        <time>2022-08-14T07:36:48Z</time>
      </trkpt>
      <trkpt lat="43.93473" lon="1.8218">
        <ele>217.6</ele>
        <time>2022-08-14T07:36:49Z</time>
      </trkpt>
      <trkpt lat="43.93472" lon="1.8218">
        <ele>217.8</ele>
        <time>2022-08-14T07:36:50Z</time>
      </trkpt>
      <trkpt lat="43.93471" lon="1.8218">
        <ele>218</ele>
        <time>2022-08-14T07:36:51Z</time>
      </trkpt>
      <trkpt lat="43.93469" lon="1.8218">
        <ele>218</ele>
        <time>2022-08-14T07:36:52Z</time>
      </trkpt>
      <trkpt lat="43.93468" lon="1.82181">
        <ele>218.4</ele>
        <time>2022-08-14T07:36:53Z</time>
      </trkpt>
      <trkpt lat="43.93466" lon="1.82182">
        <ele>218.4</ele>
        <time>2022-08-14T07:36:54Z</time>
      </trkpt>
      <trkpt lat="43.93465" lon="1.82184">
        <ele>218.8</ele>
        <time>2022-08-14T07:36:55Z</time>
      </trkpt>
      <trkpt lat="43.93463" lon="1.82186">
        <ele>218.8</ele>
        <time>2022-08-14T07:36:56Z</time>
      </trkpt>
      <trkpt lat="43.93462" lon="1.82187">
        <ele>219</ele>
        <time>2022-08-14T07:36:57Z</time>
      </trkpt>
      <trkpt lat="43.93461" lon="1.82187">
        <ele>219.2</ele>
        <time>2022-08-14T07:36:58Z</time>
      </trkpt>
      <trkpt lat="43.9346" lon="1.82188">
        <ele>219.4</ele>
        <time>2022-08-14T07:36:59Z</time>
      </trkpt>
      <trkpt lat="43.93459" lon="1.82189">
        <ele>219.8</ele>
        <time>2022-08-14T07:37:00Z</time>
      </trkpt>
      <trkpt lat="43.93457" lon="1.8219">
        <ele>219.8</ele>
        <time>2022-08-14T07:37:01Z</time>
      </trkpt>
      <trkpt lat="43.93455" lon="1.82192">
        <ele>220</ele>
        <time>2022-08-14T07:37:02Z</time>
      </trkpt>
      <trkpt lat="43.93453" lon="1.82193">
        <ele>220.2</ele>
        <time>2022-08-14T07:37:03Z</time>
      </trkpt>
      <trkpt lat="43.93451" lon="1.82195">
        <ele>220.4</ele>
        <time>2022-08-14T07:37:04Z</time>
      </trkpt>
      <trkpt lat="43.93448" lon="1.82198">
        <ele>220.6</ele>
        <time>2022-08-14T07:37:05Z</time>
      </trkpt>
      <trkpt lat="43.93447" lon="1.82199">
        <ele>221</ele>
        <time>2022-08-14T07:37:06Z</time>
      </trkpt>
      <trkpt lat="43.93446" lon="1.82201">
        <ele>221.2</ele>
        <time>2022-08-14T07:37:07Z</time>
      </trkpt>
      <trkpt lat="43.93446" lon="1.82203">
        <ele>221.2</ele>
        <time>2022-08-14T07:37:08Z</time>
      </trkpt>
      <trkpt lat="43.93446" lon="1.82205">
        <ele>221.4</ele>
        <time>2022-08-14T07:37:09Z</time>
      </trkpt>
      <trkpt lat="43.93446" lon="1.82208">
        <ele>221.4</ele>
        <time>2022-08-14T07:37:10Z</time>
      </trkpt>
      <trkpt lat="43.93445" lon="1.8221">
        <ele>221.6</ele>
        <time>2022-08-14T07:37:11Z</time>
      </trkpt>
      <trkpt lat="43.93443" lon="1.82212">
        <ele>221.8</ele>
        <time>2022-08-14T07:37:12Z</time>
      </trkpt>
      <trkpt lat="43.93443" lon="1.82213">
        <ele>222</ele>
        <time>2022-08-14T07:37:13Z</time>
      </trkpt>
      <trkpt lat="43.93442" lon="1.82214">
        <ele>222</ele>
        <time>2022-08-14T07:37:14Z</time>
      </trkpt>
      <trkpt lat="43.93442" lon="1.82214">
        <ele>222.2</ele>
        <time>2022-08-14T07:37:15Z</time>
      </trkpt>
      <trkpt lat="43.93441" lon="1.82215">
        <ele>222.4</ele>
        <time>2022-08-14T07:37:16Z</time>
      </trkpt>
      <trkpt lat="43.93439" lon="1.82216">
        <ele>222.6</ele>
        <time>2022-08-14T07:37:17Z</time>
      </trkpt>
      <trkpt lat="43.93437" lon="1.82217">
        <ele>222.8</ele>
        <time>2022-08-14T07:37:18Z</time>
      </trkpt>
      <trkpt lat="43.93436" lon="1.82218">
        <ele>222.8</ele>
        <time>2022-08-14T07:37:19Z</time>
      </trkpt>
      <trkpt lat="43.93435" lon="1.82219">
        <ele>223</ele>
        <time>2022-08-14T07:37:20Z</time>
      </trkpt>
      <trkpt lat="43.93434" lon="1.8222">
        <ele>223</ele>
        <time>2022-08-14T07:37:21Z</time>
      </trkpt>
      <trkpt lat="43.93434" lon="1.82221">
        <ele>223</ele>
        <time>2022-08-14T07:37:22Z</time>
      </trkpt>
      <trkpt lat="43.93433" lon="1.82222">
        <ele>223.2</ele>
        <time>2022-08-14T07:37:23Z</time>
      </trkpt>
      <trkpt lat="43.93432" lon="1.82223">
        <ele>223.2</ele>
        <time>2022-08-14T07:37:24Z</time>
      </trkpt>
      <trkpt lat="43.93431" lon="1.82223">
        <ele>223.2</ele>
        <time>2022-08-14T07:37:25Z</time>
      </trkpt>
      <trkpt lat="43.9343" lon="1.82224">
        <ele>223.2</ele>
        <time>2022-08-14T07:37:26Z</time>
      </trkpt>
      <trkpt lat="43.93428" lon="1.82224">
        <ele>223.4</ele>
        <time>2022-08-14T07:37:27Z</time>
      </trkpt>
      <trkpt lat="43.93427" lon="1.82225">
        <ele>223.4</ele>
        <time>2022-08-14T07:37:28Z</time>
      </trkpt>
      <trkpt lat="43.93426" lon="1.82226">
        <ele>223.6</ele>
        <time>2022-08-14T07:37:29Z</time>
      </trkpt>
      <trkpt lat="43.93425" lon="1.82228">
        <ele>223.6</ele>
        <time>2022-08-14T07:37:30Z</time>
      </trkpt>
      <trkpt lat="43.93424" lon="1.82229">
        <ele>223.6</ele>
        <time>2022-08-14T07:37:31Z</time>
      </trkpt>
      <trkpt lat="43.93423" lon="1.8223">
        <ele>223.8</ele>
        <time>2022-08-14T07:37:32Z</time>
      </trkpt>
      <trkpt lat="43.93422" lon="1.82232">
        <ele>223.8</ele>
        <time>2022-08-14T07:37:33Z</time>
      </trkpt>
      <trkpt lat="43.93421" lon="1.82233">
        <ele>223.8</ele>
        <time>2022-08-14T07:37:34Z</time>
      </trkpt>
      <trkpt lat="43.9342" lon="1.82233">
        <ele>224</ele>
        <time>2022-08-14T07:37:35Z</time>
      </trkpt>
      <trkpt lat="43.93418" lon="1.82233">
        <ele>224.2</ele>
        <time>2022-08-14T07:37:36Z</time>
      </trkpt>
      <trkpt lat="43.93418" lon="1.82234">
        <ele>224.2</ele>
        <time>2022-08-14T07:37:37Z</time>
      </trkpt>
      <trkpt lat="43.93416" lon="1.82234">
        <ele>224.4</ele>
        <time>2022-08-14T07:37:38Z</time>
      </trkpt>
      <trkpt lat="43.93415" lon="1.82235">
        <ele>224.4</ele>
        <time>2022-08-14T07:37:39Z</time>
      </trkpt>
      <trkpt lat="43.93413" lon="1.82236">
        <ele>224.6</ele>
        <time>2022-08-14T07:37:40Z</time>
      </trkpt>
      <trkpt lat="43.93411" lon="1.82237">
        <ele>224.6</ele>
        <time>2022-08-14T07:37:41Z</time>
      </trkpt>
      <trkpt lat="43.93409" lon="1.82237">
        <ele>224.8</ele>
        <time>2022-08-14T07:37:42Z</time>
      </trkpt>
      <trkpt lat="43.93407" lon="1.82239">
        <ele>224.8</ele>
        <time>2022-08-14T07:37:43Z</time>
      </trkpt>
      <trkpt lat="43.93405" lon="1.8224">
        <ele>224.8</ele>
        <time>2022-08-14T07:37:44Z</time>
      </trkpt>
      <trkpt lat="43.93404" lon="1.8224">
        <ele>225</ele>
        <time>2022-08-14T07:37:45Z</time>
      </trkpt>
      <trkpt lat="43.93399" lon="1.82244">
        <ele>225.2</ele>
        <time>2022-08-14T07:37:48Z</time>
      </trkpt>
      <trkpt lat="43.93399" lon="1.82243">
        <ele>225.2</ele>
        <time>2022-08-14T07:37:49Z</time>
      </trkpt>
      <trkpt lat="43.93398" lon="1.82244">
        <ele>225.2</ele>
        <time>2022-08-14T07:37:50Z</time>
      </trkpt>
      <trkpt lat="43.93397" lon="1.82244">
        <ele>225.4</ele>
        <time>2022-08-14T07:37:51Z</time>
      </trkpt>
      <trkpt lat="43.93397" lon="1.82244">
        <ele>225.4</ele>
        <time>2022-08-14T07:37:52Z</time>
      </trkpt>
      <trkpt lat="43.93396" lon="1.82245">
        <ele>225.6</ele>
        <time>2022-08-14T07:37:53Z</time>
      </trkpt>
      <trkpt lat="43.9339" lon="1.82246">
        <ele>225.8</ele>
        <time>2022-08-14T07:37:56Z</time>
      </trkpt>
      <trkpt lat="43.93388" lon="1.82246">
        <ele>225.8</ele>
        <time>2022-08-14T07:37:57Z</time>
      </trkpt>
      <trkpt lat="43.93385" lon="1.82249">
        <ele>226</ele>
        <time>2022-08-14T07:37:59Z</time>
      </trkpt>
      <trkpt lat="43.93383" lon="1.8225">
        <ele>226</ele>
        <time>2022-08-14T07:38:00Z</time>
      </trkpt>
      <trkpt lat="43.93381" lon="1.82251">
        <ele>226</ele>
        <time>2022-08-14T07:38:01Z</time>
      </trkpt>
      <trkpt lat="43.93376" lon="1.82255">
        <ele>226.2</ele>
        <time>2022-08-14T07:38:04Z</time>
      </trkpt>
      <trkpt lat="43.93374" lon="1.82255">
        <ele>226.4</ele>
        <time>2022-08-14T07:38:05Z</time>
      </trkpt>
      <trkpt lat="43.93373" lon="1.82257">
        <ele>226.6</ele>
        <time>2022-08-14T07:38:06Z</time>
      </trkpt>
      <trkpt lat="43.93372" lon="1.82258">
        <ele>226.6</ele>
        <time>2022-08-14T07:38:07Z</time>
      </trkpt>
      <trkpt lat="43.93371" lon="1.82258">
        <ele>226.8</ele>
        <time>2022-08-14T07:38:08Z</time>
      </trkpt>
      <trkpt lat="43.93371" lon="1.82259">
        <ele>226.8</ele>
        <time>2022-08-14T07:38:09Z</time>
      </trkpt>
      <trkpt lat="43.93369" lon="1.8226">
        <ele>226.8</ele>
        <time>2022-08-14T07:38:10Z</time>
      </trkpt>
      <trkpt lat="43.93368" lon="1.82262">
        <ele>226.8</ele>
        <time>2022-08-14T07:38:11Z</time>
      </trkpt>
      <trkpt lat="43.93362" lon="1.82269">
        <ele>227.2</ele>
        <time>2022-08-14T07:38:15Z</time>
      </trkpt>
      <trkpt lat="43.93361" lon="1.82269">
        <ele>227.4</ele>
        <time>2022-08-14T07:38:16Z</time>
      </trkpt>
      <trkpt lat="43.9336" lon="1.82271">
        <ele>227.4</ele>
        <time>2022-08-14T07:38:17Z</time>
      </trkpt>
      <trkpt lat="43.93359" lon="1.82272">
        <ele>227.6</ele>
        <time>2022-08-14T07:38:18Z</time>
      </trkpt>
      <trkpt lat="43.93358" lon="1.82274">
        <ele>227.8</ele>
        <time>2022-08-14T07:38:19Z</time>
      </trkpt>
      <trkpt lat="43.93358" lon="1.82276">
        <ele>228</ele>
        <time>2022-08-14T07:38:20Z</time>
      </trkpt>
      <trkpt lat="43.93357" lon="1.82277">
        <ele>228</ele>
        <time>2022-08-14T07:38:21Z</time>
      </trkpt>
      <trkpt lat="43.93355" lon="1.8228">
        <ele>228.4</ele>
        <time>2022-08-14T07:38:24Z</time>
      </trkpt>
      <trkpt lat="43.93351" lon="1.82283">
        <ele>228.8</ele>
        <time>2022-08-14T07:38:27Z</time>
      </trkpt>
      <trkpt lat="43.9335" lon="1.82283">
        <ele>228.8</ele>
        <time>2022-08-14T07:38:28Z</time>
      </trkpt>
      <trkpt lat="43.93348" lon="1.82283">
        <ele>229</ele>
        <time>2022-08-14T07:38:29Z</time>
      </trkpt>
      <trkpt lat="43.93347" lon="1.82284">
        <ele>229.2</ele>
        <time>2022-08-14T07:38:30Z</time>
      </trkpt>
      <trkpt lat="43.93346" lon="1.82284">
        <ele>229.2</ele>
        <time>2022-08-14T07:38:31Z</time>
      </trkpt>
      <trkpt lat="43.93345" lon="1.82285">
        <ele>229.4</ele>
        <time>2022-08-14T07:38:32Z</time>
      </trkpt>
      <trkpt lat="43.93344" lon="1.82286">
        <ele>229.4</ele>
        <time>2022-08-14T07:38:33Z</time>
      </trkpt>
      <trkpt lat="43.93342" lon="1.82286">
        <ele>229.4</ele>
        <time>2022-08-14T07:38:34Z</time>
      </trkpt>
      <trkpt lat="43.9334" lon="1.82287">
        <ele>229.4</ele>
        <time>2022-08-14T07:38:35Z</time>
      </trkpt>
      <trkpt lat="43.93337" lon="1.82288">
        <ele>229.6</ele>
        <time>2022-08-14T07:38:36Z</time>
      </trkpt>
      <trkpt lat="43.93336" lon="1.82288">
        <ele>229.8</ele>
        <time>2022-08-14T07:38:37Z</time>
      </trkpt>
      <trkpt lat="43.93334" lon="1.82288">
        <ele>230</ele>
        <time>2022-08-14T07:38:38Z</time>
      </trkpt>
      <trkpt lat="43.93332" lon="1.82288">
        <ele>230</ele>
        <time>2022-08-14T07:38:39Z</time>
      </trkpt>
      <trkpt lat="43.9333" lon="1.82288">
        <ele>230.2</ele>
        <time>2022-08-14T07:38:40Z</time>
      </trkpt>
      <trkpt lat="43.93327" lon="1.82289">
        <ele>230.2</ele>
        <time>2022-08-14T07:38:41Z</time>
      </trkpt>
      <trkpt lat="43.93326" lon="1.8229">
        <ele>230.4</ele>
        <time>2022-08-14T07:38:42Z</time>
      </trkpt>
      <trkpt lat="43.93324" lon="1.82291">
        <ele>230.6</ele>
        <time>2022-08-14T07:38:43Z</time>
      </trkpt>
      <trkpt lat="43.93323" lon="1.82292">
        <ele>230.8</ele>
        <time>2022-08-14T07:38:44Z</time>
      </trkpt>
      <trkpt lat="43.93321" lon="1.82293">
        <ele>231</ele>
        <time>2022-08-14T07:38:45Z</time>
      </trkpt>
      <trkpt lat="43.9332" lon="1.82294">
        <ele>231</ele>
        <time>2022-08-14T07:38:46Z</time>
      </trkpt>
      <trkpt lat="43.93319" lon="1.82295">
        <ele>231.4</ele>
        <time>2022-08-14T07:38:47Z</time>
      </trkpt>
      <trkpt lat="43.93318" lon="1.82296">
        <ele>231.4</ele>
        <time>2022-08-14T07:38:48Z</time>
      </trkpt>
      <trkpt lat="43.93317" lon="1.82297">
        <ele>231.6</ele>
        <time>2022-08-14T07:38:49Z</time>
      </trkpt>
      <trkpt lat="43.93316" lon="1.82298">
        <ele>231.6</ele>
        <time>2022-08-14T07:38:50Z</time>
      </trkpt>
      <trkpt lat="43.93314" lon="1.823">
        <ele>231.8</ele>
        <time>2022-08-14T07:38:51Z</time>
      </trkpt>
      <trkpt lat="43.93314" lon="1.823">
        <ele>232</ele>
        <time>2022-08-14T07:38:52Z</time>
      </trkpt>
      <trkpt lat="43.93311" lon="1.82301">
        <ele>232</ele>
        <time>2022-08-14T07:38:53Z</time>
      </trkpt>
      <trkpt lat="43.9331" lon="1.82304">
        <ele>232.2</ele>
        <time>2022-08-14T07:38:54Z</time>
      </trkpt>
      <trkpt lat="43.93308" lon="1.82304">
        <ele>232.2</ele>
        <time>2022-08-14T07:38:55Z</time>
      </trkpt>
      <trkpt lat="43.93306" lon="1.82304">
        <ele>232.4</ele>
        <time>2022-08-14T07:38:56Z</time>
      </trkpt>
      <trkpt lat="43.93304" lon="1.82305">
        <ele>232.4</ele>
        <time>2022-08-14T07:38:57Z</time>
      </trkpt>
      <trkpt lat="43.93304" lon="1.82308">
        <ele>232.6</ele>
        <time>2022-08-14T07:38:58Z</time>
      </trkpt>
      <trkpt lat="43.93303" lon="1.82309">
        <ele>232.8</ele>
        <time>2022-08-14T07:38:59Z</time>
      </trkpt>
      <trkpt lat="43.93301" lon="1.82311">
        <ele>233</ele>
        <time>2022-08-14T07:39:00Z</time>
      </trkpt>
      <trkpt lat="43.93299" lon="1.82312">
        <ele>233.2</ele>
        <time>2022-08-14T07:39:01Z</time>
      </trkpt>
      <trkpt lat="43.93297" lon="1.82313">
        <ele>233.2</ele>
        <time>2022-08-14T07:39:02Z</time>
      </trkpt>
      <trkpt lat="43.93296" lon="1.82313">
        <ele>233.4</ele>
        <time>2022-08-14T07:39:03Z</time>
      </trkpt>
      <trkpt lat="43.93295" lon="1.82313">
        <ele>233.4</ele>
        <time>2022-08-14T07:39:04Z</time>
      </trkpt>
      <trkpt lat="43.93293" lon="1.82314">
        <ele>233.4</ele>
        <time>2022-08-14T07:39:05Z</time>
      </trkpt>
      <trkpt lat="43.93292" lon="1.82315">
        <ele>233.6</ele>
        <time>2022-08-14T07:39:06Z</time>
      </trkpt>
      <trkpt lat="43.93291" lon="1.82316">
        <ele>233.6</ele>
        <time>2022-08-14T07:39:07Z</time>
      </trkpt>
      <trkpt lat="43.9329" lon="1.82317">
        <ele>233.8</ele>
        <time>2022-08-14T07:39:08Z</time>
      </trkpt>
      <trkpt lat="43.93288" lon="1.82317">
        <ele>233.8</ele>
        <time>2022-08-14T07:39:09Z</time>
      </trkpt>
      <trkpt lat="43.93286" lon="1.82318">
        <ele>234</ele>
        <time>2022-08-14T07:39:10Z</time>
      </trkpt>
      <trkpt lat="43.93285" lon="1.82319">
        <ele>234.2</ele>
        <time>2022-08-14T07:39:11Z</time>
      </trkpt>
      <trkpt lat="43.93285" lon="1.82319">
        <ele>234.4</ele>
        <time>2022-08-14T07:39:12Z</time>
      </trkpt>
      <trkpt lat="43.93284" lon="1.82321">
        <ele>234.6</ele>
        <time>2022-08-14T07:39:13Z</time>
      </trkpt>
      <trkpt lat="43.93282" lon="1.82321">
        <ele>235</ele>
        <time>2022-08-14T07:39:14Z</time>
      </trkpt>
      <trkpt lat="43.93282" lon="1.82321">
        <ele>235</ele>
        <time>2022-08-14T07:39:15Z</time>
      </trkpt>
      <trkpt lat="43.93281" lon="1.82322">
        <ele>235</ele>
        <time>2022-08-14T07:39:16Z</time>
      </trkpt>
      <trkpt lat="43.9328" lon="1.82323">
        <ele>235.2</ele>
        <time>2022-08-14T07:39:17Z</time>
      </trkpt>
      <trkpt lat="43.93278" lon="1.82325">
        <ele>235.2</ele>
        <time>2022-08-14T07:39:18Z</time>
      </trkpt>
      <trkpt lat="43.93276" lon="1.82326">
        <ele>235.4</ele>
        <time>2022-08-14T07:39:19Z</time>
      </trkpt>
      <trkpt lat="43.93275" lon="1.82327">
        <ele>235.4</ele>
        <time>2022-08-14T07:39:20Z</time>
      </trkpt>
      <trkpt lat="43.93274" lon="1.82328">
        <ele>235.6</ele>
        <time>2022-08-14T07:39:21Z</time>
      </trkpt>
      <trkpt lat="43.93272" lon="1.82329">
        <ele>235.6</ele>
        <time>2022-08-14T07:39:22Z</time>
      </trkpt>
      <trkpt lat="43.9327" lon="1.8233">
        <ele>235.6</ele>
        <time>2022-08-14T07:39:23Z</time>
      </trkpt>
      <trkpt lat="43.93268" lon="1.82331">
        <ele>235.6</ele>
        <time>2022-08-14T07:39:24Z</time>
      </trkpt>
      <trkpt lat="43.93266" lon="1.82331">
        <ele>235.8</ele>
        <time>2022-08-14T07:39:25Z</time>
      </trkpt>
      <trkpt lat="43.93264" lon="1.82331">
        <ele>235.8</ele>
        <time>2022-08-14T07:39:26Z</time>
      </trkpt>
      <trkpt lat="43.93262" lon="1.82331">
        <ele>235.8</ele>
        <time>2022-08-14T07:39:27Z</time>
      </trkpt>
      <trkpt lat="43.93261" lon="1.82331">
        <ele>236</ele>
        <time>2022-08-14T07:39:28Z</time>
      </trkpt>
      <trkpt lat="43.93259" lon="1.82331">
        <ele>236</ele>
        <time>2022-08-14T07:39:29Z</time>
      </trkpt>
      <trkpt lat="43.93258" lon="1.82332">
        <ele>236</ele>
        <time>2022-08-14T07:39:30Z</time>
      </trkpt>
      <trkpt lat="43.93257" lon="1.82334">
        <ele>236.2</ele>
        <time>2022-08-14T07:39:31Z</time>
      </trkpt>
      <trkpt lat="43.93256" lon="1.82335">
        <ele>236.2</ele>
        <time>2022-08-14T07:39:32Z</time>
      </trkpt>
      <trkpt lat="43.93254" lon="1.82337">
        <ele>236.2</ele>
        <time>2022-08-14T07:39:33Z</time>
      </trkpt>
      <trkpt lat="43.93252" lon="1.82337">
        <ele>236.4</ele>
        <time>2022-08-14T07:39:34Z</time>
      </trkpt>
      <trkpt lat="43.93249" lon="1.82338">
        <ele>236.4</ele>
        <time>2022-08-14T07:39:35Z</time>
      </trkpt>
      <trkpt lat="43.93247" lon="1.82339">
        <ele>236.6</ele>
        <time>2022-08-14T07:39:36Z</time>
      </trkpt>
      <trkpt lat="43.93246" lon="1.82341">
        <ele>236.6</ele>
        <time>2022-08-14T07:39:37Z</time>
      </trkpt>
      <trkpt lat="43.93245" lon="1.82342">
        <ele>236.8</ele>
        <time>2022-08-14T07:39:38Z</time>
      </trkpt>
      <trkpt lat="43.93244" lon="1.82342">
        <ele>237</ele>
        <time>2022-08-14T07:39:39Z</time>
      </trkpt>
      <trkpt lat="43.93244" lon="1.82341">
        <ele>237.2</ele>
        <time>2022-08-14T07:39:40Z</time>
      </trkpt>
      <trkpt lat="43.93243" lon="1.82342">
        <ele>237.4</ele>
        <time>2022-08-14T07:39:41Z</time>
      </trkpt>
      <trkpt lat="43.93242" lon="1.82343">
        <ele>237.4</ele>
        <time>2022-08-14T07:39:42Z</time>
      </trkpt>
      <trkpt lat="43.93241" lon="1.82343">
        <ele>237.4</ele>
        <time>2022-08-14T07:39:43Z</time>
      </trkpt>
      <trkpt lat="43.93239" lon="1.82345">
        <ele>237.6</ele>
        <time>2022-08-14T07:39:45Z</time>
      </trkpt>
      <trkpt lat="43.93237" lon="1.82346">
        <ele>237.8</ele>
        <time>2022-08-14T07:39:49Z</time>
      </trkpt>
      <trkpt lat="43.93236" lon="1.82346">
        <ele>237.8</ele>
        <time>2022-08-14T07:39:50Z</time>
      </trkpt>
      <trkpt lat="43.93235" lon="1.82346">
        <ele>237.8</ele>
        <time>2022-08-14T07:39:51Z</time>
      </trkpt>
      <trkpt lat="43.93234" lon="1.82346">
        <ele>238</ele>
        <time>2022-08-14T07:39:52Z</time>
      </trkpt>
      <trkpt lat="43.93233" lon="1.82346">
        <ele>238.2</ele>
        <time>2022-08-14T07:39:53Z</time>
      </trkpt>
      <trkpt lat="43.93232" lon="1.82343">
        <ele>238.4</ele>
        <time>2022-08-14T07:39:56Z</time>
      </trkpt>
      <trkpt lat="43.93232" lon="1.82343">
        <ele>238.6</ele>
        <time>2022-08-14T07:39:57Z</time>
      </trkpt>
      <trkpt lat="43.93232" lon="1.82342">
        <ele>239.6</ele>
        <time>2022-08-14T07:40:47Z</time>
      </trkpt>
      <trkpt lat="43.9323" lon="1.8234">
        <ele>239.8</ele>
        <time>2022-08-14T07:40:50Z</time>
      </trkpt>
      <trkpt lat="43.9323" lon="1.8234">
        <ele>239.8</ele>
        <time>2022-08-14T07:40:51Z</time>
      </trkpt>
      <trkpt lat="43.9323" lon="1.8234">
        <ele>239.8</ele>
        <time>2022-08-14T07:40:52Z</time>
      </trkpt>
      <trkpt lat="43.9323" lon="1.82339">
        <ele>240</ele>
        <time>2022-08-14T07:40:53Z</time>
      </trkpt>
      <trkpt lat="43.93227" lon="1.82337">
        <ele>240</ele>
        <time>2022-08-14T07:40:54Z</time>
      </trkpt>
      <trkpt lat="43.93227" lon="1.82337">
        <ele>240.2</ele>
        <time>2022-08-14T07:40:55Z</time>
      </trkpt>
      <trkpt lat="43.93226" lon="1.82336">
        <ele>240.2</ele>
        <time>2022-08-14T07:40:56Z</time>
      </trkpt>
      <trkpt lat="43.9322" lon="1.82333">
        <ele>240.6</ele>
        <time>2022-08-14T07:40:59Z</time>
      </trkpt>
      <trkpt lat="43.93219" lon="1.82331">
        <ele>240.6</ele>
        <time>2022-08-14T07:41:00Z</time>
      </trkpt>
      <trkpt lat="43.93217" lon="1.8233">
        <ele>240.8</ele>
        <time>2022-08-14T07:41:01Z</time>
      </trkpt>
      <trkpt lat="43.93217" lon="1.8233">
        <ele>241</ele>
        <time>2022-08-14T07:41:02Z</time>
      </trkpt>
      <trkpt lat="43.93212" lon="1.82325">
        <ele>241.8</ele>
        <time>2022-08-14T07:41:04Z</time>
      </trkpt>
      <trkpt lat="43.93211" lon="1.82323">
        <ele>242</ele>
        <time>2022-08-14T07:41:05Z</time>
      </trkpt>
      <trkpt lat="43.93209" lon="1.8232">
        <ele>242.8</ele>
        <time>2022-08-14T07:41:08Z</time>
      </trkpt>
      <trkpt lat="43.93206" lon="1.82315">
        <ele>243.4</ele>
        <time>2022-08-14T07:41:10Z</time>
      </trkpt>
      <trkpt lat="43.93202" lon="1.82311">
        <ele>243.8</ele>
        <time>2022-08-14T07:41:11Z</time>
      </trkpt>
      <trkpt lat="43.93202" lon="1.82311">
        <ele>244</ele>
        <time>2022-08-14T07:41:12Z</time>
      </trkpt>
      <trkpt lat="43.932" lon="1.82306">
        <ele>244.4</ele>
        <time>2022-08-14T07:41:13Z</time>
      </trkpt>
      <trkpt lat="43.93199" lon="1.82302">
        <ele>244.6</ele>
        <time>2022-08-14T07:41:14Z</time>
      </trkpt>
      <trkpt lat="43.93197" lon="1.823">
        <ele>245</ele>
        <time>2022-08-14T07:41:15Z</time>
      </trkpt>
      <trkpt lat="43.93195" lon="1.82298">
        <ele>245.2</ele>
        <time>2022-08-14T07:41:16Z</time>
      </trkpt>
      <trkpt lat="43.93195" lon="1.82298">
        <ele>245.8</ele>
        <time>2022-08-14T07:41:17Z</time>
      </trkpt>
      <trkpt lat="43.93195" lon="1.82295">
        <ele>246.8</ele>
        <time>2022-08-14T07:41:18Z</time>
      </trkpt>
      <trkpt lat="43.93195" lon="1.82294">
        <ele>247.2</ele>
        <time>2022-08-14T07:41:19Z</time>
      </trkpt>
      <trkpt lat="43.93195" lon="1.82291">
        <ele>247.8</ele>
        <time>2022-08-14T07:41:20Z</time>
      </trkpt>
      <trkpt lat="43.93194" lon="1.82287">
        <ele>248</ele>
        <time>2022-08-14T07:41:21Z</time>
      </trkpt>
      <trkpt lat="43.93194" lon="1.82286">
        <ele>248.4</ele>
        <time>2022-08-14T07:41:22Z</time>
      </trkpt>
      <trkpt lat="43.93194" lon="1.82286">
        <ele>248.8</ele>
        <time>2022-08-14T07:41:23Z</time>
      </trkpt>
      <trkpt lat="43.93193" lon="1.82283">
        <ele>249</ele>
        <time>2022-08-14T07:41:24Z</time>
      </trkpt>
      <trkpt lat="43.93192" lon="1.82282">
        <ele>249.8</ele>
        <time>2022-08-14T07:41:25Z</time>
      </trkpt>
      <trkpt lat="43.93192" lon="1.82282">
        <ele>250.2</ele>
        <time>2022-08-14T07:41:26Z</time>
      </trkpt>
      <trkpt lat="43.93192" lon="1.82279">
        <ele>251.2</ele>
        <time>2022-08-14T07:41:27Z</time>
      </trkpt>
      <trkpt lat="43.93192" lon="1.82278">
        <ele>251.4</ele>
        <time>2022-08-14T07:41:28Z</time>
      </trkpt>
      <trkpt lat="43.93192" lon="1.82277">
        <ele>252</ele>
        <time>2022-08-14T07:41:29Z</time>
      </trkpt>
      <trkpt lat="43.93191" lon="1.82275">
        <ele>252.2</ele>
        <time>2022-08-14T07:41:30Z</time>
      </trkpt>
      <trkpt lat="43.93191" lon="1.82274">
        <ele>252.6</ele>
        <time>2022-08-14T07:41:31Z</time>
      </trkpt>
      <trkpt lat="43.93191" lon="1.82274">
        <ele>253</ele>
        <time>2022-08-14T07:41:32Z</time>
      </trkpt>
      <trkpt lat="43.93191" lon="1.82274">
        <ele>253.4</ele>
        <time>2022-08-14T07:41:33Z</time>
      </trkpt>
      <trkpt lat="43.93191" lon="1.82274">
        <ele>253.8</ele>
        <time>2022-08-14T07:41:34Z</time>
      </trkpt>
      <trkpt lat="43.93191" lon="1.82274">
        <ele>254</ele>
        <time>2022-08-14T07:41:35Z</time>
      </trkpt>
      <trkpt lat="43.93191" lon="1.82274">
        <ele>254.6</ele>
        <time>2022-08-14T07:43:09Z</time>
      </trkpt>
      <trkpt lat="43.93191" lon="1.82274">
        <ele>254.6</ele>
        <time>2022-08-14T07:43:11Z</time>
      </trkpt>
      <trkpt lat="43.93191" lon="1.82273">
        <ele>254.8</ele>
        <time>2022-08-14T07:43:15Z</time>
      </trkpt>
      <trkpt lat="43.93184" lon="1.82273">
        <ele>254.8</ele>
        <time>2022-08-14T07:43:19Z</time>
      </trkpt>
      <trkpt lat="43.93184" lon="1.82273">
        <ele>254.8</ele>
        <time>2022-08-14T07:43:20Z</time>
      </trkpt>
      <trkpt lat="43.93182" lon="1.82274">
        <ele>254.8</ele>
        <time>2022-08-14T07:43:21Z</time>
      </trkpt>
      <trkpt lat="43.93176" lon="1.82276">
        <ele>255</ele>
        <time>2022-08-14T07:43:23Z</time>
      </trkpt>
      <trkpt lat="43.93171" lon="1.82278">
        <ele>255.2</ele>
        <time>2022-08-14T07:43:27Z</time>
      </trkpt>
      <trkpt lat="43.93163" lon="1.82281">
        <ele>255.6</ele>
        <time>2022-08-14T07:43:30Z</time>
      </trkpt>
      <trkpt lat="43.93158" lon="1.82285">
        <ele>255.6</ele>
        <time>2022-08-14T07:43:32Z</time>
      </trkpt>
      <trkpt lat="43.93156" lon="1.82287">
        <ele>255.6</ele>
        <time>2022-08-14T07:43:33Z</time>
      </trkpt>
      <trkpt lat="43.93151" lon="1.82289">
        <ele>255.8</ele>
        <time>2022-08-14T07:43:35Z</time>
      </trkpt>
      <trkpt lat="43.93146" lon="1.82291">
        <ele>255.8</ele>
        <time>2022-08-14T07:43:38Z</time>
      </trkpt>
      <trkpt lat="43.93144" lon="1.82291">
        <ele>256</ele>
        <time>2022-08-14T07:43:39Z</time>
      </trkpt>
      <trkpt lat="43.93131" lon="1.82302">
        <ele>256.6</ele>
        <time>2022-08-14T07:43:43Z</time>
      </trkpt>
      <trkpt lat="43.93127" lon="1.82307">
        <ele>256.8</ele>
        <time>2022-08-14T07:43:45Z</time>
      </trkpt>
      <trkpt lat="43.93127" lon="1.8231">
        <ele>256.8</ele>
        <time>2022-08-14T07:43:46Z</time>
      </trkpt>
      <trkpt lat="43.93116" lon="1.82324">
        <ele>257.4</ele>
        <time>2022-08-14T07:43:51Z</time>
      </trkpt>
      <trkpt lat="43.93113" lon="1.82327">
        <ele>257.4</ele>
        <time>2022-08-14T07:43:52Z</time>
      </trkpt>
      <trkpt lat="43.93103" lon="1.82334">
        <ele>258</ele>
        <time>2022-08-14T07:43:55Z</time>
      </trkpt>
      <trkpt lat="43.93102" lon="1.82335">
        <ele>258</ele>
        <time>2022-08-14T07:43:56Z</time>
      </trkpt>
      <trkpt lat="43.93099" lon="1.82337">
        <ele>258</ele>
        <time>2022-08-14T07:43:57Z</time>
      </trkpt>
      <trkpt lat="43.93089" lon="1.82342">
        <ele>258.4</ele>
        <time>2022-08-14T07:44:00Z</time>
      </trkpt>
      <trkpt lat="43.93084" lon="1.82348">
        <ele>258.4</ele>
        <time>2022-08-14T07:44:02Z</time>
      </trkpt>
      <trkpt lat="43.93074" lon="1.82355">
        <ele>258.4</ele>
        <time>2022-08-14T07:44:04Z</time>
      </trkpt>
      <trkpt lat="43.93069" lon="1.82356">
        <ele>258.2</ele>
        <time>2022-08-14T07:44:05Z</time>
      </trkpt>
      <trkpt lat="43.93064" lon="1.82359">
        <ele>258.2</ele>
        <time>2022-08-14T07:44:06Z</time>
      </trkpt>
      <trkpt lat="43.93059" lon="1.8236">
        <ele>258</ele>
        <time>2022-08-14T07:44:07Z</time>
      </trkpt>
      <trkpt lat="43.93056" lon="1.82361">
        <ele>258</ele>
        <time>2022-08-14T07:44:08Z</time>
      </trkpt>
      <trkpt lat="43.93054" lon="1.82361">
        <ele>257.8</ele>
        <time>2022-08-14T07:44:09Z</time>
      </trkpt>
      <trkpt lat="43.93051" lon="1.82361">
        <ele>257.6</ele>
        <time>2022-08-14T07:44:10Z</time>
      </trkpt>
      <trkpt lat="43.93049" lon="1.8236">
        <ele>257.6</ele>
        <time>2022-08-14T07:44:11Z</time>
      </trkpt>
      <trkpt lat="43.93048" lon="1.82358">
        <ele>257.4</ele>
        <time>2022-08-14T07:44:12Z</time>
      </trkpt>
      <trkpt lat="43.93042" lon="1.8235">
        <ele>257.4</ele>
        <time>2022-08-14T07:44:14Z</time>
      </trkpt>
      <trkpt lat="43.93033" lon="1.82347">
        <ele>257.2</ele>
        <time>2022-08-14T07:44:17Z</time>
      </trkpt>
      <trkpt lat="43.93031" lon="1.82346">
        <ele>257.2</ele>
        <time>2022-08-14T07:44:18Z</time>
      </trkpt>
      <trkpt lat="43.93028" lon="1.82346">
        <ele>257.2</ele>
        <time>2022-08-14T07:44:19Z</time>
      </trkpt>
      <trkpt lat="43.93025" lon="1.82346">
        <ele>257.2</ele>
        <time>2022-08-14T07:44:20Z</time>
      </trkpt>
      <trkpt lat="43.93019" lon="1.82344">
        <ele>257.4</ele>
        <time>2022-08-14T07:44:22Z</time>
      </trkpt>
      <trkpt lat="43.93013" lon="1.82343">
        <ele>257.6</ele>
        <time>2022-08-14T07:44:24Z</time>
      </trkpt>
      <trkpt lat="43.93005" lon="1.82338">
        <ele>258</ele>
        <time>2022-08-14T07:44:27Z</time>
      </trkpt>
      <trkpt lat="43.93002" lon="1.82335">
        <ele>258</ele>
        <time>2022-08-14T07:44:28Z</time>
      </trkpt>
      <trkpt lat="43.93" lon="1.82333">
        <ele>258.2</ele>
        <time>2022-08-14T07:44:29Z</time>
      </trkpt>
      <trkpt lat="43.92996" lon="1.82328">
        <ele>258.4</ele>
        <time>2022-08-14T07:44:31Z</time>
      </trkpt>
      <trkpt lat="43.92994" lon="1.82326">
        <ele>258.6</ele>
        <time>2022-08-14T07:44:32Z</time>
      </trkpt>
      <trkpt lat="43.92991" lon="1.82325">
        <ele>258.8</ele>
        <time>2022-08-14T07:44:33Z</time>
      </trkpt>
      <trkpt lat="43.92989" lon="1.82324">
        <ele>259.2</ele>
        <time>2022-08-14T07:44:34Z</time>
      </trkpt>
      <trkpt lat="43.92988" lon="1.82321">
        <ele>259.4</ele>
        <time>2022-08-14T07:44:35Z</time>
      </trkpt>
      <trkpt lat="43.92987" lon="1.82319">
        <ele>259.6</ele>
        <time>2022-08-14T07:44:36Z</time>
      </trkpt>
      <trkpt lat="43.92986" lon="1.82318">
        <ele>259.8</ele>
        <time>2022-08-14T07:44:37Z</time>
      </trkpt>
      <trkpt lat="43.92984" lon="1.82316">
        <ele>260</ele>
        <time>2022-08-14T07:44:38Z</time>
      </trkpt>
      <trkpt lat="43.92982" lon="1.82314">
        <ele>260.2</ele>
        <time>2022-08-14T07:44:39Z</time>
      </trkpt>
      <trkpt lat="43.92982" lon="1.82313">
        <ele>260.4</ele>
        <time>2022-08-14T07:44:40Z</time>
      </trkpt>
      <trkpt lat="43.92981" lon="1.82311">
        <ele>260.8</ele>
        <time>2022-08-14T07:44:42Z</time>
      </trkpt>
      <trkpt lat="43.92981" lon="1.82306">
        <ele>261</ele>
        <time>2022-08-14T07:44:43Z</time>
      </trkpt>
      <trkpt lat="43.92981" lon="1.82304">
        <ele>261</ele>
        <time>2022-08-14T07:44:44Z</time>
      </trkpt>
      <trkpt lat="43.92981" lon="1.82304">
        <ele>261</ele>
        <time>2022-08-14T07:44:45Z</time>
      </trkpt>
      <trkpt lat="43.92979" lon="1.82297">
        <ele>261.2</ele>
        <time>2022-08-14T07:44:46Z</time>
      </trkpt>
      <trkpt lat="43.92978" lon="1.82294">
        <ele>261.2</ele>
        <time>2022-08-14T07:44:47Z</time>
      </trkpt>
      <trkpt lat="43.92976" lon="1.82292">
        <ele>261.2</ele>
        <time>2022-08-14T07:44:48Z</time>
      </trkpt>
      <trkpt lat="43.92976" lon="1.8229">
        <ele>261.2</ele>
        <time>2022-08-14T07:44:49Z</time>
      </trkpt>
      <trkpt lat="43.92976" lon="1.82287">
        <ele>261.2</ele>
        <time>2022-08-14T07:44:50Z</time>
      </trkpt>
      <trkpt lat="43.92976" lon="1.82287">
        <ele>261.4</ele>
        <time>2022-08-14T07:44:51Z</time>
      </trkpt>
      <trkpt lat="43.92976" lon="1.82287">
        <ele>261.4</ele>
        <time>2022-08-14T07:44:52Z</time>
      </trkpt>
      <trkpt lat="43.92976" lon="1.82284">
        <ele>261.4</ele>
        <time>2022-08-14T07:45:11Z</time>
      </trkpt>
      <trkpt lat="43.92976" lon="1.82279">
        <ele>261.4</ele>
        <time>2022-08-14T07:45:13Z</time>
      </trkpt>
      <trkpt lat="43.92976" lon="1.82274">
        <ele>261.4</ele>
        <time>2022-08-14T07:45:15Z</time>
      </trkpt>
      <trkpt lat="43.92976" lon="1.82266">
        <ele>261.4</ele>
        <time>2022-08-14T07:45:18Z</time>
      </trkpt>
      <trkpt lat="43.92976" lon="1.82259">
        <ele>261.4</ele>
        <time>2022-08-14T07:45:20Z</time>
      </trkpt>
      <trkpt lat="43.92977" lon="1.82249">
        <ele>261.6</ele>
        <time>2022-08-14T07:45:23Z</time>
      </trkpt>
      <trkpt lat="43.92978" lon="1.82247">
        <ele>261.6</ele>
        <time>2022-08-14T07:45:24Z</time>
      </trkpt>
      <trkpt lat="43.92978" lon="1.82244">
        <ele>261.8</ele>
        <time>2022-08-14T07:45:25Z</time>
      </trkpt>
      <trkpt lat="43.92979" lon="1.82241">
        <ele>261.8</ele>
        <time>2022-08-14T07:45:26Z</time>
      </trkpt>
      <trkpt lat="43.92979" lon="1.82238">
        <ele>262</ele>
        <time>2022-08-14T07:45:27Z</time>
      </trkpt>
      <trkpt lat="43.9298" lon="1.82228">
        <ele>262.4</ele>
        <time>2022-08-14T07:45:30Z</time>
      </trkpt>
      <trkpt lat="43.9298" lon="1.82225">
        <ele>262.6</ele>
        <time>2022-08-14T07:45:31Z</time>
      </trkpt>
      <trkpt lat="43.92982" lon="1.82218">
        <ele>262.8</ele>
        <time>2022-08-14T07:45:33Z</time>
      </trkpt>
      <trkpt lat="43.92983" lon="1.82215">
        <ele>262.8</ele>
        <time>2022-08-14T07:45:34Z</time>
      </trkpt>
      <trkpt lat="43.92986" lon="1.8221">
        <ele>263</ele>
        <time>2022-08-14T07:45:36Z</time>
      </trkpt>
      <trkpt lat="43.92986" lon="1.82206">
        <ele>263.2</ele>
        <time>2022-08-14T07:45:37Z</time>
      </trkpt>
      <trkpt lat="43.92987" lon="1.82203">
        <ele>263.4</ele>
        <time>2022-08-14T07:45:38Z</time>
      </trkpt>
      <trkpt lat="43.92987" lon="1.82193">
        <ele>263.6</ele>
        <time>2022-08-14T07:45:40Z</time>
      </trkpt>
      <trkpt lat="43.92988" lon="1.82191">
        <ele>263.6</ele>
        <time>2022-08-14T07:45:41Z</time>
      </trkpt>
      <trkpt lat="43.92989" lon="1.8219">
        <ele>263.6</ele>
        <time>2022-08-14T07:45:42Z</time>
      </trkpt>
      <trkpt lat="43.92989" lon="1.8219">
        <ele>263.6</ele>
        <time>2022-08-14T07:45:43Z</time>
      </trkpt>
      <trkpt lat="43.92989" lon="1.8219">
        <ele>263.6</ele>
        <time>2022-08-14T07:45:44Z</time>
      </trkpt>
      <trkpt lat="43.92989" lon="1.82188">
        <ele>263.4</ele>
        <time>2022-08-14T07:46:06Z</time>
      </trkpt>
      <trkpt lat="43.9299" lon="1.82176">
        <ele>263.4</ele>
        <time>2022-08-14T07:46:10Z</time>
      </trkpt>
      <trkpt lat="43.92988" lon="1.82154">
        <ele>263.6</ele>
        <time>2022-08-14T07:46:15Z</time>
      </trkpt>
      <trkpt lat="43.92987" lon="1.82149">
        <ele>263.6</ele>
        <time>2022-08-14T07:46:16Z</time>
      </trkpt>
      <trkpt lat="43.92977" lon="1.82121">
        <ele>263.4</ele>
        <time>2022-08-14T07:46:21Z</time>
      </trkpt>
      <trkpt lat="43.92974" lon="1.82114">
        <ele>263.2</ele>
        <time>2022-08-14T07:46:22Z</time>
      </trkpt>
      <trkpt lat="43.92965" lon="1.82093">
        <ele>263</ele>
        <time>2022-08-14T07:46:25Z</time>
      </trkpt>
      <trkpt lat="43.92962" lon="1.82087">
        <ele>262.8</ele>
        <time>2022-08-14T07:46:26Z</time>
      </trkpt>
      <trkpt lat="43.9296" lon="1.8208">
        <ele>262.4</ele>
        <time>2022-08-14T07:46:27Z</time>
      </trkpt>
      <trkpt lat="43.92957" lon="1.82072">
        <ele>262</ele>
        <time>2022-08-14T07:46:28Z</time>
      </trkpt>
      <trkpt lat="43.92955" lon="1.82062">
        <ele>261.2</ele>
        <time>2022-08-14T07:46:29Z</time>
      </trkpt>
      <trkpt lat="43.92953" lon="1.82054">
        <ele>261</ele>
        <time>2022-08-14T07:46:30Z</time>
      </trkpt>
      <trkpt lat="43.92952" lon="1.82045">
        <ele>260.6</ele>
        <time>2022-08-14T07:46:31Z</time>
      </trkpt>
      <trkpt lat="43.92951" lon="1.82038">
        <ele>260.4</ele>
        <time>2022-08-14T07:46:32Z</time>
      </trkpt>
      <trkpt lat="43.92948" lon="1.82032">
        <ele>260</ele>
        <time>2022-08-14T07:46:33Z</time>
      </trkpt>
      <trkpt lat="43.92946" lon="1.82025">
        <ele>259.8</ele>
        <time>2022-08-14T07:46:34Z</time>
      </trkpt>
      <trkpt lat="43.9294" lon="1.82013">
        <ele>259.2</ele>
        <time>2022-08-14T07:46:36Z</time>
      </trkpt>
      <trkpt lat="43.92936" lon="1.82004">
        <ele>259.2</ele>
        <time>2022-08-14T07:46:37Z</time>
      </trkpt>
      <trkpt lat="43.9293" lon="1.81996">
        <ele>259</ele>
        <time>2022-08-14T07:46:38Z</time>
      </trkpt>
      <trkpt lat="43.92928" lon="1.81992">
        <ele>258.8</ele>
        <time>2022-08-14T07:46:39Z</time>
      </trkpt>
      <trkpt lat="43.92924" lon="1.81988">
        <ele>258.6</ele>
        <time>2022-08-14T07:46:40Z</time>
      </trkpt>
      <trkpt lat="43.92921" lon="1.81984">
        <ele>258.4</ele>
        <time>2022-08-14T07:46:41Z</time>
      </trkpt>
      <trkpt lat="43.92919" lon="1.8198">
        <ele>258</ele>
        <time>2022-08-14T07:46:42Z</time>
      </trkpt>
      <trkpt lat="43.92917" lon="1.81977">
        <ele>258</ele>
        <time>2022-08-14T07:46:43Z</time>
      </trkpt>
      <trkpt lat="43.92913" lon="1.81969">
        <ele>257.8</ele>
        <time>2022-08-14T07:46:44Z</time>
      </trkpt>
      <trkpt lat="43.92906" lon="1.81954">
        <ele>257.6</ele>
        <time>2022-08-14T07:46:47Z</time>
      </trkpt>
      <trkpt lat="43.92902" lon="1.8195">
        <ele>257.6</ele>
        <time>2022-08-14T07:46:48Z</time>
      </trkpt>
      <trkpt lat="43.92899" lon="1.81947">
        <ele>257.6</ele>
        <time>2022-08-14T07:46:49Z</time>
      </trkpt>
      <trkpt lat="43.92892" lon="1.81941">
        <ele>257.8</ele>
        <time>2022-08-14T07:46:51Z</time>
      </trkpt>
      <trkpt lat="43.9289" lon="1.81936">
        <ele>257.8</ele>
        <time>2022-08-14T07:46:52Z</time>
      </trkpt>
      <trkpt lat="43.92887" lon="1.81931">
        <ele>258.2</ele>
        <time>2022-08-14T07:46:53Z</time>
      </trkpt>
      <trkpt lat="43.92885" lon="1.81928">
        <ele>258.8</ele>
        <time>2022-08-14T07:46:54Z</time>
      </trkpt>
      <trkpt lat="43.92883" lon="1.81925">
        <ele>259</ele>
        <time>2022-08-14T07:46:55Z</time>
      </trkpt>
      <trkpt lat="43.92882" lon="1.81922">
        <ele>259.4</ele>
        <time>2022-08-14T07:46:56Z</time>
      </trkpt>
      <trkpt lat="43.92881" lon="1.8192">
        <ele>259.6</ele>
        <time>2022-08-14T07:46:57Z</time>
      </trkpt>
      <trkpt lat="43.9288" lon="1.81917">
        <ele>260</ele>
        <time>2022-08-14T07:46:58Z</time>
      </trkpt>
      <trkpt lat="43.9288" lon="1.81911">
        <ele>260.8</ele>
        <time>2022-08-14T07:47:00Z</time>
      </trkpt>
      <trkpt lat="43.9288" lon="1.81909">
        <ele>261.2</ele>
        <time>2022-08-14T07:47:01Z</time>
      </trkpt>
      <trkpt lat="43.92879" lon="1.81905">
        <ele>261.4</ele>
        <time>2022-08-14T07:47:02Z</time>
      </trkpt>
      <trkpt lat="43.92876" lon="1.81892">
        <ele>261.8</ele>
        <time>2022-08-14T07:47:05Z</time>
      </trkpt>
      <trkpt lat="43.92873" lon="1.81876">
        <ele>262</ele>
        <time>2022-08-14T07:47:08Z</time>
      </trkpt>
      <trkpt lat="43.92871" lon="1.81871">
        <ele>261.8</ele>
        <time>2022-08-14T07:47:09Z</time>
      </trkpt>
      <trkpt lat="43.92871" lon="1.81865">
        <ele>261.6</ele>
        <time>2022-08-14T07:47:10Z</time>
      </trkpt>
      <trkpt lat="43.9287" lon="1.81858">
        <ele>261.6</ele>
        <time>2022-08-14T07:47:11Z</time>
      </trkpt>
      <trkpt lat="43.92869" lon="1.81851">
        <ele>261.6</ele>
        <time>2022-08-14T07:47:12Z</time>
      </trkpt>
      <trkpt lat="43.92868" lon="1.81844">
        <ele>261.6</ele>
        <time>2022-08-14T07:47:13Z</time>
      </trkpt>
      <trkpt lat="43.92866" lon="1.81836">
        <ele>261.6</ele>
        <time>2022-08-14T07:47:14Z</time>
      </trkpt>
      <trkpt lat="43.92865" lon="1.81829">
        <ele>261.6</ele>
        <time>2022-08-14T07:47:15Z</time>
      </trkpt>
      <trkpt lat="43.92865" lon="1.8182">
        <ele>261.6</ele>
        <time>2022-08-14T07:47:16Z</time>
      </trkpt>
      <trkpt lat="43.92863" lon="1.81812">
        <ele>261.4</ele>
        <time>2022-08-14T07:47:17Z</time>
      </trkpt>
      <trkpt lat="43.92862" lon="1.81804">
        <ele>261.2</ele>
        <time>2022-08-14T07:47:18Z</time>
      </trkpt>
      <trkpt lat="43.92862" lon="1.81787">
        <ele>260.8</ele>
        <time>2022-08-14T07:47:20Z</time>
      </trkpt>
      <trkpt lat="43.92861" lon="1.81778">
        <ele>260.6</ele>
        <time>2022-08-14T07:47:21Z</time>
      </trkpt>
      <trkpt lat="43.9286" lon="1.81769">
        <ele>260.2</ele>
        <time>2022-08-14T07:47:22Z</time>
      </trkpt>
      <trkpt lat="43.92861" lon="1.81762">
        <ele>260</ele>
        <time>2022-08-14T07:47:23Z</time>
      </trkpt>
      <trkpt lat="43.92862" lon="1.81755">
        <ele>259.6</ele>
        <time>2022-08-14T07:47:24Z</time>
      </trkpt>
      <trkpt lat="43.92864" lon="1.81744">
        <ele>259.6</ele>
        <time>2022-08-14T07:47:25Z</time>
      </trkpt>
      <trkpt lat="43.92865" lon="1.81731">
        <ele>259.6</ele>
        <time>2022-08-14T07:47:26Z</time>
      </trkpt>
      <trkpt lat="43.92865" lon="1.8172">
        <ele>259.4</ele>
        <time>2022-08-14T07:47:27Z</time>
      </trkpt>
      <trkpt lat="43.92867" lon="1.81713">
        <ele>259.4</ele>
        <time>2022-08-14T07:47:28Z</time>
      </trkpt>
      <trkpt lat="43.92869" lon="1.81707">
        <ele>259.2</ele>
        <time>2022-08-14T07:47:29Z</time>
      </trkpt>
      <trkpt lat="43.9287" lon="1.81702">
        <ele>259.2</ele>
        <time>2022-08-14T07:47:30Z</time>
      </trkpt>
      <trkpt lat="43.9287" lon="1.81696">
        <ele>259.2</ele>
        <time>2022-08-14T07:47:31Z</time>
      </trkpt>
      <trkpt lat="43.9287" lon="1.8169">
        <ele>259</ele>
        <time>2022-08-14T07:47:32Z</time>
      </trkpt>
      <trkpt lat="43.92872" lon="1.81685">
        <ele>258.8</ele>
        <time>2022-08-14T07:47:33Z</time>
      </trkpt>
      <trkpt lat="43.92872" lon="1.81681">
        <ele>258.8</ele>
        <time>2022-08-14T07:47:34Z</time>
      </trkpt>
      <trkpt lat="43.92872" lon="1.81676">
        <ele>258.8</ele>
        <time>2022-08-14T07:47:35Z</time>
      </trkpt>
      <trkpt lat="43.92873" lon="1.81672">
        <ele>258.6</ele>
        <time>2022-08-14T07:47:36Z</time>
      </trkpt>
      <trkpt lat="43.92874" lon="1.81664">
        <ele>258.6</ele>
        <time>2022-08-14T07:47:38Z</time>
      </trkpt>
      <trkpt lat="43.92875" lon="1.81654">
        <ele>258.6</ele>
        <time>2022-08-14T07:47:40Z</time>
      </trkpt>
      <trkpt lat="43.92876" lon="1.81648">
        <ele>258.6</ele>
        <time>2022-08-14T07:47:41Z</time>
      </trkpt>
      <trkpt lat="43.92877" lon="1.81637">
        <ele>258.6</ele>
        <time>2022-08-14T07:47:43Z</time>
      </trkpt>
      <trkpt lat="43.92878" lon="1.81628">
        <ele>258.6</ele>
        <time>2022-08-14T07:47:45Z</time>
      </trkpt>
      <trkpt lat="43.92879" lon="1.81618">
        <ele>259</ele>
        <time>2022-08-14T07:47:47Z</time>
      </trkpt>
      <trkpt lat="43.9288" lon="1.81613">
        <ele>259</ele>
        <time>2022-08-14T07:47:48Z</time>
      </trkpt>
      <trkpt lat="43.92881" lon="1.81608">
        <ele>259.2</ele>
        <time>2022-08-14T07:47:49Z</time>
      </trkpt>
      <trkpt lat="43.92881" lon="1.81604">
        <ele>259.4</ele>
        <time>2022-08-14T07:47:50Z</time>
      </trkpt>
      <trkpt lat="43.9288" lon="1.816">
        <ele>259.8</ele>
        <time>2022-08-14T07:47:51Z</time>
      </trkpt>
      <trkpt lat="43.9288" lon="1.81596">
        <ele>259.8</ele>
        <time>2022-08-14T07:47:52Z</time>
      </trkpt>
      <trkpt lat="43.92881" lon="1.81594">
        <ele>260</ele>
        <time>2022-08-14T07:47:53Z</time>
      </trkpt>
      <trkpt lat="43.92881" lon="1.81593">
        <ele>260.2</ele>
        <time>2022-08-14T07:47:54Z</time>
      </trkpt>
      <trkpt lat="43.92881" lon="1.81591">
        <ele>260.8</ele>
        <time>2022-08-14T07:48:10Z</time>
      </trkpt>
      <trkpt lat="43.92882" lon="1.81583">
        <ele>260.8</ele>
        <time>2022-08-14T07:48:13Z</time>
      </trkpt>
      <trkpt lat="43.92881" lon="1.81563">
        <ele>260.6</ele>
        <time>2022-08-14T07:48:18Z</time>
      </trkpt>
      <trkpt lat="43.92879" lon="1.8155">
        <ele>260.6</ele>
        <time>2022-08-14T07:48:20Z</time>
      </trkpt>
      <trkpt lat="43.92876" lon="1.81532">
        <ele>260.4</ele>
        <time>2022-08-14T07:48:23Z</time>
      </trkpt>
      <trkpt lat="43.92875" lon="1.81524">
        <ele>260.4</ele>
        <time>2022-08-14T07:48:24Z</time>
      </trkpt>
      <trkpt lat="43.92871" lon="1.81496">
        <ele>260</ele>
        <time>2022-08-14T07:48:28Z</time>
      </trkpt>
      <trkpt lat="43.92869" lon="1.81487">
        <ele>260</ele>
        <time>2022-08-14T07:48:29Z</time>
      </trkpt>
      <trkpt lat="43.92867" lon="1.81473">
        <ele>259.6</ele>
        <time>2022-08-14T07:48:31Z</time>
      </trkpt>
      <trkpt lat="43.92865" lon="1.8146">
        <ele>259.2</ele>
        <time>2022-08-14T07:48:33Z</time>
      </trkpt>
      <trkpt lat="43.92864" lon="1.81454">
        <ele>259.2</ele>
        <time>2022-08-14T07:48:34Z</time>
      </trkpt>
      <trkpt lat="43.92863" lon="1.81441">
        <ele>259.2</ele>
        <time>2022-08-14T07:48:36Z</time>
      </trkpt>
      <trkpt lat="43.92861" lon="1.81434">
        <ele>259.2</ele>
        <time>2022-08-14T07:48:37Z</time>
      </trkpt>
      <trkpt lat="43.92856" lon="1.8142">
        <ele>259.2</ele>
        <time>2022-08-14T07:48:39Z</time>
      </trkpt>
      <trkpt lat="43.92852" lon="1.81408">
        <ele>259.2</ele>
        <time>2022-08-14T07:48:41Z</time>
      </trkpt>
      <trkpt lat="43.92846" lon="1.81389">
        <ele>259.4</ele>
        <time>2022-08-14T07:48:44Z</time>
      </trkpt>
      <trkpt lat="43.92844" lon="1.81383">
        <ele>259.4</ele>
        <time>2022-08-14T07:48:45Z</time>
      </trkpt>
      <trkpt lat="43.92843" lon="1.81378">
        <ele>259.4</ele>
        <time>2022-08-14T07:48:46Z</time>
      </trkpt>
      <trkpt lat="43.92841" lon="1.81374">
        <ele>259.4</ele>
        <time>2022-08-14T07:48:47Z</time>
      </trkpt>
      <trkpt lat="43.92839" lon="1.81369">
        <ele>259.4</ele>
        <time>2022-08-14T07:48:48Z</time>
      </trkpt>
      <trkpt lat="43.92837" lon="1.81364">
        <ele>259.4</ele>
        <time>2022-08-14T07:48:49Z</time>
      </trkpt>
      <trkpt lat="43.92835" lon="1.81359">
        <ele>259.4</ele>
        <time>2022-08-14T07:48:50Z</time>
      </trkpt>
      <trkpt lat="43.92832" lon="1.81355">
        <ele>259.6</ele>
        <time>2022-08-14T07:48:51Z</time>
      </trkpt>
      <trkpt lat="43.92829" lon="1.81347">
        <ele>259.8</ele>
        <time>2022-08-14T07:48:53Z</time>
      </trkpt>
      <trkpt lat="43.92828" lon="1.81342">
        <ele>259.8</ele>
        <time>2022-08-14T07:48:54Z</time>
      </trkpt>
      <trkpt lat="43.92826" lon="1.81337">
        <ele>260</ele>
        <time>2022-08-14T07:48:55Z</time>
      </trkpt>
      <trkpt lat="43.92817" lon="1.81308">
        <ele>260.2</ele>
        <time>2022-08-14T07:49:00Z</time>
      </trkpt>
      <trkpt lat="43.92812" lon="1.81289">
        <ele>260.4</ele>
        <time>2022-08-14T07:49:03Z</time>
      </trkpt>
      <trkpt lat="43.9281" lon="1.81276">
        <ele>260</ele>
        <time>2022-08-14T07:49:05Z</time>
      </trkpt>
      <trkpt lat="43.92808" lon="1.8127">
        <ele>260</ele>
        <time>2022-08-14T07:49:06Z</time>
      </trkpt>
      <trkpt lat="43.92806" lon="1.81261">
        <ele>260</ele>
        <time>2022-08-14T07:49:07Z</time>
      </trkpt>
      <trkpt lat="43.92805" lon="1.81254">
        <ele>259.8</ele>
        <time>2022-08-14T07:49:08Z</time>
      </trkpt>
      <trkpt lat="43.92805" lon="1.81249">
        <ele>259.4</ele>
        <time>2022-08-14T07:49:09Z</time>
      </trkpt>
      <trkpt lat="43.92806" lon="1.81244">
        <ele>259.2</ele>
        <time>2022-08-14T07:49:10Z</time>
      </trkpt>
      <trkpt lat="43.92806" lon="1.8124">
        <ele>259</ele>
        <time>2022-08-14T07:49:11Z</time>
      </trkpt>
      <trkpt lat="43.92808" lon="1.81236">
        <ele>258.8</ele>
        <time>2022-08-14T07:49:12Z</time>
      </trkpt>
      <trkpt lat="43.9281" lon="1.81233">
        <ele>258</ele>
        <time>2022-08-14T07:49:13Z</time>
      </trkpt>
      <trkpt lat="43.92812" lon="1.8123">
        <ele>257.4</ele>
        <time>2022-08-14T07:49:14Z</time>
      </trkpt>
      <trkpt lat="43.92814" lon="1.81227">
        <ele>257</ele>
        <time>2022-08-14T07:49:15Z</time>
      </trkpt>
      <trkpt lat="43.92816" lon="1.81224">
        <ele>256.4</ele>
        <time>2022-08-14T07:49:16Z</time>
      </trkpt>
      <trkpt lat="43.92822" lon="1.81216">
        <ele>255.4</ele>
        <time>2022-08-14T07:49:19Z</time>
      </trkpt>
      <trkpt lat="43.92827" lon="1.81208">
        <ele>254.6</ele>
        <time>2022-08-14T07:49:21Z</time>
      </trkpt>
      <trkpt lat="43.92833" lon="1.812">
        <ele>253.2</ele>
        <time>2022-08-14T07:49:23Z</time>
      </trkpt>
      <trkpt lat="43.92835" lon="1.81197">
        <ele>252.6</ele>
        <time>2022-08-14T07:49:24Z</time>
      </trkpt>
      <trkpt lat="43.92837" lon="1.81195">
        <ele>251.8</ele>
        <time>2022-08-14T07:49:25Z</time>
      </trkpt>
      <trkpt lat="43.92838" lon="1.81193">
        <ele>251.6</ele>
        <time>2022-08-14T07:49:26Z</time>
      </trkpt>
      <trkpt lat="43.92839" lon="1.81191">
        <ele>251.2</ele>
        <time>2022-08-14T07:49:27Z</time>
      </trkpt>
      <trkpt lat="43.92841" lon="1.8119">
        <ele>250.8</ele>
        <time>2022-08-14T07:49:28Z</time>
      </trkpt>
      <trkpt lat="43.92842" lon="1.81189">
        <ele>250</ele>
        <time>2022-08-14T07:49:29Z</time>
      </trkpt>
      <trkpt lat="43.92843" lon="1.81188">
        <ele>249.2</ele>
        <time>2022-08-14T07:49:30Z</time>
      </trkpt>
      <trkpt lat="43.92844" lon="1.81186">
        <ele>249</ele>
        <time>2022-08-14T07:49:31Z</time>
      </trkpt>
      <trkpt lat="43.92847" lon="1.81182">
        <ele>248.4</ele>
        <time>2022-08-14T07:49:33Z</time>
      </trkpt>
      <trkpt lat="43.92848" lon="1.81181">
        <ele>247.8</ele>
        <time>2022-08-14T07:49:34Z</time>
      </trkpt>
      <trkpt lat="43.92851" lon="1.81177">
        <ele>246.8</ele>
        <time>2022-08-14T07:49:36Z</time>
      </trkpt>
      <trkpt lat="43.92856" lon="1.81168">
        <ele>245.6</ele>
        <time>2022-08-14T07:49:39Z</time>
      </trkpt>
      <trkpt lat="43.92859" lon="1.81163">
        <ele>244.8</ele>
        <time>2022-08-14T07:49:41Z</time>
      </trkpt>
      <trkpt lat="43.92861" lon="1.8116">
        <ele>244.6</ele>
        <time>2022-08-14T07:49:42Z</time>
      </trkpt>
      <trkpt lat="43.92862" lon="1.81156">
        <ele>244</ele>
        <time>2022-08-14T07:49:43Z</time>
      </trkpt>
      <trkpt lat="43.92864" lon="1.81152">
        <ele>243.6</ele>
        <time>2022-08-14T07:49:44Z</time>
      </trkpt>
      <trkpt lat="43.92866" lon="1.81148">
        <ele>243.2</ele>
        <time>2022-08-14T07:49:45Z</time>
      </trkpt>
      <trkpt lat="43.92867" lon="1.81145">
        <ele>242.6</ele>
        <time>2022-08-14T07:49:46Z</time>
      </trkpt>
      <trkpt lat="43.92869" lon="1.81141">
        <ele>242</ele>
        <time>2022-08-14T07:49:47Z</time>
      </trkpt>
      <trkpt lat="43.92871" lon="1.81139">
        <ele>241.4</ele>
        <time>2022-08-14T07:49:48Z</time>
      </trkpt>
      <trkpt lat="43.92874" lon="1.81129">
        <ele>240</ele>
        <time>2022-08-14T07:49:51Z</time>
      </trkpt>
      <trkpt lat="43.92875" lon="1.81126">
        <ele>239.4</ele>
        <time>2022-08-14T07:49:52Z</time>
      </trkpt>
      <trkpt lat="43.92879" lon="1.81123">
        <ele>239</ele>
        <time>2022-08-14T07:49:54Z</time>
      </trkpt>
      <trkpt lat="43.9288" lon="1.8112">
        <ele>238.6</ele>
        <time>2022-08-14T07:49:55Z</time>
      </trkpt>
      <trkpt lat="43.92882" lon="1.81118">
        <ele>238.2</ele>
        <time>2022-08-14T07:49:56Z</time>
      </trkpt>
      <trkpt lat="43.92882" lon="1.81117">
        <ele>237.4</ele>
        <time>2022-08-14T07:49:57Z</time>
      </trkpt>
      <trkpt lat="43.92883" lon="1.81115">
        <ele>237.2</ele>
        <time>2022-08-14T07:49:58Z</time>
      </trkpt>
      <trkpt lat="43.92881" lon="1.81112">
        <ele>236.8</ele>
        <time>2022-08-14T07:49:59Z</time>
      </trkpt>
      <trkpt lat="43.92879" lon="1.81111">
        <ele>236.8</ele>
        <time>2022-08-14T07:50:00Z</time>
      </trkpt>
      <trkpt lat="43.92876" lon="1.81109">
        <ele>236.2</ele>
        <time>2022-08-14T07:50:02Z</time>
      </trkpt>
      <trkpt lat="43.92875" lon="1.81107">
        <ele>236.2</ele>
        <time>2022-08-14T07:50:03Z</time>
      </trkpt>
      <trkpt lat="43.92873" lon="1.81104">
        <ele>236.2</ele>
        <time>2022-08-14T07:50:04Z</time>
      </trkpt>
      <trkpt lat="43.92872" lon="1.81102">
        <ele>236</ele>
        <time>2022-08-14T07:50:05Z</time>
      </trkpt>
      <trkpt lat="43.92872" lon="1.81099">
        <ele>236</ele>
        <time>2022-08-14T07:50:06Z</time>
      </trkpt>
      <trkpt lat="43.92872" lon="1.81096">
        <ele>236</ele>
        <time>2022-08-14T07:50:07Z</time>
      </trkpt>
      <trkpt lat="43.92871" lon="1.81094">
        <ele>236</ele>
        <time>2022-08-14T07:50:08Z</time>
      </trkpt>
      <trkpt lat="43.9287" lon="1.81091">
        <ele>235.8</ele>
        <time>2022-08-14T07:50:09Z</time>
      </trkpt>
      <trkpt lat="43.9287" lon="1.8109">
        <ele>235.8</ele>
        <time>2022-08-14T07:50:10Z</time>
      </trkpt>
      <trkpt lat="43.9287" lon="1.8109">
        <ele>235.4</ele>
        <time>2022-08-14T07:51:32Z</time>
      </trkpt>
      <trkpt lat="43.9287" lon="1.81088">
        <ele>235.2</ele>
        <time>2022-08-14T07:51:33Z</time>
      </trkpt>
      <trkpt lat="43.92871" lon="1.81085">
        <ele>235.2</ele>
        <time>2022-08-14T07:51:34Z</time>
      </trkpt>
      <trkpt lat="43.92873" lon="1.81071">
        <ele>235</ele>
        <time>2022-08-14T07:51:38Z</time>
      </trkpt>
      <trkpt lat="43.92873" lon="1.8107">
        <ele>235</ele>
        <time>2022-08-14T07:51:39Z</time>
      </trkpt>
      <trkpt lat="43.92873" lon="1.81069">
        <ele>235</ele>
        <time>2022-08-14T07:51:40Z</time>
      </trkpt>
      <trkpt lat="43.92875" lon="1.81064">
        <ele>235</ele>
        <time>2022-08-14T07:51:42Z</time>
      </trkpt>
      <trkpt lat="43.92876" lon="1.8106">
        <ele>235</ele>
        <time>2022-08-14T07:51:43Z</time>
      </trkpt>
      <trkpt lat="43.92876" lon="1.81047">
        <ele>235</ele>
        <time>2022-08-14T07:51:47Z</time>
      </trkpt>
      <trkpt lat="43.92876" lon="1.81035">
        <ele>235.2</ele>
        <time>2022-08-14T07:51:50Z</time>
      </trkpt>
      <trkpt lat="43.92876" lon="1.81031">
        <ele>235.2</ele>
        <time>2022-08-14T07:51:51Z</time>
      </trkpt>
      <trkpt lat="43.92876" lon="1.81027">
        <ele>235.2</ele>
        <time>2022-08-14T07:51:52Z</time>
      </trkpt>
      <trkpt lat="43.92876" lon="1.81014">
        <ele>235.4</ele>
        <time>2022-08-14T07:51:55Z</time>
      </trkpt>
      <trkpt lat="43.92876" lon="1.81011">
        <ele>235.4</ele>
        <time>2022-08-14T07:51:56Z</time>
      </trkpt>
      <trkpt lat="43.92875" lon="1.81007">
        <ele>235.6</ele>
        <time>2022-08-14T07:51:57Z</time>
      </trkpt>
      <trkpt lat="43.92874" lon="1.81">
        <ele>235.8</ele>
        <time>2022-08-14T07:51:59Z</time>
      </trkpt>
      <trkpt lat="43.92871" lon="1.80982">
        <ele>236.2</ele>
        <time>2022-08-14T07:52:03Z</time>
      </trkpt>
      <trkpt lat="43.92867" lon="1.80975">
        <ele>236.4</ele>
        <time>2022-08-14T07:52:05Z</time>
      </trkpt>
      <trkpt lat="43.92866" lon="1.80972">
        <ele>236.4</ele>
        <time>2022-08-14T07:52:06Z</time>
      </trkpt>
      <trkpt lat="43.92864" lon="1.80963">
        <ele>236.4</ele>
        <time>2022-08-14T07:52:08Z</time>
      </trkpt>
      <trkpt lat="43.92856" lon="1.80954">
        <ele>237.2</ele>
        <time>2022-08-14T07:52:11Z</time>
      </trkpt>
      <trkpt lat="43.92854" lon="1.80951">
        <ele>238.2</ele>
        <time>2022-08-14T07:52:12Z</time>
      </trkpt>
      <trkpt lat="43.92851" lon="1.80949">
        <ele>238.6</ele>
        <time>2022-08-14T07:52:13Z</time>
      </trkpt>
      <trkpt lat="43.9285" lon="1.80947">
        <ele>239</ele>
        <time>2022-08-14T07:52:14Z</time>
      </trkpt>
      <trkpt lat="43.92849" lon="1.80944">
        <ele>239.4</ele>
        <time>2022-08-14T07:52:15Z</time>
      </trkpt>
      <trkpt lat="43.92848" lon="1.8094">
        <ele>240</ele>
        <time>2022-08-14T07:52:16Z</time>
      </trkpt>
      <trkpt lat="43.92847" lon="1.80937">
        <ele>240.4</ele>
        <time>2022-08-14T07:52:17Z</time>
      </trkpt>
      <trkpt lat="43.92847" lon="1.80933">
        <ele>240.6</ele>
        <time>2022-08-14T07:52:18Z</time>
      </trkpt>
      <trkpt lat="43.92847" lon="1.8093">
        <ele>241</ele>
        <time>2022-08-14T07:52:19Z</time>
      </trkpt>
      <trkpt lat="43.92847" lon="1.80927">
        <ele>241.4</ele>
        <time>2022-08-14T07:52:20Z</time>
      </trkpt>
      <trkpt lat="43.92847" lon="1.80925">
        <ele>241.8</ele>
        <time>2022-08-14T07:52:21Z</time>
      </trkpt>
      <trkpt lat="43.92847" lon="1.80922">
        <ele>242</ele>
        <time>2022-08-14T07:52:22Z</time>
      </trkpt>
      <trkpt lat="43.92848" lon="1.8092">
        <ele>242.4</ele>
        <time>2022-08-14T07:52:23Z</time>
      </trkpt>
      <trkpt lat="43.92848" lon="1.80918">
        <ele>242.6</ele>
        <time>2022-08-14T07:52:24Z</time>
      </trkpt>
      <trkpt lat="43.92848" lon="1.80916">
        <ele>243</ele>
        <time>2022-08-14T07:52:25Z</time>
      </trkpt>
      <trkpt lat="43.92849" lon="1.80913">
        <ele>243.4</ele>
        <time>2022-08-14T07:52:26Z</time>
      </trkpt>
      <trkpt lat="43.9285" lon="1.80911">
        <ele>243.6</ele>
        <time>2022-08-14T07:52:27Z</time>
      </trkpt>
      <trkpt lat="43.9285" lon="1.80908">
        <ele>243.8</ele>
        <time>2022-08-14T07:52:28Z</time>
      </trkpt>
      <trkpt lat="43.92851" lon="1.80905">
        <ele>244</ele>
        <time>2022-08-14T07:52:29Z</time>
      </trkpt>
      <trkpt lat="43.92852" lon="1.80903">
        <ele>244.2</ele>
        <time>2022-08-14T07:52:30Z</time>
      </trkpt>
      <trkpt lat="43.92853" lon="1.809">
        <ele>244.4</ele>
        <time>2022-08-14T07:52:31Z</time>
      </trkpt>
      <trkpt lat="43.92854" lon="1.80897">
        <ele>244.4</ele>
        <time>2022-08-14T07:52:32Z</time>
      </trkpt>
      <trkpt lat="43.92854" lon="1.80893">
        <ele>244.6</ele>
        <time>2022-08-14T07:52:33Z</time>
      </trkpt>
      <trkpt lat="43.92854" lon="1.8089">
        <ele>244.6</ele>
        <time>2022-08-14T07:52:34Z</time>
      </trkpt>
      <trkpt lat="43.92853" lon="1.80887">
        <ele>244.6</ele>
        <time>2022-08-14T07:52:35Z</time>
      </trkpt>
      <trkpt lat="43.92853" lon="1.80884">
        <ele>244.8</ele>
        <time>2022-08-14T07:52:36Z</time>
      </trkpt>
      <trkpt lat="43.92852" lon="1.80881">
        <ele>245</ele>
        <time>2022-08-14T07:52:37Z</time>
      </trkpt>
      <trkpt lat="43.92852" lon="1.80878">
        <ele>245</ele>
        <time>2022-08-14T07:52:38Z</time>
      </trkpt>
      <trkpt lat="43.92851" lon="1.80875">
        <ele>245.2</ele>
        <time>2022-08-14T07:52:39Z</time>
      </trkpt>
      <trkpt lat="43.9285" lon="1.80872">
        <ele>245.2</ele>
        <time>2022-08-14T07:52:40Z</time>
      </trkpt>
      <trkpt lat="43.9285" lon="1.80869">
        <ele>245.4</ele>
        <time>2022-08-14T07:52:41Z</time>
      </trkpt>
      <trkpt lat="43.92848" lon="1.80866">
        <ele>245.6</ele>
        <time>2022-08-14T07:52:42Z</time>
      </trkpt>
      <trkpt lat="43.92847" lon="1.80863">
        <ele>245.6</ele>
        <time>2022-08-14T07:52:43Z</time>
      </trkpt>
      <trkpt lat="43.92846" lon="1.80861">
        <ele>245.8</ele>
        <time>2022-08-14T07:52:44Z</time>
      </trkpt>
      <trkpt lat="43.92845" lon="1.80859">
        <ele>245.8</ele>
        <time>2022-08-14T07:52:45Z</time>
      </trkpt>
      <trkpt lat="43.92843" lon="1.80856">
        <ele>245.8</ele>
        <time>2022-08-14T07:52:46Z</time>
      </trkpt>
      <trkpt lat="43.92842" lon="1.80852">
        <ele>245.8</ele>
        <time>2022-08-14T07:52:47Z</time>
      </trkpt>
      <trkpt lat="43.9284" lon="1.8085">
        <ele>246</ele>
        <time>2022-08-14T07:52:48Z</time>
      </trkpt>
      <trkpt lat="43.92839" lon="1.80847">
        <ele>246</ele>
        <time>2022-08-14T07:52:49Z</time>
      </trkpt>
      <trkpt lat="43.92837" lon="1.80844">
        <ele>246.2</ele>
        <time>2022-08-14T07:52:50Z</time>
      </trkpt>
      <trkpt lat="43.92835" lon="1.80841">
        <ele>246.2</ele>
        <time>2022-08-14T07:52:51Z</time>
      </trkpt>
      <trkpt lat="43.92834" lon="1.80837">
        <ele>246.4</ele>
        <time>2022-08-14T07:52:52Z</time>
      </trkpt>
      <trkpt lat="43.92833" lon="1.80834">
        <ele>246.6</ele>
        <time>2022-08-14T07:52:53Z</time>
      </trkpt>
      <trkpt lat="43.92831" lon="1.8083">
        <ele>246.6</ele>
        <time>2022-08-14T07:52:54Z</time>
      </trkpt>
      <trkpt lat="43.92829" lon="1.80827">
        <ele>246.8</ele>
        <time>2022-08-14T07:52:55Z</time>
      </trkpt>
      <trkpt lat="43.92827" lon="1.80824">
        <ele>247</ele>
        <time>2022-08-14T07:52:56Z</time>
      </trkpt>
      <trkpt lat="43.92826" lon="1.80821">
        <ele>247.2</ele>
        <time>2022-08-14T07:52:57Z</time>
      </trkpt>
      <trkpt lat="43.92824" lon="1.80818">
        <ele>247.2</ele>
        <time>2022-08-14T07:52:58Z</time>
      </trkpt>
      <trkpt lat="43.92822" lon="1.80815">
        <ele>247.4</ele>
        <time>2022-08-14T07:52:59Z</time>
      </trkpt>
      <trkpt lat="43.9282" lon="1.80811">
        <ele>247.4</ele>
        <time>2022-08-14T07:53:00Z</time>
      </trkpt>
      <trkpt lat="43.92819" lon="1.80806">
        <ele>247.6</ele>
        <time>2022-08-14T07:53:01Z</time>
      </trkpt>
      <trkpt lat="43.92817" lon="1.80801">
        <ele>247.6</ele>
        <time>2022-08-14T07:53:02Z</time>
      </trkpt>
      <trkpt lat="43.92816" lon="1.80797">
        <ele>247.8</ele>
        <time>2022-08-14T07:53:03Z</time>
      </trkpt>
      <trkpt lat="43.92814" lon="1.80792">
        <ele>247.8</ele>
        <time>2022-08-14T07:53:04Z</time>
      </trkpt>
      <trkpt lat="43.92813" lon="1.80788">
        <ele>247.8</ele>
        <time>2022-08-14T07:53:05Z</time>
      </trkpt>
      <trkpt lat="43.92813" lon="1.80783">
        <ele>248</ele>
        <time>2022-08-14T07:53:06Z</time>
      </trkpt>
      <trkpt lat="43.92813" lon="1.8078">
        <ele>248</ele>
        <time>2022-08-14T07:53:07Z</time>
      </trkpt>
      <trkpt lat="43.92812" lon="1.80778">
        <ele>248</ele>
        <time>2022-08-14T07:53:08Z</time>
      </trkpt>
      <trkpt lat="43.92812" lon="1.80775">
        <ele>248.4</ele>
        <time>2022-08-14T07:53:09Z</time>
      </trkpt>
      <trkpt lat="43.92813" lon="1.80773">
        <ele>248.2</ele>
        <time>2022-08-14T07:53:10Z</time>
      </trkpt>
      <trkpt lat="43.92814" lon="1.80769">
        <ele>248.6</ele>
        <time>2022-08-14T07:53:11Z</time>
      </trkpt>
      <trkpt lat="43.92815" lon="1.80767">
        <ele>248.6</ele>
        <time>2022-08-14T07:53:12Z</time>
      </trkpt>
      <trkpt lat="43.92815" lon="1.80764">
        <ele>248.6</ele>
        <time>2022-08-14T07:53:13Z</time>
      </trkpt>
      <trkpt lat="43.92815" lon="1.80761">
        <ele>248.6</ele>
        <time>2022-08-14T07:53:14Z</time>
      </trkpt>
      <trkpt lat="43.92816" lon="1.8076">
        <ele>248.4</ele>
        <time>2022-08-14T07:53:15Z</time>
      </trkpt>
      <trkpt lat="43.92817" lon="1.80757">
        <ele>245.8</ele>
        <time>2022-08-14T07:54:08Z</time>
      </trkpt>
      <trkpt lat="43.92817" lon="1.80755">
        <ele>245.8</ele>
        <time>2022-08-14T07:54:09Z</time>
      </trkpt>
      <trkpt lat="43.92818" lon="1.80753">
        <ele>245.8</ele>
        <time>2022-08-14T07:54:10Z</time>
      </trkpt>
      <trkpt lat="43.92818" lon="1.80751">
        <ele>245.6</ele>
        <time>2022-08-14T07:54:11Z</time>
      </trkpt>
      <trkpt lat="43.92825" lon="1.8074">
        <ele>245.4</ele>
        <time>2022-08-14T07:54:15Z</time>
      </trkpt>
      <trkpt lat="43.92827" lon="1.80735">
        <ele>245.2</ele>
        <time>2022-08-14T07:54:16Z</time>
      </trkpt>
      <trkpt lat="43.92829" lon="1.8073">
        <ele>244.8</ele>
        <time>2022-08-14T07:54:17Z</time>
      </trkpt>
      <trkpt lat="43.92832" lon="1.80724">
        <ele>244.4</ele>
        <time>2022-08-14T07:54:19Z</time>
      </trkpt>
      <trkpt lat="43.92834" lon="1.8072">
        <ele>244</ele>
        <time>2022-08-14T07:54:21Z</time>
      </trkpt>
      <trkpt lat="43.92835" lon="1.80717">
        <ele>243.6</ele>
        <time>2022-08-14T07:54:22Z</time>
      </trkpt>
      <trkpt lat="43.92836" lon="1.80715">
        <ele>243.4</ele>
        <time>2022-08-14T07:54:23Z</time>
      </trkpt>
      <trkpt lat="43.92837" lon="1.80713">
        <ele>243</ele>
        <time>2022-08-14T07:54:24Z</time>
      </trkpt>
      <trkpt lat="43.92838" lon="1.8071">
        <ele>242.8</ele>
        <time>2022-08-14T07:54:25Z</time>
      </trkpt>
      <trkpt lat="43.92839" lon="1.80708">
        <ele>242.6</ele>
        <time>2022-08-14T07:54:26Z</time>
      </trkpt>
      <trkpt lat="43.92841" lon="1.80705">
        <ele>242.2</ele>
        <time>2022-08-14T07:54:27Z</time>
      </trkpt>
      <trkpt lat="43.92841" lon="1.80701">
        <ele>242</ele>
        <time>2022-08-14T07:54:28Z</time>
      </trkpt>
      <trkpt lat="43.92841" lon="1.80699">
        <ele>241.4</ele>
        <time>2022-08-14T07:54:29Z</time>
      </trkpt>
      <trkpt lat="43.92841" lon="1.80698">
        <ele>241.4</ele>
        <time>2022-08-14T07:54:30Z</time>
      </trkpt>
      <trkpt lat="43.92842" lon="1.80697">
        <ele>240.8</ele>
        <time>2022-08-14T07:54:31Z</time>
      </trkpt>
      <trkpt lat="43.92842" lon="1.80696">
        <ele>240.6</ele>
        <time>2022-08-14T07:54:32Z</time>
      </trkpt>
      <trkpt lat="43.92842" lon="1.80696">
        <ele>240.4</ele>
        <time>2022-08-14T07:54:33Z</time>
      </trkpt>
      <trkpt lat="43.92843" lon="1.80693">
        <ele>239.8</ele>
        <time>2022-08-14T07:54:34Z</time>
      </trkpt>
      <trkpt lat="43.92843" lon="1.80689">
        <ele>239.6</ele>
        <time>2022-08-14T07:54:35Z</time>
      </trkpt>
      <trkpt lat="43.92843" lon="1.80685">
        <ele>239.4</ele>
        <time>2022-08-14T07:54:36Z</time>
      </trkpt>
      <trkpt lat="43.92843" lon="1.80682">
        <ele>239</ele>
        <time>2022-08-14T07:54:37Z</time>
      </trkpt>
      <trkpt lat="43.92843" lon="1.80679">
        <ele>238.6</ele>
        <time>2022-08-14T07:54:38Z</time>
      </trkpt>
      <trkpt lat="43.92843" lon="1.80673">
        <ele>238.4</ele>
        <time>2022-08-14T07:54:39Z</time>
      </trkpt>
      <trkpt lat="43.92842" lon="1.80667">
        <ele>238</ele>
        <time>2022-08-14T07:54:40Z</time>
      </trkpt>
      <trkpt lat="43.92842" lon="1.80658">
        <ele>237.6</ele>
        <time>2022-08-14T07:54:42Z</time>
      </trkpt>
      <trkpt lat="43.92841" lon="1.80653">
        <ele>237</ele>
        <time>2022-08-14T07:54:43Z</time>
      </trkpt>
      <trkpt lat="43.92841" lon="1.80652">
        <ele>236.8</ele>
        <time>2022-08-14T07:54:44Z</time>
      </trkpt>
      <trkpt lat="43.92841" lon="1.80652">
        <ele>231.2</ele>
        <time>2022-08-14T07:55:13Z</time>
      </trkpt>
      <trkpt lat="43.92842" lon="1.80646">
        <ele>231.2</ele>
        <time>2022-08-14T07:55:16Z</time>
      </trkpt>
      <trkpt lat="43.92844" lon="1.8064">
        <ele>231.2</ele>
        <time>2022-08-14T07:55:18Z</time>
      </trkpt>
      <trkpt lat="43.92843" lon="1.80638">
        <ele>231</ele>
        <time>2022-08-14T07:55:19Z</time>
      </trkpt>
      <trkpt lat="43.92843" lon="1.80637">
        <ele>230.6</ele>
        <time>2022-08-14T07:55:20Z</time>
      </trkpt>
      <trkpt lat="43.92844" lon="1.80634">
        <ele>230.2</ele>
        <time>2022-08-14T07:55:21Z</time>
      </trkpt>
      <trkpt lat="43.92845" lon="1.80625">
        <ele>229.4</ele>
        <time>2022-08-14T07:55:24Z</time>
      </trkpt>
      <trkpt lat="43.92845" lon="1.80624">
        <ele>229.2</ele>
        <time>2022-08-14T07:55:25Z</time>
      </trkpt>
      <trkpt lat="43.92846" lon="1.80621">
        <ele>229</ele>
        <time>2022-08-14T07:55:26Z</time>
      </trkpt>
      <trkpt lat="43.92847" lon="1.80619">
        <ele>228.6</ele>
        <time>2022-08-14T07:55:27Z</time>
      </trkpt>
      <trkpt lat="43.92848" lon="1.80616">
        <ele>228</ele>
        <time>2022-08-14T07:55:28Z</time>
      </trkpt>
      <trkpt lat="43.92849" lon="1.8061">
        <ele>227.4</ele>
        <time>2022-08-14T07:55:29Z</time>
      </trkpt>
      <trkpt lat="43.92851" lon="1.80593">
        <ele>226.2</ele>
        <time>2022-08-14T07:55:32Z</time>
      </trkpt>
      <trkpt lat="43.92852" lon="1.80588">
        <ele>225.8</ele>
        <time>2022-08-14T07:55:33Z</time>
      </trkpt>
      <trkpt lat="43.92852" lon="1.80588">
        <ele>225.8</ele>
        <time>2022-08-14T07:55:34Z</time>
      </trkpt>
      <trkpt lat="43.92852" lon="1.80588">
        <ele>225.4</ele>
        <time>2022-08-14T07:55:35Z</time>
      </trkpt>
      <trkpt lat="43.92853" lon="1.80584">
        <ele>225.4</ele>
        <time>2022-08-14T07:55:36Z</time>
      </trkpt>
      <trkpt lat="43.92854" lon="1.80578">
        <ele>225</ele>
        <time>2022-08-14T07:55:37Z</time>
      </trkpt>
      <trkpt lat="43.92854" lon="1.80572">
        <ele>224.4</ele>
        <time>2022-08-14T07:55:38Z</time>
      </trkpt>
      <trkpt lat="43.92855" lon="1.80569">
        <ele>224.2</ele>
        <time>2022-08-14T07:55:39Z</time>
      </trkpt>
      <trkpt lat="43.92856" lon="1.80566">
        <ele>223.8</ele>
        <time>2022-08-14T07:55:40Z</time>
      </trkpt>
      <trkpt lat="43.92861" lon="1.80553">
        <ele>222.6</ele>
        <time>2022-08-14T07:55:43Z</time>
      </trkpt>
      <trkpt lat="43.92863" lon="1.80549">
        <ele>222</ele>
        <time>2022-08-14T07:55:44Z</time>
      </trkpt>
      <trkpt lat="43.92865" lon="1.80546">
        <ele>221.4</ele>
        <time>2022-08-14T07:55:45Z</time>
      </trkpt>
      <trkpt lat="43.92866" lon="1.80541">
        <ele>221.2</ele>
        <time>2022-08-14T07:55:46Z</time>
      </trkpt>
      <trkpt lat="43.92868" lon="1.80537">
        <ele>220.8</ele>
        <time>2022-08-14T07:55:47Z</time>
      </trkpt>
      <trkpt lat="43.9287" lon="1.80535">
        <ele>220.4</ele>
        <time>2022-08-14T07:55:48Z</time>
      </trkpt>
      <trkpt lat="43.92871" lon="1.80533">
        <ele>219.8</ele>
        <time>2022-08-14T07:55:49Z</time>
      </trkpt>
      <trkpt lat="43.92873" lon="1.8053">
        <ele>219.2</ele>
        <time>2022-08-14T07:55:50Z</time>
      </trkpt>
      <trkpt lat="43.92875" lon="1.80527">
        <ele>218.4</ele>
        <time>2022-08-14T07:55:51Z</time>
      </trkpt>
      <trkpt lat="43.92878" lon="1.80524">
        <ele>218</ele>
        <time>2022-08-14T07:55:52Z</time>
      </trkpt>
      <trkpt lat="43.92881" lon="1.80522">
        <ele>217.2</ele>
        <time>2022-08-14T07:55:54Z</time>
      </trkpt>
      <trkpt lat="43.92883" lon="1.8052">
        <ele>217</ele>
        <time>2022-08-14T07:55:55Z</time>
      </trkpt>
      <trkpt lat="43.92885" lon="1.80518">
        <ele>216.2</ele>
        <time>2022-08-14T07:55:56Z</time>
      </trkpt>
      <trkpt lat="43.92889" lon="1.80515">
        <ele>215.8</ele>
        <time>2022-08-14T07:55:57Z</time>
      </trkpt>
      <trkpt lat="43.92892" lon="1.80509">
        <ele>214.8</ele>
        <time>2022-08-14T07:55:59Z</time>
      </trkpt>
      <trkpt lat="43.92892" lon="1.80505">
        <ele>213.8</ele>
        <time>2022-08-14T07:56:00Z</time>
      </trkpt>
      <trkpt lat="43.92893" lon="1.80501">
        <ele>213</ele>
        <time>2022-08-14T07:56:01Z</time>
      </trkpt>
      <trkpt lat="43.92894" lon="1.80499">
        <ele>212.8</ele>
        <time>2022-08-14T07:56:02Z</time>
      </trkpt>
      <trkpt lat="43.92896" lon="1.80497">
        <ele>212.2</ele>
        <time>2022-08-14T07:56:03Z</time>
      </trkpt>
      <trkpt lat="43.92897" lon="1.80497">
        <ele>211.8</ele>
        <time>2022-08-14T07:56:04Z</time>
      </trkpt>
      <trkpt lat="43.92898" lon="1.80496">
        <ele>211.2</ele>
        <time>2022-08-14T07:56:05Z</time>
      </trkpt>
      <trkpt lat="43.92899" lon="1.80494">
        <ele>210.8</ele>
        <time>2022-08-14T07:56:06Z</time>
      </trkpt>
      <trkpt lat="43.92901" lon="1.80492">
        <ele>210.4</ele>
        <time>2022-08-14T07:56:07Z</time>
      </trkpt>
      <trkpt lat="43.92903" lon="1.80488">
        <ele>209.8</ele>
        <time>2022-08-14T07:56:08Z</time>
      </trkpt>
      <trkpt lat="43.92907" lon="1.80485">
        <ele>209</ele>
        <time>2022-08-14T07:56:09Z</time>
      </trkpt>
      <trkpt lat="43.92909" lon="1.80482">
        <ele>208.2</ele>
        <time>2022-08-14T07:56:10Z</time>
      </trkpt>
      <trkpt lat="43.9291" lon="1.80478">
        <ele>207.8</ele>
        <time>2022-08-14T07:56:11Z</time>
      </trkpt>
      <trkpt lat="43.92917" lon="1.80473">
        <ele>206.6</ele>
        <time>2022-08-14T07:56:14Z</time>
      </trkpt>
      <trkpt lat="43.92918" lon="1.80472">
        <ele>206.2</ele>
        <time>2022-08-14T07:56:15Z</time>
      </trkpt>
      <trkpt lat="43.9292" lon="1.8047">
        <ele>205.6</ele>
        <time>2022-08-14T07:56:16Z</time>
      </trkpt>
      <trkpt lat="43.92922" lon="1.80469">
        <ele>205</ele>
        <time>2022-08-14T07:56:17Z</time>
      </trkpt>
      <trkpt lat="43.92925" lon="1.80467">
        <ele>204.8</ele>
        <time>2022-08-14T07:56:18Z</time>
      </trkpt>
      <trkpt lat="43.92927" lon="1.80467">
        <ele>204</ele>
        <time>2022-08-14T07:56:19Z</time>
      </trkpt>
      <trkpt lat="43.9293" lon="1.80466">
        <ele>203.2</ele>
        <time>2022-08-14T07:56:20Z</time>
      </trkpt>
      <trkpt lat="43.92932" lon="1.80466">
        <ele>202.2</ele>
        <time>2022-08-14T07:56:21Z</time>
      </trkpt>
      <trkpt lat="43.92933" lon="1.80466">
        <ele>201.8</ele>
        <time>2022-08-14T07:56:22Z</time>
      </trkpt>
      <trkpt lat="43.92935" lon="1.80465">
        <ele>201.6</ele>
        <time>2022-08-14T07:56:23Z</time>
      </trkpt>
      <trkpt lat="43.92937" lon="1.80464">
        <ele>201.4</ele>
        <time>2022-08-14T07:56:24Z</time>
      </trkpt>
      <trkpt lat="43.92939" lon="1.80462">
        <ele>201.2</ele>
        <time>2022-08-14T07:56:25Z</time>
      </trkpt>
      <trkpt lat="43.9294" lon="1.80461">
        <ele>201</ele>
        <time>2022-08-14T07:56:26Z</time>
      </trkpt>
      <trkpt lat="43.9294" lon="1.8046">
        <ele>201</ele>
        <time>2022-08-14T07:56:27Z</time>
      </trkpt>
      <trkpt lat="43.9294" lon="1.8046">
        <ele>201</ele>
        <time>2022-08-14T07:56:28Z</time>
      </trkpt>
      <trkpt lat="43.92941" lon="1.8046">
        <ele>200.8</ele>
        <time>2022-08-14T07:56:29Z</time>
      </trkpt>
      <trkpt lat="43.92943" lon="1.80459">
        <ele>200.6</ele>
        <time>2022-08-14T07:56:30Z</time>
      </trkpt>
      <trkpt lat="43.92947" lon="1.80455">
        <ele>200.6</ele>
        <time>2022-08-14T07:56:31Z</time>
      </trkpt>
      <trkpt lat="43.92954" lon="1.8045">
        <ele>200.2</ele>
        <time>2022-08-14T07:56:34Z</time>
      </trkpt>
      <trkpt lat="43.92956" lon="1.80449">
        <ele>200.2</ele>
        <time>2022-08-14T07:56:35Z</time>
      </trkpt>
      <trkpt lat="43.92958" lon="1.80448">
        <ele>200.2</ele>
        <time>2022-08-14T07:56:36Z</time>
      </trkpt>
      <trkpt lat="43.9296" lon="1.80445">
        <ele>200</ele>
        <time>2022-08-14T07:56:37Z</time>
      </trkpt>
      <trkpt lat="43.92964" lon="1.80442">
        <ele>200</ele>
        <time>2022-08-14T07:56:39Z</time>
      </trkpt>
      <trkpt lat="43.92966" lon="1.80439">
        <ele>200</ele>
        <time>2022-08-14T07:56:40Z</time>
      </trkpt>
      <trkpt lat="43.92968" lon="1.80436">
        <ele>200</ele>
        <time>2022-08-14T07:56:41Z</time>
      </trkpt>
      <trkpt lat="43.9297" lon="1.80434">
        <ele>200</ele>
        <time>2022-08-14T07:56:42Z</time>
      </trkpt>
      <trkpt lat="43.92971" lon="1.80433">
        <ele>200.2</ele>
        <time>2022-08-14T07:56:43Z</time>
      </trkpt>
      <trkpt lat="43.92971" lon="1.80433">
        <ele>200.2</ele>
        <time>2022-08-14T07:56:44Z</time>
      </trkpt>
      <trkpt lat="43.92971" lon="1.80431">
        <ele>200.2</ele>
        <time>2022-08-14T07:56:45Z</time>
      </trkpt>
      <trkpt lat="43.92971" lon="1.8043">
        <ele>200.2</ele>
        <time>2022-08-14T07:56:46Z</time>
      </trkpt>
      <trkpt lat="43.92972" lon="1.80429">
        <ele>200.2</ele>
        <time>2022-08-14T07:56:47Z</time>
      </trkpt>
      <trkpt lat="43.92972" lon="1.80427">
        <ele>200.4</ele>
        <time>2022-08-14T07:56:48Z</time>
      </trkpt>
      <trkpt lat="43.92972" lon="1.80427">
        <ele>200.6</ele>
        <time>2022-08-14T07:56:49Z</time>
      </trkpt>
      <trkpt lat="43.92972" lon="1.80427">
        <ele>201</ele>
        <time>2022-08-14T07:57:28Z</time>
      </trkpt>
      <trkpt lat="43.92976" lon="1.80423">
        <ele>201</ele>
        <time>2022-08-14T07:57:31Z</time>
      </trkpt>
      <trkpt lat="43.92978" lon="1.80421">
        <ele>200.8</ele>
        <time>2022-08-14T07:57:32Z</time>
      </trkpt>
      <trkpt lat="43.92979" lon="1.80419">
        <ele>200.8</ele>
        <time>2022-08-14T07:57:33Z</time>
      </trkpt>
      <trkpt lat="43.9298" lon="1.80418">
        <ele>200.8</ele>
        <time>2022-08-14T07:57:34Z</time>
      </trkpt>
      <trkpt lat="43.92989" lon="1.80406">
        <ele>201</ele>
        <time>2022-08-14T07:57:39Z</time>
      </trkpt>
      <trkpt lat="43.92995" lon="1.80398">
        <ele>201</ele>
        <time>2022-08-14T07:57:42Z</time>
      </trkpt>
      <trkpt lat="43.92996" lon="1.80396">
        <ele>201.2</ele>
        <time>2022-08-14T07:57:43Z</time>
      </trkpt>
      <trkpt lat="43.93001" lon="1.80389">
        <ele>201.2</ele>
        <time>2022-08-14T07:57:46Z</time>
      </trkpt>
      <trkpt lat="43.93002" lon="1.80388">
        <ele>201.2</ele>
        <time>2022-08-14T07:57:47Z</time>
      </trkpt>
      <trkpt lat="43.93004" lon="1.80385">
        <ele>201.2</ele>
        <time>2022-08-14T07:57:48Z</time>
      </trkpt>
      <trkpt lat="43.93006" lon="1.80382">
        <ele>201.2</ele>
        <time>2022-08-14T07:57:49Z</time>
      </trkpt>
      <trkpt lat="43.93013" lon="1.80373">
        <ele>201.4</ele>
        <time>2022-08-14T07:57:52Z</time>
      </trkpt>
      <trkpt lat="43.93015" lon="1.80371">
        <ele>201.4</ele>
        <time>2022-08-14T07:57:53Z</time>
      </trkpt>
      <trkpt lat="43.93018" lon="1.80361">
        <ele>201.8</ele>
        <time>2022-08-14T07:57:57Z</time>
      </trkpt>
      <trkpt lat="43.9302" lon="1.8036">
        <ele>201.8</ele>
        <time>2022-08-14T07:57:58Z</time>
      </trkpt>
      <trkpt lat="43.9302" lon="1.80358">
        <ele>202</ele>
        <time>2022-08-14T07:57:59Z</time>
      </trkpt>
      <trkpt lat="43.93022" lon="1.80356">
        <ele>202.2</ele>
        <time>2022-08-14T07:58:00Z</time>
      </trkpt>
      <trkpt lat="43.93023" lon="1.80354">
        <ele>202.2</ele>
        <time>2022-08-14T07:58:01Z</time>
      </trkpt>
      <trkpt lat="43.93025" lon="1.80352">
        <ele>202.6</ele>
        <time>2022-08-14T07:58:02Z</time>
      </trkpt>
      <trkpt lat="43.93026" lon="1.8035">
        <ele>202.8</ele>
        <time>2022-08-14T07:58:03Z</time>
      </trkpt>
      <trkpt lat="43.93029" lon="1.80346">
        <ele>203.2</ele>
        <time>2022-08-14T07:58:05Z</time>
      </trkpt>
      <trkpt lat="43.93031" lon="1.80344">
        <ele>203.2</ele>
        <time>2022-08-14T07:58:06Z</time>
      </trkpt>
      <trkpt lat="43.93034" lon="1.80339">
        <ele>203.6</ele>
        <time>2022-08-14T07:58:08Z</time>
      </trkpt>
      <trkpt lat="43.93036" lon="1.80337">
        <ele>204</ele>
        <time>2022-08-14T07:58:09Z</time>
      </trkpt>
      <trkpt lat="43.93037" lon="1.80335">
        <ele>204</ele>
        <time>2022-08-14T07:58:10Z</time>
      </trkpt>
      <trkpt lat="43.93038" lon="1.80333">
        <ele>204.2</ele>
        <time>2022-08-14T07:58:11Z</time>
      </trkpt>
      <trkpt lat="43.9304" lon="1.8033">
        <ele>204.4</ele>
        <time>2022-08-14T07:58:12Z</time>
      </trkpt>
      <trkpt lat="43.93042" lon="1.80328">
        <ele>204.6</ele>
        <time>2022-08-14T07:58:13Z</time>
      </trkpt>
      <trkpt lat="43.93043" lon="1.80327">
        <ele>204.8</ele>
        <time>2022-08-14T07:58:14Z</time>
      </trkpt>
      <trkpt lat="43.93044" lon="1.80325">
        <ele>205</ele>
        <time>2022-08-14T07:58:15Z</time>
      </trkpt>
      <trkpt lat="43.93045" lon="1.80324">
        <ele>205.2</ele>
        <time>2022-08-14T07:58:16Z</time>
      </trkpt>
      <trkpt lat="43.93047" lon="1.80322">
        <ele>205.2</ele>
        <time>2022-08-14T07:58:17Z</time>
      </trkpt>
      <trkpt lat="43.93048" lon="1.8032">
        <ele>205.4</ele>
        <time>2022-08-14T07:58:18Z</time>
      </trkpt>
      <trkpt lat="43.93049" lon="1.80318">
        <ele>205.6</ele>
        <time>2022-08-14T07:58:19Z</time>
      </trkpt>
      <trkpt lat="43.93051" lon="1.80316">
        <ele>206</ele>
        <time>2022-08-14T07:58:20Z</time>
      </trkpt>
      <trkpt lat="43.93052" lon="1.80315">
        <ele>206</ele>
        <time>2022-08-14T07:58:21Z</time>
      </trkpt>
      <trkpt lat="43.93053" lon="1.80313">
        <ele>206.2</ele>
        <time>2022-08-14T07:58:22Z</time>
      </trkpt>
      <trkpt lat="43.93054" lon="1.80312">
        <ele>206.4</ele>
        <time>2022-08-14T07:58:23Z</time>
      </trkpt>
      <trkpt lat="43.93056" lon="1.8031">
        <ele>206.6</ele>
        <time>2022-08-14T07:58:24Z</time>
      </trkpt>
      <trkpt lat="43.93058" lon="1.80308">
        <ele>206.8</ele>
        <time>2022-08-14T07:58:25Z</time>
      </trkpt>
      <trkpt lat="43.93059" lon="1.80306">
        <ele>207</ele>
        <time>2022-08-14T07:58:26Z</time>
      </trkpt>
      <trkpt lat="43.9306" lon="1.80305">
        <ele>207.2</ele>
        <time>2022-08-14T07:58:27Z</time>
      </trkpt>
      <trkpt lat="43.93062" lon="1.80302">
        <ele>207.2</ele>
        <time>2022-08-14T07:58:28Z</time>
      </trkpt>
      <trkpt lat="43.93063" lon="1.803">
        <ele>207.4</ele>
        <time>2022-08-14T07:58:29Z</time>
      </trkpt>
      <trkpt lat="43.93064" lon="1.80297">
        <ele>207.6</ele>
        <time>2022-08-14T07:58:30Z</time>
      </trkpt>
      <trkpt lat="43.93066" lon="1.80295">
        <ele>207.8</ele>
        <time>2022-08-14T07:58:31Z</time>
      </trkpt>
      <trkpt lat="43.93067" lon="1.80293">
        <ele>208.2</ele>
        <time>2022-08-14T07:58:32Z</time>
      </trkpt>
      <trkpt lat="43.93068" lon="1.80292">
        <ele>208.2</ele>
        <time>2022-08-14T07:58:33Z</time>
      </trkpt>
      <trkpt lat="43.9307" lon="1.8029">
        <ele>208.4</ele>
        <time>2022-08-14T07:58:34Z</time>
      </trkpt>
      <trkpt lat="43.93071" lon="1.80288">
        <ele>208.4</ele>
        <time>2022-08-14T07:58:35Z</time>
      </trkpt>
      <trkpt lat="43.93072" lon="1.80287">
        <ele>208.6</ele>
        <time>2022-08-14T07:58:36Z</time>
      </trkpt>
      <trkpt lat="43.93073" lon="1.80285">
        <ele>208.8</ele>
        <time>2022-08-14T07:58:37Z</time>
      </trkpt>
      <trkpt lat="43.93074" lon="1.80283">
        <ele>209.2</ele>
        <time>2022-08-14T07:58:38Z</time>
      </trkpt>
      <trkpt lat="43.93075" lon="1.80281">
        <ele>209.6</ele>
        <time>2022-08-14T07:58:39Z</time>
      </trkpt>
      <trkpt lat="43.93075" lon="1.80279">
        <ele>209.6</ele>
        <time>2022-08-14T07:58:40Z</time>
      </trkpt>
      <trkpt lat="43.93074" lon="1.80277">
        <ele>209.8</ele>
        <time>2022-08-14T07:58:41Z</time>
      </trkpt>
      <trkpt lat="43.93074" lon="1.80275">
        <ele>209.8</ele>
        <time>2022-08-14T07:58:42Z</time>
      </trkpt>
      <trkpt lat="43.93072" lon="1.80273">
        <ele>209.8</ele>
        <time>2022-08-14T07:58:43Z</time>
      </trkpt>
      <trkpt lat="43.93071" lon="1.8027">
        <ele>210</ele>
        <time>2022-08-14T07:58:44Z</time>
      </trkpt>
      <trkpt lat="43.93069" lon="1.80268">
        <ele>210</ele>
        <time>2022-08-14T07:58:45Z</time>
      </trkpt>
      <trkpt lat="43.93067" lon="1.80266">
        <ele>210</ele>
        <time>2022-08-14T07:58:46Z</time>
      </trkpt>
      <trkpt lat="43.93067" lon="1.80263">
        <ele>210</ele>
        <time>2022-08-14T07:58:47Z</time>
      </trkpt>
      <trkpt lat="43.93066" lon="1.80261">
        <ele>210.2</ele>
        <time>2022-08-14T07:58:48Z</time>
      </trkpt>
      <trkpt lat="43.93065" lon="1.80259">
        <ele>210.2</ele>
        <time>2022-08-14T07:58:49Z</time>
      </trkpt>
      <trkpt lat="43.93065" lon="1.80258">
        <ele>210.2</ele>
        <time>2022-08-14T07:58:50Z</time>
      </trkpt>
      <trkpt lat="43.93064" lon="1.80257">
        <ele>210.2</ele>
        <time>2022-08-14T07:58:51Z</time>
      </trkpt>
      <trkpt lat="43.93062" lon="1.80257">
        <ele>210.2</ele>
        <time>2022-08-14T07:58:52Z</time>
      </trkpt>
      <trkpt lat="43.93061" lon="1.80258">
        <ele>210.2</ele>
        <time>2022-08-14T07:58:53Z</time>
      </trkpt>
      <trkpt lat="43.93061" lon="1.80259">
        <ele>210.2</ele>
        <time>2022-08-14T07:58:54Z</time>
      </trkpt>
      <trkpt lat="43.93062" lon="1.8026">
        <ele>210.2</ele>
        <time>2022-08-14T07:58:55Z</time>
      </trkpt>
      <trkpt lat="43.93063" lon="1.80261">
        <ele>210.2</ele>
        <time>2022-08-14T07:58:56Z</time>
      </trkpt>
      <trkpt lat="43.93063" lon="1.80261">
        <ele>210.2</ele>
        <time>2022-08-14T07:58:57Z</time>
      </trkpt>
      <trkpt lat="43.93064" lon="1.8026">
        <ele>210.2</ele>
        <time>2022-08-14T07:59:00Z</time>
      </trkpt>
      <trkpt lat="43.93064" lon="1.80259">
        <ele>210.2</ele>
        <time>2022-08-14T07:59:01Z</time>
      </trkpt>
      <trkpt lat="43.93061" lon="1.80254">
        <ele>210.2</ele>
        <time>2022-08-14T07:59:26Z</time>
      </trkpt>
      <trkpt lat="43.9306" lon="1.80251">
        <ele>210.2</ele>
        <time>2022-08-14T07:59:28Z</time>
      </trkpt>
      <trkpt lat="43.93058" lon="1.8025">
        <ele>210.4</ele>
        <time>2022-08-14T07:59:29Z</time>
      </trkpt>
      <trkpt lat="43.93058" lon="1.8025">
        <ele>210.4</ele>
        <time>2022-08-14T07:59:30Z</time>
      </trkpt>
      <trkpt lat="43.93057" lon="1.80251">
        <ele>210.4</ele>
        <time>2022-08-14T07:59:31Z</time>
      </trkpt>
      <trkpt lat="43.93059" lon="1.80253">
        <ele>210.4</ele>
        <time>2022-08-14T07:59:33Z</time>
      </trkpt>
      <trkpt lat="43.93059" lon="1.80254">
        <ele>210.4</ele>
        <time>2022-08-14T07:59:34Z</time>
      </trkpt>
      <trkpt lat="43.9306" lon="1.80255">
        <ele>211.2</ele>
        <time>2022-08-14T08:00:10Z</time>
      </trkpt>
      <trkpt lat="43.93061" lon="1.80256">
        <ele>211.2</ele>
        <time>2022-08-14T08:00:11Z</time>
      </trkpt>
      <trkpt lat="43.93061" lon="1.80257">
        <ele>211.2</ele>
        <time>2022-08-14T08:00:12Z</time>
      </trkpt>
      <trkpt lat="43.93062" lon="1.80258">
        <ele>211.2</ele>
        <time>2022-08-14T08:00:13Z</time>
      </trkpt>
      <trkpt lat="43.93064" lon="1.80259">
        <ele>211.2</ele>
        <time>2022-08-14T08:00:14Z</time>
      </trkpt>
      <trkpt lat="43.93065" lon="1.8026">
        <ele>211.2</ele>
        <time>2022-08-14T08:00:15Z</time>
      </trkpt>
      <trkpt lat="43.93067" lon="1.80259">
        <ele>211.2</ele>
        <time>2022-08-14T08:00:16Z</time>
      </trkpt>
      <trkpt lat="43.93068" lon="1.80258">
        <ele>211.2</ele>
        <time>2022-08-14T08:00:17Z</time>
      </trkpt>
      <trkpt lat="43.93069" lon="1.80257">
        <ele>211.2</ele>
        <time>2022-08-14T08:00:18Z</time>
      </trkpt>
      <trkpt lat="43.93069" lon="1.80257">
        <ele>211.2</ele>
        <time>2022-08-14T08:00:19Z</time>
      </trkpt>
      <trkpt lat="43.9307" lon="1.80256">
        <ele>211.2</ele>
        <time>2022-08-14T08:00:20Z</time>
      </trkpt>
      <trkpt lat="43.9307" lon="1.80255">
        <ele>211.2</ele>
        <time>2022-08-14T08:00:21Z</time>
      </trkpt>
      <trkpt lat="43.93071" lon="1.80254">
        <ele>211.2</ele>
        <time>2022-08-14T08:00:22Z</time>
      </trkpt>
      <trkpt lat="43.93071" lon="1.80253">
        <ele>211.4</ele>
        <time>2022-08-14T08:00:23Z</time>
      </trkpt>
      <trkpt lat="43.93074" lon="1.80249">
        <ele>211.6</ele>
        <time>2022-08-14T08:00:27Z</time>
      </trkpt>
      <trkpt lat="43.93074" lon="1.80249">
        <ele>211.8</ele>
        <time>2022-08-14T08:00:28Z</time>
      </trkpt>
      <trkpt lat="43.93075" lon="1.80249">
        <ele>211.8</ele>
        <time>2022-08-14T08:00:29Z</time>
      </trkpt>
      <trkpt lat="43.93075" lon="1.80248">
        <ele>211.8</ele>
        <time>2022-08-14T08:00:30Z</time>
      </trkpt>
      <trkpt lat="43.93076" lon="1.80248">
        <ele>212</ele>
        <time>2022-08-14T08:00:31Z</time>
      </trkpt>
      <trkpt lat="43.93076" lon="1.80248">
        <ele>212</ele>
        <time>2022-08-14T08:00:32Z</time>
      </trkpt>
      <trkpt lat="43.93077" lon="1.80248">
        <ele>212.2</ele>
        <time>2022-08-14T08:00:33Z</time>
      </trkpt>
      <trkpt lat="43.93078" lon="1.80247">
        <ele>212.4</ele>
        <time>2022-08-14T08:00:35Z</time>
      </trkpt>
      <trkpt lat="43.93079" lon="1.80247">
        <ele>212.4</ele>
        <time>2022-08-14T08:00:36Z</time>
      </trkpt>
      <trkpt lat="43.93079" lon="1.80247">
        <ele>212.6</ele>
        <time>2022-08-14T08:00:37Z</time>
      </trkpt>
      <trkpt lat="43.9308" lon="1.80247">
        <ele>212.8</ele>
        <time>2022-08-14T08:00:38Z</time>
      </trkpt>
      <trkpt lat="43.93081" lon="1.80247">
        <ele>212.8</ele>
        <time>2022-08-14T08:00:39Z</time>
      </trkpt>
      <trkpt lat="43.93082" lon="1.80247">
        <ele>213</ele>
        <time>2022-08-14T08:00:40Z</time>
      </trkpt>
      <trkpt lat="43.93084" lon="1.80245">
        <ele>213</ele>
        <time>2022-08-14T08:00:41Z</time>
      </trkpt>
      <trkpt lat="43.93085" lon="1.80244">
        <ele>213.2</ele>
        <time>2022-08-14T08:00:43Z</time>
      </trkpt>
      <trkpt lat="43.93086" lon="1.80243">
        <ele>213.4</ele>
        <time>2022-08-14T08:00:44Z</time>
      </trkpt>
      <trkpt lat="43.93087" lon="1.80242">
        <ele>213.6</ele>
        <time>2022-08-14T08:00:45Z</time>
      </trkpt>
      <trkpt lat="43.93088" lon="1.80241">
        <ele>213.8</ele>
        <time>2022-08-14T08:00:46Z</time>
      </trkpt>
      <trkpt lat="43.93089" lon="1.80239">
        <ele>214.2</ele>
        <time>2022-08-14T08:00:48Z</time>
      </trkpt>
      <trkpt lat="43.9309" lon="1.80239">
        <ele>214.4</ele>
        <time>2022-08-14T08:00:49Z</time>
      </trkpt>
      <trkpt lat="43.9309" lon="1.80239">
        <ele>214.6</ele>
        <time>2022-08-14T08:00:50Z</time>
      </trkpt>
      <trkpt lat="43.9309" lon="1.80238">
        <ele>214.8</ele>
        <time>2022-08-14T08:00:51Z</time>
      </trkpt>
      <trkpt lat="43.93091" lon="1.80236">
        <ele>215</ele>
        <time>2022-08-14T08:00:52Z</time>
      </trkpt>
      <trkpt lat="43.93092" lon="1.80235">
        <ele>215.2</ele>
        <time>2022-08-14T08:00:53Z</time>
      </trkpt>
      <trkpt lat="43.93093" lon="1.80233">
        <ele>215.4</ele>
        <time>2022-08-14T08:00:54Z</time>
      </trkpt>
      <trkpt lat="43.93093" lon="1.80233">
        <ele>215.6</ele>
        <time>2022-08-14T08:00:55Z</time>
      </trkpt>
      <trkpt lat="43.93094" lon="1.80232">
        <ele>215.8</ele>
        <time>2022-08-14T08:00:56Z</time>
      </trkpt>
      <trkpt lat="43.93095" lon="1.8023">
        <ele>215.8</ele>
        <time>2022-08-14T08:00:57Z</time>
      </trkpt>
      <trkpt lat="43.93096" lon="1.80228">
        <ele>216.2</ele>
        <time>2022-08-14T08:00:58Z</time>
      </trkpt>
      <trkpt lat="43.93096" lon="1.80227">
        <ele>216.4</ele>
        <time>2022-08-14T08:00:59Z</time>
      </trkpt>
      <trkpt lat="43.93097" lon="1.80226">
        <ele>216.6</ele>
        <time>2022-08-14T08:01:00Z</time>
      </trkpt>
      <trkpt lat="43.93098" lon="1.80225">
        <ele>216.8</ele>
        <time>2022-08-14T08:01:01Z</time>
      </trkpt>
      <trkpt lat="43.93098" lon="1.80224">
        <ele>217</ele>
        <time>2022-08-14T08:01:02Z</time>
      </trkpt>
      <trkpt lat="43.93098" lon="1.80224">
        <ele>217.4</ele>
        <time>2022-08-14T08:01:03Z</time>
      </trkpt>
      <trkpt lat="43.93099" lon="1.80222">
        <ele>217.6</ele>
        <time>2022-08-14T08:01:04Z</time>
      </trkpt>
      <trkpt lat="43.931" lon="1.8022">
        <ele>217.8</ele>
        <time>2022-08-14T08:01:05Z</time>
      </trkpt>
      <trkpt lat="43.93101" lon="1.80219">
        <ele>218</ele>
        <time>2022-08-14T08:01:06Z</time>
      </trkpt>
      <trkpt lat="43.93102" lon="1.80216">
        <ele>218</ele>
        <time>2022-08-14T08:01:07Z</time>
      </trkpt>
      <trkpt lat="43.93103" lon="1.80215">
        <ele>218.2</ele>
        <time>2022-08-14T08:01:08Z</time>
      </trkpt>
      <trkpt lat="43.93103" lon="1.80213">
        <ele>218.4</ele>
        <time>2022-08-14T08:01:09Z</time>
      </trkpt>
      <trkpt lat="43.93105" lon="1.8021">
        <ele>218.8</ele>
        <time>2022-08-14T08:01:10Z</time>
      </trkpt>
      <trkpt lat="43.93106" lon="1.80206">
        <ele>218.8</ele>
        <time>2022-08-14T08:01:11Z</time>
      </trkpt>
      <trkpt lat="43.93106" lon="1.80204">
        <ele>219.2</ele>
        <time>2022-08-14T08:01:12Z</time>
      </trkpt>
      <trkpt lat="43.93107" lon="1.80202">
        <ele>219.2</ele>
        <time>2022-08-14T08:01:13Z</time>
      </trkpt>
      <trkpt lat="43.93107" lon="1.80202">
        <ele>219.4</ele>
        <time>2022-08-14T08:01:14Z</time>
      </trkpt>
      <trkpt lat="43.93107" lon="1.80201">
        <ele>219.4</ele>
        <time>2022-08-14T08:01:15Z</time>
      </trkpt>
      <trkpt lat="43.93108" lon="1.80199">
        <ele>219.8</ele>
        <time>2022-08-14T08:01:16Z</time>
      </trkpt>
      <trkpt lat="43.93109" lon="1.80198">
        <ele>219.8</ele>
        <time>2022-08-14T08:01:17Z</time>
      </trkpt>
      <trkpt lat="43.9311" lon="1.80196">
        <ele>220</ele>
        <time>2022-08-14T08:01:18Z</time>
      </trkpt>
      <trkpt lat="43.93111" lon="1.80195">
        <ele>220.2</ele>
        <time>2022-08-14T08:01:19Z</time>
      </trkpt>
      <trkpt lat="43.93112" lon="1.80194">
        <ele>220.2</ele>
        <time>2022-08-14T08:01:20Z</time>
      </trkpt>
      <trkpt lat="43.93113" lon="1.80191">
        <ele>220.6</ele>
        <time>2022-08-14T08:01:21Z</time>
      </trkpt>
      <trkpt lat="43.93114" lon="1.80189">
        <ele>220.6</ele>
        <time>2022-08-14T08:01:22Z</time>
      </trkpt>
      <trkpt lat="43.93115" lon="1.80187">
        <ele>221</ele>
        <time>2022-08-14T08:01:23Z</time>
      </trkpt>
      <trkpt lat="43.93115" lon="1.80186">
        <ele>221.2</ele>
        <time>2022-08-14T08:01:24Z</time>
      </trkpt>
      <trkpt lat="43.93114" lon="1.80186">
        <ele>221.6</ele>
        <time>2022-08-14T08:01:25Z</time>
      </trkpt>
      <trkpt lat="43.93114" lon="1.80185">
        <ele>221.4</ele>
        <time>2022-08-14T08:01:26Z</time>
      </trkpt>
      <trkpt lat="43.93114" lon="1.80182">
        <ele>221.6</ele>
        <time>2022-08-14T08:01:27Z</time>
      </trkpt>
      <trkpt lat="43.93114" lon="1.80181">
        <ele>221.8</ele>
        <time>2022-08-14T08:01:28Z</time>
      </trkpt>
      <trkpt lat="43.93114" lon="1.80181">
        <ele>223.4</ele>
        <time>2022-08-14T08:02:14Z</time>
      </trkpt>
      <trkpt lat="43.93119" lon="1.80176">
        <ele>223.4</ele>
        <time>2022-08-14T08:02:19Z</time>
      </trkpt>
      <trkpt lat="43.93119" lon="1.80176">
        <ele>223.4</ele>
        <time>2022-08-14T08:02:21Z</time>
      </trkpt>
      <trkpt lat="43.93119" lon="1.80176">
        <ele>223.4</ele>
        <time>2022-08-14T08:02:22Z</time>
      </trkpt>
      <trkpt lat="43.9312" lon="1.80175">
        <ele>223.6</ele>
        <time>2022-08-14T08:02:23Z</time>
      </trkpt>
      <trkpt lat="43.93121" lon="1.80174">
        <ele>223.6</ele>
        <time>2022-08-14T08:02:24Z</time>
      </trkpt>
      <trkpt lat="43.93122" lon="1.80171">
        <ele>223.6</ele>
        <time>2022-08-14T08:02:25Z</time>
      </trkpt>
      <trkpt lat="43.93125" lon="1.80163">
        <ele>224.4</ele>
        <time>2022-08-14T08:02:30Z</time>
      </trkpt>
      <trkpt lat="43.93126" lon="1.80162">
        <ele>224.4</ele>
        <time>2022-08-14T08:02:31Z</time>
      </trkpt>
      <trkpt lat="43.93126" lon="1.80161">
        <ele>224.6</ele>
        <time>2022-08-14T08:02:32Z</time>
      </trkpt>
      <trkpt lat="43.93127" lon="1.8016">
        <ele>224.6</ele>
        <time>2022-08-14T08:02:33Z</time>
      </trkpt>
      <trkpt lat="43.93128" lon="1.80158">
        <ele>225</ele>
        <time>2022-08-14T08:02:35Z</time>
      </trkpt>
      <trkpt lat="43.93129" lon="1.80157">
        <ele>225</ele>
        <time>2022-08-14T08:02:36Z</time>
      </trkpt>
      <trkpt lat="43.93129" lon="1.80155">
        <ele>225.2</ele>
        <time>2022-08-14T08:02:37Z</time>
      </trkpt>
      <trkpt lat="43.93129" lon="1.80154">
        <ele>225.2</ele>
        <time>2022-08-14T08:02:38Z</time>
      </trkpt>
      <trkpt lat="43.9313" lon="1.80152">
        <ele>225.6</ele>
        <time>2022-08-14T08:02:39Z</time>
      </trkpt>
      <trkpt lat="43.9313" lon="1.80149">
        <ele>225.8</ele>
        <time>2022-08-14T08:02:40Z</time>
      </trkpt>
      <trkpt lat="43.93131" lon="1.80145">
        <ele>226</ele>
        <time>2022-08-14T08:02:42Z</time>
      </trkpt>
      <trkpt lat="43.93132" lon="1.80143">
        <ele>226.2</ele>
        <time>2022-08-14T08:02:43Z</time>
      </trkpt>
      <trkpt lat="43.93133" lon="1.80139">
        <ele>226.6</ele>
        <time>2022-08-14T08:02:47Z</time>
      </trkpt>
      <trkpt lat="43.93134" lon="1.80137">
        <ele>227</ele>
        <time>2022-08-14T08:02:48Z</time>
      </trkpt>
      <trkpt lat="43.93135" lon="1.80135">
        <ele>227.2</ele>
        <time>2022-08-14T08:02:49Z</time>
      </trkpt>
      <trkpt lat="43.93135" lon="1.80134">
        <ele>227.2</ele>
        <time>2022-08-14T08:02:50Z</time>
      </trkpt>
      <trkpt lat="43.93136" lon="1.80132">
        <ele>227.6</ele>
        <time>2022-08-14T08:02:51Z</time>
      </trkpt>
      <trkpt lat="43.93136" lon="1.80132">
        <ele>227.8</ele>
        <time>2022-08-14T08:02:52Z</time>
      </trkpt>
      <trkpt lat="43.93138" lon="1.80129">
        <ele>227.8</ele>
        <time>2022-08-14T08:02:53Z</time>
      </trkpt>
      <trkpt lat="43.93138" lon="1.80126">
        <ele>227.8</ele>
        <time>2022-08-14T08:02:54Z</time>
      </trkpt>
      <trkpt lat="43.93139" lon="1.80122">
        <ele>228.2</ele>
        <time>2022-08-14T08:02:55Z</time>
      </trkpt>
      <trkpt lat="43.9314" lon="1.8012">
        <ele>228.2</ele>
        <time>2022-08-14T08:02:56Z</time>
      </trkpt>
      <trkpt lat="43.9314" lon="1.80118">
        <ele>228.4</ele>
        <time>2022-08-14T08:02:57Z</time>
      </trkpt>
      <trkpt lat="43.93141" lon="1.80117">
        <ele>228.4</ele>
        <time>2022-08-14T08:02:58Z</time>
      </trkpt>
      <trkpt lat="43.93142" lon="1.80117">
        <ele>228.6</ele>
        <time>2022-08-14T08:02:59Z</time>
      </trkpt>
      <trkpt lat="43.93143" lon="1.80115">
        <ele>228.6</ele>
        <time>2022-08-14T08:03:00Z</time>
      </trkpt>
      <trkpt lat="43.93144" lon="1.80113">
        <ele>228.8</ele>
        <time>2022-08-14T08:03:01Z</time>
      </trkpt>
      <trkpt lat="43.93146" lon="1.8011">
        <ele>229.2</ele>
        <time>2022-08-14T08:03:02Z</time>
      </trkpt>
      <trkpt lat="43.93147" lon="1.80106">
        <ele>229.2</ele>
        <time>2022-08-14T08:03:03Z</time>
      </trkpt>
      <trkpt lat="43.93148" lon="1.80103">
        <ele>229.4</ele>
        <time>2022-08-14T08:03:04Z</time>
      </trkpt>
      <trkpt lat="43.93148" lon="1.80101">
        <ele>229.6</ele>
        <time>2022-08-14T08:03:05Z</time>
      </trkpt>
      <trkpt lat="43.93149" lon="1.80101">
        <ele>229.6</ele>
        <time>2022-08-14T08:03:06Z</time>
      </trkpt>
      <trkpt lat="43.93149" lon="1.80101">
        <ele>229.8</ele>
        <time>2022-08-14T08:03:07Z</time>
      </trkpt>
      <trkpt lat="43.9315" lon="1.80099">
        <ele>229.8</ele>
        <time>2022-08-14T08:03:08Z</time>
      </trkpt>
      <trkpt lat="43.93151" lon="1.80099">
        <ele>230.4</ele>
        <time>2022-08-14T08:03:09Z</time>
      </trkpt>
      <trkpt lat="43.93152" lon="1.80097">
        <ele>230.4</ele>
        <time>2022-08-14T08:03:10Z</time>
      </trkpt>
      <trkpt lat="43.93153" lon="1.80095">
        <ele>230.4</ele>
        <time>2022-08-14T08:03:11Z</time>
      </trkpt>
      <trkpt lat="43.93154" lon="1.80094">
        <ele>230.4</ele>
        <time>2022-08-14T08:03:12Z</time>
      </trkpt>
      <trkpt lat="43.93154" lon="1.80093">
        <ele>230.8</ele>
        <time>2022-08-14T08:03:13Z</time>
      </trkpt>
      <trkpt lat="43.93155" lon="1.80092">
        <ele>230.8</ele>
        <time>2022-08-14T08:03:14Z</time>
      </trkpt>
      <trkpt lat="43.93156" lon="1.80092">
        <ele>231</ele>
        <time>2022-08-14T08:03:15Z</time>
      </trkpt>
      <trkpt lat="43.93156" lon="1.8009">
        <ele>231</ele>
        <time>2022-08-14T08:03:16Z</time>
      </trkpt>
      <trkpt lat="43.93157" lon="1.80089">
        <ele>231.2</ele>
        <time>2022-08-14T08:03:17Z</time>
      </trkpt>
      <trkpt lat="43.93158" lon="1.80088">
        <ele>231.4</ele>
        <time>2022-08-14T08:03:18Z</time>
      </trkpt>
      <trkpt lat="43.93159" lon="1.80087">
        <ele>231.4</ele>
        <time>2022-08-14T08:03:19Z</time>
      </trkpt>
      <trkpt lat="43.9316" lon="1.80086">
        <ele>231.6</ele>
        <time>2022-08-14T08:03:20Z</time>
      </trkpt>
      <trkpt lat="43.93161" lon="1.80085">
        <ele>231.6</ele>
        <time>2022-08-14T08:03:21Z</time>
      </trkpt>
      <trkpt lat="43.93161" lon="1.80084">
        <ele>231.8</ele>
        <time>2022-08-14T08:03:22Z</time>
      </trkpt>
      <trkpt lat="43.93161" lon="1.80083">
        <ele>231.8</ele>
        <time>2022-08-14T08:03:23Z</time>
      </trkpt>
      <trkpt lat="43.93162" lon="1.80082">
        <ele>232</ele>
        <time>2022-08-14T08:03:24Z</time>
      </trkpt>
      <trkpt lat="43.93164" lon="1.80081">
        <ele>232.2</ele>
        <time>2022-08-14T08:03:25Z</time>
      </trkpt>
      <trkpt lat="43.93165" lon="1.80081">
        <ele>232.4</ele>
        <time>2022-08-14T08:03:26Z</time>
      </trkpt>
      <trkpt lat="43.93165" lon="1.80081">
        <ele>232.4</ele>
        <time>2022-08-14T08:03:27Z</time>
      </trkpt>
      <trkpt lat="43.93165" lon="1.8008">
        <ele>232.6</ele>
        <time>2022-08-14T08:03:28Z</time>
      </trkpt>
      <trkpt lat="43.93166" lon="1.80079">
        <ele>232.8</ele>
        <time>2022-08-14T08:03:29Z</time>
      </trkpt>
      <trkpt lat="43.93168" lon="1.80078">
        <ele>232.8</ele>
        <time>2022-08-14T08:03:30Z</time>
      </trkpt>
      <trkpt lat="43.93168" lon="1.80078">
        <ele>233</ele>
        <time>2022-08-14T08:03:31Z</time>
      </trkpt>
      <trkpt lat="43.93169" lon="1.80077">
        <ele>233</ele>
        <time>2022-08-14T08:03:32Z</time>
      </trkpt>
      <trkpt lat="43.9317" lon="1.80076">
        <ele>233</ele>
        <time>2022-08-14T08:03:33Z</time>
      </trkpt>
      <trkpt lat="43.93172" lon="1.80074">
        <ele>233.4</ele>
        <time>2022-08-14T08:03:34Z</time>
      </trkpt>
      <trkpt lat="43.93174" lon="1.80072">
        <ele>233.4</ele>
        <time>2022-08-14T08:03:35Z</time>
      </trkpt>
      <trkpt lat="43.93176" lon="1.8007">
        <ele>233.4</ele>
        <time>2022-08-14T08:03:36Z</time>
      </trkpt>
      <trkpt lat="43.93177" lon="1.80069">
        <ele>233.6</ele>
        <time>2022-08-14T08:03:37Z</time>
      </trkpt>
      <trkpt lat="43.93178" lon="1.80068">
        <ele>234</ele>
        <time>2022-08-14T08:03:38Z</time>
      </trkpt>
      <trkpt lat="43.93182" lon="1.80067">
        <ele>233.8</ele>
        <time>2022-08-14T08:03:39Z</time>
      </trkpt>
      <trkpt lat="43.93184" lon="1.80066">
        <ele>234</ele>
        <time>2022-08-14T08:03:40Z</time>
      </trkpt>
      <trkpt lat="43.93188" lon="1.80066">
        <ele>234.2</ele>
        <time>2022-08-14T08:03:41Z</time>
      </trkpt>
      <trkpt lat="43.93191" lon="1.80065">
        <ele>234.4</ele>
        <time>2022-08-14T08:03:42Z</time>
      </trkpt>
      <trkpt lat="43.93191" lon="1.80065">
        <ele>234.6</ele>
        <time>2022-08-14T08:03:43Z</time>
      </trkpt>
      <trkpt lat="43.93195" lon="1.80064">
        <ele>234.6</ele>
        <time>2022-08-14T08:03:44Z</time>
      </trkpt>
      <trkpt lat="43.93198" lon="1.80064">
        <ele>234.8</ele>
        <time>2022-08-14T08:03:45Z</time>
      </trkpt>
      <trkpt lat="43.93202" lon="1.80064">
        <ele>234.8</ele>
        <time>2022-08-14T08:03:46Z</time>
      </trkpt>
      <trkpt lat="43.93204" lon="1.80062">
        <ele>235</ele>
        <time>2022-08-14T08:03:47Z</time>
      </trkpt>
      <trkpt lat="43.93206" lon="1.80061">
        <ele>235.2</ele>
        <time>2022-08-14T08:03:48Z</time>
      </trkpt>
      <trkpt lat="43.93207" lon="1.80062">
        <ele>235.4</ele>
        <time>2022-08-14T08:03:49Z</time>
      </trkpt>
      <trkpt lat="43.9321" lon="1.80063">
        <ele>235.6</ele>
        <time>2022-08-14T08:03:50Z</time>
      </trkpt>
      <trkpt lat="43.93212" lon="1.80063">
        <ele>235.8</ele>
        <time>2022-08-14T08:03:51Z</time>
      </trkpt>
      <trkpt lat="43.93214" lon="1.80062">
        <ele>235.8</ele>
        <time>2022-08-14T08:03:52Z</time>
      </trkpt>
      <trkpt lat="43.93215" lon="1.80063">
        <ele>236</ele>
        <time>2022-08-14T08:03:53Z</time>
      </trkpt>
      <trkpt lat="43.93216" lon="1.80066">
        <ele>236.2</ele>
        <time>2022-08-14T08:03:54Z</time>
      </trkpt>
      <trkpt lat="43.93218" lon="1.80069">
        <ele>236.2</ele>
        <time>2022-08-14T08:03:55Z</time>
      </trkpt>
      <trkpt lat="43.93219" lon="1.80071">
        <ele>236.8</ele>
        <time>2022-08-14T08:03:56Z</time>
      </trkpt>
      <trkpt lat="43.9322" lon="1.80072">
        <ele>237</ele>
        <time>2022-08-14T08:03:57Z</time>
      </trkpt>
      <trkpt lat="43.93222" lon="1.80075">
        <ele>237.2</ele>
        <time>2022-08-14T08:03:58Z</time>
      </trkpt>
      <trkpt lat="43.93224" lon="1.80076">
        <ele>237.6</ele>
        <time>2022-08-14T08:03:59Z</time>
      </trkpt>
      <trkpt lat="43.93225" lon="1.80077">
        <ele>237.8</ele>
        <time>2022-08-14T08:04:00Z</time>
      </trkpt>
      <trkpt lat="43.93227" lon="1.80078">
        <ele>237.8</ele>
        <time>2022-08-14T08:04:01Z</time>
      </trkpt>
      <trkpt lat="43.93229" lon="1.80078">
        <ele>238</ele>
        <time>2022-08-14T08:04:02Z</time>
      </trkpt>
      <trkpt lat="43.93231" lon="1.80079">
        <ele>238</ele>
        <time>2022-08-14T08:04:03Z</time>
      </trkpt>
      <trkpt lat="43.93234" lon="1.80079">
        <ele>238</ele>
        <time>2022-08-14T08:04:04Z</time>
      </trkpt>
      <trkpt lat="43.93236" lon="1.80079">
        <ele>238.2</ele>
        <time>2022-08-14T08:04:05Z</time>
      </trkpt>
      <trkpt lat="43.93238" lon="1.80078">
        <ele>238.4</ele>
        <time>2022-08-14T08:04:06Z</time>
      </trkpt>
      <trkpt lat="43.9324" lon="1.80077">
        <ele>238.4</ele>
        <time>2022-08-14T08:04:07Z</time>
      </trkpt>
      <trkpt lat="43.93242" lon="1.80075">
        <ele>238.6</ele>
        <time>2022-08-14T08:04:08Z</time>
      </trkpt>
      <trkpt lat="43.93244" lon="1.80071">
        <ele>238.6</ele>
        <time>2022-08-14T08:04:09Z</time>
      </trkpt>
      <trkpt lat="43.93246" lon="1.80069">
        <ele>238.8</ele>
        <time>2022-08-14T08:04:10Z</time>
      </trkpt>
      <trkpt lat="43.93249" lon="1.80068">
        <ele>239</ele>
        <time>2022-08-14T08:04:11Z</time>
      </trkpt>
      <trkpt lat="43.9325" lon="1.80066">
        <ele>239</ele>
        <time>2022-08-14T08:04:12Z</time>
      </trkpt>
      <trkpt lat="43.93252" lon="1.80064">
        <ele>239.2</ele>
        <time>2022-08-14T08:04:13Z</time>
      </trkpt>
      <trkpt lat="43.93254" lon="1.80062">
        <ele>239.2</ele>
        <time>2022-08-14T08:04:14Z</time>
      </trkpt>
      <trkpt lat="43.93257" lon="1.80062">
        <ele>239.6</ele>
        <time>2022-08-14T08:04:15Z</time>
      </trkpt>
      <trkpt lat="43.9326" lon="1.80061">
        <ele>239.8</ele>
        <time>2022-08-14T08:04:16Z</time>
      </trkpt>
      <trkpt lat="43.93261" lon="1.80061">
        <ele>240.2</ele>
        <time>2022-08-14T08:04:17Z</time>
      </trkpt>
      <trkpt lat="43.93263" lon="1.8006">
        <ele>240.2</ele>
        <time>2022-08-14T08:04:18Z</time>
      </trkpt>
      <trkpt lat="43.93263" lon="1.80056">
        <ele>240.4</ele>
        <time>2022-08-14T08:04:19Z</time>
      </trkpt>
      <trkpt lat="43.93265" lon="1.80054">
        <ele>240.6</ele>
        <time>2022-08-14T08:04:20Z</time>
      </trkpt>
      <trkpt lat="43.93266" lon="1.80053">
        <ele>240.8</ele>
        <time>2022-08-14T08:04:21Z</time>
      </trkpt>
      <trkpt lat="43.93267" lon="1.80052">
        <ele>241.4</ele>
        <time>2022-08-14T08:04:22Z</time>
      </trkpt>
      <trkpt lat="43.93269" lon="1.80051">
        <ele>241.4</ele>
        <time>2022-08-14T08:04:23Z</time>
      </trkpt>
      <trkpt lat="43.9327" lon="1.8005">
        <ele>241.8</ele>
        <time>2022-08-14T08:04:24Z</time>
      </trkpt>
      <trkpt lat="43.93271" lon="1.80049">
        <ele>241.8</ele>
        <time>2022-08-14T08:04:25Z</time>
      </trkpt>
      <trkpt lat="43.93272" lon="1.80048">
        <ele>242</ele>
        <time>2022-08-14T08:04:26Z</time>
      </trkpt>
      <trkpt lat="43.93273" lon="1.80047">
        <ele>242.2</ele>
        <time>2022-08-14T08:04:27Z</time>
      </trkpt>
      <trkpt lat="43.93274" lon="1.80045">
        <ele>242.6</ele>
        <time>2022-08-14T08:04:28Z</time>
      </trkpt>
      <trkpt lat="43.93276" lon="1.80044">
        <ele>242.8</ele>
        <time>2022-08-14T08:04:29Z</time>
      </trkpt>
      <trkpt lat="43.93277" lon="1.80043">
        <ele>243</ele>
        <time>2022-08-14T08:04:30Z</time>
      </trkpt>
      <trkpt lat="43.93278" lon="1.80041">
        <ele>243.2</ele>
        <time>2022-08-14T08:04:31Z</time>
      </trkpt>
      <trkpt lat="43.93279" lon="1.8004">
        <ele>243.4</ele>
        <time>2022-08-14T08:04:32Z</time>
      </trkpt>
      <trkpt lat="43.93281" lon="1.80038">
        <ele>243.8</ele>
        <time>2022-08-14T08:04:33Z</time>
      </trkpt>
      <trkpt lat="43.93282" lon="1.80037">
        <ele>243.8</ele>
        <time>2022-08-14T08:04:34Z</time>
      </trkpt>
      <trkpt lat="43.93284" lon="1.80035">
        <ele>244.2</ele>
        <time>2022-08-14T08:04:35Z</time>
      </trkpt>
      <trkpt lat="43.93285" lon="1.80034">
        <ele>244.4</ele>
        <time>2022-08-14T08:04:36Z</time>
      </trkpt>
      <trkpt lat="43.93286" lon="1.80033">
        <ele>244.6</ele>
        <time>2022-08-14T08:04:37Z</time>
      </trkpt>
      <trkpt lat="43.93287" lon="1.80032">
        <ele>244.8</ele>
        <time>2022-08-14T08:04:38Z</time>
      </trkpt>
      <trkpt lat="43.93288" lon="1.8003">
        <ele>244.8</ele>
        <time>2022-08-14T08:04:39Z</time>
      </trkpt>
      <trkpt lat="43.93289" lon="1.80028">
        <ele>245</ele>
        <time>2022-08-14T08:04:40Z</time>
      </trkpt>
      <trkpt lat="43.9329" lon="1.80027">
        <ele>245</ele>
        <time>2022-08-14T08:04:41Z</time>
      </trkpt>
      <trkpt lat="43.93291" lon="1.80025">
        <ele>245.2</ele>
        <time>2022-08-14T08:04:42Z</time>
      </trkpt>
      <trkpt lat="43.93293" lon="1.80024">
        <ele>245.4</ele>
        <time>2022-08-14T08:04:43Z</time>
      </trkpt>
      <trkpt lat="43.93294" lon="1.80022">
        <ele>245.4</ele>
        <time>2022-08-14T08:04:44Z</time>
      </trkpt>
      <trkpt lat="43.93296" lon="1.80021">
        <ele>245.6</ele>
        <time>2022-08-14T08:04:45Z</time>
      </trkpt>
      <trkpt lat="43.93297" lon="1.8002">
        <ele>245.6</ele>
        <time>2022-08-14T08:04:46Z</time>
      </trkpt>
      <trkpt lat="43.93299" lon="1.80018">
        <ele>245.8</ele>
        <time>2022-08-14T08:04:47Z</time>
      </trkpt>
      <trkpt lat="43.93301" lon="1.80016">
        <ele>245.8</ele>
        <time>2022-08-14T08:04:48Z</time>
      </trkpt>
      <trkpt lat="43.93303" lon="1.80014">
        <ele>245.8</ele>
        <time>2022-08-14T08:04:49Z</time>
      </trkpt>
      <trkpt lat="43.93303" lon="1.80012">
        <ele>245.8</ele>
        <time>2022-08-14T08:04:50Z</time>
      </trkpt>
      <trkpt lat="43.93304" lon="1.80012">
        <ele>245.8</ele>
        <time>2022-08-14T08:04:51Z</time>
      </trkpt>
      <trkpt lat="43.93305" lon="1.80012">
        <ele>245.8</ele>
        <time>2022-08-14T08:04:52Z</time>
      </trkpt>
      <trkpt lat="43.93306" lon="1.80009">
        <ele>245.8</ele>
        <time>2022-08-14T08:04:53Z</time>
      </trkpt>
      <trkpt lat="43.93308" lon="1.80006">
        <ele>246</ele>
        <time>2022-08-14T08:04:54Z</time>
      </trkpt>
      <trkpt lat="43.93309" lon="1.80004">
        <ele>246</ele>
        <time>2022-08-14T08:04:55Z</time>
      </trkpt>
      <trkpt lat="43.93311" lon="1.80002">
        <ele>246.2</ele>
        <time>2022-08-14T08:04:56Z</time>
      </trkpt>
      <trkpt lat="43.93311" lon="1.79999">
        <ele>246.2</ele>
        <time>2022-08-14T08:04:57Z</time>
      </trkpt>
      <trkpt lat="43.93312" lon="1.79998">
        <ele>246.2</ele>
        <time>2022-08-14T08:04:58Z</time>
      </trkpt>
      <trkpt lat="43.93314" lon="1.79995">
        <ele>246.2</ele>
        <time>2022-08-14T08:04:59Z</time>
      </trkpt>
      <trkpt lat="43.93315" lon="1.79992">
        <ele>246.2</ele>
        <time>2022-08-14T08:05:00Z</time>
      </trkpt>
      <trkpt lat="43.93316" lon="1.7999">
        <ele>246.2</ele>
        <time>2022-08-14T08:05:01Z</time>
      </trkpt>
      <trkpt lat="43.93318" lon="1.79988">
        <ele>246.2</ele>
        <time>2022-08-14T08:05:02Z</time>
      </trkpt>
      <trkpt lat="43.93321" lon="1.79982">
        <ele>246.2</ele>
        <time>2022-08-14T08:05:04Z</time>
      </trkpt>
      <trkpt lat="43.93322" lon="1.7998">
        <ele>246.2</ele>
        <time>2022-08-14T08:05:05Z</time>
      </trkpt>
      <trkpt lat="43.93323" lon="1.7998">
        <ele>246.2</ele>
        <time>2022-08-14T08:05:06Z</time>
      </trkpt>
      <trkpt lat="43.93325" lon="1.79981">
        <ele>246.2</ele>
        <time>2022-08-14T08:05:07Z</time>
      </trkpt>
      <trkpt lat="43.93328" lon="1.7998">
        <ele>246.2</ele>
        <time>2022-08-14T08:05:08Z</time>
      </trkpt>
      <trkpt lat="43.9333" lon="1.7998">
        <ele>246.2</ele>
        <time>2022-08-14T08:05:09Z</time>
      </trkpt>
      <trkpt lat="43.93332" lon="1.79981">
        <ele>246.2</ele>
        <time>2022-08-14T08:05:10Z</time>
      </trkpt>
      <trkpt lat="43.93333" lon="1.79981">
        <ele>246.2</ele>
        <time>2022-08-14T08:05:11Z</time>
      </trkpt>
      <trkpt lat="43.93333" lon="1.79981">
        <ele>246.4</ele>
        <time>2022-08-14T08:05:12Z</time>
      </trkpt>
      <trkpt lat="43.93337" lon="1.79979">
        <ele>246.6</ele>
        <time>2022-08-14T08:05:20Z</time>
      </trkpt>
      <trkpt lat="43.93339" lon="1.79976">
        <ele>246.6</ele>
        <time>2022-08-14T08:05:21Z</time>
      </trkpt>
      <trkpt lat="43.93341" lon="1.79974">
        <ele>246.4</ele>
        <time>2022-08-14T08:05:22Z</time>
      </trkpt>
      <trkpt lat="43.93353" lon="1.79955">
        <ele>246.2</ele>
        <time>2022-08-14T08:05:28Z</time>
      </trkpt>
      <trkpt lat="43.93357" lon="1.79951">
        <ele>246.2</ele>
        <time>2022-08-14T08:05:29Z</time>
      </trkpt>
      <trkpt lat="43.93359" lon="1.79948">
        <ele>246</ele>
        <time>2022-08-14T08:05:30Z</time>
      </trkpt>
      <trkpt lat="43.93361" lon="1.79946">
        <ele>246</ele>
        <time>2022-08-14T08:05:31Z</time>
      </trkpt>
      <trkpt lat="43.93361" lon="1.79946">
        <ele>246</ele>
        <time>2022-08-14T08:05:32Z</time>
      </trkpt>
      <trkpt lat="43.93364" lon="1.7994">
        <ele>246</ele>
        <time>2022-08-14T08:05:33Z</time>
      </trkpt>
      <trkpt lat="43.93366" lon="1.79936">
        <ele>246.2</ele>
        <time>2022-08-14T08:05:34Z</time>
      </trkpt>
      <trkpt lat="43.93368" lon="1.79934">
        <ele>246.2</ele>
        <time>2022-08-14T08:05:35Z</time>
      </trkpt>
      <trkpt lat="43.9337" lon="1.79931">
        <ele>246.4</ele>
        <time>2022-08-14T08:05:36Z</time>
      </trkpt>
      <trkpt lat="43.93372" lon="1.79929">
        <ele>246.6</ele>
        <time>2022-08-14T08:05:37Z</time>
      </trkpt>
      <trkpt lat="43.93373" lon="1.79927">
        <ele>246.6</ele>
        <time>2022-08-14T08:05:38Z</time>
      </trkpt>
      <trkpt lat="43.93374" lon="1.79924">
        <ele>246.8</ele>
        <time>2022-08-14T08:05:39Z</time>
      </trkpt>
      <trkpt lat="43.93377" lon="1.79921">
        <ele>247</ele>
        <time>2022-08-14T08:05:41Z</time>
      </trkpt>
      <trkpt lat="43.93385" lon="1.79909">
        <ele>247.6</ele>
        <time>2022-08-14T08:05:45Z</time>
      </trkpt>
      <trkpt lat="43.93387" lon="1.79905">
        <ele>248.2</ele>
        <time>2022-08-14T08:05:47Z</time>
      </trkpt>
      <trkpt lat="43.93389" lon="1.79904">
        <ele>248.2</ele>
        <time>2022-08-14T08:05:48Z</time>
      </trkpt>
      <trkpt lat="43.9339" lon="1.79903">
        <ele>248.4</ele>
        <time>2022-08-14T08:05:49Z</time>
      </trkpt>
      <trkpt lat="43.93392" lon="1.799">
        <ele>248.6</ele>
        <time>2022-08-14T08:05:50Z</time>
      </trkpt>
      <trkpt lat="43.93397" lon="1.79896">
        <ele>248.8</ele>
        <time>2022-08-14T08:05:52Z</time>
      </trkpt>
      <trkpt lat="43.93404" lon="1.79888">
        <ele>249.6</ele>
        <time>2022-08-14T08:05:55Z</time>
      </trkpt>
      <trkpt lat="43.93409" lon="1.79881">
        <ele>249.8</ele>
        <time>2022-08-14T08:05:57Z</time>
      </trkpt>
      <trkpt lat="43.93411" lon="1.79878">
        <ele>249.8</ele>
        <time>2022-08-14T08:05:58Z</time>
      </trkpt>
      <trkpt lat="43.93413" lon="1.79875">
        <ele>249.8</ele>
        <time>2022-08-14T08:05:59Z</time>
      </trkpt>
      <trkpt lat="43.93415" lon="1.79873">
        <ele>250</ele>
        <time>2022-08-14T08:06:00Z</time>
      </trkpt>
      <trkpt lat="43.93416" lon="1.79872">
        <ele>250</ele>
        <time>2022-08-14T08:06:01Z</time>
      </trkpt>
      <trkpt lat="43.93418" lon="1.79872">
        <ele>250.2</ele>
        <time>2022-08-14T08:06:02Z</time>
      </trkpt>
      <trkpt lat="43.93421" lon="1.79871">
        <ele>250.2</ele>
        <time>2022-08-14T08:06:03Z</time>
      </trkpt>
      <trkpt lat="43.93423" lon="1.7987">
        <ele>250.4</ele>
        <time>2022-08-14T08:06:04Z</time>
      </trkpt>
      <trkpt lat="43.93425" lon="1.79868">
        <ele>250.6</ele>
        <time>2022-08-14T08:06:05Z</time>
      </trkpt>
      <trkpt lat="43.93427" lon="1.79866">
        <ele>250.6</ele>
        <time>2022-08-14T08:06:06Z</time>
      </trkpt>
      <trkpt lat="43.93428" lon="1.79865">
        <ele>250.8</ele>
        <time>2022-08-14T08:06:07Z</time>
      </trkpt>
      <trkpt lat="43.93431" lon="1.79863">
        <ele>250.8</ele>
        <time>2022-08-14T08:06:08Z</time>
      </trkpt>
      <trkpt lat="43.93434" lon="1.7986">
        <ele>250.8</ele>
        <time>2022-08-14T08:06:09Z</time>
      </trkpt>
      <trkpt lat="43.93436" lon="1.79857">
        <ele>251</ele>
        <time>2022-08-14T08:06:10Z</time>
      </trkpt>
      <trkpt lat="43.93437" lon="1.79854">
        <ele>251</ele>
        <time>2022-08-14T08:06:11Z</time>
      </trkpt>
      <trkpt lat="43.93438" lon="1.79852">
        <ele>251.2</ele>
        <time>2022-08-14T08:06:12Z</time>
      </trkpt>
      <trkpt lat="43.93439" lon="1.79849">
        <ele>251.2</ele>
        <time>2022-08-14T08:06:13Z</time>
      </trkpt>
      <trkpt lat="43.9344" lon="1.79847">
        <ele>251.4</ele>
        <time>2022-08-14T08:06:14Z</time>
      </trkpt>
      <trkpt lat="43.93441" lon="1.79844">
        <ele>251.4</ele>
        <time>2022-08-14T08:06:15Z</time>
      </trkpt>
      <trkpt lat="43.93442" lon="1.79842">
        <ele>251.6</ele>
        <time>2022-08-14T08:06:16Z</time>
      </trkpt>
      <trkpt lat="43.93443" lon="1.79839">
        <ele>251.8</ele>
        <time>2022-08-14T08:06:17Z</time>
      </trkpt>
      <trkpt lat="43.93444" lon="1.79837">
        <ele>251.8</ele>
        <time>2022-08-14T08:06:18Z</time>
      </trkpt>
      <trkpt lat="43.93447" lon="1.79833">
        <ele>251.8</ele>
        <time>2022-08-14T08:06:19Z</time>
      </trkpt>
      <trkpt lat="43.93449" lon="1.79831">
        <ele>252</ele>
        <time>2022-08-14T08:06:20Z</time>
      </trkpt>
      <trkpt lat="43.9345" lon="1.79829">
        <ele>252.2</ele>
        <time>2022-08-14T08:06:21Z</time>
      </trkpt>
      <trkpt lat="43.93453" lon="1.79827">
        <ele>252.2</ele>
        <time>2022-08-14T08:06:22Z</time>
      </trkpt>
      <trkpt lat="43.93455" lon="1.79825">
        <ele>252.2</ele>
        <time>2022-08-14T08:06:23Z</time>
      </trkpt>
      <trkpt lat="43.93457" lon="1.79822">
        <ele>252.4</ele>
        <time>2022-08-14T08:06:24Z</time>
      </trkpt>
      <trkpt lat="43.93458" lon="1.79819">
        <ele>252.6</ele>
        <time>2022-08-14T08:06:25Z</time>
      </trkpt>
      <trkpt lat="43.93462" lon="1.79813">
        <ele>252.8</ele>
        <time>2022-08-14T08:06:27Z</time>
      </trkpt>
      <trkpt lat="43.93464" lon="1.7981">
        <ele>252.8</ele>
        <time>2022-08-14T08:06:28Z</time>
      </trkpt>
      <trkpt lat="43.93476" lon="1.79797">
        <ele>253.2</ele>
        <time>2022-08-14T08:06:33Z</time>
      </trkpt>
      <trkpt lat="43.93479" lon="1.79793">
        <ele>253.2</ele>
        <time>2022-08-14T08:06:34Z</time>
      </trkpt>
      <trkpt lat="43.9349" lon="1.79781">
        <ele>253.2</ele>
        <time>2022-08-14T08:06:38Z</time>
      </trkpt>
      <trkpt lat="43.93493" lon="1.7978">
        <ele>253.2</ele>
        <time>2022-08-14T08:06:39Z</time>
      </trkpt>
      <trkpt lat="43.93504" lon="1.7977">
        <ele>253</ele>
        <time>2022-08-14T08:06:43Z</time>
      </trkpt>
      <trkpt lat="43.93508" lon="1.79768">
        <ele>253</ele>
        <time>2022-08-14T08:06:44Z</time>
      </trkpt>
      <trkpt lat="43.93516" lon="1.79761">
        <ele>253.2</ele>
        <time>2022-08-14T08:06:46Z</time>
      </trkpt>
      <trkpt lat="43.93521" lon="1.79758">
        <ele>253.2</ele>
        <time>2022-08-14T08:06:47Z</time>
      </trkpt>
      <trkpt lat="43.93524" lon="1.79757">
        <ele>253.2</ele>
        <time>2022-08-14T08:06:48Z</time>
      </trkpt>
      <trkpt lat="43.93528" lon="1.79754">
        <ele>253.2</ele>
        <time>2022-08-14T08:06:49Z</time>
      </trkpt>
      <trkpt lat="43.93532" lon="1.79751">
        <ele>253.2</ele>
        <time>2022-08-14T08:06:50Z</time>
      </trkpt>
      <trkpt lat="43.93536" lon="1.79747">
        <ele>253.2</ele>
        <time>2022-08-14T08:06:51Z</time>
      </trkpt>
      <trkpt lat="43.93544" lon="1.7974">
        <ele>253.2</ele>
        <time>2022-08-14T08:06:53Z</time>
      </trkpt>
      <trkpt lat="43.93547" lon="1.79737">
        <ele>253.2</ele>
        <time>2022-08-14T08:06:54Z</time>
      </trkpt>
      <trkpt lat="43.9355" lon="1.79735">
        <ele>253.2</ele>
        <time>2022-08-14T08:06:55Z</time>
      </trkpt>
      <trkpt lat="43.93552" lon="1.79734">
        <ele>253.4</ele>
        <time>2022-08-14T08:06:56Z</time>
      </trkpt>
      <trkpt lat="43.93556" lon="1.79731">
        <ele>253.4</ele>
        <time>2022-08-14T08:06:57Z</time>
      </trkpt>
      <trkpt lat="43.9356" lon="1.79728">
        <ele>253.6</ele>
        <time>2022-08-14T08:06:58Z</time>
      </trkpt>
      <trkpt lat="43.93562" lon="1.79726">
        <ele>253.4</ele>
        <time>2022-08-14T08:06:59Z</time>
      </trkpt>
      <trkpt lat="43.93565" lon="1.79724">
        <ele>253.6</ele>
        <time>2022-08-14T08:07:00Z</time>
      </trkpt>
      <trkpt lat="43.93568" lon="1.79721">
        <ele>253.8</ele>
        <time>2022-08-14T08:07:01Z</time>
      </trkpt>
      <trkpt lat="43.93576" lon="1.79714">
        <ele>254</ele>
        <time>2022-08-14T08:07:04Z</time>
      </trkpt>
      <trkpt lat="43.93579" lon="1.79712">
        <ele>254</ele>
        <time>2022-08-14T08:07:05Z</time>
      </trkpt>
      <trkpt lat="43.93581" lon="1.7971">
        <ele>254</ele>
        <time>2022-08-14T08:07:06Z</time>
      </trkpt>
      <trkpt lat="43.93584" lon="1.79708">
        <ele>254.2</ele>
        <time>2022-08-14T08:07:07Z</time>
      </trkpt>
      <trkpt lat="43.93586" lon="1.79706">
        <ele>254.2</ele>
        <time>2022-08-14T08:07:08Z</time>
      </trkpt>
      <trkpt lat="43.93588" lon="1.79704">
        <ele>254.4</ele>
        <time>2022-08-14T08:07:09Z</time>
      </trkpt>
      <trkpt lat="43.9359" lon="1.79702">
        <ele>254.4</ele>
        <time>2022-08-14T08:07:10Z</time>
      </trkpt>
      <trkpt lat="43.93595" lon="1.79697">
        <ele>254.4</ele>
        <time>2022-08-14T08:07:12Z</time>
      </trkpt>
      <trkpt lat="43.93601" lon="1.79692">
        <ele>254.4</ele>
        <time>2022-08-14T08:07:14Z</time>
      </trkpt>
      <trkpt lat="43.93604" lon="1.79689">
        <ele>254.4</ele>
        <time>2022-08-14T08:07:16Z</time>
      </trkpt>
      <trkpt lat="43.93605" lon="1.79686">
        <ele>254.4</ele>
        <time>2022-08-14T08:07:17Z</time>
      </trkpt>
      <trkpt lat="43.93607" lon="1.79683">
        <ele>254.4</ele>
        <time>2022-08-14T08:07:18Z</time>
      </trkpt>
      <trkpt lat="43.93608" lon="1.7968">
        <ele>254.4</ele>
        <time>2022-08-14T08:07:19Z</time>
      </trkpt>
      <trkpt lat="43.9361" lon="1.79678">
        <ele>254.2</ele>
        <time>2022-08-14T08:07:20Z</time>
      </trkpt>
      <trkpt lat="43.93611" lon="1.79675">
        <ele>254.2</ele>
        <time>2022-08-14T08:07:21Z</time>
      </trkpt>
      <trkpt lat="43.93613" lon="1.79673">
        <ele>254.2</ele>
        <time>2022-08-14T08:07:22Z</time>
      </trkpt>
      <trkpt lat="43.93616" lon="1.79671">
        <ele>254</ele>
        <time>2022-08-14T08:07:24Z</time>
      </trkpt>
      <trkpt lat="43.93618" lon="1.79669">
        <ele>253.8</ele>
        <time>2022-08-14T08:07:25Z</time>
      </trkpt>
      <trkpt lat="43.93624" lon="1.79663">
        <ele>253.8</ele>
        <time>2022-08-14T08:07:27Z</time>
      </trkpt>
      <trkpt lat="43.93625" lon="1.79661">
        <ele>253.8</ele>
        <time>2022-08-14T08:07:28Z</time>
      </trkpt>
      <trkpt lat="43.9363" lon="1.79656">
        <ele>253.8</ele>
        <time>2022-08-14T08:07:30Z</time>
      </trkpt>
      <trkpt lat="43.93633" lon="1.79653">
        <ele>253.8</ele>
        <time>2022-08-14T08:07:31Z</time>
      </trkpt>
      <trkpt lat="43.93636" lon="1.79648">
        <ele>253.8</ele>
        <time>2022-08-14T08:07:33Z</time>
      </trkpt>
      <trkpt lat="43.93637" lon="1.79648">
        <ele>253.8</ele>
        <time>2022-08-14T08:07:34Z</time>
      </trkpt>
      <trkpt lat="43.9364" lon="1.79648">
        <ele>253.8</ele>
        <time>2022-08-14T08:07:35Z</time>
      </trkpt>
      <trkpt lat="43.93642" lon="1.79647">
        <ele>254</ele>
        <time>2022-08-14T08:07:36Z</time>
      </trkpt>
      <trkpt lat="43.93645" lon="1.79645">
        <ele>254</ele>
        <time>2022-08-14T08:07:37Z</time>
      </trkpt>
      <trkpt lat="43.93646" lon="1.79645">
        <ele>254</ele>
        <time>2022-08-14T08:07:38Z</time>
      </trkpt>
      <trkpt lat="43.93647" lon="1.79644">
        <ele>254</ele>
        <time>2022-08-14T08:07:39Z</time>
      </trkpt>
      <trkpt lat="43.93649" lon="1.79642">
        <ele>254</ele>
        <time>2022-08-14T08:07:40Z</time>
      </trkpt>
      <trkpt lat="43.93651" lon="1.79642">
        <ele>254</ele>
        <time>2022-08-14T08:07:41Z</time>
      </trkpt>
      <trkpt lat="43.93653" lon="1.79642">
        <ele>254</ele>
        <time>2022-08-14T08:07:42Z</time>
      </trkpt>
      <trkpt lat="43.93654" lon="1.79642">
        <ele>254.2</ele>
        <time>2022-08-14T08:07:43Z</time>
      </trkpt>
      <trkpt lat="43.93656" lon="1.79642">
        <ele>254.2</ele>
        <time>2022-08-14T08:07:44Z</time>
      </trkpt>
      <trkpt lat="43.93658" lon="1.79641">
        <ele>254.4</ele>
        <time>2022-08-14T08:07:45Z</time>
      </trkpt>
      <trkpt lat="43.93662" lon="1.79638">
        <ele>255</ele>
        <time>2022-08-14T08:07:47Z</time>
      </trkpt>
      <trkpt lat="43.93663" lon="1.79636">
        <ele>255.2</ele>
        <time>2022-08-14T08:07:48Z</time>
      </trkpt>
      <trkpt lat="43.93665" lon="1.79632">
        <ele>255.2</ele>
        <time>2022-08-14T08:07:49Z</time>
      </trkpt>
      <trkpt lat="43.93665" lon="1.79631">
        <ele>255.4</ele>
        <time>2022-08-14T08:07:50Z</time>
      </trkpt>
      <trkpt lat="43.93665" lon="1.79629">
        <ele>255.6</ele>
        <time>2022-08-14T08:07:51Z</time>
      </trkpt>
      <trkpt lat="43.93666" lon="1.79627">
        <ele>256</ele>
        <time>2022-08-14T08:07:52Z</time>
      </trkpt>
      <trkpt lat="43.93667" lon="1.79626">
        <ele>256</ele>
        <time>2022-08-14T08:07:53Z</time>
      </trkpt>
      <trkpt lat="43.93669" lon="1.79621">
        <ele>256.4</ele>
        <time>2022-08-14T08:07:55Z</time>
      </trkpt>
      <trkpt lat="43.9367" lon="1.79619">
        <ele>256.6</ele>
        <time>2022-08-14T08:07:56Z</time>
      </trkpt>
      <trkpt lat="43.9367" lon="1.79617">
        <ele>256.6</ele>
        <time>2022-08-14T08:07:57Z</time>
      </trkpt>
      <trkpt lat="43.93671" lon="1.79616">
        <ele>256.8</ele>
        <time>2022-08-14T08:07:58Z</time>
      </trkpt>
      <trkpt lat="43.93671" lon="1.79615">
        <ele>256.8</ele>
        <time>2022-08-14T08:07:59Z</time>
      </trkpt>
      <trkpt lat="43.93672" lon="1.79612">
        <ele>257</ele>
        <time>2022-08-14T08:08:01Z</time>
      </trkpt>
      <trkpt lat="43.93672" lon="1.79611">
        <ele>257.2</ele>
        <time>2022-08-14T08:08:02Z</time>
      </trkpt>
      <trkpt lat="43.93672" lon="1.79608">
        <ele>257.2</ele>
        <time>2022-08-14T08:08:03Z</time>
      </trkpt>
      <trkpt lat="43.93673" lon="1.79606">
        <ele>257.4</ele>
        <time>2022-08-14T08:08:04Z</time>
      </trkpt>
      <trkpt lat="43.93674" lon="1.79604">
        <ele>257.4</ele>
        <time>2022-08-14T08:08:05Z</time>
      </trkpt>
      <trkpt lat="43.93676" lon="1.79602">
        <ele>257.6</ele>
        <time>2022-08-14T08:08:06Z</time>
      </trkpt>
      <trkpt lat="43.93677" lon="1.796">
        <ele>257.6</ele>
        <time>2022-08-14T08:08:07Z</time>
      </trkpt>
      <trkpt lat="43.93678" lon="1.79599">
        <ele>257.8</ele>
        <time>2022-08-14T08:08:08Z</time>
      </trkpt>
      <trkpt lat="43.93678" lon="1.79597">
        <ele>257.8</ele>
        <time>2022-08-14T08:08:09Z</time>
      </trkpt>
      <trkpt lat="43.93678" lon="1.79595">
        <ele>258</ele>
        <time>2022-08-14T08:08:10Z</time>
      </trkpt>
      <trkpt lat="43.93679" lon="1.79591">
        <ele>258</ele>
        <time>2022-08-14T08:08:11Z</time>
      </trkpt>
      <trkpt lat="43.9368" lon="1.79588">
        <ele>258.2</ele>
        <time>2022-08-14T08:08:12Z</time>
      </trkpt>
      <trkpt lat="43.93681" lon="1.79586">
        <ele>258.4</ele>
        <time>2022-08-14T08:08:13Z</time>
      </trkpt>
      <trkpt lat="43.93683" lon="1.79583">
        <ele>258.4</ele>
        <time>2022-08-14T08:08:14Z</time>
      </trkpt>
      <trkpt lat="43.93684" lon="1.79581">
        <ele>258.4</ele>
        <time>2022-08-14T08:08:15Z</time>
      </trkpt>
      <trkpt lat="43.93685" lon="1.7958">
        <ele>258.4</ele>
        <time>2022-08-14T08:08:16Z</time>
      </trkpt>
      <trkpt lat="43.93687" lon="1.79578">
        <ele>258.4</ele>
        <time>2022-08-14T08:08:17Z</time>
      </trkpt>
      <trkpt lat="43.93689" lon="1.79575">
        <ele>258.6</ele>
        <time>2022-08-14T08:08:18Z</time>
      </trkpt>
      <trkpt lat="43.93691" lon="1.79572">
        <ele>258.6</ele>
        <time>2022-08-14T08:08:19Z</time>
      </trkpt>
      <trkpt lat="43.93693" lon="1.7957">
        <ele>258.6</ele>
        <time>2022-08-14T08:08:20Z</time>
      </trkpt>
      <trkpt lat="43.93695" lon="1.79566">
        <ele>258.6</ele>
        <time>2022-08-14T08:08:21Z</time>
      </trkpt>
      <trkpt lat="43.93697" lon="1.79564">
        <ele>259</ele>
        <time>2022-08-14T08:08:22Z</time>
      </trkpt>
      <trkpt lat="43.93701" lon="1.7956">
        <ele>259</ele>
        <time>2022-08-14T08:08:23Z</time>
      </trkpt>
      <trkpt lat="43.93703" lon="1.79559">
        <ele>259.2</ele>
        <time>2022-08-14T08:08:24Z</time>
      </trkpt>
      <trkpt lat="43.93704" lon="1.79556">
        <ele>259.2</ele>
        <time>2022-08-14T08:08:25Z</time>
      </trkpt>
      <trkpt lat="43.93706" lon="1.79553">
        <ele>259.4</ele>
        <time>2022-08-14T08:08:26Z</time>
      </trkpt>
      <trkpt lat="43.93708" lon="1.7955">
        <ele>259.4</ele>
        <time>2022-08-14T08:08:27Z</time>
      </trkpt>
      <trkpt lat="43.93713" lon="1.79544">
        <ele>259.4</ele>
        <time>2022-08-14T08:08:30Z</time>
      </trkpt>
      <trkpt lat="43.93715" lon="1.79542">
        <ele>259.6</ele>
        <time>2022-08-14T08:08:31Z</time>
      </trkpt>
      <trkpt lat="43.93717" lon="1.7954">
        <ele>259.6</ele>
        <time>2022-08-14T08:08:32Z</time>
      </trkpt>
      <trkpt lat="43.93726" lon="1.79533">
        <ele>259.8</ele>
        <time>2022-08-14T08:08:36Z</time>
      </trkpt>
      <trkpt lat="43.9373" lon="1.7953">
        <ele>259.8</ele>
        <time>2022-08-14T08:08:37Z</time>
      </trkpt>
      <trkpt lat="43.93733" lon="1.79528">
        <ele>259.8</ele>
        <time>2022-08-14T08:08:38Z</time>
      </trkpt>
      <trkpt lat="43.93734" lon="1.79526">
        <ele>259.8</ele>
        <time>2022-08-14T08:08:39Z</time>
      </trkpt>
      <trkpt lat="43.93736" lon="1.79523">
        <ele>260</ele>
        <time>2022-08-14T08:08:40Z</time>
      </trkpt>
      <trkpt lat="43.93738" lon="1.79522">
        <ele>260</ele>
        <time>2022-08-14T08:08:41Z</time>
      </trkpt>
      <trkpt lat="43.93743" lon="1.79517">
        <ele>260</ele>
        <time>2022-08-14T08:08:43Z</time>
      </trkpt>
      <trkpt lat="43.93748" lon="1.79511">
        <ele>260</ele>
        <time>2022-08-14T08:08:45Z</time>
      </trkpt>
      <trkpt lat="43.93757" lon="1.79505">
        <ele>259.8</ele>
        <time>2022-08-14T08:08:48Z</time>
      </trkpt>
      <trkpt lat="43.93759" lon="1.79505">
        <ele>259.8</ele>
        <time>2022-08-14T08:08:49Z</time>
      </trkpt>
      <trkpt lat="43.93761" lon="1.79504">
        <ele>259.8</ele>
        <time>2022-08-14T08:08:50Z</time>
      </trkpt>
      <trkpt lat="43.93763" lon="1.79504">
        <ele>260</ele>
        <time>2022-08-14T08:08:51Z</time>
      </trkpt>
      <trkpt lat="43.93765" lon="1.79503">
        <ele>259.8</ele>
        <time>2022-08-14T08:08:52Z</time>
      </trkpt>
      <trkpt lat="43.9377" lon="1.79503">
        <ele>259.8</ele>
        <time>2022-08-14T08:08:55Z</time>
      </trkpt>
      <trkpt lat="43.93775" lon="1.79502">
        <ele>259.8</ele>
        <time>2022-08-14T08:08:56Z</time>
      </trkpt>
      <trkpt lat="43.93796" lon="1.79494">
        <ele>260</ele>
        <time>2022-08-14T08:09:02Z</time>
      </trkpt>
      <trkpt lat="43.93798" lon="1.79493">
        <ele>260</ele>
        <time>2022-08-14T08:09:03Z</time>
      </trkpt>
      <trkpt lat="43.93805" lon="1.79487">
        <ele>259.8</ele>
        <time>2022-08-14T08:09:05Z</time>
      </trkpt>
      <trkpt lat="43.93808" lon="1.79484">
        <ele>259.8</ele>
        <time>2022-08-14T08:09:06Z</time>
      </trkpt>
      <trkpt lat="43.93813" lon="1.79478">
        <ele>260</ele>
        <time>2022-08-14T08:09:08Z</time>
      </trkpt>
      <trkpt lat="43.93815" lon="1.79476">
        <ele>260</ele>
        <time>2022-08-14T08:09:09Z</time>
      </trkpt>
      <trkpt lat="43.93817" lon="1.79474">
        <ele>259.8</ele>
        <time>2022-08-14T08:09:10Z</time>
      </trkpt>
      <trkpt lat="43.93821" lon="1.7947">
        <ele>259.8</ele>
        <time>2022-08-14T08:09:11Z</time>
      </trkpt>
      <trkpt lat="43.93824" lon="1.79469">
        <ele>259.8</ele>
        <time>2022-08-14T08:09:12Z</time>
      </trkpt>
      <trkpt lat="43.93825" lon="1.79467">
        <ele>259.8</ele>
        <time>2022-08-14T08:09:13Z</time>
      </trkpt>
      <trkpt lat="43.93829" lon="1.79465">
        <ele>260</ele>
        <time>2022-08-14T08:12:28Z</time>
      </trkpt>
      <trkpt lat="43.93836" lon="1.7946">
        <ele>260</ele>
        <time>2022-08-14T08:12:31Z</time>
      </trkpt>
      <trkpt lat="43.93855" lon="1.79446">
        <ele>260</ele>
        <time>2022-08-14T08:12:38Z</time>
      </trkpt>
      <trkpt lat="43.93858" lon="1.79444">
        <ele>260</ele>
        <time>2022-08-14T08:12:39Z</time>
      </trkpt>
      <trkpt lat="43.93865" lon="1.79439">
        <ele>260</ele>
        <time>2022-08-14T08:12:42Z</time>
      </trkpt>
      <trkpt lat="43.93868" lon="1.79438">
        <ele>260</ele>
        <time>2022-08-14T08:12:43Z</time>
      </trkpt>
      <trkpt lat="43.93871" lon="1.79436">
        <ele>260</ele>
        <time>2022-08-14T08:12:44Z</time>
      </trkpt>
      <trkpt lat="43.93878" lon="1.79431">
        <ele>260.2</ele>
        <time>2022-08-14T08:12:47Z</time>
      </trkpt>
      <trkpt lat="43.93886" lon="1.79426">
        <ele>260.8</ele>
        <time>2022-08-14T08:12:50Z</time>
      </trkpt>
      <trkpt lat="43.93895" lon="1.7942">
        <ele>261</ele>
        <time>2022-08-14T08:12:53Z</time>
      </trkpt>
      <trkpt lat="43.93898" lon="1.79418">
        <ele>261.2</ele>
        <time>2022-08-14T08:12:54Z</time>
      </trkpt>
      <trkpt lat="43.93904" lon="1.79415">
        <ele>261.4</ele>
        <time>2022-08-14T08:12:56Z</time>
      </trkpt>
      <trkpt lat="43.93907" lon="1.79413">
        <ele>261.4</ele>
        <time>2022-08-14T08:12:57Z</time>
      </trkpt>
      <trkpt lat="43.93918" lon="1.79407">
        <ele>261.8</ele>
        <time>2022-08-14T08:13:01Z</time>
      </trkpt>
      <trkpt lat="43.93921" lon="1.79405">
        <ele>261.8</ele>
        <time>2022-08-14T08:13:02Z</time>
      </trkpt>
      <trkpt lat="43.93925" lon="1.79404">
        <ele>262</ele>
        <time>2022-08-14T08:13:03Z</time>
      </trkpt>
      <trkpt lat="43.93928" lon="1.79402">
        <ele>262</ele>
        <time>2022-08-14T08:13:04Z</time>
      </trkpt>
      <trkpt lat="43.93937" lon="1.79397">
        <ele>262.2</ele>
        <time>2022-08-14T08:13:07Z</time>
      </trkpt>
      <trkpt lat="43.9394" lon="1.79396">
        <ele>262.2</ele>
        <time>2022-08-14T08:13:08Z</time>
      </trkpt>
      <trkpt lat="43.93943" lon="1.79394">
        <ele>262.2</ele>
        <time>2022-08-14T08:13:09Z</time>
      </trkpt>
      <trkpt lat="43.93952" lon="1.79389">
        <ele>262.2</ele>
        <time>2022-08-14T08:13:12Z</time>
      </trkpt>
      <trkpt lat="43.93976" lon="1.7938">
        <ele>262.2</ele>
        <time>2022-08-14T08:13:19Z</time>
      </trkpt>
      <trkpt lat="43.93979" lon="1.79378">
        <ele>262.2</ele>
        <time>2022-08-14T08:13:20Z</time>
      </trkpt>
      <trkpt lat="43.93985" lon="1.79375">
        <ele>262.2</ele>
        <time>2022-08-14T08:13:22Z</time>
      </trkpt>
      <trkpt lat="43.93989" lon="1.79373">
        <ele>262.2</ele>
        <time>2022-08-14T08:13:23Z</time>
      </trkpt>
      <trkpt lat="43.93992" lon="1.79371">
        <ele>262.2</ele>
        <time>2022-08-14T08:13:24Z</time>
      </trkpt>
      <trkpt lat="43.93995" lon="1.79369">
        <ele>262.2</ele>
        <time>2022-08-14T08:13:25Z</time>
      </trkpt>
      <trkpt lat="43.93998" lon="1.79368">
        <ele>262.2</ele>
        <time>2022-08-14T08:13:26Z</time>
      </trkpt>
      <trkpt lat="43.94007" lon="1.79363">
        <ele>262.4</ele>
        <time>2022-08-14T08:13:29Z</time>
      </trkpt>
      <trkpt lat="43.94011" lon="1.79361">
        <ele>262.8</ele>
        <time>2022-08-14T08:13:30Z</time>
      </trkpt>
      <trkpt lat="43.94014" lon="1.79359">
        <ele>262.8</ele>
        <time>2022-08-14T08:13:31Z</time>
      </trkpt>
      <trkpt lat="43.94019" lon="1.79356">
        <ele>263</ele>
        <time>2022-08-14T08:13:33Z</time>
      </trkpt>
      <trkpt lat="43.94022" lon="1.79354">
        <ele>263.2</ele>
        <time>2022-08-14T08:13:34Z</time>
      </trkpt>
      <trkpt lat="43.94028" lon="1.79351">
        <ele>263.4</ele>
        <time>2022-08-14T08:13:36Z</time>
      </trkpt>
      <trkpt lat="43.94031" lon="1.7935">
        <ele>264</ele>
        <time>2022-08-14T08:13:37Z</time>
      </trkpt>
      <trkpt lat="43.94034" lon="1.79348">
        <ele>264.4</ele>
        <time>2022-08-14T08:13:38Z</time>
      </trkpt>
      <trkpt lat="43.94036" lon="1.79346">
        <ele>264.6</ele>
        <time>2022-08-14T08:13:39Z</time>
      </trkpt>
      <trkpt lat="43.94039" lon="1.79344">
        <ele>265</ele>
        <time>2022-08-14T08:13:40Z</time>
      </trkpt>
      <trkpt lat="43.94044" lon="1.79341">
        <ele>265.2</ele>
        <time>2022-08-14T08:13:42Z</time>
      </trkpt>
      <trkpt lat="43.94049" lon="1.79337">
        <ele>265.6</ele>
        <time>2022-08-14T08:13:44Z</time>
      </trkpt>
      <trkpt lat="43.94052" lon="1.79335">
        <ele>265.8</ele>
        <time>2022-08-14T08:13:45Z</time>
      </trkpt>
      <trkpt lat="43.94055" lon="1.79333">
        <ele>266.2</ele>
        <time>2022-08-14T08:13:46Z</time>
      </trkpt>
      <trkpt lat="43.94058" lon="1.79331">
        <ele>266.6</ele>
        <time>2022-08-14T08:13:47Z</time>
      </trkpt>
      <trkpt lat="43.9406" lon="1.7933">
        <ele>266.8</ele>
        <time>2022-08-14T08:13:48Z</time>
      </trkpt>
      <trkpt lat="43.94063" lon="1.79328">
        <ele>267</ele>
        <time>2022-08-14T08:13:49Z</time>
      </trkpt>
      <trkpt lat="43.94066" lon="1.79327">
        <ele>267</ele>
        <time>2022-08-14T08:13:50Z</time>
      </trkpt>
      <trkpt lat="43.94069" lon="1.79326">
        <ele>267.2</ele>
        <time>2022-08-14T08:13:51Z</time>
      </trkpt>
      <trkpt lat="43.94072" lon="1.79324">
        <ele>267.2</ele>
        <time>2022-08-14T08:13:52Z</time>
      </trkpt>
      <trkpt lat="43.94075" lon="1.79323">
        <ele>267.6</ele>
        <time>2022-08-14T08:13:53Z</time>
      </trkpt>
      <trkpt lat="43.94078" lon="1.79321">
        <ele>267.8</ele>
        <time>2022-08-14T08:13:54Z</time>
      </trkpt>
      <trkpt lat="43.94081" lon="1.79319">
        <ele>268</ele>
        <time>2022-08-14T08:13:55Z</time>
      </trkpt>
      <trkpt lat="43.94084" lon="1.79317">
        <ele>268.2</ele>
        <time>2022-08-14T08:13:56Z</time>
      </trkpt>
      <trkpt lat="43.94087" lon="1.79316">
        <ele>268.2</ele>
        <time>2022-08-14T08:13:57Z</time>
      </trkpt>
      <trkpt lat="43.9409" lon="1.79314">
        <ele>268.6</ele>
        <time>2022-08-14T08:13:58Z</time>
      </trkpt>
      <trkpt lat="43.94093" lon="1.79311">
        <ele>268.6</ele>
        <time>2022-08-14T08:13:59Z</time>
      </trkpt>
      <trkpt lat="43.94096" lon="1.79309">
        <ele>268.8</ele>
        <time>2022-08-14T08:14:00Z</time>
      </trkpt>
      <trkpt lat="43.941" lon="1.79307">
        <ele>269</ele>
        <time>2022-08-14T08:14:01Z</time>
      </trkpt>
      <trkpt lat="43.94103" lon="1.79305">
        <ele>269.2</ele>
        <time>2022-08-14T08:14:02Z</time>
      </trkpt>
      <trkpt lat="43.94106" lon="1.79303">
        <ele>269.6</ele>
        <time>2022-08-14T08:14:03Z</time>
      </trkpt>
      <trkpt lat="43.9411" lon="1.79301">
        <ele>269.6</ele>
        <time>2022-08-14T08:14:04Z</time>
      </trkpt>
      <trkpt lat="43.94114" lon="1.79299">
        <ele>269.6</ele>
        <time>2022-08-14T08:14:05Z</time>
      </trkpt>
      <trkpt lat="43.94117" lon="1.79297">
        <ele>269.8</ele>
        <time>2022-08-14T08:14:06Z</time>
      </trkpt>
      <trkpt lat="43.94121" lon="1.79295">
        <ele>269.8</ele>
        <time>2022-08-14T08:14:07Z</time>
      </trkpt>
      <trkpt lat="43.94124" lon="1.79292">
        <ele>270</ele>
        <time>2022-08-14T08:14:08Z</time>
      </trkpt>
      <trkpt lat="43.94127" lon="1.7929">
        <ele>270.2</ele>
        <time>2022-08-14T08:14:09Z</time>
      </trkpt>
      <trkpt lat="43.9413" lon="1.79288">
        <ele>270.2</ele>
        <time>2022-08-14T08:14:10Z</time>
      </trkpt>
      <trkpt lat="43.94133" lon="1.79287">
        <ele>270.4</ele>
        <time>2022-08-14T08:14:11Z</time>
      </trkpt>
      <trkpt lat="43.94135" lon="1.79285">
        <ele>270.6</ele>
        <time>2022-08-14T08:14:12Z</time>
      </trkpt>
      <trkpt lat="43.94138" lon="1.79284">
        <ele>270.6</ele>
        <time>2022-08-14T08:14:13Z</time>
      </trkpt>
      <trkpt lat="43.94141" lon="1.79282">
        <ele>270.8</ele>
        <time>2022-08-14T08:14:14Z</time>
      </trkpt>
      <trkpt lat="43.94144" lon="1.7928">
        <ele>270.8</ele>
        <time>2022-08-14T08:14:15Z</time>
      </trkpt>
      <trkpt lat="43.94146" lon="1.79279">
        <ele>270.8</ele>
        <time>2022-08-14T08:14:16Z</time>
      </trkpt>
      <trkpt lat="43.94149" lon="1.79278">
        <ele>270.8</ele>
        <time>2022-08-14T08:14:17Z</time>
      </trkpt>
      <trkpt lat="43.94152" lon="1.79276">
        <ele>270.8</ele>
        <time>2022-08-14T08:14:18Z</time>
      </trkpt>
      <trkpt lat="43.94155" lon="1.79275">
        <ele>270.8</ele>
        <time>2022-08-14T08:14:19Z</time>
      </trkpt>
      <trkpt lat="43.94157" lon="1.79275">
        <ele>270.8</ele>
        <time>2022-08-14T08:14:20Z</time>
      </trkpt>
      <trkpt lat="43.9416" lon="1.79274">
        <ele>270.8</ele>
        <time>2022-08-14T08:14:21Z</time>
      </trkpt>
      <trkpt lat="43.94164" lon="1.79273">
        <ele>270.8</ele>
        <time>2022-08-14T08:14:22Z</time>
      </trkpt>
      <trkpt lat="43.94167" lon="1.79272">
        <ele>270.8</ele>
        <time>2022-08-14T08:14:23Z</time>
      </trkpt>
      <trkpt lat="43.9417" lon="1.79271">
        <ele>271</ele>
        <time>2022-08-14T08:14:24Z</time>
      </trkpt>
      <trkpt lat="43.94173" lon="1.7927">
        <ele>271</ele>
        <time>2022-08-14T08:14:25Z</time>
      </trkpt>
      <trkpt lat="43.94177" lon="1.79269">
        <ele>270.8</ele>
        <time>2022-08-14T08:14:26Z</time>
      </trkpt>
      <trkpt lat="43.9418" lon="1.79268">
        <ele>270.8</ele>
        <time>2022-08-14T08:14:27Z</time>
      </trkpt>
      <trkpt lat="43.94183" lon="1.79267">
        <ele>270.8</ele>
        <time>2022-08-14T08:14:28Z</time>
      </trkpt>
      <trkpt lat="43.94218" lon="1.79255">
        <ele>270.8</ele>
        <time>2022-08-14T08:14:38Z</time>
      </trkpt>
      <trkpt lat="43.94238" lon="1.79247">
        <ele>271</ele>
        <time>2022-08-14T08:14:43Z</time>
      </trkpt>
      <trkpt lat="43.94245" lon="1.79245">
        <ele>270.8</ele>
        <time>2022-08-14T08:14:45Z</time>
      </trkpt>
      <trkpt lat="43.94253" lon="1.79242">
        <ele>270.8</ele>
        <time>2022-08-14T08:14:47Z</time>
      </trkpt>
      <trkpt lat="43.94269" lon="1.79236">
        <ele>270.4</ele>
        <time>2022-08-14T08:14:51Z</time>
      </trkpt>
      <trkpt lat="43.94274" lon="1.79234">
        <ele>270.4</ele>
        <time>2022-08-14T08:14:52Z</time>
      </trkpt>
      <trkpt lat="43.943" lon="1.79227">
        <ele>270.2</ele>
        <time>2022-08-14T08:14:58Z</time>
      </trkpt>
      <trkpt lat="43.94308" lon="1.79225">
        <ele>270</ele>
        <time>2022-08-14T08:15:00Z</time>
      </trkpt>
      <trkpt lat="43.94316" lon="1.79222">
        <ele>270</ele>
        <time>2022-08-14T08:15:02Z</time>
      </trkpt>
      <trkpt lat="43.9432" lon="1.79221">
        <ele>270</ele>
        <time>2022-08-14T08:15:03Z</time>
      </trkpt>
      <trkpt lat="43.94327" lon="1.79218">
        <ele>269.6</ele>
        <time>2022-08-14T08:15:05Z</time>
      </trkpt>
      <trkpt lat="43.94332" lon="1.79217">
        <ele>269.6</ele>
        <time>2022-08-14T08:15:06Z</time>
      </trkpt>
      <trkpt lat="43.94335" lon="1.79216">
        <ele>269.6</ele>
        <time>2022-08-14T08:15:07Z</time>
      </trkpt>
      <trkpt lat="43.94339" lon="1.79214">
        <ele>269.6</ele>
        <time>2022-08-14T08:15:08Z</time>
      </trkpt>
      <trkpt lat="43.94342" lon="1.79214">
        <ele>269.4</ele>
        <time>2022-08-14T08:15:09Z</time>
      </trkpt>
      <trkpt lat="43.94352" lon="1.79214">
        <ele>269.6</ele>
        <time>2022-08-14T08:15:12Z</time>
      </trkpt>
      <trkpt lat="43.94356" lon="1.79215">
        <ele>269.8</ele>
        <time>2022-08-14T08:15:13Z</time>
      </trkpt>
      <trkpt lat="43.94359" lon="1.79215">
        <ele>270</ele>
        <time>2022-08-14T08:15:14Z</time>
      </trkpt>
      <trkpt lat="43.94363" lon="1.79216">
        <ele>270</ele>
        <time>2022-08-14T08:15:15Z</time>
      </trkpt>
      <trkpt lat="43.94366" lon="1.79218">
        <ele>270</ele>
        <time>2022-08-14T08:15:16Z</time>
      </trkpt>
      <trkpt lat="43.94373" lon="1.7922">
        <ele>270</ele>
        <time>2022-08-14T08:15:18Z</time>
      </trkpt>
      <trkpt lat="43.94385" lon="1.79221">
        <ele>270.2</ele>
        <time>2022-08-14T08:15:21Z</time>
      </trkpt>
      <trkpt lat="43.94388" lon="1.79219">
        <ele>270.4</ele>
        <time>2022-08-14T08:15:22Z</time>
      </trkpt>
      <trkpt lat="43.94391" lon="1.79219">
        <ele>270.4</ele>
        <time>2022-08-14T08:15:23Z</time>
      </trkpt>
      <trkpt lat="43.94395" lon="1.79216">
        <ele>270.4</ele>
        <time>2022-08-14T08:15:24Z</time>
      </trkpt>
      <trkpt lat="43.94409" lon="1.79209">
        <ele>270.8</ele>
        <time>2022-08-14T08:15:28Z</time>
      </trkpt>
      <trkpt lat="43.94412" lon="1.79208">
        <ele>271</ele>
        <time>2022-08-14T08:15:29Z</time>
      </trkpt>
      <trkpt lat="43.94417" lon="1.79206">
        <ele>271</ele>
        <time>2022-08-14T08:15:30Z</time>
      </trkpt>
      <trkpt lat="43.94433" lon="1.79202">
        <ele>271.2</ele>
        <time>2022-08-14T08:15:34Z</time>
      </trkpt>
      <trkpt lat="43.94445" lon="1.79201">
        <ele>271.2</ele>
        <time>2022-08-14T08:15:37Z</time>
      </trkpt>
      <trkpt lat="43.94449" lon="1.792">
        <ele>271.2</ele>
        <time>2022-08-14T08:15:38Z</time>
      </trkpt>
      <trkpt lat="43.94453" lon="1.792">
        <ele>271.2</ele>
        <time>2022-08-14T08:15:39Z</time>
      </trkpt>
      <trkpt lat="43.94464" lon="1.79199">
        <ele>271.2</ele>
        <time>2022-08-14T08:15:42Z</time>
      </trkpt>
      <trkpt lat="43.94468" lon="1.79197">
        <ele>271.2</ele>
        <time>2022-08-14T08:15:43Z</time>
      </trkpt>
      <trkpt lat="43.94478" lon="1.79188">
        <ele>271.4</ele>
        <time>2022-08-14T08:15:46Z</time>
      </trkpt>
      <trkpt lat="43.9448" lon="1.79184">
        <ele>271.4</ele>
        <time>2022-08-14T08:15:47Z</time>
      </trkpt>
      <trkpt lat="43.94482" lon="1.79178">
        <ele>271.4</ele>
        <time>2022-08-14T08:15:48Z</time>
      </trkpt>
      <trkpt lat="43.94484" lon="1.79174">
        <ele>271.4</ele>
        <time>2022-08-14T08:15:49Z</time>
      </trkpt>
      <trkpt lat="43.94485" lon="1.7917">
        <ele>271.4</ele>
        <time>2022-08-14T08:15:50Z</time>
      </trkpt>
      <trkpt lat="43.94487" lon="1.79166">
        <ele>271.4</ele>
        <time>2022-08-14T08:15:51Z</time>
      </trkpt>
      <trkpt lat="43.94489" lon="1.79164">
        <ele>271.4</ele>
        <time>2022-08-14T08:15:52Z</time>
      </trkpt>
      <trkpt lat="43.94492" lon="1.79163">
        <ele>271.4</ele>
        <time>2022-08-14T08:15:53Z</time>
      </trkpt>
      <trkpt lat="43.94495" lon="1.79164">
        <ele>271.4</ele>
        <time>2022-08-14T08:15:54Z</time>
      </trkpt>
      <trkpt lat="43.94497" lon="1.79166">
        <ele>271.4</ele>
        <time>2022-08-14T08:15:55Z</time>
      </trkpt>
      <trkpt lat="43.94499" lon="1.79168">
        <ele>271.4</ele>
        <time>2022-08-14T08:15:56Z</time>
      </trkpt>
      <trkpt lat="43.94502" lon="1.79172">
        <ele>271.4</ele>
        <time>2022-08-14T08:15:58Z</time>
      </trkpt>
      <trkpt lat="43.94503" lon="1.79174">
        <ele>271.8</ele>
        <time>2022-08-14T08:15:59Z</time>
      </trkpt>
      <trkpt lat="43.94508" lon="1.7918">
        <ele>271.6</ele>
        <time>2022-08-14T08:16:13Z</time>
      </trkpt>
      <trkpt lat="43.94509" lon="1.79182">
        <ele>271.6</ele>
        <time>2022-08-14T08:16:14Z</time>
      </trkpt>
      <trkpt lat="43.9451" lon="1.79184">
        <ele>271.6</ele>
        <time>2022-08-14T08:16:15Z</time>
      </trkpt>
      <trkpt lat="43.94516" lon="1.7919">
        <ele>271.4</ele>
        <time>2022-08-14T08:16:19Z</time>
      </trkpt>
      <trkpt lat="43.94538" lon="1.79209">
        <ele>271.6</ele>
        <time>2022-08-14T08:16:29Z</time>
      </trkpt>
      <trkpt lat="43.94552" lon="1.79222">
        <ele>271.6</ele>
        <time>2022-08-14T08:16:35Z</time>
      </trkpt>
      <trkpt lat="43.94555" lon="1.79224">
        <ele>271.6</ele>
        <time>2022-08-14T08:16:36Z</time>
      </trkpt>
      <trkpt lat="43.9456" lon="1.79228">
        <ele>271.6</ele>
        <time>2022-08-14T08:16:38Z</time>
      </trkpt>
      <trkpt lat="43.94562" lon="1.7923">
        <ele>271.6</ele>
        <time>2022-08-14T08:16:39Z</time>
      </trkpt>
      <trkpt lat="43.94579" lon="1.79246">
        <ele>271.4</ele>
        <time>2022-08-14T08:16:46Z</time>
      </trkpt>
      <trkpt lat="43.94584" lon="1.79251">
        <ele>271.2</ele>
        <time>2022-08-14T08:16:48Z</time>
      </trkpt>
      <trkpt lat="43.946" lon="1.79266">
        <ele>271.2</ele>
        <time>2022-08-14T08:16:53Z</time>
      </trkpt>
      <trkpt lat="43.94617" lon="1.79282">
        <ele>270.8</ele>
        <time>2022-08-14T08:16:58Z</time>
      </trkpt>
      <trkpt lat="43.94624" lon="1.7929">
        <ele>270.6</ele>
        <time>2022-08-14T08:17:00Z</time>
      </trkpt>
      <trkpt lat="43.9463" lon="1.79298">
        <ele>270.4</ele>
        <time>2022-08-14T08:17:02Z</time>
      </trkpt>
      <trkpt lat="43.94649" lon="1.79333">
        <ele>270</ele>
        <time>2022-08-14T08:17:09Z</time>
      </trkpt>
      <trkpt lat="43.94656" lon="1.79351">
        <ele>269.8</ele>
        <time>2022-08-14T08:17:12Z</time>
      </trkpt>
      <trkpt lat="43.94658" lon="1.79358">
        <ele>269.4</ele>
        <time>2022-08-14T08:17:13Z</time>
      </trkpt>
      <trkpt lat="43.9466" lon="1.79364">
        <ele>269.4</ele>
        <time>2022-08-14T08:17:14Z</time>
      </trkpt>
      <trkpt lat="43.94662" lon="1.7937">
        <ele>269.4</ele>
        <time>2022-08-14T08:17:15Z</time>
      </trkpt>
      <trkpt lat="43.94664" lon="1.79376">
        <ele>269.4</ele>
        <time>2022-08-14T08:17:16Z</time>
      </trkpt>
      <trkpt lat="43.94666" lon="1.79381">
        <ele>269.4</ele>
        <time>2022-08-14T08:17:17Z</time>
      </trkpt>
      <trkpt lat="43.94668" lon="1.79387">
        <ele>269.4</ele>
        <time>2022-08-14T08:17:18Z</time>
      </trkpt>
      <trkpt lat="43.9467" lon="1.79392">
        <ele>269.4</ele>
        <time>2022-08-14T08:17:19Z</time>
      </trkpt>
      <trkpt lat="43.94674" lon="1.79404">
        <ele>269.4</ele>
        <time>2022-08-14T08:17:21Z</time>
      </trkpt>
      <trkpt lat="43.94676" lon="1.79409">
        <ele>269.4</ele>
        <time>2022-08-14T08:17:22Z</time>
      </trkpt>
      <trkpt lat="43.94678" lon="1.79414">
        <ele>269.4</ele>
        <time>2022-08-14T08:17:23Z</time>
      </trkpt>
      <trkpt lat="43.9468" lon="1.7942">
        <ele>269.6</ele>
        <time>2022-08-14T08:17:24Z</time>
      </trkpt>
      <trkpt lat="43.94682" lon="1.79425">
        <ele>269.6</ele>
        <time>2022-08-14T08:17:25Z</time>
      </trkpt>
      <trkpt lat="43.94703" lon="1.79468">
        <ele>271.2</ele>
        <time>2022-08-14T08:17:33Z</time>
      </trkpt>
      <trkpt lat="43.94711" lon="1.79485">
        <ele>272</ele>
        <time>2022-08-14T08:17:36Z</time>
      </trkpt>
      <trkpt lat="43.94717" lon="1.79496">
        <ele>272.4</ele>
        <time>2022-08-14T08:17:38Z</time>
      </trkpt>
      <trkpt lat="43.94726" lon="1.79513">
        <ele>273.2</ele>
        <time>2022-08-14T08:17:41Z</time>
      </trkpt>
      <trkpt lat="43.94729" lon="1.79518">
        <ele>273.6</ele>
        <time>2022-08-14T08:17:42Z</time>
      </trkpt>
      <trkpt lat="43.94732" lon="1.79524">
        <ele>273.6</ele>
        <time>2022-08-14T08:17:43Z</time>
      </trkpt>
      <trkpt lat="43.94735" lon="1.79529">
        <ele>273.8</ele>
        <time>2022-08-14T08:17:44Z</time>
      </trkpt>
      <trkpt lat="43.94738" lon="1.79535">
        <ele>274</ele>
        <time>2022-08-14T08:17:45Z</time>
      </trkpt>
      <trkpt lat="43.9474" lon="1.79541">
        <ele>274.2</ele>
        <time>2022-08-14T08:17:46Z</time>
      </trkpt>
      <trkpt lat="43.94743" lon="1.79546">
        <ele>274.6</ele>
        <time>2022-08-14T08:17:47Z</time>
      </trkpt>
      <trkpt lat="43.94746" lon="1.79552">
        <ele>274.6</ele>
        <time>2022-08-14T08:17:48Z</time>
      </trkpt>
      <trkpt lat="43.94749" lon="1.79558">
        <ele>275</ele>
        <time>2022-08-14T08:17:49Z</time>
      </trkpt>
      <trkpt lat="43.94752" lon="1.79563">
        <ele>275.2</ele>
        <time>2022-08-14T08:17:50Z</time>
      </trkpt>
      <trkpt lat="43.94755" lon="1.79568">
        <ele>275.4</ele>
        <time>2022-08-14T08:17:51Z</time>
      </trkpt>
      <trkpt lat="43.94758" lon="1.79574">
        <ele>275.6</ele>
        <time>2022-08-14T08:17:52Z</time>
      </trkpt>
      <trkpt lat="43.94761" lon="1.79579">
        <ele>275.8</ele>
        <time>2022-08-14T08:17:53Z</time>
      </trkpt>
      <trkpt lat="43.94764" lon="1.79584">
        <ele>276.2</ele>
        <time>2022-08-14T08:17:54Z</time>
      </trkpt>
      <trkpt lat="43.94767" lon="1.7959">
        <ele>276.2</ele>
        <time>2022-08-14T08:17:55Z</time>
      </trkpt>
      <trkpt lat="43.94769" lon="1.79595">
        <ele>276.4</ele>
        <time>2022-08-14T08:17:56Z</time>
      </trkpt>
      <trkpt lat="43.94772" lon="1.79601">
        <ele>276.4</ele>
        <time>2022-08-14T08:17:57Z</time>
      </trkpt>
      <trkpt lat="43.94775" lon="1.79605">
        <ele>276.8</ele>
        <time>2022-08-14T08:17:58Z</time>
      </trkpt>
      <trkpt lat="43.94778" lon="1.79611">
        <ele>276.8</ele>
        <time>2022-08-14T08:17:59Z</time>
      </trkpt>
      <trkpt lat="43.9478" lon="1.79615">
        <ele>277</ele>
        <time>2022-08-14T08:18:00Z</time>
      </trkpt>
      <trkpt lat="43.94783" lon="1.7962">
        <ele>277.2</ele>
        <time>2022-08-14T08:18:01Z</time>
      </trkpt>
      <trkpt lat="43.94785" lon="1.79625">
        <ele>277.2</ele>
        <time>2022-08-14T08:18:02Z</time>
      </trkpt>
      <trkpt lat="43.94787" lon="1.7963">
        <ele>277.2</ele>
        <time>2022-08-14T08:18:03Z</time>
      </trkpt>
      <trkpt lat="43.94789" lon="1.79634">
        <ele>277.2</ele>
        <time>2022-08-14T08:18:04Z</time>
      </trkpt>
      <trkpt lat="43.94792" lon="1.79638">
        <ele>277.4</ele>
        <time>2022-08-14T08:18:05Z</time>
      </trkpt>
      <trkpt lat="43.94794" lon="1.79642">
        <ele>277.4</ele>
        <time>2022-08-14T08:18:06Z</time>
      </trkpt>
      <trkpt lat="43.94796" lon="1.79646">
        <ele>277.4</ele>
        <time>2022-08-14T08:18:07Z</time>
      </trkpt>
      <trkpt lat="43.94798" lon="1.79649">
        <ele>277.6</ele>
        <time>2022-08-14T08:18:08Z</time>
      </trkpt>
      <trkpt lat="43.94799" lon="1.79652">
        <ele>277.6</ele>
        <time>2022-08-14T08:18:09Z</time>
      </trkpt>
      <trkpt lat="43.94801" lon="1.79655">
        <ele>277.6</ele>
        <time>2022-08-14T08:18:10Z</time>
      </trkpt>
      <trkpt lat="43.94804" lon="1.79658">
        <ele>277.6</ele>
        <time>2022-08-14T08:18:11Z</time>
      </trkpt>
      <trkpt lat="43.94807" lon="1.7966">
        <ele>277.8</ele>
        <time>2022-08-14T08:18:12Z</time>
      </trkpt>
      <trkpt lat="43.9481" lon="1.79659">
        <ele>277.8</ele>
        <time>2022-08-14T08:18:13Z</time>
      </trkpt>
      <trkpt lat="43.94813" lon="1.79658">
        <ele>277.8</ele>
        <time>2022-08-14T08:18:14Z</time>
      </trkpt>
      <trkpt lat="43.94815" lon="1.79655">
        <ele>278</ele>
        <time>2022-08-14T08:18:15Z</time>
      </trkpt>
      <trkpt lat="43.94818" lon="1.79652">
        <ele>278</ele>
        <time>2022-08-14T08:18:16Z</time>
      </trkpt>
      <trkpt lat="43.9482" lon="1.7965">
        <ele>278</ele>
        <time>2022-08-14T08:18:17Z</time>
      </trkpt>
      <trkpt lat="43.94823" lon="1.79648">
        <ele>278.2</ele>
        <time>2022-08-14T08:18:18Z</time>
      </trkpt>
      <trkpt lat="43.94826" lon="1.79646">
        <ele>278.6</ele>
        <time>2022-08-14T08:18:19Z</time>
      </trkpt>
      <trkpt lat="43.94829" lon="1.79644">
        <ele>278.6</ele>
        <time>2022-08-14T08:18:20Z</time>
      </trkpt>
      <trkpt lat="43.94832" lon="1.79641">
        <ele>278.8</ele>
        <time>2022-08-14T08:18:21Z</time>
      </trkpt>
      <trkpt lat="43.94835" lon="1.79639">
        <ele>279</ele>
        <time>2022-08-14T08:18:22Z</time>
      </trkpt>
      <trkpt lat="43.94837" lon="1.79636">
        <ele>279.4</ele>
        <time>2022-08-14T08:18:23Z</time>
      </trkpt>
      <trkpt lat="43.9484" lon="1.79633">
        <ele>279.6</ele>
        <time>2022-08-14T08:18:24Z</time>
      </trkpt>
      <trkpt lat="43.94843" lon="1.79631">
        <ele>279.6</ele>
        <time>2022-08-14T08:18:25Z</time>
      </trkpt>
      <trkpt lat="43.94846" lon="1.79629">
        <ele>279.6</ele>
        <time>2022-08-14T08:18:26Z</time>
      </trkpt>
      <trkpt lat="43.94848" lon="1.79627">
        <ele>279.8</ele>
        <time>2022-08-14T08:18:27Z</time>
      </trkpt>
      <trkpt lat="43.94851" lon="1.79624">
        <ele>280</ele>
        <time>2022-08-14T08:18:28Z</time>
      </trkpt>
      <trkpt lat="43.94853" lon="1.79622">
        <ele>280.2</ele>
        <time>2022-08-14T08:18:29Z</time>
      </trkpt>
      <trkpt lat="43.94856" lon="1.7962">
        <ele>280.4</ele>
        <time>2022-08-14T08:18:30Z</time>
      </trkpt>
      <trkpt lat="43.94859" lon="1.79618">
        <ele>280.4</ele>
        <time>2022-08-14T08:18:31Z</time>
      </trkpt>
      <trkpt lat="43.94861" lon="1.79616">
        <ele>280.6</ele>
        <time>2022-08-14T08:18:32Z</time>
      </trkpt>
      <trkpt lat="43.94863" lon="1.79614">
        <ele>280.6</ele>
        <time>2022-08-14T08:18:33Z</time>
      </trkpt>
      <trkpt lat="43.94866" lon="1.79612">
        <ele>280.8</ele>
        <time>2022-08-14T08:18:34Z</time>
      </trkpt>
      <trkpt lat="43.94868" lon="1.7961">
        <ele>280.8</ele>
        <time>2022-08-14T08:18:35Z</time>
      </trkpt>
      <trkpt lat="43.94871" lon="1.79608">
        <ele>280.8</ele>
        <time>2022-08-14T08:18:36Z</time>
      </trkpt>
      <trkpt lat="43.94874" lon="1.79606">
        <ele>281</ele>
        <time>2022-08-14T08:18:37Z</time>
      </trkpt>
      <trkpt lat="43.94876" lon="1.79604">
        <ele>281</ele>
        <time>2022-08-14T08:18:38Z</time>
      </trkpt>
      <trkpt lat="43.94879" lon="1.79601">
        <ele>281.4</ele>
        <time>2022-08-14T08:18:39Z</time>
      </trkpt>
      <trkpt lat="43.94881" lon="1.79599">
        <ele>281.6</ele>
        <time>2022-08-14T08:18:40Z</time>
      </trkpt>
      <trkpt lat="43.94884" lon="1.79597">
        <ele>281.6</ele>
        <time>2022-08-14T08:18:41Z</time>
      </trkpt>
      <trkpt lat="43.94887" lon="1.79595">
        <ele>281.8</ele>
        <time>2022-08-14T08:18:42Z</time>
      </trkpt>
      <trkpt lat="43.9489" lon="1.79592">
        <ele>282</ele>
        <time>2022-08-14T08:18:43Z</time>
      </trkpt>
      <trkpt lat="43.94893" lon="1.7959">
        <ele>282.2</ele>
        <time>2022-08-14T08:18:44Z</time>
      </trkpt>
      <trkpt lat="43.94896" lon="1.79588">
        <ele>282.2</ele>
        <time>2022-08-14T08:18:45Z</time>
      </trkpt>
      <trkpt lat="43.94899" lon="1.79585">
        <ele>282.2</ele>
        <time>2022-08-14T08:18:46Z</time>
      </trkpt>
      <trkpt lat="43.94903" lon="1.79583">
        <ele>282.2</ele>
        <time>2022-08-14T08:18:47Z</time>
      </trkpt>
      <trkpt lat="43.94905" lon="1.7958">
        <ele>282.4</ele>
        <time>2022-08-14T08:18:48Z</time>
      </trkpt>
      <trkpt lat="43.94908" lon="1.79578">
        <ele>282.4</ele>
        <time>2022-08-14T08:18:49Z</time>
      </trkpt>
      <trkpt lat="43.94911" lon="1.79575">
        <ele>282.4</ele>
        <time>2022-08-14T08:18:50Z</time>
      </trkpt>
      <trkpt lat="43.94915" lon="1.79573">
        <ele>282.4</ele>
        <time>2022-08-14T08:18:51Z</time>
      </trkpt>
      <trkpt lat="43.94918" lon="1.79571">
        <ele>282.4</ele>
        <time>2022-08-14T08:18:52Z</time>
      </trkpt>
      <trkpt lat="43.94921" lon="1.79568">
        <ele>282.6</ele>
        <time>2022-08-14T08:18:53Z</time>
      </trkpt>
      <trkpt lat="43.94924" lon="1.79566">
        <ele>282.6</ele>
        <time>2022-08-14T08:18:54Z</time>
      </trkpt>
      <trkpt lat="43.94927" lon="1.79564">
        <ele>282.6</ele>
        <time>2022-08-14T08:18:55Z</time>
      </trkpt>
      <trkpt lat="43.9493" lon="1.79561">
        <ele>282.6</ele>
        <time>2022-08-14T08:18:56Z</time>
      </trkpt>
      <trkpt lat="43.94932" lon="1.79559">
        <ele>282.6</ele>
        <time>2022-08-14T08:18:57Z</time>
      </trkpt>
      <trkpt lat="43.94935" lon="1.79555">
        <ele>282.6</ele>
        <time>2022-08-14T08:18:58Z</time>
      </trkpt>
      <trkpt lat="43.94957" lon="1.79522">
        <ele>281.8</ele>
        <time>2022-08-14T08:19:06Z</time>
      </trkpt>
      <trkpt lat="43.9496" lon="1.79518">
        <ele>281.6</ele>
        <time>2022-08-14T08:19:07Z</time>
      </trkpt>
      <trkpt lat="43.94962" lon="1.79514">
        <ele>281.6</ele>
        <time>2022-08-14T08:19:08Z</time>
      </trkpt>
      <trkpt lat="43.94965" lon="1.79509">
        <ele>281.4</ele>
        <time>2022-08-14T08:19:09Z</time>
      </trkpt>
      <trkpt lat="43.94975" lon="1.79491">
        <ele>281</ele>
        <time>2022-08-14T08:19:13Z</time>
      </trkpt>
      <trkpt lat="43.94978" lon="1.79486">
        <ele>280.6</ele>
        <time>2022-08-14T08:19:14Z</time>
      </trkpt>
      <trkpt lat="43.94984" lon="1.79475">
        <ele>280.6</ele>
        <time>2022-08-14T08:19:16Z</time>
      </trkpt>
      <trkpt lat="43.94991" lon="1.79465">
        <ele>280.4</ele>
        <time>2022-08-14T08:19:18Z</time>
      </trkpt>
      <trkpt lat="43.94993" lon="1.79461">
        <ele>280.4</ele>
        <time>2022-08-14T08:19:19Z</time>
      </trkpt>
      <trkpt lat="43.94996" lon="1.79456">
        <ele>280.2</ele>
        <time>2022-08-14T08:19:20Z</time>
      </trkpt>
      <trkpt lat="43.95001" lon="1.79446">
        <ele>280.2</ele>
        <time>2022-08-14T08:19:22Z</time>
      </trkpt>
      <trkpt lat="43.95004" lon="1.79442">
        <ele>280</ele>
        <time>2022-08-14T08:19:23Z</time>
      </trkpt>
      <trkpt lat="43.95024" lon="1.79406">
        <ele>279</ele>
        <time>2022-08-14T08:19:30Z</time>
      </trkpt>
      <trkpt lat="43.9503" lon="1.79394">
        <ele>278.6</ele>
        <time>2022-08-14T08:19:32Z</time>
      </trkpt>
      <trkpt lat="43.95037" lon="1.79382">
        <ele>278.6</ele>
        <time>2022-08-14T08:19:34Z</time>
      </trkpt>
      <trkpt lat="43.95042" lon="1.79369">
        <ele>277.8</ele>
        <time>2022-08-14T08:19:36Z</time>
      </trkpt>
      <trkpt lat="43.95045" lon="1.79363">
        <ele>277.4</ele>
        <time>2022-08-14T08:19:37Z</time>
      </trkpt>
      <trkpt lat="43.95047" lon="1.79356">
        <ele>277.4</ele>
        <time>2022-08-14T08:19:38Z</time>
      </trkpt>
      <trkpt lat="43.95049" lon="1.7935">
        <ele>277</ele>
        <time>2022-08-14T08:19:39Z</time>
      </trkpt>
      <trkpt lat="43.9505" lon="1.79343">
        <ele>276.8</ele>
        <time>2022-08-14T08:19:40Z</time>
      </trkpt>
      <trkpt lat="43.95061" lon="1.79302">
        <ele>275.8</ele>
        <time>2022-08-14T08:19:46Z</time>
      </trkpt>
      <trkpt lat="43.95065" lon="1.79287">
        <ele>275.6</ele>
        <time>2022-08-14T08:19:48Z</time>
      </trkpt>
      <trkpt lat="43.95088" lon="1.79229">
        <ele>275.8</ele>
        <time>2022-08-14T08:19:56Z</time>
      </trkpt>
      <trkpt lat="43.95116" lon="1.79164">
        <ele>275.4</ele>
        <time>2022-08-14T08:20:04Z</time>
      </trkpt>
      <trkpt lat="43.95143" lon="1.791">
        <ele>275.2</ele>
        <time>2022-08-14T08:20:11Z</time>
      </trkpt>
      <trkpt lat="43.95151" lon="1.79081">
        <ele>275.2</ele>
        <time>2022-08-14T08:20:13Z</time>
      </trkpt>
      <trkpt lat="43.95154" lon="1.79071">
        <ele>275.2</ele>
        <time>2022-08-14T08:20:14Z</time>
      </trkpt>
      <trkpt lat="43.95159" lon="1.79062">
        <ele>275.4</ele>
        <time>2022-08-14T08:20:15Z</time>
      </trkpt>
      <trkpt lat="43.95172" lon="1.79034">
        <ele>275.4</ele>
        <time>2022-08-14T08:20:18Z</time>
      </trkpt>
      <trkpt lat="43.95181" lon="1.79015">
        <ele>275.6</ele>
        <time>2022-08-14T08:20:20Z</time>
      </trkpt>
      <trkpt lat="43.95198" lon="1.78979">
        <ele>275.6</ele>
        <time>2022-08-14T08:20:24Z</time>
      </trkpt>
      <trkpt lat="43.95203" lon="1.7897">
        <ele>275.8</ele>
        <time>2022-08-14T08:20:25Z</time>
      </trkpt>
      <trkpt lat="43.95212" lon="1.78952">
        <ele>275.6</ele>
        <time>2022-08-14T08:20:27Z</time>
      </trkpt>
      <trkpt lat="43.95225" lon="1.78923">
        <ele>275.6</ele>
        <time>2022-08-14T08:20:30Z</time>
      </trkpt>
      <trkpt lat="43.95234" lon="1.78904">
        <ele>275.8</ele>
        <time>2022-08-14T08:20:32Z</time>
      </trkpt>
      <trkpt lat="43.95239" lon="1.78895">
        <ele>275.8</ele>
        <time>2022-08-14T08:20:33Z</time>
      </trkpt>
      <trkpt lat="43.95243" lon="1.78886">
        <ele>275.8</ele>
        <time>2022-08-14T08:20:34Z</time>
      </trkpt>
      <trkpt lat="43.95247" lon="1.78877">
        <ele>275.8</ele>
        <time>2022-08-14T08:20:35Z</time>
      </trkpt>
      <trkpt lat="43.95256" lon="1.78859">
        <ele>275.8</ele>
        <time>2022-08-14T08:20:37Z</time>
      </trkpt>
      <trkpt lat="43.9526" lon="1.7885">
        <ele>275.8</ele>
        <time>2022-08-14T08:20:38Z</time>
      </trkpt>
      <trkpt lat="43.95265" lon="1.78842">
        <ele>275.8</ele>
        <time>2022-08-14T08:20:39Z</time>
      </trkpt>
      <trkpt lat="43.95269" lon="1.78833">
        <ele>275.8</ele>
        <time>2022-08-14T08:20:40Z</time>
      </trkpt>
      <trkpt lat="43.95272" lon="1.78824">
        <ele>275.6</ele>
        <time>2022-08-14T08:20:41Z</time>
      </trkpt>
      <trkpt lat="43.95276" lon="1.78816">
        <ele>275.6</ele>
        <time>2022-08-14T08:20:42Z</time>
      </trkpt>
      <trkpt lat="43.9528" lon="1.78807">
        <ele>275.4</ele>
        <time>2022-08-14T08:20:43Z</time>
      </trkpt>
      <trkpt lat="43.95284" lon="1.78799">
        <ele>275.2</ele>
        <time>2022-08-14T08:20:44Z</time>
      </trkpt>
      <trkpt lat="43.95287" lon="1.78791">
        <ele>275</ele>
        <time>2022-08-14T08:20:45Z</time>
      </trkpt>
      <trkpt lat="43.95291" lon="1.78784">
        <ele>275</ele>
        <time>2022-08-14T08:20:46Z</time>
      </trkpt>
      <trkpt lat="43.95295" lon="1.78777">
        <ele>274.6</ele>
        <time>2022-08-14T08:20:47Z</time>
      </trkpt>
      <trkpt lat="43.95299" lon="1.7877">
        <ele>274.2</ele>
        <time>2022-08-14T08:20:48Z</time>
      </trkpt>
      <trkpt lat="43.95302" lon="1.78764">
        <ele>274.2</ele>
        <time>2022-08-14T08:20:49Z</time>
      </trkpt>
      <trkpt lat="43.95306" lon="1.78758">
        <ele>274.2</ele>
        <time>2022-08-14T08:20:50Z</time>
      </trkpt>
      <trkpt lat="43.95308" lon="1.78753">
        <ele>274.2</ele>
        <time>2022-08-14T08:20:51Z</time>
      </trkpt>
      <trkpt lat="43.95311" lon="1.78748">
        <ele>274.2</ele>
        <time>2022-08-14T08:20:52Z</time>
      </trkpt>
      <trkpt lat="43.95313" lon="1.78743">
        <ele>274.4</ele>
        <time>2022-08-14T08:20:53Z</time>
      </trkpt>
      <trkpt lat="43.95316" lon="1.78738">
        <ele>274.4</ele>
        <time>2022-08-14T08:20:54Z</time>
      </trkpt>
      <trkpt lat="43.95318" lon="1.78734">
        <ele>274.6</ele>
        <time>2022-08-14T08:20:55Z</time>
      </trkpt>
      <trkpt lat="43.9532" lon="1.7873">
        <ele>274.8</ele>
        <time>2022-08-14T08:20:56Z</time>
      </trkpt>
      <trkpt lat="43.95323" lon="1.78725">
        <ele>274.8</ele>
        <time>2022-08-14T08:20:57Z</time>
      </trkpt>
      <trkpt lat="43.95325" lon="1.78721">
        <ele>274.8</ele>
        <time>2022-08-14T08:20:58Z</time>
      </trkpt>
      <trkpt lat="43.95327" lon="1.78717">
        <ele>275</ele>
        <time>2022-08-14T08:20:59Z</time>
      </trkpt>
      <trkpt lat="43.95329" lon="1.78712">
        <ele>275.2</ele>
        <time>2022-08-14T08:21:00Z</time>
      </trkpt>
      <trkpt lat="43.95332" lon="1.78708">
        <ele>275.4</ele>
        <time>2022-08-14T08:21:01Z</time>
      </trkpt>
      <trkpt lat="43.95334" lon="1.78704">
        <ele>275.4</ele>
        <time>2022-08-14T08:21:02Z</time>
      </trkpt>
      <trkpt lat="43.95335" lon="1.787">
        <ele>275.4</ele>
        <time>2022-08-14T08:21:03Z</time>
      </trkpt>
      <trkpt lat="43.95337" lon="1.78696">
        <ele>275.6</ele>
        <time>2022-08-14T08:21:04Z</time>
      </trkpt>
      <trkpt lat="43.95339" lon="1.78692">
        <ele>275.6</ele>
        <time>2022-08-14T08:21:05Z</time>
      </trkpt>
      <trkpt lat="43.95341" lon="1.78689">
        <ele>275.6</ele>
        <time>2022-08-14T08:21:06Z</time>
      </trkpt>
      <trkpt lat="43.95343" lon="1.78685">
        <ele>275.6</ele>
        <time>2022-08-14T08:21:07Z</time>
      </trkpt>
      <trkpt lat="43.95346" lon="1.78677">
        <ele>275.6</ele>
        <time>2022-08-14T08:21:09Z</time>
      </trkpt>
      <trkpt lat="43.95347" lon="1.78673">
        <ele>275.8</ele>
        <time>2022-08-14T08:21:10Z</time>
      </trkpt>
      <trkpt lat="43.95353" lon="1.78653">
        <ele>276</ele>
        <time>2022-08-14T08:21:15Z</time>
      </trkpt>
      <trkpt lat="43.95353" lon="1.78649">
        <ele>276.2</ele>
        <time>2022-08-14T08:21:16Z</time>
      </trkpt>
      <trkpt lat="43.95354" lon="1.78645">
        <ele>276.4</ele>
        <time>2022-08-14T08:21:17Z</time>
      </trkpt>
      <trkpt lat="43.95354" lon="1.78641">
        <ele>276.4</ele>
        <time>2022-08-14T08:21:18Z</time>
      </trkpt>
      <trkpt lat="43.95355" lon="1.78633">
        <ele>276.6</ele>
        <time>2022-08-14T08:21:20Z</time>
      </trkpt>
      <trkpt lat="43.95356" lon="1.78629">
        <ele>276.6</ele>
        <time>2022-08-14T08:21:21Z</time>
      </trkpt>
      <trkpt lat="43.95357" lon="1.78625">
        <ele>276.8</ele>
        <time>2022-08-14T08:21:22Z</time>
      </trkpt>
      <trkpt lat="43.95358" lon="1.78617">
        <ele>277</ele>
        <time>2022-08-14T08:21:24Z</time>
      </trkpt>
      <trkpt lat="43.95359" lon="1.78613">
        <ele>277</ele>
        <time>2022-08-14T08:21:25Z</time>
      </trkpt>
      <trkpt lat="43.9536" lon="1.78609">
        <ele>277</ele>
        <time>2022-08-14T08:21:26Z</time>
      </trkpt>
      <trkpt lat="43.95361" lon="1.78606">
        <ele>277.2</ele>
        <time>2022-08-14T08:21:27Z</time>
      </trkpt>
      <trkpt lat="43.95362" lon="1.78602">
        <ele>277.2</ele>
        <time>2022-08-14T08:21:28Z</time>
      </trkpt>
      <trkpt lat="43.95363" lon="1.78598">
        <ele>277.2</ele>
        <time>2022-08-14T08:21:29Z</time>
      </trkpt>
      <trkpt lat="43.95363" lon="1.78594">
        <ele>277.2</ele>
        <time>2022-08-14T08:21:30Z</time>
      </trkpt>
      <trkpt lat="43.95365" lon="1.78588">
        <ele>277.4</ele>
        <time>2022-08-14T08:21:32Z</time>
      </trkpt>
      <trkpt lat="43.95366" lon="1.78585">
        <ele>277.4</ele>
        <time>2022-08-14T08:21:33Z</time>
      </trkpt>
      <trkpt lat="43.95367" lon="1.78582">
        <ele>277.4</ele>
        <time>2022-08-14T08:21:34Z</time>
      </trkpt>
      <trkpt lat="43.95368" lon="1.7858">
        <ele>277.4</ele>
        <time>2022-08-14T08:21:35Z</time>
      </trkpt>
      <trkpt lat="43.95368" lon="1.78578">
        <ele>277.6</ele>
        <time>2022-08-14T08:21:36Z</time>
      </trkpt>
      <trkpt lat="43.95368" lon="1.78577">
        <ele>277.6</ele>
        <time>2022-08-14T08:21:37Z</time>
      </trkpt>
      <trkpt lat="43.95369" lon="1.78576">
        <ele>277.6</ele>
        <time>2022-08-14T08:21:38Z</time>
      </trkpt>
      <trkpt lat="43.95369" lon="1.78576">
        <ele>277.8</ele>
        <time>2022-08-14T08:21:41Z</time>
      </trkpt>
      <trkpt lat="43.95369" lon="1.78576">
        <ele>277.8</ele>
        <time>2022-08-14T08:21:42Z</time>
      </trkpt>
      <trkpt lat="43.9537" lon="1.78573">
        <ele>277.2</ele>
        <time>2022-08-14T08:22:29Z</time>
      </trkpt>
      <trkpt lat="43.9537" lon="1.78572">
        <ele>277.2</ele>
        <time>2022-08-14T08:22:30Z</time>
      </trkpt>
      <trkpt lat="43.95372" lon="1.78566">
        <ele>277.2</ele>
        <time>2022-08-14T08:22:32Z</time>
      </trkpt>
      <trkpt lat="43.95376" lon="1.78551">
        <ele>277.6</ele>
        <time>2022-08-14T08:22:37Z</time>
      </trkpt>
      <trkpt lat="43.95379" lon="1.78545">
        <ele>277.6</ele>
        <time>2022-08-14T08:22:39Z</time>
      </trkpt>
      <trkpt lat="43.9538" lon="1.78542">
        <ele>277.6</ele>
        <time>2022-08-14T08:22:40Z</time>
      </trkpt>
      <trkpt lat="43.95381" lon="1.78539">
        <ele>277.8</ele>
        <time>2022-08-14T08:22:41Z</time>
      </trkpt>
      <trkpt lat="43.9539" lon="1.78521">
        <ele>278</ele>
        <time>2022-08-14T08:22:47Z</time>
      </trkpt>
      <trkpt lat="43.95401" lon="1.78499">
        <ele>278</ele>
        <time>2022-08-14T08:22:54Z</time>
      </trkpt>
      <trkpt lat="43.95416" lon="1.78469">
        <ele>278.4</ele>
        <time>2022-08-14T08:23:03Z</time>
      </trkpt>
      <trkpt lat="43.95418" lon="1.78466">
        <ele>278.4</ele>
        <time>2022-08-14T08:23:04Z</time>
      </trkpt>
      <trkpt lat="43.9542" lon="1.78462">
        <ele>278.4</ele>
        <time>2022-08-14T08:23:05Z</time>
      </trkpt>
      <trkpt lat="43.95422" lon="1.78459">
        <ele>278.4</ele>
        <time>2022-08-14T08:23:06Z</time>
      </trkpt>
      <trkpt lat="43.95424" lon="1.78455">
        <ele>278.4</ele>
        <time>2022-08-14T08:23:07Z</time>
      </trkpt>
      <trkpt lat="43.95426" lon="1.78453">
        <ele>278.4</ele>
        <time>2022-08-14T08:23:08Z</time>
      </trkpt>
      <trkpt lat="43.95432" lon="1.78445">
        <ele>278.8</ele>
        <time>2022-08-14T08:23:11Z</time>
      </trkpt>
      <trkpt lat="43.95436" lon="1.78439">
        <ele>278.8</ele>
        <time>2022-08-14T08:23:13Z</time>
      </trkpt>
      <trkpt lat="43.95438" lon="1.78435">
        <ele>278.8</ele>
        <time>2022-08-14T08:23:14Z</time>
      </trkpt>
      <trkpt lat="43.9544" lon="1.78433">
        <ele>279</ele>
        <time>2022-08-14T08:23:15Z</time>
      </trkpt>
      <trkpt lat="43.95447" lon="1.78423">
        <ele>279</ele>
        <time>2022-08-14T08:23:18Z</time>
      </trkpt>
      <trkpt lat="43.9545" lon="1.78421">
        <ele>279.2</ele>
        <time>2022-08-14T08:23:19Z</time>
      </trkpt>
      <trkpt lat="43.95474" lon="1.78403">
        <ele>279.8</ele>
        <time>2022-08-14T08:23:26Z</time>
      </trkpt>
      <trkpt lat="43.95493" lon="1.78394">
        <ele>279.8</ele>
        <time>2022-08-14T08:23:31Z</time>
      </trkpt>
      <trkpt lat="43.95498" lon="1.78391">
        <ele>280</ele>
        <time>2022-08-14T08:23:32Z</time>
      </trkpt>
      <trkpt lat="43.95505" lon="1.78386">
        <ele>280</ele>
        <time>2022-08-14T08:23:34Z</time>
      </trkpt>
      <trkpt lat="43.95509" lon="1.78384">
        <ele>280.2</ele>
        <time>2022-08-14T08:23:35Z</time>
      </trkpt>
      <trkpt lat="43.95512" lon="1.78381">
        <ele>280.2</ele>
        <time>2022-08-14T08:23:36Z</time>
      </trkpt>
      <trkpt lat="43.95515" lon="1.78378">
        <ele>280.4</ele>
        <time>2022-08-14T08:23:37Z</time>
      </trkpt>
      <trkpt lat="43.95524" lon="1.78372">
        <ele>280.6</ele>
        <time>2022-08-14T08:23:40Z</time>
      </trkpt>
      <trkpt lat="43.95534" lon="1.78363">
        <ele>280.6</ele>
        <time>2022-08-14T08:23:43Z</time>
      </trkpt>
      <trkpt lat="43.95546" lon="1.78354">
        <ele>280.4</ele>
        <time>2022-08-14T08:23:46Z</time>
      </trkpt>
      <trkpt lat="43.95575" lon="1.78337">
        <ele>280.4</ele>
        <time>2022-08-14T08:23:52Z</time>
      </trkpt>
      <trkpt lat="43.95608" lon="1.78323">
        <ele>279.2</ele>
        <time>2022-08-14T08:23:58Z</time>
      </trkpt>
      <trkpt lat="43.95619" lon="1.78317">
        <ele>278.8</ele>
        <time>2022-08-14T08:24:00Z</time>
      </trkpt>
      <trkpt lat="43.95631" lon="1.78312">
        <ele>278.6</ele>
        <time>2022-08-14T08:24:02Z</time>
      </trkpt>
      <trkpt lat="43.95636" lon="1.78308">
        <ele>278.4</ele>
        <time>2022-08-14T08:24:03Z</time>
      </trkpt>
      <trkpt lat="43.95641" lon="1.78305">
        <ele>278.2</ele>
        <time>2022-08-14T08:24:04Z</time>
      </trkpt>
      <trkpt lat="43.95647" lon="1.78302">
        <ele>278.2</ele>
        <time>2022-08-14T08:24:05Z</time>
      </trkpt>
      <trkpt lat="43.95651" lon="1.78299">
        <ele>278</ele>
        <time>2022-08-14T08:24:06Z</time>
      </trkpt>
      <trkpt lat="43.95656" lon="1.78297">
        <ele>278</ele>
        <time>2022-08-14T08:24:07Z</time>
      </trkpt>
      <trkpt lat="43.9566" lon="1.78293">
        <ele>278</ele>
        <time>2022-08-14T08:24:08Z</time>
      </trkpt>
      <trkpt lat="43.95664" lon="1.7829">
        <ele>277.8</ele>
        <time>2022-08-14T08:24:09Z</time>
      </trkpt>
      <trkpt lat="43.95669" lon="1.78285">
        <ele>277.8</ele>
        <time>2022-08-14T08:24:10Z</time>
      </trkpt>
      <trkpt lat="43.9568" lon="1.78271">
        <ele>277.6</ele>
        <time>2022-08-14T08:24:13Z</time>
      </trkpt>
      <trkpt lat="43.95684" lon="1.78267">
        <ele>277.6</ele>
        <time>2022-08-14T08:24:14Z</time>
      </trkpt>
      <trkpt lat="43.95689" lon="1.78265">
        <ele>277.6</ele>
        <time>2022-08-14T08:24:15Z</time>
      </trkpt>
      <trkpt lat="43.95693" lon="1.78261">
        <ele>277.4</ele>
        <time>2022-08-14T08:24:16Z</time>
      </trkpt>
      <trkpt lat="43.95697" lon="1.78259">
        <ele>277.4</ele>
        <time>2022-08-14T08:24:17Z</time>
      </trkpt>
      <trkpt lat="43.95714" lon="1.78247">
        <ele>277.2</ele>
        <time>2022-08-14T08:24:21Z</time>
      </trkpt>
      <trkpt lat="43.95717" lon="1.78244">
        <ele>277.4</ele>
        <time>2022-08-14T08:24:22Z</time>
      </trkpt>
      <trkpt lat="43.95721" lon="1.78242">
        <ele>277.4</ele>
        <time>2022-08-14T08:24:23Z</time>
      </trkpt>
      <trkpt lat="43.95725" lon="1.78239">
        <ele>277.4</ele>
        <time>2022-08-14T08:24:24Z</time>
      </trkpt>
      <trkpt lat="43.95741" lon="1.78226">
        <ele>277.6</ele>
        <time>2022-08-14T08:24:28Z</time>
      </trkpt>
      <trkpt lat="43.95745" lon="1.78223">
        <ele>277.8</ele>
        <time>2022-08-14T08:24:29Z</time>
      </trkpt>
      <trkpt lat="43.95749" lon="1.78219">
        <ele>277.8</ele>
        <time>2022-08-14T08:24:30Z</time>
      </trkpt>
      <trkpt lat="43.95752" lon="1.78216">
        <ele>277.8</ele>
        <time>2022-08-14T08:24:31Z</time>
      </trkpt>
      <trkpt lat="43.95756" lon="1.78215">
        <ele>277.8</ele>
        <time>2022-08-14T08:24:32Z</time>
      </trkpt>
      <trkpt lat="43.95759" lon="1.78214">
        <ele>278</ele>
        <time>2022-08-14T08:24:33Z</time>
      </trkpt>
      <trkpt lat="43.95763" lon="1.78214">
        <ele>278</ele>
        <time>2022-08-14T08:24:34Z</time>
      </trkpt>
      <trkpt lat="43.95766" lon="1.78214">
        <ele>278</ele>
        <time>2022-08-14T08:24:35Z</time>
      </trkpt>
      <trkpt lat="43.95769" lon="1.78213">
        <ele>278</ele>
        <time>2022-08-14T08:24:36Z</time>
      </trkpt>
      <trkpt lat="43.95773" lon="1.78212">
        <ele>278</ele>
        <time>2022-08-14T08:24:37Z</time>
      </trkpt>
      <trkpt lat="43.95776" lon="1.78212">
        <ele>278</ele>
        <time>2022-08-14T08:24:38Z</time>
      </trkpt>
      <trkpt lat="43.95777" lon="1.78212">
        <ele>278</ele>
        <time>2022-08-14T08:24:39Z</time>
      </trkpt>
      <trkpt lat="43.95778" lon="1.78212">
        <ele>277.8</ele>
        <time>2022-08-14T08:24:40Z</time>
      </trkpt>
      <trkpt lat="43.95779" lon="1.78212">
        <ele>277.8</ele>
        <time>2022-08-14T08:24:41Z</time>
      </trkpt>
      <trkpt lat="43.95779" lon="1.78212">
        <ele>275.4</ele>
        <time>2022-08-14T08:25:08Z</time>
      </trkpt>
      <trkpt lat="43.9578" lon="1.78213">
        <ele>275.4</ele>
        <time>2022-08-14T08:25:09Z</time>
      </trkpt>
      <trkpt lat="43.95782" lon="1.78213">
        <ele>275.4</ele>
        <time>2022-08-14T08:25:10Z</time>
      </trkpt>
      <trkpt lat="43.95791" lon="1.7821">
        <ele>274.6</ele>
        <time>2022-08-14T08:25:15Z</time>
      </trkpt>
      <trkpt lat="43.95794" lon="1.78208">
        <ele>274.6</ele>
        <time>2022-08-14T08:25:16Z</time>
      </trkpt>
      <trkpt lat="43.95798" lon="1.78208">
        <ele>274.4</ele>
        <time>2022-08-14T08:25:17Z</time>
      </trkpt>
      <trkpt lat="43.95803" lon="1.78206">
        <ele>274.2</ele>
        <time>2022-08-14T08:25:18Z</time>
      </trkpt>
      <trkpt lat="43.95815" lon="1.78205">
        <ele>273.8</ele>
        <time>2022-08-14T08:25:20Z</time>
      </trkpt>
      <trkpt lat="43.95824" lon="1.78202">
        <ele>273.6</ele>
        <time>2022-08-14T08:25:21Z</time>
      </trkpt>
      <trkpt lat="43.95832" lon="1.78199">
        <ele>273</ele>
        <time>2022-08-14T08:25:22Z</time>
      </trkpt>
      <trkpt lat="43.95846" lon="1.78194">
        <ele>272.2</ele>
        <time>2022-08-14T08:25:24Z</time>
      </trkpt>
      <trkpt lat="43.95853" lon="1.78191">
        <ele>272</ele>
        <time>2022-08-14T08:25:25Z</time>
      </trkpt>
      <trkpt lat="43.9586" lon="1.78188">
        <ele>271</ele>
        <time>2022-08-14T08:25:26Z</time>
      </trkpt>
      <trkpt lat="43.95867" lon="1.78185">
        <ele>270.6</ele>
        <time>2022-08-14T08:25:27Z</time>
      </trkpt>
      <trkpt lat="43.95873" lon="1.78183">
        <ele>270.2</ele>
        <time>2022-08-14T08:25:28Z</time>
      </trkpt>
      <trkpt lat="43.95878" lon="1.78181">
        <ele>269.6</ele>
        <time>2022-08-14T08:25:29Z</time>
      </trkpt>
      <trkpt lat="43.95882" lon="1.7818">
        <ele>269.2</ele>
        <time>2022-08-14T08:25:30Z</time>
      </trkpt>
      <trkpt lat="43.95885" lon="1.78179">
        <ele>268.6</ele>
        <time>2022-08-14T08:25:31Z</time>
      </trkpt>
      <trkpt lat="43.95887" lon="1.78178">
        <ele>268.4</ele>
        <time>2022-08-14T08:25:32Z</time>
      </trkpt>
      <trkpt lat="43.95889" lon="1.78178">
        <ele>268</ele>
        <time>2022-08-14T08:25:33Z</time>
      </trkpt>
      <trkpt lat="43.9589" lon="1.78178">
        <ele>264.8</ele>
        <time>2022-08-14T08:26:30Z</time>
      </trkpt>
      <trkpt lat="43.95898" lon="1.78177">
        <ele>264.6</ele>
        <time>2022-08-14T08:26:33Z</time>
      </trkpt>
      <trkpt lat="43.95902" lon="1.7818">
        <ele>264.6</ele>
        <time>2022-08-14T08:26:34Z</time>
      </trkpt>
      <trkpt lat="43.95907" lon="1.78183">
        <ele>264.4</ele>
        <time>2022-08-14T08:26:35Z</time>
      </trkpt>
      <trkpt lat="43.95912" lon="1.78185">
        <ele>264.4</ele>
        <time>2022-08-14T08:26:36Z</time>
      </trkpt>
      <trkpt lat="43.95919" lon="1.78185">
        <ele>264</ele>
        <time>2022-08-14T08:26:37Z</time>
      </trkpt>
      <trkpt lat="43.95932" lon="1.78181">
        <ele>262.2</ele>
        <time>2022-08-14T08:26:39Z</time>
      </trkpt>
      <trkpt lat="43.95938" lon="1.78178">
        <ele>261.6</ele>
        <time>2022-08-14T08:26:40Z</time>
      </trkpt>
      <trkpt lat="43.95943" lon="1.78175">
        <ele>260.6</ele>
        <time>2022-08-14T08:26:41Z</time>
      </trkpt>
      <trkpt lat="43.95948" lon="1.78171">
        <ele>260.2</ele>
        <time>2022-08-14T08:26:42Z</time>
      </trkpt>
      <trkpt lat="43.95953" lon="1.78167">
        <ele>259.6</ele>
        <time>2022-08-14T08:26:43Z</time>
      </trkpt>
      <trkpt lat="43.95956" lon="1.78163">
        <ele>258.8</ele>
        <time>2022-08-14T08:26:44Z</time>
      </trkpt>
      <trkpt lat="43.95959" lon="1.78158">
        <ele>258.4</ele>
        <time>2022-08-14T08:26:45Z</time>
      </trkpt>
      <trkpt lat="43.95961" lon="1.78153">
        <ele>257.8</ele>
        <time>2022-08-14T08:26:46Z</time>
      </trkpt>
      <trkpt lat="43.95963" lon="1.78148">
        <ele>257.2</ele>
        <time>2022-08-14T08:26:47Z</time>
      </trkpt>
      <trkpt lat="43.95965" lon="1.78143">
        <ele>256.6</ele>
        <time>2022-08-14T08:26:48Z</time>
      </trkpt>
      <trkpt lat="43.95967" lon="1.78139">
        <ele>256.4</ele>
        <time>2022-08-14T08:26:49Z</time>
      </trkpt>
      <trkpt lat="43.95969" lon="1.78135">
        <ele>255.8</ele>
        <time>2022-08-14T08:26:50Z</time>
      </trkpt>
      <trkpt lat="43.95971" lon="1.7813">
        <ele>255.6</ele>
        <time>2022-08-14T08:26:51Z</time>
      </trkpt>
      <trkpt lat="43.95974" lon="1.78122">
        <ele>255</ele>
        <time>2022-08-14T08:26:53Z</time>
      </trkpt>
      <trkpt lat="43.95975" lon="1.78118">
        <ele>254.8</ele>
        <time>2022-08-14T08:26:54Z</time>
      </trkpt>
      <trkpt lat="43.95979" lon="1.78104">
        <ele>254.2</ele>
        <time>2022-08-14T08:26:57Z</time>
      </trkpt>
      <trkpt lat="43.9598" lon="1.78093">
        <ele>254</ele>
        <time>2022-08-14T08:26:59Z</time>
      </trkpt>
      <trkpt lat="43.9598" lon="1.78075">
        <ele>254</ele>
        <time>2022-08-14T08:27:02Z</time>
      </trkpt>
      <trkpt lat="43.9598" lon="1.78062">
        <ele>254.4</ele>
        <time>2022-08-14T08:27:04Z</time>
      </trkpt>
      <trkpt lat="43.9598" lon="1.78058">
        <ele>254.6</ele>
        <time>2022-08-14T08:27:05Z</time>
      </trkpt>
      <trkpt lat="43.95979" lon="1.78055">
        <ele>254.6</ele>
        <time>2022-08-14T08:27:06Z</time>
      </trkpt>
      <trkpt lat="43.95978" lon="1.78053">
        <ele>255.2</ele>
        <time>2022-08-14T08:27:07Z</time>
      </trkpt>
      <trkpt lat="43.95978" lon="1.78051">
        <ele>255.4</ele>
        <time>2022-08-14T08:27:08Z</time>
      </trkpt>
      <trkpt lat="43.95978" lon="1.78049">
        <ele>256</ele>
        <time>2022-08-14T08:27:09Z</time>
      </trkpt>
      <trkpt lat="43.95977" lon="1.78047">
        <ele>256.2</ele>
        <time>2022-08-14T08:27:10Z</time>
      </trkpt>
      <trkpt lat="43.95977" lon="1.78046">
        <ele>256.6</ele>
        <time>2022-08-14T08:27:11Z</time>
      </trkpt>
      <trkpt lat="43.95976" lon="1.78039">
        <ele>257.4</ele>
        <time>2022-08-14T08:27:13Z</time>
      </trkpt>
      <trkpt lat="43.95973" lon="1.78031">
        <ele>257.6</ele>
        <time>2022-08-14T08:27:15Z</time>
      </trkpt>
      <trkpt lat="43.95972" lon="1.78029">
        <ele>258</ele>
        <time>2022-08-14T08:27:16Z</time>
      </trkpt>
      <trkpt lat="43.95971" lon="1.78028">
        <ele>258</ele>
        <time>2022-08-14T08:27:17Z</time>
      </trkpt>
      <trkpt lat="43.9597" lon="1.78025">
        <ele>258.8</ele>
        <time>2022-08-14T08:27:18Z</time>
      </trkpt>
      <trkpt lat="43.95969" lon="1.78022">
        <ele>259</ele>
        <time>2022-08-14T08:27:19Z</time>
      </trkpt>
      <trkpt lat="43.95969" lon="1.78013">
        <ele>259.2</ele>
        <time>2022-08-14T08:27:21Z</time>
      </trkpt>
      <trkpt lat="43.95969" lon="1.78009">
        <ele>259.4</ele>
        <time>2022-08-14T08:27:22Z</time>
      </trkpt>
      <trkpt lat="43.95969" lon="1.78006">
        <ele>259.4</ele>
        <time>2022-08-14T08:27:23Z</time>
      </trkpt>
      <trkpt lat="43.95969" lon="1.78002">
        <ele>259.4</ele>
        <time>2022-08-14T08:27:24Z</time>
      </trkpt>
      <trkpt lat="43.95969" lon="1.77999">
        <ele>259.4</ele>
        <time>2022-08-14T08:27:25Z</time>
      </trkpt>
      <trkpt lat="43.95969" lon="1.77999">
        <ele>259.4</ele>
        <time>2022-08-14T08:27:26Z</time>
      </trkpt>
      <trkpt lat="43.95969" lon="1.77998">
        <ele>258.4</ele>
        <time>2022-08-14T08:28:01Z</time>
      </trkpt>
      <trkpt lat="43.95973" lon="1.77986">
        <ele>258.4</ele>
        <time>2022-08-14T08:28:05Z</time>
      </trkpt>
      <trkpt lat="43.95977" lon="1.77972">
        <ele>258.2</ele>
        <time>2022-08-14T08:28:08Z</time>
      </trkpt>
      <trkpt lat="43.95978" lon="1.77966">
        <ele>258.2</ele>
        <time>2022-08-14T08:28:09Z</time>
      </trkpt>
      <trkpt lat="43.9598" lon="1.77962">
        <ele>258</ele>
        <time>2022-08-14T08:28:10Z</time>
      </trkpt>
      <trkpt lat="43.95981" lon="1.77958">
        <ele>258</ele>
        <time>2022-08-14T08:28:11Z</time>
      </trkpt>
      <trkpt lat="43.95982" lon="1.77954">
        <ele>258</ele>
        <time>2022-08-14T08:28:12Z</time>
      </trkpt>
      <trkpt lat="43.95985" lon="1.7795">
        <ele>257.8</ele>
        <time>2022-08-14T08:28:13Z</time>
      </trkpt>
      <trkpt lat="43.95987" lon="1.77945">
        <ele>257.6</ele>
        <time>2022-08-14T08:28:14Z</time>
      </trkpt>
      <trkpt lat="43.95994" lon="1.77928">
        <ele>256.8</ele>
        <time>2022-08-14T08:28:17Z</time>
      </trkpt>
      <trkpt lat="43.95997" lon="1.77922">
        <ele>256.6</ele>
        <time>2022-08-14T08:28:18Z</time>
      </trkpt>
      <trkpt lat="43.95999" lon="1.77916">
        <ele>256.2</ele>
        <time>2022-08-14T08:28:19Z</time>
      </trkpt>
      <trkpt lat="43.96001" lon="1.77911">
        <ele>255.4</ele>
        <time>2022-08-14T08:28:20Z</time>
      </trkpt>
      <trkpt lat="43.96003" lon="1.77907">
        <ele>254.8</ele>
        <time>2022-08-14T08:28:21Z</time>
      </trkpt>
      <trkpt lat="43.96003" lon="1.77903">
        <ele>254</ele>
        <time>2022-08-14T08:28:22Z</time>
      </trkpt>
      <trkpt lat="43.96005" lon="1.77899">
        <ele>253.8</ele>
        <time>2022-08-14T08:28:23Z</time>
      </trkpt>
      <trkpt lat="43.96007" lon="1.77896">
        <ele>253.4</ele>
        <time>2022-08-14T08:28:24Z</time>
      </trkpt>
      <trkpt lat="43.96012" lon="1.77889">
        <ele>252.8</ele>
        <time>2022-08-14T08:28:26Z</time>
      </trkpt>
      <trkpt lat="43.96014" lon="1.77887">
        <ele>252.8</ele>
        <time>2022-08-14T08:28:27Z</time>
      </trkpt>
      <trkpt lat="43.96016" lon="1.77884">
        <ele>252</ele>
        <time>2022-08-14T08:28:28Z</time>
      </trkpt>
      <trkpt lat="43.96018" lon="1.77882">
        <ele>251.6</ele>
        <time>2022-08-14T08:28:29Z</time>
      </trkpt>
      <trkpt lat="43.96033" lon="1.7787">
        <ele>250.2</ele>
        <time>2022-08-14T08:28:33Z</time>
      </trkpt>
      <trkpt lat="43.96037" lon="1.77865">
        <ele>249.8</ele>
        <time>2022-08-14T08:28:34Z</time>
      </trkpt>
      <trkpt lat="43.96041" lon="1.77859">
        <ele>249</ele>
        <time>2022-08-14T08:28:35Z</time>
      </trkpt>
      <trkpt lat="43.96045" lon="1.7785">
        <ele>248.8</ele>
        <time>2022-08-14T08:28:36Z</time>
      </trkpt>
      <trkpt lat="43.96049" lon="1.77842">
        <ele>248.2</ele>
        <time>2022-08-14T08:28:37Z</time>
      </trkpt>
      <trkpt lat="43.96052" lon="1.77833">
        <ele>247.8</ele>
        <time>2022-08-14T08:28:38Z</time>
      </trkpt>
      <trkpt lat="43.96054" lon="1.77828">
        <ele>247.6</ele>
        <time>2022-08-14T08:28:39Z</time>
      </trkpt>
      <trkpt lat="43.96057" lon="1.77824">
        <ele>246.6</ele>
        <time>2022-08-14T08:28:40Z</time>
      </trkpt>
      <trkpt lat="43.96059" lon="1.7782">
        <ele>246.2</ele>
        <time>2022-08-14T08:28:41Z</time>
      </trkpt>
      <trkpt lat="43.96061" lon="1.77817">
        <ele>245.2</ele>
        <time>2022-08-14T08:28:42Z</time>
      </trkpt>
      <trkpt lat="43.96069" lon="1.77809">
        <ele>244</ele>
        <time>2022-08-14T08:28:45Z</time>
      </trkpt>
      <trkpt lat="43.96071" lon="1.77805">
        <ele>243.6</ele>
        <time>2022-08-14T08:28:46Z</time>
      </trkpt>
      <trkpt lat="43.96073" lon="1.77802">
        <ele>243</ele>
        <time>2022-08-14T08:28:47Z</time>
      </trkpt>
      <trkpt lat="43.96074" lon="1.77799">
        <ele>242.8</ele>
        <time>2022-08-14T08:28:48Z</time>
      </trkpt>
      <trkpt lat="43.96075" lon="1.77796">
        <ele>242.4</ele>
        <time>2022-08-14T08:28:49Z</time>
      </trkpt>
      <trkpt lat="43.96075" lon="1.77794">
        <ele>242.4</ele>
        <time>2022-08-14T08:28:50Z</time>
      </trkpt>
      <trkpt lat="43.96077" lon="1.7779">
        <ele>240.6</ele>
        <time>2022-08-14T08:29:05Z</time>
      </trkpt>
      <trkpt lat="43.96078" lon="1.77789">
        <ele>240.6</ele>
        <time>2022-08-14T08:29:06Z</time>
      </trkpt>
      <trkpt lat="43.96079" lon="1.77788">
        <ele>240.6</ele>
        <time>2022-08-14T08:29:07Z</time>
      </trkpt>
      <trkpt lat="43.96087" lon="1.77774">
        <ele>240.2</ele>
        <time>2022-08-14T08:29:12Z</time>
      </trkpt>
      <trkpt lat="43.9609" lon="1.77767">
        <ele>240</ele>
        <time>2022-08-14T08:29:14Z</time>
      </trkpt>
      <trkpt lat="43.96091" lon="1.77764">
        <ele>239.8</ele>
        <time>2022-08-14T08:29:15Z</time>
      </trkpt>
      <trkpt lat="43.96093" lon="1.77762">
        <ele>239.4</ele>
        <time>2022-08-14T08:29:16Z</time>
      </trkpt>
      <trkpt lat="43.96095" lon="1.7776">
        <ele>238.8</ele>
        <time>2022-08-14T08:29:17Z</time>
      </trkpt>
      <trkpt lat="43.96096" lon="1.77758">
        <ele>238.6</ele>
        <time>2022-08-14T08:29:18Z</time>
      </trkpt>
      <trkpt lat="43.961" lon="1.77755">
        <ele>238.4</ele>
        <time>2022-08-14T08:29:20Z</time>
      </trkpt>
      <trkpt lat="43.96107" lon="1.77747">
        <ele>237.4</ele>
        <time>2022-08-14T08:29:23Z</time>
      </trkpt>
      <trkpt lat="43.96109" lon="1.77744">
        <ele>236.8</ele>
        <time>2022-08-14T08:29:24Z</time>
      </trkpt>
      <trkpt lat="43.9611" lon="1.77741">
        <ele>236.2</ele>
        <time>2022-08-14T08:29:25Z</time>
      </trkpt>
      <trkpt lat="43.96114" lon="1.77735">
        <ele>235.6</ele>
        <time>2022-08-14T08:29:27Z</time>
      </trkpt>
      <trkpt lat="43.96116" lon="1.77733">
        <ele>235.2</ele>
        <time>2022-08-14T08:29:28Z</time>
      </trkpt>
      <trkpt lat="43.96117" lon="1.77731">
        <ele>235</ele>
        <time>2022-08-14T08:29:29Z</time>
      </trkpt>
      <trkpt lat="43.96118" lon="1.7773">
        <ele>234.8</ele>
        <time>2022-08-14T08:29:30Z</time>
      </trkpt>
      <trkpt lat="43.96119" lon="1.77727">
        <ele>234.6</ele>
        <time>2022-08-14T08:29:31Z</time>
      </trkpt>
      <trkpt lat="43.96119" lon="1.77725">
        <ele>234</ele>
        <time>2022-08-14T08:29:32Z</time>
      </trkpt>
      <trkpt lat="43.96119" lon="1.77723">
        <ele>233.8</ele>
        <time>2022-08-14T08:29:33Z</time>
      </trkpt>
      <trkpt lat="43.96119" lon="1.77722">
        <ele>233.2</ele>
        <time>2022-08-14T08:29:34Z</time>
      </trkpt>
      <trkpt lat="43.96119" lon="1.7772">
        <ele>233</ele>
        <time>2022-08-14T08:29:35Z</time>
      </trkpt>
      <trkpt lat="43.96119" lon="1.77718">
        <ele>232.8</ele>
        <time>2022-08-14T08:29:36Z</time>
      </trkpt>
      <trkpt lat="43.96119" lon="1.77716">
        <ele>232.2</ele>
        <time>2022-08-14T08:29:37Z</time>
      </trkpt>
      <trkpt lat="43.9612" lon="1.77714">
        <ele>232</ele>
        <time>2022-08-14T08:29:38Z</time>
      </trkpt>
      <trkpt lat="43.9612" lon="1.77712">
        <ele>231.8</ele>
        <time>2022-08-14T08:29:39Z</time>
      </trkpt>
      <trkpt lat="43.96122" lon="1.7771">
        <ele>231.6</ele>
        <time>2022-08-14T08:29:40Z</time>
      </trkpt>
      <trkpt lat="43.96124" lon="1.77707">
        <ele>231.2</ele>
        <time>2022-08-14T08:29:41Z</time>
      </trkpt>
      <trkpt lat="43.96125" lon="1.77704">
        <ele>230.8</ele>
        <time>2022-08-14T08:29:42Z</time>
      </trkpt>
      <trkpt lat="43.96127" lon="1.77701">
        <ele>230.4</ele>
        <time>2022-08-14T08:29:43Z</time>
      </trkpt>
      <trkpt lat="43.96129" lon="1.77697">
        <ele>230</ele>
        <time>2022-08-14T08:29:44Z</time>
      </trkpt>
      <trkpt lat="43.96131" lon="1.77694">
        <ele>229.8</ele>
        <time>2022-08-14T08:29:45Z</time>
      </trkpt>
      <trkpt lat="43.96135" lon="1.77689">
        <ele>229</ele>
        <time>2022-08-14T08:29:46Z</time>
      </trkpt>
      <trkpt lat="43.96138" lon="1.77685">
        <ele>228.8</ele>
        <time>2022-08-14T08:29:47Z</time>
      </trkpt>
      <trkpt lat="43.96147" lon="1.77671">
        <ele>227.8</ele>
        <time>2022-08-14T08:29:49Z</time>
      </trkpt>
      <trkpt lat="43.9615" lon="1.77666">
        <ele>227.4</ele>
        <time>2022-08-14T08:29:50Z</time>
      </trkpt>
      <trkpt lat="43.96152" lon="1.77662">
        <ele>226.8</ele>
        <time>2022-08-14T08:29:51Z</time>
      </trkpt>
      <trkpt lat="43.96155" lon="1.77652">
        <ele>225.8</ele>
        <time>2022-08-14T08:29:53Z</time>
      </trkpt>
      <trkpt lat="43.96157" lon="1.77647">
        <ele>225.4</ele>
        <time>2022-08-14T08:29:54Z</time>
      </trkpt>
      <trkpt lat="43.96159" lon="1.77643">
        <ele>224.2</ele>
        <time>2022-08-14T08:29:55Z</time>
      </trkpt>
      <trkpt lat="43.9616" lon="1.77641">
        <ele>223.4</ele>
        <time>2022-08-14T08:29:56Z</time>
      </trkpt>
      <trkpt lat="43.96161" lon="1.77639">
        <ele>222.4</ele>
        <time>2022-08-14T08:29:57Z</time>
      </trkpt>
      <trkpt lat="43.96161" lon="1.77635">
        <ele>220</ele>
        <time>2022-08-14T08:29:58Z</time>
      </trkpt>
      <trkpt lat="43.96165" lon="1.77629">
        <ele>218.4</ele>
        <time>2022-08-14T08:30:00Z</time>
      </trkpt>
      <trkpt lat="43.96166" lon="1.77628">
        <ele>218</ele>
        <time>2022-08-14T08:30:01Z</time>
      </trkpt>
      <trkpt lat="43.96169" lon="1.7762">
        <ele>217.2</ele>
        <time>2022-08-14T08:30:03Z</time>
      </trkpt>
      <trkpt lat="43.96173" lon="1.7761">
        <ele>216.4</ele>
        <time>2022-08-14T08:30:05Z</time>
      </trkpt>
      <trkpt lat="43.96174" lon="1.77606">
        <ele>215.8</ele>
        <time>2022-08-14T08:30:06Z</time>
      </trkpt>
      <trkpt lat="43.96175" lon="1.77603">
        <ele>215</ele>
        <time>2022-08-14T08:30:07Z</time>
      </trkpt>
      <trkpt lat="43.96176" lon="1.776">
        <ele>214.8</ele>
        <time>2022-08-14T08:30:08Z</time>
      </trkpt>
      <trkpt lat="43.96176" lon="1.77596">
        <ele>214.4</ele>
        <time>2022-08-14T08:30:09Z</time>
      </trkpt>
      <trkpt lat="43.96177" lon="1.77584">
        <ele>213.4</ele>
        <time>2022-08-14T08:30:12Z</time>
      </trkpt>
      <trkpt lat="43.96178" lon="1.7758">
        <ele>213.2</ele>
        <time>2022-08-14T08:30:13Z</time>
      </trkpt>
      <trkpt lat="43.9618" lon="1.77575">
        <ele>213</ele>
        <time>2022-08-14T08:30:14Z</time>
      </trkpt>
      <trkpt lat="43.96181" lon="1.7757">
        <ele>212.6</ele>
        <time>2022-08-14T08:30:15Z</time>
      </trkpt>
      <trkpt lat="43.96183" lon="1.77564">
        <ele>212.2</ele>
        <time>2022-08-14T08:30:16Z</time>
      </trkpt>
      <trkpt lat="43.96185" lon="1.77556">
        <ele>212.2</ele>
        <time>2022-08-14T08:30:17Z</time>
      </trkpt>
      <trkpt lat="43.96186" lon="1.77548">
        <ele>211.4</ele>
        <time>2022-08-14T08:30:18Z</time>
      </trkpt>
      <trkpt lat="43.9619" lon="1.77531">
        <ele>210.4</ele>
        <time>2022-08-14T08:30:20Z</time>
      </trkpt>
      <trkpt lat="43.96192" lon="1.77523">
        <ele>210.2</ele>
        <time>2022-08-14T08:30:21Z</time>
      </trkpt>
      <trkpt lat="43.96198" lon="1.77506">
        <ele>208.6</ele>
        <time>2022-08-14T08:30:23Z</time>
      </trkpt>
      <trkpt lat="43.962" lon="1.77498">
        <ele>207.4</ele>
        <time>2022-08-14T08:30:24Z</time>
      </trkpt>
      <trkpt lat="43.96202" lon="1.77491">
        <ele>205.4</ele>
        <time>2022-08-14T08:30:25Z</time>
      </trkpt>
      <trkpt lat="43.96205" lon="1.77483">
        <ele>204.4</ele>
        <time>2022-08-14T08:30:26Z</time>
      </trkpt>
      <trkpt lat="43.96209" lon="1.77475">
        <ele>203.4</ele>
        <time>2022-08-14T08:30:27Z</time>
      </trkpt>
      <trkpt lat="43.96213" lon="1.77467">
        <ele>203</ele>
        <time>2022-08-14T08:30:28Z</time>
      </trkpt>
      <trkpt lat="43.96216" lon="1.7746">
        <ele>202.2</ele>
        <time>2022-08-14T08:30:29Z</time>
      </trkpt>
      <trkpt lat="43.96219" lon="1.77456">
        <ele>201.4</ele>
        <time>2022-08-14T08:30:30Z</time>
      </trkpt>
      <trkpt lat="43.96221" lon="1.77452">
        <ele>200.6</ele>
        <time>2022-08-14T08:30:31Z</time>
      </trkpt>
      <trkpt lat="43.96223" lon="1.77446">
        <ele>200.2</ele>
        <time>2022-08-14T08:30:32Z</time>
      </trkpt>
      <trkpt lat="43.96223" lon="1.77442">
        <ele>200</ele>
        <time>2022-08-14T08:30:33Z</time>
      </trkpt>
      <trkpt lat="43.96224" lon="1.77438">
        <ele>199.6</ele>
        <time>2022-08-14T08:30:34Z</time>
      </trkpt>
      <trkpt lat="43.96224" lon="1.77438">
        <ele>199.6</ele>
        <time>2022-08-14T08:30:35Z</time>
      </trkpt>
      <trkpt lat="43.96224" lon="1.77438">
        <ele>199</ele>
        <time>2022-08-14T08:30:36Z</time>
      </trkpt>
      <trkpt lat="43.96224" lon="1.77438">
        <ele>196.4</ele>
        <time>2022-08-14T08:31:58Z</time>
      </trkpt>
      <trkpt lat="43.96225" lon="1.77435">
        <ele>196.2</ele>
        <time>2022-08-14T08:32:03Z</time>
      </trkpt>
      <trkpt lat="43.96225" lon="1.77434">
        <ele>196.2</ele>
        <time>2022-08-14T08:32:04Z</time>
      </trkpt>
      <trkpt lat="43.96226" lon="1.77433">
        <ele>196.2</ele>
        <time>2022-08-14T08:32:05Z</time>
      </trkpt>
      <trkpt lat="43.96227" lon="1.77431">
        <ele>196</ele>
        <time>2022-08-14T08:32:06Z</time>
      </trkpt>
      <trkpt lat="43.96228" lon="1.7743">
        <ele>196</ele>
        <time>2022-08-14T08:32:07Z</time>
      </trkpt>
      <trkpt lat="43.96229" lon="1.77429">
        <ele>196</ele>
        <time>2022-08-14T08:32:08Z</time>
      </trkpt>
      <trkpt lat="43.96235" lon="1.77424">
        <ele>195.6</ele>
        <time>2022-08-14T08:32:12Z</time>
      </trkpt>
      <trkpt lat="43.9624" lon="1.77418">
        <ele>195.4</ele>
        <time>2022-08-14T08:32:15Z</time>
      </trkpt>
      <trkpt lat="43.9624" lon="1.77416">
        <ele>195.2</ele>
        <time>2022-08-14T08:32:16Z</time>
      </trkpt>
      <trkpt lat="43.96242" lon="1.77415">
        <ele>195</ele>
        <time>2022-08-14T08:32:17Z</time>
      </trkpt>
      <trkpt lat="43.96243" lon="1.77413">
        <ele>195</ele>
        <time>2022-08-14T08:32:18Z</time>
      </trkpt>
      <trkpt lat="43.96244" lon="1.77411">
        <ele>195</ele>
        <time>2022-08-14T08:32:19Z</time>
      </trkpt>
      <trkpt lat="43.96245" lon="1.77409">
        <ele>194.8</ele>
        <time>2022-08-14T08:32:20Z</time>
      </trkpt>
      <trkpt lat="43.96249" lon="1.77402">
        <ele>194.6</ele>
        <time>2022-08-14T08:32:23Z</time>
      </trkpt>
      <trkpt lat="43.96252" lon="1.77394">
        <ele>194.4</ele>
        <time>2022-08-14T08:32:26Z</time>
      </trkpt>
      <trkpt lat="43.96254" lon="1.7739">
        <ele>194.2</ele>
        <time>2022-08-14T08:32:27Z</time>
      </trkpt>
      <trkpt lat="43.96256" lon="1.77387">
        <ele>194.4</ele>
        <time>2022-08-14T08:32:28Z</time>
      </trkpt>
      <trkpt lat="43.96263" lon="1.77382">
        <ele>194.4</ele>
        <time>2022-08-14T08:32:30Z</time>
      </trkpt>
      <trkpt lat="43.96266" lon="1.77379">
        <ele>194.4</ele>
        <time>2022-08-14T08:32:31Z</time>
      </trkpt>
      <trkpt lat="43.9627" lon="1.77377">
        <ele>194.4</ele>
        <time>2022-08-14T08:32:32Z</time>
      </trkpt>
      <trkpt lat="43.96274" lon="1.77374">
        <ele>194.4</ele>
        <time>2022-08-14T08:32:33Z</time>
      </trkpt>
      <trkpt lat="43.96276" lon="1.77372">
        <ele>194.4</ele>
        <time>2022-08-14T08:32:34Z</time>
      </trkpt>
      <trkpt lat="43.96279" lon="1.7737">
        <ele>194.2</ele>
        <time>2022-08-14T08:32:35Z</time>
      </trkpt>
      <trkpt lat="43.9628" lon="1.7737">
        <ele>194</ele>
        <time>2022-08-14T08:32:36Z</time>
      </trkpt>
      <trkpt lat="43.96281" lon="1.77368">
        <ele>193.8</ele>
        <time>2022-08-14T08:32:37Z</time>
      </trkpt>
      <trkpt lat="43.96284" lon="1.77365">
        <ele>193.4</ele>
        <time>2022-08-14T08:32:38Z</time>
      </trkpt>
      <trkpt lat="43.96285" lon="1.77363">
        <ele>192.4</ele>
        <time>2022-08-14T08:32:43Z</time>
      </trkpt>
      <trkpt lat="43.9629" lon="1.77363">
        <ele>192.6</ele>
        <time>2022-08-14T08:32:45Z</time>
      </trkpt>
      <trkpt lat="43.9629" lon="1.77363">
        <ele>192.4</ele>
        <time>2022-08-14T08:32:46Z</time>
      </trkpt>
      <trkpt lat="43.96297" lon="1.7736">
        <ele>192.4</ele>
        <time>2022-08-14T08:32:48Z</time>
      </trkpt>
      <trkpt lat="43.96304" lon="1.77356">
        <ele>192.2</ele>
        <time>2022-08-14T08:32:50Z</time>
      </trkpt>
      <trkpt lat="43.96309" lon="1.77351">
        <ele>192.2</ele>
        <time>2022-08-14T08:32:51Z</time>
      </trkpt>
      <trkpt lat="43.96315" lon="1.77347">
        <ele>192.2</ele>
        <time>2022-08-14T08:32:52Z</time>
      </trkpt>
      <trkpt lat="43.96324" lon="1.77341">
        <ele>192.2</ele>
        <time>2022-08-14T08:32:53Z</time>
      </trkpt>
      <trkpt lat="43.96341" lon="1.7733">
        <ele>191.6</ele>
        <time>2022-08-14T08:32:55Z</time>
      </trkpt>
      <trkpt lat="43.96349" lon="1.77325">
        <ele>191</ele>
        <time>2022-08-14T08:32:56Z</time>
      </trkpt>
      <trkpt lat="43.96353" lon="1.77319">
        <ele>190.6</ele>
        <time>2022-08-14T08:32:57Z</time>
      </trkpt>
      <trkpt lat="43.96359" lon="1.77313">
        <ele>190.4</ele>
        <time>2022-08-14T08:32:58Z</time>
      </trkpt>
      <trkpt lat="43.96365" lon="1.7731">
        <ele>189.6</ele>
        <time>2022-08-14T08:32:59Z</time>
      </trkpt>
      <trkpt lat="43.96376" lon="1.77302">
        <ele>188.2</ele>
        <time>2022-08-14T08:33:01Z</time>
      </trkpt>
      <trkpt lat="43.96384" lon="1.77294">
        <ele>187</ele>
        <time>2022-08-14T08:33:02Z</time>
      </trkpt>
      <trkpt lat="43.9639" lon="1.77286">
        <ele>185.2</ele>
        <time>2022-08-14T08:33:03Z</time>
      </trkpt>
      <trkpt lat="43.96393" lon="1.7728">
        <ele>184.4</ele>
        <time>2022-08-14T08:33:04Z</time>
      </trkpt>
      <trkpt lat="43.96398" lon="1.77274">
        <ele>183.4</ele>
        <time>2022-08-14T08:33:05Z</time>
      </trkpt>
      <trkpt lat="43.96407" lon="1.77263">
        <ele>182.4</ele>
        <time>2022-08-14T08:33:06Z</time>
      </trkpt>
      <trkpt lat="43.96412" lon="1.77256">
        <ele>181.8</ele>
        <time>2022-08-14T08:33:07Z</time>
      </trkpt>
      <trkpt lat="43.96421" lon="1.77246">
        <ele>180</ele>
        <time>2022-08-14T08:33:08Z</time>
      </trkpt>
      <trkpt lat="43.96426" lon="1.77241">
        <ele>179.4</ele>
        <time>2022-08-14T08:33:09Z</time>
      </trkpt>
      <trkpt lat="43.96431" lon="1.77236">
        <ele>177.8</ele>
        <time>2022-08-14T08:33:10Z</time>
      </trkpt>
      <trkpt lat="43.96434" lon="1.77232">
        <ele>177.2</ele>
        <time>2022-08-14T08:33:11Z</time>
      </trkpt>
      <trkpt lat="43.96437" lon="1.77225">
        <ele>175</ele>
        <time>2022-08-14T08:33:12Z</time>
      </trkpt>
      <trkpt lat="43.96439" lon="1.77221">
        <ele>173.8</ele>
        <time>2022-08-14T08:33:13Z</time>
      </trkpt>
      <trkpt lat="43.9644" lon="1.7722">
        <ele>172.6</ele>
        <time>2022-08-14T08:33:14Z</time>
      </trkpt>
      <trkpt lat="43.96441" lon="1.77219">
        <ele>171.4</ele>
        <time>2022-08-14T08:33:15Z</time>
      </trkpt>
      <trkpt lat="43.96444" lon="1.7722">
        <ele>169.8</ele>
        <time>2022-08-14T08:33:17Z</time>
      </trkpt>
      <trkpt lat="43.96447" lon="1.77222">
        <ele>169.4</ele>
        <time>2022-08-14T08:33:18Z</time>
      </trkpt>
      <trkpt lat="43.9645" lon="1.77223">
        <ele>168.6</ele>
        <time>2022-08-14T08:33:19Z</time>
      </trkpt>
      <trkpt lat="43.96455" lon="1.77226">
        <ele>167.2</ele>
        <time>2022-08-14T08:33:21Z</time>
      </trkpt>
      <trkpt lat="43.96457" lon="1.77228">
        <ele>166.2</ele>
        <time>2022-08-14T08:33:22Z</time>
      </trkpt>
      <trkpt lat="43.9646" lon="1.77229">
        <ele>166</ele>
        <time>2022-08-14T08:33:23Z</time>
      </trkpt>
      <trkpt lat="43.96462" lon="1.7723">
        <ele>164.8</ele>
        <time>2022-08-14T08:33:24Z</time>
      </trkpt>
      <trkpt lat="43.96463" lon="1.77231">
        <ele>164.4</ele>
        <time>2022-08-14T08:33:25Z</time>
      </trkpt>
      <trkpt lat="43.96463" lon="1.77232">
        <ele>163.4</ele>
        <time>2022-08-14T08:33:26Z</time>
      </trkpt>
      <trkpt lat="43.96462" lon="1.77234">
        <ele>160.2</ele>
        <time>2022-08-14T08:34:10Z</time>
      </trkpt>
      <trkpt lat="43.96457" lon="1.77251">
        <ele>160.2</ele>
        <time>2022-08-14T08:34:17Z</time>
      </trkpt>
      <trkpt lat="43.96452" lon="1.77267">
        <ele>160.2</ele>
        <time>2022-08-14T08:34:22Z</time>
      </trkpt>
      <trkpt lat="43.96451" lon="1.77278">
        <ele>160.2</ele>
        <time>2022-08-14T08:34:25Z</time>
      </trkpt>
      <trkpt lat="43.96451" lon="1.77281">
        <ele>160.2</ele>
        <time>2022-08-14T08:34:26Z</time>
      </trkpt>
      <trkpt lat="43.9645" lon="1.77286">
        <ele>160.2</ele>
        <time>2022-08-14T08:34:27Z</time>
      </trkpt>
      <trkpt lat="43.96448" lon="1.77295">
        <ele>160.4</ele>
        <time>2022-08-14T08:34:29Z</time>
      </trkpt>
      <trkpt lat="43.96441" lon="1.77327">
        <ele>160.4</ele>
        <time>2022-08-14T08:34:35Z</time>
      </trkpt>
      <trkpt lat="43.96441" lon="1.77353">
        <ele>160.4</ele>
        <time>2022-08-14T08:34:39Z</time>
      </trkpt>
      <trkpt lat="43.96441" lon="1.77359">
        <ele>160.4</ele>
        <time>2022-08-14T08:34:40Z</time>
      </trkpt>
      <trkpt lat="43.9644" lon="1.77411">
        <ele>160</ele>
        <time>2022-08-14T08:34:48Z</time>
      </trkpt>
      <trkpt lat="43.96441" lon="1.77437">
        <ele>160</ele>
        <time>2022-08-14T08:34:52Z</time>
      </trkpt>
      <trkpt lat="43.96442" lon="1.77455">
        <ele>160</ele>
        <time>2022-08-14T08:34:55Z</time>
      </trkpt>
      <trkpt lat="43.96443" lon="1.77466">
        <ele>160</ele>
        <time>2022-08-14T08:34:57Z</time>
      </trkpt>
      <trkpt lat="43.96444" lon="1.77479">
        <ele>160.4</ele>
        <time>2022-08-14T08:34:59Z</time>
      </trkpt>
      <trkpt lat="43.96447" lon="1.77498">
        <ele>160.6</ele>
        <time>2022-08-14T08:35:02Z</time>
      </trkpt>
      <trkpt lat="43.96456" lon="1.77541">
        <ele>160.6</ele>
        <time>2022-08-14T08:35:08Z</time>
      </trkpt>
      <trkpt lat="43.96466" lon="1.7758">
        <ele>160</ele>
        <time>2022-08-14T08:35:13Z</time>
      </trkpt>
      <trkpt lat="43.96468" lon="1.77588">
        <ele>159.8</ele>
        <time>2022-08-14T08:35:14Z</time>
      </trkpt>
      <trkpt lat="43.9647" lon="1.77595">
        <ele>159.6</ele>
        <time>2022-08-14T08:35:15Z</time>
      </trkpt>
      <trkpt lat="43.96472" lon="1.776">
        <ele>159.4</ele>
        <time>2022-08-14T08:35:16Z</time>
      </trkpt>
      <trkpt lat="43.96475" lon="1.77609">
        <ele>159.2</ele>
        <time>2022-08-14T08:35:17Z</time>
      </trkpt>
      <trkpt lat="43.96477" lon="1.77616">
        <ele>159.2</ele>
        <time>2022-08-14T08:35:18Z</time>
      </trkpt>
      <trkpt lat="43.96481" lon="1.77631">
        <ele>159.2</ele>
        <time>2022-08-14T08:35:20Z</time>
      </trkpt>
      <trkpt lat="43.96483" lon="1.77638">
        <ele>159.2</ele>
        <time>2022-08-14T08:35:21Z</time>
      </trkpt>
      <trkpt lat="43.96484" lon="1.77645">
        <ele>159.2</ele>
        <time>2022-08-14T08:35:22Z</time>
      </trkpt>
      <trkpt lat="43.96486" lon="1.77651">
        <ele>159.2</ele>
        <time>2022-08-14T08:35:23Z</time>
      </trkpt>
      <trkpt lat="43.96488" lon="1.77658">
        <ele>159.2</ele>
        <time>2022-08-14T08:35:24Z</time>
      </trkpt>
      <trkpt lat="43.96491" lon="1.77679">
        <ele>159.2</ele>
        <time>2022-08-14T08:35:27Z</time>
      </trkpt>
      <trkpt lat="43.965" lon="1.77732">
        <ele>159.4</ele>
        <time>2022-08-14T08:35:34Z</time>
      </trkpt>
      <trkpt lat="43.96501" lon="1.7774">
        <ele>159.4</ele>
        <time>2022-08-14T08:35:35Z</time>
      </trkpt>
      <trkpt lat="43.96504" lon="1.77757">
        <ele>159.4</ele>
        <time>2022-08-14T08:35:37Z</time>
      </trkpt>
      <trkpt lat="43.96505" lon="1.77792">
        <ele>159.4</ele>
        <time>2022-08-14T08:35:41Z</time>
      </trkpt>
      <trkpt lat="43.96504" lon="1.77808">
        <ele>159.4</ele>
        <time>2022-08-14T08:35:43Z</time>
      </trkpt>
      <trkpt lat="43.96503" lon="1.77817">
        <ele>159.4</ele>
        <time>2022-08-14T08:35:44Z</time>
      </trkpt>
      <trkpt lat="43.96502" lon="1.77825">
        <ele>159.4</ele>
        <time>2022-08-14T08:35:45Z</time>
      </trkpt>
      <trkpt lat="43.965" lon="1.77833">
        <ele>159.4</ele>
        <time>2022-08-14T08:35:46Z</time>
      </trkpt>
      <trkpt lat="43.96499" lon="1.77841">
        <ele>159.2</ele>
        <time>2022-08-14T08:35:47Z</time>
      </trkpt>
      <trkpt lat="43.96498" lon="1.77848">
        <ele>159.2</ele>
        <time>2022-08-14T08:35:48Z</time>
      </trkpt>
      <trkpt lat="43.96488" lon="1.77893">
        <ele>159.4</ele>
        <time>2022-08-14T08:35:54Z</time>
      </trkpt>
      <trkpt lat="43.96486" lon="1.77901">
        <ele>159.6</ele>
        <time>2022-08-14T08:35:55Z</time>
      </trkpt>
      <trkpt lat="43.96484" lon="1.77908">
        <ele>159.6</ele>
        <time>2022-08-14T08:35:56Z</time>
      </trkpt>
      <trkpt lat="43.96483" lon="1.77914">
        <ele>159.8</ele>
        <time>2022-08-14T08:35:57Z</time>
      </trkpt>
      <trkpt lat="43.96481" lon="1.77923">
        <ele>159.8</ele>
        <time>2022-08-14T08:35:58Z</time>
      </trkpt>
      <trkpt lat="43.96479" lon="1.7793">
        <ele>160</ele>
        <time>2022-08-14T08:35:59Z</time>
      </trkpt>
      <trkpt lat="43.96477" lon="1.77937">
        <ele>160</ele>
        <time>2022-08-14T08:36:00Z</time>
      </trkpt>
      <trkpt lat="43.96475" lon="1.77944">
        <ele>160.2</ele>
        <time>2022-08-14T08:36:01Z</time>
      </trkpt>
      <trkpt lat="43.96473" lon="1.7795">
        <ele>160.2</ele>
        <time>2022-08-14T08:36:02Z</time>
      </trkpt>
      <trkpt lat="43.96471" lon="1.77956">
        <ele>160.4</ele>
        <time>2022-08-14T08:36:03Z</time>
      </trkpt>
      <trkpt lat="43.96469" lon="1.77963">
        <ele>160.4</ele>
        <time>2022-08-14T08:36:04Z</time>
      </trkpt>
      <trkpt lat="43.96468" lon="1.77969">
        <ele>160.6</ele>
        <time>2022-08-14T08:36:05Z</time>
      </trkpt>
      <trkpt lat="43.96466" lon="1.77975">
        <ele>160.8</ele>
        <time>2022-08-14T08:36:06Z</time>
      </trkpt>
      <trkpt lat="43.96463" lon="1.77987">
        <ele>161</ele>
        <time>2022-08-14T08:36:08Z</time>
      </trkpt>
      <trkpt lat="43.96461" lon="1.77994">
        <ele>161</ele>
        <time>2022-08-14T08:36:09Z</time>
      </trkpt>
      <trkpt lat="43.96457" lon="1.78006">
        <ele>161.2</ele>
        <time>2022-08-14T08:36:11Z</time>
      </trkpt>
      <trkpt lat="43.96454" lon="1.78012">
        <ele>161.4</ele>
        <time>2022-08-14T08:36:12Z</time>
      </trkpt>
      <trkpt lat="43.96446" lon="1.78043">
        <ele>162.4</ele>
        <time>2022-08-14T08:36:17Z</time>
      </trkpt>
      <trkpt lat="43.96443" lon="1.78057">
        <ele>162.8</ele>
        <time>2022-08-14T08:36:19Z</time>
      </trkpt>
      <trkpt lat="43.96442" lon="1.78064">
        <ele>162.8</ele>
        <time>2022-08-14T08:36:20Z</time>
      </trkpt>
      <trkpt lat="43.96441" lon="1.7807">
        <ele>163</ele>
        <time>2022-08-14T08:36:21Z</time>
      </trkpt>
      <trkpt lat="43.96439" lon="1.78077">
        <ele>163.4</ele>
        <time>2022-08-14T08:36:22Z</time>
      </trkpt>
      <trkpt lat="43.96439" lon="1.78084">
        <ele>163.4</ele>
        <time>2022-08-14T08:36:23Z</time>
      </trkpt>
      <trkpt lat="43.96437" lon="1.7809">
        <ele>163.6</ele>
        <time>2022-08-14T08:36:24Z</time>
      </trkpt>
      <trkpt lat="43.96436" lon="1.78097">
        <ele>163.8</ele>
        <time>2022-08-14T08:36:25Z</time>
      </trkpt>
      <trkpt lat="43.96436" lon="1.78103">
        <ele>164</ele>
        <time>2022-08-14T08:36:26Z</time>
      </trkpt>
      <trkpt lat="43.96436" lon="1.78111">
        <ele>164.2</ele>
        <time>2022-08-14T08:36:27Z</time>
      </trkpt>
      <trkpt lat="43.96436" lon="1.78117">
        <ele>164.4</ele>
        <time>2022-08-14T08:36:28Z</time>
      </trkpt>
      <trkpt lat="43.96436" lon="1.78124">
        <ele>164.4</ele>
        <time>2022-08-14T08:36:29Z</time>
      </trkpt>
      <trkpt lat="43.96436" lon="1.78131">
        <ele>164.6</ele>
        <time>2022-08-14T08:36:30Z</time>
      </trkpt>
      <trkpt lat="43.96436" lon="1.78139">
        <ele>164.6</ele>
        <time>2022-08-14T08:36:31Z</time>
      </trkpt>
      <trkpt lat="43.96436" lon="1.78146">
        <ele>164.6</ele>
        <time>2022-08-14T08:36:32Z</time>
      </trkpt>
      <trkpt lat="43.96436" lon="1.78153">
        <ele>164.6</ele>
        <time>2022-08-14T08:36:33Z</time>
      </trkpt>
      <trkpt lat="43.96436" lon="1.78161">
        <ele>164.6</ele>
        <time>2022-08-14T08:36:34Z</time>
      </trkpt>
      <trkpt lat="43.96437" lon="1.78168">
        <ele>164.6</ele>
        <time>2022-08-14T08:36:35Z</time>
      </trkpt>
      <trkpt lat="43.96437" lon="1.78175">
        <ele>164.6</ele>
        <time>2022-08-14T08:36:36Z</time>
      </trkpt>
      <trkpt lat="43.96438" lon="1.78182">
        <ele>164.6</ele>
        <time>2022-08-14T08:36:37Z</time>
      </trkpt>
      <trkpt lat="43.96438" lon="1.7819">
        <ele>164.8</ele>
        <time>2022-08-14T08:36:38Z</time>
      </trkpt>
      <trkpt lat="43.96439" lon="1.78197">
        <ele>164.8</ele>
        <time>2022-08-14T08:36:39Z</time>
      </trkpt>
      <trkpt lat="43.9644" lon="1.78204">
        <ele>164.8</ele>
        <time>2022-08-14T08:36:40Z</time>
      </trkpt>
      <trkpt lat="43.96441" lon="1.78212">
        <ele>164.8</ele>
        <time>2022-08-14T08:36:41Z</time>
      </trkpt>
      <trkpt lat="43.96442" lon="1.78219">
        <ele>164.8</ele>
        <time>2022-08-14T08:36:42Z</time>
      </trkpt>
      <trkpt lat="43.96443" lon="1.78227">
        <ele>164.8</ele>
        <time>2022-08-14T08:36:43Z</time>
      </trkpt>
      <trkpt lat="43.96444" lon="1.78234">
        <ele>164.8</ele>
        <time>2022-08-14T08:36:44Z</time>
      </trkpt>
      <trkpt lat="43.96446" lon="1.78242">
        <ele>164.6</ele>
        <time>2022-08-14T08:36:45Z</time>
      </trkpt>
      <trkpt lat="43.96458" lon="1.78288">
        <ele>163.8</ele>
        <time>2022-08-14T08:36:51Z</time>
      </trkpt>
      <trkpt lat="43.96464" lon="1.78313">
        <ele>163.2</ele>
        <time>2022-08-14T08:36:54Z</time>
      </trkpt>
      <trkpt lat="43.96471" lon="1.78348">
        <ele>163</ele>
        <time>2022-08-14T08:36:58Z</time>
      </trkpt>
      <trkpt lat="43.96472" lon="1.78357">
        <ele>162.8</ele>
        <time>2022-08-14T08:36:59Z</time>
      </trkpt>
      <trkpt lat="43.96474" lon="1.78366">
        <ele>162.8</ele>
        <time>2022-08-14T08:37:00Z</time>
      </trkpt>
      <trkpt lat="43.96474" lon="1.78374">
        <ele>162.6</ele>
        <time>2022-08-14T08:37:01Z</time>
      </trkpt>
      <trkpt lat="43.96475" lon="1.78383">
        <ele>162.6</ele>
        <time>2022-08-14T08:37:02Z</time>
      </trkpt>
      <trkpt lat="43.96476" lon="1.7839">
        <ele>162.4</ele>
        <time>2022-08-14T08:37:03Z</time>
      </trkpt>
      <trkpt lat="43.96477" lon="1.78398">
        <ele>162.4</ele>
        <time>2022-08-14T08:37:04Z</time>
      </trkpt>
      <trkpt lat="43.96478" lon="1.78406">
        <ele>162.2</ele>
        <time>2022-08-14T08:37:05Z</time>
      </trkpt>
      <trkpt lat="43.96479" lon="1.78414">
        <ele>162.2</ele>
        <time>2022-08-14T08:37:06Z</time>
      </trkpt>
      <trkpt lat="43.96479" lon="1.78421">
        <ele>162.2</ele>
        <time>2022-08-14T08:37:07Z</time>
      </trkpt>
      <trkpt lat="43.9648" lon="1.78428">
        <ele>162</ele>
        <time>2022-08-14T08:37:08Z</time>
      </trkpt>
      <trkpt lat="43.96481" lon="1.78435">
        <ele>162</ele>
        <time>2022-08-14T08:37:09Z</time>
      </trkpt>
      <trkpt lat="43.96482" lon="1.78449">
        <ele>162.2</ele>
        <time>2022-08-14T08:37:11Z</time>
      </trkpt>
      <trkpt lat="43.96486" lon="1.78479">
        <ele>162.2</ele>
        <time>2022-08-14T08:37:15Z</time>
      </trkpt>
      <trkpt lat="43.96493" lon="1.7851">
        <ele>162.2</ele>
        <time>2022-08-14T08:37:19Z</time>
      </trkpt>
      <trkpt lat="43.96497" lon="1.78526">
        <ele>162.2</ele>
        <time>2022-08-14T08:37:21Z</time>
      </trkpt>
      <trkpt lat="43.965" lon="1.78541">
        <ele>162.4</ele>
        <time>2022-08-14T08:37:23Z</time>
      </trkpt>
      <trkpt lat="43.96504" lon="1.78556">
        <ele>162.4</ele>
        <time>2022-08-14T08:37:25Z</time>
      </trkpt>
      <trkpt lat="43.96507" lon="1.78563">
        <ele>162.4</ele>
        <time>2022-08-14T08:37:26Z</time>
      </trkpt>
      <trkpt lat="43.96509" lon="1.7857">
        <ele>162.4</ele>
        <time>2022-08-14T08:37:27Z</time>
      </trkpt>
      <trkpt lat="43.96511" lon="1.78578">
        <ele>162.4</ele>
        <time>2022-08-14T08:37:28Z</time>
      </trkpt>
      <trkpt lat="43.96515" lon="1.78592">
        <ele>162.4</ele>
        <time>2022-08-14T08:37:30Z</time>
      </trkpt>
      <trkpt lat="43.96517" lon="1.78599">
        <ele>162.4</ele>
        <time>2022-08-14T08:37:31Z</time>
      </trkpt>
      <trkpt lat="43.96519" lon="1.78606">
        <ele>162.6</ele>
        <time>2022-08-14T08:37:32Z</time>
      </trkpt>
      <trkpt lat="43.96521" lon="1.78613">
        <ele>162.6</ele>
        <time>2022-08-14T08:37:33Z</time>
      </trkpt>
      <trkpt lat="43.96523" lon="1.78619">
        <ele>162.6</ele>
        <time>2022-08-14T08:37:34Z</time>
      </trkpt>
      <trkpt lat="43.96525" lon="1.78625">
        <ele>162.8</ele>
        <time>2022-08-14T08:37:35Z</time>
      </trkpt>
      <trkpt lat="43.96527" lon="1.78632">
        <ele>162.8</ele>
        <time>2022-08-14T08:37:36Z</time>
      </trkpt>
      <trkpt lat="43.96529" lon="1.78637">
        <ele>163</ele>
        <time>2022-08-14T08:37:37Z</time>
      </trkpt>
      <trkpt lat="43.96531" lon="1.78643">
        <ele>163</ele>
        <time>2022-08-14T08:37:38Z</time>
      </trkpt>
      <trkpt lat="43.96534" lon="1.78647">
        <ele>163</ele>
        <time>2022-08-14T08:37:39Z</time>
      </trkpt>
      <trkpt lat="43.96536" lon="1.78652">
        <ele>163</ele>
        <time>2022-08-14T08:37:40Z</time>
      </trkpt>
      <trkpt lat="43.96538" lon="1.78656">
        <ele>163</ele>
        <time>2022-08-14T08:37:41Z</time>
      </trkpt>
      <trkpt lat="43.96541" lon="1.7866">
        <ele>163.2</ele>
        <time>2022-08-14T08:37:42Z</time>
      </trkpt>
      <trkpt lat="43.96544" lon="1.78662">
        <ele>163.2</ele>
        <time>2022-08-14T08:37:43Z</time>
      </trkpt>
      <trkpt lat="43.96548" lon="1.78664">
        <ele>163.2</ele>
        <time>2022-08-14T08:37:44Z</time>
      </trkpt>
      <trkpt lat="43.96551" lon="1.78665">
        <ele>163.2</ele>
        <time>2022-08-14T08:37:45Z</time>
      </trkpt>
      <trkpt lat="43.96555" lon="1.78667">
        <ele>163.2</ele>
        <time>2022-08-14T08:37:46Z</time>
      </trkpt>
      <trkpt lat="43.96565" lon="1.78672">
        <ele>163</ele>
        <time>2022-08-14T08:37:49Z</time>
      </trkpt>
      <trkpt lat="43.96569" lon="1.78672">
        <ele>163</ele>
        <time>2022-08-14T08:37:50Z</time>
      </trkpt>
      <trkpt lat="43.96577" lon="1.78674">
        <ele>163</ele>
        <time>2022-08-14T08:37:52Z</time>
      </trkpt>
      <trkpt lat="43.96581" lon="1.78675">
        <ele>162.8</ele>
        <time>2022-08-14T08:37:53Z</time>
      </trkpt>
      <trkpt lat="43.96584" lon="1.78676">
        <ele>162.8</ele>
        <time>2022-08-14T08:37:54Z</time>
      </trkpt>
      <trkpt lat="43.96587" lon="1.78677">
        <ele>162.8</ele>
        <time>2022-08-14T08:37:55Z</time>
      </trkpt>
      <trkpt lat="43.9659" lon="1.78678">
        <ele>162.8</ele>
        <time>2022-08-14T08:37:56Z</time>
      </trkpt>
      <trkpt lat="43.96606" lon="1.78689">
        <ele>162.6</ele>
        <time>2022-08-14T08:38:01Z</time>
      </trkpt>
      <trkpt lat="43.96612" lon="1.78694">
        <ele>162.6</ele>
        <time>2022-08-14T08:38:03Z</time>
      </trkpt>
      <trkpt lat="43.96615" lon="1.78697">
        <ele>162.6</ele>
        <time>2022-08-14T08:38:04Z</time>
      </trkpt>
      <trkpt lat="43.96624" lon="1.78704">
        <ele>162.8</ele>
        <time>2022-08-14T08:38:07Z</time>
      </trkpt>
      <trkpt lat="43.96627" lon="1.78706">
        <ele>162.8</ele>
        <time>2022-08-14T08:38:08Z</time>
      </trkpt>
      <trkpt lat="43.9663" lon="1.78709">
        <ele>162.8</ele>
        <time>2022-08-14T08:38:09Z</time>
      </trkpt>
      <trkpt lat="43.96632" lon="1.78711">
        <ele>162.8</ele>
        <time>2022-08-14T08:38:10Z</time>
      </trkpt>
      <trkpt lat="43.96634" lon="1.78713">
        <ele>162.8</ele>
        <time>2022-08-14T08:38:11Z</time>
      </trkpt>
      <trkpt lat="43.96636" lon="1.78716">
        <ele>162.8</ele>
        <time>2022-08-14T08:38:12Z</time>
      </trkpt>
      <trkpt lat="43.96638" lon="1.78718">
        <ele>163</ele>
        <time>2022-08-14T08:38:13Z</time>
      </trkpt>
      <trkpt lat="43.9666" lon="1.78738">
        <ele>162.8</ele>
        <time>2022-08-14T08:38:21Z</time>
      </trkpt>
      <trkpt lat="43.96663" lon="1.7874">
        <ele>162.6</ele>
        <time>2022-08-14T08:38:22Z</time>
      </trkpt>
      <trkpt lat="43.96666" lon="1.78743">
        <ele>162.6</ele>
        <time>2022-08-14T08:38:23Z</time>
      </trkpt>
      <trkpt lat="43.96679" lon="1.78752">
        <ele>162.6</ele>
        <time>2022-08-14T08:38:27Z</time>
      </trkpt>
      <trkpt lat="43.96682" lon="1.78753">
        <ele>162.6</ele>
        <time>2022-08-14T08:38:28Z</time>
      </trkpt>
      <trkpt lat="43.96686" lon="1.78754">
        <ele>162.6</ele>
        <time>2022-08-14T08:38:29Z</time>
      </trkpt>
      <trkpt lat="43.96688" lon="1.78755">
        <ele>162.6</ele>
        <time>2022-08-14T08:38:30Z</time>
      </trkpt>
      <trkpt lat="43.9669" lon="1.78755">
        <ele>162.6</ele>
        <time>2022-08-14T08:38:31Z</time>
      </trkpt>
      <trkpt lat="43.96692" lon="1.78755">
        <ele>162.6</ele>
        <time>2022-08-14T08:38:32Z</time>
      </trkpt>
      <trkpt lat="43.96694" lon="1.78756">
        <ele>162.6</ele>
        <time>2022-08-14T08:38:33Z</time>
      </trkpt>
      <trkpt lat="43.96695" lon="1.78757">
        <ele>162.4</ele>
        <time>2022-08-14T08:38:34Z</time>
      </trkpt>
      <trkpt lat="43.96695" lon="1.78758">
        <ele>162.4</ele>
        <time>2022-08-14T08:38:35Z</time>
      </trkpt>
      <trkpt lat="43.96697" lon="1.78758">
        <ele>162.2</ele>
        <time>2022-08-14T08:39:01Z</time>
      </trkpt>
      <trkpt lat="43.9671" lon="1.78762">
        <ele>162.2</ele>
        <time>2022-08-14T08:39:07Z</time>
      </trkpt>
      <trkpt lat="43.96731" lon="1.78769">
        <ele>162.2</ele>
        <time>2022-08-14T08:39:15Z</time>
      </trkpt>
      <trkpt lat="43.96737" lon="1.78771">
        <ele>162</ele>
        <time>2022-08-14T08:39:17Z</time>
      </trkpt>
      <trkpt lat="43.96743" lon="1.78772">
        <ele>162</ele>
        <time>2022-08-14T08:39:19Z</time>
      </trkpt>
      <trkpt lat="43.96749" lon="1.78775">
        <ele>162</ele>
        <time>2022-08-14T08:39:21Z</time>
      </trkpt>
      <trkpt lat="43.96751" lon="1.78776">
        <ele>162</ele>
        <time>2022-08-14T08:39:22Z</time>
      </trkpt>
      <trkpt lat="43.96754" lon="1.78777">
        <ele>162</ele>
        <time>2022-08-14T08:39:23Z</time>
      </trkpt>
      <trkpt lat="43.96766" lon="1.78781">
        <ele>161.8</ele>
        <time>2022-08-14T08:39:27Z</time>
      </trkpt>
      <trkpt lat="43.96768" lon="1.78782">
        <ele>161.8</ele>
        <time>2022-08-14T08:39:28Z</time>
      </trkpt>
      <trkpt lat="43.96772" lon="1.78782">
        <ele>161.8</ele>
        <time>2022-08-14T08:39:29Z</time>
      </trkpt>
      <trkpt lat="43.96778" lon="1.78781">
        <ele>161.6</ele>
        <time>2022-08-14T08:39:31Z</time>
      </trkpt>
      <trkpt lat="43.9678" lon="1.7878">
        <ele>161.6</ele>
        <time>2022-08-14T08:39:32Z</time>
      </trkpt>
      <trkpt lat="43.96782" lon="1.78778">
        <ele>161.6</ele>
        <time>2022-08-14T08:39:33Z</time>
      </trkpt>
      <trkpt lat="43.96784" lon="1.78776">
        <ele>161.6</ele>
        <time>2022-08-14T08:39:34Z</time>
      </trkpt>
      <trkpt lat="43.96784" lon="1.78773">
        <ele>161.6</ele>
        <time>2022-08-14T08:39:35Z</time>
      </trkpt>
      <trkpt lat="43.96784" lon="1.7877">
        <ele>161.4</ele>
        <time>2022-08-14T08:39:36Z</time>
      </trkpt>
      <trkpt lat="43.96785" lon="1.78762">
        <ele>161.4</ele>
        <time>2022-08-14T08:39:38Z</time>
      </trkpt>
      <trkpt lat="43.96785" lon="1.78758">
        <ele>161.4</ele>
        <time>2022-08-14T08:39:39Z</time>
      </trkpt>
      <trkpt lat="43.96787" lon="1.78742">
        <ele>161.4</ele>
        <time>2022-08-14T08:39:43Z</time>
      </trkpt>
      <trkpt lat="43.96787" lon="1.78738">
        <ele>161.4</ele>
        <time>2022-08-14T08:39:44Z</time>
      </trkpt>
      <trkpt lat="43.96788" lon="1.78735">
        <ele>161.4</ele>
        <time>2022-08-14T08:39:45Z</time>
      </trkpt>
      <trkpt lat="43.96788" lon="1.78732">
        <ele>161.4</ele>
        <time>2022-08-14T08:39:46Z</time>
      </trkpt>
      <trkpt lat="43.96789" lon="1.78729">
        <ele>161.4</ele>
        <time>2022-08-14T08:39:47Z</time>
      </trkpt>
      <trkpt lat="43.96789" lon="1.78727">
        <ele>161.4</ele>
        <time>2022-08-14T08:39:48Z</time>
      </trkpt>
      <trkpt lat="43.9679" lon="1.78724">
        <ele>161.4</ele>
        <time>2022-08-14T08:39:49Z</time>
      </trkpt>
      <trkpt lat="43.96799" lon="1.78696">
        <ele>161.4</ele>
        <time>2022-08-14T08:39:56Z</time>
      </trkpt>
      <trkpt lat="43.96816" lon="1.78667">
        <ele>161.6</ele>
        <time>2022-08-14T08:40:03Z</time>
      </trkpt>
      <trkpt lat="43.96837" lon="1.78646">
        <ele>162</ele>
        <time>2022-08-14T08:40:09Z</time>
      </trkpt>
      <trkpt lat="43.96845" lon="1.7864">
        <ele>162</ele>
        <time>2022-08-14T08:40:11Z</time>
      </trkpt>
      <trkpt lat="43.96857" lon="1.78632">
        <ele>162</ele>
        <time>2022-08-14T08:40:14Z</time>
      </trkpt>
      <trkpt lat="43.96866" lon="1.78628">
        <ele>162</ele>
        <time>2022-08-14T08:40:16Z</time>
      </trkpt>
      <trkpt lat="43.9687" lon="1.78628">
        <ele>162</ele>
        <time>2022-08-14T08:40:17Z</time>
      </trkpt>
      <trkpt lat="43.96884" lon="1.78629">
        <ele>162</ele>
        <time>2022-08-14T08:40:20Z</time>
      </trkpt>
      <trkpt lat="43.96893" lon="1.78632">
        <ele>162</ele>
        <time>2022-08-14T08:40:22Z</time>
      </trkpt>
      <trkpt lat="43.96898" lon="1.78635">
        <ele>162</ele>
        <time>2022-08-14T08:40:23Z</time>
      </trkpt>
      <trkpt lat="43.9692" lon="1.78657">
        <ele>162</ele>
        <time>2022-08-14T08:40:28Z</time>
      </trkpt>
      <trkpt lat="43.96929" lon="1.78668">
        <ele>162</ele>
        <time>2022-08-14T08:40:30Z</time>
      </trkpt>
      <trkpt lat="43.96943" lon="1.78692">
        <ele>162</ele>
        <time>2022-08-14T08:40:34Z</time>
      </trkpt>
      <trkpt lat="43.96946" lon="1.78699">
        <ele>162</ele>
        <time>2022-08-14T08:40:35Z</time>
      </trkpt>
      <trkpt lat="43.96948" lon="1.78706">
        <ele>162</ele>
        <time>2022-08-14T08:40:36Z</time>
      </trkpt>
      <trkpt lat="43.96961" lon="1.78741">
        <ele>162</ele>
        <time>2022-08-14T08:40:41Z</time>
      </trkpt>
      <trkpt lat="43.96969" lon="1.78751">
        <ele>162</ele>
        <time>2022-08-14T08:40:43Z</time>
      </trkpt>
      <trkpt lat="43.96974" lon="1.78754">
        <ele>162</ele>
        <time>2022-08-14T08:40:44Z</time>
      </trkpt>
      <trkpt lat="43.96979" lon="1.78758">
        <ele>162</ele>
        <time>2022-08-14T08:40:45Z</time>
      </trkpt>
      <trkpt lat="43.96984" lon="1.78762">
        <ele>162</ele>
        <time>2022-08-14T08:40:46Z</time>
      </trkpt>
      <trkpt lat="43.97005" lon="1.78775">
        <ele>162</ele>
        <time>2022-08-14T08:40:50Z</time>
      </trkpt>
      <trkpt lat="43.97015" lon="1.7878">
        <ele>162</ele>
        <time>2022-08-14T08:40:52Z</time>
      </trkpt>
      <trkpt lat="43.97021" lon="1.78782">
        <ele>162</ele>
        <time>2022-08-14T08:40:53Z</time>
      </trkpt>
      <trkpt lat="43.97026" lon="1.78783">
        <ele>162</ele>
        <time>2022-08-14T08:40:54Z</time>
      </trkpt>
      <trkpt lat="43.97031" lon="1.78785">
        <ele>162</ele>
        <time>2022-08-14T08:40:55Z</time>
      </trkpt>
      <trkpt lat="43.97037" lon="1.78786">
        <ele>162</ele>
        <time>2022-08-14T08:40:56Z</time>
      </trkpt>
      <trkpt lat="43.97042" lon="1.78786">
        <ele>162</ele>
        <time>2022-08-14T08:40:57Z</time>
      </trkpt>
      <trkpt lat="43.97047" lon="1.78785">
        <ele>162</ele>
        <time>2022-08-14T08:40:58Z</time>
      </trkpt>
      <trkpt lat="43.97058" lon="1.78783">
        <ele>162</ele>
        <time>2022-08-14T08:41:00Z</time>
      </trkpt>
      <trkpt lat="43.97067" lon="1.78787">
        <ele>162</ele>
        <time>2022-08-14T08:41:02Z</time>
      </trkpt>
      <trkpt lat="43.9707" lon="1.78791">
        <ele>161.8</ele>
        <time>2022-08-14T08:41:03Z</time>
      </trkpt>
      <trkpt lat="43.97077" lon="1.78801">
        <ele>161.8</ele>
        <time>2022-08-14T08:41:05Z</time>
      </trkpt>
      <trkpt lat="43.9708" lon="1.78806">
        <ele>161.8</ele>
        <time>2022-08-14T08:41:06Z</time>
      </trkpt>
      <trkpt lat="43.97082" lon="1.78811">
        <ele>161.6</ele>
        <time>2022-08-14T08:41:07Z</time>
      </trkpt>
      <trkpt lat="43.97089" lon="1.78823">
        <ele>161.4</ele>
        <time>2022-08-14T08:41:09Z</time>
      </trkpt>
      <trkpt lat="43.97093" lon="1.78829">
        <ele>161.4</ele>
        <time>2022-08-14T08:41:10Z</time>
      </trkpt>
      <trkpt lat="43.971" lon="1.78841">
        <ele>161.2</ele>
        <time>2022-08-14T08:41:12Z</time>
      </trkpt>
      <trkpt lat="43.97107" lon="1.78852">
        <ele>161.2</ele>
        <time>2022-08-14T08:41:14Z</time>
      </trkpt>
      <trkpt lat="43.97111" lon="1.78858">
        <ele>161.2</ele>
        <time>2022-08-14T08:41:15Z</time>
      </trkpt>
      <trkpt lat="43.97114" lon="1.78863">
        <ele>161.2</ele>
        <time>2022-08-14T08:41:16Z</time>
      </trkpt>
      <trkpt lat="43.97118" lon="1.78869">
        <ele>161.4</ele>
        <time>2022-08-14T08:41:17Z</time>
      </trkpt>
      <trkpt lat="43.97121" lon="1.78875">
        <ele>161.4</ele>
        <time>2022-08-14T08:41:18Z</time>
      </trkpt>
      <trkpt lat="43.97124" lon="1.7888">
        <ele>161.4</ele>
        <time>2022-08-14T08:41:19Z</time>
      </trkpt>
      <trkpt lat="43.97127" lon="1.78885">
        <ele>161.4</ele>
        <time>2022-08-14T08:41:20Z</time>
      </trkpt>
      <trkpt lat="43.9713" lon="1.7889">
        <ele>161.6</ele>
        <time>2022-08-14T08:41:21Z</time>
      </trkpt>
      <trkpt lat="43.97131" lon="1.78894">
        <ele>161.6</ele>
        <time>2022-08-14T08:41:22Z</time>
      </trkpt>
      <trkpt lat="43.97133" lon="1.78898">
        <ele>161.6</ele>
        <time>2022-08-14T08:41:23Z</time>
      </trkpt>
      <trkpt lat="43.97134" lon="1.78902">
        <ele>161.6</ele>
        <time>2022-08-14T08:41:24Z</time>
      </trkpt>
      <trkpt lat="43.97137" lon="1.78906">
        <ele>161.6</ele>
        <time>2022-08-14T08:41:25Z</time>
      </trkpt>
      <trkpt lat="43.97139" lon="1.78911">
        <ele>161.8</ele>
        <time>2022-08-14T08:41:26Z</time>
      </trkpt>
      <trkpt lat="43.97142" lon="1.78915">
        <ele>161.8</ele>
        <time>2022-08-14T08:41:27Z</time>
      </trkpt>
      <trkpt lat="43.97151" lon="1.78928">
        <ele>161.6</ele>
        <time>2022-08-14T08:41:31Z</time>
      </trkpt>
      <trkpt lat="43.97152" lon="1.78931">
        <ele>161.8</ele>
        <time>2022-08-14T08:41:32Z</time>
      </trkpt>
      <trkpt lat="43.97154" lon="1.78934">
        <ele>161.8</ele>
        <time>2022-08-14T08:41:33Z</time>
      </trkpt>
      <trkpt lat="43.9716" lon="1.78944">
        <ele>161.8</ele>
        <time>2022-08-14T08:41:36Z</time>
      </trkpt>
      <trkpt lat="43.97162" lon="1.78947">
        <ele>161.6</ele>
        <time>2022-08-14T08:41:37Z</time>
      </trkpt>
      <trkpt lat="43.97164" lon="1.7895">
        <ele>161.6</ele>
        <time>2022-08-14T08:41:38Z</time>
      </trkpt>
      <trkpt lat="43.97166" lon="1.78953">
        <ele>161.6</ele>
        <time>2022-08-14T08:41:39Z</time>
      </trkpt>
      <trkpt lat="43.97168" lon="1.78956">
        <ele>161.6</ele>
        <time>2022-08-14T08:41:40Z</time>
      </trkpt>
      <trkpt lat="43.9717" lon="1.7896">
        <ele>161.6</ele>
        <time>2022-08-14T08:41:41Z</time>
      </trkpt>
      <trkpt lat="43.97174" lon="1.78969">
        <ele>161.6</ele>
        <time>2022-08-14T08:41:43Z</time>
      </trkpt>
      <trkpt lat="43.97174" lon="1.78974">
        <ele>161.6</ele>
        <time>2022-08-14T08:41:44Z</time>
      </trkpt>
      <trkpt lat="43.97162" lon="1.78988">
        <ele>161.6</ele>
        <time>2022-08-14T08:41:48Z</time>
      </trkpt>
      <trkpt lat="43.97159" lon="1.78992">
        <ele>161.6</ele>
        <time>2022-08-14T08:41:49Z</time>
      </trkpt>
      <trkpt lat="43.97155" lon="1.78995">
        <ele>161.6</ele>
        <time>2022-08-14T08:41:50Z</time>
      </trkpt>
      <trkpt lat="43.97152" lon="1.78999">
        <ele>161.6</ele>
        <time>2022-08-14T08:41:51Z</time>
      </trkpt>
      <trkpt lat="43.9715" lon="1.79003">
        <ele>161.6</ele>
        <time>2022-08-14T08:41:52Z</time>
      </trkpt>
      <trkpt lat="43.97146" lon="1.7901">
        <ele>161.6</ele>
        <time>2022-08-14T08:41:54Z</time>
      </trkpt>
      <trkpt lat="43.97143" lon="1.79019">
        <ele>161.8</ele>
        <time>2022-08-14T08:41:56Z</time>
      </trkpt>
      <trkpt lat="43.9714" lon="1.79024">
        <ele>162</ele>
        <time>2022-08-14T08:41:57Z</time>
      </trkpt>
      <trkpt lat="43.97139" lon="1.79031">
        <ele>162</ele>
        <time>2022-08-14T08:41:58Z</time>
      </trkpt>
      <trkpt lat="43.9714" lon="1.7904">
        <ele>162.2</ele>
        <time>2022-08-14T08:42:00Z</time>
      </trkpt>
      <trkpt lat="43.97143" lon="1.79051">
        <ele>162.2</ele>
        <time>2022-08-14T08:42:02Z</time>
      </trkpt>
      <trkpt lat="43.97145" lon="1.79056">
        <ele>162.2</ele>
        <time>2022-08-14T08:42:03Z</time>
      </trkpt>
      <trkpt lat="43.97148" lon="1.79062">
        <ele>162.2</ele>
        <time>2022-08-14T08:42:04Z</time>
      </trkpt>
      <trkpt lat="43.97166" lon="1.79094">
        <ele>162.2</ele>
        <time>2022-08-14T08:42:10Z</time>
      </trkpt>
      <trkpt lat="43.97175" lon="1.79111">
        <ele>162.2</ele>
        <time>2022-08-14T08:42:13Z</time>
      </trkpt>
      <trkpt lat="43.97181" lon="1.79122">
        <ele>162.2</ele>
        <time>2022-08-14T08:42:15Z</time>
      </trkpt>
      <trkpt lat="43.97185" lon="1.79127">
        <ele>162.2</ele>
        <time>2022-08-14T08:42:16Z</time>
      </trkpt>
      <trkpt lat="43.97188" lon="1.79132">
        <ele>162</ele>
        <time>2022-08-14T08:42:17Z</time>
      </trkpt>
      <trkpt lat="43.9719" lon="1.79136">
        <ele>162</ele>
        <time>2022-08-14T08:42:18Z</time>
      </trkpt>
      <trkpt lat="43.97193" lon="1.7914">
        <ele>162</ele>
        <time>2022-08-14T08:42:19Z</time>
      </trkpt>
      <trkpt lat="43.97196" lon="1.79144">
        <ele>161.8</ele>
        <time>2022-08-14T08:42:20Z</time>
      </trkpt>
      <trkpt lat="43.97199" lon="1.79148">
        <ele>161.8</ele>
        <time>2022-08-14T08:42:21Z</time>
      </trkpt>
      <trkpt lat="43.97201" lon="1.79152">
        <ele>161.6</ele>
        <time>2022-08-14T08:42:22Z</time>
      </trkpt>
      <trkpt lat="43.97203" lon="1.79156">
        <ele>161.6</ele>
        <time>2022-08-14T08:42:23Z</time>
      </trkpt>
      <trkpt lat="43.97204" lon="1.7916">
        <ele>161.6</ele>
        <time>2022-08-14T08:42:24Z</time>
      </trkpt>
      <trkpt lat="43.97204" lon="1.79164">
        <ele>161.6</ele>
        <time>2022-08-14T08:42:25Z</time>
      </trkpt>
      <trkpt lat="43.97204" lon="1.79168">
        <ele>161.6</ele>
        <time>2022-08-14T08:42:26Z</time>
      </trkpt>
      <trkpt lat="43.97204" lon="1.79171">
        <ele>161.6</ele>
        <time>2022-08-14T08:42:27Z</time>
      </trkpt>
      <trkpt lat="43.97204" lon="1.79174">
        <ele>161.6</ele>
        <time>2022-08-14T08:42:28Z</time>
      </trkpt>
      <trkpt lat="43.97203" lon="1.79177">
        <ele>161.6</ele>
        <time>2022-08-14T08:42:29Z</time>
      </trkpt>
      <trkpt lat="43.97203" lon="1.79179">
        <ele>161.6</ele>
        <time>2022-08-14T08:42:30Z</time>
      </trkpt>
      <trkpt lat="43.97203" lon="1.79181">
        <ele>161.6</ele>
        <time>2022-08-14T08:42:31Z</time>
      </trkpt>
      <trkpt lat="43.97204" lon="1.79181">
        <ele>161.6</ele>
        <time>2022-08-14T08:43:16Z</time>
      </trkpt>
      <trkpt lat="43.97203" lon="1.79181">
        <ele>161.6</ele>
        <time>2022-08-14T08:43:17Z</time>
      </trkpt>
      <trkpt lat="43.972" lon="1.79181">
        <ele>161.6</ele>
        <time>2022-08-14T08:43:19Z</time>
      </trkpt>
      <trkpt lat="43.97199" lon="1.79177">
        <ele>161.6</ele>
        <time>2022-08-14T08:43:21Z</time>
      </trkpt>
      <trkpt lat="43.972" lon="1.79172">
        <ele>161.4</ele>
        <time>2022-08-14T08:43:23Z</time>
      </trkpt>
      <trkpt lat="43.97201" lon="1.79169">
        <ele>161.2</ele>
        <time>2022-08-14T08:43:24Z</time>
      </trkpt>
      <trkpt lat="43.97201" lon="1.79166">
        <ele>161.2</ele>
        <time>2022-08-14T08:43:25Z</time>
      </trkpt>
      <trkpt lat="43.97202" lon="1.79164">
        <ele>161.2</ele>
        <time>2022-08-14T08:43:26Z</time>
      </trkpt>
      <trkpt lat="43.97202" lon="1.7916">
        <ele>161.2</ele>
        <time>2022-08-14T08:43:27Z</time>
      </trkpt>
      <trkpt lat="43.97202" lon="1.79158">
        <ele>161.2</ele>
        <time>2022-08-14T08:43:28Z</time>
      </trkpt>
      <trkpt lat="43.972" lon="1.79148">
        <ele>161.2</ele>
        <time>2022-08-14T08:43:31Z</time>
      </trkpt>
      <trkpt lat="43.97198" lon="1.79146">
        <ele>161.2</ele>
        <time>2022-08-14T08:43:32Z</time>
      </trkpt>
      <trkpt lat="43.97193" lon="1.79141">
        <ele>161</ele>
        <time>2022-08-14T08:43:34Z</time>
      </trkpt>
      <trkpt lat="43.97191" lon="1.79137">
        <ele>161</ele>
        <time>2022-08-14T08:43:35Z</time>
      </trkpt>
      <trkpt lat="43.97185" lon="1.79126">
        <ele>160.8</ele>
        <time>2022-08-14T08:43:38Z</time>
      </trkpt>
      <trkpt lat="43.97162" lon="1.79084">
        <ele>160.6</ele>
        <time>2022-08-14T08:43:48Z</time>
      </trkpt>
      <trkpt lat="43.9716" lon="1.7908">
        <ele>160.6</ele>
        <time>2022-08-14T08:43:49Z</time>
      </trkpt>
      <trkpt lat="43.97158" lon="1.79076">
        <ele>160.6</ele>
        <time>2022-08-14T08:43:50Z</time>
      </trkpt>
      <trkpt lat="43.97155" lon="1.79072">
        <ele>160.6</ele>
        <time>2022-08-14T08:43:51Z</time>
      </trkpt>
      <trkpt lat="43.97134" lon="1.7904">
        <ele>161</ele>
        <time>2022-08-14T08:43:59Z</time>
      </trkpt>
      <trkpt lat="43.97118" lon="1.79022">
        <ele>161.4</ele>
        <time>2022-08-14T08:44:04Z</time>
      </trkpt>
      <trkpt lat="43.9711" lon="1.79016">
        <ele>161.4</ele>
        <time>2022-08-14T08:44:06Z</time>
      </trkpt>
      <trkpt lat="43.97105" lon="1.79014">
        <ele>161.6</ele>
        <time>2022-08-14T08:44:07Z</time>
      </trkpt>
      <trkpt lat="43.97102" lon="1.79015">
        <ele>161.6</ele>
        <time>2022-08-14T08:44:08Z</time>
      </trkpt>
      <trkpt lat="43.97098" lon="1.79018">
        <ele>161.6</ele>
        <time>2022-08-14T08:44:09Z</time>
      </trkpt>
      <trkpt lat="43.97094" lon="1.79023">
        <ele>161.4</ele>
        <time>2022-08-14T08:44:10Z</time>
      </trkpt>
      <trkpt lat="43.97091" lon="1.79026">
        <ele>161.4</ele>
        <time>2022-08-14T08:44:11Z</time>
      </trkpt>
      <trkpt lat="43.97087" lon="1.7903">
        <ele>161.2</ele>
        <time>2022-08-14T08:44:12Z</time>
      </trkpt>
      <trkpt lat="43.97083" lon="1.79033">
        <ele>161.2</ele>
        <time>2022-08-14T08:44:13Z</time>
      </trkpt>
      <trkpt lat="43.9708" lon="1.79036">
        <ele>161</ele>
        <time>2022-08-14T08:44:14Z</time>
      </trkpt>
      <trkpt lat="43.97076" lon="1.79038">
        <ele>161</ele>
        <time>2022-08-14T08:44:15Z</time>
      </trkpt>
      <trkpt lat="43.97072" lon="1.79042">
        <ele>160.8</ele>
        <time>2022-08-14T08:44:16Z</time>
      </trkpt>
      <trkpt lat="43.97071" lon="1.79045">
        <ele>160.8</ele>
        <time>2022-08-14T08:44:17Z</time>
      </trkpt>
      <trkpt lat="43.9707" lon="1.79048">
        <ele>160.8</ele>
        <time>2022-08-14T08:44:18Z</time>
      </trkpt>
      <trkpt lat="43.97071" lon="1.7905">
        <ele>160.8</ele>
        <time>2022-08-14T08:44:19Z</time>
      </trkpt>
      <trkpt lat="43.97072" lon="1.79051">
        <ele>160.8</ele>
        <time>2022-08-14T08:44:20Z</time>
      </trkpt>
      <trkpt lat="43.97074" lon="1.7905">
        <ele>160.6</ele>
        <time>2022-08-14T08:46:23Z</time>
      </trkpt>
      <trkpt lat="43.97074" lon="1.7905">
        <ele>160.6</ele>
        <time>2022-08-14T08:46:24Z</time>
      </trkpt>
      <trkpt lat="43.97075" lon="1.7905">
        <ele>160.6</ele>
        <time>2022-08-14T08:46:25Z</time>
      </trkpt>
      <trkpt lat="43.97082" lon="1.79046">
        <ele>160.6</ele>
        <time>2022-08-14T08:46:29Z</time>
      </trkpt>
      <trkpt lat="43.97093" lon="1.79033">
        <ele>160.6</ele>
        <time>2022-08-14T08:46:35Z</time>
      </trkpt>
      <trkpt lat="43.97099" lon="1.79022">
        <ele>160.8</ele>
        <time>2022-08-14T08:46:38Z</time>
      </trkpt>
      <trkpt lat="43.97101" lon="1.7902">
        <ele>161</ele>
        <time>2022-08-14T08:46:39Z</time>
      </trkpt>
      <trkpt lat="43.97103" lon="1.79019">
        <ele>161</ele>
        <time>2022-08-14T08:46:40Z</time>
      </trkpt>
      <trkpt lat="43.97105" lon="1.79018">
        <ele>161.2</ele>
        <time>2022-08-14T08:46:41Z</time>
      </trkpt>
      <trkpt lat="43.97114" lon="1.79021">
        <ele>161.4</ele>
        <time>2022-08-14T08:46:44Z</time>
      </trkpt>
      <trkpt lat="43.97116" lon="1.79022">
        <ele>161.4</ele>
        <time>2022-08-14T08:46:45Z</time>
      </trkpt>
      <trkpt lat="43.97125" lon="1.7903">
        <ele>161.6</ele>
        <time>2022-08-14T08:46:48Z</time>
      </trkpt>
      <trkpt lat="43.97143" lon="1.7905">
        <ele>162</ele>
        <time>2022-08-14T08:46:54Z</time>
      </trkpt>
      <trkpt lat="43.97146" lon="1.79055">
        <ele>161.8</ele>
        <time>2022-08-14T08:46:55Z</time>
      </trkpt>
      <trkpt lat="43.97161" lon="1.7908">
        <ele>161.6</ele>
        <time>2022-08-14T08:47:00Z</time>
      </trkpt>
      <trkpt lat="43.97169" lon="1.79097">
        <ele>161.4</ele>
        <time>2022-08-14T08:47:03Z</time>
      </trkpt>
      <trkpt lat="43.97172" lon="1.79103">
        <ele>161.4</ele>
        <time>2022-08-14T08:47:04Z</time>
      </trkpt>
      <trkpt lat="43.97174" lon="1.79108">
        <ele>161.2</ele>
        <time>2022-08-14T08:47:05Z</time>
      </trkpt>
      <trkpt lat="43.97177" lon="1.79112">
        <ele>161</ele>
        <time>2022-08-14T08:47:06Z</time>
      </trkpt>
      <trkpt lat="43.9718" lon="1.79118">
        <ele>161</ele>
        <time>2022-08-14T08:47:07Z</time>
      </trkpt>
      <trkpt lat="43.97185" lon="1.79127">
        <ele>161</ele>
        <time>2022-08-14T08:47:09Z</time>
      </trkpt>
      <trkpt lat="43.97198" lon="1.79147">
        <ele>160.8</ele>
        <time>2022-08-14T08:47:13Z</time>
      </trkpt>
      <trkpt lat="43.97201" lon="1.79152">
        <ele>160.8</ele>
        <time>2022-08-14T08:47:14Z</time>
      </trkpt>
      <trkpt lat="43.97203" lon="1.79158">
        <ele>160.8</ele>
        <time>2022-08-14T08:47:15Z</time>
      </trkpt>
      <trkpt lat="43.97205" lon="1.79163">
        <ele>160.8</ele>
        <time>2022-08-14T08:47:16Z</time>
      </trkpt>
      <trkpt lat="43.97206" lon="1.79169">
        <ele>160.8</ele>
        <time>2022-08-14T08:47:17Z</time>
      </trkpt>
      <trkpt lat="43.97206" lon="1.79175">
        <ele>160.8</ele>
        <time>2022-08-14T08:47:18Z</time>
      </trkpt>
      <trkpt lat="43.97205" lon="1.79181">
        <ele>160.8</ele>
        <time>2022-08-14T08:47:19Z</time>
      </trkpt>
      <trkpt lat="43.97204" lon="1.79187">
        <ele>160.8</ele>
        <time>2022-08-14T08:47:20Z</time>
      </trkpt>
      <trkpt lat="43.97204" lon="1.79193">
        <ele>160.8</ele>
        <time>2022-08-14T08:47:21Z</time>
      </trkpt>
      <trkpt lat="43.97206" lon="1.79204">
        <ele>160.8</ele>
        <time>2022-08-14T08:47:23Z</time>
      </trkpt>
      <trkpt lat="43.97207" lon="1.7921">
        <ele>160.8</ele>
        <time>2022-08-14T08:47:24Z</time>
      </trkpt>
      <trkpt lat="43.97209" lon="1.79215">
        <ele>160.8</ele>
        <time>2022-08-14T08:47:25Z</time>
      </trkpt>
      <trkpt lat="43.97225" lon="1.79246">
        <ele>161.2</ele>
        <time>2022-08-14T08:47:31Z</time>
      </trkpt>
      <trkpt lat="43.97228" lon="1.79251">
        <ele>161.2</ele>
        <time>2022-08-14T08:47:32Z</time>
      </trkpt>
      <trkpt lat="43.9723" lon="1.79255">
        <ele>161.2</ele>
        <time>2022-08-14T08:47:33Z</time>
      </trkpt>
      <trkpt lat="43.97233" lon="1.79259">
        <ele>161.2</ele>
        <time>2022-08-14T08:47:34Z</time>
      </trkpt>
      <trkpt lat="43.97235" lon="1.79262">
        <ele>161.2</ele>
        <time>2022-08-14T08:47:35Z</time>
      </trkpt>
      <trkpt lat="43.97236" lon="1.79266">
        <ele>161.2</ele>
        <time>2022-08-14T08:47:36Z</time>
      </trkpt>
      <trkpt lat="43.97236" lon="1.79272">
        <ele>161.4</ele>
        <time>2022-08-14T08:47:37Z</time>
      </trkpt>
      <trkpt lat="43.97234" lon="1.79275">
        <ele>161.4</ele>
        <time>2022-08-14T08:47:38Z</time>
      </trkpt>
      <trkpt lat="43.97231" lon="1.7928">
        <ele>161.4</ele>
        <time>2022-08-14T08:47:39Z</time>
      </trkpt>
      <trkpt lat="43.97226" lon="1.79289">
        <ele>161.4</ele>
        <time>2022-08-14T08:47:41Z</time>
      </trkpt>
      <trkpt lat="43.97223" lon="1.79294">
        <ele>161.4</ele>
        <time>2022-08-14T08:47:42Z</time>
      </trkpt>
      <trkpt lat="43.97211" lon="1.79314">
        <ele>161.4</ele>
        <time>2022-08-14T08:47:46Z</time>
      </trkpt>
      <trkpt lat="43.97208" lon="1.79318">
        <ele>161.4</ele>
        <time>2022-08-14T08:47:47Z</time>
      </trkpt>
      <trkpt lat="43.97205" lon="1.79323">
        <ele>161.4</ele>
        <time>2022-08-14T08:47:48Z</time>
      </trkpt>
      <trkpt lat="43.9718" lon="1.79366">
        <ele>161.4</ele>
        <time>2022-08-14T08:47:56Z</time>
      </trkpt>
      <trkpt lat="43.97156" lon="1.79415">
        <ele>161.4</ele>
        <time>2022-08-14T08:48:04Z</time>
      </trkpt>
      <trkpt lat="43.9715" lon="1.79429">
        <ele>161.6</ele>
        <time>2022-08-14T08:48:06Z</time>
      </trkpt>
      <trkpt lat="43.97147" lon="1.79436">
        <ele>161.6</ele>
        <time>2022-08-14T08:48:07Z</time>
      </trkpt>
      <trkpt lat="43.97144" lon="1.79443">
        <ele>161.6</ele>
        <time>2022-08-14T08:48:08Z</time>
      </trkpt>
      <trkpt lat="43.97142" lon="1.7945">
        <ele>161.8</ele>
        <time>2022-08-14T08:48:09Z</time>
      </trkpt>
      <trkpt lat="43.97139" lon="1.79457">
        <ele>161.8</ele>
        <time>2022-08-14T08:48:10Z</time>
      </trkpt>
      <trkpt lat="43.97137" lon="1.79463">
        <ele>161.8</ele>
        <time>2022-08-14T08:48:11Z</time>
      </trkpt>
      <trkpt lat="43.97136" lon="1.79469">
        <ele>162</ele>
        <time>2022-08-14T08:48:12Z</time>
      </trkpt>
      <trkpt lat="43.97136" lon="1.79476">
        <ele>162</ele>
        <time>2022-08-14T08:48:13Z</time>
      </trkpt>
      <trkpt lat="43.97142" lon="1.79487">
        <ele>162</ele>
        <time>2022-08-14T08:48:15Z</time>
      </trkpt>
      <trkpt lat="43.9715" lon="1.79499">
        <ele>161.8</ele>
        <time>2022-08-14T08:48:17Z</time>
      </trkpt>
      <trkpt lat="43.97154" lon="1.79506">
        <ele>162</ele>
        <time>2022-08-14T08:48:18Z</time>
      </trkpt>
      <trkpt lat="43.97163" lon="1.79519">
        <ele>162</ele>
        <time>2022-08-14T08:48:20Z</time>
      </trkpt>
      <trkpt lat="43.97173" lon="1.79533">
        <ele>161.8</ele>
        <time>2022-08-14T08:48:22Z</time>
      </trkpt>
      <trkpt lat="43.97178" lon="1.7954">
        <ele>161.8</ele>
        <time>2022-08-14T08:48:23Z</time>
      </trkpt>
      <trkpt lat="43.97182" lon="1.79546">
        <ele>161.8</ele>
        <time>2022-08-14T08:48:24Z</time>
      </trkpt>
      <trkpt lat="43.97186" lon="1.79553">
        <ele>161.6</ele>
        <time>2022-08-14T08:48:25Z</time>
      </trkpt>
      <trkpt lat="43.97191" lon="1.7956">
        <ele>161.6</ele>
        <time>2022-08-14T08:48:26Z</time>
      </trkpt>
      <trkpt lat="43.97195" lon="1.79566">
        <ele>161.6</ele>
        <time>2022-08-14T08:48:27Z</time>
      </trkpt>
      <trkpt lat="43.97199" lon="1.79573">
        <ele>161.6</ele>
        <time>2022-08-14T08:48:28Z</time>
      </trkpt>
      <trkpt lat="43.97203" lon="1.79579">
        <ele>161.6</ele>
        <time>2022-08-14T08:48:29Z</time>
      </trkpt>
      <trkpt lat="43.97206" lon="1.79586">
        <ele>161.4</ele>
        <time>2022-08-14T08:48:30Z</time>
      </trkpt>
      <trkpt lat="43.9721" lon="1.79592">
        <ele>161.4</ele>
        <time>2022-08-14T08:48:31Z</time>
      </trkpt>
      <trkpt lat="43.97217" lon="1.79605">
        <ele>161.4</ele>
        <time>2022-08-14T08:48:33Z</time>
      </trkpt>
      <trkpt lat="43.97248" lon="1.79652">
        <ele>161.4</ele>
        <time>2022-08-14T08:48:40Z</time>
      </trkpt>
      <trkpt lat="43.97253" lon="1.79659">
        <ele>161.4</ele>
        <time>2022-08-14T08:48:41Z</time>
      </trkpt>
      <trkpt lat="43.97257" lon="1.79666">
        <ele>161.4</ele>
        <time>2022-08-14T08:48:42Z</time>
      </trkpt>
      <trkpt lat="43.97266" lon="1.7968">
        <ele>161.8</ele>
        <time>2022-08-14T08:48:44Z</time>
      </trkpt>
      <trkpt lat="43.97279" lon="1.79701">
        <ele>162</ele>
        <time>2022-08-14T08:48:47Z</time>
      </trkpt>
      <trkpt lat="43.97282" lon="1.79707">
        <ele>162</ele>
        <time>2022-08-14T08:48:48Z</time>
      </trkpt>
      <trkpt lat="43.97286" lon="1.79714">
        <ele>162</ele>
        <time>2022-08-14T08:48:49Z</time>
      </trkpt>
      <trkpt lat="43.97291" lon="1.7972">
        <ele>162</ele>
        <time>2022-08-14T08:48:50Z</time>
      </trkpt>
      <trkpt lat="43.97295" lon="1.79727">
        <ele>162.2</ele>
        <time>2022-08-14T08:48:51Z</time>
      </trkpt>
      <trkpt lat="43.97302" lon="1.7974">
        <ele>162.6</ele>
        <time>2022-08-14T08:48:53Z</time>
      </trkpt>
      <trkpt lat="43.97306" lon="1.79746">
        <ele>162.8</ele>
        <time>2022-08-14T08:48:54Z</time>
      </trkpt>
      <trkpt lat="43.9731" lon="1.79753">
        <ele>163</ele>
        <time>2022-08-14T08:48:55Z</time>
      </trkpt>
      <trkpt lat="43.97318" lon="1.79766">
        <ele>163.2</ele>
        <time>2022-08-14T08:48:57Z</time>
      </trkpt>
      <trkpt lat="43.97341" lon="1.79818">
        <ele>163.4</ele>
        <time>2022-08-14T08:49:04Z</time>
      </trkpt>
      <trkpt lat="43.97347" lon="1.79834">
        <ele>163.4</ele>
        <time>2022-08-14T08:49:06Z</time>
      </trkpt>
      <trkpt lat="43.9735" lon="1.79842">
        <ele>163.6</ele>
        <time>2022-08-14T08:49:07Z</time>
      </trkpt>
      <trkpt lat="43.97353" lon="1.79849">
        <ele>163.4</ele>
        <time>2022-08-14T08:49:08Z</time>
      </trkpt>
      <trkpt lat="43.97358" lon="1.79864">
        <ele>163.2</ele>
        <time>2022-08-14T08:49:10Z</time>
      </trkpt>
      <trkpt lat="43.9736" lon="1.79872">
        <ele>163</ele>
        <time>2022-08-14T08:49:11Z</time>
      </trkpt>
      <trkpt lat="43.9738" lon="1.79924">
        <ele>162.6</ele>
        <time>2022-08-14T08:49:18Z</time>
      </trkpt>
      <trkpt lat="43.97381" lon="1.79933">
        <ele>162.6</ele>
        <time>2022-08-14T08:49:19Z</time>
      </trkpt>
      <trkpt lat="43.97391" lon="1.79974">
        <ele>162.8</ele>
        <time>2022-08-14T08:49:24Z</time>
      </trkpt>
      <trkpt lat="43.97393" lon="1.79982">
        <ele>162.8</ele>
        <time>2022-08-14T08:49:25Z</time>
      </trkpt>
      <trkpt lat="43.97395" lon="1.7999">
        <ele>162.8</ele>
        <time>2022-08-14T08:49:26Z</time>
      </trkpt>
      <trkpt lat="43.97397" lon="1.79998">
        <ele>163</ele>
        <time>2022-08-14T08:49:27Z</time>
      </trkpt>
      <trkpt lat="43.97398" lon="1.80005">
        <ele>163</ele>
        <time>2022-08-14T08:49:28Z</time>
      </trkpt>
      <trkpt lat="43.974" lon="1.80013">
        <ele>163</ele>
        <time>2022-08-14T08:49:29Z</time>
      </trkpt>
      <trkpt lat="43.97402" lon="1.80021">
        <ele>163</ele>
        <time>2022-08-14T08:49:30Z</time>
      </trkpt>
      <trkpt lat="43.97404" lon="1.80028">
        <ele>163.2</ele>
        <time>2022-08-14T08:49:31Z</time>
      </trkpt>
      <trkpt lat="43.97405" lon="1.80036">
        <ele>163.4</ele>
        <time>2022-08-14T08:49:32Z</time>
      </trkpt>
      <trkpt lat="43.97407" lon="1.80043">
        <ele>163.6</ele>
        <time>2022-08-14T08:49:33Z</time>
      </trkpt>
      <trkpt lat="43.97409" lon="1.80051">
        <ele>163.8</ele>
        <time>2022-08-14T08:49:34Z</time>
      </trkpt>
      <trkpt lat="43.97416" lon="1.80082">
        <ele>164.4</ele>
        <time>2022-08-14T08:49:38Z</time>
      </trkpt>
      <trkpt lat="43.97421" lon="1.80105">
        <ele>164.6</ele>
        <time>2022-08-14T08:49:41Z</time>
      </trkpt>
      <trkpt lat="43.9743" lon="1.80143">
        <ele>164.8</ele>
        <time>2022-08-14T08:49:46Z</time>
      </trkpt>
      <trkpt lat="43.97432" lon="1.8015">
        <ele>165</ele>
        <time>2022-08-14T08:49:47Z</time>
      </trkpt>
      <trkpt lat="43.97434" lon="1.80158">
        <ele>165</ele>
        <time>2022-08-14T08:49:48Z</time>
      </trkpt>
      <trkpt lat="43.97438" lon="1.80173">
        <ele>165.2</ele>
        <time>2022-08-14T08:49:50Z</time>
      </trkpt>
      <trkpt lat="43.97442" lon="1.80189">
        <ele>165.6</ele>
        <time>2022-08-14T08:49:52Z</time>
      </trkpt>
      <trkpt lat="43.97444" lon="1.80196">
        <ele>165.6</ele>
        <time>2022-08-14T08:49:53Z</time>
      </trkpt>
      <trkpt lat="43.97445" lon="1.80202">
        <ele>165.8</ele>
        <time>2022-08-14T08:49:54Z</time>
      </trkpt>
      <trkpt lat="43.97447" lon="1.8021">
        <ele>166</ele>
        <time>2022-08-14T08:49:55Z</time>
      </trkpt>
      <trkpt lat="43.97452" lon="1.80231">
        <ele>166.6</ele>
        <time>2022-08-14T08:49:58Z</time>
      </trkpt>
      <trkpt lat="43.97454" lon="1.80238">
        <ele>166.8</ele>
        <time>2022-08-14T08:49:59Z</time>
      </trkpt>
      <trkpt lat="43.97457" lon="1.80252">
        <ele>167</ele>
        <time>2022-08-14T08:50:01Z</time>
      </trkpt>
      <trkpt lat="43.97459" lon="1.80259">
        <ele>167</ele>
        <time>2022-08-14T08:50:02Z</time>
      </trkpt>
      <trkpt lat="43.97461" lon="1.80267">
        <ele>167</ele>
        <time>2022-08-14T08:50:03Z</time>
      </trkpt>
      <trkpt lat="43.97463" lon="1.80275">
        <ele>167.4</ele>
        <time>2022-08-14T08:50:04Z</time>
      </trkpt>
      <trkpt lat="43.97464" lon="1.80283">
        <ele>167.4</ele>
        <time>2022-08-14T08:50:05Z</time>
      </trkpt>
      <trkpt lat="43.97466" lon="1.80292">
        <ele>167.6</ele>
        <time>2022-08-14T08:50:06Z</time>
      </trkpt>
      <trkpt lat="43.97469" lon="1.80301">
        <ele>167.6</ele>
        <time>2022-08-14T08:50:07Z</time>
      </trkpt>
      <trkpt lat="43.9747" lon="1.80308">
        <ele>168</ele>
        <time>2022-08-14T08:50:08Z</time>
      </trkpt>
      <trkpt lat="43.97473" lon="1.80319">
        <ele>168</ele>
        <time>2022-08-14T08:50:09Z</time>
      </trkpt>
      <trkpt lat="43.97476" lon="1.80328">
        <ele>168</ele>
        <time>2022-08-14T08:50:10Z</time>
      </trkpt>
      <trkpt lat="43.97478" lon="1.80338">
        <ele>168</ele>
        <time>2022-08-14T08:50:11Z</time>
      </trkpt>
      <trkpt lat="43.9748" lon="1.80349">
        <ele>168.2</ele>
        <time>2022-08-14T08:50:12Z</time>
      </trkpt>
      <trkpt lat="43.97482" lon="1.8036">
        <ele>168.2</ele>
        <time>2022-08-14T08:50:13Z</time>
      </trkpt>
      <trkpt lat="43.97484" lon="1.80371">
        <ele>168.2</ele>
        <time>2022-08-14T08:50:14Z</time>
      </trkpt>
      <trkpt lat="43.97487" lon="1.80383">
        <ele>168</ele>
        <time>2022-08-14T08:50:15Z</time>
      </trkpt>
      <trkpt lat="43.97489" lon="1.80396">
        <ele>168</ele>
        <time>2022-08-14T08:50:16Z</time>
      </trkpt>
      <trkpt lat="43.97493" lon="1.80408">
        <ele>167.8</ele>
        <time>2022-08-14T08:50:17Z</time>
      </trkpt>
      <trkpt lat="43.97496" lon="1.80421">
        <ele>168</ele>
        <time>2022-08-14T08:50:18Z</time>
      </trkpt>
      <trkpt lat="43.97499" lon="1.80434">
        <ele>167.8</ele>
        <time>2022-08-14T08:50:19Z</time>
      </trkpt>
      <trkpt lat="43.97502" lon="1.80447">
        <ele>167.8</ele>
        <time>2022-08-14T08:50:20Z</time>
      </trkpt>
      <trkpt lat="43.97505" lon="1.8046">
        <ele>167.6</ele>
        <time>2022-08-14T08:50:21Z</time>
      </trkpt>
      <trkpt lat="43.97513" lon="1.805">
        <ele>167.6</ele>
        <time>2022-08-14T08:50:24Z</time>
      </trkpt>
      <trkpt lat="43.97514" lon="1.80514">
        <ele>167.4</ele>
        <time>2022-08-14T08:50:25Z</time>
      </trkpt>
      <trkpt lat="43.97514" lon="1.80541">
        <ele>166.8</ele>
        <time>2022-08-14T08:50:27Z</time>
      </trkpt>
      <trkpt lat="43.97511" lon="1.80582">
        <ele>166.2</ele>
        <time>2022-08-14T08:50:30Z</time>
      </trkpt>
      <trkpt lat="43.9751" lon="1.80595">
        <ele>166.2</ele>
        <time>2022-08-14T08:50:31Z</time>
      </trkpt>
      <trkpt lat="43.97509" lon="1.80608">
        <ele>166</ele>
        <time>2022-08-14T08:50:32Z</time>
      </trkpt>
      <trkpt lat="43.97508" lon="1.80621">
        <ele>166</ele>
        <time>2022-08-14T08:50:33Z</time>
      </trkpt>
      <trkpt lat="43.97508" lon="1.80634">
        <ele>166</ele>
        <time>2022-08-14T08:50:34Z</time>
      </trkpt>
      <trkpt lat="43.9751" lon="1.80659">
        <ele>166</ele>
        <time>2022-08-14T08:50:36Z</time>
      </trkpt>
      <trkpt lat="43.97512" lon="1.80671">
        <ele>165.8</ele>
        <time>2022-08-14T08:50:37Z</time>
      </trkpt>
      <trkpt lat="43.97513" lon="1.80683">
        <ele>165.6</ele>
        <time>2022-08-14T08:50:38Z</time>
      </trkpt>
      <trkpt lat="43.97516" lon="1.80707">
        <ele>165.8</ele>
        <time>2022-08-14T08:50:40Z</time>
      </trkpt>
      <trkpt lat="43.97518" lon="1.80718">
        <ele>165.8</ele>
        <time>2022-08-14T08:50:41Z</time>
      </trkpt>
      <trkpt lat="43.9752" lon="1.80729">
        <ele>165.8</ele>
        <time>2022-08-14T08:50:42Z</time>
      </trkpt>
      <trkpt lat="43.97522" lon="1.8074">
        <ele>165.8</ele>
        <time>2022-08-14T08:50:43Z</time>
      </trkpt>
      <trkpt lat="43.97523" lon="1.80751">
        <ele>166</ele>
        <time>2022-08-14T08:50:44Z</time>
      </trkpt>
      <trkpt lat="43.97524" lon="1.80762">
        <ele>166</ele>
        <time>2022-08-14T08:50:45Z</time>
      </trkpt>
      <trkpt lat="43.97525" lon="1.80772">
        <ele>166</ele>
        <time>2022-08-14T08:50:46Z</time>
      </trkpt>
      <trkpt lat="43.97528" lon="1.80793">
        <ele>166</ele>
        <time>2022-08-14T08:50:48Z</time>
      </trkpt>
      <trkpt lat="43.9753" lon="1.80804">
        <ele>166.2</ele>
        <time>2022-08-14T08:50:49Z</time>
      </trkpt>
      <trkpt lat="43.97532" lon="1.80814">
        <ele>166.4</ele>
        <time>2022-08-14T08:50:50Z</time>
      </trkpt>
      <trkpt lat="43.97533" lon="1.80822">
        <ele>166.4</ele>
        <time>2022-08-14T08:50:51Z</time>
      </trkpt>
      <trkpt lat="43.97534" lon="1.80831">
        <ele>166.4</ele>
        <time>2022-08-14T08:50:52Z</time>
      </trkpt>
      <trkpt lat="43.97534" lon="1.8084">
        <ele>166.4</ele>
        <time>2022-08-14T08:50:53Z</time>
      </trkpt>
      <trkpt lat="43.97535" lon="1.80848">
        <ele>166.4</ele>
        <time>2022-08-14T08:50:54Z</time>
      </trkpt>
      <trkpt lat="43.97537" lon="1.80857">
        <ele>166.4</ele>
        <time>2022-08-14T08:50:55Z</time>
      </trkpt>
      <trkpt lat="43.97538" lon="1.80865">
        <ele>166.4</ele>
        <time>2022-08-14T08:50:56Z</time>
      </trkpt>
      <trkpt lat="43.97538" lon="1.80872">
        <ele>166.4</ele>
        <time>2022-08-14T08:50:57Z</time>
      </trkpt>
      <trkpt lat="43.9754" lon="1.80879">
        <ele>166.4</ele>
        <time>2022-08-14T08:50:58Z</time>
      </trkpt>
      <trkpt lat="43.97542" lon="1.80887">
        <ele>166.4</ele>
        <time>2022-08-14T08:50:59Z</time>
      </trkpt>
      <trkpt lat="43.97544" lon="1.80892">
        <ele>166.4</ele>
        <time>2022-08-14T08:51:00Z</time>
      </trkpt>
      <trkpt lat="43.97548" lon="1.80896">
        <ele>166.4</ele>
        <time>2022-08-14T08:51:01Z</time>
      </trkpt>
      <trkpt lat="43.97551" lon="1.80897">
        <ele>166.4</ele>
        <time>2022-08-14T08:51:02Z</time>
      </trkpt>
      <trkpt lat="43.97555" lon="1.80897">
        <ele>166.4</ele>
        <time>2022-08-14T08:51:03Z</time>
      </trkpt>
      <trkpt lat="43.97559" lon="1.80896">
        <ele>166.4</ele>
        <time>2022-08-14T08:51:04Z</time>
      </trkpt>
      <trkpt lat="43.97564" lon="1.80895">
        <ele>166.6</ele>
        <time>2022-08-14T08:51:05Z</time>
      </trkpt>
      <trkpt lat="43.97567" lon="1.80894">
        <ele>166.6</ele>
        <time>2022-08-14T08:51:06Z</time>
      </trkpt>
      <trkpt lat="43.9758" lon="1.80894">
        <ele>166.6</ele>
        <time>2022-08-14T08:51:09Z</time>
      </trkpt>
      <trkpt lat="43.97583" lon="1.80893">
        <ele>166.6</ele>
        <time>2022-08-14T08:51:10Z</time>
      </trkpt>
      <trkpt lat="43.97587" lon="1.80894">
        <ele>166.6</ele>
        <time>2022-08-14T08:51:11Z</time>
      </trkpt>
      <trkpt lat="43.97591" lon="1.80894">
        <ele>166.6</ele>
        <time>2022-08-14T08:51:12Z</time>
      </trkpt>
      <trkpt lat="43.97594" lon="1.80895">
        <ele>166.6</ele>
        <time>2022-08-14T08:51:13Z</time>
      </trkpt>
      <trkpt lat="43.97598" lon="1.80895">
        <ele>166.6</ele>
        <time>2022-08-14T08:51:14Z</time>
      </trkpt>
      <trkpt lat="43.97601" lon="1.80895">
        <ele>166.4</ele>
        <time>2022-08-14T08:51:15Z</time>
      </trkpt>
      <trkpt lat="43.97604" lon="1.80896">
        <ele>166.4</ele>
        <time>2022-08-14T08:51:16Z</time>
      </trkpt>
      <trkpt lat="43.97606" lon="1.80897">
        <ele>166.2</ele>
        <time>2022-08-14T08:51:17Z</time>
      </trkpt>
      <trkpt lat="43.97608" lon="1.809">
        <ele>166.2</ele>
        <time>2022-08-14T08:51:18Z</time>
      </trkpt>
      <trkpt lat="43.97608" lon="1.80902">
        <ele>166.2</ele>
        <time>2022-08-14T08:51:19Z</time>
      </trkpt>
      <trkpt lat="43.97609" lon="1.80905">
        <ele>165.2</ele>
        <time>2022-08-14T08:51:42Z</time>
      </trkpt>
      <trkpt lat="43.97611" lon="1.80919">
        <ele>165.2</ele>
        <time>2022-08-14T08:51:45Z</time>
      </trkpt>
      <trkpt lat="43.97618" lon="1.80949">
        <ele>165.2</ele>
        <time>2022-08-14T08:51:49Z</time>
      </trkpt>
      <trkpt lat="43.97626" lon="1.80993">
        <ele>165</ele>
        <time>2022-08-14T08:51:54Z</time>
      </trkpt>
      <trkpt lat="43.97628" lon="1.81002">
        <ele>165</ele>
        <time>2022-08-14T08:51:55Z</time>
      </trkpt>
      <trkpt lat="43.97629" lon="1.8101">
        <ele>165</ele>
        <time>2022-08-14T08:51:56Z</time>
      </trkpt>
      <trkpt lat="43.97631" lon="1.81017">
        <ele>165</ele>
        <time>2022-08-14T08:51:57Z</time>
      </trkpt>
      <trkpt lat="43.97633" lon="1.81025">
        <ele>165</ele>
        <time>2022-08-14T08:51:58Z</time>
      </trkpt>
      <trkpt lat="43.97634" lon="1.81032">
        <ele>165</ele>
        <time>2022-08-14T08:51:59Z</time>
      </trkpt>
      <trkpt lat="43.97636" lon="1.8104">
        <ele>165.2</ele>
        <time>2022-08-14T08:52:00Z</time>
      </trkpt>
      <trkpt lat="43.97637" lon="1.81045">
        <ele>165.2</ele>
        <time>2022-08-14T08:52:01Z</time>
      </trkpt>
      <trkpt lat="43.97638" lon="1.81053">
        <ele>165.2</ele>
        <time>2022-08-14T08:52:02Z</time>
      </trkpt>
      <trkpt lat="43.9764" lon="1.81061">
        <ele>165.4</ele>
        <time>2022-08-14T08:52:03Z</time>
      </trkpt>
      <trkpt lat="43.97648" lon="1.81104">
        <ele>165.8</ele>
        <time>2022-08-14T08:52:09Z</time>
      </trkpt>
      <trkpt lat="43.9765" lon="1.81111">
        <ele>166</ele>
        <time>2022-08-14T08:52:10Z</time>
      </trkpt>
      <trkpt lat="43.97651" lon="1.81119">
        <ele>166</ele>
        <time>2022-08-14T08:52:11Z</time>
      </trkpt>
      <trkpt lat="43.97653" lon="1.81126">
        <ele>165.8</ele>
        <time>2022-08-14T08:52:12Z</time>
      </trkpt>
      <trkpt lat="43.97654" lon="1.81133">
        <ele>165.8</ele>
        <time>2022-08-14T08:52:13Z</time>
      </trkpt>
      <trkpt lat="43.97661" lon="1.8117">
        <ele>166</ele>
        <time>2022-08-14T08:52:18Z</time>
      </trkpt>
      <trkpt lat="43.97671" lon="1.81213">
        <ele>166.2</ele>
        <time>2022-08-14T08:52:23Z</time>
      </trkpt>
      <trkpt lat="43.9768" lon="1.81263">
        <ele>166.2</ele>
        <time>2022-08-14T08:52:28Z</time>
      </trkpt>
      <trkpt lat="43.97682" lon="1.81272">
        <ele>166.2</ele>
        <time>2022-08-14T08:52:29Z</time>
      </trkpt>
      <trkpt lat="43.97685" lon="1.81284">
        <ele>166.2</ele>
        <time>2022-08-14T08:52:30Z</time>
      </trkpt>
      <trkpt lat="43.97688" lon="1.81294">
        <ele>166.2</ele>
        <time>2022-08-14T08:52:31Z</time>
      </trkpt>
      <trkpt lat="43.97695" lon="1.81312">
        <ele>166.2</ele>
        <time>2022-08-14T08:52:33Z</time>
      </trkpt>
      <trkpt lat="43.97699" lon="1.81321">
        <ele>166.2</ele>
        <time>2022-08-14T08:52:34Z</time>
      </trkpt>
      <trkpt lat="43.97703" lon="1.81329">
        <ele>166</ele>
        <time>2022-08-14T08:52:35Z</time>
      </trkpt>
      <trkpt lat="43.97706" lon="1.81338">
        <ele>166.4</ele>
        <time>2022-08-14T08:52:36Z</time>
      </trkpt>
      <trkpt lat="43.9771" lon="1.81346">
        <ele>166.4</ele>
        <time>2022-08-14T08:52:37Z</time>
      </trkpt>
      <trkpt lat="43.97712" lon="1.81352">
        <ele>166.4</ele>
        <time>2022-08-14T08:52:38Z</time>
      </trkpt>
      <trkpt lat="43.97717" lon="1.81362">
        <ele>166.6</ele>
        <time>2022-08-14T08:52:39Z</time>
      </trkpt>
      <trkpt lat="43.9772" lon="1.81369">
        <ele>166.6</ele>
        <time>2022-08-14T08:52:40Z</time>
      </trkpt>
      <trkpt lat="43.97724" lon="1.81376">
        <ele>166.8</ele>
        <time>2022-08-14T08:52:41Z</time>
      </trkpt>
      <trkpt lat="43.97727" lon="1.81383">
        <ele>167</ele>
        <time>2022-08-14T08:52:42Z</time>
      </trkpt>
      <trkpt lat="43.9773" lon="1.8139">
        <ele>167.4</ele>
        <time>2022-08-14T08:52:43Z</time>
      </trkpt>
      <trkpt lat="43.97733" lon="1.81397">
        <ele>167.4</ele>
        <time>2022-08-14T08:52:44Z</time>
      </trkpt>
      <trkpt lat="43.97738" lon="1.81411">
        <ele>167.8</ele>
        <time>2022-08-14T08:52:46Z</time>
      </trkpt>
      <trkpt lat="43.97748" lon="1.81433">
        <ele>168.4</ele>
        <time>2022-08-14T08:52:49Z</time>
      </trkpt>
      <trkpt lat="43.97764" lon="1.81475">
        <ele>169.2</ele>
        <time>2022-08-14T08:52:54Z</time>
      </trkpt>
      <trkpt lat="43.97767" lon="1.81484">
        <ele>169.4</ele>
        <time>2022-08-14T08:52:55Z</time>
      </trkpt>
      <trkpt lat="43.9777" lon="1.81492">
        <ele>169.2</ele>
        <time>2022-08-14T08:52:56Z</time>
      </trkpt>
      <trkpt lat="43.97773" lon="1.815">
        <ele>169.4</ele>
        <time>2022-08-14T08:52:57Z</time>
      </trkpt>
      <trkpt lat="43.97777" lon="1.81507">
        <ele>169.6</ele>
        <time>2022-08-14T08:52:58Z</time>
      </trkpt>
      <trkpt lat="43.97781" lon="1.81513">
        <ele>169.8</ele>
        <time>2022-08-14T08:52:59Z</time>
      </trkpt>
      <trkpt lat="43.97786" lon="1.8152">
        <ele>169.8</ele>
        <time>2022-08-14T08:53:00Z</time>
      </trkpt>
      <trkpt lat="43.97791" lon="1.81527">
        <ele>170.2</ele>
        <time>2022-08-14T08:53:01Z</time>
      </trkpt>
      <trkpt lat="43.97796" lon="1.81534">
        <ele>170.4</ele>
        <time>2022-08-14T08:53:02Z</time>
      </trkpt>
      <trkpt lat="43.97801" lon="1.81541">
        <ele>170.6</ele>
        <time>2022-08-14T08:53:03Z</time>
      </trkpt>
      <trkpt lat="43.97805" lon="1.81549">
        <ele>170.8</ele>
        <time>2022-08-14T08:53:04Z</time>
      </trkpt>
      <trkpt lat="43.97809" lon="1.81558">
        <ele>170.8</ele>
        <time>2022-08-14T08:53:05Z</time>
      </trkpt>
      <trkpt lat="43.97813" lon="1.81567">
        <ele>171</ele>
        <time>2022-08-14T08:53:06Z</time>
      </trkpt>
      <trkpt lat="43.97815" lon="1.81574">
        <ele>171.2</ele>
        <time>2022-08-14T08:53:07Z</time>
      </trkpt>
      <trkpt lat="43.97817" lon="1.81586">
        <ele>171.4</ele>
        <time>2022-08-14T08:53:08Z</time>
      </trkpt>
      <trkpt lat="43.97818" lon="1.81594">
        <ele>171.6</ele>
        <time>2022-08-14T08:53:09Z</time>
      </trkpt>
      <trkpt lat="43.97819" lon="1.81603">
        <ele>171.6</ele>
        <time>2022-08-14T08:53:10Z</time>
      </trkpt>
      <trkpt lat="43.97819" lon="1.81612">
        <ele>171.6</ele>
        <time>2022-08-14T08:53:11Z</time>
      </trkpt>
      <trkpt lat="43.97819" lon="1.81621">
        <ele>171.6</ele>
        <time>2022-08-14T08:53:12Z</time>
      </trkpt>
      <trkpt lat="43.97819" lon="1.81629">
        <ele>171.6</ele>
        <time>2022-08-14T08:53:13Z</time>
      </trkpt>
      <trkpt lat="43.9782" lon="1.81637">
        <ele>171.6</ele>
        <time>2022-08-14T08:53:14Z</time>
      </trkpt>
      <trkpt lat="43.9782" lon="1.81644">
        <ele>171.6</ele>
        <time>2022-08-14T08:53:15Z</time>
      </trkpt>
      <trkpt lat="43.97821" lon="1.8165">
        <ele>171.8</ele>
        <time>2022-08-14T08:53:16Z</time>
      </trkpt>
      <trkpt lat="43.97821" lon="1.81657">
        <ele>171.8</ele>
        <time>2022-08-14T08:53:17Z</time>
      </trkpt>
      <trkpt lat="43.97821" lon="1.81664">
        <ele>172</ele>
        <time>2022-08-14T08:53:18Z</time>
      </trkpt>
      <trkpt lat="43.97822" lon="1.81671">
        <ele>172</ele>
        <time>2022-08-14T08:53:19Z</time>
      </trkpt>
      <trkpt lat="43.97822" lon="1.81678">
        <ele>172</ele>
        <time>2022-08-14T08:53:20Z</time>
      </trkpt>
      <trkpt lat="43.97823" lon="1.81685">
        <ele>172.2</ele>
        <time>2022-08-14T08:53:21Z</time>
      </trkpt>
      <trkpt lat="43.97824" lon="1.81691">
        <ele>172.4</ele>
        <time>2022-08-14T08:53:22Z</time>
      </trkpt>
      <trkpt lat="43.97824" lon="1.81697">
        <ele>172.4</ele>
        <time>2022-08-14T08:53:23Z</time>
      </trkpt>
      <trkpt lat="43.97824" lon="1.81703">
        <ele>172.6</ele>
        <time>2022-08-14T08:53:24Z</time>
      </trkpt>
      <trkpt lat="43.97824" lon="1.81708">
        <ele>172.6</ele>
        <time>2022-08-14T08:53:25Z</time>
      </trkpt>
      <trkpt lat="43.97824" lon="1.81714">
        <ele>172.8</ele>
        <time>2022-08-14T08:53:26Z</time>
      </trkpt>
      <trkpt lat="43.97824" lon="1.81719">
        <ele>172.8</ele>
        <time>2022-08-14T08:53:27Z</time>
      </trkpt>
      <trkpt lat="43.97824" lon="1.81724">
        <ele>172.8</ele>
        <time>2022-08-14T08:53:28Z</time>
      </trkpt>
      <trkpt lat="43.97823" lon="1.81729">
        <ele>172.8</ele>
        <time>2022-08-14T08:53:29Z</time>
      </trkpt>
      <trkpt lat="43.97823" lon="1.81733">
        <ele>172.8</ele>
        <time>2022-08-14T08:53:30Z</time>
      </trkpt>
      <trkpt lat="43.97823" lon="1.81738">
        <ele>172.8</ele>
        <time>2022-08-14T08:53:31Z</time>
      </trkpt>
      <trkpt lat="43.97822" lon="1.81743">
        <ele>172.8</ele>
        <time>2022-08-14T08:53:32Z</time>
      </trkpt>
      <trkpt lat="43.97824" lon="1.81753">
        <ele>172.8</ele>
        <time>2022-08-14T08:53:34Z</time>
      </trkpt>
      <trkpt lat="43.97827" lon="1.81755">
        <ele>172.8</ele>
        <time>2022-08-14T08:53:35Z</time>
      </trkpt>
      <trkpt lat="43.97845" lon="1.81752">
        <ele>172.6</ele>
        <time>2022-08-14T08:53:39Z</time>
      </trkpt>
      <trkpt lat="43.9785" lon="1.8175">
        <ele>172.4</ele>
        <time>2022-08-14T08:53:40Z</time>
      </trkpt>
      <trkpt lat="43.97854" lon="1.81749">
        <ele>172.2</ele>
        <time>2022-08-14T08:53:41Z</time>
      </trkpt>
      <trkpt lat="43.97857" lon="1.8175">
        <ele>172</ele>
        <time>2022-08-14T08:53:42Z</time>
      </trkpt>
      <trkpt lat="43.97858" lon="1.81754">
        <ele>172</ele>
        <time>2022-08-14T08:53:43Z</time>
      </trkpt>
      <trkpt lat="43.97857" lon="1.81758">
        <ele>171.8</ele>
        <time>2022-08-14T08:53:44Z</time>
      </trkpt>
      <trkpt lat="43.97856" lon="1.81762">
        <ele>171.6</ele>
        <time>2022-08-14T08:53:45Z</time>
      </trkpt>
      <trkpt lat="43.97855" lon="1.81765">
        <ele>171.6</ele>
        <time>2022-08-14T08:53:46Z</time>
      </trkpt>
      <trkpt lat="43.97854" lon="1.81769">
        <ele>171.4</ele>
        <time>2022-08-14T08:53:47Z</time>
      </trkpt>
      <trkpt lat="43.97853" lon="1.81772">
        <ele>171.2</ele>
        <time>2022-08-14T08:53:48Z</time>
      </trkpt>
      <trkpt lat="43.97852" lon="1.81775">
        <ele>171</ele>
        <time>2022-08-14T08:53:49Z</time>
      </trkpt>
      <trkpt lat="43.97852" lon="1.81778">
        <ele>170.8</ele>
        <time>2022-08-14T08:53:50Z</time>
      </trkpt>
      <trkpt lat="43.9785" lon="1.81783">
        <ele>170.6</ele>
        <time>2022-08-14T08:53:52Z</time>
      </trkpt>
      <trkpt lat="43.97849" lon="1.81786">
        <ele>170.6</ele>
        <time>2022-08-14T08:53:53Z</time>
      </trkpt>
      <trkpt lat="43.97843" lon="1.81811">
        <ele>170.4</ele>
        <time>2022-08-14T08:54:01Z</time>
      </trkpt>
      <trkpt lat="43.97843" lon="1.81815">
        <ele>170.4</ele>
        <time>2022-08-14T08:54:02Z</time>
      </trkpt>
      <trkpt lat="43.97844" lon="1.81818">
        <ele>170.6</ele>
        <time>2022-08-14T08:54:03Z</time>
      </trkpt>
      <trkpt lat="43.97845" lon="1.81824">
        <ele>170.6</ele>
        <time>2022-08-14T08:54:05Z</time>
      </trkpt>
      <trkpt lat="43.97847" lon="1.81827">
        <ele>170.8</ele>
        <time>2022-08-14T08:54:06Z</time>
      </trkpt>
      <trkpt lat="43.97848" lon="1.8183">
        <ele>170.8</ele>
        <time>2022-08-14T08:54:07Z</time>
      </trkpt>
      <trkpt lat="43.9785" lon="1.81833">
        <ele>170.8</ele>
        <time>2022-08-14T08:54:08Z</time>
      </trkpt>
      <trkpt lat="43.97851" lon="1.81836">
        <ele>170.8</ele>
        <time>2022-08-14T08:54:09Z</time>
      </trkpt>
      <trkpt lat="43.97853" lon="1.81839">
        <ele>170.8</ele>
        <time>2022-08-14T08:54:10Z</time>
      </trkpt>
      <trkpt lat="43.97854" lon="1.81843">
        <ele>170.8</ele>
        <time>2022-08-14T08:54:11Z</time>
      </trkpt>
      <trkpt lat="43.97858" lon="1.81853">
        <ele>171</ele>
        <time>2022-08-14T08:54:14Z</time>
      </trkpt>
      <trkpt lat="43.9786" lon="1.81856">
        <ele>170.8</ele>
        <time>2022-08-14T08:54:15Z</time>
      </trkpt>
      <trkpt lat="43.97869" lon="1.81877">
        <ele>170.6</ele>
        <time>2022-08-14T08:54:21Z</time>
      </trkpt>
      <trkpt lat="43.9787" lon="1.81881">
        <ele>170.6</ele>
        <time>2022-08-14T08:54:22Z</time>
      </trkpt>
      <trkpt lat="43.97872" lon="1.8189">
        <ele>170.4</ele>
        <time>2022-08-14T08:54:25Z</time>
      </trkpt>
      <trkpt lat="43.97874" lon="1.81897">
        <ele>170.2</ele>
        <time>2022-08-14T08:54:27Z</time>
      </trkpt>
      <trkpt lat="43.97874" lon="1.819">
        <ele>170.2</ele>
        <time>2022-08-14T08:54:28Z</time>
      </trkpt>
      <trkpt lat="43.97874" lon="1.81907">
        <ele>170</ele>
        <time>2022-08-14T08:54:30Z</time>
      </trkpt>
      <trkpt lat="43.97874" lon="1.81917">
        <ele>170</ele>
        <time>2022-08-14T08:54:33Z</time>
      </trkpt>
      <trkpt lat="43.97875" lon="1.81939">
        <ele>170</ele>
        <time>2022-08-14T08:54:39Z</time>
      </trkpt>
      <trkpt lat="43.97875" lon="1.81949">
        <ele>170</ele>
        <time>2022-08-14T08:54:41Z</time>
      </trkpt>
      <trkpt lat="43.97875" lon="1.81967">
        <ele>169.8</ele>
        <time>2022-08-14T08:54:45Z</time>
      </trkpt>
      <trkpt lat="43.97874" lon="1.81981">
        <ele>169.4</ele>
        <time>2022-08-14T08:54:48Z</time>
      </trkpt>
      <trkpt lat="43.97871" lon="1.82002">
        <ele>169.4</ele>
        <time>2022-08-14T08:54:52Z</time>
      </trkpt>
      <trkpt lat="43.97868" lon="1.82025">
        <ele>169.6</ele>
        <time>2022-08-14T08:54:56Z</time>
      </trkpt>
      <trkpt lat="43.97869" lon="1.82032">
        <ele>169.6</ele>
        <time>2022-08-14T08:54:57Z</time>
      </trkpt>
      <trkpt lat="43.97868" lon="1.82057">
        <ele>170.2</ele>
        <time>2022-08-14T08:55:01Z</time>
      </trkpt>
      <trkpt lat="43.97867" lon="1.8207">
        <ele>170.2</ele>
        <time>2022-08-14T08:55:03Z</time>
      </trkpt>
      <trkpt lat="43.97867" lon="1.82076">
        <ele>170.2</ele>
        <time>2022-08-14T08:55:04Z</time>
      </trkpt>
      <trkpt lat="43.97865" lon="1.82087">
        <ele>170.2</ele>
        <time>2022-08-14T08:55:06Z</time>
      </trkpt>
      <trkpt lat="43.9786" lon="1.82123">
        <ele>170</ele>
        <time>2022-08-14T08:55:12Z</time>
      </trkpt>
      <trkpt lat="43.97859" lon="1.82142">
        <ele>170</ele>
        <time>2022-08-14T08:55:15Z</time>
      </trkpt>
      <trkpt lat="43.97858" lon="1.82148">
        <ele>170</ele>
        <time>2022-08-14T08:55:16Z</time>
      </trkpt>
      <trkpt lat="43.97858" lon="1.82153">
        <ele>170.2</ele>
        <time>2022-08-14T08:55:17Z</time>
      </trkpt>
      <trkpt lat="43.97857" lon="1.82157">
        <ele>170.2</ele>
        <time>2022-08-14T08:55:18Z</time>
      </trkpt>
      <trkpt lat="43.97856" lon="1.82161">
        <ele>170.4</ele>
        <time>2022-08-14T08:55:19Z</time>
      </trkpt>
      <trkpt lat="43.97856" lon="1.82188">
        <ele>170.6</ele>
        <time>2022-08-14T08:55:24Z</time>
      </trkpt>
      <trkpt lat="43.97856" lon="1.82193">
        <ele>170.6</ele>
        <time>2022-08-14T08:55:25Z</time>
      </trkpt>
      <trkpt lat="43.97856" lon="1.82198">
        <ele>171</ele>
        <time>2022-08-14T08:55:26Z</time>
      </trkpt>
      <trkpt lat="43.97855" lon="1.82202">
        <ele>171</ele>
        <time>2022-08-14T08:55:27Z</time>
      </trkpt>
      <trkpt lat="43.97855" lon="1.82206">
        <ele>171.2</ele>
        <time>2022-08-14T08:55:28Z</time>
      </trkpt>
      <trkpt lat="43.97855" lon="1.8221">
        <ele>171.2</ele>
        <time>2022-08-14T08:55:29Z</time>
      </trkpt>
      <trkpt lat="43.97855" lon="1.82214">
        <ele>171.4</ele>
        <time>2022-08-14T08:55:30Z</time>
      </trkpt>
      <trkpt lat="43.97856" lon="1.82217">
        <ele>171.4</ele>
        <time>2022-08-14T08:55:31Z</time>
      </trkpt>
      <trkpt lat="43.97856" lon="1.82221">
        <ele>171.6</ele>
        <time>2022-08-14T08:55:32Z</time>
      </trkpt>
      <trkpt lat="43.97856" lon="1.8223">
        <ele>171.8</ele>
        <time>2022-08-14T08:55:35Z</time>
      </trkpt>
      <trkpt lat="43.97856" lon="1.82232">
        <ele>171.8</ele>
        <time>2022-08-14T08:55:36Z</time>
      </trkpt>
      <trkpt lat="43.97856" lon="1.82235">
        <ele>171.8</ele>
        <time>2022-08-14T08:55:37Z</time>
      </trkpt>
      <trkpt lat="43.97857" lon="1.82237">
        <ele>171.8</ele>
        <time>2022-08-14T08:55:38Z</time>
      </trkpt>
      <trkpt lat="43.97858" lon="1.82238">
        <ele>172</ele>
        <time>2022-08-14T08:55:39Z</time>
      </trkpt>
      <trkpt lat="43.97858" lon="1.82238">
        <ele>172</ele>
        <time>2022-08-14T08:55:40Z</time>
      </trkpt>
      <trkpt lat="43.97858" lon="1.82236">
        <ele>172</ele>
        <time>2022-08-14T08:55:41Z</time>
      </trkpt>
      <trkpt lat="43.97857" lon="1.82234">
        <ele>172</ele>
        <time>2022-08-14T08:55:42Z</time>
      </trkpt>
      <trkpt lat="43.97856" lon="1.82233">
        <ele>172</ele>
        <time>2022-08-14T08:55:43Z</time>
      </trkpt>
      <trkpt lat="43.97853" lon="1.82231">
        <ele>171.8</ele>
        <time>2022-08-14T08:55:54Z</time>
      </trkpt>
      <trkpt lat="43.97845" lon="1.8223">
        <ele>171.8</ele>
        <time>2022-08-14T08:55:58Z</time>
      </trkpt>
      <trkpt lat="43.97842" lon="1.82229">
        <ele>172</ele>
        <time>2022-08-14T08:56:00Z</time>
      </trkpt>
      <trkpt lat="43.9784" lon="1.82229">
        <ele>172</ele>
        <time>2022-08-14T08:56:01Z</time>
      </trkpt>
      <trkpt lat="43.97836" lon="1.82227">
        <ele>172.4</ele>
        <time>2022-08-14T08:56:04Z</time>
      </trkpt>
      <trkpt lat="43.97835" lon="1.82227">
        <ele>172.4</ele>
        <time>2022-08-14T08:56:05Z</time>
      </trkpt>
      <trkpt lat="43.97833" lon="1.82226">
        <ele>172.6</ele>
        <time>2022-08-14T08:56:06Z</time>
      </trkpt>
      <trkpt lat="43.97832" lon="1.82226">
        <ele>172.6</ele>
        <time>2022-08-14T08:56:07Z</time>
      </trkpt>
      <trkpt lat="43.97831" lon="1.82226">
        <ele>172.6</ele>
        <time>2022-08-14T08:56:08Z</time>
      </trkpt>
      <trkpt lat="43.9783" lon="1.82225">
        <ele>172.8</ele>
        <time>2022-08-14T08:56:09Z</time>
      </trkpt>
      <trkpt lat="43.9783" lon="1.82225">
        <ele>172.8</ele>
        <time>2022-08-14T08:56:10Z</time>
      </trkpt>
      <trkpt lat="43.97829" lon="1.82225">
        <ele>172.8</ele>
        <time>2022-08-14T08:56:11Z</time>
      </trkpt>
      <trkpt lat="43.97827" lon="1.82226">
        <ele>172.8</ele>
        <time>2022-08-14T08:56:12Z</time>
      </trkpt>
      <trkpt lat="43.97822" lon="1.82225">
        <ele>173.2</ele>
        <time>2022-08-14T08:56:16Z</time>
      </trkpt>
      <trkpt lat="43.97822" lon="1.82225">
        <ele>173.2</ele>
        <time>2022-08-14T08:56:17Z</time>
      </trkpt>
      <trkpt lat="43.97821" lon="1.82224">
        <ele>173.6</ele>
        <time>2022-08-14T08:56:18Z</time>
      </trkpt>
      <trkpt lat="43.9782" lon="1.82225">
        <ele>173.6</ele>
        <time>2022-08-14T08:56:19Z</time>
      </trkpt>
      <trkpt lat="43.97818" lon="1.82225">
        <ele>173.8</ele>
        <time>2022-08-14T08:56:20Z</time>
      </trkpt>
      <trkpt lat="43.97817" lon="1.82225">
        <ele>174.2</ele>
        <time>2022-08-14T08:56:21Z</time>
      </trkpt>
      <trkpt lat="43.97815" lon="1.82226">
        <ele>175</ele>
        <time>2022-08-14T08:56:22Z</time>
      </trkpt>
      <trkpt lat="43.97814" lon="1.82226">
        <ele>175.4</ele>
        <time>2022-08-14T08:56:23Z</time>
      </trkpt>
      <trkpt lat="43.97812" lon="1.82225">
        <ele>175.6</ele>
        <time>2022-08-14T08:56:24Z</time>
      </trkpt>
      <trkpt lat="43.9781" lon="1.82225">
        <ele>176</ele>
        <time>2022-08-14T08:56:25Z</time>
      </trkpt>
      <trkpt lat="43.97809" lon="1.82226">
        <ele>176.2</ele>
        <time>2022-08-14T08:56:26Z</time>
      </trkpt>
      <trkpt lat="43.97808" lon="1.82226">
        <ele>176.8</ele>
        <time>2022-08-14T08:56:27Z</time>
      </trkpt>
      <trkpt lat="43.97807" lon="1.82226">
        <ele>177</ele>
        <time>2022-08-14T08:56:28Z</time>
      </trkpt>
      <trkpt lat="43.97805" lon="1.82226">
        <ele>177.2</ele>
        <time>2022-08-14T08:56:29Z</time>
      </trkpt>
      <trkpt lat="43.97804" lon="1.82226">
        <ele>177.4</ele>
        <time>2022-08-14T08:56:30Z</time>
      </trkpt>
      <trkpt lat="43.97802" lon="1.82226">
        <ele>177.6</ele>
        <time>2022-08-14T08:56:31Z</time>
      </trkpt>
      <trkpt lat="43.97799" lon="1.82226">
        <ele>178</ele>
        <time>2022-08-14T08:56:32Z</time>
      </trkpt>
      <trkpt lat="43.97796" lon="1.82226">
        <ele>178.2</ele>
        <time>2022-08-14T08:56:33Z</time>
      </trkpt>
      <trkpt lat="43.97793" lon="1.82226">
        <ele>178.4</ele>
        <time>2022-08-14T08:56:34Z</time>
      </trkpt>
      <trkpt lat="43.97791" lon="1.82226">
        <ele>178.6</ele>
        <time>2022-08-14T08:56:35Z</time>
      </trkpt>
      <trkpt lat="43.9779" lon="1.82226">
        <ele>178.8</ele>
        <time>2022-08-14T08:56:36Z</time>
      </trkpt>
      <trkpt lat="43.97789" lon="1.82226">
        <ele>179</ele>
        <time>2022-08-14T08:56:37Z</time>
      </trkpt>
      <trkpt lat="43.97787" lon="1.82226">
        <ele>179.2</ele>
        <time>2022-08-14T08:56:38Z</time>
      </trkpt>
      <trkpt lat="43.97783" lon="1.82226">
        <ele>179.6</ele>
        <time>2022-08-14T08:56:39Z</time>
      </trkpt>
      <trkpt lat="43.97779" lon="1.82226">
        <ele>179.8</ele>
        <time>2022-08-14T08:56:40Z</time>
      </trkpt>
      <trkpt lat="43.97779" lon="1.82226">
        <ele>180</ele>
        <time>2022-08-14T08:56:41Z</time>
      </trkpt>
      <trkpt lat="43.97779" lon="1.82226">
        <ele>180</ele>
        <time>2022-08-14T08:56:42Z</time>
      </trkpt>
      <trkpt lat="43.97778" lon="1.82225">
        <ele>180.4</ele>
        <time>2022-08-14T08:56:43Z</time>
      </trkpt>
      <trkpt lat="43.97777" lon="1.82226">
        <ele>180.6</ele>
        <time>2022-08-14T08:56:44Z</time>
      </trkpt>
      <trkpt lat="43.97776" lon="1.82225">
        <ele>180.8</ele>
        <time>2022-08-14T08:56:45Z</time>
      </trkpt>
      <trkpt lat="43.97775" lon="1.82225">
        <ele>180.8</ele>
        <time>2022-08-14T08:56:46Z</time>
      </trkpt>
      <trkpt lat="43.97774" lon="1.82225">
        <ele>181.2</ele>
        <time>2022-08-14T08:56:47Z</time>
      </trkpt>
      <trkpt lat="43.97772" lon="1.82225">
        <ele>181.4</ele>
        <time>2022-08-14T08:56:48Z</time>
      </trkpt>
      <trkpt lat="43.97771" lon="1.82225">
        <ele>181.6</ele>
        <time>2022-08-14T08:56:49Z</time>
      </trkpt>
      <trkpt lat="43.9777" lon="1.82225">
        <ele>181.8</ele>
        <time>2022-08-14T08:56:50Z</time>
      </trkpt>
      <trkpt lat="43.97769" lon="1.82225">
        <ele>182</ele>
        <time>2022-08-14T08:56:51Z</time>
      </trkpt>
      <trkpt lat="43.97768" lon="1.82225">
        <ele>182.2</ele>
        <time>2022-08-14T08:56:52Z</time>
      </trkpt>
      <trkpt lat="43.97768" lon="1.82225">
        <ele>182.2</ele>
        <time>2022-08-14T08:56:53Z</time>
      </trkpt>
      <trkpt lat="43.97767" lon="1.82225">
        <ele>182.8</ele>
        <time>2022-08-14T08:56:54Z</time>
      </trkpt>
      <trkpt lat="43.97766" lon="1.82225">
        <ele>183.2</ele>
        <time>2022-08-14T08:56:55Z</time>
      </trkpt>
      <trkpt lat="43.97764" lon="1.82225">
        <ele>183.4</ele>
        <time>2022-08-14T08:56:56Z</time>
      </trkpt>
      <trkpt lat="43.97762" lon="1.82225">
        <ele>183.8</ele>
        <time>2022-08-14T08:56:57Z</time>
      </trkpt>
      <trkpt lat="43.97761" lon="1.82225">
        <ele>184.2</ele>
        <time>2022-08-14T08:56:58Z</time>
      </trkpt>
      <trkpt lat="43.9776" lon="1.82226">
        <ele>184.4</ele>
        <time>2022-08-14T08:56:59Z</time>
      </trkpt>
      <trkpt lat="43.97758" lon="1.82225">
        <ele>184.6</ele>
        <time>2022-08-14T08:57:00Z</time>
      </trkpt>
      <trkpt lat="43.97757" lon="1.82225">
        <ele>184.8</ele>
        <time>2022-08-14T08:57:01Z</time>
      </trkpt>
      <trkpt lat="43.97755" lon="1.82225">
        <ele>184.8</ele>
        <time>2022-08-14T08:57:02Z</time>
      </trkpt>
      <trkpt lat="43.97753" lon="1.82224">
        <ele>185</ele>
        <time>2022-08-14T08:57:03Z</time>
      </trkpt>
      <trkpt lat="43.97751" lon="1.82223">
        <ele>185.2</ele>
        <time>2022-08-14T08:57:04Z</time>
      </trkpt>
      <trkpt lat="43.9775" lon="1.82223">
        <ele>185.2</ele>
        <time>2022-08-14T08:57:05Z</time>
      </trkpt>
      <trkpt lat="43.97748" lon="1.82223">
        <ele>185.4</ele>
        <time>2022-08-14T08:57:06Z</time>
      </trkpt>
      <trkpt lat="43.97747" lon="1.82224">
        <ele>185.4</ele>
        <time>2022-08-14T08:57:07Z</time>
      </trkpt>
      <trkpt lat="43.97745" lon="1.82224">
        <ele>185.6</ele>
        <time>2022-08-14T08:57:08Z</time>
      </trkpt>
      <trkpt lat="43.97743" lon="1.82224">
        <ele>185.6</ele>
        <time>2022-08-14T08:57:09Z</time>
      </trkpt>
      <trkpt lat="43.97741" lon="1.82224">
        <ele>186</ele>
        <time>2022-08-14T08:57:10Z</time>
      </trkpt>
      <trkpt lat="43.97739" lon="1.82225">
        <ele>186.2</ele>
        <time>2022-08-14T08:57:11Z</time>
      </trkpt>
      <trkpt lat="43.97738" lon="1.82225">
        <ele>186.4</ele>
        <time>2022-08-14T08:57:12Z</time>
      </trkpt>
      <trkpt lat="43.97736" lon="1.82225">
        <ele>186.6</ele>
        <time>2022-08-14T08:57:13Z</time>
      </trkpt>
      <trkpt lat="43.97734" lon="1.82225">
        <ele>186.8</ele>
        <time>2022-08-14T08:57:14Z</time>
      </trkpt>
      <trkpt lat="43.97731" lon="1.82225">
        <ele>187.2</ele>
        <time>2022-08-14T08:57:15Z</time>
      </trkpt>
      <trkpt lat="43.97729" lon="1.82225">
        <ele>187.2</ele>
        <time>2022-08-14T08:57:16Z</time>
      </trkpt>
      <trkpt lat="43.97727" lon="1.82225">
        <ele>187.6</ele>
        <time>2022-08-14T08:57:17Z</time>
      </trkpt>
      <trkpt lat="43.97726" lon="1.82226">
        <ele>187.6</ele>
        <time>2022-08-14T08:57:18Z</time>
      </trkpt>
      <trkpt lat="43.97724" lon="1.82227">
        <ele>188.2</ele>
        <time>2022-08-14T08:57:19Z</time>
      </trkpt>
      <trkpt lat="43.97722" lon="1.82227">
        <ele>188.6</ele>
        <time>2022-08-14T08:57:20Z</time>
      </trkpt>
      <trkpt lat="43.97721" lon="1.82227">
        <ele>188.8</ele>
        <time>2022-08-14T08:57:21Z</time>
      </trkpt>
      <trkpt lat="43.9772" lon="1.82227">
        <ele>189.2</ele>
        <time>2022-08-14T08:57:22Z</time>
      </trkpt>
      <trkpt lat="43.97719" lon="1.82226">
        <ele>189.4</ele>
        <time>2022-08-14T08:57:23Z</time>
      </trkpt>
      <trkpt lat="43.97717" lon="1.82226">
        <ele>190</ele>
        <time>2022-08-14T08:57:24Z</time>
      </trkpt>
      <trkpt lat="43.97716" lon="1.82226">
        <ele>190.2</ele>
        <time>2022-08-14T08:57:25Z</time>
      </trkpt>
      <trkpt lat="43.97713" lon="1.82226">
        <ele>190.4</ele>
        <time>2022-08-14T08:57:26Z</time>
      </trkpt>
      <trkpt lat="43.97711" lon="1.82226">
        <ele>190.6</ele>
        <time>2022-08-14T08:57:27Z</time>
      </trkpt>
      <trkpt lat="43.97709" lon="1.82226">
        <ele>190.6</ele>
        <time>2022-08-14T08:57:28Z</time>
      </trkpt>
      <trkpt lat="43.97708" lon="1.82224">
        <ele>190.8</ele>
        <time>2022-08-14T08:57:29Z</time>
      </trkpt>
      <trkpt lat="43.97706" lon="1.82224">
        <ele>191</ele>
        <time>2022-08-14T08:57:30Z</time>
      </trkpt>
      <trkpt lat="43.97705" lon="1.82222">
        <ele>191.4</ele>
        <time>2022-08-14T08:57:31Z</time>
      </trkpt>
      <trkpt lat="43.97704" lon="1.82221">
        <ele>191.4</ele>
        <time>2022-08-14T08:57:32Z</time>
      </trkpt>
      <trkpt lat="43.97704" lon="1.82221">
        <ele>191.6</ele>
        <time>2022-08-14T08:57:33Z</time>
      </trkpt>
      <trkpt lat="43.97703" lon="1.82221">
        <ele>191.8</ele>
        <time>2022-08-14T08:57:34Z</time>
      </trkpt>
      <trkpt lat="43.97703" lon="1.8222">
        <ele>192</ele>
        <time>2022-08-14T08:57:35Z</time>
      </trkpt>
      <trkpt lat="43.97702" lon="1.8222">
        <ele>192</ele>
        <time>2022-08-14T08:57:36Z</time>
      </trkpt>
      <trkpt lat="43.97701" lon="1.82221">
        <ele>192.2</ele>
        <time>2022-08-14T08:57:37Z</time>
      </trkpt>
      <trkpt lat="43.97699" lon="1.8222">
        <ele>192.4</ele>
        <time>2022-08-14T08:57:38Z</time>
      </trkpt>
      <trkpt lat="43.97699" lon="1.8222">
        <ele>192.4</ele>
        <time>2022-08-14T08:57:39Z</time>
      </trkpt>
      <trkpt lat="43.97698" lon="1.8222">
        <ele>192.8</ele>
        <time>2022-08-14T08:57:40Z</time>
      </trkpt>
      <trkpt lat="43.97697" lon="1.82221">
        <ele>193</ele>
        <time>2022-08-14T08:57:41Z</time>
      </trkpt>
      <trkpt lat="43.97696" lon="1.82221">
        <ele>193.2</ele>
        <time>2022-08-14T08:57:42Z</time>
      </trkpt>
      <trkpt lat="43.97696" lon="1.82221">
        <ele>193.4</ele>
        <time>2022-08-14T08:57:43Z</time>
      </trkpt>
      <trkpt lat="43.97696" lon="1.82221">
        <ele>195</ele>
        <time>2022-08-14T08:58:01Z</time>
      </trkpt>
      <trkpt lat="43.97696" lon="1.82221">
        <ele>195</ele>
        <time>2022-08-14T08:58:02Z</time>
      </trkpt>
      <trkpt lat="43.97695" lon="1.82221">
        <ele>195</ele>
        <time>2022-08-14T08:58:03Z</time>
      </trkpt>
      <trkpt lat="43.97693" lon="1.82221">
        <ele>195</ele>
        <time>2022-08-14T08:58:04Z</time>
      </trkpt>
      <trkpt lat="43.97691" lon="1.82221">
        <ele>195</ele>
        <time>2022-08-14T08:58:05Z</time>
      </trkpt>
      <trkpt lat="43.97689" lon="1.82222">
        <ele>195.2</ele>
        <time>2022-08-14T08:58:06Z</time>
      </trkpt>
      <trkpt lat="43.97688" lon="1.82222">
        <ele>195.6</ele>
        <time>2022-08-14T08:58:07Z</time>
      </trkpt>
      <trkpt lat="43.97686" lon="1.82223">
        <ele>195.8</ele>
        <time>2022-08-14T08:58:08Z</time>
      </trkpt>
      <trkpt lat="43.97684" lon="1.82222">
        <ele>196</ele>
        <time>2022-08-14T08:58:09Z</time>
      </trkpt>
      <trkpt lat="43.97678" lon="1.82221">
        <ele>196.6</ele>
        <time>2022-08-14T08:58:13Z</time>
      </trkpt>
      <trkpt lat="43.97676" lon="1.82221">
        <ele>196.8</ele>
        <time>2022-08-14T08:58:14Z</time>
      </trkpt>
      <trkpt lat="43.97674" lon="1.82221">
        <ele>197</ele>
        <time>2022-08-14T08:58:15Z</time>
      </trkpt>
      <trkpt lat="43.97673" lon="1.82221">
        <ele>197</ele>
        <time>2022-08-14T08:58:16Z</time>
      </trkpt>
      <trkpt lat="43.97671" lon="1.82221">
        <ele>197.2</ele>
        <time>2022-08-14T08:58:17Z</time>
      </trkpt>
      <trkpt lat="43.9767" lon="1.82221">
        <ele>197.4</ele>
        <time>2022-08-14T08:58:18Z</time>
      </trkpt>
      <trkpt lat="43.97669" lon="1.82221">
        <ele>197.8</ele>
        <time>2022-08-14T08:58:19Z</time>
      </trkpt>
      <trkpt lat="43.97667" lon="1.82221">
        <ele>197.8</ele>
        <time>2022-08-14T08:58:20Z</time>
      </trkpt>
      <trkpt lat="43.97665" lon="1.8222">
        <ele>198</ele>
        <time>2022-08-14T08:58:21Z</time>
      </trkpt>
      <trkpt lat="43.97664" lon="1.8222">
        <ele>198.2</ele>
        <time>2022-08-14T08:58:22Z</time>
      </trkpt>
      <trkpt lat="43.97662" lon="1.8222">
        <ele>198.2</ele>
        <time>2022-08-14T08:58:23Z</time>
      </trkpt>
      <trkpt lat="43.97661" lon="1.8222">
        <ele>198.4</ele>
        <time>2022-08-14T08:58:24Z</time>
      </trkpt>
      <trkpt lat="43.97659" lon="1.8222">
        <ele>198.4</ele>
        <time>2022-08-14T08:58:25Z</time>
      </trkpt>
      <trkpt lat="43.97657" lon="1.82221">
        <ele>198.4</ele>
        <time>2022-08-14T08:58:26Z</time>
      </trkpt>
      <trkpt lat="43.97655" lon="1.8222">
        <ele>198.6</ele>
        <time>2022-08-14T08:58:27Z</time>
      </trkpt>
      <trkpt lat="43.97653" lon="1.8222">
        <ele>198.6</ele>
        <time>2022-08-14T08:58:28Z</time>
      </trkpt>
      <trkpt lat="43.97652" lon="1.8222">
        <ele>198.8</ele>
        <time>2022-08-14T08:58:29Z</time>
      </trkpt>
      <trkpt lat="43.9765" lon="1.8222">
        <ele>199</ele>
        <time>2022-08-14T08:58:30Z</time>
      </trkpt>
      <trkpt lat="43.97648" lon="1.8222">
        <ele>199</ele>
        <time>2022-08-14T08:58:31Z</time>
      </trkpt>
      <trkpt lat="43.97647" lon="1.82219">
        <ele>199.2</ele>
        <time>2022-08-14T08:58:32Z</time>
      </trkpt>
      <trkpt lat="43.97645" lon="1.82219">
        <ele>199.4</ele>
        <time>2022-08-14T08:58:33Z</time>
      </trkpt>
      <trkpt lat="43.97643" lon="1.82218">
        <ele>199.6</ele>
        <time>2022-08-14T08:58:34Z</time>
      </trkpt>
      <trkpt lat="43.97642" lon="1.82218">
        <ele>199.6</ele>
        <time>2022-08-14T08:58:35Z</time>
      </trkpt>
      <trkpt lat="43.9764" lon="1.82217">
        <ele>199.6</ele>
        <time>2022-08-14T08:58:36Z</time>
      </trkpt>
      <trkpt lat="43.97638" lon="1.82217">
        <ele>199.8</ele>
        <time>2022-08-14T08:58:37Z</time>
      </trkpt>
      <trkpt lat="43.97636" lon="1.82217">
        <ele>200</ele>
        <time>2022-08-14T08:58:38Z</time>
      </trkpt>
      <trkpt lat="43.97634" lon="1.82217">
        <ele>200</ele>
        <time>2022-08-14T08:58:39Z</time>
      </trkpt>
      <trkpt lat="43.97633" lon="1.82217">
        <ele>200.2</ele>
        <time>2022-08-14T08:58:40Z</time>
      </trkpt>
      <trkpt lat="43.97631" lon="1.82216">
        <ele>200.4</ele>
        <time>2022-08-14T08:58:41Z</time>
      </trkpt>
      <trkpt lat="43.97629" lon="1.82216">
        <ele>200.4</ele>
        <time>2022-08-14T08:58:42Z</time>
      </trkpt>
      <trkpt lat="43.97627" lon="1.82216">
        <ele>200.4</ele>
        <time>2022-08-14T08:58:43Z</time>
      </trkpt>
      <trkpt lat="43.97626" lon="1.82215">
        <ele>200.6</ele>
        <time>2022-08-14T08:58:44Z</time>
      </trkpt>
      <trkpt lat="43.97624" lon="1.82214">
        <ele>200.6</ele>
        <time>2022-08-14T08:58:45Z</time>
      </trkpt>
      <trkpt lat="43.97622" lon="1.82214">
        <ele>200.6</ele>
        <time>2022-08-14T08:58:46Z</time>
      </trkpt>
      <trkpt lat="43.9762" lon="1.82213">
        <ele>200.6</ele>
        <time>2022-08-14T08:58:47Z</time>
      </trkpt>
      <trkpt lat="43.97618" lon="1.82213">
        <ele>200.8</ele>
        <time>2022-08-14T08:58:48Z</time>
      </trkpt>
      <trkpt lat="43.97616" lon="1.82212">
        <ele>201</ele>
        <time>2022-08-14T08:58:49Z</time>
      </trkpt>
      <trkpt lat="43.97614" lon="1.82212">
        <ele>201</ele>
        <time>2022-08-14T08:58:50Z</time>
      </trkpt>
      <trkpt lat="43.97613" lon="1.82212">
        <ele>201.4</ele>
        <time>2022-08-14T08:58:51Z</time>
      </trkpt>
      <trkpt lat="43.97611" lon="1.82211">
        <ele>201.4</ele>
        <time>2022-08-14T08:58:52Z</time>
      </trkpt>
      <trkpt lat="43.97609" lon="1.82211">
        <ele>201.6</ele>
        <time>2022-08-14T08:58:53Z</time>
      </trkpt>
      <trkpt lat="43.97607" lon="1.82211">
        <ele>201.6</ele>
        <time>2022-08-14T08:58:54Z</time>
      </trkpt>
      <trkpt lat="43.97605" lon="1.8221">
        <ele>201.8</ele>
        <time>2022-08-14T08:58:55Z</time>
      </trkpt>
      <trkpt lat="43.97603" lon="1.8221">
        <ele>202</ele>
        <time>2022-08-14T08:58:56Z</time>
      </trkpt>
      <trkpt lat="43.97601" lon="1.82209">
        <ele>202</ele>
        <time>2022-08-14T08:58:57Z</time>
      </trkpt>
      <trkpt lat="43.97598" lon="1.82209">
        <ele>202.2</ele>
        <time>2022-08-14T08:58:58Z</time>
      </trkpt>
      <trkpt lat="43.97596" lon="1.82209">
        <ele>202.2</ele>
        <time>2022-08-14T08:58:59Z</time>
      </trkpt>
      <trkpt lat="43.97594" lon="1.82208">
        <ele>202.4</ele>
        <time>2022-08-14T08:59:00Z</time>
      </trkpt>
      <trkpt lat="43.97592" lon="1.82208">
        <ele>202.6</ele>
        <time>2022-08-14T08:59:01Z</time>
      </trkpt>
      <trkpt lat="43.97589" lon="1.82207">
        <ele>202.6</ele>
        <time>2022-08-14T08:59:02Z</time>
      </trkpt>
      <trkpt lat="43.97587" lon="1.82207">
        <ele>202.8</ele>
        <time>2022-08-14T08:59:03Z</time>
      </trkpt>
      <trkpt lat="43.97584" lon="1.82207">
        <ele>202.8</ele>
        <time>2022-08-14T08:59:04Z</time>
      </trkpt>
      <trkpt lat="43.97582" lon="1.82206">
        <ele>203</ele>
        <time>2022-08-14T08:59:05Z</time>
      </trkpt>
      <trkpt lat="43.97579" lon="1.82206">
        <ele>203</ele>
        <time>2022-08-14T08:59:06Z</time>
      </trkpt>
      <trkpt lat="43.97577" lon="1.82206">
        <ele>203.2</ele>
        <time>2022-08-14T08:59:07Z</time>
      </trkpt>
      <trkpt lat="43.97574" lon="1.82205">
        <ele>203.2</ele>
        <time>2022-08-14T08:59:08Z</time>
      </trkpt>
      <trkpt lat="43.97572" lon="1.82205">
        <ele>203.4</ele>
        <time>2022-08-14T08:59:09Z</time>
      </trkpt>
      <trkpt lat="43.97569" lon="1.82205">
        <ele>203.4</ele>
        <time>2022-08-14T08:59:10Z</time>
      </trkpt>
      <trkpt lat="43.97566" lon="1.82205">
        <ele>203.8</ele>
        <time>2022-08-14T08:59:11Z</time>
      </trkpt>
      <trkpt lat="43.97563" lon="1.82205">
        <ele>203.8</ele>
        <time>2022-08-14T08:59:12Z</time>
      </trkpt>
      <trkpt lat="43.9756" lon="1.82204">
        <ele>204</ele>
        <time>2022-08-14T08:59:13Z</time>
      </trkpt>
      <trkpt lat="43.97556" lon="1.82204">
        <ele>204</ele>
        <time>2022-08-14T08:59:14Z</time>
      </trkpt>
      <trkpt lat="43.97553" lon="1.82204">
        <ele>204</ele>
        <time>2022-08-14T08:59:15Z</time>
      </trkpt>
      <trkpt lat="43.97549" lon="1.82204">
        <ele>204</ele>
        <time>2022-08-14T08:59:16Z</time>
      </trkpt>
      <trkpt lat="43.97545" lon="1.82204">
        <ele>204</ele>
        <time>2022-08-14T08:59:17Z</time>
      </trkpt>
      <trkpt lat="43.97541" lon="1.82204">
        <ele>204</ele>
        <time>2022-08-14T08:59:18Z</time>
      </trkpt>
      <trkpt lat="43.97538" lon="1.82204">
        <ele>204</ele>
        <time>2022-08-14T08:59:19Z</time>
      </trkpt>
      <trkpt lat="43.97534" lon="1.82204">
        <ele>204</ele>
        <time>2022-08-14T08:59:20Z</time>
      </trkpt>
      <trkpt lat="43.9753" lon="1.82204">
        <ele>204</ele>
        <time>2022-08-14T08:59:21Z</time>
      </trkpt>
      <trkpt lat="43.97527" lon="1.82204">
        <ele>204.2</ele>
        <time>2022-08-14T08:59:22Z</time>
      </trkpt>
      <trkpt lat="43.97523" lon="1.82204">
        <ele>204.2</ele>
        <time>2022-08-14T08:59:23Z</time>
      </trkpt>
      <trkpt lat="43.97519" lon="1.82203">
        <ele>204.2</ele>
        <time>2022-08-14T08:59:24Z</time>
      </trkpt>
      <trkpt lat="43.97512" lon="1.82202">
        <ele>204.2</ele>
        <time>2022-08-14T08:59:26Z</time>
      </trkpt>
      <trkpt lat="43.97496" lon="1.82198">
        <ele>204.8</ele>
        <time>2022-08-14T08:59:30Z</time>
      </trkpt>
      <trkpt lat="43.97492" lon="1.82197">
        <ele>204.8</ele>
        <time>2022-08-14T08:59:31Z</time>
      </trkpt>
      <trkpt lat="43.97489" lon="1.82196">
        <ele>204.8</ele>
        <time>2022-08-14T08:59:32Z</time>
      </trkpt>
      <trkpt lat="43.97485" lon="1.82195">
        <ele>205</ele>
        <time>2022-08-14T08:59:33Z</time>
      </trkpt>
      <trkpt lat="43.97481" lon="1.82193">
        <ele>205</ele>
        <time>2022-08-14T08:59:34Z</time>
      </trkpt>
      <trkpt lat="43.97478" lon="1.82192">
        <ele>205</ele>
        <time>2022-08-14T08:59:35Z</time>
      </trkpt>
      <trkpt lat="43.97475" lon="1.8219">
        <ele>205</ele>
        <time>2022-08-14T08:59:36Z</time>
      </trkpt>
      <trkpt lat="43.97473" lon="1.82189">
        <ele>205</ele>
        <time>2022-08-14T08:59:37Z</time>
      </trkpt>
      <trkpt lat="43.9747" lon="1.82188">
        <ele>205</ele>
        <time>2022-08-14T08:59:38Z</time>
      </trkpt>
      <trkpt lat="43.97468" lon="1.82187">
        <ele>205.2</ele>
        <time>2022-08-14T08:59:39Z</time>
      </trkpt>
      <trkpt lat="43.97466" lon="1.82187">
        <ele>205.4</ele>
        <time>2022-08-14T08:59:40Z</time>
      </trkpt>
      <trkpt lat="43.97464" lon="1.82186">
        <ele>205.6</ele>
        <time>2022-08-14T08:59:41Z</time>
      </trkpt>
      <trkpt lat="43.97462" lon="1.82187">
        <ele>205.6</ele>
        <time>2022-08-14T08:59:42Z</time>
      </trkpt>
      <trkpt lat="43.97461" lon="1.82188">
        <ele>205.8</ele>
        <time>2022-08-14T08:59:43Z</time>
      </trkpt>
      <trkpt lat="43.97459" lon="1.8219">
        <ele>205.8</ele>
        <time>2022-08-14T08:59:44Z</time>
      </trkpt>
      <trkpt lat="43.97457" lon="1.82192">
        <ele>205.8</ele>
        <time>2022-08-14T08:59:45Z</time>
      </trkpt>
      <trkpt lat="43.97454" lon="1.82195">
        <ele>206</ele>
        <time>2022-08-14T08:59:46Z</time>
      </trkpt>
      <trkpt lat="43.9744" lon="1.82216">
        <ele>206.4</ele>
        <time>2022-08-14T08:59:53Z</time>
      </trkpt>
      <trkpt lat="43.97425" lon="1.82239">
        <ele>206.6</ele>
        <time>2022-08-14T09:00:00Z</time>
      </trkpt>
      <trkpt lat="43.97405" lon="1.82262">
        <ele>206.4</ele>
        <time>2022-08-14T09:00:06Z</time>
      </trkpt>
      <trkpt lat="43.97394" lon="1.82273">
        <ele>206.2</ele>
        <time>2022-08-14T09:00:08Z</time>
      </trkpt>
      <trkpt lat="43.97384" lon="1.82286">
        <ele>205.6</ele>
        <time>2022-08-14T09:00:10Z</time>
      </trkpt>
      <trkpt lat="43.9738" lon="1.82293">
        <ele>205.2</ele>
        <time>2022-08-14T09:00:11Z</time>
      </trkpt>
      <trkpt lat="43.97376" lon="1.823">
        <ele>205</ele>
        <time>2022-08-14T09:00:12Z</time>
      </trkpt>
      <trkpt lat="43.97372" lon="1.82308">
        <ele>204.8</ele>
        <time>2022-08-14T09:00:13Z</time>
      </trkpt>
      <trkpt lat="43.9737" lon="1.82315">
        <ele>204.8</ele>
        <time>2022-08-14T09:00:14Z</time>
      </trkpt>
      <trkpt lat="43.97367" lon="1.82322">
        <ele>204.6</ele>
        <time>2022-08-14T09:00:15Z</time>
      </trkpt>
      <trkpt lat="43.97365" lon="1.82329">
        <ele>204.4</ele>
        <time>2022-08-14T09:00:16Z</time>
      </trkpt>
      <trkpt lat="43.97363" lon="1.82335">
        <ele>204.4</ele>
        <time>2022-08-14T09:00:17Z</time>
      </trkpt>
      <trkpt lat="43.97361" lon="1.82341">
        <ele>204.2</ele>
        <time>2022-08-14T09:00:18Z</time>
      </trkpt>
      <trkpt lat="43.9736" lon="1.82346">
        <ele>204.2</ele>
        <time>2022-08-14T09:00:19Z</time>
      </trkpt>
      <trkpt lat="43.97357" lon="1.82352">
        <ele>204.2</ele>
        <time>2022-08-14T09:00:20Z</time>
      </trkpt>
      <trkpt lat="43.97353" lon="1.82362">
        <ele>204.4</ele>
        <time>2022-08-14T09:00:22Z</time>
      </trkpt>
      <trkpt lat="43.97343" lon="1.82389">
        <ele>204.4</ele>
        <time>2022-08-14T09:00:27Z</time>
      </trkpt>
      <trkpt lat="43.97341" lon="1.82395">
        <ele>204.4</ele>
        <time>2022-08-14T09:00:28Z</time>
      </trkpt>
      <trkpt lat="43.9734" lon="1.82401">
        <ele>204.8</ele>
        <time>2022-08-14T09:00:29Z</time>
      </trkpt>
      <trkpt lat="43.97338" lon="1.82406">
        <ele>204.8</ele>
        <time>2022-08-14T09:00:30Z</time>
      </trkpt>
      <trkpt lat="43.97337" lon="1.82411">
        <ele>205</ele>
        <time>2022-08-14T09:00:31Z</time>
      </trkpt>
      <trkpt lat="43.97335" lon="1.82416">
        <ele>205.2</ele>
        <time>2022-08-14T09:00:32Z</time>
      </trkpt>
      <trkpt lat="43.97333" lon="1.82422">
        <ele>205.4</ele>
        <time>2022-08-14T09:00:33Z</time>
      </trkpt>
      <trkpt lat="43.97329" lon="1.82436">
        <ele>205.6</ele>
        <time>2022-08-14T09:00:36Z</time>
      </trkpt>
      <trkpt lat="43.97325" lon="1.82447">
        <ele>205.8</ele>
        <time>2022-08-14T09:00:38Z</time>
      </trkpt>
      <trkpt lat="43.9732" lon="1.82465">
        <ele>205.8</ele>
        <time>2022-08-14T09:00:41Z</time>
      </trkpt>
      <trkpt lat="43.97315" lon="1.82486">
        <ele>205.8</ele>
        <time>2022-08-14T09:00:44Z</time>
      </trkpt>
      <trkpt lat="43.97313" lon="1.82492">
        <ele>205.8</ele>
        <time>2022-08-14T09:00:45Z</time>
      </trkpt>
      <trkpt lat="43.97311" lon="1.82499">
        <ele>205.8</ele>
        <time>2022-08-14T09:00:46Z</time>
      </trkpt>
      <trkpt lat="43.9731" lon="1.82505">
        <ele>205.8</ele>
        <time>2022-08-14T09:00:47Z</time>
      </trkpt>
      <trkpt lat="43.97308" lon="1.82511">
        <ele>205.8</ele>
        <time>2022-08-14T09:00:48Z</time>
      </trkpt>
      <trkpt lat="43.97302" lon="1.8253">
        <ele>205.8</ele>
        <time>2022-08-14T09:00:51Z</time>
      </trkpt>
      <trkpt lat="43.973" lon="1.82536">
        <ele>205.8</ele>
        <time>2022-08-14T09:00:52Z</time>
      </trkpt>
      <trkpt lat="43.97299" lon="1.82542">
        <ele>205.8</ele>
        <time>2022-08-14T09:00:53Z</time>
      </trkpt>
      <trkpt lat="43.97298" lon="1.82548">
        <ele>206</ele>
        <time>2022-08-14T09:00:54Z</time>
      </trkpt>
      <trkpt lat="43.97297" lon="1.82554">
        <ele>206.2</ele>
        <time>2022-08-14T09:00:55Z</time>
      </trkpt>
      <trkpt lat="43.97296" lon="1.8256">
        <ele>207</ele>
        <time>2022-08-14T09:00:56Z</time>
      </trkpt>
      <trkpt lat="43.97296" lon="1.82566">
        <ele>207.4</ele>
        <time>2022-08-14T09:00:57Z</time>
      </trkpt>
      <trkpt lat="43.97296" lon="1.82572">
        <ele>208.2</ele>
        <time>2022-08-14T09:00:58Z</time>
      </trkpt>
      <trkpt lat="43.97296" lon="1.82578">
        <ele>208.6</ele>
        <time>2022-08-14T09:00:59Z</time>
      </trkpt>
      <trkpt lat="43.97296" lon="1.82584">
        <ele>208.8</ele>
        <time>2022-08-14T09:01:00Z</time>
      </trkpt>
      <trkpt lat="43.97296" lon="1.8259">
        <ele>209.2</ele>
        <time>2022-08-14T09:01:01Z</time>
      </trkpt>
      <trkpt lat="43.97296" lon="1.82596">
        <ele>209.2</ele>
        <time>2022-08-14T09:01:02Z</time>
      </trkpt>
      <trkpt lat="43.97295" lon="1.82602">
        <ele>209.8</ele>
        <time>2022-08-14T09:01:03Z</time>
      </trkpt>
      <trkpt lat="43.97294" lon="1.82607">
        <ele>210.2</ele>
        <time>2022-08-14T09:01:04Z</time>
      </trkpt>
      <trkpt lat="43.97293" lon="1.82612">
        <ele>210.6</ele>
        <time>2022-08-14T09:01:05Z</time>
      </trkpt>
      <trkpt lat="43.97292" lon="1.82617">
        <ele>211.6</ele>
        <time>2022-08-14T09:01:06Z</time>
      </trkpt>
      <trkpt lat="43.97291" lon="1.82622">
        <ele>212</ele>
        <time>2022-08-14T09:01:07Z</time>
      </trkpt>
      <trkpt lat="43.97289" lon="1.82626">
        <ele>212.6</ele>
        <time>2022-08-14T09:01:08Z</time>
      </trkpt>
      <trkpt lat="43.97288" lon="1.8263">
        <ele>212.8</ele>
        <time>2022-08-14T09:01:09Z</time>
      </trkpt>
      <trkpt lat="43.97287" lon="1.82633">
        <ele>213</ele>
        <time>2022-08-14T09:01:10Z</time>
      </trkpt>
      <trkpt lat="43.97285" lon="1.82634">
        <ele>213.4</ele>
        <time>2022-08-14T09:01:11Z</time>
      </trkpt>
      <trkpt lat="43.97284" lon="1.82636">
        <ele>214</ele>
        <time>2022-08-14T09:01:12Z</time>
      </trkpt>
      <trkpt lat="43.97283" lon="1.82636">
        <ele>214.4</ele>
        <time>2022-08-14T09:01:13Z</time>
      </trkpt>
      <trkpt lat="43.97281" lon="1.82636">
        <ele>214.6</ele>
        <time>2022-08-14T09:01:14Z</time>
      </trkpt>
      <trkpt lat="43.9728" lon="1.82635">
        <ele>214.8</ele>
        <time>2022-08-14T09:01:15Z</time>
      </trkpt>
      <trkpt lat="43.97278" lon="1.82634">
        <ele>215</ele>
        <time>2022-08-14T09:01:16Z</time>
      </trkpt>
      <trkpt lat="43.97276" lon="1.82634">
        <ele>215.2</ele>
        <time>2022-08-14T09:01:17Z</time>
      </trkpt>
      <trkpt lat="43.97275" lon="1.82633">
        <ele>215.2</ele>
        <time>2022-08-14T09:01:18Z</time>
      </trkpt>
      <trkpt lat="43.97273" lon="1.82632">
        <ele>215.8</ele>
        <time>2022-08-14T09:01:19Z</time>
      </trkpt>
      <trkpt lat="43.97271" lon="1.82632">
        <ele>216</ele>
        <time>2022-08-14T09:01:20Z</time>
      </trkpt>
      <trkpt lat="43.97269" lon="1.82631">
        <ele>216.2</ele>
        <time>2022-08-14T09:01:21Z</time>
      </trkpt>
      <trkpt lat="43.97268" lon="1.82631">
        <ele>216.4</ele>
        <time>2022-08-14T09:01:22Z</time>
      </trkpt>
      <trkpt lat="43.97266" lon="1.82631">
        <ele>216.6</ele>
        <time>2022-08-14T09:01:23Z</time>
      </trkpt>
      <trkpt lat="43.97264" lon="1.8263">
        <ele>216.8</ele>
        <time>2022-08-14T09:01:24Z</time>
      </trkpt>
      <trkpt lat="43.97262" lon="1.82629">
        <ele>216.8</ele>
        <time>2022-08-14T09:01:25Z</time>
      </trkpt>
      <trkpt lat="43.9726" lon="1.82628">
        <ele>216.8</ele>
        <time>2022-08-14T09:01:26Z</time>
      </trkpt>
      <trkpt lat="43.97258" lon="1.82627">
        <ele>217</ele>
        <time>2022-08-14T09:01:27Z</time>
      </trkpt>
      <trkpt lat="43.97257" lon="1.82626">
        <ele>217</ele>
        <time>2022-08-14T09:01:28Z</time>
      </trkpt>
      <trkpt lat="43.97255" lon="1.82626">
        <ele>217</ele>
        <time>2022-08-14T09:01:29Z</time>
      </trkpt>
      <trkpt lat="43.97253" lon="1.82626">
        <ele>217.2</ele>
        <time>2022-08-14T09:01:30Z</time>
      </trkpt>
      <trkpt lat="43.97252" lon="1.82625">
        <ele>217.2</ele>
        <time>2022-08-14T09:01:31Z</time>
      </trkpt>
      <trkpt lat="43.9725" lon="1.82625">
        <ele>217.4</ele>
        <time>2022-08-14T09:01:32Z</time>
      </trkpt>
      <trkpt lat="43.97248" lon="1.82625">
        <ele>217.6</ele>
        <time>2022-08-14T09:01:33Z</time>
      </trkpt>
      <trkpt lat="43.97247" lon="1.82625">
        <ele>217.6</ele>
        <time>2022-08-14T09:01:34Z</time>
      </trkpt>
      <trkpt lat="43.97245" lon="1.82624">
        <ele>217.8</ele>
        <time>2022-08-14T09:01:35Z</time>
      </trkpt>
      <trkpt lat="43.97242" lon="1.82624">
        <ele>217.8</ele>
        <time>2022-08-14T09:01:36Z</time>
      </trkpt>
      <trkpt lat="43.9724" lon="1.82624">
        <ele>218</ele>
        <time>2022-08-14T09:01:37Z</time>
      </trkpt>
      <trkpt lat="43.97238" lon="1.82623">
        <ele>218</ele>
        <time>2022-08-14T09:01:38Z</time>
      </trkpt>
      <trkpt lat="43.97237" lon="1.82623">
        <ele>218.4</ele>
        <time>2022-08-14T09:01:39Z</time>
      </trkpt>
      <trkpt lat="43.97235" lon="1.82622">
        <ele>218.6</ele>
        <time>2022-08-14T09:01:40Z</time>
      </trkpt>
      <trkpt lat="43.97232" lon="1.82621">
        <ele>218.8</ele>
        <time>2022-08-14T09:01:41Z</time>
      </trkpt>
      <trkpt lat="43.9723" lon="1.82621">
        <ele>219</ele>
        <time>2022-08-14T09:01:42Z</time>
      </trkpt>
      <trkpt lat="43.97228" lon="1.82621">
        <ele>219</ele>
        <time>2022-08-14T09:01:43Z</time>
      </trkpt>
      <trkpt lat="43.97226" lon="1.82621">
        <ele>219.2</ele>
        <time>2022-08-14T09:01:44Z</time>
      </trkpt>
      <trkpt lat="43.97224" lon="1.82621">
        <ele>219.2</ele>
        <time>2022-08-14T09:01:45Z</time>
      </trkpt>
      <trkpt lat="43.97222" lon="1.8262">
        <ele>219.4</ele>
        <time>2022-08-14T09:01:46Z</time>
      </trkpt>
      <trkpt lat="43.9722" lon="1.82619">
        <ele>219.6</ele>
        <time>2022-08-14T09:01:47Z</time>
      </trkpt>
      <trkpt lat="43.97218" lon="1.82619">
        <ele>219.6</ele>
        <time>2022-08-14T09:01:48Z</time>
      </trkpt>
      <trkpt lat="43.97216" lon="1.82619">
        <ele>219.8</ele>
        <time>2022-08-14T09:01:49Z</time>
      </trkpt>
      <trkpt lat="43.97214" lon="1.82619">
        <ele>219.8</ele>
        <time>2022-08-14T09:01:50Z</time>
      </trkpt>
      <trkpt lat="43.97212" lon="1.82618">
        <ele>220.2</ele>
        <time>2022-08-14T09:01:51Z</time>
      </trkpt>
      <trkpt lat="43.9721" lon="1.82618">
        <ele>220.2</ele>
        <time>2022-08-14T09:01:52Z</time>
      </trkpt>
      <trkpt lat="43.97208" lon="1.82617">
        <ele>220.6</ele>
        <time>2022-08-14T09:01:53Z</time>
      </trkpt>
      <trkpt lat="43.97206" lon="1.82617">
        <ele>220.8</ele>
        <time>2022-08-14T09:01:54Z</time>
      </trkpt>
      <trkpt lat="43.97204" lon="1.82616">
        <ele>221</ele>
        <time>2022-08-14T09:01:55Z</time>
      </trkpt>
      <trkpt lat="43.97203" lon="1.82617">
        <ele>221.2</ele>
        <time>2022-08-14T09:01:56Z</time>
      </trkpt>
      <trkpt lat="43.97202" lon="1.82618">
        <ele>221.2</ele>
        <time>2022-08-14T09:01:57Z</time>
      </trkpt>
      <trkpt lat="43.97202" lon="1.8262">
        <ele>221.8</ele>
        <time>2022-08-14T09:01:58Z</time>
      </trkpt>
      <trkpt lat="43.97202" lon="1.8262">
        <ele>223</ele>
        <time>2022-08-14T09:03:24Z</time>
      </trkpt>
      <trkpt lat="43.97202" lon="1.82621">
        <ele>223</ele>
        <time>2022-08-14T09:03:25Z</time>
      </trkpt>
      <trkpt lat="43.97202" lon="1.82623">
        <ele>223</ele>
        <time>2022-08-14T09:03:26Z</time>
      </trkpt>
      <trkpt lat="43.97205" lon="1.82635">
        <ele>222.8</ele>
        <time>2022-08-14T09:03:31Z</time>
      </trkpt>
      <trkpt lat="43.97212" lon="1.82656">
        <ele>222.8</ele>
        <time>2022-08-14T09:03:38Z</time>
      </trkpt>
      <trkpt lat="43.97215" lon="1.82665">
        <ele>222.4</ele>
        <time>2022-08-14T09:03:41Z</time>
      </trkpt>
      <trkpt lat="43.97217" lon="1.82668">
        <ele>222.4</ele>
        <time>2022-08-14T09:03:42Z</time>
      </trkpt>
      <trkpt lat="43.97218" lon="1.82671">
        <ele>222.2</ele>
        <time>2022-08-14T09:03:43Z</time>
      </trkpt>
      <trkpt lat="43.9722" lon="1.82672">
        <ele>222.2</ele>
        <time>2022-08-14T09:03:44Z</time>
      </trkpt>
      <trkpt lat="43.9722" lon="1.82674">
        <ele>222.2</ele>
        <time>2022-08-14T09:03:45Z</time>
      </trkpt>
      <trkpt lat="43.97235" lon="1.82689">
        <ele>221.6</ele>
        <time>2022-08-14T09:03:52Z</time>
      </trkpt>
      <trkpt lat="43.97255" lon="1.82709">
        <ele>221.2</ele>
        <time>2022-08-14T09:03:58Z</time>
      </trkpt>
      <trkpt lat="43.97264" lon="1.8272">
        <ele>221</ele>
        <time>2022-08-14T09:04:00Z</time>
      </trkpt>
      <trkpt lat="43.97273" lon="1.82737">
        <ele>220.6</ele>
        <time>2022-08-14T09:04:03Z</time>
      </trkpt>
      <trkpt lat="43.97276" lon="1.82744">
        <ele>220.4</ele>
        <time>2022-08-14T09:04:04Z</time>
      </trkpt>
      <trkpt lat="43.97286" lon="1.8277">
        <ele>219.8</ele>
        <time>2022-08-14T09:04:07Z</time>
      </trkpt>
      <trkpt lat="43.97293" lon="1.82791">
        <ele>219.6</ele>
        <time>2022-08-14T09:04:09Z</time>
      </trkpt>
      <trkpt lat="43.97305" lon="1.82823">
        <ele>218.8</ele>
        <time>2022-08-14T09:04:12Z</time>
      </trkpt>
      <trkpt lat="43.97314" lon="1.82847">
        <ele>217.2</ele>
        <time>2022-08-14T09:04:14Z</time>
      </trkpt>
      <trkpt lat="43.9732" lon="1.82859">
        <ele>216.2</ele>
        <time>2022-08-14T09:04:15Z</time>
      </trkpt>
      <trkpt lat="43.97326" lon="1.8287">
        <ele>215.2</ele>
        <time>2022-08-14T09:04:16Z</time>
      </trkpt>
      <trkpt lat="43.97331" lon="1.82881">
        <ele>213.4</ele>
        <time>2022-08-14T09:04:17Z</time>
      </trkpt>
      <trkpt lat="43.97336" lon="1.82891">
        <ele>212.8</ele>
        <time>2022-08-14T09:04:18Z</time>
      </trkpt>
      <trkpt lat="43.9734" lon="1.829">
        <ele>212</ele>
        <time>2022-08-14T09:04:19Z</time>
      </trkpt>
      <trkpt lat="43.97343" lon="1.8291">
        <ele>211.8</ele>
        <time>2022-08-14T09:04:20Z</time>
      </trkpt>
      <trkpt lat="43.97347" lon="1.82919">
        <ele>211</ele>
        <time>2022-08-14T09:04:21Z</time>
      </trkpt>
      <trkpt lat="43.97356" lon="1.82936">
        <ele>208.8</ele>
        <time>2022-08-14T09:04:23Z</time>
      </trkpt>
      <trkpt lat="43.97362" lon="1.82944">
        <ele>207.8</ele>
        <time>2022-08-14T09:04:24Z</time>
      </trkpt>
      <trkpt lat="43.97368" lon="1.82952">
        <ele>207.4</ele>
        <time>2022-08-14T09:04:25Z</time>
      </trkpt>
      <trkpt lat="43.97384" lon="1.82967">
        <ele>206</ele>
        <time>2022-08-14T09:04:27Z</time>
      </trkpt>
      <trkpt lat="43.97392" lon="1.82975">
        <ele>205</ele>
        <time>2022-08-14T09:04:28Z</time>
      </trkpt>
      <trkpt lat="43.97401" lon="1.82982">
        <ele>204.4</ele>
        <time>2022-08-14T09:04:29Z</time>
      </trkpt>
      <trkpt lat="43.97409" lon="1.8299">
        <ele>203</ele>
        <time>2022-08-14T09:04:30Z</time>
      </trkpt>
      <trkpt lat="43.97417" lon="1.82997">
        <ele>202.6</ele>
        <time>2022-08-14T09:04:31Z</time>
      </trkpt>
      <trkpt lat="43.97426" lon="1.83003">
        <ele>201.8</ele>
        <time>2022-08-14T09:04:32Z</time>
      </trkpt>
      <trkpt lat="43.97434" lon="1.83008">
        <ele>200.4</ele>
        <time>2022-08-14T09:04:33Z</time>
      </trkpt>
      <trkpt lat="43.97443" lon="1.83011">
        <ele>199.6</ele>
        <time>2022-08-14T09:04:34Z</time>
      </trkpt>
      <trkpt lat="43.97452" lon="1.83014">
        <ele>198.2</ele>
        <time>2022-08-14T09:04:35Z</time>
      </trkpt>
      <trkpt lat="43.97461" lon="1.83017">
        <ele>198</ele>
        <time>2022-08-14T09:04:36Z</time>
      </trkpt>
      <trkpt lat="43.9747" lon="1.8302">
        <ele>197.2</ele>
        <time>2022-08-14T09:04:37Z</time>
      </trkpt>
      <trkpt lat="43.97478" lon="1.83026">
        <ele>196.6</ele>
        <time>2022-08-14T09:04:38Z</time>
      </trkpt>
      <trkpt lat="43.97487" lon="1.83036">
        <ele>195.6</ele>
        <time>2022-08-14T09:04:39Z</time>
      </trkpt>
      <trkpt lat="43.97491" lon="1.83045">
        <ele>195</ele>
        <time>2022-08-14T09:04:40Z</time>
      </trkpt>
      <trkpt lat="43.97496" lon="1.83056">
        <ele>194.8</ele>
        <time>2022-08-14T09:04:41Z</time>
      </trkpt>
      <trkpt lat="43.97502" lon="1.83067">
        <ele>193.2</ele>
        <time>2022-08-14T09:04:42Z</time>
      </trkpt>
      <trkpt lat="43.97509" lon="1.83078">
        <ele>192.6</ele>
        <time>2022-08-14T09:04:43Z</time>
      </trkpt>
      <trkpt lat="43.97516" lon="1.83088">
        <ele>191.6</ele>
        <time>2022-08-14T09:04:44Z</time>
      </trkpt>
      <trkpt lat="43.97524" lon="1.83098">
        <ele>190.6</ele>
        <time>2022-08-14T09:04:45Z</time>
      </trkpt>
      <trkpt lat="43.97532" lon="1.83108">
        <ele>189.4</ele>
        <time>2022-08-14T09:04:46Z</time>
      </trkpt>
      <trkpt lat="43.97539" lon="1.83118">
        <ele>189</ele>
        <time>2022-08-14T09:04:47Z</time>
      </trkpt>
      <trkpt lat="43.97546" lon="1.83128">
        <ele>188</ele>
        <time>2022-08-14T09:04:48Z</time>
      </trkpt>
      <trkpt lat="43.97553" lon="1.83137">
        <ele>187</ele>
        <time>2022-08-14T09:04:49Z</time>
      </trkpt>
      <trkpt lat="43.9756" lon="1.83146">
        <ele>186.4</ele>
        <time>2022-08-14T09:04:50Z</time>
      </trkpt>
      <trkpt lat="43.97567" lon="1.83155">
        <ele>185.6</ele>
        <time>2022-08-14T09:04:51Z</time>
      </trkpt>
      <trkpt lat="43.97574" lon="1.83161">
        <ele>185.2</ele>
        <time>2022-08-14T09:04:52Z</time>
      </trkpt>
      <trkpt lat="43.97581" lon="1.83164">
        <ele>184.8</ele>
        <time>2022-08-14T09:04:53Z</time>
      </trkpt>
      <trkpt lat="43.97588" lon="1.83164">
        <ele>184.4</ele>
        <time>2022-08-14T09:04:54Z</time>
      </trkpt>
      <trkpt lat="43.97594" lon="1.83163">
        <ele>184</ele>
        <time>2022-08-14T09:04:55Z</time>
      </trkpt>
      <trkpt lat="43.97601" lon="1.83161">
        <ele>183.8</ele>
        <time>2022-08-14T09:04:56Z</time>
      </trkpt>
      <trkpt lat="43.97607" lon="1.83159">
        <ele>183.8</ele>
        <time>2022-08-14T09:04:57Z</time>
      </trkpt>
      <trkpt lat="43.97613" lon="1.83157">
        <ele>183</ele>
        <time>2022-08-14T09:04:58Z</time>
      </trkpt>
      <trkpt lat="43.97618" lon="1.83156">
        <ele>182.6</ele>
        <time>2022-08-14T09:04:59Z</time>
      </trkpt>
      <trkpt lat="43.97624" lon="1.83156">
        <ele>182</ele>
        <time>2022-08-14T09:05:00Z</time>
      </trkpt>
      <trkpt lat="43.97629" lon="1.83155">
        <ele>182</ele>
        <time>2022-08-14T09:05:01Z</time>
      </trkpt>
      <trkpt lat="43.97634" lon="1.83154">
        <ele>181.8</ele>
        <time>2022-08-14T09:05:02Z</time>
      </trkpt>
      <trkpt lat="43.97638" lon="1.83153">
        <ele>181.6</ele>
        <time>2022-08-14T09:05:03Z</time>
      </trkpt>
      <trkpt lat="43.97642" lon="1.83153">
        <ele>181.6</ele>
        <time>2022-08-14T09:05:04Z</time>
      </trkpt>
      <trkpt lat="43.97651" lon="1.83153">
        <ele>181.8</ele>
        <time>2022-08-14T09:05:06Z</time>
      </trkpt>
      <trkpt lat="43.97664" lon="1.83153">
        <ele>181</ele>
        <time>2022-08-14T09:05:09Z</time>
      </trkpt>
      <trkpt lat="43.97678" lon="1.83154">
        <ele>180.8</ele>
        <time>2022-08-14T09:05:12Z</time>
      </trkpt>
      <trkpt lat="43.97684" lon="1.83155">
        <ele>180.8</ele>
        <time>2022-08-14T09:05:13Z</time>
      </trkpt>
      <trkpt lat="43.97688" lon="1.83157">
        <ele>180.8</ele>
        <time>2022-08-14T09:05:14Z</time>
      </trkpt>
      <trkpt lat="43.97693" lon="1.83158">
        <ele>180.6</ele>
        <time>2022-08-14T09:05:15Z</time>
      </trkpt>
      <trkpt lat="43.97698" lon="1.83161">
        <ele>180.6</ele>
        <time>2022-08-14T09:05:16Z</time>
      </trkpt>
      <trkpt lat="43.97707" lon="1.83164">
        <ele>180.2</ele>
        <time>2022-08-14T09:05:18Z</time>
      </trkpt>
      <trkpt lat="43.97711" lon="1.83166">
        <ele>180.2</ele>
        <time>2022-08-14T09:05:19Z</time>
      </trkpt>
      <trkpt lat="43.97715" lon="1.83168">
        <ele>180.2</ele>
        <time>2022-08-14T09:05:20Z</time>
      </trkpt>
      <trkpt lat="43.9772" lon="1.8317">
        <ele>180.2</ele>
        <time>2022-08-14T09:05:21Z</time>
      </trkpt>
      <trkpt lat="43.97724" lon="1.83172">
        <ele>180</ele>
        <time>2022-08-14T09:05:22Z</time>
      </trkpt>
      <trkpt lat="43.97749" lon="1.83186">
        <ele>180</ele>
        <time>2022-08-14T09:05:28Z</time>
      </trkpt>
      <trkpt lat="43.97757" lon="1.83193">
        <ele>179.8</ele>
        <time>2022-08-14T09:05:30Z</time>
      </trkpt>
      <trkpt lat="43.97761" lon="1.83197">
        <ele>179.8</ele>
        <time>2022-08-14T09:05:31Z</time>
      </trkpt>
      <trkpt lat="43.97763" lon="1.83201">
        <ele>180</ele>
        <time>2022-08-14T09:05:32Z</time>
      </trkpt>
      <trkpt lat="43.97765" lon="1.83205">
        <ele>180</ele>
        <time>2022-08-14T09:05:33Z</time>
      </trkpt>
      <trkpt lat="43.97767" lon="1.83209">
        <ele>180</ele>
        <time>2022-08-14T09:05:34Z</time>
      </trkpt>
      <trkpt lat="43.97768" lon="1.83212">
        <ele>180</ele>
        <time>2022-08-14T09:05:35Z</time>
      </trkpt>
      <trkpt lat="43.9777" lon="1.83216">
        <ele>180</ele>
        <time>2022-08-14T09:05:36Z</time>
      </trkpt>
      <trkpt lat="43.97772" lon="1.83219">
        <ele>180</ele>
        <time>2022-08-14T09:05:37Z</time>
      </trkpt>
      <trkpt lat="43.97774" lon="1.83225">
        <ele>180.4</ele>
        <time>2022-08-14T09:05:39Z</time>
      </trkpt>
      <trkpt lat="43.97779" lon="1.8324">
        <ele>180.6</ele>
        <time>2022-08-14T09:05:43Z</time>
      </trkpt>
      <trkpt lat="43.9778" lon="1.83243">
        <ele>180.8</ele>
        <time>2022-08-14T09:05:44Z</time>
      </trkpt>
      <trkpt lat="43.97782" lon="1.83246">
        <ele>181</ele>
        <time>2022-08-14T09:05:45Z</time>
      </trkpt>
      <trkpt lat="43.97783" lon="1.8325">
        <ele>181.2</ele>
        <time>2022-08-14T09:05:46Z</time>
      </trkpt>
      <trkpt lat="43.97783" lon="1.83253">
        <ele>181.2</ele>
        <time>2022-08-14T09:05:47Z</time>
      </trkpt>
      <trkpt lat="43.97784" lon="1.83256">
        <ele>181.4</ele>
        <time>2022-08-14T09:05:48Z</time>
      </trkpt>
      <trkpt lat="43.97784" lon="1.83259">
        <ele>181.8</ele>
        <time>2022-08-14T09:05:49Z</time>
      </trkpt>
      <trkpt lat="43.97785" lon="1.83261">
        <ele>182</ele>
        <time>2022-08-14T09:05:50Z</time>
      </trkpt>
      <trkpt lat="43.97785" lon="1.83263">
        <ele>182.4</ele>
        <time>2022-08-14T09:05:51Z</time>
      </trkpt>
      <trkpt lat="43.97786" lon="1.83264">
        <ele>182.8</ele>
        <time>2022-08-14T09:05:52Z</time>
      </trkpt>
      <trkpt lat="43.97786" lon="1.83264">
        <ele>182.8</ele>
        <time>2022-08-14T09:06:22Z</time>
      </trkpt>
      <trkpt lat="43.97787" lon="1.83266">
        <ele>182.8</ele>
        <time>2022-08-14T09:06:23Z</time>
      </trkpt>
      <trkpt lat="43.97789" lon="1.83268">
        <ele>182.8</ele>
        <time>2022-08-14T09:06:24Z</time>
      </trkpt>
      <trkpt lat="43.97792" lon="1.83271">
        <ele>182.8</ele>
        <time>2022-08-14T09:06:25Z</time>
      </trkpt>
      <trkpt lat="43.97794" lon="1.83275">
        <ele>182.6</ele>
        <time>2022-08-14T09:06:26Z</time>
      </trkpt>
      <trkpt lat="43.97806" lon="1.83297">
        <ele>182.4</ele>
        <time>2022-08-14T09:06:31Z</time>
      </trkpt>
      <trkpt lat="43.97822" lon="1.83327">
        <ele>181.4</ele>
        <time>2022-08-14T09:06:36Z</time>
      </trkpt>
      <trkpt lat="43.9783" lon="1.8334">
        <ele>180.8</ele>
        <time>2022-08-14T09:06:38Z</time>
      </trkpt>
      <trkpt lat="43.97847" lon="1.83368">
        <ele>179.6</ele>
        <time>2022-08-14T09:06:42Z</time>
      </trkpt>
      <trkpt lat="43.97851" lon="1.83375">
        <ele>179.4</ele>
        <time>2022-08-14T09:06:43Z</time>
      </trkpt>
      <trkpt lat="43.97855" lon="1.83382">
        <ele>179.2</ele>
        <time>2022-08-14T09:06:44Z</time>
      </trkpt>
      <trkpt lat="43.97857" lon="1.83388">
        <ele>178.8</ele>
        <time>2022-08-14T09:06:45Z</time>
      </trkpt>
      <trkpt lat="43.9786" lon="1.83395">
        <ele>178.8</ele>
        <time>2022-08-14T09:06:46Z</time>
      </trkpt>
      <trkpt lat="43.97862" lon="1.83401">
        <ele>178.4</ele>
        <time>2022-08-14T09:06:47Z</time>
      </trkpt>
      <trkpt lat="43.97863" lon="1.83407">
        <ele>178.2</ele>
        <time>2022-08-14T09:06:48Z</time>
      </trkpt>
      <trkpt lat="43.97864" lon="1.83413">
        <ele>178</ele>
        <time>2022-08-14T09:06:49Z</time>
      </trkpt>
      <trkpt lat="43.97865" lon="1.83419">
        <ele>177.8</ele>
        <time>2022-08-14T09:06:50Z</time>
      </trkpt>
      <trkpt lat="43.97865" lon="1.83424">
        <ele>177.6</ele>
        <time>2022-08-14T09:06:51Z</time>
      </trkpt>
      <trkpt lat="43.97865" lon="1.83428">
        <ele>177.4</ele>
        <time>2022-08-14T09:06:52Z</time>
      </trkpt>
      <trkpt lat="43.97864" lon="1.83433">
        <ele>177.4</ele>
        <time>2022-08-14T09:06:53Z</time>
      </trkpt>
      <trkpt lat="43.97863" lon="1.83438">
        <ele>177.2</ele>
        <time>2022-08-14T09:06:54Z</time>
      </trkpt>
      <trkpt lat="43.9786" lon="1.83448">
        <ele>177</ele>
        <time>2022-08-14T09:06:56Z</time>
      </trkpt>
      <trkpt lat="43.97859" lon="1.83459">
        <ele>177</ele>
        <time>2022-08-14T09:06:58Z</time>
      </trkpt>
      <trkpt lat="43.97858" lon="1.8347">
        <ele>176.8</ele>
        <time>2022-08-14T09:07:00Z</time>
      </trkpt>
      <trkpt lat="43.97857" lon="1.83476">
        <ele>176.8</ele>
        <time>2022-08-14T09:07:01Z</time>
      </trkpt>
      <trkpt lat="43.97856" lon="1.8348">
        <ele>176.8</ele>
        <time>2022-08-14T09:07:02Z</time>
      </trkpt>
      <trkpt lat="43.97855" lon="1.83485">
        <ele>177</ele>
        <time>2022-08-14T09:07:03Z</time>
      </trkpt>
      <trkpt lat="43.97854" lon="1.8349">
        <ele>177</ele>
        <time>2022-08-14T09:07:04Z</time>
      </trkpt>
      <trkpt lat="43.97854" lon="1.83494">
        <ele>177</ele>
        <time>2022-08-14T09:07:05Z</time>
      </trkpt>
      <trkpt lat="43.97853" lon="1.83499">
        <ele>177</ele>
        <time>2022-08-14T09:07:06Z</time>
      </trkpt>
      <trkpt lat="43.97851" lon="1.8351">
        <ele>177</ele>
        <time>2022-08-14T09:07:08Z</time>
      </trkpt>
      <trkpt lat="43.97847" lon="1.83523">
        <ele>177</ele>
        <time>2022-08-14T09:07:10Z</time>
      </trkpt>
      <trkpt lat="43.97845" lon="1.83529">
        <ele>177</ele>
        <time>2022-08-14T09:07:11Z</time>
      </trkpt>
      <trkpt lat="43.97843" lon="1.83535">
        <ele>176.8</ele>
        <time>2022-08-14T09:07:12Z</time>
      </trkpt>
      <trkpt lat="43.97841" lon="1.8354">
        <ele>176.8</ele>
        <time>2022-08-14T09:07:13Z</time>
      </trkpt>
      <trkpt lat="43.97839" lon="1.83545">
        <ele>176.6</ele>
        <time>2022-08-14T09:07:14Z</time>
      </trkpt>
      <trkpt lat="43.97837" lon="1.8355">
        <ele>176.6</ele>
        <time>2022-08-14T09:07:15Z</time>
      </trkpt>
      <trkpt lat="43.97836" lon="1.83555">
        <ele>176.6</ele>
        <time>2022-08-14T09:07:16Z</time>
      </trkpt>
      <trkpt lat="43.97834" lon="1.8356">
        <ele>176.6</ele>
        <time>2022-08-14T09:07:17Z</time>
      </trkpt>
      <trkpt lat="43.97833" lon="1.83564">
        <ele>176.8</ele>
        <time>2022-08-14T09:07:18Z</time>
      </trkpt>
      <trkpt lat="43.97831" lon="1.83568">
        <ele>177</ele>
        <time>2022-08-14T09:07:19Z</time>
      </trkpt>
      <trkpt lat="43.9783" lon="1.83572">
        <ele>177</ele>
        <time>2022-08-14T09:07:20Z</time>
      </trkpt>
      <trkpt lat="43.97829" lon="1.83576">
        <ele>177</ele>
        <time>2022-08-14T09:07:21Z</time>
      </trkpt>
      <trkpt lat="43.97823" lon="1.83587">
        <ele>177.2</ele>
        <time>2022-08-14T09:07:25Z</time>
      </trkpt>
      <trkpt lat="43.97823" lon="1.8359">
        <ele>177.2</ele>
        <time>2022-08-14T09:07:26Z</time>
      </trkpt>
      <trkpt lat="43.97822" lon="1.83593">
        <ele>177.2</ele>
        <time>2022-08-14T09:07:27Z</time>
      </trkpt>
      <trkpt lat="43.97819" lon="1.83599">
        <ele>177.4</ele>
        <time>2022-08-14T09:07:29Z</time>
      </trkpt>
      <trkpt lat="43.97819" lon="1.83603">
        <ele>177.4</ele>
        <time>2022-08-14T09:07:30Z</time>
      </trkpt>
      <trkpt lat="43.97818" lon="1.83606">
        <ele>177.4</ele>
        <time>2022-08-14T09:07:31Z</time>
      </trkpt>
      <trkpt lat="43.97818" lon="1.83613">
        <ele>177.4</ele>
        <time>2022-08-14T09:07:33Z</time>
      </trkpt>
      <trkpt lat="43.97814" lon="1.83625">
        <ele>177.6</ele>
        <time>2022-08-14T09:07:36Z</time>
      </trkpt>
      <trkpt lat="43.9781" lon="1.8364">
        <ele>177.6</ele>
        <time>2022-08-14T09:07:39Z</time>
      </trkpt>
      <trkpt lat="43.97808" lon="1.83644">
        <ele>177.6</ele>
        <time>2022-08-14T09:07:40Z</time>
      </trkpt>
      <trkpt lat="43.97807" lon="1.83648">
        <ele>177.6</ele>
        <time>2022-08-14T09:07:41Z</time>
      </trkpt>
      <trkpt lat="43.97806" lon="1.83651">
        <ele>177.8</ele>
        <time>2022-08-14T09:07:42Z</time>
      </trkpt>
      <trkpt lat="43.97801" lon="1.83667">
        <ele>177.6</ele>
        <time>2022-08-14T09:07:45Z</time>
      </trkpt>
      <trkpt lat="43.97797" lon="1.83681">
        <ele>178</ele>
        <time>2022-08-14T09:07:48Z</time>
      </trkpt>
      <trkpt lat="43.97795" lon="1.83685">
        <ele>178.2</ele>
        <time>2022-08-14T09:07:49Z</time>
      </trkpt>
      <trkpt lat="43.97795" lon="1.83689">
        <ele>177.8</ele>
        <time>2022-08-14T09:07:50Z</time>
      </trkpt>
      <trkpt lat="43.97794" lon="1.83692">
        <ele>177.8</ele>
        <time>2022-08-14T09:07:51Z</time>
      </trkpt>
      <trkpt lat="43.97793" lon="1.83696">
        <ele>177.8</ele>
        <time>2022-08-14T09:07:52Z</time>
      </trkpt>
      <trkpt lat="43.97791" lon="1.83698">
        <ele>178</ele>
        <time>2022-08-14T09:07:53Z</time>
      </trkpt>
      <trkpt lat="43.97785" lon="1.83719">
        <ele>177.8</ele>
        <time>2022-08-14T09:07:58Z</time>
      </trkpt>
      <trkpt lat="43.97783" lon="1.83723">
        <ele>177.8</ele>
        <time>2022-08-14T09:07:59Z</time>
      </trkpt>
      <trkpt lat="43.97781" lon="1.83727">
        <ele>178</ele>
        <time>2022-08-14T09:08:00Z</time>
      </trkpt>
      <trkpt lat="43.97779" lon="1.83732">
        <ele>178</ele>
        <time>2022-08-14T09:08:01Z</time>
      </trkpt>
      <trkpt lat="43.97778" lon="1.83735">
        <ele>178</ele>
        <time>2022-08-14T09:08:02Z</time>
      </trkpt>
      <trkpt lat="43.97778" lon="1.83739">
        <ele>178</ele>
        <time>2022-08-14T09:08:03Z</time>
      </trkpt>
      <trkpt lat="43.97776" lon="1.83743">
        <ele>178.2</ele>
        <time>2022-08-14T09:08:04Z</time>
      </trkpt>
      <trkpt lat="43.97774" lon="1.83762">
        <ele>178.2</ele>
        <time>2022-08-14T09:08:08Z</time>
      </trkpt>
      <trkpt lat="43.97772" lon="1.83766">
        <ele>178.2</ele>
        <time>2022-08-14T09:08:09Z</time>
      </trkpt>
      <trkpt lat="43.97772" lon="1.8377">
        <ele>178.2</ele>
        <time>2022-08-14T09:08:10Z</time>
      </trkpt>
      <trkpt lat="43.97773" lon="1.8378">
        <ele>177.4</ele>
        <time>2022-08-14T09:08:12Z</time>
      </trkpt>
      <trkpt lat="43.97774" lon="1.83784">
        <ele>177.4</ele>
        <time>2022-08-14T09:08:13Z</time>
      </trkpt>
      <trkpt lat="43.97773" lon="1.83788">
        <ele>177.8</ele>
        <time>2022-08-14T09:08:14Z</time>
      </trkpt>
      <trkpt lat="43.97772" lon="1.83791">
        <ele>178.2</ele>
        <time>2022-08-14T09:08:15Z</time>
      </trkpt>
      <trkpt lat="43.97771" lon="1.83796">
        <ele>178.2</ele>
        <time>2022-08-14T09:08:16Z</time>
      </trkpt>
      <trkpt lat="43.97771" lon="1.83801">
        <ele>178</ele>
        <time>2022-08-14T09:08:17Z</time>
      </trkpt>
      <trkpt lat="43.97771" lon="1.83807">
        <ele>178.4</ele>
        <time>2022-08-14T09:08:18Z</time>
      </trkpt>
      <trkpt lat="43.97766" lon="1.8382">
        <ele>178.6</ele>
        <time>2022-08-14T09:08:21Z</time>
      </trkpt>
      <trkpt lat="43.97766" lon="1.83824">
        <ele>178.8</ele>
        <time>2022-08-14T09:08:22Z</time>
      </trkpt>
      <trkpt lat="43.97766" lon="1.83829">
        <ele>178.8</ele>
        <time>2022-08-14T09:08:23Z</time>
      </trkpt>
      <trkpt lat="43.97765" lon="1.83832">
        <ele>178.8</ele>
        <time>2022-08-14T09:08:24Z</time>
      </trkpt>
      <trkpt lat="43.97763" lon="1.83834">
        <ele>178.8</ele>
        <time>2022-08-14T09:08:25Z</time>
      </trkpt>
      <trkpt lat="43.97761" lon="1.83837">
        <ele>178.8</ele>
        <time>2022-08-14T09:08:26Z</time>
      </trkpt>
      <trkpt lat="43.97761" lon="1.8384">
        <ele>178.8</ele>
        <time>2022-08-14T09:08:27Z</time>
      </trkpt>
      <trkpt lat="43.97758" lon="1.83844">
        <ele>178.8</ele>
        <time>2022-08-14T09:08:28Z</time>
      </trkpt>
      <trkpt lat="43.97752" lon="1.83852">
        <ele>178.8</ele>
        <time>2022-08-14T09:08:31Z</time>
      </trkpt>
      <trkpt lat="43.97745" lon="1.83866">
        <ele>179</ele>
        <time>2022-08-14T09:08:35Z</time>
      </trkpt>
      <trkpt lat="43.97744" lon="1.83868">
        <ele>179</ele>
        <time>2022-08-14T09:08:36Z</time>
      </trkpt>
      <trkpt lat="43.9774" lon="1.83877">
        <ele>179.2</ele>
        <time>2022-08-14T09:08:38Z</time>
      </trkpt>
      <trkpt lat="43.97741" lon="1.83881">
        <ele>179.2</ele>
        <time>2022-08-14T09:08:39Z</time>
      </trkpt>
      <trkpt lat="43.9774" lon="1.83884">
        <ele>179.2</ele>
        <time>2022-08-14T09:08:40Z</time>
      </trkpt>
      <trkpt lat="43.9774" lon="1.83888">
        <ele>179.4</ele>
        <time>2022-08-14T09:08:41Z</time>
      </trkpt>
      <trkpt lat="43.9774" lon="1.83892">
        <ele>179.4</ele>
        <time>2022-08-14T09:08:42Z</time>
      </trkpt>
      <trkpt lat="43.97739" lon="1.839">
        <ele>179.4</ele>
        <time>2022-08-14T09:08:44Z</time>
      </trkpt>
      <trkpt lat="43.9774" lon="1.83903">
        <ele>179.4</ele>
        <time>2022-08-14T09:08:45Z</time>
      </trkpt>
      <trkpt lat="43.9774" lon="1.83906">
        <ele>179.4</ele>
        <time>2022-08-14T09:08:46Z</time>
      </trkpt>
      <trkpt lat="43.97737" lon="1.83909">
        <ele>179.4</ele>
        <time>2022-08-14T09:08:47Z</time>
      </trkpt>
      <trkpt lat="43.97736" lon="1.83912">
        <ele>179.4</ele>
        <time>2022-08-14T09:08:48Z</time>
      </trkpt>
      <trkpt lat="43.97735" lon="1.83915">
        <ele>179.6</ele>
        <time>2022-08-14T09:08:49Z</time>
      </trkpt>
      <trkpt lat="43.97733" lon="1.83919">
        <ele>179.6</ele>
        <time>2022-08-14T09:08:50Z</time>
      </trkpt>
      <trkpt lat="43.97726" lon="1.83931">
        <ele>180</ele>
        <time>2022-08-14T09:08:54Z</time>
      </trkpt>
      <trkpt lat="43.97725" lon="1.83933">
        <ele>180.2</ele>
        <time>2022-08-14T09:08:55Z</time>
      </trkpt>
      <trkpt lat="43.97731" lon="1.83942">
        <ele>180.2</ele>
        <time>2022-08-14T09:08:57Z</time>
      </trkpt>
      <trkpt lat="43.97732" lon="1.83946">
        <ele>180.4</ele>
        <time>2022-08-14T09:08:58Z</time>
      </trkpt>
      <trkpt lat="43.97732" lon="1.83951">
        <ele>180.4</ele>
        <time>2022-08-14T09:08:59Z</time>
      </trkpt>
      <trkpt lat="43.97734" lon="1.83956">
        <ele>180.4</ele>
        <time>2022-08-14T09:09:00Z</time>
      </trkpt>
      <trkpt lat="43.9774" lon="1.83965">
        <ele>180.6</ele>
        <time>2022-08-14T09:09:02Z</time>
      </trkpt>
      <trkpt lat="43.97742" lon="1.83968">
        <ele>180.6</ele>
        <time>2022-08-14T09:09:03Z</time>
      </trkpt>
      <trkpt lat="43.97745" lon="1.83972">
        <ele>180.6</ele>
        <time>2022-08-14T09:09:04Z</time>
      </trkpt>
      <trkpt lat="43.97746" lon="1.83976">
        <ele>180.6</ele>
        <time>2022-08-14T09:09:05Z</time>
      </trkpt>
      <trkpt lat="43.97746" lon="1.8398">
        <ele>180.6</ele>
        <time>2022-08-14T09:09:06Z</time>
      </trkpt>
      <trkpt lat="43.97747" lon="1.83984">
        <ele>180.6</ele>
        <time>2022-08-14T09:09:07Z</time>
      </trkpt>
      <trkpt lat="43.97749" lon="1.83987">
        <ele>180.6</ele>
        <time>2022-08-14T09:09:08Z</time>
      </trkpt>
      <trkpt lat="43.97766" lon="1.84007">
        <ele>181</ele>
        <time>2022-08-14T09:09:14Z</time>
      </trkpt>
      <trkpt lat="43.97769" lon="1.8401">
        <ele>181</ele>
        <time>2022-08-14T09:09:15Z</time>
      </trkpt>
      <trkpt lat="43.97774" lon="1.84018">
        <ele>181</ele>
        <time>2022-08-14T09:09:17Z</time>
      </trkpt>
      <trkpt lat="43.97779" lon="1.84026">
        <ele>181</ele>
        <time>2022-08-14T09:09:19Z</time>
      </trkpt>
      <trkpt lat="43.97781" lon="1.8403">
        <ele>181</ele>
        <time>2022-08-14T09:09:20Z</time>
      </trkpt>
      <trkpt lat="43.97784" lon="1.84034">
        <ele>181</ele>
        <time>2022-08-14T09:09:21Z</time>
      </trkpt>
      <trkpt lat="43.97787" lon="1.84037">
        <ele>180.8</ele>
        <time>2022-08-14T09:09:22Z</time>
      </trkpt>
      <trkpt lat="43.97788" lon="1.84037">
        <ele>180.8</ele>
        <time>2022-08-14T09:09:23Z</time>
      </trkpt>
      <trkpt lat="43.97788" lon="1.84038">
        <ele>180.4</ele>
        <time>2022-08-14T09:11:17Z</time>
      </trkpt>
      <trkpt lat="43.97789" lon="1.84039">
        <ele>180.4</ele>
        <time>2022-08-14T09:11:18Z</time>
      </trkpt>
      <trkpt lat="43.9779" lon="1.84042">
        <ele>180.4</ele>
        <time>2022-08-14T09:11:19Z</time>
      </trkpt>
      <trkpt lat="43.97792" lon="1.84045">
        <ele>180.4</ele>
        <time>2022-08-14T09:11:20Z</time>
      </trkpt>
      <trkpt lat="43.97794" lon="1.84053">
        <ele>180.4</ele>
        <time>2022-08-14T09:11:22Z</time>
      </trkpt>
      <trkpt lat="43.97795" lon="1.84056">
        <ele>180.2</ele>
        <time>2022-08-14T09:11:23Z</time>
      </trkpt>
      <trkpt lat="43.97795" lon="1.84063">
        <ele>180.2</ele>
        <time>2022-08-14T09:11:25Z</time>
      </trkpt>
      <trkpt lat="43.97796" lon="1.84067">
        <ele>180.2</ele>
        <time>2022-08-14T09:11:26Z</time>
      </trkpt>
      <trkpt lat="43.97796" lon="1.84071">
        <ele>180.2</ele>
        <time>2022-08-14T09:11:27Z</time>
      </trkpt>
      <trkpt lat="43.97797" lon="1.84075">
        <ele>180.2</ele>
        <time>2022-08-14T09:11:28Z</time>
      </trkpt>
      <trkpt lat="43.97798" lon="1.84079">
        <ele>180.2</ele>
        <time>2022-08-14T09:11:29Z</time>
      </trkpt>
      <trkpt lat="43.97798" lon="1.84082">
        <ele>180.2</ele>
        <time>2022-08-14T09:11:30Z</time>
      </trkpt>
      <trkpt lat="43.97797" lon="1.84085">
        <ele>180.2</ele>
        <time>2022-08-14T09:11:31Z</time>
      </trkpt>
      <trkpt lat="43.97797" lon="1.84089">
        <ele>180.2</ele>
        <time>2022-08-14T09:11:32Z</time>
      </trkpt>
      <trkpt lat="43.97797" lon="1.84093">
        <ele>180.4</ele>
        <time>2022-08-14T09:11:33Z</time>
      </trkpt>
      <trkpt lat="43.97798" lon="1.841">
        <ele>180.4</ele>
        <time>2022-08-14T09:11:35Z</time>
      </trkpt>
      <trkpt lat="43.97799" lon="1.84105">
        <ele>180.6</ele>
        <time>2022-08-14T09:11:36Z</time>
      </trkpt>
      <trkpt lat="43.978" lon="1.84109">
        <ele>180.6</ele>
        <time>2022-08-14T09:11:37Z</time>
      </trkpt>
      <trkpt lat="43.97797" lon="1.8412">
        <ele>180.8</ele>
        <time>2022-08-14T09:11:39Z</time>
      </trkpt>
      <trkpt lat="43.97793" lon="1.84128">
        <ele>181</ele>
        <time>2022-08-14T09:11:40Z</time>
      </trkpt>
      <trkpt lat="43.97792" lon="1.84138">
        <ele>181</ele>
        <time>2022-08-14T09:11:42Z</time>
      </trkpt>
      <trkpt lat="43.97793" lon="1.84143">
        <ele>181.2</ele>
        <time>2022-08-14T09:11:43Z</time>
      </trkpt>
      <trkpt lat="43.97794" lon="1.84148">
        <ele>181.2</ele>
        <time>2022-08-14T09:11:44Z</time>
      </trkpt>
      <trkpt lat="43.97795" lon="1.84153">
        <ele>181.4</ele>
        <time>2022-08-14T09:11:45Z</time>
      </trkpt>
      <trkpt lat="43.97796" lon="1.8416">
        <ele>181.6</ele>
        <time>2022-08-14T09:11:46Z</time>
      </trkpt>
      <trkpt lat="43.97801" lon="1.84175">
        <ele>181.4</ele>
        <time>2022-08-14T09:11:48Z</time>
      </trkpt>
      <trkpt lat="43.97805" lon="1.84193">
        <ele>181.6</ele>
        <time>2022-08-14T09:11:51Z</time>
      </trkpt>
      <trkpt lat="43.97804" lon="1.842">
        <ele>181.6</ele>
        <time>2022-08-14T09:11:52Z</time>
      </trkpt>
      <trkpt lat="43.97803" lon="1.84205">
        <ele>181.8</ele>
        <time>2022-08-14T09:11:53Z</time>
      </trkpt>
      <trkpt lat="43.978" lon="1.8421">
        <ele>181.8</ele>
        <time>2022-08-14T09:11:54Z</time>
      </trkpt>
      <trkpt lat="43.978" lon="1.84215">
        <ele>182</ele>
        <time>2022-08-14T09:11:55Z</time>
      </trkpt>
      <trkpt lat="43.978" lon="1.84219">
        <ele>182</ele>
        <time>2022-08-14T09:11:56Z</time>
      </trkpt>
      <trkpt lat="43.978" lon="1.84224">
        <ele>182</ele>
        <time>2022-08-14T09:11:57Z</time>
      </trkpt>
      <trkpt lat="43.978" lon="1.8423">
        <ele>182.2</ele>
        <time>2022-08-14T09:11:58Z</time>
      </trkpt>
      <trkpt lat="43.97802" lon="1.84242">
        <ele>182.2</ele>
        <time>2022-08-14T09:12:00Z</time>
      </trkpt>
      <trkpt lat="43.97802" lon="1.84248">
        <ele>182.2</ele>
        <time>2022-08-14T09:12:01Z</time>
      </trkpt>
      <trkpt lat="43.97803" lon="1.84255">
        <ele>182.2</ele>
        <time>2022-08-14T09:12:02Z</time>
      </trkpt>
      <trkpt lat="43.978" lon="1.8426">
        <ele>182.2</ele>
        <time>2022-08-14T09:12:03Z</time>
      </trkpt>
      <trkpt lat="43.97797" lon="1.84264">
        <ele>182.2</ele>
        <time>2022-08-14T09:12:04Z</time>
      </trkpt>
      <trkpt lat="43.97793" lon="1.84267">
        <ele>182.4</ele>
        <time>2022-08-14T09:12:05Z</time>
      </trkpt>
      <trkpt lat="43.9779" lon="1.84272">
        <ele>182.4</ele>
        <time>2022-08-14T09:12:06Z</time>
      </trkpt>
      <trkpt lat="43.97787" lon="1.84275">
        <ele>182.6</ele>
        <time>2022-08-14T09:12:07Z</time>
      </trkpt>
      <trkpt lat="43.97786" lon="1.84277">
        <ele>182.6</ele>
        <time>2022-08-14T09:12:08Z</time>
      </trkpt>
      <trkpt lat="43.97783" lon="1.8428">
        <ele>182.8</ele>
        <time>2022-08-14T09:12:09Z</time>
      </trkpt>
      <trkpt lat="43.97784" lon="1.84285">
        <ele>183.4</ele>
        <time>2022-08-14T09:12:10Z</time>
      </trkpt>
      <trkpt lat="43.97782" lon="1.84289">
        <ele>183.8</ele>
        <time>2022-08-14T09:12:11Z</time>
      </trkpt>
      <trkpt lat="43.97782" lon="1.84292">
        <ele>184</ele>
        <time>2022-08-14T09:12:12Z</time>
      </trkpt>
      <trkpt lat="43.97782" lon="1.84297">
        <ele>184.2</ele>
        <time>2022-08-14T09:12:13Z</time>
      </trkpt>
      <trkpt lat="43.97781" lon="1.84301">
        <ele>184.2</ele>
        <time>2022-08-14T09:12:14Z</time>
      </trkpt>
      <trkpt lat="43.9778" lon="1.84303">
        <ele>184.4</ele>
        <time>2022-08-14T09:12:15Z</time>
      </trkpt>
      <trkpt lat="43.9778" lon="1.84305">
        <ele>184.6</ele>
        <time>2022-08-14T09:12:16Z</time>
      </trkpt>
      <trkpt lat="43.97779" lon="1.84308">
        <ele>185</ele>
        <time>2022-08-14T09:12:17Z</time>
      </trkpt>
      <trkpt lat="43.97776" lon="1.84312">
        <ele>185.2</ele>
        <time>2022-08-14T09:12:18Z</time>
      </trkpt>
      <trkpt lat="43.97777" lon="1.84316">
        <ele>185.4</ele>
        <time>2022-08-14T09:12:19Z</time>
      </trkpt>
      <trkpt lat="43.97776" lon="1.84319">
        <ele>185.6</ele>
        <time>2022-08-14T09:12:20Z</time>
      </trkpt>
      <trkpt lat="43.97775" lon="1.84322">
        <ele>185.6</ele>
        <time>2022-08-14T09:12:21Z</time>
      </trkpt>
      <trkpt lat="43.97774" lon="1.84324">
        <ele>185.8</ele>
        <time>2022-08-14T09:12:22Z</time>
      </trkpt>
      <trkpt lat="43.97772" lon="1.84326">
        <ele>185.8</ele>
        <time>2022-08-14T09:12:23Z</time>
      </trkpt>
      <trkpt lat="43.97771" lon="1.84328">
        <ele>186</ele>
        <time>2022-08-14T09:12:24Z</time>
      </trkpt>
      <trkpt lat="43.97769" lon="1.84329">
        <ele>186.2</ele>
        <time>2022-08-14T09:12:25Z</time>
      </trkpt>
      <trkpt lat="43.97767" lon="1.84331">
        <ele>186.4</ele>
        <time>2022-08-14T09:12:26Z</time>
      </trkpt>
      <trkpt lat="43.97765" lon="1.84332">
        <ele>186.4</ele>
        <time>2022-08-14T09:12:27Z</time>
      </trkpt>
      <trkpt lat="43.97763" lon="1.84334">
        <ele>186.4</ele>
        <time>2022-08-14T09:12:28Z</time>
      </trkpt>
      <trkpt lat="43.97761" lon="1.84335">
        <ele>186.6</ele>
        <time>2022-08-14T09:12:29Z</time>
      </trkpt>
      <trkpt lat="43.9776" lon="1.84337">
        <ele>186.8</ele>
        <time>2022-08-14T09:12:30Z</time>
      </trkpt>
      <trkpt lat="43.97759" lon="1.84338">
        <ele>186.8</ele>
        <time>2022-08-14T09:12:31Z</time>
      </trkpt>
      <trkpt lat="43.97758" lon="1.8434">
        <ele>186.8</ele>
        <time>2022-08-14T09:12:32Z</time>
      </trkpt>
      <trkpt lat="43.97756" lon="1.84341">
        <ele>187</ele>
        <time>2022-08-14T09:12:33Z</time>
      </trkpt>
      <trkpt lat="43.97755" lon="1.84342">
        <ele>187.4</ele>
        <time>2022-08-14T09:12:34Z</time>
      </trkpt>
      <trkpt lat="43.97753" lon="1.84344">
        <ele>187.6</ele>
        <time>2022-08-14T09:12:35Z</time>
      </trkpt>
      <trkpt lat="43.97752" lon="1.84346">
        <ele>187.8</ele>
        <time>2022-08-14T09:12:36Z</time>
      </trkpt>
      <trkpt lat="43.9775" lon="1.84348">
        <ele>187.8</ele>
        <time>2022-08-14T09:12:37Z</time>
      </trkpt>
      <trkpt lat="43.97748" lon="1.8435">
        <ele>188.2</ele>
        <time>2022-08-14T09:12:38Z</time>
      </trkpt>
      <trkpt lat="43.97746" lon="1.84352">
        <ele>188.2</ele>
        <time>2022-08-14T09:12:39Z</time>
      </trkpt>
      <trkpt lat="43.97745" lon="1.84354">
        <ele>188.6</ele>
        <time>2022-08-14T09:12:40Z</time>
      </trkpt>
      <trkpt lat="43.97742" lon="1.84356">
        <ele>188.6</ele>
        <time>2022-08-14T09:12:41Z</time>
      </trkpt>
      <trkpt lat="43.9774" lon="1.84358">
        <ele>188.8</ele>
        <time>2022-08-14T09:12:42Z</time>
      </trkpt>
      <trkpt lat="43.97739" lon="1.84359">
        <ele>189</ele>
        <time>2022-08-14T09:12:43Z</time>
      </trkpt>
      <trkpt lat="43.97739" lon="1.84361">
        <ele>189.2</ele>
        <time>2022-08-14T09:12:44Z</time>
      </trkpt>
      <trkpt lat="43.97739" lon="1.84363">
        <ele>189.4</ele>
        <time>2022-08-14T09:12:45Z</time>
      </trkpt>
      <trkpt lat="43.97737" lon="1.84364">
        <ele>189.4</ele>
        <time>2022-08-14T09:12:46Z</time>
      </trkpt>
      <trkpt lat="43.97736" lon="1.84365">
        <ele>189.8</ele>
        <time>2022-08-14T09:12:47Z</time>
      </trkpt>
      <trkpt lat="43.97735" lon="1.84368">
        <ele>190</ele>
        <time>2022-08-14T09:12:48Z</time>
      </trkpt>
      <trkpt lat="43.97734" lon="1.84369">
        <ele>190.4</ele>
        <time>2022-08-14T09:12:49Z</time>
      </trkpt>
      <trkpt lat="43.97732" lon="1.8437">
        <ele>190.6</ele>
        <time>2022-08-14T09:12:50Z</time>
      </trkpt>
      <trkpt lat="43.97731" lon="1.84372">
        <ele>190.6</ele>
        <time>2022-08-14T09:12:51Z</time>
      </trkpt>
      <trkpt lat="43.97729" lon="1.84373">
        <ele>190.8</ele>
        <time>2022-08-14T09:12:52Z</time>
      </trkpt>
      <trkpt lat="43.97728" lon="1.84373">
        <ele>191</ele>
        <time>2022-08-14T09:12:53Z</time>
      </trkpt>
      <trkpt lat="43.97727" lon="1.84373">
        <ele>191</ele>
        <time>2022-08-14T09:12:54Z</time>
      </trkpt>
      <trkpt lat="43.97725" lon="1.84374">
        <ele>191.2</ele>
        <time>2022-08-14T09:12:55Z</time>
      </trkpt>
      <trkpt lat="43.97723" lon="1.84376">
        <ele>191.4</ele>
        <time>2022-08-14T09:12:56Z</time>
      </trkpt>
      <trkpt lat="43.97721" lon="1.84378">
        <ele>191.6</ele>
        <time>2022-08-14T09:12:57Z</time>
      </trkpt>
      <trkpt lat="43.97721" lon="1.84379">
        <ele>191.8</ele>
        <time>2022-08-14T09:12:58Z</time>
      </trkpt>
      <trkpt lat="43.97722" lon="1.84381">
        <ele>192.2</ele>
        <time>2022-08-14T09:12:59Z</time>
      </trkpt>
      <trkpt lat="43.9772" lon="1.84383">
        <ele>192.2</ele>
        <time>2022-08-14T09:13:00Z</time>
      </trkpt>
      <trkpt lat="43.97717" lon="1.84384">
        <ele>192.4</ele>
        <time>2022-08-14T09:13:01Z</time>
      </trkpt>
      <trkpt lat="43.97715" lon="1.84385">
        <ele>192.6</ele>
        <time>2022-08-14T09:13:02Z</time>
      </trkpt>
      <trkpt lat="43.97713" lon="1.84385">
        <ele>192.6</ele>
        <time>2022-08-14T09:13:03Z</time>
      </trkpt>
      <trkpt lat="43.97711" lon="1.84388">
        <ele>192.8</ele>
        <time>2022-08-14T09:13:04Z</time>
      </trkpt>
      <trkpt lat="43.97711" lon="1.8439">
        <ele>192.8</ele>
        <time>2022-08-14T09:13:05Z</time>
      </trkpt>
      <trkpt lat="43.97711" lon="1.84394">
        <ele>192.8</ele>
        <time>2022-08-14T09:13:06Z</time>
      </trkpt>
      <trkpt lat="43.9771" lon="1.84396">
        <ele>193</ele>
        <time>2022-08-14T09:13:07Z</time>
      </trkpt>
      <trkpt lat="43.97708" lon="1.84399">
        <ele>193</ele>
        <time>2022-08-14T09:13:08Z</time>
      </trkpt>
      <trkpt lat="43.97706" lon="1.84401">
        <ele>193.2</ele>
        <time>2022-08-14T09:13:09Z</time>
      </trkpt>
      <trkpt lat="43.97704" lon="1.84403">
        <ele>193.2</ele>
        <time>2022-08-14T09:13:10Z</time>
      </trkpt>
      <trkpt lat="43.97702" lon="1.84406">
        <ele>193.2</ele>
        <time>2022-08-14T09:13:11Z</time>
      </trkpt>
      <trkpt lat="43.977" lon="1.84409">
        <ele>193.2</ele>
        <time>2022-08-14T09:13:12Z</time>
      </trkpt>
      <trkpt lat="43.97701" lon="1.84414">
        <ele>193.4</ele>
        <time>2022-08-14T09:13:13Z</time>
      </trkpt>
      <trkpt lat="43.97701" lon="1.84418">
        <ele>193.4</ele>
        <time>2022-08-14T09:13:14Z</time>
      </trkpt>
      <trkpt lat="43.977" lon="1.84422">
        <ele>193.4</ele>
        <time>2022-08-14T09:13:15Z</time>
      </trkpt>
      <trkpt lat="43.97699" lon="1.84424">
        <ele>193.4</ele>
        <time>2022-08-14T09:13:16Z</time>
      </trkpt>
      <trkpt lat="43.97697" lon="1.84427">
        <ele>193.4</ele>
        <time>2022-08-14T09:13:17Z</time>
      </trkpt>
      <trkpt lat="43.97699" lon="1.84431">
        <ele>193.4</ele>
        <time>2022-08-14T09:13:18Z</time>
      </trkpt>
      <trkpt lat="43.977" lon="1.84435">
        <ele>193.6</ele>
        <time>2022-08-14T09:13:19Z</time>
      </trkpt>
      <trkpt lat="43.97699" lon="1.8444">
        <ele>193.6</ele>
        <time>2022-08-14T09:13:20Z</time>
      </trkpt>
      <trkpt lat="43.97698" lon="1.84443">
        <ele>193.6</ele>
        <time>2022-08-14T09:13:21Z</time>
      </trkpt>
      <trkpt lat="43.97698" lon="1.84448">
        <ele>193.6</ele>
        <time>2022-08-14T09:13:22Z</time>
      </trkpt>
      <trkpt lat="43.97699" lon="1.84452">
        <ele>193.6</ele>
        <time>2022-08-14T09:13:23Z</time>
      </trkpt>
      <trkpt lat="43.977" lon="1.84455">
        <ele>193.6</ele>
        <time>2022-08-14T09:13:24Z</time>
      </trkpt>
      <trkpt lat="43.97702" lon="1.8446">
        <ele>193.6</ele>
        <time>2022-08-14T09:13:25Z</time>
      </trkpt>
      <trkpt lat="43.97701" lon="1.84462">
        <ele>193.6</ele>
        <time>2022-08-14T09:13:26Z</time>
      </trkpt>
      <trkpt lat="43.97701" lon="1.84465">
        <ele>193.6</ele>
        <time>2022-08-14T09:13:27Z</time>
      </trkpt>
      <trkpt lat="43.97699" lon="1.84469">
        <ele>193.8</ele>
        <time>2022-08-14T09:13:28Z</time>
      </trkpt>
      <trkpt lat="43.97698" lon="1.84472">
        <ele>193.8</ele>
        <time>2022-08-14T09:13:29Z</time>
      </trkpt>
      <trkpt lat="43.97697" lon="1.84476">
        <ele>193.8</ele>
        <time>2022-08-14T09:13:30Z</time>
      </trkpt>
      <trkpt lat="43.97697" lon="1.8448">
        <ele>193.8</ele>
        <time>2022-08-14T09:13:31Z</time>
      </trkpt>
      <trkpt lat="43.97695" lon="1.84487">
        <ele>193.8</ele>
        <time>2022-08-14T09:13:33Z</time>
      </trkpt>
      <trkpt lat="43.97694" lon="1.84494">
        <ele>194</ele>
        <time>2022-08-14T09:13:35Z</time>
      </trkpt>
      <trkpt lat="43.97693" lon="1.84498">
        <ele>194.2</ele>
        <time>2022-08-14T09:13:36Z</time>
      </trkpt>
      <trkpt lat="43.97692" lon="1.84501">
        <ele>194.2</ele>
        <time>2022-08-14T09:13:37Z</time>
      </trkpt>
      <trkpt lat="43.9769" lon="1.84507">
        <ele>194.2</ele>
        <time>2022-08-14T09:13:39Z</time>
      </trkpt>
      <trkpt lat="43.97681" lon="1.84527">
        <ele>194.8</ele>
        <time>2022-08-14T09:13:45Z</time>
      </trkpt>
      <trkpt lat="43.97679" lon="1.8453">
        <ele>194.8</ele>
        <time>2022-08-14T09:13:46Z</time>
      </trkpt>
      <trkpt lat="43.97678" lon="1.84533">
        <ele>195</ele>
        <time>2022-08-14T09:13:47Z</time>
      </trkpt>
      <trkpt lat="43.97668" lon="1.84544">
        <ele>195</ele>
        <time>2022-08-14T09:13:51Z</time>
      </trkpt>
      <trkpt lat="43.97664" lon="1.8455">
        <ele>195</ele>
        <time>2022-08-14T09:13:53Z</time>
      </trkpt>
      <trkpt lat="43.97661" lon="1.84553">
        <ele>195.2</ele>
        <time>2022-08-14T09:13:54Z</time>
      </trkpt>
      <trkpt lat="43.97659" lon="1.84556">
        <ele>195.2</ele>
        <time>2022-08-14T09:13:55Z</time>
      </trkpt>
      <trkpt lat="43.97657" lon="1.84558">
        <ele>195.4</ele>
        <time>2022-08-14T09:13:56Z</time>
      </trkpt>
      <trkpt lat="43.97648" lon="1.84566">
        <ele>195.6</ele>
        <time>2022-08-14T09:14:00Z</time>
      </trkpt>
      <trkpt lat="43.97646" lon="1.84568">
        <ele>195.8</ele>
        <time>2022-08-14T09:14:01Z</time>
      </trkpt>
      <trkpt lat="43.97644" lon="1.84571">
        <ele>196.2</ele>
        <time>2022-08-14T09:14:02Z</time>
      </trkpt>
      <trkpt lat="43.97643" lon="1.84574">
        <ele>197</ele>
        <time>2022-08-14T09:14:03Z</time>
      </trkpt>
      <trkpt lat="43.97642" lon="1.84578">
        <ele>197.2</ele>
        <time>2022-08-14T09:14:04Z</time>
      </trkpt>
      <trkpt lat="43.9764" lon="1.84581">
        <ele>197.4</ele>
        <time>2022-08-14T09:14:05Z</time>
      </trkpt>
      <trkpt lat="43.97639" lon="1.84584">
        <ele>197.4</ele>
        <time>2022-08-14T09:14:06Z</time>
      </trkpt>
      <trkpt lat="43.97637" lon="1.8459">
        <ele>198</ele>
        <time>2022-08-14T09:14:08Z</time>
      </trkpt>
      <trkpt lat="43.97636" lon="1.84594">
        <ele>198.2</ele>
        <time>2022-08-14T09:14:09Z</time>
      </trkpt>
      <trkpt lat="43.97634" lon="1.846">
        <ele>198.2</ele>
        <time>2022-08-14T09:14:10Z</time>
      </trkpt>
      <trkpt lat="43.97636" lon="1.84607">
        <ele>198.2</ele>
        <time>2022-08-14T09:14:11Z</time>
      </trkpt>
      <trkpt lat="43.97637" lon="1.84615">
        <ele>198.2</ele>
        <time>2022-08-14T09:14:12Z</time>
      </trkpt>
      <trkpt lat="43.9764" lon="1.84624">
        <ele>198.2</ele>
        <time>2022-08-14T09:14:13Z</time>
      </trkpt>
      <trkpt lat="43.97641" lon="1.84633">
        <ele>198.2</ele>
        <time>2022-08-14T09:14:14Z</time>
      </trkpt>
      <trkpt lat="43.97643" lon="1.84643">
        <ele>198.2</ele>
        <time>2022-08-14T09:14:15Z</time>
      </trkpt>
      <trkpt lat="43.97644" lon="1.84654">
        <ele>198.2</ele>
        <time>2022-08-14T09:14:16Z</time>
      </trkpt>
      <trkpt lat="43.97645" lon="1.84665">
        <ele>197.8</ele>
        <time>2022-08-14T09:14:17Z</time>
      </trkpt>
      <trkpt lat="43.97646" lon="1.84677">
        <ele>197</ele>
        <time>2022-08-14T09:14:18Z</time>
      </trkpt>
      <trkpt lat="43.97649" lon="1.8469">
        <ele>196.6</ele>
        <time>2022-08-14T09:14:19Z</time>
      </trkpt>
      <trkpt lat="43.97652" lon="1.84702">
        <ele>196.4</ele>
        <time>2022-08-14T09:14:20Z</time>
      </trkpt>
      <trkpt lat="43.97656" lon="1.84718">
        <ele>196</ele>
        <time>2022-08-14T09:14:21Z</time>
      </trkpt>
      <trkpt lat="43.97663" lon="1.84744">
        <ele>195.4</ele>
        <time>2022-08-14T09:14:23Z</time>
      </trkpt>
      <trkpt lat="43.97668" lon="1.84754">
        <ele>195</ele>
        <time>2022-08-14T09:14:24Z</time>
      </trkpt>
      <trkpt lat="43.97676" lon="1.84761">
        <ele>194.2</ele>
        <time>2022-08-14T09:14:25Z</time>
      </trkpt>
      <trkpt lat="43.97686" lon="1.84765">
        <ele>193.2</ele>
        <time>2022-08-14T09:14:26Z</time>
      </trkpt>
      <trkpt lat="43.97697" lon="1.84765">
        <ele>192</ele>
        <time>2022-08-14T09:14:27Z</time>
      </trkpt>
      <trkpt lat="43.97707" lon="1.84765">
        <ele>191.2</ele>
        <time>2022-08-14T09:14:28Z</time>
      </trkpt>
      <trkpt lat="43.97717" lon="1.84766">
        <ele>191</ele>
        <time>2022-08-14T09:14:29Z</time>
      </trkpt>
      <trkpt lat="43.97727" lon="1.84766">
        <ele>190.2</ele>
        <time>2022-08-14T09:14:30Z</time>
      </trkpt>
      <trkpt lat="43.97737" lon="1.84767">
        <ele>190</ele>
        <time>2022-08-14T09:14:31Z</time>
      </trkpt>
      <trkpt lat="43.97745" lon="1.84768">
        <ele>189.2</ele>
        <time>2022-08-14T09:14:32Z</time>
      </trkpt>
      <trkpt lat="43.97753" lon="1.84769">
        <ele>189</ele>
        <time>2022-08-14T09:14:33Z</time>
      </trkpt>
      <trkpt lat="43.9776" lon="1.84769">
        <ele>188.4</ele>
        <time>2022-08-14T09:14:34Z</time>
      </trkpt>
      <trkpt lat="43.97766" lon="1.84768">
        <ele>188.2</ele>
        <time>2022-08-14T09:14:35Z</time>
      </trkpt>
      <trkpt lat="43.97771" lon="1.84767">
        <ele>188.2</ele>
        <time>2022-08-14T09:14:36Z</time>
      </trkpt>
      <trkpt lat="43.97775" lon="1.84766">
        <ele>188</ele>
        <time>2022-08-14T09:14:37Z</time>
      </trkpt>
      <trkpt lat="43.97778" lon="1.84766">
        <ele>188</ele>
        <time>2022-08-14T09:14:38Z</time>
      </trkpt>
      <trkpt lat="43.9778" lon="1.84765">
        <ele>188</ele>
        <time>2022-08-14T09:14:39Z</time>
      </trkpt>
      <trkpt lat="43.97782" lon="1.84763">
        <ele>188</ele>
        <time>2022-08-14T09:14:40Z</time>
      </trkpt>
      <trkpt lat="43.97783" lon="1.84762">
        <ele>188.4</ele>
        <time>2022-08-14T09:14:41Z</time>
      </trkpt>
      <trkpt lat="43.97784" lon="1.84761">
        <ele>188.6</ele>
        <time>2022-08-14T09:14:42Z</time>
      </trkpt>
      <trkpt lat="43.97785" lon="1.8476">
        <ele>189</ele>
        <time>2022-08-14T09:14:43Z</time>
      </trkpt>
      <trkpt lat="43.97787" lon="1.84759">
        <ele>189.2</ele>
        <time>2022-08-14T09:14:44Z</time>
      </trkpt>
      <trkpt lat="43.97788" lon="1.84758">
        <ele>189.4</ele>
        <time>2022-08-14T09:14:45Z</time>
      </trkpt>
      <trkpt lat="43.97791" lon="1.84756">
        <ele>189.8</ele>
        <time>2022-08-14T09:14:47Z</time>
      </trkpt>
      <trkpt lat="43.97793" lon="1.84755">
        <ele>190</ele>
        <time>2022-08-14T09:14:48Z</time>
      </trkpt>
      <trkpt lat="43.97794" lon="1.84754">
        <ele>190.2</ele>
        <time>2022-08-14T09:14:49Z</time>
      </trkpt>
      <trkpt lat="43.97795" lon="1.84754">
        <ele>190.6</ele>
        <time>2022-08-14T09:14:50Z</time>
      </trkpt>
      <trkpt lat="43.97796" lon="1.84753">
        <ele>190.8</ele>
        <time>2022-08-14T09:14:51Z</time>
      </trkpt>
      <trkpt lat="43.978" lon="1.84751">
        <ele>191.6</ele>
        <time>2022-08-14T09:14:54Z</time>
      </trkpt>
      <trkpt lat="43.97802" lon="1.8475">
        <ele>191.8</ele>
        <time>2022-08-14T09:14:55Z</time>
      </trkpt>
      <trkpt lat="43.97803" lon="1.84749">
        <ele>192</ele>
        <time>2022-08-14T09:14:56Z</time>
      </trkpt>
      <trkpt lat="43.97807" lon="1.84747">
        <ele>192.2</ele>
        <time>2022-08-14T09:14:58Z</time>
      </trkpt>
      <trkpt lat="43.9781" lon="1.84744">
        <ele>192.8</ele>
        <time>2022-08-14T09:15:00Z</time>
      </trkpt>
      <trkpt lat="43.97812" lon="1.84743">
        <ele>193</ele>
        <time>2022-08-14T09:15:01Z</time>
      </trkpt>
      <trkpt lat="43.97815" lon="1.84742">
        <ele>193.6</ele>
        <time>2022-08-14T09:15:04Z</time>
      </trkpt>
      <trkpt lat="43.97818" lon="1.84742">
        <ele>193.8</ele>
        <time>2022-08-14T09:15:05Z</time>
      </trkpt>
      <trkpt lat="43.9782" lon="1.84741">
        <ele>194</ele>
        <time>2022-08-14T09:15:06Z</time>
      </trkpt>
      <trkpt lat="43.97821" lon="1.84739">
        <ele>194.2</ele>
        <time>2022-08-14T09:15:07Z</time>
      </trkpt>
      <trkpt lat="43.97823" lon="1.84738">
        <ele>194.4</ele>
        <time>2022-08-14T09:15:08Z</time>
      </trkpt>
      <trkpt lat="43.97825" lon="1.84736">
        <ele>194.6</ele>
        <time>2022-08-14T09:15:09Z</time>
      </trkpt>
      <trkpt lat="43.97827" lon="1.84734">
        <ele>194.8</ele>
        <time>2022-08-14T09:15:10Z</time>
      </trkpt>
      <trkpt lat="43.9783" lon="1.84733">
        <ele>195</ele>
        <time>2022-08-14T09:15:11Z</time>
      </trkpt>
      <trkpt lat="43.97833" lon="1.84731">
        <ele>195.2</ele>
        <time>2022-08-14T09:15:12Z</time>
      </trkpt>
      <trkpt lat="43.97836" lon="1.8473">
        <ele>195.4</ele>
        <time>2022-08-14T09:15:13Z</time>
      </trkpt>
      <trkpt lat="43.97838" lon="1.8473">
        <ele>195.4</ele>
        <time>2022-08-14T09:15:14Z</time>
      </trkpt>
      <trkpt lat="43.97841" lon="1.84731">
        <ele>195.6</ele>
        <time>2022-08-14T09:15:15Z</time>
      </trkpt>
      <trkpt lat="43.97843" lon="1.84731">
        <ele>196</ele>
        <time>2022-08-14T09:15:16Z</time>
      </trkpt>
      <trkpt lat="43.97846" lon="1.84732">
        <ele>196.2</ele>
        <time>2022-08-14T09:15:17Z</time>
      </trkpt>
      <trkpt lat="43.97848" lon="1.84733">
        <ele>196.4</ele>
        <time>2022-08-14T09:15:18Z</time>
      </trkpt>
      <trkpt lat="43.9785" lon="1.84735">
        <ele>196.6</ele>
        <time>2022-08-14T09:15:19Z</time>
      </trkpt>
      <trkpt lat="43.97852" lon="1.84736">
        <ele>196.6</ele>
        <time>2022-08-14T09:15:20Z</time>
      </trkpt>
      <trkpt lat="43.97855" lon="1.84738">
        <ele>196.8</ele>
        <time>2022-08-14T09:15:21Z</time>
      </trkpt>
      <trkpt lat="43.97858" lon="1.8474">
        <ele>197.2</ele>
        <time>2022-08-14T09:15:22Z</time>
      </trkpt>
      <trkpt lat="43.9786" lon="1.84742">
        <ele>197.6</ele>
        <time>2022-08-14T09:15:23Z</time>
      </trkpt>
      <trkpt lat="43.97862" lon="1.84745">
        <ele>197.8</ele>
        <time>2022-08-14T09:15:24Z</time>
      </trkpt>
      <trkpt lat="43.97863" lon="1.84747">
        <ele>198</ele>
        <time>2022-08-14T09:15:25Z</time>
      </trkpt>
      <trkpt lat="43.97865" lon="1.84748">
        <ele>198.2</ele>
        <time>2022-08-14T09:15:26Z</time>
      </trkpt>
      <trkpt lat="43.97867" lon="1.8475">
        <ele>198.2</ele>
        <time>2022-08-14T09:15:27Z</time>
      </trkpt>
      <trkpt lat="43.97868" lon="1.84752">
        <ele>198.4</ele>
        <time>2022-08-14T09:15:28Z</time>
      </trkpt>
      <trkpt lat="43.9787" lon="1.84754">
        <ele>198.8</ele>
        <time>2022-08-14T09:15:29Z</time>
      </trkpt>
      <trkpt lat="43.97871" lon="1.84756">
        <ele>199</ele>
        <time>2022-08-14T09:15:30Z</time>
      </trkpt>
      <trkpt lat="43.97873" lon="1.84757">
        <ele>199.2</ele>
        <time>2022-08-14T09:15:31Z</time>
      </trkpt>
      <trkpt lat="43.97875" lon="1.84759">
        <ele>199.4</ele>
        <time>2022-08-14T09:15:32Z</time>
      </trkpt>
      <trkpt lat="43.97876" lon="1.84762">
        <ele>199.4</ele>
        <time>2022-08-14T09:15:33Z</time>
      </trkpt>
      <trkpt lat="43.97878" lon="1.84763">
        <ele>199.6</ele>
        <time>2022-08-14T09:15:34Z</time>
      </trkpt>
      <trkpt lat="43.9788" lon="1.84766">
        <ele>199.8</ele>
        <time>2022-08-14T09:15:35Z</time>
      </trkpt>
      <trkpt lat="43.97881" lon="1.84768">
        <ele>200</ele>
        <time>2022-08-14T09:15:36Z</time>
      </trkpt>
      <trkpt lat="43.97883" lon="1.8477">
        <ele>200.2</ele>
        <time>2022-08-14T09:15:37Z</time>
      </trkpt>
      <trkpt lat="43.97884" lon="1.84773">
        <ele>200.4</ele>
        <time>2022-08-14T09:15:38Z</time>
      </trkpt>
      <trkpt lat="43.97886" lon="1.84775">
        <ele>200.8</ele>
        <time>2022-08-14T09:15:39Z</time>
      </trkpt>
      <trkpt lat="43.97887" lon="1.84777">
        <ele>201</ele>
        <time>2022-08-14T09:15:40Z</time>
      </trkpt>
      <trkpt lat="43.97889" lon="1.84779">
        <ele>201</ele>
        <time>2022-08-14T09:15:41Z</time>
      </trkpt>
      <trkpt lat="43.9789" lon="1.84782">
        <ele>201.2</ele>
        <time>2022-08-14T09:15:42Z</time>
      </trkpt>
      <trkpt lat="43.97891" lon="1.84785">
        <ele>201.4</ele>
        <time>2022-08-14T09:15:43Z</time>
      </trkpt>
      <trkpt lat="43.97892" lon="1.84787">
        <ele>201.4</ele>
        <time>2022-08-14T09:15:44Z</time>
      </trkpt>
      <trkpt lat="43.97893" lon="1.8479">
        <ele>201.4</ele>
        <time>2022-08-14T09:15:45Z</time>
      </trkpt>
      <trkpt lat="43.97894" lon="1.84792">
        <ele>201.6</ele>
        <time>2022-08-14T09:15:46Z</time>
      </trkpt>
      <trkpt lat="43.97896" lon="1.84795">
        <ele>201.8</ele>
        <time>2022-08-14T09:15:47Z</time>
      </trkpt>
      <trkpt lat="43.97897" lon="1.84798">
        <ele>202</ele>
        <time>2022-08-14T09:15:48Z</time>
      </trkpt>
      <trkpt lat="43.97898" lon="1.848">
        <ele>202.2</ele>
        <time>2022-08-14T09:15:49Z</time>
      </trkpt>
      <trkpt lat="43.97899" lon="1.84802">
        <ele>202.6</ele>
        <time>2022-08-14T09:15:50Z</time>
      </trkpt>
      <trkpt lat="43.979" lon="1.84805">
        <ele>202.6</ele>
        <time>2022-08-14T09:15:51Z</time>
      </trkpt>
      <trkpt lat="43.97901" lon="1.84808">
        <ele>203</ele>
        <time>2022-08-14T09:15:52Z</time>
      </trkpt>
      <trkpt lat="43.97902" lon="1.8481">
        <ele>203.2</ele>
        <time>2022-08-14T09:15:53Z</time>
      </trkpt>
      <trkpt lat="43.97903" lon="1.84812">
        <ele>203.4</ele>
        <time>2022-08-14T09:15:54Z</time>
      </trkpt>
      <trkpt lat="43.97904" lon="1.84814">
        <ele>203.4</ele>
        <time>2022-08-14T09:15:55Z</time>
      </trkpt>
      <trkpt lat="43.97905" lon="1.84817">
        <ele>203.6</ele>
        <time>2022-08-14T09:15:56Z</time>
      </trkpt>
      <trkpt lat="43.97907" lon="1.8482">
        <ele>203.8</ele>
        <time>2022-08-14T09:15:57Z</time>
      </trkpt>
      <trkpt lat="43.97908" lon="1.84822">
        <ele>203.8</ele>
        <time>2022-08-14T09:15:58Z</time>
      </trkpt>
      <trkpt lat="43.97909" lon="1.84824">
        <ele>204</ele>
        <time>2022-08-14T09:15:59Z</time>
      </trkpt>
      <trkpt lat="43.9791" lon="1.84826">
        <ele>204.2</ele>
        <time>2022-08-14T09:16:00Z</time>
      </trkpt>
      <trkpt lat="43.97911" lon="1.84829">
        <ele>204.6</ele>
        <time>2022-08-14T09:16:01Z</time>
      </trkpt>
      <trkpt lat="43.97913" lon="1.84832">
        <ele>204.8</ele>
        <time>2022-08-14T09:16:02Z</time>
      </trkpt>
      <trkpt lat="43.97914" lon="1.84834">
        <ele>205</ele>
        <time>2022-08-14T09:16:03Z</time>
      </trkpt>
      <trkpt lat="43.97915" lon="1.84836">
        <ele>205.2</ele>
        <time>2022-08-14T09:16:04Z</time>
      </trkpt>
      <trkpt lat="43.97916" lon="1.84839">
        <ele>205.4</ele>
        <time>2022-08-14T09:16:05Z</time>
      </trkpt>
      <trkpt lat="43.97917" lon="1.84843">
        <ele>205.6</ele>
        <time>2022-08-14T09:16:06Z</time>
      </trkpt>
      <trkpt lat="43.97918" lon="1.84845">
        <ele>205.8</ele>
        <time>2022-08-14T09:16:07Z</time>
      </trkpt>
      <trkpt lat="43.9792" lon="1.84847">
        <ele>205.8</ele>
        <time>2022-08-14T09:16:08Z</time>
      </trkpt>
      <trkpt lat="43.97921" lon="1.8485">
        <ele>206</ele>
        <time>2022-08-14T09:16:09Z</time>
      </trkpt>
      <trkpt lat="43.97922" lon="1.84852">
        <ele>206.2</ele>
        <time>2022-08-14T09:16:10Z</time>
      </trkpt>
      <trkpt lat="43.97923" lon="1.84855">
        <ele>206.4</ele>
        <time>2022-08-14T09:16:11Z</time>
      </trkpt>
      <trkpt lat="43.97924" lon="1.84858">
        <ele>206.8</ele>
        <time>2022-08-14T09:16:12Z</time>
      </trkpt>
      <trkpt lat="43.97925" lon="1.84861">
        <ele>207</ele>
        <time>2022-08-14T09:16:13Z</time>
      </trkpt>
      <trkpt lat="43.97926" lon="1.84863">
        <ele>207</ele>
        <time>2022-08-14T09:16:14Z</time>
      </trkpt>
      <trkpt lat="43.97927" lon="1.84866">
        <ele>207.2</ele>
        <time>2022-08-14T09:16:15Z</time>
      </trkpt>
      <trkpt lat="43.97929" lon="1.84869">
        <ele>207.2</ele>
        <time>2022-08-14T09:16:16Z</time>
      </trkpt>
      <trkpt lat="43.9793" lon="1.84871">
        <ele>207.6</ele>
        <time>2022-08-14T09:16:17Z</time>
      </trkpt>
      <trkpt lat="43.9793" lon="1.84874">
        <ele>207.8</ele>
        <time>2022-08-14T09:16:18Z</time>
      </trkpt>
      <trkpt lat="43.97931" lon="1.84877">
        <ele>208</ele>
        <time>2022-08-14T09:16:19Z</time>
      </trkpt>
      <trkpt lat="43.97932" lon="1.8488">
        <ele>208.2</ele>
        <time>2022-08-14T09:16:20Z</time>
      </trkpt>
      <trkpt lat="43.97933" lon="1.84883">
        <ele>208.4</ele>
        <time>2022-08-14T09:16:21Z</time>
      </trkpt>
      <trkpt lat="43.97934" lon="1.84886">
        <ele>208.8</ele>
        <time>2022-08-14T09:16:22Z</time>
      </trkpt>
      <trkpt lat="43.97935" lon="1.84888">
        <ele>208.8</ele>
        <time>2022-08-14T09:16:23Z</time>
      </trkpt>
      <trkpt lat="43.97935" lon="1.8489">
        <ele>209</ele>
        <time>2022-08-14T09:16:24Z</time>
      </trkpt>
      <trkpt lat="43.97936" lon="1.84893">
        <ele>209.2</ele>
        <time>2022-08-14T09:16:25Z</time>
      </trkpt>
      <trkpt lat="43.97937" lon="1.84895">
        <ele>209.6</ele>
        <time>2022-08-14T09:16:26Z</time>
      </trkpt>
      <trkpt lat="43.97938" lon="1.84899">
        <ele>209.4</ele>
        <time>2022-08-14T09:16:27Z</time>
      </trkpt>
      <trkpt lat="43.97939" lon="1.84901">
        <ele>210</ele>
        <time>2022-08-14T09:16:28Z</time>
      </trkpt>
      <trkpt lat="43.9794" lon="1.84904">
        <ele>210.4</ele>
        <time>2022-08-14T09:16:29Z</time>
      </trkpt>
      <trkpt lat="43.97941" lon="1.84907">
        <ele>210.6</ele>
        <time>2022-08-14T09:16:30Z</time>
      </trkpt>
      <trkpt lat="43.97942" lon="1.8491">
        <ele>210.8</ele>
        <time>2022-08-14T09:16:31Z</time>
      </trkpt>
      <trkpt lat="43.97943" lon="1.84913">
        <ele>211</ele>
        <time>2022-08-14T09:16:32Z</time>
      </trkpt>
      <trkpt lat="43.97944" lon="1.84916">
        <ele>211.2</ele>
        <time>2022-08-14T09:16:33Z</time>
      </trkpt>
      <trkpt lat="43.97944" lon="1.84918">
        <ele>211.6</ele>
        <time>2022-08-14T09:16:34Z</time>
      </trkpt>
      <trkpt lat="43.97945" lon="1.84921">
        <ele>212</ele>
        <time>2022-08-14T09:16:35Z</time>
      </trkpt>
      <trkpt lat="43.97946" lon="1.84924">
        <ele>212.2</ele>
        <time>2022-08-14T09:16:36Z</time>
      </trkpt>
      <trkpt lat="43.97947" lon="1.84931">
        <ele>212.2</ele>
        <time>2022-08-14T09:16:37Z</time>
      </trkpt>
      <trkpt lat="43.97947" lon="1.84931">
        <ele>212.6</ele>
        <time>2022-08-14T09:16:38Z</time>
      </trkpt>
      <trkpt lat="43.97949" lon="1.84934">
        <ele>212.6</ele>
        <time>2022-08-14T09:16:39Z</time>
      </trkpt>
      <trkpt lat="43.9795" lon="1.84937">
        <ele>212.8</ele>
        <time>2022-08-14T09:16:40Z</time>
      </trkpt>
      <trkpt lat="43.97953" lon="1.8494">
        <ele>212.8</ele>
        <time>2022-08-14T09:16:41Z</time>
      </trkpt>
      <trkpt lat="43.97956" lon="1.84943">
        <ele>213</ele>
        <time>2022-08-14T09:16:42Z</time>
      </trkpt>
      <trkpt lat="43.97959" lon="1.84945">
        <ele>213.2</ele>
        <time>2022-08-14T09:16:43Z</time>
      </trkpt>
      <trkpt lat="43.97961" lon="1.84946">
        <ele>213.4</ele>
        <time>2022-08-14T09:16:44Z</time>
      </trkpt>
      <trkpt lat="43.97963" lon="1.84948">
        <ele>213.6</ele>
        <time>2022-08-14T09:16:45Z</time>
      </trkpt>
      <trkpt lat="43.97966" lon="1.8495">
        <ele>213.6</ele>
        <time>2022-08-14T09:16:46Z</time>
      </trkpt>
      <trkpt lat="43.97969" lon="1.84952">
        <ele>213.6</ele>
        <time>2022-08-14T09:16:47Z</time>
      </trkpt>
      <trkpt lat="43.9797" lon="1.84954">
        <ele>213.6</ele>
        <time>2022-08-14T09:16:48Z</time>
      </trkpt>
      <trkpt lat="43.97972" lon="1.84956">
        <ele>213.6</ele>
        <time>2022-08-14T09:16:49Z</time>
      </trkpt>
      <trkpt lat="43.97973" lon="1.84958">
        <ele>213.6</ele>
        <time>2022-08-14T09:16:50Z</time>
      </trkpt>
      <trkpt lat="43.97974" lon="1.84961">
        <ele>213.6</ele>
        <time>2022-08-14T09:16:51Z</time>
      </trkpt>
      <trkpt lat="43.97974" lon="1.84964">
        <ele>213.6</ele>
        <time>2022-08-14T09:16:52Z</time>
      </trkpt>
      <trkpt lat="43.97973" lon="1.84967">
        <ele>213.6</ele>
        <time>2022-08-14T09:16:53Z</time>
      </trkpt>
      <trkpt lat="43.97973" lon="1.84969">
        <ele>213.6</ele>
        <time>2022-08-14T09:16:54Z</time>
      </trkpt>
      <trkpt lat="43.97972" lon="1.84971">
        <ele>213.6</ele>
        <time>2022-08-14T09:16:55Z</time>
      </trkpt>
      <trkpt lat="43.97972" lon="1.84972">
        <ele>213.4</ele>
        <time>2022-08-14T09:16:56Z</time>
      </trkpt>
      <trkpt lat="43.97972" lon="1.84975">
        <ele>213.4</ele>
        <time>2022-08-14T09:16:57Z</time>
      </trkpt>
      <trkpt lat="43.97972" lon="1.84978">
        <ele>213.4</ele>
        <time>2022-08-14T09:16:58Z</time>
      </trkpt>
      <trkpt lat="43.97972" lon="1.8498">
        <ele>213.4</ele>
        <time>2022-08-14T09:16:59Z</time>
      </trkpt>
      <trkpt lat="43.97971" lon="1.84982">
        <ele>213.4</ele>
        <time>2022-08-14T09:17:00Z</time>
      </trkpt>
      <trkpt lat="43.97971" lon="1.84985">
        <ele>213.4</ele>
        <time>2022-08-14T09:17:01Z</time>
      </trkpt>
      <trkpt lat="43.97969" lon="1.85">
        <ele>213.8</ele>
        <time>2022-08-14T09:17:07Z</time>
      </trkpt>
      <trkpt lat="43.97968" lon="1.85006">
        <ele>214</ele>
        <time>2022-08-14T09:17:09Z</time>
      </trkpt>
      <trkpt lat="43.97966" lon="1.85014">
        <ele>214.2</ele>
        <time>2022-08-14T09:17:12Z</time>
      </trkpt>
      <trkpt lat="43.97963" lon="1.85021">
        <ele>214.4</ele>
        <time>2022-08-14T09:17:15Z</time>
      </trkpt>
      <trkpt lat="43.97962" lon="1.8503">
        <ele>214.8</ele>
        <time>2022-08-14T09:17:18Z</time>
      </trkpt>
      <trkpt lat="43.97962" lon="1.85033">
        <ele>215</ele>
        <time>2022-08-14T09:17:19Z</time>
      </trkpt>
      <trkpt lat="43.97959" lon="1.85056">
        <ele>215.8</ele>
        <time>2022-08-14T09:17:26Z</time>
      </trkpt>
      <trkpt lat="43.97958" lon="1.85059">
        <ele>216</ele>
        <time>2022-08-14T09:17:27Z</time>
      </trkpt>
      <trkpt lat="43.97955" lon="1.85082">
        <ele>216.6</ele>
        <time>2022-08-14T09:17:33Z</time>
      </trkpt>
      <trkpt lat="43.97954" lon="1.8509">
        <ele>216.6</ele>
        <time>2022-08-14T09:17:34Z</time>
      </trkpt>
      <trkpt lat="43.97952" lon="1.85101">
        <ele>217</ele>
        <time>2022-08-14T09:17:37Z</time>
      </trkpt>
      <trkpt lat="43.97951" lon="1.85105">
        <ele>217</ele>
        <time>2022-08-14T09:17:38Z</time>
      </trkpt>
      <trkpt lat="43.9795" lon="1.85109">
        <ele>217.2</ele>
        <time>2022-08-14T09:17:39Z</time>
      </trkpt>
      <trkpt lat="43.97949" lon="1.85113">
        <ele>217.4</ele>
        <time>2022-08-14T09:17:40Z</time>
      </trkpt>
      <trkpt lat="43.97949" lon="1.85117">
        <ele>217.6</ele>
        <time>2022-08-14T09:17:41Z</time>
      </trkpt>
      <trkpt lat="43.97948" lon="1.85121">
        <ele>217.8</ele>
        <time>2022-08-14T09:17:42Z</time>
      </trkpt>
      <trkpt lat="43.97948" lon="1.85125">
        <ele>217.8</ele>
        <time>2022-08-14T09:17:43Z</time>
      </trkpt>
      <trkpt lat="43.97947" lon="1.8513">
        <ele>218</ele>
        <time>2022-08-14T09:17:44Z</time>
      </trkpt>
      <trkpt lat="43.97946" lon="1.85134">
        <ele>218</ele>
        <time>2022-08-14T09:17:45Z</time>
      </trkpt>
      <trkpt lat="43.97945" lon="1.85138">
        <ele>218</ele>
        <time>2022-08-14T09:17:46Z</time>
      </trkpt>
      <trkpt lat="43.97945" lon="1.85143">
        <ele>218</ele>
        <time>2022-08-14T09:17:47Z</time>
      </trkpt>
      <trkpt lat="43.97944" lon="1.85147">
        <ele>218</ele>
        <time>2022-08-14T09:17:48Z</time>
      </trkpt>
      <trkpt lat="43.97944" lon="1.85152">
        <ele>218.2</ele>
        <time>2022-08-14T09:17:49Z</time>
      </trkpt>
      <trkpt lat="43.97944" lon="1.85152">
        <ele>218.2</ele>
        <time>2022-08-14T09:17:50Z</time>
      </trkpt>
      <trkpt lat="43.97943" lon="1.85162">
        <ele>218.2</ele>
        <time>2022-08-14T09:17:51Z</time>
      </trkpt>
      <trkpt lat="43.97942" lon="1.85167">
        <ele>218.2</ele>
        <time>2022-08-14T09:17:52Z</time>
      </trkpt>
      <trkpt lat="43.97941" lon="1.85172">
        <ele>218.2</ele>
        <time>2022-08-14T09:17:53Z</time>
      </trkpt>
      <trkpt lat="43.97941" lon="1.85176">
        <ele>218.4</ele>
        <time>2022-08-14T09:17:54Z</time>
      </trkpt>
      <trkpt lat="43.9794" lon="1.85185">
        <ele>218.4</ele>
        <time>2022-08-14T09:17:56Z</time>
      </trkpt>
      <trkpt lat="43.9794" lon="1.8519">
        <ele>218.4</ele>
        <time>2022-08-14T09:17:57Z</time>
      </trkpt>
      <trkpt lat="43.9794" lon="1.85195">
        <ele>218.6</ele>
        <time>2022-08-14T09:17:58Z</time>
      </trkpt>
      <trkpt lat="43.97937" lon="1.85232">
        <ele>218.6</ele>
        <time>2022-08-14T09:18:05Z</time>
      </trkpt>
      <trkpt lat="43.97937" lon="1.85237">
        <ele>218.6</ele>
        <time>2022-08-14T09:18:06Z</time>
      </trkpt>
      <trkpt lat="43.97935" lon="1.85263">
        <ele>218.6</ele>
        <time>2022-08-14T09:18:10Z</time>
      </trkpt>
      <trkpt lat="43.97934" lon="1.85275">
        <ele>218.4</ele>
        <time>2022-08-14T09:18:12Z</time>
      </trkpt>
      <trkpt lat="43.97934" lon="1.85275">
        <ele>218.4</ele>
        <time>2022-08-14T09:18:13Z</time>
      </trkpt>
      <trkpt lat="43.97933" lon="1.85287">
        <ele>218.4</ele>
        <time>2022-08-14T09:18:14Z</time>
      </trkpt>
      <trkpt lat="43.97932" lon="1.85293">
        <ele>218.4</ele>
        <time>2022-08-14T09:18:15Z</time>
      </trkpt>
      <trkpt lat="43.97932" lon="1.85293">
        <ele>218.2</ele>
        <time>2022-08-14T09:18:16Z</time>
      </trkpt>
      <trkpt lat="43.97931" lon="1.85305">
        <ele>218.2</ele>
        <time>2022-08-14T09:18:17Z</time>
      </trkpt>
      <trkpt lat="43.9793" lon="1.85317">
        <ele>218</ele>
        <time>2022-08-14T09:18:19Z</time>
      </trkpt>
      <trkpt lat="43.97925" lon="1.85362">
        <ele>218</ele>
        <time>2022-08-14T09:18:26Z</time>
      </trkpt>
      <trkpt lat="43.97925" lon="1.85368">
        <ele>218</ele>
        <time>2022-08-14T09:18:27Z</time>
      </trkpt>
      <trkpt lat="43.97921" lon="1.85389">
        <ele>218.2</ele>
        <time>2022-08-14T09:18:30Z</time>
      </trkpt>
      <trkpt lat="43.97911" lon="1.85424">
        <ele>218.4</ele>
        <time>2022-08-14T09:18:35Z</time>
      </trkpt>
      <trkpt lat="43.97909" lon="1.8543">
        <ele>218.4</ele>
        <time>2022-08-14T09:18:36Z</time>
      </trkpt>
      <trkpt lat="43.97908" lon="1.85437">
        <ele>218.4</ele>
        <time>2022-08-14T09:18:37Z</time>
      </trkpt>
      <trkpt lat="43.97906" lon="1.85443">
        <ele>218.4</ele>
        <time>2022-08-14T09:18:38Z</time>
      </trkpt>
      <trkpt lat="43.97904" lon="1.8545">
        <ele>218.2</ele>
        <time>2022-08-14T09:18:39Z</time>
      </trkpt>
      <trkpt lat="43.97903" lon="1.85455">
        <ele>218.2</ele>
        <time>2022-08-14T09:18:40Z</time>
      </trkpt>
      <trkpt lat="43.97901" lon="1.85461">
        <ele>218.2</ele>
        <time>2022-08-14T09:18:41Z</time>
      </trkpt>
      <trkpt lat="43.979" lon="1.85466">
        <ele>218.2</ele>
        <time>2022-08-14T09:18:42Z</time>
      </trkpt>
      <trkpt lat="43.97899" lon="1.85472">
        <ele>218</ele>
        <time>2022-08-14T09:18:43Z</time>
      </trkpt>
      <trkpt lat="43.97897" lon="1.85489">
        <ele>217.8</ele>
        <time>2022-08-14T09:18:46Z</time>
      </trkpt>
      <trkpt lat="43.97893" lon="1.8552">
        <ele>217.8</ele>
        <time>2022-08-14T09:18:51Z</time>
      </trkpt>
      <trkpt lat="43.97892" lon="1.85533">
        <ele>217.8</ele>
        <time>2022-08-14T09:18:53Z</time>
      </trkpt>
      <trkpt lat="43.97892" lon="1.85533">
        <ele>218</ele>
        <time>2022-08-14T09:18:54Z</time>
      </trkpt>
      <trkpt lat="43.97891" lon="1.85545">
        <ele>218</ele>
        <time>2022-08-14T09:18:55Z</time>
      </trkpt>
      <trkpt lat="43.9789" lon="1.8555">
        <ele>218</ele>
        <time>2022-08-14T09:18:56Z</time>
      </trkpt>
      <trkpt lat="43.97886" lon="1.85575">
        <ele>218</ele>
        <time>2022-08-14T09:19:00Z</time>
      </trkpt>
      <trkpt lat="43.97885" lon="1.85588">
        <ele>218</ele>
        <time>2022-08-14T09:19:02Z</time>
      </trkpt>
      <trkpt lat="43.97886" lon="1.85594">
        <ele>218</ele>
        <time>2022-08-14T09:19:03Z</time>
      </trkpt>
      <trkpt lat="43.97886" lon="1.85599">
        <ele>218</ele>
        <time>2022-08-14T09:19:04Z</time>
      </trkpt>
      <trkpt lat="43.97886" lon="1.85603">
        <ele>218</ele>
        <time>2022-08-14T09:19:05Z</time>
      </trkpt>
      <trkpt lat="43.97886" lon="1.85605">
        <ele>217.8</ele>
        <time>2022-08-14T09:19:06Z</time>
      </trkpt>
      <trkpt lat="43.97886" lon="1.85607">
        <ele>217.8</ele>
        <time>2022-08-14T09:19:07Z</time>
      </trkpt>
      <trkpt lat="43.97886" lon="1.85607">
        <ele>217.8</ele>
        <time>2022-08-14T09:19:08Z</time>
      </trkpt>
      <trkpt lat="43.97886" lon="1.85607">
        <ele>216</ele>
        <time>2022-08-14T09:21:26Z</time>
      </trkpt>
      <trkpt lat="43.97887" lon="1.85608">
        <ele>216</ele>
        <time>2022-08-14T09:21:28Z</time>
      </trkpt>
      <trkpt lat="43.97887" lon="1.85608">
        <ele>216</ele>
        <time>2022-08-14T09:21:29Z</time>
      </trkpt>
      <trkpt lat="43.97889" lon="1.85609">
        <ele>216</ele>
        <time>2022-08-14T09:21:30Z</time>
      </trkpt>
      <trkpt lat="43.97898" lon="1.85617">
        <ele>216.4</ele>
        <time>2022-08-14T09:21:35Z</time>
      </trkpt>
      <trkpt lat="43.97901" lon="1.8562">
        <ele>216.6</ele>
        <time>2022-08-14T09:21:37Z</time>
      </trkpt>
      <trkpt lat="43.97903" lon="1.85622">
        <ele>216.6</ele>
        <time>2022-08-14T09:21:38Z</time>
      </trkpt>
      <trkpt lat="43.97904" lon="1.85624">
        <ele>216.6</ele>
        <time>2022-08-14T09:21:39Z</time>
      </trkpt>
      <trkpt lat="43.97905" lon="1.85625">
        <ele>216.6</ele>
        <time>2022-08-14T09:21:40Z</time>
      </trkpt>
      <trkpt lat="43.97909" lon="1.85628">
        <ele>216.8</ele>
        <time>2022-08-14T09:21:42Z</time>
      </trkpt>
      <trkpt lat="43.97916" lon="1.85637">
        <ele>217</ele>
        <time>2022-08-14T09:21:47Z</time>
      </trkpt>
      <trkpt lat="43.97917" lon="1.85639">
        <ele>217</ele>
        <time>2022-08-14T09:21:48Z</time>
      </trkpt>
      <trkpt lat="43.9792" lon="1.85644">
        <ele>217.2</ele>
        <time>2022-08-14T09:21:50Z</time>
      </trkpt>
      <trkpt lat="43.97922" lon="1.85652">
        <ele>217.4</ele>
        <time>2022-08-14T09:21:53Z</time>
      </trkpt>
      <trkpt lat="43.97923" lon="1.85655">
        <ele>217.6</ele>
        <time>2022-08-14T09:21:54Z</time>
      </trkpt>
      <trkpt lat="43.97923" lon="1.85673">
        <ele>217.6</ele>
        <time>2022-08-14T09:21:59Z</time>
      </trkpt>
      <trkpt lat="43.97923" lon="1.85684">
        <ele>217.6</ele>
        <time>2022-08-14T09:22:02Z</time>
      </trkpt>
      <trkpt lat="43.97923" lon="1.85691">
        <ele>217.8</ele>
        <time>2022-08-14T09:22:04Z</time>
      </trkpt>
      <trkpt lat="43.97923" lon="1.85694">
        <ele>217.8</ele>
        <time>2022-08-14T09:22:05Z</time>
      </trkpt>
      <trkpt lat="43.97922" lon="1.85698">
        <ele>218</ele>
        <time>2022-08-14T09:22:06Z</time>
      </trkpt>
      <trkpt lat="43.97922" lon="1.85701">
        <ele>218</ele>
        <time>2022-08-14T09:22:07Z</time>
      </trkpt>
      <trkpt lat="43.97922" lon="1.85705">
        <ele>218.2</ele>
        <time>2022-08-14T09:22:09Z</time>
      </trkpt>
      <trkpt lat="43.97921" lon="1.85712">
        <ele>218.2</ele>
        <time>2022-08-14T09:22:10Z</time>
      </trkpt>
      <trkpt lat="43.97918" lon="1.85744">
        <ele>218.8</ele>
        <time>2022-08-14T09:22:19Z</time>
      </trkpt>
      <trkpt lat="43.97918" lon="1.85748">
        <ele>218.8</ele>
        <time>2022-08-14T09:22:20Z</time>
      </trkpt>
      <trkpt lat="43.97917" lon="1.85752">
        <ele>219</ele>
        <time>2022-08-14T09:22:21Z</time>
      </trkpt>
      <trkpt lat="43.97917" lon="1.85756">
        <ele>219</ele>
        <time>2022-08-14T09:22:23Z</time>
      </trkpt>
      <trkpt lat="43.97916" lon="1.85767">
        <ele>219.4</ele>
        <time>2022-08-14T09:22:25Z</time>
      </trkpt>
      <trkpt lat="43.97914" lon="1.85785">
        <ele>219.6</ele>
        <time>2022-08-14T09:22:29Z</time>
      </trkpt>
      <trkpt lat="43.97914" lon="1.85795">
        <ele>219.6</ele>
        <time>2022-08-14T09:22:31Z</time>
      </trkpt>
      <trkpt lat="43.97914" lon="1.85795">
        <ele>219.6</ele>
        <time>2022-08-14T09:22:32Z</time>
      </trkpt>
      <trkpt lat="43.97913" lon="1.85804">
        <ele>219.6</ele>
        <time>2022-08-14T09:22:33Z</time>
      </trkpt>
      <trkpt lat="43.97911" lon="1.85826">
        <ele>220.6</ele>
        <time>2022-08-14T09:22:38Z</time>
      </trkpt>
      <trkpt lat="43.9791" lon="1.85835">
        <ele>220.8</ele>
        <time>2022-08-14T09:22:40Z</time>
      </trkpt>
      <trkpt lat="43.97908" lon="1.85854">
        <ele>221.2</ele>
        <time>2022-08-14T09:22:44Z</time>
      </trkpt>
      <trkpt lat="43.97906" lon="1.85873">
        <ele>221.6</ele>
        <time>2022-08-14T09:22:48Z</time>
      </trkpt>
      <trkpt lat="43.97906" lon="1.85873">
        <ele>221.6</ele>
        <time>2022-08-14T09:22:49Z</time>
      </trkpt>
      <trkpt lat="43.97906" lon="1.85882">
        <ele>221.8</ele>
        <time>2022-08-14T09:22:50Z</time>
      </trkpt>
      <trkpt lat="43.97905" lon="1.85886">
        <ele>222</ele>
        <time>2022-08-14T09:22:51Z</time>
      </trkpt>
      <trkpt lat="43.97904" lon="1.85895">
        <ele>222.4</ele>
        <time>2022-08-14T09:22:53Z</time>
      </trkpt>
      <trkpt lat="43.97904" lon="1.85899">
        <ele>222.6</ele>
        <time>2022-08-14T09:22:54Z</time>
      </trkpt>
      <trkpt lat="43.97904" lon="1.85899">
        <ele>222.6</ele>
        <time>2022-08-14T09:22:55Z</time>
      </trkpt>
      <trkpt lat="43.97903" lon="1.85908">
        <ele>222.6</ele>
        <time>2022-08-14T09:22:56Z</time>
      </trkpt>
      <trkpt lat="43.97902" lon="1.85912">
        <ele>222.8</ele>
        <time>2022-08-14T09:22:57Z</time>
      </trkpt>
      <trkpt lat="43.97902" lon="1.85917">
        <ele>222.8</ele>
        <time>2022-08-14T09:22:58Z</time>
      </trkpt>
      <trkpt lat="43.97901" lon="1.85921">
        <ele>222.8</ele>
        <time>2022-08-14T09:22:59Z</time>
      </trkpt>
      <trkpt lat="43.97901" lon="1.85921">
        <ele>222.8</ele>
        <time>2022-08-14T09:23:00Z</time>
      </trkpt>
      <trkpt lat="43.979" lon="1.8593">
        <ele>222.8</ele>
        <time>2022-08-14T09:23:01Z</time>
      </trkpt>
      <trkpt lat="43.979" lon="1.85934">
        <ele>222.8</ele>
        <time>2022-08-14T09:23:02Z</time>
      </trkpt>
      <trkpt lat="43.97899" lon="1.85939">
        <ele>222.8</ele>
        <time>2022-08-14T09:23:03Z</time>
      </trkpt>
      <trkpt lat="43.97897" lon="1.85943">
        <ele>222.8</ele>
        <time>2022-08-14T09:23:04Z</time>
      </trkpt>
      <trkpt lat="43.97896" lon="1.85948">
        <ele>222.8</ele>
        <time>2022-08-14T09:23:05Z</time>
      </trkpt>
      <trkpt lat="43.97896" lon="1.85952">
        <ele>222.8</ele>
        <time>2022-08-14T09:23:06Z</time>
      </trkpt>
      <trkpt lat="43.97895" lon="1.85957">
        <ele>222.8</ele>
        <time>2022-08-14T09:23:07Z</time>
      </trkpt>
      <trkpt lat="43.97895" lon="1.85971">
        <ele>222.8</ele>
        <time>2022-08-14T09:23:10Z</time>
      </trkpt>
      <trkpt lat="43.97895" lon="1.85976">
        <ele>222.8</ele>
        <time>2022-08-14T09:23:11Z</time>
      </trkpt>
      <trkpt lat="43.97894" lon="1.85995">
        <ele>223</ele>
        <time>2022-08-14T09:23:15Z</time>
      </trkpt>
      <trkpt lat="43.97894" lon="1.86004">
        <ele>223.2</ele>
        <time>2022-08-14T09:23:17Z</time>
      </trkpt>
      <trkpt lat="43.97894" lon="1.86009">
        <ele>223.4</ele>
        <time>2022-08-14T09:23:18Z</time>
      </trkpt>
      <trkpt lat="43.97894" lon="1.86013">
        <ele>223.4</ele>
        <time>2022-08-14T09:23:19Z</time>
      </trkpt>
      <trkpt lat="43.97894" lon="1.86018">
        <ele>223.4</ele>
        <time>2022-08-14T09:23:20Z</time>
      </trkpt>
      <trkpt lat="43.97894" lon="1.86022">
        <ele>223.6</ele>
        <time>2022-08-14T09:23:21Z</time>
      </trkpt>
      <trkpt lat="43.97894" lon="1.86027">
        <ele>223.6</ele>
        <time>2022-08-14T09:23:22Z</time>
      </trkpt>
      <trkpt lat="43.97896" lon="1.86046">
        <ele>224</ele>
        <time>2022-08-14T09:23:26Z</time>
      </trkpt>
      <trkpt lat="43.97899" lon="1.86082">
        <ele>224.8</ele>
        <time>2022-08-14T09:23:33Z</time>
      </trkpt>
      <trkpt lat="43.97901" lon="1.86093">
        <ele>225</ele>
        <time>2022-08-14T09:23:35Z</time>
      </trkpt>
      <trkpt lat="43.97903" lon="1.86098">
        <ele>225</ele>
        <time>2022-08-14T09:23:36Z</time>
      </trkpt>
      <trkpt lat="43.97904" lon="1.86103">
        <ele>225.2</ele>
        <time>2022-08-14T09:23:37Z</time>
      </trkpt>
      <trkpt lat="43.97906" lon="1.86108">
        <ele>225.2</ele>
        <time>2022-08-14T09:23:38Z</time>
      </trkpt>
      <trkpt lat="43.97907" lon="1.86112">
        <ele>225.2</ele>
        <time>2022-08-14T09:23:39Z</time>
      </trkpt>
      <trkpt lat="43.97909" lon="1.86116">
        <ele>225</ele>
        <time>2022-08-14T09:23:40Z</time>
      </trkpt>
      <trkpt lat="43.97911" lon="1.8612">
        <ele>225</ele>
        <time>2022-08-14T09:23:41Z</time>
      </trkpt>
      <trkpt lat="43.97911" lon="1.8612">
        <ele>225.2</ele>
        <time>2022-08-14T09:23:42Z</time>
      </trkpt>
      <trkpt lat="43.97915" lon="1.86128">
        <ele>225.4</ele>
        <time>2022-08-14T09:23:43Z</time>
      </trkpt>
      <trkpt lat="43.97925" lon="1.86145">
        <ele>226</ele>
        <time>2022-08-14T09:23:48Z</time>
      </trkpt>
      <trkpt lat="43.97933" lon="1.86155">
        <ele>226.8</ele>
        <time>2022-08-14T09:23:51Z</time>
      </trkpt>
      <trkpt lat="43.97935" lon="1.86158">
        <ele>227.2</ele>
        <time>2022-08-14T09:23:52Z</time>
      </trkpt>
      <trkpt lat="43.97938" lon="1.86161">
        <ele>227.4</ele>
        <time>2022-08-14T09:23:53Z</time>
      </trkpt>
      <trkpt lat="43.97944" lon="1.86167">
        <ele>227.6</ele>
        <time>2022-08-14T09:23:55Z</time>
      </trkpt>
      <trkpt lat="43.97944" lon="1.86167">
        <ele>227.8</ele>
        <time>2022-08-14T09:23:56Z</time>
      </trkpt>
      <trkpt lat="43.9795" lon="1.86172">
        <ele>227.8</ele>
        <time>2022-08-14T09:23:57Z</time>
      </trkpt>
      <trkpt lat="43.97952" lon="1.86175">
        <ele>228</ele>
        <time>2022-08-14T09:23:58Z</time>
      </trkpt>
      <trkpt lat="43.97955" lon="1.86177">
        <ele>228</ele>
        <time>2022-08-14T09:23:59Z</time>
      </trkpt>
      <trkpt lat="43.97957" lon="1.8618">
        <ele>228</ele>
        <time>2022-08-14T09:24:00Z</time>
      </trkpt>
      <trkpt lat="43.9796" lon="1.86183">
        <ele>228.2</ele>
        <time>2022-08-14T09:24:01Z</time>
      </trkpt>
      <trkpt lat="43.97962" lon="1.86186">
        <ele>228.2</ele>
        <time>2022-08-14T09:24:02Z</time>
      </trkpt>
      <trkpt lat="43.97964" lon="1.86189">
        <ele>228.4</ele>
        <time>2022-08-14T09:24:03Z</time>
      </trkpt>
      <trkpt lat="43.97966" lon="1.86192">
        <ele>228.6</ele>
        <time>2022-08-14T09:24:04Z</time>
      </trkpt>
      <trkpt lat="43.97968" lon="1.86194">
        <ele>228.8</ele>
        <time>2022-08-14T09:24:05Z</time>
      </trkpt>
      <trkpt lat="43.9797" lon="1.86197">
        <ele>229</ele>
        <time>2022-08-14T09:24:06Z</time>
      </trkpt>
      <trkpt lat="43.97972" lon="1.862">
        <ele>229.2</ele>
        <time>2022-08-14T09:24:07Z</time>
      </trkpt>
      <trkpt lat="43.97974" lon="1.86204">
        <ele>229.2</ele>
        <time>2022-08-14T09:24:08Z</time>
      </trkpt>
      <trkpt lat="43.97976" lon="1.86207">
        <ele>229.4</ele>
        <time>2022-08-14T09:24:09Z</time>
      </trkpt>
      <trkpt lat="43.97976" lon="1.86207">
        <ele>229.4</ele>
        <time>2022-08-14T09:24:10Z</time>
      </trkpt>
      <trkpt lat="43.9798" lon="1.86214">
        <ele>229.4</ele>
        <time>2022-08-14T09:24:11Z</time>
      </trkpt>
      <trkpt lat="43.97983" lon="1.86217">
        <ele>229.6</ele>
        <time>2022-08-14T09:24:12Z</time>
      </trkpt>
      <trkpt lat="43.97983" lon="1.86217">
        <ele>229.6</ele>
        <time>2022-08-14T09:24:13Z</time>
      </trkpt>
      <trkpt lat="43.97987" lon="1.86225">
        <ele>229.6</ele>
        <time>2022-08-14T09:24:14Z</time>
      </trkpt>
      <trkpt lat="43.97988" lon="1.86229">
        <ele>229.6</ele>
        <time>2022-08-14T09:24:15Z</time>
      </trkpt>
      <trkpt lat="43.97988" lon="1.86229">
        <ele>229.6</ele>
        <time>2022-08-14T09:24:16Z</time>
      </trkpt>
      <trkpt lat="43.9799" lon="1.86238">
        <ele>229.6</ele>
        <time>2022-08-14T09:24:17Z</time>
      </trkpt>
      <trkpt lat="43.9799" lon="1.86242">
        <ele>229.6</ele>
        <time>2022-08-14T09:24:18Z</time>
      </trkpt>
      <trkpt lat="43.9799" lon="1.86247">
        <ele>229.6</ele>
        <time>2022-08-14T09:24:19Z</time>
      </trkpt>
      <trkpt lat="43.9799" lon="1.86251">
        <ele>229.6</ele>
        <time>2022-08-14T09:24:20Z</time>
      </trkpt>
      <trkpt lat="43.9799" lon="1.86256">
        <ele>229.6</ele>
        <time>2022-08-14T09:24:21Z</time>
      </trkpt>
      <trkpt lat="43.9799" lon="1.86262">
        <ele>229.4</ele>
        <time>2022-08-14T09:24:22Z</time>
      </trkpt>
      <trkpt lat="43.97988" lon="1.863">
        <ele>229.4</ele>
        <time>2022-08-14T09:24:27Z</time>
      </trkpt>
      <trkpt lat="43.97983" lon="1.86346">
        <ele>228.2</ele>
        <time>2022-08-14T09:24:32Z</time>
      </trkpt>
      <trkpt lat="43.97982" lon="1.86355">
        <ele>227.8</ele>
        <time>2022-08-14T09:24:33Z</time>
      </trkpt>
      <trkpt lat="43.97982" lon="1.86363">
        <ele>227.4</ele>
        <time>2022-08-14T09:24:34Z</time>
      </trkpt>
      <trkpt lat="43.97983" lon="1.86372">
        <ele>227.2</ele>
        <time>2022-08-14T09:24:35Z</time>
      </trkpt>
      <trkpt lat="43.97984" lon="1.8638">
        <ele>227</ele>
        <time>2022-08-14T09:24:36Z</time>
      </trkpt>
      <trkpt lat="43.97985" lon="1.86388">
        <ele>227</ele>
        <time>2022-08-14T09:24:37Z</time>
      </trkpt>
      <trkpt lat="43.97987" lon="1.86395">
        <ele>226.8</ele>
        <time>2022-08-14T09:24:38Z</time>
      </trkpt>
      <trkpt lat="43.97989" lon="1.86402">
        <ele>226.6</ele>
        <time>2022-08-14T09:24:39Z</time>
      </trkpt>
      <trkpt lat="43.97991" lon="1.86408">
        <ele>226.6</ele>
        <time>2022-08-14T09:24:40Z</time>
      </trkpt>
      <trkpt lat="43.97992" lon="1.86413">
        <ele>226.8</ele>
        <time>2022-08-14T09:24:41Z</time>
      </trkpt>
      <trkpt lat="43.97994" lon="1.86418">
        <ele>226.6</ele>
        <time>2022-08-14T09:24:42Z</time>
      </trkpt>
      <trkpt lat="43.97996" lon="1.86424">
        <ele>226.4</ele>
        <time>2022-08-14T09:24:43Z</time>
      </trkpt>
      <trkpt lat="43.98005" lon="1.86446">
        <ele>226</ele>
        <time>2022-08-14T09:24:47Z</time>
      </trkpt>
      <trkpt lat="43.98007" lon="1.86451">
        <ele>226</ele>
        <time>2022-08-14T09:24:48Z</time>
      </trkpt>
      <trkpt lat="43.98009" lon="1.86455">
        <ele>226.4</ele>
        <time>2022-08-14T09:24:49Z</time>
      </trkpt>
      <trkpt lat="43.98021" lon="1.86487">
        <ele>227.6</ele>
        <time>2022-08-14T09:24:55Z</time>
      </trkpt>
      <trkpt lat="43.98023" lon="1.86492">
        <ele>227.8</ele>
        <time>2022-08-14T09:24:56Z</time>
      </trkpt>
      <trkpt lat="43.98025" lon="1.86498">
        <ele>228</ele>
        <time>2022-08-14T09:24:57Z</time>
      </trkpt>
      <trkpt lat="43.98026" lon="1.86503">
        <ele>228.2</ele>
        <time>2022-08-14T09:24:58Z</time>
      </trkpt>
      <trkpt lat="43.98028" lon="1.86509">
        <ele>228.2</ele>
        <time>2022-08-14T09:24:59Z</time>
      </trkpt>
      <trkpt lat="43.98028" lon="1.86509">
        <ele>228.2</ele>
        <time>2022-08-14T09:25:00Z</time>
      </trkpt>
      <trkpt lat="43.9803" lon="1.86522">
        <ele>228.4</ele>
        <time>2022-08-14T09:25:01Z</time>
      </trkpt>
      <trkpt lat="43.98029" lon="1.86528">
        <ele>228.4</ele>
        <time>2022-08-14T09:25:02Z</time>
      </trkpt>
      <trkpt lat="43.98028" lon="1.86534">
        <ele>228.6</ele>
        <time>2022-08-14T09:25:03Z</time>
      </trkpt>
      <trkpt lat="43.98026" lon="1.86538">
        <ele>228.6</ele>
        <time>2022-08-14T09:25:04Z</time>
      </trkpt>
      <trkpt lat="43.98023" lon="1.86542">
        <ele>228.6</ele>
        <time>2022-08-14T09:25:05Z</time>
      </trkpt>
      <trkpt lat="43.9802" lon="1.86546">
        <ele>228.6</ele>
        <time>2022-08-14T09:25:06Z</time>
      </trkpt>
      <trkpt lat="43.98017" lon="1.8655">
        <ele>228.8</ele>
        <time>2022-08-14T09:25:07Z</time>
      </trkpt>
      <trkpt lat="43.98014" lon="1.86553">
        <ele>228.8</ele>
        <time>2022-08-14T09:25:08Z</time>
      </trkpt>
      <trkpt lat="43.97994" lon="1.86571">
        <ele>228.6</ele>
        <time>2022-08-14T09:25:13Z</time>
      </trkpt>
      <trkpt lat="43.97979" lon="1.86588">
        <ele>228.2</ele>
        <time>2022-08-14T09:25:16Z</time>
      </trkpt>
      <trkpt lat="43.97975" lon="1.86596">
        <ele>228</ele>
        <time>2022-08-14T09:25:17Z</time>
      </trkpt>
      <trkpt lat="43.97971" lon="1.86604">
        <ele>227.8</ele>
        <time>2022-08-14T09:25:18Z</time>
      </trkpt>
      <trkpt lat="43.97966" lon="1.86621">
        <ele>227.2</ele>
        <time>2022-08-14T09:25:20Z</time>
      </trkpt>
      <trkpt lat="43.97965" lon="1.8663">
        <ele>227</ele>
        <time>2022-08-14T09:25:21Z</time>
      </trkpt>
      <trkpt lat="43.97958" lon="1.86658">
        <ele>226.2</ele>
        <time>2022-08-14T09:25:24Z</time>
      </trkpt>
      <trkpt lat="43.97958" lon="1.86658">
        <ele>225.8</ele>
        <time>2022-08-14T09:25:25Z</time>
      </trkpt>
      <trkpt lat="43.97955" lon="1.86677">
        <ele>225.6</ele>
        <time>2022-08-14T09:25:26Z</time>
      </trkpt>
      <trkpt lat="43.97953" lon="1.86686">
        <ele>225.2</ele>
        <time>2022-08-14T09:25:27Z</time>
      </trkpt>
      <trkpt lat="43.97952" lon="1.86696">
        <ele>224.8</ele>
        <time>2022-08-14T09:25:28Z</time>
      </trkpt>
      <trkpt lat="43.9795" lon="1.86705">
        <ele>224.2</ele>
        <time>2022-08-14T09:25:29Z</time>
      </trkpt>
      <trkpt lat="43.97947" lon="1.86714">
        <ele>224</ele>
        <time>2022-08-14T09:25:30Z</time>
      </trkpt>
      <trkpt lat="43.97946" lon="1.86722">
        <ele>223.4</ele>
        <time>2022-08-14T09:25:31Z</time>
      </trkpt>
      <trkpt lat="43.97944" lon="1.86729">
        <ele>223</ele>
        <time>2022-08-14T09:25:32Z</time>
      </trkpt>
      <trkpt lat="43.97942" lon="1.86736">
        <ele>222.8</ele>
        <time>2022-08-14T09:25:33Z</time>
      </trkpt>
      <trkpt lat="43.97941" lon="1.86741">
        <ele>222.2</ele>
        <time>2022-08-14T09:25:34Z</time>
      </trkpt>
      <trkpt lat="43.9794" lon="1.86747">
        <ele>221.6</ele>
        <time>2022-08-14T09:25:35Z</time>
      </trkpt>
      <trkpt lat="43.9794" lon="1.86752">
        <ele>221</ele>
        <time>2022-08-14T09:25:36Z</time>
      </trkpt>
      <trkpt lat="43.97942" lon="1.86756">
        <ele>220.8</ele>
        <time>2022-08-14T09:25:37Z</time>
      </trkpt>
      <trkpt lat="43.97944" lon="1.86761">
        <ele>220.4</ele>
        <time>2022-08-14T09:25:38Z</time>
      </trkpt>
      <trkpt lat="43.97946" lon="1.86765">
        <ele>220</ele>
        <time>2022-08-14T09:25:39Z</time>
      </trkpt>
      <trkpt lat="43.97949" lon="1.86769">
        <ele>219.4</ele>
        <time>2022-08-14T09:25:40Z</time>
      </trkpt>
      <trkpt lat="43.97951" lon="1.86773">
        <ele>219.2</ele>
        <time>2022-08-14T09:25:41Z</time>
      </trkpt>
      <trkpt lat="43.97954" lon="1.86776">
        <ele>219</ele>
        <time>2022-08-14T09:25:42Z</time>
      </trkpt>
      <trkpt lat="43.9796" lon="1.86784">
        <ele>219</ele>
        <time>2022-08-14T09:25:44Z</time>
      </trkpt>
      <trkpt lat="43.9797" lon="1.86794">
        <ele>218.8</ele>
        <time>2022-08-14T09:25:47Z</time>
      </trkpt>
      <trkpt lat="43.97973" lon="1.86798">
        <ele>218.8</ele>
        <time>2022-08-14T09:25:48Z</time>
      </trkpt>
      <trkpt lat="43.97976" lon="1.86801">
        <ele>219</ele>
        <time>2022-08-14T09:25:49Z</time>
      </trkpt>
      <trkpt lat="43.9798" lon="1.86804">
        <ele>219</ele>
        <time>2022-08-14T09:25:50Z</time>
      </trkpt>
      <trkpt lat="43.97983" lon="1.86807">
        <ele>219</ele>
        <time>2022-08-14T09:25:51Z</time>
      </trkpt>
      <trkpt lat="43.97996" lon="1.8682">
        <ele>219.2</ele>
        <time>2022-08-14T09:25:55Z</time>
      </trkpt>
      <trkpt lat="43.98013" lon="1.86836">
        <ele>220</ele>
        <time>2022-08-14T09:26:00Z</time>
      </trkpt>
      <trkpt lat="43.98016" lon="1.86839">
        <ele>220</ele>
        <time>2022-08-14T09:26:01Z</time>
      </trkpt>
      <trkpt lat="43.98023" lon="1.86846">
        <ele>220.2</ele>
        <time>2022-08-14T09:26:03Z</time>
      </trkpt>
      <trkpt lat="43.98028" lon="1.86855">
        <ele>220.6</ele>
        <time>2022-08-14T09:26:05Z</time>
      </trkpt>
      <trkpt lat="43.98037" lon="1.8687">
        <ele>221</ele>
        <time>2022-08-14T09:26:08Z</time>
      </trkpt>
      <trkpt lat="43.98042" lon="1.86881">
        <ele>221.4</ele>
        <time>2022-08-14T09:26:10Z</time>
      </trkpt>
      <trkpt lat="43.98044" lon="1.86886">
        <ele>221.6</ele>
        <time>2022-08-14T09:26:11Z</time>
      </trkpt>
      <trkpt lat="43.98046" lon="1.86892">
        <ele>221.6</ele>
        <time>2022-08-14T09:26:12Z</time>
      </trkpt>
      <trkpt lat="43.98048" lon="1.86897">
        <ele>222</ele>
        <time>2022-08-14T09:26:13Z</time>
      </trkpt>
      <trkpt lat="43.9805" lon="1.86903">
        <ele>222</ele>
        <time>2022-08-14T09:26:14Z</time>
      </trkpt>
      <trkpt lat="43.98052" lon="1.86908">
        <ele>222.4</ele>
        <time>2022-08-14T09:26:15Z</time>
      </trkpt>
      <trkpt lat="43.98059" lon="1.86924">
        <ele>222.6</ele>
        <time>2022-08-14T09:26:18Z</time>
      </trkpt>
      <trkpt lat="43.98061" lon="1.86929">
        <ele>223</ele>
        <time>2022-08-14T09:26:19Z</time>
      </trkpt>
      <trkpt lat="43.98063" lon="1.86933">
        <ele>223.2</ele>
        <time>2022-08-14T09:26:20Z</time>
      </trkpt>
      <trkpt lat="43.98066" lon="1.86937">
        <ele>223.4</ele>
        <time>2022-08-14T09:26:21Z</time>
      </trkpt>
      <trkpt lat="43.98068" lon="1.86941">
        <ele>223.6</ele>
        <time>2022-08-14T09:26:22Z</time>
      </trkpt>
      <trkpt lat="43.98071" lon="1.86944">
        <ele>223.8</ele>
        <time>2022-08-14T09:26:23Z</time>
      </trkpt>
      <trkpt lat="43.98073" lon="1.86947">
        <ele>224.2</ele>
        <time>2022-08-14T09:26:24Z</time>
      </trkpt>
      <trkpt lat="43.98075" lon="1.86949">
        <ele>224.2</ele>
        <time>2022-08-14T09:26:25Z</time>
      </trkpt>
      <trkpt lat="43.98077" lon="1.86951">
        <ele>224.6</ele>
        <time>2022-08-14T09:26:26Z</time>
      </trkpt>
      <trkpt lat="43.98077" lon="1.86953">
        <ele>224.6</ele>
        <time>2022-08-14T09:26:27Z</time>
      </trkpt>
      <trkpt lat="43.98078" lon="1.86954">
        <ele>225</ele>
        <time>2022-08-14T09:26:28Z</time>
      </trkpt>
      <trkpt lat="43.98075" lon="1.86954">
        <ele>225.8</ele>
        <time>2022-08-14T09:27:13Z</time>
      </trkpt>
      <trkpt lat="43.9806" lon="1.8695">
        <ele>225.8</ele>
        <time>2022-08-14T09:27:17Z</time>
      </trkpt>
      <trkpt lat="43.98052" lon="1.86947">
        <ele>225.8</ele>
        <time>2022-08-14T09:27:19Z</time>
      </trkpt>
      <trkpt lat="43.98048" lon="1.86945">
        <ele>225.8</ele>
        <time>2022-08-14T09:27:20Z</time>
      </trkpt>
      <trkpt lat="43.98036" lon="1.86939">
        <ele>224.2</ele>
        <time>2022-08-14T09:27:23Z</time>
      </trkpt>
      <trkpt lat="43.98032" lon="1.86937">
        <ele>224</ele>
        <time>2022-08-14T09:27:24Z</time>
      </trkpt>
      <trkpt lat="43.98023" lon="1.86933">
        <ele>223.4</ele>
        <time>2022-08-14T09:27:26Z</time>
      </trkpt>
      <trkpt lat="43.98019" lon="1.86931">
        <ele>223.2</ele>
        <time>2022-08-14T09:27:27Z</time>
      </trkpt>
      <trkpt lat="43.98016" lon="1.86929">
        <ele>223</ele>
        <time>2022-08-14T09:27:28Z</time>
      </trkpt>
      <trkpt lat="43.98004" lon="1.86922">
        <ele>222</ele>
        <time>2022-08-14T09:27:31Z</time>
      </trkpt>
      <trkpt lat="43.97995" lon="1.86918">
        <ele>221.4</ele>
        <time>2022-08-14T09:27:33Z</time>
      </trkpt>
      <trkpt lat="43.97975" lon="1.86905">
        <ele>220.8</ele>
        <time>2022-08-14T09:27:38Z</time>
      </trkpt>
      <trkpt lat="43.97967" lon="1.86899">
        <ele>220.4</ele>
        <time>2022-08-14T09:27:40Z</time>
      </trkpt>
      <trkpt lat="43.97959" lon="1.86892">
        <ele>220.2</ele>
        <time>2022-08-14T09:27:42Z</time>
      </trkpt>
      <trkpt lat="43.97955" lon="1.86889">
        <ele>220.2</ele>
        <time>2022-08-14T09:27:43Z</time>
      </trkpt>
      <trkpt lat="43.97951" lon="1.86886">
        <ele>220.2</ele>
        <time>2022-08-14T09:27:44Z</time>
      </trkpt>
      <trkpt lat="43.9793" lon="1.8687">
        <ele>220</ele>
        <time>2022-08-14T09:27:49Z</time>
      </trkpt>
      <trkpt lat="43.97925" lon="1.86867">
        <ele>219.8</ele>
        <time>2022-08-14T09:27:50Z</time>
      </trkpt>
      <trkpt lat="43.9792" lon="1.86864">
        <ele>219.6</ele>
        <time>2022-08-14T09:27:51Z</time>
      </trkpt>
      <trkpt lat="43.97916" lon="1.86862">
        <ele>219.4</ele>
        <time>2022-08-14T09:27:52Z</time>
      </trkpt>
      <trkpt lat="43.97912" lon="1.8686">
        <ele>219</ele>
        <time>2022-08-14T09:27:53Z</time>
      </trkpt>
      <trkpt lat="43.97908" lon="1.86858">
        <ele>219</ele>
        <time>2022-08-14T09:27:54Z</time>
      </trkpt>
      <trkpt lat="43.97904" lon="1.86857">
        <ele>218.6</ele>
        <time>2022-08-14T09:27:55Z</time>
      </trkpt>
      <trkpt lat="43.979" lon="1.86857">
        <ele>218.4</ele>
        <time>2022-08-14T09:27:56Z</time>
      </trkpt>
      <trkpt lat="43.97896" lon="1.86856">
        <ele>217.4</ele>
        <time>2022-08-14T09:27:57Z</time>
      </trkpt>
      <trkpt lat="43.97892" lon="1.86856">
        <ele>217</ele>
        <time>2022-08-14T09:27:58Z</time>
      </trkpt>
      <trkpt lat="43.97888" lon="1.86855">
        <ele>216.4</ele>
        <time>2022-08-14T09:27:59Z</time>
      </trkpt>
      <trkpt lat="43.97883" lon="1.86854">
        <ele>216</ele>
        <time>2022-08-14T09:28:00Z</time>
      </trkpt>
      <trkpt lat="43.97875" lon="1.86854">
        <ele>215.2</ele>
        <time>2022-08-14T09:28:02Z</time>
      </trkpt>
      <trkpt lat="43.97871" lon="1.86855">
        <ele>214.8</ele>
        <time>2022-08-14T09:28:03Z</time>
      </trkpt>
      <trkpt lat="43.97867" lon="1.86856">
        <ele>214.2</ele>
        <time>2022-08-14T09:28:04Z</time>
      </trkpt>
      <trkpt lat="43.97863" lon="1.86857">
        <ele>214</ele>
        <time>2022-08-14T09:28:05Z</time>
      </trkpt>
      <trkpt lat="43.9786" lon="1.86859">
        <ele>213.8</ele>
        <time>2022-08-14T09:28:06Z</time>
      </trkpt>
      <trkpt lat="43.97857" lon="1.86862">
        <ele>213.2</ele>
        <time>2022-08-14T09:28:07Z</time>
      </trkpt>
      <trkpt lat="43.97855" lon="1.86867">
        <ele>212.4</ele>
        <time>2022-08-14T09:28:08Z</time>
      </trkpt>
      <trkpt lat="43.97853" lon="1.86871">
        <ele>212</ele>
        <time>2022-08-14T09:28:09Z</time>
      </trkpt>
      <trkpt lat="43.97852" lon="1.86875">
        <ele>211.8</ele>
        <time>2022-08-14T09:28:10Z</time>
      </trkpt>
      <trkpt lat="43.97851" lon="1.86879">
        <ele>211.6</ele>
        <time>2022-08-14T09:28:11Z</time>
      </trkpt>
      <trkpt lat="43.97851" lon="1.86879">
        <ele>211.6</ele>
        <time>2022-08-14T09:28:12Z</time>
      </trkpt>
      <trkpt lat="43.97851" lon="1.86888">
        <ele>211</ele>
        <time>2022-08-14T09:28:13Z</time>
      </trkpt>
      <trkpt lat="43.97851" lon="1.86893">
        <ele>210.8</ele>
        <time>2022-08-14T09:28:14Z</time>
      </trkpt>
      <trkpt lat="43.97851" lon="1.86906">
        <ele>210.4</ele>
        <time>2022-08-14T09:28:17Z</time>
      </trkpt>
      <trkpt lat="43.97851" lon="1.8691">
        <ele>210.4</ele>
        <time>2022-08-14T09:28:18Z</time>
      </trkpt>
      <trkpt lat="43.97852" lon="1.86914">
        <ele>210.4</ele>
        <time>2022-08-14T09:28:19Z</time>
      </trkpt>
      <trkpt lat="43.97852" lon="1.86917">
        <ele>210.4</ele>
        <time>2022-08-14T09:28:20Z</time>
      </trkpt>
      <trkpt lat="43.97852" lon="1.86921">
        <ele>210.4</ele>
        <time>2022-08-14T09:28:21Z</time>
      </trkpt>
      <trkpt lat="43.97851" lon="1.86926">
        <ele>210.6</ele>
        <time>2022-08-14T09:28:22Z</time>
      </trkpt>
      <trkpt lat="43.97849" lon="1.86936">
        <ele>210.8</ele>
        <time>2022-08-14T09:28:24Z</time>
      </trkpt>
      <trkpt lat="43.97849" lon="1.86939">
        <ele>210.8</ele>
        <time>2022-08-14T09:28:25Z</time>
      </trkpt>
      <trkpt lat="43.97849" lon="1.86943">
        <ele>211</ele>
        <time>2022-08-14T09:28:26Z</time>
      </trkpt>
      <trkpt lat="43.97849" lon="1.86948">
        <ele>211</ele>
        <time>2022-08-14T09:28:27Z</time>
      </trkpt>
      <trkpt lat="43.97849" lon="1.8697">
        <ele>211.8</ele>
        <time>2022-08-14T09:28:33Z</time>
      </trkpt>
      <trkpt lat="43.97849" lon="1.86974">
        <ele>211.8</ele>
        <time>2022-08-14T09:28:34Z</time>
      </trkpt>
      <trkpt lat="43.97849" lon="1.86977">
        <ele>212</ele>
        <time>2022-08-14T09:28:35Z</time>
      </trkpt>
      <trkpt lat="43.97849" lon="1.86981">
        <ele>212</ele>
        <time>2022-08-14T09:28:36Z</time>
      </trkpt>
      <trkpt lat="43.97849" lon="1.86988">
        <ele>212.4</ele>
        <time>2022-08-14T09:28:38Z</time>
      </trkpt>
      <trkpt lat="43.97849" lon="1.86991">
        <ele>212.4</ele>
        <time>2022-08-14T09:28:39Z</time>
      </trkpt>
      <trkpt lat="43.97849" lon="1.86993">
        <ele>212.6</ele>
        <time>2022-08-14T09:28:40Z</time>
      </trkpt>
      <trkpt lat="43.97849" lon="1.86995">
        <ele>212.8</ele>
        <time>2022-08-14T09:28:41Z</time>
      </trkpt>
      <trkpt lat="43.9785" lon="1.86997">
        <ele>212.8</ele>
        <time>2022-08-14T09:28:42Z</time>
      </trkpt>
      <trkpt lat="43.9785" lon="1.87">
        <ele>213</ele>
        <time>2022-08-14T09:28:43Z</time>
      </trkpt>
      <trkpt lat="43.97851" lon="1.87003">
        <ele>213</ele>
        <time>2022-08-14T09:28:44Z</time>
      </trkpt>
      <trkpt lat="43.97851" lon="1.87003">
        <ele>213.2</ele>
        <time>2022-08-14T09:28:45Z</time>
      </trkpt>
      <trkpt lat="43.97853" lon="1.87011">
        <ele>213.4</ele>
        <time>2022-08-14T09:28:47Z</time>
      </trkpt>
      <trkpt lat="43.97854" lon="1.87017">
        <ele>213.6</ele>
        <time>2022-08-14T09:28:49Z</time>
      </trkpt>
      <trkpt lat="43.97859" lon="1.87037">
        <ele>213.8</ele>
        <time>2022-08-14T09:28:55Z</time>
      </trkpt>
      <trkpt lat="43.9786" lon="1.87039">
        <ele>213.8</ele>
        <time>2022-08-14T09:28:56Z</time>
      </trkpt>
      <trkpt lat="43.97861" lon="1.87042">
        <ele>213.8</ele>
        <time>2022-08-14T09:28:57Z</time>
      </trkpt>
      <trkpt lat="43.97864" lon="1.87052">
        <ele>214</ele>
        <time>2022-08-14T09:29:00Z</time>
      </trkpt>
      <trkpt lat="43.97866" lon="1.87068">
        <ele>214.2</ele>
        <time>2022-08-14T09:29:04Z</time>
      </trkpt>
      <trkpt lat="43.97867" lon="1.87073">
        <ele>214.2</ele>
        <time>2022-08-14T09:29:05Z</time>
      </trkpt>
      <trkpt lat="43.97871" lon="1.87091">
        <ele>214.2</ele>
        <time>2022-08-14T09:29:08Z</time>
      </trkpt>
      <trkpt lat="43.97872" lon="1.87097">
        <ele>214.2</ele>
        <time>2022-08-14T09:29:09Z</time>
      </trkpt>
      <trkpt lat="43.97874" lon="1.87114">
        <ele>213.8</ele>
        <time>2022-08-14T09:29:12Z</time>
      </trkpt>
      <trkpt lat="43.97875" lon="1.87119">
        <ele>213.8</ele>
        <time>2022-08-14T09:29:13Z</time>
      </trkpt>
      <trkpt lat="43.97875" lon="1.87123">
        <ele>213.6</ele>
        <time>2022-08-14T09:29:14Z</time>
      </trkpt>
      <trkpt lat="43.97875" lon="1.87128">
        <ele>213.2</ele>
        <time>2022-08-14T09:29:15Z</time>
      </trkpt>
      <trkpt lat="43.97875" lon="1.87133">
        <ele>213.2</ele>
        <time>2022-08-14T09:29:16Z</time>
      </trkpt>
      <trkpt lat="43.97874" lon="1.87137">
        <ele>213</ele>
        <time>2022-08-14T09:29:18Z</time>
      </trkpt>
      <trkpt lat="43.97875" lon="1.87151">
        <ele>212.4</ele>
        <time>2022-08-14T09:29:20Z</time>
      </trkpt>
      <trkpt lat="43.97875" lon="1.87156">
        <ele>212.4</ele>
        <time>2022-08-14T09:29:21Z</time>
      </trkpt>
      <trkpt lat="43.97875" lon="1.87161">
        <ele>212.2</ele>
        <time>2022-08-14T09:29:22Z</time>
      </trkpt>
      <trkpt lat="43.97876" lon="1.87166">
        <ele>212.2</ele>
        <time>2022-08-14T09:29:23Z</time>
      </trkpt>
      <trkpt lat="43.97878" lon="1.8719">
        <ele>212</ele>
        <time>2022-08-14T09:29:27Z</time>
      </trkpt>
      <trkpt lat="43.97881" lon="1.87204">
        <ele>212.4</ele>
        <time>2022-08-14T09:29:30Z</time>
      </trkpt>
      <trkpt lat="43.9788" lon="1.8722">
        <ele>212.4</ele>
        <time>2022-08-14T09:29:33Z</time>
      </trkpt>
      <trkpt lat="43.97881" lon="1.87224">
        <ele>212.4</ele>
        <time>2022-08-14T09:29:34Z</time>
      </trkpt>
      <trkpt lat="43.97881" lon="1.87228">
        <ele>212.6</ele>
        <time>2022-08-14T09:29:35Z</time>
      </trkpt>
      <trkpt lat="43.97882" lon="1.87233">
        <ele>212.6</ele>
        <time>2022-08-14T09:29:36Z</time>
      </trkpt>
      <trkpt lat="43.97883" lon="1.87238">
        <ele>212.6</ele>
        <time>2022-08-14T09:29:37Z</time>
      </trkpt>
      <trkpt lat="43.97884" lon="1.87247">
        <ele>212.8</ele>
        <time>2022-08-14T09:29:39Z</time>
      </trkpt>
      <trkpt lat="43.97885" lon="1.87251">
        <ele>213</ele>
        <time>2022-08-14T09:29:40Z</time>
      </trkpt>
      <trkpt lat="43.97885" lon="1.87256">
        <ele>213</ele>
        <time>2022-08-14T09:29:41Z</time>
      </trkpt>
      <trkpt lat="43.97886" lon="1.87271">
        <ele>213.6</ele>
        <time>2022-08-14T09:29:44Z</time>
      </trkpt>
      <trkpt lat="43.97887" lon="1.87286">
        <ele>214</ele>
        <time>2022-08-14T09:29:47Z</time>
      </trkpt>
      <trkpt lat="43.97892" lon="1.87317">
        <ele>214.2</ele>
        <time>2022-08-14T09:29:53Z</time>
      </trkpt>
      <trkpt lat="43.97893" lon="1.87322">
        <ele>214.4</ele>
        <time>2022-08-14T09:29:54Z</time>
      </trkpt>
      <trkpt lat="43.97894" lon="1.87327">
        <ele>214.4</ele>
        <time>2022-08-14T09:29:55Z</time>
      </trkpt>
      <trkpt lat="43.97895" lon="1.87332">
        <ele>214.4</ele>
        <time>2022-08-14T09:29:56Z</time>
      </trkpt>
      <trkpt lat="43.97897" lon="1.87336">
        <ele>214.4</ele>
        <time>2022-08-14T09:29:57Z</time>
      </trkpt>
      <trkpt lat="43.97898" lon="1.87341">
        <ele>214.6</ele>
        <time>2022-08-14T09:29:58Z</time>
      </trkpt>
      <trkpt lat="43.97899" lon="1.87345">
        <ele>214.6</ele>
        <time>2022-08-14T09:29:59Z</time>
      </trkpt>
      <trkpt lat="43.97899" lon="1.87349">
        <ele>214.6</ele>
        <time>2022-08-14T09:30:00Z</time>
      </trkpt>
      <trkpt lat="43.979" lon="1.87352">
        <ele>214.8</ele>
        <time>2022-08-14T09:30:01Z</time>
      </trkpt>
      <trkpt lat="43.97901" lon="1.87356">
        <ele>214.8</ele>
        <time>2022-08-14T09:30:02Z</time>
      </trkpt>
      <trkpt lat="43.97901" lon="1.8736">
        <ele>215</ele>
        <time>2022-08-14T09:30:03Z</time>
      </trkpt>
      <trkpt lat="43.97903" lon="1.87369">
        <ele>215.2</ele>
        <time>2022-08-14T09:30:06Z</time>
      </trkpt>
      <trkpt lat="43.97905" lon="1.87378">
        <ele>215.4</ele>
        <time>2022-08-14T09:30:07Z</time>
      </trkpt>
      <trkpt lat="43.97907" lon="1.87387">
        <ele>215.6</ele>
        <time>2022-08-14T09:30:09Z</time>
      </trkpt>
      <trkpt lat="43.97908" lon="1.87391">
        <ele>215.6</ele>
        <time>2022-08-14T09:30:10Z</time>
      </trkpt>
      <trkpt lat="43.97909" lon="1.87395">
        <ele>215.8</ele>
        <time>2022-08-14T09:30:11Z</time>
      </trkpt>
      <trkpt lat="43.97913" lon="1.87415">
        <ele>216.2</ele>
        <time>2022-08-14T09:30:15Z</time>
      </trkpt>
      <trkpt lat="43.97914" lon="1.87425">
        <ele>216.4</ele>
        <time>2022-08-14T09:30:17Z</time>
      </trkpt>
      <trkpt lat="43.97915" lon="1.87429">
        <ele>216.4</ele>
        <time>2022-08-14T09:30:18Z</time>
      </trkpt>
      <trkpt lat="43.97916" lon="1.87434">
        <ele>216.6</ele>
        <time>2022-08-14T09:30:19Z</time>
      </trkpt>
      <trkpt lat="43.97918" lon="1.8745">
        <ele>216.8</ele>
        <time>2022-08-14T09:30:23Z</time>
      </trkpt>
      <trkpt lat="43.97919" lon="1.87454">
        <ele>217</ele>
        <time>2022-08-14T09:30:24Z</time>
      </trkpt>
      <trkpt lat="43.97919" lon="1.87459">
        <ele>217.2</ele>
        <time>2022-08-14T09:30:25Z</time>
      </trkpt>
      <trkpt lat="43.97919" lon="1.87467">
        <ele>217.6</ele>
        <time>2022-08-14T09:30:27Z</time>
      </trkpt>
      <trkpt lat="43.9792" lon="1.87476">
        <ele>217.8</ele>
        <time>2022-08-14T09:30:29Z</time>
      </trkpt>
      <trkpt lat="43.97921" lon="1.87483">
        <ele>217.8</ele>
        <time>2022-08-14T09:30:31Z</time>
      </trkpt>
      <trkpt lat="43.97921" lon="1.87487">
        <ele>218</ele>
        <time>2022-08-14T09:30:32Z</time>
      </trkpt>
      <trkpt lat="43.97922" lon="1.87492">
        <ele>218.2</ele>
        <time>2022-08-14T09:30:33Z</time>
      </trkpt>
      <trkpt lat="43.97923" lon="1.87497">
        <ele>218.2</ele>
        <time>2022-08-14T09:30:34Z</time>
      </trkpt>
      <trkpt lat="43.97924" lon="1.87501">
        <ele>218.2</ele>
        <time>2022-08-14T09:30:35Z</time>
      </trkpt>
      <trkpt lat="43.97924" lon="1.87505">
        <ele>218.2</ele>
        <time>2022-08-14T09:30:36Z</time>
      </trkpt>
      <trkpt lat="43.97925" lon="1.87509">
        <ele>218.4</ele>
        <time>2022-08-14T09:30:37Z</time>
      </trkpt>
      <trkpt lat="43.97926" lon="1.87514">
        <ele>218.4</ele>
        <time>2022-08-14T09:30:38Z</time>
      </trkpt>
      <trkpt lat="43.97927" lon="1.87519">
        <ele>218.4</ele>
        <time>2022-08-14T09:30:39Z</time>
      </trkpt>
      <trkpt lat="43.97928" lon="1.87523">
        <ele>218.6</ele>
        <time>2022-08-14T09:30:40Z</time>
      </trkpt>
      <trkpt lat="43.97929" lon="1.87528">
        <ele>218.8</ele>
        <time>2022-08-14T09:30:41Z</time>
      </trkpt>
      <trkpt lat="43.97929" lon="1.87528">
        <ele>218.8</ele>
        <time>2022-08-14T09:30:42Z</time>
      </trkpt>
      <trkpt lat="43.97931" lon="1.87536">
        <ele>218.8</ele>
        <time>2022-08-14T09:30:43Z</time>
      </trkpt>
      <trkpt lat="43.97932" lon="1.87544">
        <ele>219</ele>
        <time>2022-08-14T09:30:45Z</time>
      </trkpt>
      <trkpt lat="43.97932" lon="1.87548">
        <ele>219.2</ele>
        <time>2022-08-14T09:30:46Z</time>
      </trkpt>
      <trkpt lat="43.97933" lon="1.87552">
        <ele>219.2</ele>
        <time>2022-08-14T09:30:47Z</time>
      </trkpt>
      <trkpt lat="43.97934" lon="1.87555">
        <ele>219.2</ele>
        <time>2022-08-14T09:30:48Z</time>
      </trkpt>
      <trkpt lat="43.97935" lon="1.87559">
        <ele>219.2</ele>
        <time>2022-08-14T09:30:49Z</time>
      </trkpt>
      <trkpt lat="43.97939" lon="1.87579">
        <ele>219.8</ele>
        <time>2022-08-14T09:30:54Z</time>
      </trkpt>
      <trkpt lat="43.97941" lon="1.87587">
        <ele>220</ele>
        <time>2022-08-14T09:30:56Z</time>
      </trkpt>
      <trkpt lat="43.97942" lon="1.8759">
        <ele>220.2</ele>
        <time>2022-08-14T09:30:57Z</time>
      </trkpt>
      <trkpt lat="43.97942" lon="1.87594">
        <ele>220.2</ele>
        <time>2022-08-14T09:30:58Z</time>
      </trkpt>
      <trkpt lat="43.97943" lon="1.87596">
        <ele>220.2</ele>
        <time>2022-08-14T09:30:59Z</time>
      </trkpt>
      <trkpt lat="43.97943" lon="1.87599">
        <ele>220.4</ele>
        <time>2022-08-14T09:31:00Z</time>
      </trkpt>
      <trkpt lat="43.97943" lon="1.87601">
        <ele>220.6</ele>
        <time>2022-08-14T09:31:01Z</time>
      </trkpt>
      <trkpt lat="43.97947" lon="1.87625">
        <ele>221</ele>
        <time>2022-08-14T09:31:07Z</time>
      </trkpt>
      <trkpt lat="43.97947" lon="1.87629">
        <ele>221.2</ele>
        <time>2022-08-14T09:31:08Z</time>
      </trkpt>
      <trkpt lat="43.97948" lon="1.87632">
        <ele>221.2</ele>
        <time>2022-08-14T09:31:09Z</time>
      </trkpt>
      <trkpt lat="43.97948" lon="1.87635">
        <ele>221.2</ele>
        <time>2022-08-14T09:31:10Z</time>
      </trkpt>
      <trkpt lat="43.97949" lon="1.87639">
        <ele>221.4</ele>
        <time>2022-08-14T09:31:11Z</time>
      </trkpt>
      <trkpt lat="43.97949" lon="1.87642">
        <ele>221.4</ele>
        <time>2022-08-14T09:31:12Z</time>
      </trkpt>
      <trkpt lat="43.9795" lon="1.87645">
        <ele>221.6</ele>
        <time>2022-08-14T09:31:13Z</time>
      </trkpt>
      <trkpt lat="43.9795" lon="1.87648">
        <ele>221.8</ele>
        <time>2022-08-14T09:31:14Z</time>
      </trkpt>
      <trkpt lat="43.97951" lon="1.87652">
        <ele>222</ele>
        <time>2022-08-14T09:31:15Z</time>
      </trkpt>
      <trkpt lat="43.97951" lon="1.87656">
        <ele>222</ele>
        <time>2022-08-14T09:31:16Z</time>
      </trkpt>
      <trkpt lat="43.97952" lon="1.87659">
        <ele>222</ele>
        <time>2022-08-14T09:31:17Z</time>
      </trkpt>
      <trkpt lat="43.97952" lon="1.87663">
        <ele>222.2</ele>
        <time>2022-08-14T09:31:18Z</time>
      </trkpt>
      <trkpt lat="43.97953" lon="1.87666">
        <ele>222.2</ele>
        <time>2022-08-14T09:31:19Z</time>
      </trkpt>
      <trkpt lat="43.97953" lon="1.8767">
        <ele>222.4</ele>
        <time>2022-08-14T09:31:20Z</time>
      </trkpt>
      <trkpt lat="43.97953" lon="1.87673">
        <ele>222.4</ele>
        <time>2022-08-14T09:31:21Z</time>
      </trkpt>
      <trkpt lat="43.97954" lon="1.87677">
        <ele>222.6</ele>
        <time>2022-08-14T09:31:22Z</time>
      </trkpt>
      <trkpt lat="43.97954" lon="1.87681">
        <ele>222.8</ele>
        <time>2022-08-14T09:31:23Z</time>
      </trkpt>
      <trkpt lat="43.97955" lon="1.87684">
        <ele>222.8</ele>
        <time>2022-08-14T09:31:24Z</time>
      </trkpt>
      <trkpt lat="43.97955" lon="1.87687">
        <ele>222.8</ele>
        <time>2022-08-14T09:31:25Z</time>
      </trkpt>
      <trkpt lat="43.97955" lon="1.8769">
        <ele>222.8</ele>
        <time>2022-08-14T09:31:26Z</time>
      </trkpt>
      <trkpt lat="43.97956" lon="1.87693">
        <ele>222.8</ele>
        <time>2022-08-14T09:31:27Z</time>
      </trkpt>
      <trkpt lat="43.97956" lon="1.87695">
        <ele>222.8</ele>
        <time>2022-08-14T09:31:28Z</time>
      </trkpt>
      <trkpt lat="43.97956" lon="1.87698">
        <ele>223</ele>
        <time>2022-08-14T09:31:29Z</time>
      </trkpt>
      <trkpt lat="43.97957" lon="1.87701">
        <ele>223</ele>
        <time>2022-08-14T09:31:30Z</time>
      </trkpt>
      <trkpt lat="43.97957" lon="1.87703">
        <ele>223</ele>
        <time>2022-08-14T09:31:31Z</time>
      </trkpt>
      <trkpt lat="43.97957" lon="1.87705">
        <ele>223.2</ele>
        <time>2022-08-14T09:31:32Z</time>
      </trkpt>
      <trkpt lat="43.97957" lon="1.87708">
        <ele>223.2</ele>
        <time>2022-08-14T09:31:33Z</time>
      </trkpt>
      <trkpt lat="43.97958" lon="1.8771">
        <ele>223.4</ele>
        <time>2022-08-14T09:31:34Z</time>
      </trkpt>
      <trkpt lat="43.97958" lon="1.87712">
        <ele>223.4</ele>
        <time>2022-08-14T09:31:35Z</time>
      </trkpt>
      <trkpt lat="43.97958" lon="1.87714">
        <ele>223.4</ele>
        <time>2022-08-14T09:31:36Z</time>
      </trkpt>
      <trkpt lat="43.97958" lon="1.87716">
        <ele>223.4</ele>
        <time>2022-08-14T09:31:37Z</time>
      </trkpt>
      <trkpt lat="43.97958" lon="1.87718">
        <ele>223.6</ele>
        <time>2022-08-14T09:31:38Z</time>
      </trkpt>
      <trkpt lat="43.97957" lon="1.87728">
        <ele>223.8</ele>
        <time>2022-08-14T09:31:42Z</time>
      </trkpt>
      <trkpt lat="43.97956" lon="1.87747">
        <ele>224</ele>
        <time>2022-08-14T09:31:48Z</time>
      </trkpt>
      <trkpt lat="43.97956" lon="1.87758">
        <ele>224</ele>
        <time>2022-08-14T09:31:51Z</time>
      </trkpt>
      <trkpt lat="43.97956" lon="1.87764">
        <ele>224</ele>
        <time>2022-08-14T09:31:53Z</time>
      </trkpt>
      <trkpt lat="43.97956" lon="1.87768">
        <ele>224</ele>
        <time>2022-08-14T09:31:54Z</time>
      </trkpt>
      <trkpt lat="43.97956" lon="1.87771">
        <ele>224</ele>
        <time>2022-08-14T09:31:55Z</time>
      </trkpt>
      <trkpt lat="43.97956" lon="1.87774">
        <ele>224</ele>
        <time>2022-08-14T09:31:56Z</time>
      </trkpt>
      <trkpt lat="43.97957" lon="1.87781">
        <ele>224</ele>
        <time>2022-08-14T09:31:58Z</time>
      </trkpt>
      <trkpt lat="43.97957" lon="1.87784">
        <ele>224</ele>
        <time>2022-08-14T09:31:59Z</time>
      </trkpt>
      <trkpt lat="43.97957" lon="1.87787">
        <ele>224.2</ele>
        <time>2022-08-14T09:32:00Z</time>
      </trkpt>
      <trkpt lat="43.97957" lon="1.87789">
        <ele>224.2</ele>
        <time>2022-08-14T09:32:01Z</time>
      </trkpt>
      <trkpt lat="43.97957" lon="1.87792">
        <ele>224.4</ele>
        <time>2022-08-14T09:32:02Z</time>
      </trkpt>
      <trkpt lat="43.97957" lon="1.87795">
        <ele>224.6</ele>
        <time>2022-08-14T09:32:03Z</time>
      </trkpt>
      <trkpt lat="43.97957" lon="1.87797">
        <ele>224.8</ele>
        <time>2022-08-14T09:32:04Z</time>
      </trkpt>
      <trkpt lat="43.97958" lon="1.878">
        <ele>224.8</ele>
        <time>2022-08-14T09:32:05Z</time>
      </trkpt>
      <trkpt lat="43.97958" lon="1.87802">
        <ele>225</ele>
        <time>2022-08-14T09:32:06Z</time>
      </trkpt>
      <trkpt lat="43.97958" lon="1.87805">
        <ele>225</ele>
        <time>2022-08-14T09:32:07Z</time>
      </trkpt>
      <trkpt lat="43.97957" lon="1.87807">
        <ele>225.2</ele>
        <time>2022-08-14T09:32:08Z</time>
      </trkpt>
      <trkpt lat="43.97957" lon="1.87809">
        <ele>225.2</ele>
        <time>2022-08-14T09:32:09Z</time>
      </trkpt>
      <trkpt lat="43.97958" lon="1.87811">
        <ele>225.4</ele>
        <time>2022-08-14T09:32:10Z</time>
      </trkpt>
      <trkpt lat="43.97958" lon="1.87813">
        <ele>225.4</ele>
        <time>2022-08-14T09:32:11Z</time>
      </trkpt>
      <trkpt lat="43.97958" lon="1.87815">
        <ele>225.4</ele>
        <time>2022-08-14T09:32:12Z</time>
      </trkpt>
      <trkpt lat="43.97958" lon="1.87817">
        <ele>225.6</ele>
        <time>2022-08-14T09:32:13Z</time>
      </trkpt>
      <trkpt lat="43.97958" lon="1.8782">
        <ele>225.6</ele>
        <time>2022-08-14T09:32:14Z</time>
      </trkpt>
      <trkpt lat="43.97958" lon="1.87826">
        <ele>225.8</ele>
        <time>2022-08-14T09:32:17Z</time>
      </trkpt>
      <trkpt lat="43.97958" lon="1.87828">
        <ele>225.8</ele>
        <time>2022-08-14T09:32:18Z</time>
      </trkpt>
      <trkpt lat="43.97958" lon="1.87831">
        <ele>226</ele>
        <time>2022-08-14T09:32:19Z</time>
      </trkpt>
      <trkpt lat="43.97958" lon="1.87833">
        <ele>226</ele>
        <time>2022-08-14T09:32:20Z</time>
      </trkpt>
      <trkpt lat="43.97958" lon="1.87835">
        <ele>226.2</ele>
        <time>2022-08-14T09:32:21Z</time>
      </trkpt>
      <trkpt lat="43.97958" lon="1.87837">
        <ele>226.4</ele>
        <time>2022-08-14T09:32:22Z</time>
      </trkpt>
      <trkpt lat="43.97958" lon="1.87841">
        <ele>226.8</ele>
        <time>2022-08-14T09:32:24Z</time>
      </trkpt>
      <trkpt lat="43.97959" lon="1.87843">
        <ele>226.8</ele>
        <time>2022-08-14T09:32:25Z</time>
      </trkpt>
      <trkpt lat="43.97959" lon="1.87847">
        <ele>227</ele>
        <time>2022-08-14T09:32:27Z</time>
      </trkpt>
      <trkpt lat="43.97959" lon="1.87849">
        <ele>227.4</ele>
        <time>2022-08-14T09:32:28Z</time>
      </trkpt>
      <trkpt lat="43.97959" lon="1.87851">
        <ele>227.4</ele>
        <time>2022-08-14T09:32:29Z</time>
      </trkpt>
      <trkpt lat="43.97959" lon="1.87852">
        <ele>227.4</ele>
        <time>2022-08-14T09:32:30Z</time>
      </trkpt>
      <trkpt lat="43.97959" lon="1.87854">
        <ele>227.6</ele>
        <time>2022-08-14T09:32:31Z</time>
      </trkpt>
      <trkpt lat="43.97959" lon="1.87855">
        <ele>227.8</ele>
        <time>2022-08-14T09:32:32Z</time>
      </trkpt>
      <trkpt lat="43.9796" lon="1.87857">
        <ele>228</ele>
        <time>2022-08-14T09:32:33Z</time>
      </trkpt>
      <trkpt lat="43.9796" lon="1.87859">
        <ele>228</ele>
        <time>2022-08-14T09:32:34Z</time>
      </trkpt>
      <trkpt lat="43.9796" lon="1.87861">
        <ele>228.2</ele>
        <time>2022-08-14T09:32:35Z</time>
      </trkpt>
      <trkpt lat="43.9796" lon="1.87863">
        <ele>228.4</ele>
        <time>2022-08-14T09:32:36Z</time>
      </trkpt>
      <trkpt lat="43.9796" lon="1.87865">
        <ele>228.4</ele>
        <time>2022-08-14T09:32:37Z</time>
      </trkpt>
      <trkpt lat="43.9796" lon="1.87867">
        <ele>228.6</ele>
        <time>2022-08-14T09:32:38Z</time>
      </trkpt>
      <trkpt lat="43.9796" lon="1.8787">
        <ele>228.8</ele>
        <time>2022-08-14T09:32:39Z</time>
      </trkpt>
      <trkpt lat="43.9796" lon="1.87872">
        <ele>228.8</ele>
        <time>2022-08-14T09:32:40Z</time>
      </trkpt>
      <trkpt lat="43.9796" lon="1.87874">
        <ele>228.8</ele>
        <time>2022-08-14T09:32:41Z</time>
      </trkpt>
      <trkpt lat="43.9796" lon="1.87876">
        <ele>229</ele>
        <time>2022-08-14T09:32:42Z</time>
      </trkpt>
      <trkpt lat="43.97961" lon="1.87877">
        <ele>229</ele>
        <time>2022-08-14T09:32:43Z</time>
      </trkpt>
      <trkpt lat="43.97961" lon="1.87879">
        <ele>229.2</ele>
        <time>2022-08-14T09:32:44Z</time>
      </trkpt>
      <trkpt lat="43.97961" lon="1.87881">
        <ele>229.2</ele>
        <time>2022-08-14T09:32:45Z</time>
      </trkpt>
      <trkpt lat="43.97961" lon="1.87883">
        <ele>229.4</ele>
        <time>2022-08-14T09:32:46Z</time>
      </trkpt>
      <trkpt lat="43.97961" lon="1.87885">
        <ele>229.6</ele>
        <time>2022-08-14T09:32:47Z</time>
      </trkpt>
      <trkpt lat="43.97961" lon="1.87887">
        <ele>229.8</ele>
        <time>2022-08-14T09:32:48Z</time>
      </trkpt>
      <trkpt lat="43.97961" lon="1.87889">
        <ele>230</ele>
        <time>2022-08-14T09:32:49Z</time>
      </trkpt>
      <trkpt lat="43.97961" lon="1.87891">
        <ele>230</ele>
        <time>2022-08-14T09:32:50Z</time>
      </trkpt>
      <trkpt lat="43.97961" lon="1.87893">
        <ele>230.4</ele>
        <time>2022-08-14T09:32:51Z</time>
      </trkpt>
      <trkpt lat="43.97961" lon="1.87895">
        <ele>230.6</ele>
        <time>2022-08-14T09:32:52Z</time>
      </trkpt>
      <trkpt lat="43.97961" lon="1.87897">
        <ele>230.8</ele>
        <time>2022-08-14T09:32:53Z</time>
      </trkpt>
      <trkpt lat="43.97961" lon="1.87899">
        <ele>231</ele>
        <time>2022-08-14T09:32:54Z</time>
      </trkpt>
      <trkpt lat="43.97962" lon="1.87902">
        <ele>231</ele>
        <time>2022-08-14T09:32:55Z</time>
      </trkpt>
      <trkpt lat="43.97962" lon="1.87904">
        <ele>231.2</ele>
        <time>2022-08-14T09:32:56Z</time>
      </trkpt>
      <trkpt lat="43.97962" lon="1.87906">
        <ele>231.2</ele>
        <time>2022-08-14T09:32:57Z</time>
      </trkpt>
      <trkpt lat="43.97962" lon="1.87908">
        <ele>231.4</ele>
        <time>2022-08-14T09:32:58Z</time>
      </trkpt>
      <trkpt lat="43.97962" lon="1.8791">
        <ele>231.4</ele>
        <time>2022-08-14T09:32:59Z</time>
      </trkpt>
      <trkpt lat="43.97962" lon="1.87913">
        <ele>231.6</ele>
        <time>2022-08-14T09:33:00Z</time>
      </trkpt>
      <trkpt lat="43.97962" lon="1.87915">
        <ele>231.8</ele>
        <time>2022-08-14T09:33:01Z</time>
      </trkpt>
      <trkpt lat="43.97962" lon="1.87918">
        <ele>231.8</ele>
        <time>2022-08-14T09:33:02Z</time>
      </trkpt>
      <trkpt lat="43.97962" lon="1.8792">
        <ele>232.2</ele>
        <time>2022-08-14T09:33:03Z</time>
      </trkpt>
      <trkpt lat="43.97962" lon="1.87922">
        <ele>232.2</ele>
        <time>2022-08-14T09:33:04Z</time>
      </trkpt>
      <trkpt lat="43.97962" lon="1.87925">
        <ele>232.6</ele>
        <time>2022-08-14T09:33:05Z</time>
      </trkpt>
      <trkpt lat="43.97962" lon="1.87927">
        <ele>232.6</ele>
        <time>2022-08-14T09:33:06Z</time>
      </trkpt>
      <trkpt lat="43.97962" lon="1.87929">
        <ele>233</ele>
        <time>2022-08-14T09:33:07Z</time>
      </trkpt>
      <trkpt lat="43.97962" lon="1.87931">
        <ele>233.2</ele>
        <time>2022-08-14T09:33:08Z</time>
      </trkpt>
      <trkpt lat="43.97962" lon="1.87933">
        <ele>233.2</ele>
        <time>2022-08-14T09:33:09Z</time>
      </trkpt>
      <trkpt lat="43.97962" lon="1.87935">
        <ele>233.4</ele>
        <time>2022-08-14T09:33:10Z</time>
      </trkpt>
      <trkpt lat="43.97963" lon="1.87938">
        <ele>233.4</ele>
        <time>2022-08-14T09:33:11Z</time>
      </trkpt>
      <trkpt lat="43.97963" lon="1.8794">
        <ele>233.6</ele>
        <time>2022-08-14T09:33:12Z</time>
      </trkpt>
      <trkpt lat="43.97963" lon="1.87942">
        <ele>233.6</ele>
        <time>2022-08-14T09:33:13Z</time>
      </trkpt>
      <trkpt lat="43.97963" lon="1.87944">
        <ele>233.8</ele>
        <time>2022-08-14T09:33:14Z</time>
      </trkpt>
      <trkpt lat="43.97963" lon="1.87946">
        <ele>234</ele>
        <time>2022-08-14T09:33:15Z</time>
      </trkpt>
      <trkpt lat="43.97963" lon="1.87948">
        <ele>234.2</ele>
        <time>2022-08-14T09:33:16Z</time>
      </trkpt>
      <trkpt lat="43.97963" lon="1.8795">
        <ele>234.4</ele>
        <time>2022-08-14T09:33:17Z</time>
      </trkpt>
      <trkpt lat="43.97963" lon="1.87952">
        <ele>234.4</ele>
        <time>2022-08-14T09:33:18Z</time>
      </trkpt>
      <trkpt lat="43.97964" lon="1.87954">
        <ele>234.6</ele>
        <time>2022-08-14T09:33:19Z</time>
      </trkpt>
      <trkpt lat="43.97964" lon="1.87957">
        <ele>234.6</ele>
        <time>2022-08-14T09:33:20Z</time>
      </trkpt>
      <trkpt lat="43.97964" lon="1.87959">
        <ele>234.8</ele>
        <time>2022-08-14T09:33:21Z</time>
      </trkpt>
      <trkpt lat="43.97964" lon="1.87961">
        <ele>234.8</ele>
        <time>2022-08-14T09:33:22Z</time>
      </trkpt>
      <trkpt lat="43.97964" lon="1.87963">
        <ele>234.8</ele>
        <time>2022-08-14T09:33:23Z</time>
      </trkpt>
      <trkpt lat="43.97964" lon="1.87965">
        <ele>235</ele>
        <time>2022-08-14T09:33:24Z</time>
      </trkpt>
      <trkpt lat="43.97964" lon="1.87967">
        <ele>235.2</ele>
        <time>2022-08-14T09:33:25Z</time>
      </trkpt>
      <trkpt lat="43.97964" lon="1.87969">
        <ele>235.2</ele>
        <time>2022-08-14T09:33:26Z</time>
      </trkpt>
      <trkpt lat="43.97964" lon="1.87971">
        <ele>235.4</ele>
        <time>2022-08-14T09:33:27Z</time>
      </trkpt>
      <trkpt lat="43.97964" lon="1.87974">
        <ele>235.4</ele>
        <time>2022-08-14T09:33:28Z</time>
      </trkpt>
      <trkpt lat="43.97964" lon="1.87975">
        <ele>235.4</ele>
        <time>2022-08-14T09:33:29Z</time>
      </trkpt>
      <trkpt lat="43.97964" lon="1.87978">
        <ele>235.6</ele>
        <time>2022-08-14T09:33:30Z</time>
      </trkpt>
      <trkpt lat="43.97965" lon="1.87979">
        <ele>235.6</ele>
        <time>2022-08-14T09:33:31Z</time>
      </trkpt>
      <trkpt lat="43.97965" lon="1.87982">
        <ele>235.8</ele>
        <time>2022-08-14T09:33:32Z</time>
      </trkpt>
      <trkpt lat="43.97965" lon="1.87984">
        <ele>235.8</ele>
        <time>2022-08-14T09:33:33Z</time>
      </trkpt>
      <trkpt lat="43.97965" lon="1.87986">
        <ele>235.8</ele>
        <time>2022-08-14T09:33:34Z</time>
      </trkpt>
      <trkpt lat="43.97965" lon="1.87989">
        <ele>236</ele>
        <time>2022-08-14T09:33:35Z</time>
      </trkpt>
      <trkpt lat="43.97965" lon="1.87992">
        <ele>236</ele>
        <time>2022-08-14T09:33:36Z</time>
      </trkpt>
      <trkpt lat="43.97965" lon="1.87994">
        <ele>236.2</ele>
        <time>2022-08-14T09:33:37Z</time>
      </trkpt>
      <trkpt lat="43.97965" lon="1.87997">
        <ele>236.2</ele>
        <time>2022-08-14T09:33:38Z</time>
      </trkpt>
      <trkpt lat="43.97965" lon="1.87999">
        <ele>236.4</ele>
        <time>2022-08-14T09:33:39Z</time>
      </trkpt>
      <trkpt lat="43.97965" lon="1.88002">
        <ele>236.4</ele>
        <time>2022-08-14T09:33:40Z</time>
      </trkpt>
      <trkpt lat="43.97965" lon="1.88004">
        <ele>236.6</ele>
        <time>2022-08-14T09:33:41Z</time>
      </trkpt>
      <trkpt lat="43.97965" lon="1.88007">
        <ele>236.6</ele>
        <time>2022-08-14T09:33:42Z</time>
      </trkpt>
      <trkpt lat="43.97965" lon="1.88009">
        <ele>236.6</ele>
        <time>2022-08-14T09:33:43Z</time>
      </trkpt>
      <trkpt lat="43.97966" lon="1.88012">
        <ele>236.8</ele>
        <time>2022-08-14T09:33:44Z</time>
      </trkpt>
      <trkpt lat="43.97966" lon="1.88014">
        <ele>236.8</ele>
        <time>2022-08-14T09:33:45Z</time>
      </trkpt>
      <trkpt lat="43.97966" lon="1.88016">
        <ele>237</ele>
        <time>2022-08-14T09:33:46Z</time>
      </trkpt>
      <trkpt lat="43.97967" lon="1.88022">
        <ele>237</ele>
        <time>2022-08-14T09:33:48Z</time>
      </trkpt>
      <trkpt lat="43.97966" lon="1.88024">
        <ele>237.4</ele>
        <time>2022-08-14T09:33:49Z</time>
      </trkpt>
      <trkpt lat="43.97966" lon="1.88026">
        <ele>237.6</ele>
        <time>2022-08-14T09:33:50Z</time>
      </trkpt>
      <trkpt lat="43.97966" lon="1.88029">
        <ele>237.6</ele>
        <time>2022-08-14T09:33:51Z</time>
      </trkpt>
      <trkpt lat="43.97967" lon="1.88038">
        <ele>237.8</ele>
        <time>2022-08-14T09:33:55Z</time>
      </trkpt>
      <trkpt lat="43.97967" lon="1.88041">
        <ele>237.8</ele>
        <time>2022-08-14T09:33:56Z</time>
      </trkpt>
      <trkpt lat="43.97967" lon="1.88043">
        <ele>238.2</ele>
        <time>2022-08-14T09:33:57Z</time>
      </trkpt>
      <trkpt lat="43.97967" lon="1.88045">
        <ele>238</ele>
        <time>2022-08-14T09:33:58Z</time>
      </trkpt>
      <trkpt lat="43.97967" lon="1.88047">
        <ele>238</ele>
        <time>2022-08-14T09:33:59Z</time>
      </trkpt>
      <trkpt lat="43.97967" lon="1.88049">
        <ele>238.2</ele>
        <time>2022-08-14T09:34:00Z</time>
      </trkpt>
      <trkpt lat="43.97967" lon="1.88052">
        <ele>238.2</ele>
        <time>2022-08-14T09:34:01Z</time>
      </trkpt>
      <trkpt lat="43.97968" lon="1.88054">
        <ele>238.4</ele>
        <time>2022-08-14T09:34:02Z</time>
      </trkpt>
      <trkpt lat="43.97968" lon="1.88065">
        <ele>238.6</ele>
        <time>2022-08-14T09:34:06Z</time>
      </trkpt>
      <trkpt lat="43.97969" lon="1.8807">
        <ele>239</ele>
        <time>2022-08-14T09:34:08Z</time>
      </trkpt>
      <trkpt lat="43.97969" lon="1.88084">
        <ele>239.8</ele>
        <time>2022-08-14T09:34:13Z</time>
      </trkpt>
      <trkpt lat="43.97969" lon="1.88089">
        <ele>240</ele>
        <time>2022-08-14T09:34:15Z</time>
      </trkpt>
      <trkpt lat="43.97969" lon="1.88091">
        <ele>240</ele>
        <time>2022-08-14T09:34:16Z</time>
      </trkpt>
      <trkpt lat="43.97969" lon="1.88094">
        <ele>240.2</ele>
        <time>2022-08-14T09:34:17Z</time>
      </trkpt>
      <trkpt lat="43.97969" lon="1.88097">
        <ele>240.2</ele>
        <time>2022-08-14T09:34:18Z</time>
      </trkpt>
      <trkpt lat="43.97969" lon="1.88099">
        <ele>240.4</ele>
        <time>2022-08-14T09:34:19Z</time>
      </trkpt>
      <trkpt lat="43.97969" lon="1.88102">
        <ele>240.6</ele>
        <time>2022-08-14T09:34:20Z</time>
      </trkpt>
      <trkpt lat="43.97969" lon="1.88105">
        <ele>240.6</ele>
        <time>2022-08-14T09:34:21Z</time>
      </trkpt>
      <trkpt lat="43.97969" lon="1.88107">
        <ele>240.6</ele>
        <time>2022-08-14T09:34:22Z</time>
      </trkpt>
      <trkpt lat="43.97969" lon="1.8811">
        <ele>240.8</ele>
        <time>2022-08-14T09:34:23Z</time>
      </trkpt>
      <trkpt lat="43.9797" lon="1.88112">
        <ele>240.8</ele>
        <time>2022-08-14T09:34:24Z</time>
      </trkpt>
      <trkpt lat="43.9797" lon="1.88115">
        <ele>240.8</ele>
        <time>2022-08-14T09:34:25Z</time>
      </trkpt>
      <trkpt lat="43.9797" lon="1.88117">
        <ele>240.8</ele>
        <time>2022-08-14T09:34:26Z</time>
      </trkpt>
      <trkpt lat="43.9797" lon="1.8812">
        <ele>241</ele>
        <time>2022-08-14T09:34:27Z</time>
      </trkpt>
      <trkpt lat="43.9797" lon="1.88123">
        <ele>241</ele>
        <time>2022-08-14T09:34:28Z</time>
      </trkpt>
      <trkpt lat="43.9797" lon="1.88126">
        <ele>241</ele>
        <time>2022-08-14T09:34:29Z</time>
      </trkpt>
      <trkpt lat="43.9797" lon="1.88128">
        <ele>241.2</ele>
        <time>2022-08-14T09:34:30Z</time>
      </trkpt>
      <trkpt lat="43.9797" lon="1.88131">
        <ele>241.2</ele>
        <time>2022-08-14T09:34:31Z</time>
      </trkpt>
      <trkpt lat="43.9797" lon="1.88133">
        <ele>241.4</ele>
        <time>2022-08-14T09:34:32Z</time>
      </trkpt>
      <trkpt lat="43.97971" lon="1.88144">
        <ele>241.8</ele>
        <time>2022-08-14T09:34:36Z</time>
      </trkpt>
      <trkpt lat="43.97971" lon="1.88147">
        <ele>241.8</ele>
        <time>2022-08-14T09:34:37Z</time>
      </trkpt>
      <trkpt lat="43.97971" lon="1.88152">
        <ele>242.2</ele>
        <time>2022-08-14T09:34:39Z</time>
      </trkpt>
      <trkpt lat="43.97971" lon="1.88155">
        <ele>242.2</ele>
        <time>2022-08-14T09:34:40Z</time>
      </trkpt>
      <trkpt lat="43.97971" lon="1.88157">
        <ele>242.2</ele>
        <time>2022-08-14T09:34:41Z</time>
      </trkpt>
      <trkpt lat="43.97972" lon="1.8816">
        <ele>242.4</ele>
        <time>2022-08-14T09:34:42Z</time>
      </trkpt>
      <trkpt lat="43.97972" lon="1.88166">
        <ele>242.6</ele>
        <time>2022-08-14T09:34:44Z</time>
      </trkpt>
      <trkpt lat="43.97972" lon="1.88171">
        <ele>242.8</ele>
        <time>2022-08-14T09:34:46Z</time>
      </trkpt>
      <trkpt lat="43.97972" lon="1.88173">
        <ele>243</ele>
        <time>2022-08-14T09:34:47Z</time>
      </trkpt>
      <trkpt lat="43.97972" lon="1.88179">
        <ele>243.2</ele>
        <time>2022-08-14T09:34:49Z</time>
      </trkpt>
      <trkpt lat="43.97972" lon="1.88193">
        <ele>243.6</ele>
        <time>2022-08-14T09:34:54Z</time>
      </trkpt>
      <trkpt lat="43.97972" lon="1.88195">
        <ele>243.6</ele>
        <time>2022-08-14T09:34:55Z</time>
      </trkpt>
      <trkpt lat="43.97972" lon="1.88198">
        <ele>243.6</ele>
        <time>2022-08-14T09:34:56Z</time>
      </trkpt>
      <trkpt lat="43.97972" lon="1.88201">
        <ele>244</ele>
        <time>2022-08-14T09:34:57Z</time>
      </trkpt>
      <trkpt lat="43.97973" lon="1.88204">
        <ele>244</ele>
        <time>2022-08-14T09:34:58Z</time>
      </trkpt>
      <trkpt lat="43.97973" lon="1.88206">
        <ele>244.2</ele>
        <time>2022-08-14T09:34:59Z</time>
      </trkpt>
      <trkpt lat="43.97973" lon="1.88211">
        <ele>244.4</ele>
        <time>2022-08-14T09:35:01Z</time>
      </trkpt>
      <trkpt lat="43.97973" lon="1.88217">
        <ele>244.6</ele>
        <time>2022-08-14T09:35:03Z</time>
      </trkpt>
      <trkpt lat="43.97973" lon="1.8822">
        <ele>244.8</ele>
        <time>2022-08-14T09:35:04Z</time>
      </trkpt>
      <trkpt lat="43.97973" lon="1.88223">
        <ele>244.8</ele>
        <time>2022-08-14T09:35:05Z</time>
      </trkpt>
      <trkpt lat="43.97973" lon="1.88226">
        <ele>244.8</ele>
        <time>2022-08-14T09:35:06Z</time>
      </trkpt>
      <trkpt lat="43.97973" lon="1.88229">
        <ele>244.8</ele>
        <time>2022-08-14T09:35:07Z</time>
      </trkpt>
      <trkpt lat="43.97973" lon="1.88232">
        <ele>244.8</ele>
        <time>2022-08-14T09:35:08Z</time>
      </trkpt>
      <trkpt lat="43.97974" lon="1.88235">
        <ele>244.8</ele>
        <time>2022-08-14T09:35:09Z</time>
      </trkpt>
      <trkpt lat="43.97974" lon="1.88238">
        <ele>245</ele>
        <time>2022-08-14T09:35:10Z</time>
      </trkpt>
      <trkpt lat="43.97974" lon="1.88248">
        <ele>245</ele>
        <time>2022-08-14T09:35:13Z</time>
      </trkpt>
      <trkpt lat="43.97976" lon="1.88261">
        <ele>245.4</ele>
        <time>2022-08-14T09:35:17Z</time>
      </trkpt>
      <trkpt lat="43.97976" lon="1.88264">
        <ele>245.4</ele>
        <time>2022-08-14T09:35:18Z</time>
      </trkpt>
      <trkpt lat="43.97976" lon="1.88267">
        <ele>245.4</ele>
        <time>2022-08-14T09:35:19Z</time>
      </trkpt>
      <trkpt lat="43.97975" lon="1.8827">
        <ele>245.4</ele>
        <time>2022-08-14T09:35:20Z</time>
      </trkpt>
      <trkpt lat="43.97972" lon="1.88279">
        <ele>245.6</ele>
        <time>2022-08-14T09:35:23Z</time>
      </trkpt>
      <trkpt lat="43.97971" lon="1.88281">
        <ele>245.6</ele>
        <time>2022-08-14T09:35:24Z</time>
      </trkpt>
      <trkpt lat="43.97969" lon="1.88283">
        <ele>245.6</ele>
        <time>2022-08-14T09:35:25Z</time>
      </trkpt>
      <trkpt lat="43.97968" lon="1.88284">
        <ele>245.6</ele>
        <time>2022-08-14T09:35:26Z</time>
      </trkpt>
      <trkpt lat="43.97966" lon="1.88284">
        <ele>245.8</ele>
        <time>2022-08-14T09:35:27Z</time>
      </trkpt>
      <trkpt lat="43.97965" lon="1.88285">
        <ele>246</ele>
        <time>2022-08-14T09:35:28Z</time>
      </trkpt>
      <trkpt lat="43.97963" lon="1.88285">
        <ele>246.2</ele>
        <time>2022-08-14T09:35:29Z</time>
      </trkpt>
      <trkpt lat="43.97961" lon="1.88285">
        <ele>246.4</ele>
        <time>2022-08-14T09:35:30Z</time>
      </trkpt>
      <trkpt lat="43.97956" lon="1.88286">
        <ele>246.6</ele>
        <time>2022-08-14T09:35:33Z</time>
      </trkpt>
      <trkpt lat="43.97956" lon="1.88286">
        <ele>246.8</ele>
        <time>2022-08-14T09:35:34Z</time>
      </trkpt>
      <trkpt lat="43.97953" lon="1.88286">
        <ele>247</ele>
        <time>2022-08-14T09:36:23Z</time>
      </trkpt>
      <trkpt lat="43.9795" lon="1.88286">
        <ele>247</ele>
        <time>2022-08-14T09:36:24Z</time>
      </trkpt>
      <trkpt lat="43.97941" lon="1.88288">
        <ele>247</ele>
        <time>2022-08-14T09:36:28Z</time>
      </trkpt>
      <trkpt lat="43.97938" lon="1.88288">
        <ele>247</ele>
        <time>2022-08-14T09:36:29Z</time>
      </trkpt>
      <trkpt lat="43.97936" lon="1.88288">
        <ele>247</ele>
        <time>2022-08-14T09:36:30Z</time>
      </trkpt>
      <trkpt lat="43.97934" lon="1.88288">
        <ele>247</ele>
        <time>2022-08-14T09:36:31Z</time>
      </trkpt>
      <trkpt lat="43.97931" lon="1.88289">
        <ele>247</ele>
        <time>2022-08-14T09:36:33Z</time>
      </trkpt>
      <trkpt lat="43.97929" lon="1.88289">
        <ele>247</ele>
        <time>2022-08-14T09:36:34Z</time>
      </trkpt>
      <trkpt lat="43.97927" lon="1.88289">
        <ele>246.8</ele>
        <time>2022-08-14T09:36:35Z</time>
      </trkpt>
      <trkpt lat="43.97925" lon="1.8829">
        <ele>246.8</ele>
        <time>2022-08-14T09:36:36Z</time>
      </trkpt>
      <trkpt lat="43.97923" lon="1.88289">
        <ele>246.8</ele>
        <time>2022-08-14T09:36:37Z</time>
      </trkpt>
      <trkpt lat="43.97905" lon="1.88291">
        <ele>246.6</ele>
        <time>2022-08-14T09:36:43Z</time>
      </trkpt>
      <trkpt lat="43.97874" lon="1.8829">
        <ele>245.2</ele>
        <time>2022-08-14T09:36:49Z</time>
      </trkpt>
      <trkpt lat="43.97866" lon="1.8829">
        <ele>245</ele>
        <time>2022-08-14T09:36:50Z</time>
      </trkpt>
      <trkpt lat="43.9784" lon="1.88287">
        <ele>244.8</ele>
        <time>2022-08-14T09:36:53Z</time>
      </trkpt>
      <trkpt lat="43.97821" lon="1.88286">
        <ele>243.8</ele>
        <time>2022-08-14T09:36:55Z</time>
      </trkpt>
      <trkpt lat="43.97799" lon="1.88286">
        <ele>242.4</ele>
        <time>2022-08-14T09:36:57Z</time>
      </trkpt>
      <trkpt lat="43.97789" lon="1.88286">
        <ele>241.6</ele>
        <time>2022-08-14T09:36:58Z</time>
      </trkpt>
      <trkpt lat="43.97781" lon="1.88286">
        <ele>241.4</ele>
        <time>2022-08-14T09:36:59Z</time>
      </trkpt>
      <trkpt lat="43.97773" lon="1.88286">
        <ele>240.4</ele>
        <time>2022-08-14T09:37:00Z</time>
      </trkpt>
      <trkpt lat="43.97767" lon="1.88285">
        <ele>238.8</ele>
        <time>2022-08-14T09:37:01Z</time>
      </trkpt>
      <trkpt lat="43.9776" lon="1.88284">
        <ele>238.2</ele>
        <time>2022-08-14T09:37:02Z</time>
      </trkpt>
      <trkpt lat="43.97755" lon="1.88284">
        <ele>237.2</ele>
        <time>2022-08-14T09:37:03Z</time>
      </trkpt>
      <trkpt lat="43.9775" lon="1.88284">
        <ele>236.8</ele>
        <time>2022-08-14T09:37:04Z</time>
      </trkpt>
      <trkpt lat="43.97745" lon="1.88284">
        <ele>235.6</ele>
        <time>2022-08-14T09:37:05Z</time>
      </trkpt>
      <trkpt lat="43.97742" lon="1.88284">
        <ele>235</ele>
        <time>2022-08-14T09:37:06Z</time>
      </trkpt>
      <trkpt lat="43.97738" lon="1.88284">
        <ele>234.4</ele>
        <time>2022-08-14T09:37:07Z</time>
      </trkpt>
      <trkpt lat="43.97736" lon="1.88284">
        <ele>234.2</ele>
        <time>2022-08-14T09:37:08Z</time>
      </trkpt>
      <trkpt lat="43.97733" lon="1.88284">
        <ele>233.8</ele>
        <time>2022-08-14T09:37:09Z</time>
      </trkpt>
      <trkpt lat="43.97714" lon="1.88289">
        <ele>233.6</ele>
        <time>2022-08-14T09:37:14Z</time>
      </trkpt>
      <trkpt lat="43.97698" lon="1.88294">
        <ele>234.2</ele>
        <time>2022-08-14T09:37:18Z</time>
      </trkpt>
      <trkpt lat="43.97689" lon="1.88298">
        <ele>234.6</ele>
        <time>2022-08-14T09:37:20Z</time>
      </trkpt>
      <trkpt lat="43.97685" lon="1.883">
        <ele>234.6</ele>
        <time>2022-08-14T09:37:21Z</time>
      </trkpt>
      <trkpt lat="43.97682" lon="1.88303">
        <ele>234.6</ele>
        <time>2022-08-14T09:37:22Z</time>
      </trkpt>
      <trkpt lat="43.97664" lon="1.88319">
        <ele>235</ele>
        <time>2022-08-14T09:37:27Z</time>
      </trkpt>
      <trkpt lat="43.97661" lon="1.88323">
        <ele>235.2</ele>
        <time>2022-08-14T09:37:28Z</time>
      </trkpt>
      <trkpt lat="43.97658" lon="1.88327">
        <ele>235.2</ele>
        <time>2022-08-14T09:37:29Z</time>
      </trkpt>
      <trkpt lat="43.97656" lon="1.8833">
        <ele>235.2</ele>
        <time>2022-08-14T09:37:30Z</time>
      </trkpt>
      <trkpt lat="43.97653" lon="1.88334">
        <ele>235.2</ele>
        <time>2022-08-14T09:37:31Z</time>
      </trkpt>
      <trkpt lat="43.97651" lon="1.88336">
        <ele>235.4</ele>
        <time>2022-08-14T09:37:32Z</time>
      </trkpt>
      <trkpt lat="43.97649" lon="1.88337">
        <ele>235.6</ele>
        <time>2022-08-14T09:37:33Z</time>
      </trkpt>
      <trkpt lat="43.97646" lon="1.88339">
        <ele>235.8</ele>
        <time>2022-08-14T09:37:34Z</time>
      </trkpt>
      <trkpt lat="43.97627" lon="1.88346">
        <ele>236</ele>
        <time>2022-08-14T09:37:39Z</time>
      </trkpt>
      <trkpt lat="43.97603" lon="1.88357">
        <ele>235.4</ele>
        <time>2022-08-14T09:37:43Z</time>
      </trkpt>
      <trkpt lat="43.97569" lon="1.88369">
        <ele>234.4</ele>
        <time>2022-08-14T09:37:47Z</time>
      </trkpt>
      <trkpt lat="43.97538" lon="1.88374">
        <ele>232.6</ele>
        <time>2022-08-14T09:37:50Z</time>
      </trkpt>
      <trkpt lat="43.97528" lon="1.88374">
        <ele>232</ele>
        <time>2022-08-14T09:37:51Z</time>
      </trkpt>
      <trkpt lat="43.97507" lon="1.88374">
        <ele>230.8</ele>
        <time>2022-08-14T09:37:53Z</time>
      </trkpt>
      <trkpt lat="43.97486" lon="1.88374">
        <ele>229.4</ele>
        <time>2022-08-14T09:37:55Z</time>
      </trkpt>
      <trkpt lat="43.97476" lon="1.88374">
        <ele>228.4</ele>
        <time>2022-08-14T09:37:56Z</time>
      </trkpt>
      <trkpt lat="43.97466" lon="1.88374">
        <ele>227</ele>
        <time>2022-08-14T09:37:57Z</time>
      </trkpt>
      <trkpt lat="43.97456" lon="1.88373">
        <ele>226.4</ele>
        <time>2022-08-14T09:37:58Z</time>
      </trkpt>
      <trkpt lat="43.97446" lon="1.88373">
        <ele>226</ele>
        <time>2022-08-14T09:37:59Z</time>
      </trkpt>
      <trkpt lat="43.97437" lon="1.88373">
        <ele>225.4</ele>
        <time>2022-08-14T09:38:00Z</time>
      </trkpt>
      <trkpt lat="43.97428" lon="1.88373">
        <ele>225.4</ele>
        <time>2022-08-14T09:38:01Z</time>
      </trkpt>
      <trkpt lat="43.97419" lon="1.88371">
        <ele>224</ele>
        <time>2022-08-14T09:38:02Z</time>
      </trkpt>
      <trkpt lat="43.97411" lon="1.88369">
        <ele>223.4</ele>
        <time>2022-08-14T09:38:03Z</time>
      </trkpt>
      <trkpt lat="43.97404" lon="1.88367">
        <ele>222.8</ele>
        <time>2022-08-14T09:38:04Z</time>
      </trkpt>
      <trkpt lat="43.97398" lon="1.88364">
        <ele>222.4</ele>
        <time>2022-08-14T09:38:05Z</time>
      </trkpt>
      <trkpt lat="43.97393" lon="1.88362">
        <ele>222.2</ele>
        <time>2022-08-14T09:38:06Z</time>
      </trkpt>
      <trkpt lat="43.9739" lon="1.88361">
        <ele>222</ele>
        <time>2022-08-14T09:38:07Z</time>
      </trkpt>
      <trkpt lat="43.97386" lon="1.88361">
        <ele>221.6</ele>
        <time>2022-08-14T09:38:08Z</time>
      </trkpt>
      <trkpt lat="43.97382" lon="1.88365">
        <ele>220.8</ele>
        <time>2022-08-14T09:38:10Z</time>
      </trkpt>
      <trkpt lat="43.97381" lon="1.88367">
        <ele>220.4</ele>
        <time>2022-08-14T09:38:11Z</time>
      </trkpt>
      <trkpt lat="43.9738" lon="1.88369">
        <ele>220.2</ele>
        <time>2022-08-14T09:38:12Z</time>
      </trkpt>
      <trkpt lat="43.9738" lon="1.88371">
        <ele>220</ele>
        <time>2022-08-14T09:38:13Z</time>
      </trkpt>
      <trkpt lat="43.97379" lon="1.88373">
        <ele>220</ele>
        <time>2022-08-14T09:38:14Z</time>
      </trkpt>
      <trkpt lat="43.97378" lon="1.88376">
        <ele>219.8</ele>
        <time>2022-08-14T09:38:15Z</time>
      </trkpt>
      <trkpt lat="43.97378" lon="1.88378">
        <ele>219.8</ele>
        <time>2022-08-14T09:38:16Z</time>
      </trkpt>
      <trkpt lat="43.97377" lon="1.88379">
        <ele>219.8</ele>
        <time>2022-08-14T09:38:17Z</time>
      </trkpt>
      <trkpt lat="43.97376" lon="1.8838">
        <ele>219.6</ele>
        <time>2022-08-14T09:38:18Z</time>
      </trkpt>
      <trkpt lat="43.97375" lon="1.88382">
        <ele>219.6</ele>
        <time>2022-08-14T09:38:19Z</time>
      </trkpt>
      <trkpt lat="43.97375" lon="1.88383">
        <ele>219.6</ele>
        <time>2022-08-14T09:38:20Z</time>
      </trkpt>
      <trkpt lat="43.97374" lon="1.88385">
        <ele>219.6</ele>
        <time>2022-08-14T09:38:21Z</time>
      </trkpt>
      <trkpt lat="43.97373" lon="1.88387">
        <ele>219.6</ele>
        <time>2022-08-14T09:38:22Z</time>
      </trkpt>
      <trkpt lat="43.97373" lon="1.88389">
        <ele>219.6</ele>
        <time>2022-08-14T09:38:23Z</time>
      </trkpt>
      <trkpt lat="43.97372" lon="1.88391">
        <ele>219.6</ele>
        <time>2022-08-14T09:38:24Z</time>
      </trkpt>
      <trkpt lat="43.97368" lon="1.884">
        <ele>219.4</ele>
        <time>2022-08-14T09:38:29Z</time>
      </trkpt>
      <trkpt lat="43.97367" lon="1.88402">
        <ele>219.2</ele>
        <time>2022-08-14T09:38:30Z</time>
      </trkpt>
      <trkpt lat="43.97366" lon="1.88405">
        <ele>219</ele>
        <time>2022-08-14T09:38:32Z</time>
      </trkpt>
      <trkpt lat="43.97365" lon="1.88406">
        <ele>219</ele>
        <time>2022-08-14T09:38:33Z</time>
      </trkpt>
      <trkpt lat="43.97365" lon="1.88408">
        <ele>219</ele>
        <time>2022-08-14T09:38:34Z</time>
      </trkpt>
      <trkpt lat="43.97359" lon="1.88414">
        <ele>219</ele>
        <time>2022-08-14T09:38:38Z</time>
      </trkpt>
      <trkpt lat="43.97351" lon="1.88426">
        <ele>219</ele>
        <time>2022-08-14T09:38:44Z</time>
      </trkpt>
      <trkpt lat="43.97349" lon="1.8843">
        <ele>219</ele>
        <time>2022-08-14T09:38:46Z</time>
      </trkpt>
      <trkpt lat="43.97348" lon="1.88432">
        <ele>219</ele>
        <time>2022-08-14T09:38:47Z</time>
      </trkpt>
      <trkpt lat="43.97346" lon="1.88435">
        <ele>219</ele>
        <time>2022-08-14T09:38:49Z</time>
      </trkpt>
      <trkpt lat="43.97344" lon="1.88436">
        <ele>219</ele>
        <time>2022-08-14T09:38:50Z</time>
      </trkpt>
      <trkpt lat="43.97343" lon="1.88438">
        <ele>219</ele>
        <time>2022-08-14T09:38:51Z</time>
      </trkpt>
      <trkpt lat="43.97341" lon="1.88441">
        <ele>219</ele>
        <time>2022-08-14T09:38:53Z</time>
      </trkpt>
      <trkpt lat="43.97326" lon="1.8846">
        <ele>219</ele>
        <time>2022-08-14T09:39:01Z</time>
      </trkpt>
      <trkpt lat="43.97313" lon="1.88477">
        <ele>219.2</ele>
        <time>2022-08-14T09:39:06Z</time>
      </trkpt>
      <trkpt lat="43.97294" lon="1.88501">
        <ele>219.2</ele>
        <time>2022-08-14T09:39:12Z</time>
      </trkpt>
      <trkpt lat="43.97277" lon="1.88524">
        <ele>219.8</ele>
        <time>2022-08-14T09:39:17Z</time>
      </trkpt>
      <trkpt lat="43.9727" lon="1.88535">
        <ele>220</ele>
        <time>2022-08-14T09:39:19Z</time>
      </trkpt>
      <trkpt lat="43.97267" lon="1.88538">
        <ele>220</ele>
        <time>2022-08-14T09:39:20Z</time>
      </trkpt>
      <trkpt lat="43.9726" lon="1.88547">
        <ele>220.2</ele>
        <time>2022-08-14T09:39:22Z</time>
      </trkpt>
      <trkpt lat="43.97247" lon="1.88564">
        <ele>220.2</ele>
        <time>2022-08-14T09:39:26Z</time>
      </trkpt>
      <trkpt lat="43.97244" lon="1.88568">
        <ele>220.2</ele>
        <time>2022-08-14T09:39:27Z</time>
      </trkpt>
      <trkpt lat="43.97241" lon="1.88572">
        <ele>220.2</ele>
        <time>2022-08-14T09:39:28Z</time>
      </trkpt>
      <trkpt lat="43.97238" lon="1.88576">
        <ele>220.4</ele>
        <time>2022-08-14T09:39:29Z</time>
      </trkpt>
      <trkpt lat="43.97235" lon="1.88579">
        <ele>220.4</ele>
        <time>2022-08-14T09:39:30Z</time>
      </trkpt>
      <trkpt lat="43.97232" lon="1.88583">
        <ele>220.4</ele>
        <time>2022-08-14T09:39:31Z</time>
      </trkpt>
      <trkpt lat="43.97229" lon="1.88586">
        <ele>220.4</ele>
        <time>2022-08-14T09:39:32Z</time>
      </trkpt>
      <trkpt lat="43.97224" lon="1.88594">
        <ele>220.6</ele>
        <time>2022-08-14T09:39:34Z</time>
      </trkpt>
      <trkpt lat="43.97221" lon="1.88597">
        <ele>220.6</ele>
        <time>2022-08-14T09:39:35Z</time>
      </trkpt>
      <trkpt lat="43.97219" lon="1.886">
        <ele>220.2</ele>
        <time>2022-08-14T09:39:36Z</time>
      </trkpt>
      <trkpt lat="43.97217" lon="1.88604">
        <ele>220.2</ele>
        <time>2022-08-14T09:39:37Z</time>
      </trkpt>
      <trkpt lat="43.97214" lon="1.88607">
        <ele>220.2</ele>
        <time>2022-08-14T09:39:38Z</time>
      </trkpt>
      <trkpt lat="43.97212" lon="1.8861">
        <ele>220.4</ele>
        <time>2022-08-14T09:39:39Z</time>
      </trkpt>
      <trkpt lat="43.97209" lon="1.88613">
        <ele>220.4</ele>
        <time>2022-08-14T09:39:40Z</time>
      </trkpt>
      <trkpt lat="43.972" lon="1.88627">
        <ele>220.6</ele>
        <time>2022-08-14T09:39:44Z</time>
      </trkpt>
      <trkpt lat="43.97197" lon="1.8863">
        <ele>220.6</ele>
        <time>2022-08-14T09:39:45Z</time>
      </trkpt>
      <trkpt lat="43.97196" lon="1.88633">
        <ele>220.6</ele>
        <time>2022-08-14T09:39:46Z</time>
      </trkpt>
      <trkpt lat="43.97194" lon="1.88635">
        <ele>220.8</ele>
        <time>2022-08-14T09:39:47Z</time>
      </trkpt>
      <trkpt lat="43.97193" lon="1.88637">
        <ele>220.8</ele>
        <time>2022-08-14T09:39:48Z</time>
      </trkpt>
      <trkpt lat="43.97189" lon="1.88643">
        <ele>221.2</ele>
        <time>2022-08-14T09:39:50Z</time>
      </trkpt>
      <trkpt lat="43.97181" lon="1.88656">
        <ele>221.4</ele>
        <time>2022-08-14T09:39:54Z</time>
      </trkpt>
      <trkpt lat="43.97179" lon="1.88659">
        <ele>221.4</ele>
        <time>2022-08-14T09:39:55Z</time>
      </trkpt>
      <trkpt lat="43.97177" lon="1.88662">
        <ele>221.6</ele>
        <time>2022-08-14T09:39:56Z</time>
      </trkpt>
      <trkpt lat="43.97175" lon="1.88664">
        <ele>221.6</ele>
        <time>2022-08-14T09:39:57Z</time>
      </trkpt>
      <trkpt lat="43.97172" lon="1.88664">
        <ele>221.6</ele>
        <time>2022-08-14T09:39:58Z</time>
      </trkpt>
      <trkpt lat="43.97171" lon="1.88662">
        <ele>221.8</ele>
        <time>2022-08-14T09:39:59Z</time>
      </trkpt>
      <trkpt lat="43.9717" lon="1.8866">
        <ele>221.8</ele>
        <time>2022-08-14T09:40:00Z</time>
      </trkpt>
      <trkpt lat="43.9717" lon="1.88657">
        <ele>221.8</ele>
        <time>2022-08-14T09:40:01Z</time>
      </trkpt>
      <trkpt lat="43.97173" lon="1.88629">
        <ele>222</ele>
        <time>2022-08-14T09:40:08Z</time>
      </trkpt>
      <trkpt lat="43.97173" lon="1.88617">
        <ele>222</ele>
        <time>2022-08-14T09:40:11Z</time>
      </trkpt>
      <trkpt lat="43.97174" lon="1.88596">
        <ele>222</ele>
        <time>2022-08-14T09:40:16Z</time>
      </trkpt>
      <trkpt lat="43.97174" lon="1.88591">
        <ele>222</ele>
        <time>2022-08-14T09:40:17Z</time>
      </trkpt>
      <trkpt lat="43.97174" lon="1.88587">
        <ele>222</ele>
        <time>2022-08-14T09:40:18Z</time>
      </trkpt>
      <trkpt lat="43.97175" lon="1.88559">
        <ele>222</ele>
        <time>2022-08-14T09:40:24Z</time>
      </trkpt>
      <trkpt lat="43.97175" lon="1.88545">
        <ele>222</ele>
        <time>2022-08-14T09:40:27Z</time>
      </trkpt>
      <trkpt lat="43.97175" lon="1.8854">
        <ele>222</ele>
        <time>2022-08-14T09:40:28Z</time>
      </trkpt>
      <trkpt lat="43.97175" lon="1.88535">
        <ele>222</ele>
        <time>2022-08-14T09:40:29Z</time>
      </trkpt>
      <trkpt lat="43.97173" lon="1.88513">
        <ele>222</ele>
        <time>2022-08-14T09:40:34Z</time>
      </trkpt>
      <trkpt lat="43.97172" lon="1.88494">
        <ele>222</ele>
        <time>2022-08-14T09:40:38Z</time>
      </trkpt>
      <trkpt lat="43.9717" lon="1.88484">
        <ele>222</ele>
        <time>2022-08-14T09:40:40Z</time>
      </trkpt>
      <trkpt lat="43.9717" lon="1.88479">
        <ele>222</ele>
        <time>2022-08-14T09:40:41Z</time>
      </trkpt>
      <trkpt lat="43.97169" lon="1.88475">
        <ele>222</ele>
        <time>2022-08-14T09:40:42Z</time>
      </trkpt>
      <trkpt lat="43.97166" lon="1.88461">
        <ele>222</ele>
        <time>2022-08-14T09:40:45Z</time>
      </trkpt>
      <trkpt lat="43.97165" lon="1.88457">
        <ele>222</ele>
        <time>2022-08-14T09:40:46Z</time>
      </trkpt>
      <trkpt lat="43.97164" lon="1.88452">
        <ele>222</ele>
        <time>2022-08-14T09:40:47Z</time>
      </trkpt>
      <trkpt lat="43.97163" lon="1.88448">
        <ele>222</ele>
        <time>2022-08-14T09:40:48Z</time>
      </trkpt>
      <trkpt lat="43.97163" lon="1.88444">
        <ele>222</ele>
        <time>2022-08-14T09:40:49Z</time>
      </trkpt>
      <trkpt lat="43.97162" lon="1.8844">
        <ele>222.2</ele>
        <time>2022-08-14T09:40:50Z</time>
      </trkpt>
      <trkpt lat="43.97161" lon="1.88436">
        <ele>222.2</ele>
        <time>2022-08-14T09:40:51Z</time>
      </trkpt>
      <trkpt lat="43.97161" lon="1.88433">
        <ele>222.2</ele>
        <time>2022-08-14T09:40:52Z</time>
      </trkpt>
      <trkpt lat="43.97159" lon="1.8843">
        <ele>222.4</ele>
        <time>2022-08-14T09:40:53Z</time>
      </trkpt>
      <trkpt lat="43.97158" lon="1.88428">
        <ele>222.4</ele>
        <time>2022-08-14T09:40:54Z</time>
      </trkpt>
      <trkpt lat="43.97157" lon="1.88425">
        <ele>222.4</ele>
        <time>2022-08-14T09:40:55Z</time>
      </trkpt>
      <trkpt lat="43.97156" lon="1.88423">
        <ele>222.6</ele>
        <time>2022-08-14T09:40:56Z</time>
      </trkpt>
      <trkpt lat="43.97151" lon="1.88407">
        <ele>222.8</ele>
        <time>2022-08-14T09:41:01Z</time>
      </trkpt>
      <trkpt lat="43.9715" lon="1.88404">
        <ele>222.8</ele>
        <time>2022-08-14T09:41:02Z</time>
      </trkpt>
      <trkpt lat="43.97149" lon="1.88402">
        <ele>222.8</ele>
        <time>2022-08-14T09:41:03Z</time>
      </trkpt>
      <trkpt lat="43.97142" lon="1.88383">
        <ele>222.8</ele>
        <time>2022-08-14T09:41:09Z</time>
      </trkpt>
      <trkpt lat="43.97141" lon="1.88379">
        <ele>222.8</ele>
        <time>2022-08-14T09:41:10Z</time>
      </trkpt>
      <trkpt lat="43.97137" lon="1.88366">
        <ele>223</ele>
        <time>2022-08-14T09:41:14Z</time>
      </trkpt>
      <trkpt lat="43.97135" lon="1.88359">
        <ele>223.2</ele>
        <time>2022-08-14T09:41:16Z</time>
      </trkpt>
      <trkpt lat="43.97132" lon="1.88348">
        <ele>223.4</ele>
        <time>2022-08-14T09:41:19Z</time>
      </trkpt>
      <trkpt lat="43.97131" lon="1.88345">
        <ele>223.4</ele>
        <time>2022-08-14T09:41:20Z</time>
      </trkpt>
      <trkpt lat="43.9713" lon="1.88342">
        <ele>223.6</ele>
        <time>2022-08-14T09:41:21Z</time>
      </trkpt>
      <trkpt lat="43.97125" lon="1.88324">
        <ele>224</ele>
        <time>2022-08-14T09:41:26Z</time>
      </trkpt>
      <trkpt lat="43.97124" lon="1.88321">
        <ele>224</ele>
        <time>2022-08-14T09:41:27Z</time>
      </trkpt>
      <trkpt lat="43.97122" lon="1.88315">
        <ele>224</ele>
        <time>2022-08-14T09:41:29Z</time>
      </trkpt>
      <trkpt lat="43.97121" lon="1.88311">
        <ele>224.2</ele>
        <time>2022-08-14T09:41:30Z</time>
      </trkpt>
      <trkpt lat="43.9712" lon="1.88308">
        <ele>224.2</ele>
        <time>2022-08-14T09:41:31Z</time>
      </trkpt>
      <trkpt lat="43.97116" lon="1.88291">
        <ele>224.6</ele>
        <time>2022-08-14T09:41:36Z</time>
      </trkpt>
      <trkpt lat="43.97115" lon="1.88288">
        <ele>224.6</ele>
        <time>2022-08-14T09:41:37Z</time>
      </trkpt>
      <trkpt lat="43.97113" lon="1.88281">
        <ele>224.8</ele>
        <time>2022-08-14T09:41:39Z</time>
      </trkpt>
      <trkpt lat="43.97112" lon="1.88278">
        <ele>225</ele>
        <time>2022-08-14T09:41:40Z</time>
      </trkpt>
      <trkpt lat="43.97111" lon="1.88275">
        <ele>225.2</ele>
        <time>2022-08-14T09:41:41Z</time>
      </trkpt>
      <trkpt lat="43.9711" lon="1.88272">
        <ele>225.4</ele>
        <time>2022-08-14T09:41:42Z</time>
      </trkpt>
      <trkpt lat="43.97106" lon="1.88254">
        <ele>226.2</ele>
        <time>2022-08-14T09:41:47Z</time>
      </trkpt>
      <trkpt lat="43.97105" lon="1.8825">
        <ele>226.2</ele>
        <time>2022-08-14T09:41:48Z</time>
      </trkpt>
      <trkpt lat="43.97104" lon="1.88244">
        <ele>226.4</ele>
        <time>2022-08-14T09:41:50Z</time>
      </trkpt>
      <trkpt lat="43.97103" lon="1.88241">
        <ele>226.6</ele>
        <time>2022-08-14T09:41:51Z</time>
      </trkpt>
      <trkpt lat="43.97102" lon="1.88238">
        <ele>226.8</ele>
        <time>2022-08-14T09:41:52Z</time>
      </trkpt>
      <trkpt lat="43.97102" lon="1.88234">
        <ele>226.8</ele>
        <time>2022-08-14T09:41:53Z</time>
      </trkpt>
      <trkpt lat="43.97101" lon="1.8823">
        <ele>226.8</ele>
        <time>2022-08-14T09:41:54Z</time>
      </trkpt>
      <trkpt lat="43.97101" lon="1.88227">
        <ele>227</ele>
        <time>2022-08-14T09:41:55Z</time>
      </trkpt>
      <trkpt lat="43.97101" lon="1.88223">
        <ele>227.2</ele>
        <time>2022-08-14T09:41:56Z</time>
      </trkpt>
      <trkpt lat="43.97101" lon="1.8822">
        <ele>227.6</ele>
        <time>2022-08-14T09:41:57Z</time>
      </trkpt>
      <trkpt lat="43.971" lon="1.88217">
        <ele>227.8</ele>
        <time>2022-08-14T09:41:58Z</time>
      </trkpt>
      <trkpt lat="43.971" lon="1.88214">
        <ele>228</ele>
        <time>2022-08-14T09:41:59Z</time>
      </trkpt>
      <trkpt lat="43.971" lon="1.8821">
        <ele>228</ele>
        <time>2022-08-14T09:42:00Z</time>
      </trkpt>
      <trkpt lat="43.971" lon="1.88207">
        <ele>228</ele>
        <time>2022-08-14T09:42:01Z</time>
      </trkpt>
      <trkpt lat="43.97099" lon="1.88204">
        <ele>228.2</ele>
        <time>2022-08-14T09:42:02Z</time>
      </trkpt>
      <trkpt lat="43.97099" lon="1.88201">
        <ele>228.4</ele>
        <time>2022-08-14T09:42:03Z</time>
      </trkpt>
      <trkpt lat="43.97099" lon="1.88198">
        <ele>228.6</ele>
        <time>2022-08-14T09:42:04Z</time>
      </trkpt>
      <trkpt lat="43.97099" lon="1.88196">
        <ele>228.8</ele>
        <time>2022-08-14T09:42:05Z</time>
      </trkpt>
      <trkpt lat="43.97099" lon="1.88192">
        <ele>229</ele>
        <time>2022-08-14T09:42:06Z</time>
      </trkpt>
      <trkpt lat="43.97099" lon="1.88189">
        <ele>229.2</ele>
        <time>2022-08-14T09:42:07Z</time>
      </trkpt>
      <trkpt lat="43.97099" lon="1.88185">
        <ele>229.4</ele>
        <time>2022-08-14T09:42:08Z</time>
      </trkpt>
      <trkpt lat="43.97099" lon="1.88182">
        <ele>229.4</ele>
        <time>2022-08-14T09:42:09Z</time>
      </trkpt>
      <trkpt lat="43.97099" lon="1.88179">
        <ele>229.4</ele>
        <time>2022-08-14T09:42:10Z</time>
      </trkpt>
      <trkpt lat="43.97098" lon="1.88175">
        <ele>229.6</ele>
        <time>2022-08-14T09:42:11Z</time>
      </trkpt>
      <trkpt lat="43.97098" lon="1.88172">
        <ele>229.6</ele>
        <time>2022-08-14T09:42:12Z</time>
      </trkpt>
      <trkpt lat="43.97098" lon="1.88168">
        <ele>229.8</ele>
        <time>2022-08-14T09:42:13Z</time>
      </trkpt>
      <trkpt lat="43.97098" lon="1.88165">
        <ele>229.8</ele>
        <time>2022-08-14T09:42:14Z</time>
      </trkpt>
      <trkpt lat="43.97097" lon="1.88162">
        <ele>229.8</ele>
        <time>2022-08-14T09:42:15Z</time>
      </trkpt>
      <trkpt lat="43.97098" lon="1.88158">
        <ele>230</ele>
        <time>2022-08-14T09:42:16Z</time>
      </trkpt>
      <trkpt lat="43.97097" lon="1.88155">
        <ele>230</ele>
        <time>2022-08-14T09:42:17Z</time>
      </trkpt>
      <trkpt lat="43.97097" lon="1.88151">
        <ele>230</ele>
        <time>2022-08-14T09:42:18Z</time>
      </trkpt>
      <trkpt lat="43.97097" lon="1.88148">
        <ele>230</ele>
        <time>2022-08-14T09:42:19Z</time>
      </trkpt>
      <trkpt lat="43.97097" lon="1.88145">
        <ele>230.2</ele>
        <time>2022-08-14T09:42:20Z</time>
      </trkpt>
      <trkpt lat="43.97097" lon="1.88142">
        <ele>230.2</ele>
        <time>2022-08-14T09:42:21Z</time>
      </trkpt>
      <trkpt lat="43.97097" lon="1.88138">
        <ele>230.2</ele>
        <time>2022-08-14T09:42:22Z</time>
      </trkpt>
      <trkpt lat="43.97096" lon="1.88135">
        <ele>230.2</ele>
        <time>2022-08-14T09:42:23Z</time>
      </trkpt>
      <trkpt lat="43.97095" lon="1.8813">
        <ele>230.2</ele>
        <time>2022-08-14T09:42:24Z</time>
      </trkpt>
      <trkpt lat="43.97094" lon="1.88126">
        <ele>230.4</ele>
        <time>2022-08-14T09:42:25Z</time>
      </trkpt>
      <trkpt lat="43.97094" lon="1.88122">
        <ele>230.4</ele>
        <time>2022-08-14T09:42:26Z</time>
      </trkpt>
      <trkpt lat="43.97094" lon="1.88118">
        <ele>230.6</ele>
        <time>2022-08-14T09:42:27Z</time>
      </trkpt>
      <trkpt lat="43.97094" lon="1.88114">
        <ele>230.6</ele>
        <time>2022-08-14T09:42:28Z</time>
      </trkpt>
      <trkpt lat="43.97094" lon="1.8811">
        <ele>230.8</ele>
        <time>2022-08-14T09:42:29Z</time>
      </trkpt>
      <trkpt lat="43.97092" lon="1.8809">
        <ele>231.2</ele>
        <time>2022-08-14T09:42:34Z</time>
      </trkpt>
      <trkpt lat="43.97091" lon="1.88086">
        <ele>231.2</ele>
        <time>2022-08-14T09:42:35Z</time>
      </trkpt>
      <trkpt lat="43.97091" lon="1.88082">
        <ele>231.4</ele>
        <time>2022-08-14T09:42:36Z</time>
      </trkpt>
      <trkpt lat="43.9709" lon="1.88078">
        <ele>231.6</ele>
        <time>2022-08-14T09:42:37Z</time>
      </trkpt>
      <trkpt lat="43.9709" lon="1.88073">
        <ele>231.8</ele>
        <time>2022-08-14T09:42:38Z</time>
      </trkpt>
      <trkpt lat="43.97088" lon="1.88061">
        <ele>232.4</ele>
        <time>2022-08-14T09:42:41Z</time>
      </trkpt>
      <trkpt lat="43.97087" lon="1.88057">
        <ele>232.6</ele>
        <time>2022-08-14T09:42:42Z</time>
      </trkpt>
      <trkpt lat="43.97087" lon="1.88053">
        <ele>232.8</ele>
        <time>2022-08-14T09:42:43Z</time>
      </trkpt>
      <trkpt lat="43.97086" lon="1.88049">
        <ele>232.8</ele>
        <time>2022-08-14T09:42:44Z</time>
      </trkpt>
      <trkpt lat="43.97086" lon="1.88045">
        <ele>233.2</ele>
        <time>2022-08-14T09:42:45Z</time>
      </trkpt>
      <trkpt lat="43.97085" lon="1.88041">
        <ele>233.2</ele>
        <time>2022-08-14T09:42:46Z</time>
      </trkpt>
      <trkpt lat="43.97085" lon="1.88037">
        <ele>233.4</ele>
        <time>2022-08-14T09:42:47Z</time>
      </trkpt>
      <trkpt lat="43.97084" lon="1.88033">
        <ele>233.6</ele>
        <time>2022-08-14T09:42:48Z</time>
      </trkpt>
      <trkpt lat="43.97083" lon="1.88029">
        <ele>233.8</ele>
        <time>2022-08-14T09:42:49Z</time>
      </trkpt>
      <trkpt lat="43.97083" lon="1.88025">
        <ele>234</ele>
        <time>2022-08-14T09:42:50Z</time>
      </trkpt>
      <trkpt lat="43.97083" lon="1.88022">
        <ele>234</ele>
        <time>2022-08-14T09:42:51Z</time>
      </trkpt>
      <trkpt lat="43.97082" lon="1.88018">
        <ele>234.2</ele>
        <time>2022-08-14T09:42:52Z</time>
      </trkpt>
      <trkpt lat="43.97082" lon="1.88014">
        <ele>234.2</ele>
        <time>2022-08-14T09:42:53Z</time>
      </trkpt>
      <trkpt lat="43.97081" lon="1.8801">
        <ele>234.2</ele>
        <time>2022-08-14T09:42:54Z</time>
      </trkpt>
      <trkpt lat="43.97081" lon="1.88007">
        <ele>234.6</ele>
        <time>2022-08-14T09:42:55Z</time>
      </trkpt>
      <trkpt lat="43.9708" lon="1.88003">
        <ele>234.8</ele>
        <time>2022-08-14T09:42:56Z</time>
      </trkpt>
      <trkpt lat="43.97079" lon="1.87999">
        <ele>235.2</ele>
        <time>2022-08-14T09:42:57Z</time>
      </trkpt>
      <trkpt lat="43.97079" lon="1.87995">
        <ele>235.2</ele>
        <time>2022-08-14T09:42:58Z</time>
      </trkpt>
      <trkpt lat="43.97078" lon="1.87991">
        <ele>235.6</ele>
        <time>2022-08-14T09:42:59Z</time>
      </trkpt>
      <trkpt lat="43.97077" lon="1.87986">
        <ele>235.8</ele>
        <time>2022-08-14T09:43:00Z</time>
      </trkpt>
      <trkpt lat="43.97077" lon="1.87981">
        <ele>236.2</ele>
        <time>2022-08-14T09:43:01Z</time>
      </trkpt>
      <trkpt lat="43.97076" lon="1.87975">
        <ele>236.2</ele>
        <time>2022-08-14T09:43:02Z</time>
      </trkpt>
      <trkpt lat="43.97075" lon="1.87969">
        <ele>236.8</ele>
        <time>2022-08-14T09:43:03Z</time>
      </trkpt>
      <trkpt lat="43.97073" lon="1.87962">
        <ele>237.2</ele>
        <time>2022-08-14T09:43:04Z</time>
      </trkpt>
      <trkpt lat="43.97072" lon="1.87956">
        <ele>237.2</ele>
        <time>2022-08-14T09:43:05Z</time>
      </trkpt>
      <trkpt lat="43.97071" lon="1.8795">
        <ele>237.8</ele>
        <time>2022-08-14T09:43:06Z</time>
      </trkpt>
      <trkpt lat="43.97069" lon="1.87943">
        <ele>238</ele>
        <time>2022-08-14T09:43:07Z</time>
      </trkpt>
      <trkpt lat="43.97067" lon="1.87937">
        <ele>238.4</ele>
        <time>2022-08-14T09:43:08Z</time>
      </trkpt>
      <trkpt lat="43.97065" lon="1.87932">
        <ele>238.4</ele>
        <time>2022-08-14T09:43:09Z</time>
      </trkpt>
      <trkpt lat="43.97063" lon="1.87928">
        <ele>238.8</ele>
        <time>2022-08-14T09:43:10Z</time>
      </trkpt>
      <trkpt lat="43.9706" lon="1.87923">
        <ele>239</ele>
        <time>2022-08-14T09:43:11Z</time>
      </trkpt>
      <trkpt lat="43.97057" lon="1.87919">
        <ele>239.2</ele>
        <time>2022-08-14T09:43:12Z</time>
      </trkpt>
      <trkpt lat="43.97054" lon="1.87915">
        <ele>240</ele>
        <time>2022-08-14T09:43:13Z</time>
      </trkpt>
      <trkpt lat="43.97052" lon="1.87911">
        <ele>240.2</ele>
        <time>2022-08-14T09:43:14Z</time>
      </trkpt>
      <trkpt lat="43.9705" lon="1.87909">
        <ele>240.8</ele>
        <time>2022-08-14T09:43:15Z</time>
      </trkpt>
      <trkpt lat="43.97048" lon="1.87908">
        <ele>240.8</ele>
        <time>2022-08-14T09:43:16Z</time>
      </trkpt>
      <trkpt lat="43.97046" lon="1.87907">
        <ele>241.2</ele>
        <time>2022-08-14T09:43:17Z</time>
      </trkpt>
      <trkpt lat="43.97045" lon="1.87907">
        <ele>241.6</ele>
        <time>2022-08-14T09:43:18Z</time>
      </trkpt>
      <trkpt lat="43.97043" lon="1.87907">
        <ele>242</ele>
        <time>2022-08-14T09:43:19Z</time>
      </trkpt>
      <trkpt lat="43.97042" lon="1.87906">
        <ele>242.4</ele>
        <time>2022-08-14T09:43:20Z</time>
      </trkpt>
      <trkpt lat="43.9704" lon="1.87905">
        <ele>242.4</ele>
        <time>2022-08-14T09:43:21Z</time>
      </trkpt>
      <trkpt lat="43.97038" lon="1.87903">
        <ele>242.6</ele>
        <time>2022-08-14T09:43:22Z</time>
      </trkpt>
      <trkpt lat="43.97037" lon="1.87902">
        <ele>242.8</ele>
        <time>2022-08-14T09:43:23Z</time>
      </trkpt>
      <trkpt lat="43.97035" lon="1.87901">
        <ele>243</ele>
        <time>2022-08-14T09:43:24Z</time>
      </trkpt>
      <trkpt lat="43.97033" lon="1.87899">
        <ele>243</ele>
        <time>2022-08-14T09:43:25Z</time>
      </trkpt>
      <trkpt lat="43.97031" lon="1.87898">
        <ele>243</ele>
        <time>2022-08-14T09:43:26Z</time>
      </trkpt>
      <trkpt lat="43.97029" lon="1.87897">
        <ele>243.2</ele>
        <time>2022-08-14T09:43:27Z</time>
      </trkpt>
      <trkpt lat="43.97027" lon="1.87896">
        <ele>243.2</ele>
        <time>2022-08-14T09:43:28Z</time>
      </trkpt>
      <trkpt lat="43.97027" lon="1.87896">
        <ele>243.2</ele>
        <time>2022-08-14T09:43:29Z</time>
      </trkpt>
      <trkpt lat="43.97027" lon="1.87896">
        <ele>243</ele>
        <time>2022-08-14T09:43:30Z</time>
      </trkpt>
      <trkpt lat="43.97027" lon="1.87895">
        <ele>242.6</ele>
        <time>2022-08-14T09:44:34Z</time>
      </trkpt>
      <trkpt lat="43.97023" lon="1.8789">
        <ele>242.6</ele>
        <time>2022-08-14T09:44:38Z</time>
      </trkpt>
      <trkpt lat="43.97013" lon="1.87877">
        <ele>242.2</ele>
        <time>2022-08-14T09:44:44Z</time>
      </trkpt>
      <trkpt lat="43.96994" lon="1.87856">
        <ele>241.8</ele>
        <time>2022-08-14T09:44:51Z</time>
      </trkpt>
      <trkpt lat="43.96991" lon="1.87853">
        <ele>241.8</ele>
        <time>2022-08-14T09:44:52Z</time>
      </trkpt>
      <trkpt lat="43.96975" lon="1.87834">
        <ele>241.4</ele>
        <time>2022-08-14T09:44:57Z</time>
      </trkpt>
      <trkpt lat="43.96972" lon="1.8783">
        <ele>241.2</ele>
        <time>2022-08-14T09:44:58Z</time>
      </trkpt>
      <trkpt lat="43.96961" lon="1.87814">
        <ele>241.2</ele>
        <time>2022-08-14T09:45:02Z</time>
      </trkpt>
      <trkpt lat="43.96958" lon="1.8781">
        <ele>241.2</ele>
        <time>2022-08-14T09:45:03Z</time>
      </trkpt>
      <trkpt lat="43.96955" lon="1.87806">
        <ele>241.2</ele>
        <time>2022-08-14T09:45:04Z</time>
      </trkpt>
      <trkpt lat="43.96952" lon="1.87802">
        <ele>241.2</ele>
        <time>2022-08-14T09:45:05Z</time>
      </trkpt>
      <trkpt lat="43.9695" lon="1.87798">
        <ele>241.2</ele>
        <time>2022-08-14T09:45:06Z</time>
      </trkpt>
      <trkpt lat="43.96948" lon="1.87794">
        <ele>241.2</ele>
        <time>2022-08-14T09:45:07Z</time>
      </trkpt>
      <trkpt lat="43.96946" lon="1.87791">
        <ele>241.2</ele>
        <time>2022-08-14T09:45:08Z</time>
      </trkpt>
      <trkpt lat="43.96943" lon="1.87787">
        <ele>241.2</ele>
        <time>2022-08-14T09:45:09Z</time>
      </trkpt>
      <trkpt lat="43.96941" lon="1.87784">
        <ele>241.2</ele>
        <time>2022-08-14T09:45:10Z</time>
      </trkpt>
      <trkpt lat="43.96939" lon="1.87781">
        <ele>241.2</ele>
        <time>2022-08-14T09:45:11Z</time>
      </trkpt>
      <trkpt lat="43.96937" lon="1.87777">
        <ele>241.4</ele>
        <time>2022-08-14T09:45:12Z</time>
      </trkpt>
      <trkpt lat="43.96935" lon="1.87774">
        <ele>241.4</ele>
        <time>2022-08-14T09:45:13Z</time>
      </trkpt>
      <trkpt lat="43.96933" lon="1.87771">
        <ele>241.6</ele>
        <time>2022-08-14T09:45:14Z</time>
      </trkpt>
      <trkpt lat="43.96931" lon="1.87767">
        <ele>241.6</ele>
        <time>2022-08-14T09:45:15Z</time>
      </trkpt>
      <trkpt lat="43.96928" lon="1.87764">
        <ele>241.8</ele>
        <time>2022-08-14T09:45:16Z</time>
      </trkpt>
      <trkpt lat="43.96927" lon="1.87761">
        <ele>242</ele>
        <time>2022-08-14T09:45:17Z</time>
      </trkpt>
      <trkpt lat="43.96925" lon="1.87758">
        <ele>242.2</ele>
        <time>2022-08-14T09:45:18Z</time>
      </trkpt>
      <trkpt lat="43.96923" lon="1.87756">
        <ele>242.4</ele>
        <time>2022-08-14T09:45:19Z</time>
      </trkpt>
      <trkpt lat="43.9692" lon="1.87754">
        <ele>242.4</ele>
        <time>2022-08-14T09:45:20Z</time>
      </trkpt>
      <trkpt lat="43.96918" lon="1.87752">
        <ele>242.6</ele>
        <time>2022-08-14T09:45:21Z</time>
      </trkpt>
      <trkpt lat="43.96917" lon="1.8775">
        <ele>242.6</ele>
        <time>2022-08-14T09:45:22Z</time>
      </trkpt>
      <trkpt lat="43.96915" lon="1.87749">
        <ele>242.8</ele>
        <time>2022-08-14T09:45:23Z</time>
      </trkpt>
      <trkpt lat="43.96913" lon="1.87747">
        <ele>242.8</ele>
        <time>2022-08-14T09:45:24Z</time>
      </trkpt>
      <trkpt lat="43.96912" lon="1.87747">
        <ele>243</ele>
        <time>2022-08-14T09:45:25Z</time>
      </trkpt>
      <trkpt lat="43.96911" lon="1.87745">
        <ele>243</ele>
        <time>2022-08-14T09:45:26Z</time>
      </trkpt>
      <trkpt lat="43.9691" lon="1.87744">
        <ele>243.2</ele>
        <time>2022-08-14T09:45:27Z</time>
      </trkpt>
      <trkpt lat="43.96909" lon="1.87741">
        <ele>243.2</ele>
        <time>2022-08-14T09:45:28Z</time>
      </trkpt>
      <trkpt lat="43.96908" lon="1.87739">
        <ele>243.2</ele>
        <time>2022-08-14T09:45:29Z</time>
      </trkpt>
      <trkpt lat="43.96906" lon="1.87736">
        <ele>243.4</ele>
        <time>2022-08-14T09:45:30Z</time>
      </trkpt>
      <trkpt lat="43.96904" lon="1.87732">
        <ele>243.4</ele>
        <time>2022-08-14T09:45:31Z</time>
      </trkpt>
      <trkpt lat="43.96887" lon="1.87708">
        <ele>243.4</ele>
        <time>2022-08-14T09:45:36Z</time>
      </trkpt>
      <trkpt lat="43.96865" lon="1.87675">
        <ele>242.2</ele>
        <time>2022-08-14T09:45:41Z</time>
      </trkpt>
      <trkpt lat="43.96861" lon="1.87668">
        <ele>241.8</ele>
        <time>2022-08-14T09:45:42Z</time>
      </trkpt>
      <trkpt lat="43.96857" lon="1.87661">
        <ele>241.6</ele>
        <time>2022-08-14T09:45:43Z</time>
      </trkpt>
      <trkpt lat="43.96852" lon="1.87654">
        <ele>241.4</ele>
        <time>2022-08-14T09:45:44Z</time>
      </trkpt>
      <trkpt lat="43.96844" lon="1.87641">
        <ele>240.6</ele>
        <time>2022-08-14T09:45:46Z</time>
      </trkpt>
      <trkpt lat="43.96831" lon="1.87617">
        <ele>239.8</ele>
        <time>2022-08-14T09:45:49Z</time>
      </trkpt>
      <trkpt lat="43.96828" lon="1.87609">
        <ele>239.2</ele>
        <time>2022-08-14T09:45:50Z</time>
      </trkpt>
      <trkpt lat="43.96825" lon="1.87601">
        <ele>238.6</ele>
        <time>2022-08-14T09:45:51Z</time>
      </trkpt>
      <trkpt lat="43.96819" lon="1.87585">
        <ele>237.8</ele>
        <time>2022-08-14T09:45:53Z</time>
      </trkpt>
      <trkpt lat="43.96812" lon="1.87568">
        <ele>237</ele>
        <time>2022-08-14T09:45:55Z</time>
      </trkpt>
      <trkpt lat="43.96809" lon="1.8756">
        <ele>236.8</ele>
        <time>2022-08-14T09:45:56Z</time>
      </trkpt>
      <trkpt lat="43.96797" lon="1.87535">
        <ele>235.4</ele>
        <time>2022-08-14T09:45:59Z</time>
      </trkpt>
      <trkpt lat="43.96792" lon="1.87526">
        <ele>235</ele>
        <time>2022-08-14T09:46:00Z</time>
      </trkpt>
      <trkpt lat="43.96785" lon="1.87509">
        <ele>234.2</ele>
        <time>2022-08-14T09:46:02Z</time>
      </trkpt>
      <trkpt lat="43.96782" lon="1.875">
        <ele>233.8</ele>
        <time>2022-08-14T09:46:03Z</time>
      </trkpt>
      <trkpt lat="43.96779" lon="1.87491">
        <ele>233</ele>
        <time>2022-08-14T09:46:04Z</time>
      </trkpt>
      <trkpt lat="43.96777" lon="1.87482">
        <ele>232.6</ele>
        <time>2022-08-14T09:46:05Z</time>
      </trkpt>
      <trkpt lat="43.96775" lon="1.87474">
        <ele>231.2</ele>
        <time>2022-08-14T09:46:06Z</time>
      </trkpt>
      <trkpt lat="43.96773" lon="1.87465">
        <ele>230.2</ele>
        <time>2022-08-14T09:46:07Z</time>
      </trkpt>
      <trkpt lat="43.96771" lon="1.87457">
        <ele>229.6</ele>
        <time>2022-08-14T09:46:08Z</time>
      </trkpt>
      <trkpt lat="43.96768" lon="1.87449">
        <ele>228.8</ele>
        <time>2022-08-14T09:46:09Z</time>
      </trkpt>
      <trkpt lat="43.9676" lon="1.87412">
        <ele>227.4</ele>
        <time>2022-08-14T09:46:13Z</time>
      </trkpt>
      <trkpt lat="43.96759" lon="1.87402">
        <ele>227.2</ele>
        <time>2022-08-14T09:46:14Z</time>
      </trkpt>
      <trkpt lat="43.96757" lon="1.87382">
        <ele>226.2</ele>
        <time>2022-08-14T09:46:16Z</time>
      </trkpt>
      <trkpt lat="43.96756" lon="1.87372">
        <ele>226</ele>
        <time>2022-08-14T09:46:17Z</time>
      </trkpt>
      <trkpt lat="43.96756" lon="1.87352">
        <ele>225.2</ele>
        <time>2022-08-14T09:46:19Z</time>
      </trkpt>
      <trkpt lat="43.96755" lon="1.87342">
        <ele>224.6</ele>
        <time>2022-08-14T09:46:20Z</time>
      </trkpt>
      <trkpt lat="43.96755" lon="1.87332">
        <ele>224.2</ele>
        <time>2022-08-14T09:46:21Z</time>
      </trkpt>
      <trkpt lat="43.96754" lon="1.87313">
        <ele>223</ele>
        <time>2022-08-14T09:46:23Z</time>
      </trkpt>
      <trkpt lat="43.96753" lon="1.87304">
        <ele>222.8</ele>
        <time>2022-08-14T09:46:24Z</time>
      </trkpt>
      <trkpt lat="43.96751" lon="1.87294">
        <ele>222.4</ele>
        <time>2022-08-14T09:46:25Z</time>
      </trkpt>
      <trkpt lat="43.96749" lon="1.87286">
        <ele>222.2</ele>
        <time>2022-08-14T09:46:26Z</time>
      </trkpt>
      <trkpt lat="43.96747" lon="1.87278">
        <ele>221.8</ele>
        <time>2022-08-14T09:46:27Z</time>
      </trkpt>
      <trkpt lat="43.96745" lon="1.87271">
        <ele>221.6</ele>
        <time>2022-08-14T09:46:28Z</time>
      </trkpt>
      <trkpt lat="43.96743" lon="1.87264">
        <ele>221.2</ele>
        <time>2022-08-14T09:46:29Z</time>
      </trkpt>
      <trkpt lat="43.96741" lon="1.87258">
        <ele>220.6</ele>
        <time>2022-08-14T09:46:30Z</time>
      </trkpt>
      <trkpt lat="43.96739" lon="1.87252">
        <ele>220.2</ele>
        <time>2022-08-14T09:46:31Z</time>
      </trkpt>
      <trkpt lat="43.96737" lon="1.87246">
        <ele>220</ele>
        <time>2022-08-14T09:46:32Z</time>
      </trkpt>
      <trkpt lat="43.96735" lon="1.8724">
        <ele>219.8</ele>
        <time>2022-08-14T09:46:33Z</time>
      </trkpt>
      <trkpt lat="43.96734" lon="1.87235">
        <ele>219.4</ele>
        <time>2022-08-14T09:46:34Z</time>
      </trkpt>
      <trkpt lat="43.96733" lon="1.8723">
        <ele>219</ele>
        <time>2022-08-14T09:46:35Z</time>
      </trkpt>
      <trkpt lat="43.96733" lon="1.87227">
        <ele>218.6</ele>
        <time>2022-08-14T09:46:36Z</time>
      </trkpt>
      <trkpt lat="43.96733" lon="1.87224">
        <ele>218.2</ele>
        <time>2022-08-14T09:46:37Z</time>
      </trkpt>
      <trkpt lat="43.96728" lon="1.8722">
        <ele>215.8</ele>
        <time>2022-08-14T09:48:15Z</time>
      </trkpt>
      <trkpt lat="43.96726" lon="1.87218">
        <ele>215.8</ele>
        <time>2022-08-14T09:48:16Z</time>
      </trkpt>
      <trkpt lat="43.9672" lon="1.87211">
        <ele>215.6</ele>
        <time>2022-08-14T09:48:20Z</time>
      </trkpt>
      <trkpt lat="43.96714" lon="1.87207">
        <ele>215.6</ele>
        <time>2022-08-14T09:48:23Z</time>
      </trkpt>
      <trkpt lat="43.96713" lon="1.87206">
        <ele>215.6</ele>
        <time>2022-08-14T09:48:24Z</time>
      </trkpt>
      <trkpt lat="43.96711" lon="1.87205">
        <ele>215.6</ele>
        <time>2022-08-14T09:48:25Z</time>
      </trkpt>
      <trkpt lat="43.96698" lon="1.87193">
        <ele>216</ele>
        <time>2022-08-14T09:48:33Z</time>
      </trkpt>
      <trkpt lat="43.96696" lon="1.87192">
        <ele>216</ele>
        <time>2022-08-14T09:48:34Z</time>
      </trkpt>
      <trkpt lat="43.96692" lon="1.87191">
        <ele>216.8</ele>
        <time>2022-08-14T09:48:38Z</time>
      </trkpt>
      <trkpt lat="43.96689" lon="1.8719">
        <ele>217</ele>
        <time>2022-08-14T09:48:40Z</time>
      </trkpt>
      <trkpt lat="43.96685" lon="1.8719">
        <ele>217.4</ele>
        <time>2022-08-14T09:48:42Z</time>
      </trkpt>
      <trkpt lat="43.96681" lon="1.8719">
        <ele>217.4</ele>
        <time>2022-08-14T09:48:43Z</time>
      </trkpt>
      <trkpt lat="43.96671" lon="1.87188">
        <ele>217.8</ele>
        <time>2022-08-14T09:48:46Z</time>
      </trkpt>
      <trkpt lat="43.96668" lon="1.87189">
        <ele>217.8</ele>
        <time>2022-08-14T09:48:47Z</time>
      </trkpt>
      <trkpt lat="43.96665" lon="1.87191">
        <ele>217.8</ele>
        <time>2022-08-14T09:48:48Z</time>
      </trkpt>
      <trkpt lat="43.96661" lon="1.87195">
        <ele>218</ele>
        <time>2022-08-14T09:48:49Z</time>
      </trkpt>
      <trkpt lat="43.96658" lon="1.87198">
        <ele>218.2</ele>
        <time>2022-08-14T09:48:50Z</time>
      </trkpt>
      <trkpt lat="43.96657" lon="1.872">
        <ele>218.2</ele>
        <time>2022-08-14T09:48:51Z</time>
      </trkpt>
      <trkpt lat="43.96656" lon="1.87203">
        <ele>218.4</ele>
        <time>2022-08-14T09:48:52Z</time>
      </trkpt>
      <trkpt lat="43.96653" lon="1.87207">
        <ele>218.6</ele>
        <time>2022-08-14T09:48:53Z</time>
      </trkpt>
      <trkpt lat="43.96651" lon="1.87212">
        <ele>218.6</ele>
        <time>2022-08-14T09:48:54Z</time>
      </trkpt>
      <trkpt lat="43.96649" lon="1.87216">
        <ele>219</ele>
        <time>2022-08-14T09:48:55Z</time>
      </trkpt>
      <trkpt lat="43.96642" lon="1.87226">
        <ele>219</ele>
        <time>2022-08-14T09:48:57Z</time>
      </trkpt>
      <trkpt lat="43.96638" lon="1.87233">
        <ele>219.2</ele>
        <time>2022-08-14T09:48:58Z</time>
      </trkpt>
      <trkpt lat="43.96634" lon="1.8724">
        <ele>219.4</ele>
        <time>2022-08-14T09:48:59Z</time>
      </trkpt>
      <trkpt lat="43.96631" lon="1.87244">
        <ele>219.4</ele>
        <time>2022-08-14T09:49:00Z</time>
      </trkpt>
      <trkpt lat="43.96629" lon="1.87249">
        <ele>219.6</ele>
        <time>2022-08-14T09:49:01Z</time>
      </trkpt>
      <trkpt lat="43.96627" lon="1.87255">
        <ele>219.8</ele>
        <time>2022-08-14T09:49:02Z</time>
      </trkpt>
      <trkpt lat="43.96626" lon="1.87261">
        <ele>220</ele>
        <time>2022-08-14T09:49:03Z</time>
      </trkpt>
      <trkpt lat="43.96624" lon="1.87266">
        <ele>220</ele>
        <time>2022-08-14T09:49:04Z</time>
      </trkpt>
      <trkpt lat="43.96622" lon="1.87273">
        <ele>220</ele>
        <time>2022-08-14T09:49:05Z</time>
      </trkpt>
      <trkpt lat="43.96622" lon="1.87281">
        <ele>220</ele>
        <time>2022-08-14T09:49:06Z</time>
      </trkpt>
      <trkpt lat="43.96621" lon="1.87288">
        <ele>220</ele>
        <time>2022-08-14T09:49:07Z</time>
      </trkpt>
      <trkpt lat="43.96619" lon="1.87296">
        <ele>220</ele>
        <time>2022-08-14T09:49:08Z</time>
      </trkpt>
      <trkpt lat="43.96617" lon="1.87301">
        <ele>220.2</ele>
        <time>2022-08-14T09:49:09Z</time>
      </trkpt>
      <trkpt lat="43.96614" lon="1.87308">
        <ele>220.2</ele>
        <time>2022-08-14T09:49:10Z</time>
      </trkpt>
      <trkpt lat="43.9661" lon="1.87312">
        <ele>220.2</ele>
        <time>2022-08-14T09:49:11Z</time>
      </trkpt>
      <trkpt lat="43.96608" lon="1.87315">
        <ele>220.2</ele>
        <time>2022-08-14T09:49:12Z</time>
      </trkpt>
      <trkpt lat="43.96606" lon="1.87321">
        <ele>220.4</ele>
        <time>2022-08-14T09:49:13Z</time>
      </trkpt>
      <trkpt lat="43.96605" lon="1.87328">
        <ele>220.4</ele>
        <time>2022-08-14T09:49:14Z</time>
      </trkpt>
      <trkpt lat="43.96603" lon="1.87336">
        <ele>220.4</ele>
        <time>2022-08-14T09:49:15Z</time>
      </trkpt>
      <trkpt lat="43.96603" lon="1.87342">
        <ele>220.4</ele>
        <time>2022-08-14T09:49:16Z</time>
      </trkpt>
      <trkpt lat="43.96602" lon="1.87348">
        <ele>220.4</ele>
        <time>2022-08-14T09:49:17Z</time>
      </trkpt>
      <trkpt lat="43.96601" lon="1.87353">
        <ele>220.6</ele>
        <time>2022-08-14T09:49:18Z</time>
      </trkpt>
      <trkpt lat="43.96599" lon="1.87356">
        <ele>220.6</ele>
        <time>2022-08-14T09:49:19Z</time>
      </trkpt>
      <trkpt lat="43.96597" lon="1.87359">
        <ele>220.6</ele>
        <time>2022-08-14T09:49:20Z</time>
      </trkpt>
      <trkpt lat="43.96595" lon="1.87362">
        <ele>220.8</ele>
        <time>2022-08-14T09:49:21Z</time>
      </trkpt>
      <trkpt lat="43.96593" lon="1.87364">
        <ele>220.8</ele>
        <time>2022-08-14T09:49:22Z</time>
      </trkpt>
      <trkpt lat="43.96591" lon="1.87367">
        <ele>221</ele>
        <time>2022-08-14T09:49:23Z</time>
      </trkpt>
      <trkpt lat="43.96588" lon="1.8737">
        <ele>221.2</ele>
        <time>2022-08-14T09:49:24Z</time>
      </trkpt>
      <trkpt lat="43.96585" lon="1.87373">
        <ele>221.4</ele>
        <time>2022-08-14T09:49:25Z</time>
      </trkpt>
      <trkpt lat="43.96583" lon="1.87377">
        <ele>221.6</ele>
        <time>2022-08-14T09:49:26Z</time>
      </trkpt>
      <trkpt lat="43.96582" lon="1.87381">
        <ele>221.8</ele>
        <time>2022-08-14T09:49:27Z</time>
      </trkpt>
      <trkpt lat="43.96581" lon="1.87385">
        <ele>222.4</ele>
        <time>2022-08-14T09:49:28Z</time>
      </trkpt>
      <trkpt lat="43.9658" lon="1.87388">
        <ele>222.4</ele>
        <time>2022-08-14T09:49:29Z</time>
      </trkpt>
      <trkpt lat="43.96578" lon="1.87391">
        <ele>223</ele>
        <time>2022-08-14T09:49:30Z</time>
      </trkpt>
      <trkpt lat="43.96575" lon="1.87393">
        <ele>223.2</ele>
        <time>2022-08-14T09:49:31Z</time>
      </trkpt>
      <trkpt lat="43.96573" lon="1.87396">
        <ele>223.2</ele>
        <time>2022-08-14T09:49:32Z</time>
      </trkpt>
      <trkpt lat="43.96571" lon="1.87399">
        <ele>223.4</ele>
        <time>2022-08-14T09:49:33Z</time>
      </trkpt>
      <trkpt lat="43.96568" lon="1.87402">
        <ele>223.4</ele>
        <time>2022-08-14T09:49:34Z</time>
      </trkpt>
      <trkpt lat="43.96565" lon="1.87405">
        <ele>223.6</ele>
        <time>2022-08-14T09:49:35Z</time>
      </trkpt>
      <trkpt lat="43.96561" lon="1.87408">
        <ele>223.8</ele>
        <time>2022-08-14T09:49:36Z</time>
      </trkpt>
      <trkpt lat="43.9656" lon="1.87411">
        <ele>224</ele>
        <time>2022-08-14T09:49:37Z</time>
      </trkpt>
      <trkpt lat="43.96558" lon="1.87414">
        <ele>224.2</ele>
        <time>2022-08-14T09:49:38Z</time>
      </trkpt>
      <trkpt lat="43.96556" lon="1.87416">
        <ele>224.6</ele>
        <time>2022-08-14T09:49:39Z</time>
      </trkpt>
      <trkpt lat="43.96555" lon="1.87417">
        <ele>224.8</ele>
        <time>2022-08-14T09:49:40Z</time>
      </trkpt>
      <trkpt lat="43.96552" lon="1.87418">
        <ele>225</ele>
        <time>2022-08-14T09:49:41Z</time>
      </trkpt>
      <trkpt lat="43.96549" lon="1.87418">
        <ele>225</ele>
        <time>2022-08-14T09:49:42Z</time>
      </trkpt>
      <trkpt lat="43.96547" lon="1.87418">
        <ele>225.4</ele>
        <time>2022-08-14T09:49:43Z</time>
      </trkpt>
      <trkpt lat="43.96544" lon="1.87419">
        <ele>225.8</ele>
        <time>2022-08-14T09:49:44Z</time>
      </trkpt>
      <trkpt lat="43.96541" lon="1.87421">
        <ele>226.2</ele>
        <time>2022-08-14T09:49:45Z</time>
      </trkpt>
      <trkpt lat="43.96537" lon="1.87424">
        <ele>227.2</ele>
        <time>2022-08-14T09:49:46Z</time>
      </trkpt>
      <trkpt lat="43.96534" lon="1.87428">
        <ele>227.4</ele>
        <time>2022-08-14T09:49:47Z</time>
      </trkpt>
      <trkpt lat="43.96532" lon="1.87432">
        <ele>227.8</ele>
        <time>2022-08-14T09:49:48Z</time>
      </trkpt>
      <trkpt lat="43.96531" lon="1.87434">
        <ele>228</ele>
        <time>2022-08-14T09:49:49Z</time>
      </trkpt>
      <trkpt lat="43.96529" lon="1.87438">
        <ele>228.2</ele>
        <time>2022-08-14T09:49:50Z</time>
      </trkpt>
      <trkpt lat="43.96525" lon="1.8744">
        <ele>228.4</ele>
        <time>2022-08-14T09:49:51Z</time>
      </trkpt>
      <trkpt lat="43.96523" lon="1.87442">
        <ele>228.6</ele>
        <time>2022-08-14T09:49:52Z</time>
      </trkpt>
      <trkpt lat="43.96521" lon="1.87445">
        <ele>228.8</ele>
        <time>2022-08-14T09:49:53Z</time>
      </trkpt>
      <trkpt lat="43.96518" lon="1.87447">
        <ele>228.8</ele>
        <time>2022-08-14T09:49:54Z</time>
      </trkpt>
      <trkpt lat="43.96516" lon="1.87451">
        <ele>229.2</ele>
        <time>2022-08-14T09:49:55Z</time>
      </trkpt>
      <trkpt lat="43.96514" lon="1.87453">
        <ele>229.4</ele>
        <time>2022-08-14T09:49:56Z</time>
      </trkpt>
      <trkpt lat="43.96512" lon="1.87455">
        <ele>229.6</ele>
        <time>2022-08-14T09:49:57Z</time>
      </trkpt>
      <trkpt lat="43.96511" lon="1.87456">
        <ele>229.8</ele>
        <time>2022-08-14T09:49:58Z</time>
      </trkpt>
      <trkpt lat="43.96509" lon="1.87456">
        <ele>230</ele>
        <time>2022-08-14T09:49:59Z</time>
      </trkpt>
      <trkpt lat="43.96505" lon="1.87457">
        <ele>230.6</ele>
        <time>2022-08-14T09:50:00Z</time>
      </trkpt>
      <trkpt lat="43.96502" lon="1.87458">
        <ele>230.8</ele>
        <time>2022-08-14T09:50:01Z</time>
      </trkpt>
      <trkpt lat="43.965" lon="1.8746">
        <ele>231.2</ele>
        <time>2022-08-14T09:50:02Z</time>
      </trkpt>
      <trkpt lat="43.96497" lon="1.87462">
        <ele>231.4</ele>
        <time>2022-08-14T09:50:03Z</time>
      </trkpt>
      <trkpt lat="43.96495" lon="1.87464">
        <ele>231.6</ele>
        <time>2022-08-14T09:50:04Z</time>
      </trkpt>
      <trkpt lat="43.96493" lon="1.87467">
        <ele>231.6</ele>
        <time>2022-08-14T09:50:05Z</time>
      </trkpt>
      <trkpt lat="43.96492" lon="1.87467">
        <ele>232</ele>
        <time>2022-08-14T09:50:06Z</time>
      </trkpt>
      <trkpt lat="43.9649" lon="1.87467">
        <ele>232</ele>
        <time>2022-08-14T09:50:07Z</time>
      </trkpt>
      <trkpt lat="43.96487" lon="1.87469">
        <ele>232.2</ele>
        <time>2022-08-14T09:50:08Z</time>
      </trkpt>
      <trkpt lat="43.96485" lon="1.87472">
        <ele>232.4</ele>
        <time>2022-08-14T09:50:09Z</time>
      </trkpt>
      <trkpt lat="43.96482" lon="1.87474">
        <ele>232.4</ele>
        <time>2022-08-14T09:50:10Z</time>
      </trkpt>
      <trkpt lat="43.9648" lon="1.87475">
        <ele>232.6</ele>
        <time>2022-08-14T09:50:11Z</time>
      </trkpt>
      <trkpt lat="43.96479" lon="1.87475">
        <ele>232.8</ele>
        <time>2022-08-14T09:50:12Z</time>
      </trkpt>
      <trkpt lat="43.96478" lon="1.87477">
        <ele>233</ele>
        <time>2022-08-14T09:50:13Z</time>
      </trkpt>
      <trkpt lat="43.96474" lon="1.8748">
        <ele>233.2</ele>
        <time>2022-08-14T09:50:14Z</time>
      </trkpt>
      <trkpt lat="43.96471" lon="1.87483">
        <ele>233.2</ele>
        <time>2022-08-14T09:50:15Z</time>
      </trkpt>
      <trkpt lat="43.96469" lon="1.87484">
        <ele>233.4</ele>
        <time>2022-08-14T09:50:16Z</time>
      </trkpt>
      <trkpt lat="43.96466" lon="1.87486">
        <ele>233.6</ele>
        <time>2022-08-14T09:50:17Z</time>
      </trkpt>
      <trkpt lat="43.96464" lon="1.87487">
        <ele>233.8</ele>
        <time>2022-08-14T09:50:18Z</time>
      </trkpt>
      <trkpt lat="43.96461" lon="1.87488">
        <ele>233.8</ele>
        <time>2022-08-14T09:50:19Z</time>
      </trkpt>
      <trkpt lat="43.96456" lon="1.87491">
        <ele>234</ele>
        <time>2022-08-14T09:50:20Z</time>
      </trkpt>
      <trkpt lat="43.96452" lon="1.87493">
        <ele>234</ele>
        <time>2022-08-14T09:50:21Z</time>
      </trkpt>
      <trkpt lat="43.96448" lon="1.87495">
        <ele>234.2</ele>
        <time>2022-08-14T09:50:22Z</time>
      </trkpt>
      <trkpt lat="43.96445" lon="1.87497">
        <ele>234.4</ele>
        <time>2022-08-14T09:50:23Z</time>
      </trkpt>
      <trkpt lat="43.96442" lon="1.87499">
        <ele>234.4</ele>
        <time>2022-08-14T09:50:24Z</time>
      </trkpt>
      <trkpt lat="43.96439" lon="1.87501">
        <ele>234.4</ele>
        <time>2022-08-14T09:50:25Z</time>
      </trkpt>
      <trkpt lat="43.96435" lon="1.87502">
        <ele>234.4</ele>
        <time>2022-08-14T09:50:26Z</time>
      </trkpt>
      <trkpt lat="43.96429" lon="1.87504">
        <ele>234.4</ele>
        <time>2022-08-14T09:50:27Z</time>
      </trkpt>
      <trkpt lat="43.96424" lon="1.87504">
        <ele>234.4</ele>
        <time>2022-08-14T09:50:28Z</time>
      </trkpt>
      <trkpt lat="43.9642" lon="1.87506">
        <ele>234.4</ele>
        <time>2022-08-14T09:50:29Z</time>
      </trkpt>
      <trkpt lat="43.96415" lon="1.87506">
        <ele>234.4</ele>
        <time>2022-08-14T09:50:30Z</time>
      </trkpt>
      <trkpt lat="43.96411" lon="1.87507">
        <ele>234.4</ele>
        <time>2022-08-14T09:50:31Z</time>
      </trkpt>
      <trkpt lat="43.96407" lon="1.87508">
        <ele>234.6</ele>
        <time>2022-08-14T09:50:32Z</time>
      </trkpt>
      <trkpt lat="43.96404" lon="1.87509">
        <ele>234.4</ele>
        <time>2022-08-14T09:50:33Z</time>
      </trkpt>
      <trkpt lat="43.96401" lon="1.87508">
        <ele>234.6</ele>
        <time>2022-08-14T09:50:34Z</time>
      </trkpt>
      <trkpt lat="43.96397" lon="1.87509">
        <ele>234.6</ele>
        <time>2022-08-14T09:50:35Z</time>
      </trkpt>
      <trkpt lat="43.96395" lon="1.87509">
        <ele>234.6</ele>
        <time>2022-08-14T09:50:36Z</time>
      </trkpt>
      <trkpt lat="43.96393" lon="1.87508">
        <ele>234.6</ele>
        <time>2022-08-14T09:50:37Z</time>
      </trkpt>
      <trkpt lat="43.96392" lon="1.87508">
        <ele>234.8</ele>
        <time>2022-08-14T09:50:38Z</time>
      </trkpt>
      <trkpt lat="43.9639" lon="1.87508">
        <ele>234.8</ele>
        <time>2022-08-14T09:50:39Z</time>
      </trkpt>
      <trkpt lat="43.96386" lon="1.87508">
        <ele>235.2</ele>
        <time>2022-08-14T09:50:41Z</time>
      </trkpt>
      <trkpt lat="43.96384" lon="1.87507">
        <ele>235.2</ele>
        <time>2022-08-14T09:50:42Z</time>
      </trkpt>
      <trkpt lat="43.96381" lon="1.87505">
        <ele>235.4</ele>
        <time>2022-08-14T09:50:43Z</time>
      </trkpt>
      <trkpt lat="43.96379" lon="1.87504">
        <ele>235.6</ele>
        <time>2022-08-14T09:50:44Z</time>
      </trkpt>
      <trkpt lat="43.96377" lon="1.87504">
        <ele>235.8</ele>
        <time>2022-08-14T09:50:45Z</time>
      </trkpt>
      <trkpt lat="43.96373" lon="1.87502">
        <ele>236</ele>
        <time>2022-08-14T09:50:47Z</time>
      </trkpt>
      <trkpt lat="43.96369" lon="1.87502">
        <ele>236</ele>
        <time>2022-08-14T09:50:49Z</time>
      </trkpt>
      <trkpt lat="43.96361" lon="1.87502">
        <ele>236.2</ele>
        <time>2022-08-14T09:50:52Z</time>
      </trkpt>
      <trkpt lat="43.96354" lon="1.87503">
        <ele>236.8</ele>
        <time>2022-08-14T09:50:55Z</time>
      </trkpt>
      <trkpt lat="43.96352" lon="1.87503">
        <ele>237</ele>
        <time>2022-08-14T09:50:56Z</time>
      </trkpt>
      <trkpt lat="43.96349" lon="1.87503">
        <ele>237.4</ele>
        <time>2022-08-14T09:50:58Z</time>
      </trkpt>
      <trkpt lat="43.96347" lon="1.87504">
        <ele>237.6</ele>
        <time>2022-08-14T09:50:59Z</time>
      </trkpt>
      <trkpt lat="43.96345" lon="1.87505">
        <ele>237.6</ele>
        <time>2022-08-14T09:51:00Z</time>
      </trkpt>
      <trkpt lat="43.96342" lon="1.87507">
        <ele>237.6</ele>
        <time>2022-08-14T09:51:01Z</time>
      </trkpt>
      <trkpt lat="43.96338" lon="1.87508">
        <ele>237.8</ele>
        <time>2022-08-14T09:51:02Z</time>
      </trkpt>
      <trkpt lat="43.96336" lon="1.87508">
        <ele>238</ele>
        <time>2022-08-14T09:51:03Z</time>
      </trkpt>
      <trkpt lat="43.96333" lon="1.87507">
        <ele>238.2</ele>
        <time>2022-08-14T09:51:04Z</time>
      </trkpt>
      <trkpt lat="43.9633" lon="1.87505">
        <ele>238.2</ele>
        <time>2022-08-14T09:51:05Z</time>
      </trkpt>
      <trkpt lat="43.96328" lon="1.87502">
        <ele>238.4</ele>
        <time>2022-08-14T09:51:06Z</time>
      </trkpt>
      <trkpt lat="43.96325" lon="1.87499">
        <ele>238.6</ele>
        <time>2022-08-14T09:51:07Z</time>
      </trkpt>
      <trkpt lat="43.96323" lon="1.87498">
        <ele>238.8</ele>
        <time>2022-08-14T09:51:08Z</time>
      </trkpt>
      <trkpt lat="43.96322" lon="1.87497">
        <ele>238.8</ele>
        <time>2022-08-14T09:51:09Z</time>
      </trkpt>
      <trkpt lat="43.96321" lon="1.87496">
        <ele>239</ele>
        <time>2022-08-14T09:51:10Z</time>
      </trkpt>
      <trkpt lat="43.96321" lon="1.87496">
        <ele>239.2</ele>
        <time>2022-08-14T09:51:11Z</time>
      </trkpt>
      <trkpt lat="43.96319" lon="1.87496">
        <ele>239.4</ele>
        <time>2022-08-14T09:51:12Z</time>
      </trkpt>
      <trkpt lat="43.96316" lon="1.87495">
        <ele>239.8</ele>
        <time>2022-08-14T09:51:13Z</time>
      </trkpt>
      <trkpt lat="43.96314" lon="1.87493">
        <ele>240</ele>
        <time>2022-08-14T09:51:14Z</time>
      </trkpt>
      <trkpt lat="43.96312" lon="1.87492">
        <ele>240.4</ele>
        <time>2022-08-14T09:51:15Z</time>
      </trkpt>
      <trkpt lat="43.9631" lon="1.87491">
        <ele>240.6</ele>
        <time>2022-08-14T09:51:16Z</time>
      </trkpt>
      <trkpt lat="43.96307" lon="1.8749">
        <ele>240.8</ele>
        <time>2022-08-14T09:51:17Z</time>
      </trkpt>
      <trkpt lat="43.96303" lon="1.87491">
        <ele>241</ele>
        <time>2022-08-14T09:51:18Z</time>
      </trkpt>
      <trkpt lat="43.963" lon="1.87489">
        <ele>241.4</ele>
        <time>2022-08-14T09:51:19Z</time>
      </trkpt>
      <trkpt lat="43.96297" lon="1.87487">
        <ele>241.8</ele>
        <time>2022-08-14T09:51:20Z</time>
      </trkpt>
      <trkpt lat="43.96295" lon="1.87485">
        <ele>242</ele>
        <time>2022-08-14T09:51:21Z</time>
      </trkpt>
      <trkpt lat="43.96293" lon="1.87484">
        <ele>242.8</ele>
        <time>2022-08-14T09:51:22Z</time>
      </trkpt>
      <trkpt lat="43.96288" lon="1.8748">
        <ele>243</ele>
        <time>2022-08-14T09:51:23Z</time>
      </trkpt>
      <trkpt lat="43.96284" lon="1.87477">
        <ele>243.4</ele>
        <time>2022-08-14T09:51:24Z</time>
      </trkpt>
      <trkpt lat="43.96281" lon="1.87476">
        <ele>243.4</ele>
        <time>2022-08-14T09:51:25Z</time>
      </trkpt>
      <trkpt lat="43.96278" lon="1.87474">
        <ele>244</ele>
        <time>2022-08-14T09:51:26Z</time>
      </trkpt>
      <trkpt lat="43.96276" lon="1.87474">
        <ele>244</ele>
        <time>2022-08-14T09:51:27Z</time>
      </trkpt>
      <trkpt lat="43.96275" lon="1.87473">
        <ele>244.6</ele>
        <time>2022-08-14T09:51:28Z</time>
      </trkpt>
      <trkpt lat="43.96273" lon="1.87472">
        <ele>245</ele>
        <time>2022-08-14T09:51:29Z</time>
      </trkpt>
      <trkpt lat="43.96271" lon="1.87471">
        <ele>245.2</ele>
        <time>2022-08-14T09:51:30Z</time>
      </trkpt>
      <trkpt lat="43.96268" lon="1.8747">
        <ele>245.4</ele>
        <time>2022-08-14T09:51:31Z</time>
      </trkpt>
      <trkpt lat="43.96267" lon="1.87469">
        <ele>245.4</ele>
        <time>2022-08-14T09:51:32Z</time>
      </trkpt>
      <trkpt lat="43.96267" lon="1.87468">
        <ele>245.8</ele>
        <time>2022-08-14T09:51:33Z</time>
      </trkpt>
      <trkpt lat="43.96265" lon="1.87466">
        <ele>246</ele>
        <time>2022-08-14T09:51:34Z</time>
      </trkpt>
      <trkpt lat="43.96263" lon="1.87463">
        <ele>246.2</ele>
        <time>2022-08-14T09:51:35Z</time>
      </trkpt>
      <trkpt lat="43.96261" lon="1.87461">
        <ele>246.4</ele>
        <time>2022-08-14T09:51:36Z</time>
      </trkpt>
      <trkpt lat="43.96258" lon="1.8746">
        <ele>246.4</ele>
        <time>2022-08-14T09:51:37Z</time>
      </trkpt>
      <trkpt lat="43.96254" lon="1.87459">
        <ele>246.6</ele>
        <time>2022-08-14T09:51:38Z</time>
      </trkpt>
      <trkpt lat="43.96254" lon="1.87459">
        <ele>246.6</ele>
        <time>2022-08-14T09:51:39Z</time>
      </trkpt>
      <trkpt lat="43.96254" lon="1.87459">
        <ele>247</ele>
        <time>2022-08-14T09:51:40Z</time>
      </trkpt>
      <trkpt lat="43.96251" lon="1.87457">
        <ele>247.2</ele>
        <time>2022-08-14T09:51:41Z</time>
      </trkpt>
      <trkpt lat="43.96247" lon="1.87456">
        <ele>247.6</ele>
        <time>2022-08-14T09:51:42Z</time>
      </trkpt>
      <trkpt lat="43.96244" lon="1.87454">
        <ele>247.6</ele>
        <time>2022-08-14T09:51:43Z</time>
      </trkpt>
      <trkpt lat="43.96242" lon="1.87453">
        <ele>247.8</ele>
        <time>2022-08-14T09:51:44Z</time>
      </trkpt>
      <trkpt lat="43.96241" lon="1.87452">
        <ele>247.8</ele>
        <time>2022-08-14T09:51:45Z</time>
      </trkpt>
      <trkpt lat="43.9624" lon="1.87449">
        <ele>247.8</ele>
        <time>2022-08-14T09:51:46Z</time>
      </trkpt>
      <trkpt lat="43.96239" lon="1.87447">
        <ele>248</ele>
        <time>2022-08-14T09:51:47Z</time>
      </trkpt>
      <trkpt lat="43.96238" lon="1.87446">
        <ele>248</ele>
        <time>2022-08-14T09:51:48Z</time>
      </trkpt>
      <trkpt lat="43.96238" lon="1.87445">
        <ele>248</ele>
        <time>2022-08-14T09:51:49Z</time>
      </trkpt>
      <trkpt lat="43.96237" lon="1.87445">
        <ele>248.2</ele>
        <time>2022-08-14T09:51:50Z</time>
      </trkpt>
      <trkpt lat="43.96234" lon="1.87444">
        <ele>248.4</ele>
        <time>2022-08-14T09:51:51Z</time>
      </trkpt>
      <trkpt lat="43.96231" lon="1.87442">
        <ele>248.4</ele>
        <time>2022-08-14T09:51:52Z</time>
      </trkpt>
      <trkpt lat="43.96229" lon="1.87441">
        <ele>248.8</ele>
        <time>2022-08-14T09:51:53Z</time>
      </trkpt>
      <trkpt lat="43.96228" lon="1.87441">
        <ele>249.2</ele>
        <time>2022-08-14T09:51:54Z</time>
      </trkpt>
      <trkpt lat="43.96227" lon="1.87441">
        <ele>249.2</ele>
        <time>2022-08-14T09:51:55Z</time>
      </trkpt>
      <trkpt lat="43.96226" lon="1.8744">
        <ele>249.4</ele>
        <time>2022-08-14T09:51:56Z</time>
      </trkpt>
      <trkpt lat="43.96223" lon="1.87441">
        <ele>249.4</ele>
        <time>2022-08-14T09:51:57Z</time>
      </trkpt>
      <trkpt lat="43.9622" lon="1.87441">
        <ele>249.6</ele>
        <time>2022-08-14T09:51:58Z</time>
      </trkpt>
      <trkpt lat="43.96219" lon="1.8744">
        <ele>249.8</ele>
        <time>2022-08-14T09:51:59Z</time>
      </trkpt>
      <trkpt lat="43.96218" lon="1.8744">
        <ele>250.2</ele>
        <time>2022-08-14T09:52:00Z</time>
      </trkpt>
      <trkpt lat="43.96216" lon="1.8744">
        <ele>250.4</ele>
        <time>2022-08-14T09:52:01Z</time>
      </trkpt>
      <trkpt lat="43.96213" lon="1.87439">
        <ele>250.8</ele>
        <time>2022-08-14T09:52:02Z</time>
      </trkpt>
      <trkpt lat="43.96211" lon="1.87439">
        <ele>251</ele>
        <time>2022-08-14T09:52:03Z</time>
      </trkpt>
      <trkpt lat="43.96209" lon="1.87439">
        <ele>251.2</ele>
        <time>2022-08-14T09:52:04Z</time>
      </trkpt>
      <trkpt lat="43.96207" lon="1.87438">
        <ele>251.4</ele>
        <time>2022-08-14T09:52:05Z</time>
      </trkpt>
      <trkpt lat="43.96205" lon="1.87438">
        <ele>251.6</ele>
        <time>2022-08-14T09:52:06Z</time>
      </trkpt>
      <trkpt lat="43.96203" lon="1.87438">
        <ele>251.8</ele>
        <time>2022-08-14T09:52:07Z</time>
      </trkpt>
      <trkpt lat="43.962" lon="1.87438">
        <ele>252</ele>
        <time>2022-08-14T09:52:08Z</time>
      </trkpt>
      <trkpt lat="43.96196" lon="1.87439">
        <ele>252.4</ele>
        <time>2022-08-14T09:52:09Z</time>
      </trkpt>
      <trkpt lat="43.96193" lon="1.8744">
        <ele>252.8</ele>
        <time>2022-08-14T09:52:10Z</time>
      </trkpt>
      <trkpt lat="43.9619" lon="1.87441">
        <ele>253</ele>
        <time>2022-08-14T09:52:11Z</time>
      </trkpt>
      <trkpt lat="43.96188" lon="1.87441">
        <ele>253.4</ele>
        <time>2022-08-14T09:52:12Z</time>
      </trkpt>
      <trkpt lat="43.96186" lon="1.87441">
        <ele>253.6</ele>
        <time>2022-08-14T09:52:13Z</time>
      </trkpt>
      <trkpt lat="43.96186" lon="1.87441">
        <ele>253.8</ele>
        <time>2022-08-14T09:52:14Z</time>
      </trkpt>
      <trkpt lat="43.96185" lon="1.87442">
        <ele>254.2</ele>
        <time>2022-08-14T09:52:15Z</time>
      </trkpt>
      <trkpt lat="43.96183" lon="1.87442">
        <ele>254.6</ele>
        <time>2022-08-14T09:52:16Z</time>
      </trkpt>
      <trkpt lat="43.9618" lon="1.87442">
        <ele>255.2</ele>
        <time>2022-08-14T09:52:17Z</time>
      </trkpt>
      <trkpt lat="43.96176" lon="1.8744">
        <ele>255.4</ele>
        <time>2022-08-14T09:52:18Z</time>
      </trkpt>
      <trkpt lat="43.96175" lon="1.8744">
        <ele>255.6</ele>
        <time>2022-08-14T09:52:19Z</time>
      </trkpt>
      <trkpt lat="43.96175" lon="1.8744">
        <ele>255.6</ele>
        <time>2022-08-14T09:52:20Z</time>
      </trkpt>
      <trkpt lat="43.96175" lon="1.8744">
        <ele>256</ele>
        <time>2022-08-14T09:52:21Z</time>
      </trkpt>
      <trkpt lat="43.96175" lon="1.8744">
        <ele>256</ele>
        <time>2022-08-14T09:52:22Z</time>
      </trkpt>
      <trkpt lat="43.96172" lon="1.87439">
        <ele>256.2</ele>
        <time>2022-08-14T09:52:23Z</time>
      </trkpt>
      <trkpt lat="43.96169" lon="1.8744">
        <ele>256.4</ele>
        <time>2022-08-14T09:52:24Z</time>
      </trkpt>
      <trkpt lat="43.96166" lon="1.8744">
        <ele>256.8</ele>
        <time>2022-08-14T09:52:25Z</time>
      </trkpt>
      <trkpt lat="43.96164" lon="1.87441">
        <ele>257.2</ele>
        <time>2022-08-14T09:52:26Z</time>
      </trkpt>
      <trkpt lat="43.96163" lon="1.87441">
        <ele>257.4</ele>
        <time>2022-08-14T09:52:27Z</time>
      </trkpt>
      <trkpt lat="43.9616" lon="1.87442">
        <ele>257.6</ele>
        <time>2022-08-14T09:52:28Z</time>
      </trkpt>
      <trkpt lat="43.96159" lon="1.87444">
        <ele>257.6</ele>
        <time>2022-08-14T09:52:29Z</time>
      </trkpt>
      <trkpt lat="43.96156" lon="1.87445">
        <ele>257.8</ele>
        <time>2022-08-14T09:52:30Z</time>
      </trkpt>
      <trkpt lat="43.96155" lon="1.87446">
        <ele>258</ele>
        <time>2022-08-14T09:52:31Z</time>
      </trkpt>
      <trkpt lat="43.96155" lon="1.87446">
        <ele>258.2</ele>
        <time>2022-08-14T09:52:32Z</time>
      </trkpt>
      <trkpt lat="43.96155" lon="1.87446">
        <ele>258.4</ele>
        <time>2022-08-14T09:52:33Z</time>
      </trkpt>
      <trkpt lat="43.96155" lon="1.87446">
        <ele>258.6</ele>
        <time>2022-08-14T09:52:34Z</time>
      </trkpt>
      <trkpt lat="43.96154" lon="1.87447">
        <ele>258.8</ele>
        <time>2022-08-14T09:52:35Z</time>
      </trkpt>
      <trkpt lat="43.96153" lon="1.87449">
        <ele>259.2</ele>
        <time>2022-08-14T09:52:36Z</time>
      </trkpt>
      <trkpt lat="43.96152" lon="1.87449">
        <ele>259.4</ele>
        <time>2022-08-14T09:52:37Z</time>
      </trkpt>
      <trkpt lat="43.96151" lon="1.87449">
        <ele>259.6</ele>
        <time>2022-08-14T09:52:38Z</time>
      </trkpt>
      <trkpt lat="43.96151" lon="1.87449">
        <ele>259.8</ele>
        <time>2022-08-14T09:52:39Z</time>
      </trkpt>
      <trkpt lat="43.9615" lon="1.8745">
        <ele>260</ele>
        <time>2022-08-14T09:52:40Z</time>
      </trkpt>
      <trkpt lat="43.9615" lon="1.8745">
        <ele>260.4</ele>
        <time>2022-08-14T09:52:41Z</time>
      </trkpt>
      <trkpt lat="43.9615" lon="1.8745">
        <ele>260.8</ele>
        <time>2022-08-14T09:52:42Z</time>
      </trkpt>
      <trkpt lat="43.96149" lon="1.8745">
        <ele>261</ele>
        <time>2022-08-14T09:52:43Z</time>
      </trkpt>
      <trkpt lat="43.96148" lon="1.87451">
        <ele>261.4</ele>
        <time>2022-08-14T09:52:44Z</time>
      </trkpt>
      <trkpt lat="43.96147" lon="1.87451">
        <ele>261.6</ele>
        <time>2022-08-14T09:52:45Z</time>
      </trkpt>
      <trkpt lat="43.96146" lon="1.87452">
        <ele>261.6</ele>
        <time>2022-08-14T09:52:46Z</time>
      </trkpt>
      <trkpt lat="43.96144" lon="1.87453">
        <ele>261.8</ele>
        <time>2022-08-14T09:52:47Z</time>
      </trkpt>
      <trkpt lat="43.96143" lon="1.87454">
        <ele>262</ele>
        <time>2022-08-14T09:52:48Z</time>
      </trkpt>
      <trkpt lat="43.96141" lon="1.87456">
        <ele>262.2</ele>
        <time>2022-08-14T09:52:49Z</time>
      </trkpt>
      <trkpt lat="43.9614" lon="1.87457">
        <ele>262.4</ele>
        <time>2022-08-14T09:52:50Z</time>
      </trkpt>
      <trkpt lat="43.96138" lon="1.87459">
        <ele>262.6</ele>
        <time>2022-08-14T09:52:51Z</time>
      </trkpt>
      <trkpt lat="43.96136" lon="1.87461">
        <ele>262.8</ele>
        <time>2022-08-14T09:52:52Z</time>
      </trkpt>
      <trkpt lat="43.96135" lon="1.87462">
        <ele>263.2</ele>
        <time>2022-08-14T09:52:53Z</time>
      </trkpt>
      <trkpt lat="43.96133" lon="1.87464">
        <ele>263.2</ele>
        <time>2022-08-14T09:52:54Z</time>
      </trkpt>
      <trkpt lat="43.96131" lon="1.87466">
        <ele>263.6</ele>
        <time>2022-08-14T09:52:55Z</time>
      </trkpt>
      <trkpt lat="43.9613" lon="1.87467">
        <ele>263.4</ele>
        <time>2022-08-14T09:52:56Z</time>
      </trkpt>
      <trkpt lat="43.96129" lon="1.8747">
        <ele>264</ele>
        <time>2022-08-14T09:52:57Z</time>
      </trkpt>
      <trkpt lat="43.96129" lon="1.8747">
        <ele>264.4</ele>
        <time>2022-08-14T09:52:58Z</time>
      </trkpt>
      <trkpt lat="43.96127" lon="1.87471">
        <ele>264.6</ele>
        <time>2022-08-14T09:52:59Z</time>
      </trkpt>
      <trkpt lat="43.96126" lon="1.87475">
        <ele>265.2</ele>
        <time>2022-08-14T09:53:00Z</time>
      </trkpt>
      <trkpt lat="43.96125" lon="1.87478">
        <ele>265.2</ele>
        <time>2022-08-14T09:53:01Z</time>
      </trkpt>
      <trkpt lat="43.96125" lon="1.8748">
        <ele>265.6</ele>
        <time>2022-08-14T09:53:02Z</time>
      </trkpt>
      <trkpt lat="43.96125" lon="1.87482">
        <ele>265.6</ele>
        <time>2022-08-14T09:53:03Z</time>
      </trkpt>
      <trkpt lat="43.96124" lon="1.87483">
        <ele>266</ele>
        <time>2022-08-14T09:53:04Z</time>
      </trkpt>
      <trkpt lat="43.96124" lon="1.87485">
        <ele>266.4</ele>
        <time>2022-08-14T09:53:05Z</time>
      </trkpt>
      <trkpt lat="43.96122" lon="1.87486">
        <ele>266.4</ele>
        <time>2022-08-14T09:53:06Z</time>
      </trkpt>
      <trkpt lat="43.96121" lon="1.87488">
        <ele>266.8</ele>
        <time>2022-08-14T09:53:07Z</time>
      </trkpt>
      <trkpt lat="43.96119" lon="1.87491">
        <ele>266.8</ele>
        <time>2022-08-14T09:53:08Z</time>
      </trkpt>
      <trkpt lat="43.96118" lon="1.87494">
        <ele>267</ele>
        <time>2022-08-14T09:53:09Z</time>
      </trkpt>
      <trkpt lat="43.96117" lon="1.87497">
        <ele>267.2</ele>
        <time>2022-08-14T09:53:10Z</time>
      </trkpt>
      <trkpt lat="43.96116" lon="1.87499">
        <ele>267.8</ele>
        <time>2022-08-14T09:53:11Z</time>
      </trkpt>
      <trkpt lat="43.96114" lon="1.87501">
        <ele>268</ele>
        <time>2022-08-14T09:53:12Z</time>
      </trkpt>
      <trkpt lat="43.96112" lon="1.87501">
        <ele>268.2</ele>
        <time>2022-08-14T09:53:13Z</time>
      </trkpt>
      <trkpt lat="43.96111" lon="1.87501">
        <ele>268.2</ele>
        <time>2022-08-14T09:53:14Z</time>
      </trkpt>
      <trkpt lat="43.96112" lon="1.87502">
        <ele>268.4</ele>
        <time>2022-08-14T09:53:15Z</time>
      </trkpt>
      <trkpt lat="43.96111" lon="1.87503">
        <ele>268.8</ele>
        <time>2022-08-14T09:53:16Z</time>
      </trkpt>
      <trkpt lat="43.9611" lon="1.87504">
        <ele>268.8</ele>
        <time>2022-08-14T09:53:17Z</time>
      </trkpt>
      <trkpt lat="43.96108" lon="1.87506">
        <ele>269</ele>
        <time>2022-08-14T09:53:18Z</time>
      </trkpt>
      <trkpt lat="43.96108" lon="1.87507">
        <ele>269.2</ele>
        <time>2022-08-14T09:53:19Z</time>
      </trkpt>
      <trkpt lat="43.96107" lon="1.87508">
        <ele>269.6</ele>
        <time>2022-08-14T09:53:20Z</time>
      </trkpt>
      <trkpt lat="43.96106" lon="1.87509">
        <ele>269.8</ele>
        <time>2022-08-14T09:53:21Z</time>
      </trkpt>
      <trkpt lat="43.96104" lon="1.8751">
        <ele>270</ele>
        <time>2022-08-14T09:53:22Z</time>
      </trkpt>
      <trkpt lat="43.96103" lon="1.87512">
        <ele>270.2</ele>
        <time>2022-08-14T09:53:23Z</time>
      </trkpt>
      <trkpt lat="43.96102" lon="1.87513">
        <ele>270.4</ele>
        <time>2022-08-14T09:53:24Z</time>
      </trkpt>
      <trkpt lat="43.96102" lon="1.87515">
        <ele>270.8</ele>
        <time>2022-08-14T09:53:25Z</time>
      </trkpt>
      <trkpt lat="43.96101" lon="1.87516">
        <ele>270.8</ele>
        <time>2022-08-14T09:53:26Z</time>
      </trkpt>
      <trkpt lat="43.96101" lon="1.87517">
        <ele>271</ele>
        <time>2022-08-14T09:53:27Z</time>
      </trkpt>
      <trkpt lat="43.961" lon="1.87519">
        <ele>271.2</ele>
        <time>2022-08-14T09:53:28Z</time>
      </trkpt>
      <trkpt lat="43.961" lon="1.8752">
        <ele>271.4</ele>
        <time>2022-08-14T09:53:29Z</time>
      </trkpt>
      <trkpt lat="43.961" lon="1.87521">
        <ele>271.8</ele>
        <time>2022-08-14T09:53:30Z</time>
      </trkpt>
      <trkpt lat="43.96099" lon="1.87523">
        <ele>271.8</ele>
        <time>2022-08-14T09:53:31Z</time>
      </trkpt>
      <trkpt lat="43.96098" lon="1.87524">
        <ele>272</ele>
        <time>2022-08-14T09:53:32Z</time>
      </trkpt>
      <trkpt lat="43.96097" lon="1.87526">
        <ele>272</ele>
        <time>2022-08-14T09:53:33Z</time>
      </trkpt>
      <trkpt lat="43.96096" lon="1.87528">
        <ele>272.2</ele>
        <time>2022-08-14T09:53:34Z</time>
      </trkpt>
      <trkpt lat="43.96094" lon="1.8753">
        <ele>272.2</ele>
        <time>2022-08-14T09:53:35Z</time>
      </trkpt>
      <trkpt lat="43.96092" lon="1.87532">
        <ele>272.4</ele>
        <time>2022-08-14T09:53:36Z</time>
      </trkpt>
      <trkpt lat="43.9609" lon="1.87534">
        <ele>272.4</ele>
        <time>2022-08-14T09:53:37Z</time>
      </trkpt>
      <trkpt lat="43.96088" lon="1.87537">
        <ele>272.8</ele>
        <time>2022-08-14T09:53:38Z</time>
      </trkpt>
      <trkpt lat="43.96086" lon="1.87539">
        <ele>273</ele>
        <time>2022-08-14T09:53:39Z</time>
      </trkpt>
      <trkpt lat="43.96084" lon="1.87541">
        <ele>273</ele>
        <time>2022-08-14T09:53:40Z</time>
      </trkpt>
      <trkpt lat="43.96082" lon="1.87545">
        <ele>273.4</ele>
        <time>2022-08-14T09:53:41Z</time>
      </trkpt>
      <trkpt lat="43.9608" lon="1.87547">
        <ele>273.4</ele>
        <time>2022-08-14T09:53:42Z</time>
      </trkpt>
      <trkpt lat="43.96077" lon="1.8755">
        <ele>273.6</ele>
        <time>2022-08-14T09:53:43Z</time>
      </trkpt>
      <trkpt lat="43.96075" lon="1.87551">
        <ele>273.6</ele>
        <time>2022-08-14T09:53:44Z</time>
      </trkpt>
      <trkpt lat="43.96073" lon="1.87553">
        <ele>273.8</ele>
        <time>2022-08-14T09:53:45Z</time>
      </trkpt>
      <trkpt lat="43.96072" lon="1.87555">
        <ele>274</ele>
        <time>2022-08-14T09:53:46Z</time>
      </trkpt>
      <trkpt lat="43.9607" lon="1.87557">
        <ele>274</ele>
        <time>2022-08-14T09:53:47Z</time>
      </trkpt>
      <trkpt lat="43.96068" lon="1.87558">
        <ele>274.2</ele>
        <time>2022-08-14T09:53:48Z</time>
      </trkpt>
      <trkpt lat="43.96066" lon="1.8756">
        <ele>274.2</ele>
        <time>2022-08-14T09:53:49Z</time>
      </trkpt>
      <trkpt lat="43.96063" lon="1.87564">
        <ele>274.4</ele>
        <time>2022-08-14T09:53:50Z</time>
      </trkpt>
      <trkpt lat="43.96063" lon="1.87566">
        <ele>274.4</ele>
        <time>2022-08-14T09:53:51Z</time>
      </trkpt>
      <trkpt lat="43.96063" lon="1.87568">
        <ele>274.6</ele>
        <time>2022-08-14T09:53:52Z</time>
      </trkpt>
      <trkpt lat="43.96063" lon="1.8757">
        <ele>274.6</ele>
        <time>2022-08-14T09:53:53Z</time>
      </trkpt>
      <trkpt lat="43.96061" lon="1.87571">
        <ele>274.8</ele>
        <time>2022-08-14T09:53:54Z</time>
      </trkpt>
      <trkpt lat="43.96059" lon="1.87572">
        <ele>275</ele>
        <time>2022-08-14T09:53:55Z</time>
      </trkpt>
      <trkpt lat="43.96059" lon="1.87576">
        <ele>275</ele>
        <time>2022-08-14T09:53:56Z</time>
      </trkpt>
      <trkpt lat="43.96057" lon="1.87579">
        <ele>275.2</ele>
        <time>2022-08-14T09:53:57Z</time>
      </trkpt>
      <trkpt lat="43.96055" lon="1.87582">
        <ele>275.2</ele>
        <time>2022-08-14T09:53:58Z</time>
      </trkpt>
      <trkpt lat="43.96054" lon="1.87583">
        <ele>275.6</ele>
        <time>2022-08-14T09:53:59Z</time>
      </trkpt>
      <trkpt lat="43.96052" lon="1.87585">
        <ele>275.6</ele>
        <time>2022-08-14T09:54:00Z</time>
      </trkpt>
      <trkpt lat="43.96051" lon="1.87586">
        <ele>275.8</ele>
        <time>2022-08-14T09:54:01Z</time>
      </trkpt>
      <trkpt lat="43.96049" lon="1.87586">
        <ele>275.8</ele>
        <time>2022-08-14T09:54:02Z</time>
      </trkpt>
      <trkpt lat="43.96048" lon="1.87586">
        <ele>276</ele>
        <time>2022-08-14T09:54:03Z</time>
      </trkpt>
      <trkpt lat="43.96047" lon="1.87585">
        <ele>276</ele>
        <time>2022-08-14T09:54:04Z</time>
      </trkpt>
      <trkpt lat="43.96045" lon="1.87584">
        <ele>276.2</ele>
        <time>2022-08-14T09:54:05Z</time>
      </trkpt>
      <trkpt lat="43.96044" lon="1.87583">
        <ele>276.2</ele>
        <time>2022-08-14T09:54:06Z</time>
      </trkpt>
      <trkpt lat="43.96042" lon="1.87582">
        <ele>276.2</ele>
        <time>2022-08-14T09:54:07Z</time>
      </trkpt>
      <trkpt lat="43.9604" lon="1.87582">
        <ele>276.4</ele>
        <time>2022-08-14T09:54:08Z</time>
      </trkpt>
      <trkpt lat="43.96038" lon="1.87582">
        <ele>276.4</ele>
        <time>2022-08-14T09:54:09Z</time>
      </trkpt>
      <trkpt lat="43.96036" lon="1.87582">
        <ele>276.6</ele>
        <time>2022-08-14T09:54:10Z</time>
      </trkpt>
      <trkpt lat="43.96034" lon="1.87582">
        <ele>276.6</ele>
        <time>2022-08-14T09:54:11Z</time>
      </trkpt>
      <trkpt lat="43.96032" lon="1.87582">
        <ele>276.6</ele>
        <time>2022-08-14T09:54:12Z</time>
      </trkpt>
      <trkpt lat="43.9603" lon="1.87582">
        <ele>276.8</ele>
        <time>2022-08-14T09:54:13Z</time>
      </trkpt>
      <trkpt lat="43.96027" lon="1.87582">
        <ele>277</ele>
        <time>2022-08-14T09:54:14Z</time>
      </trkpt>
      <trkpt lat="43.96024" lon="1.87582">
        <ele>277</ele>
        <time>2022-08-14T09:54:15Z</time>
      </trkpt>
      <trkpt lat="43.96022" lon="1.87583">
        <ele>277.2</ele>
        <time>2022-08-14T09:54:16Z</time>
      </trkpt>
      <trkpt lat="43.96019" lon="1.87584">
        <ele>277.2</ele>
        <time>2022-08-14T09:54:17Z</time>
      </trkpt>
      <trkpt lat="43.96016" lon="1.87585">
        <ele>277.6</ele>
        <time>2022-08-14T09:54:18Z</time>
      </trkpt>
      <trkpt lat="43.96014" lon="1.87586">
        <ele>277.6</ele>
        <time>2022-08-14T09:54:19Z</time>
      </trkpt>
      <trkpt lat="43.96013" lon="1.87586">
        <ele>277.8</ele>
        <time>2022-08-14T09:54:20Z</time>
      </trkpt>
      <trkpt lat="43.9601" lon="1.87587">
        <ele>277.8</ele>
        <time>2022-08-14T09:54:21Z</time>
      </trkpt>
      <trkpt lat="43.96007" lon="1.87589">
        <ele>278</ele>
        <time>2022-08-14T09:54:22Z</time>
      </trkpt>
      <trkpt lat="43.96004" lon="1.87591">
        <ele>278.2</ele>
        <time>2022-08-14T09:54:23Z</time>
      </trkpt>
      <trkpt lat="43.96001" lon="1.87594">
        <ele>278.2</ele>
        <time>2022-08-14T09:54:24Z</time>
      </trkpt>
      <trkpt lat="43.95998" lon="1.87597">
        <ele>278.2</ele>
        <time>2022-08-14T09:54:25Z</time>
      </trkpt>
      <trkpt lat="43.95996" lon="1.876">
        <ele>278.4</ele>
        <time>2022-08-14T09:54:26Z</time>
      </trkpt>
      <trkpt lat="43.95994" lon="1.87601">
        <ele>278.4</ele>
        <time>2022-08-14T09:54:27Z</time>
      </trkpt>
      <trkpt lat="43.95992" lon="1.87603">
        <ele>278.6</ele>
        <time>2022-08-14T09:54:28Z</time>
      </trkpt>
      <trkpt lat="43.9599" lon="1.87602">
        <ele>278.6</ele>
        <time>2022-08-14T09:54:29Z</time>
      </trkpt>
      <trkpt lat="43.9599" lon="1.87599">
        <ele>278.6</ele>
        <time>2022-08-14T09:54:30Z</time>
      </trkpt>
      <trkpt lat="43.95991" lon="1.87598">
        <ele>278.8</ele>
        <time>2022-08-14T09:54:31Z</time>
      </trkpt>
      <trkpt lat="43.95992" lon="1.87597">
        <ele>278.8</ele>
        <time>2022-08-14T09:54:32Z</time>
      </trkpt>
      <trkpt lat="43.95995" lon="1.87596">
        <ele>279</ele>
        <time>2022-08-14T09:54:33Z</time>
      </trkpt>
      <trkpt lat="43.95998" lon="1.87594">
        <ele>279</ele>
        <time>2022-08-14T09:54:34Z</time>
      </trkpt>
      <trkpt lat="43.96" lon="1.87592">
        <ele>279</ele>
        <time>2022-08-14T09:54:35Z</time>
      </trkpt>
      <trkpt lat="43.96002" lon="1.87589">
        <ele>279.2</ele>
        <time>2022-08-14T09:54:36Z</time>
      </trkpt>
      <trkpt lat="43.96004" lon="1.87588">
        <ele>279.2</ele>
        <time>2022-08-14T09:54:37Z</time>
      </trkpt>
      <trkpt lat="43.96006" lon="1.87586">
        <ele>279.2</ele>
        <time>2022-08-14T09:54:38Z</time>
      </trkpt>
      <trkpt lat="43.96008" lon="1.87585">
        <ele>279.2</ele>
        <time>2022-08-14T09:54:39Z</time>
      </trkpt>
      <trkpt lat="43.96016" lon="1.87584">
        <ele>278.6</ele>
        <time>2022-08-14T09:54:43Z</time>
      </trkpt>
      <trkpt lat="43.96019" lon="1.87584">
        <ele>278.4</ele>
        <time>2022-08-14T09:54:44Z</time>
      </trkpt>
      <trkpt lat="43.96021" lon="1.87584">
        <ele>278.2</ele>
        <time>2022-08-14T09:54:45Z</time>
      </trkpt>
      <trkpt lat="43.96025" lon="1.87585">
        <ele>278.2</ele>
        <time>2022-08-14T09:54:46Z</time>
      </trkpt>
      <trkpt lat="43.96039" lon="1.87589">
        <ele>277.6</ele>
        <time>2022-08-14T09:54:49Z</time>
      </trkpt>
      <trkpt lat="43.96042" lon="1.87589">
        <ele>277.4</ele>
        <time>2022-08-14T09:54:50Z</time>
      </trkpt>
      <trkpt lat="43.96045" lon="1.87587">
        <ele>277.4</ele>
        <time>2022-08-14T09:54:51Z</time>
      </trkpt>
      <trkpt lat="43.96048" lon="1.87585">
        <ele>277.2</ele>
        <time>2022-08-14T09:54:52Z</time>
      </trkpt>
      <trkpt lat="43.9605" lon="1.87583">
        <ele>277.2</ele>
        <time>2022-08-14T09:54:53Z</time>
      </trkpt>
      <trkpt lat="43.96052" lon="1.87581">
        <ele>277</ele>
        <time>2022-08-14T09:54:54Z</time>
      </trkpt>
      <trkpt lat="43.96055" lon="1.87578">
        <ele>276.8</ele>
        <time>2022-08-14T09:54:55Z</time>
      </trkpt>
      <trkpt lat="43.96058" lon="1.87576">
        <ele>276.4</ele>
        <time>2022-08-14T09:54:56Z</time>
      </trkpt>
      <trkpt lat="43.96068" lon="1.87566">
        <ele>275.8</ele>
        <time>2022-08-14T09:54:59Z</time>
      </trkpt>
      <trkpt lat="43.96076" lon="1.87551">
        <ele>275.4</ele>
        <time>2022-08-14T09:55:02Z</time>
      </trkpt>
      <trkpt lat="43.96082" lon="1.8754">
        <ele>275</ele>
        <time>2022-08-14T09:55:04Z</time>
      </trkpt>
      <trkpt lat="43.96085" lon="1.87536">
        <ele>274.6</ele>
        <time>2022-08-14T09:55:05Z</time>
      </trkpt>
      <trkpt lat="43.96088" lon="1.87533">
        <ele>274.2</ele>
        <time>2022-08-14T09:55:06Z</time>
      </trkpt>
      <trkpt lat="43.96093" lon="1.87525">
        <ele>273.8</ele>
        <time>2022-08-14T09:55:08Z</time>
      </trkpt>
      <trkpt lat="43.96096" lon="1.87523">
        <ele>273.4</ele>
        <time>2022-08-14T09:55:09Z</time>
      </trkpt>
      <trkpt lat="43.96099" lon="1.87519">
        <ele>273.2</ele>
        <time>2022-08-14T09:55:10Z</time>
      </trkpt>
      <trkpt lat="43.96105" lon="1.87513">
        <ele>272.6</ele>
        <time>2022-08-14T09:55:12Z</time>
      </trkpt>
      <trkpt lat="43.96107" lon="1.8751">
        <ele>272.4</ele>
        <time>2022-08-14T09:55:13Z</time>
      </trkpt>
      <trkpt lat="43.96109" lon="1.87509">
        <ele>272.2</ele>
        <time>2022-08-14T09:55:14Z</time>
      </trkpt>
      <trkpt lat="43.96111" lon="1.87509">
        <ele>271.8</ele>
        <time>2022-08-14T09:55:15Z</time>
      </trkpt>
      <trkpt lat="43.96114" lon="1.87508">
        <ele>271.6</ele>
        <time>2022-08-14T09:55:16Z</time>
      </trkpt>
      <trkpt lat="43.96114" lon="1.87505">
        <ele>271</ele>
        <time>2022-08-14T09:55:17Z</time>
      </trkpt>
      <trkpt lat="43.96116" lon="1.87499">
        <ele>270.8</ele>
        <time>2022-08-14T09:55:18Z</time>
      </trkpt>
      <trkpt lat="43.96117" lon="1.87494">
        <ele>270.4</ele>
        <time>2022-08-14T09:55:19Z</time>
      </trkpt>
      <trkpt lat="43.96119" lon="1.87489">
        <ele>270</ele>
        <time>2022-08-14T09:55:20Z</time>
      </trkpt>
      <trkpt lat="43.96121" lon="1.87485">
        <ele>269.6</ele>
        <time>2022-08-14T09:55:21Z</time>
      </trkpt>
      <trkpt lat="43.96122" lon="1.87482">
        <ele>269</ele>
        <time>2022-08-14T09:55:22Z</time>
      </trkpt>
      <trkpt lat="43.96125" lon="1.87477">
        <ele>268.6</ele>
        <time>2022-08-14T09:55:23Z</time>
      </trkpt>
      <trkpt lat="43.96127" lon="1.87473">
        <ele>268</ele>
        <time>2022-08-14T09:55:24Z</time>
      </trkpt>
      <trkpt lat="43.96135" lon="1.87465">
        <ele>267.2</ele>
        <time>2022-08-14T09:55:27Z</time>
      </trkpt>
      <trkpt lat="43.96138" lon="1.87464">
        <ele>266.4</ele>
        <time>2022-08-14T09:55:28Z</time>
      </trkpt>
      <trkpt lat="43.9614" lon="1.87463">
        <ele>266</ele>
        <time>2022-08-14T09:55:29Z</time>
      </trkpt>
      <trkpt lat="43.96142" lon="1.87462">
        <ele>265.4</ele>
        <time>2022-08-14T09:55:30Z</time>
      </trkpt>
      <trkpt lat="43.96146" lon="1.87459">
        <ele>264.6</ele>
        <time>2022-08-14T09:55:31Z</time>
      </trkpt>
      <trkpt lat="43.96148" lon="1.87456">
        <ele>264.4</ele>
        <time>2022-08-14T09:55:32Z</time>
      </trkpt>
      <trkpt lat="43.96151" lon="1.87454">
        <ele>263.8</ele>
        <time>2022-08-14T09:55:33Z</time>
      </trkpt>
      <trkpt lat="43.96153" lon="1.87452">
        <ele>263.4</ele>
        <time>2022-08-14T09:55:34Z</time>
      </trkpt>
      <trkpt lat="43.96156" lon="1.87452">
        <ele>262.6</ele>
        <time>2022-08-14T09:55:35Z</time>
      </trkpt>
      <trkpt lat="43.96166" lon="1.87451">
        <ele>261</ele>
        <time>2022-08-14T09:55:38Z</time>
      </trkpt>
      <trkpt lat="43.96175" lon="1.87451">
        <ele>259.8</ele>
        <time>2022-08-14T09:55:40Z</time>
      </trkpt>
      <trkpt lat="43.9618" lon="1.87449">
        <ele>259.4</ele>
        <time>2022-08-14T09:55:41Z</time>
      </trkpt>
      <trkpt lat="43.96186" lon="1.87448">
        <ele>258.4</ele>
        <time>2022-08-14T09:55:42Z</time>
      </trkpt>
      <trkpt lat="43.96196" lon="1.87447">
        <ele>257.4</ele>
        <time>2022-08-14T09:55:44Z</time>
      </trkpt>
      <trkpt lat="43.96202" lon="1.87447">
        <ele>257.2</ele>
        <time>2022-08-14T09:55:45Z</time>
      </trkpt>
      <trkpt lat="43.96208" lon="1.87446">
        <ele>256.4</ele>
        <time>2022-08-14T09:55:46Z</time>
      </trkpt>
      <trkpt lat="43.96213" lon="1.87446">
        <ele>255.6</ele>
        <time>2022-08-14T09:55:47Z</time>
      </trkpt>
      <trkpt lat="43.96219" lon="1.87448">
        <ele>255.2</ele>
        <time>2022-08-14T09:55:48Z</time>
      </trkpt>
      <trkpt lat="43.96224" lon="1.87452">
        <ele>254.6</ele>
        <time>2022-08-14T09:55:49Z</time>
      </trkpt>
      <trkpt lat="43.96232" lon="1.87458">
        <ele>254.2</ele>
        <time>2022-08-14T09:55:50Z</time>
      </trkpt>
      <trkpt lat="43.96239" lon="1.87463">
        <ele>253.6</ele>
        <time>2022-08-14T09:55:51Z</time>
      </trkpt>
      <trkpt lat="43.96244" lon="1.87467">
        <ele>253</ele>
        <time>2022-08-14T09:55:52Z</time>
      </trkpt>
      <trkpt lat="43.9625" lon="1.8747">
        <ele>252.4</ele>
        <time>2022-08-14T09:55:53Z</time>
      </trkpt>
      <trkpt lat="43.96253" lon="1.87474">
        <ele>251.2</ele>
        <time>2022-08-14T09:55:54Z</time>
      </trkpt>
      <trkpt lat="43.96259" lon="1.87478">
        <ele>251</ele>
        <time>2022-08-14T09:55:55Z</time>
      </trkpt>
      <trkpt lat="43.96263" lon="1.87481">
        <ele>250.4</ele>
        <time>2022-08-14T09:55:56Z</time>
      </trkpt>
      <trkpt lat="43.96267" lon="1.87484">
        <ele>250.2</ele>
        <time>2022-08-14T09:55:57Z</time>
      </trkpt>
      <trkpt lat="43.96271" lon="1.87485">
        <ele>249.2</ele>
        <time>2022-08-14T09:55:58Z</time>
      </trkpt>
      <trkpt lat="43.96278" lon="1.87489">
        <ele>249</ele>
        <time>2022-08-14T09:55:59Z</time>
      </trkpt>
      <trkpt lat="43.9628" lon="1.87492">
        <ele>248.2</ele>
        <time>2022-08-14T09:56:00Z</time>
      </trkpt>
      <trkpt lat="43.96282" lon="1.87495">
        <ele>247.6</ele>
        <time>2022-08-14T09:56:01Z</time>
      </trkpt>
      <trkpt lat="43.96285" lon="1.87497">
        <ele>246.8</ele>
        <time>2022-08-14T09:56:02Z</time>
      </trkpt>
      <trkpt lat="43.96289" lon="1.87499">
        <ele>246.4</ele>
        <time>2022-08-14T09:56:03Z</time>
      </trkpt>
      <trkpt lat="43.96298" lon="1.87502">
        <ele>245.8</ele>
        <time>2022-08-14T09:56:05Z</time>
      </trkpt>
      <trkpt lat="43.96303" lon="1.87504">
        <ele>245.6</ele>
        <time>2022-08-14T09:56:06Z</time>
      </trkpt>
      <trkpt lat="43.9631" lon="1.87508">
        <ele>244.6</ele>
        <time>2022-08-14T09:56:07Z</time>
      </trkpt>
      <trkpt lat="43.96313" lon="1.8751">
        <ele>244.4</ele>
        <time>2022-08-14T09:56:08Z</time>
      </trkpt>
      <trkpt lat="43.96315" lon="1.8751">
        <ele>243.2</ele>
        <time>2022-08-14T09:56:09Z</time>
      </trkpt>
      <trkpt lat="43.96317" lon="1.87508">
        <ele>242.2</ele>
        <time>2022-08-14T09:56:10Z</time>
      </trkpt>
      <trkpt lat="43.96324" lon="1.87506">
        <ele>242</ele>
        <time>2022-08-14T09:56:11Z</time>
      </trkpt>
      <trkpt lat="43.96328" lon="1.87505">
        <ele>241.4</ele>
        <time>2022-08-14T09:56:12Z</time>
      </trkpt>
      <trkpt lat="43.96334" lon="1.87504">
        <ele>240.8</ele>
        <time>2022-08-14T09:56:13Z</time>
      </trkpt>
      <trkpt lat="43.96342" lon="1.87505">
        <ele>240</ele>
        <time>2022-08-14T09:56:14Z</time>
      </trkpt>
      <trkpt lat="43.96347" lon="1.87505">
        <ele>239.8</ele>
        <time>2022-08-14T09:56:15Z</time>
      </trkpt>
      <trkpt lat="43.96351" lon="1.87505">
        <ele>239</ele>
        <time>2022-08-14T09:56:16Z</time>
      </trkpt>
      <trkpt lat="43.96356" lon="1.87506">
        <ele>238.6</ele>
        <time>2022-08-14T09:56:17Z</time>
      </trkpt>
      <trkpt lat="43.96363" lon="1.87507">
        <ele>238.4</ele>
        <time>2022-08-14T09:56:18Z</time>
      </trkpt>
      <trkpt lat="43.9637" lon="1.87508">
        <ele>238</ele>
        <time>2022-08-14T09:56:19Z</time>
      </trkpt>
      <trkpt lat="43.96374" lon="1.87509">
        <ele>237.8</ele>
        <time>2022-08-14T09:56:20Z</time>
      </trkpt>
      <trkpt lat="43.96377" lon="1.87509">
        <ele>237.4</ele>
        <time>2022-08-14T09:56:21Z</time>
      </trkpt>
      <trkpt lat="43.96379" lon="1.8751">
        <ele>237.4</ele>
        <time>2022-08-14T09:56:22Z</time>
      </trkpt>
      <trkpt lat="43.96386" lon="1.87513">
        <ele>237</ele>
        <time>2022-08-14T09:56:24Z</time>
      </trkpt>
      <trkpt lat="43.96389" lon="1.87512">
        <ele>237</ele>
        <time>2022-08-14T09:56:25Z</time>
      </trkpt>
      <trkpt lat="43.96393" lon="1.87507">
        <ele>236.6</ele>
        <time>2022-08-14T09:56:26Z</time>
      </trkpt>
      <trkpt lat="43.96398" lon="1.87505">
        <ele>236.4</ele>
        <time>2022-08-14T09:56:27Z</time>
      </trkpt>
      <trkpt lat="43.96403" lon="1.87505">
        <ele>235.8</ele>
        <time>2022-08-14T09:56:28Z</time>
      </trkpt>
      <trkpt lat="43.96406" lon="1.87504">
        <ele>235.6</ele>
        <time>2022-08-14T09:56:29Z</time>
      </trkpt>
      <trkpt lat="43.96409" lon="1.87502">
        <ele>235.2</ele>
        <time>2022-08-14T09:56:30Z</time>
      </trkpt>
      <trkpt lat="43.96412" lon="1.875">
        <ele>235</ele>
        <time>2022-08-14T09:56:31Z</time>
      </trkpt>
      <trkpt lat="43.96414" lon="1.87499">
        <ele>234.8</ele>
        <time>2022-08-14T09:56:32Z</time>
      </trkpt>
      <trkpt lat="43.96416" lon="1.87498">
        <ele>234.4</ele>
        <time>2022-08-14T09:56:33Z</time>
      </trkpt>
      <trkpt lat="43.96419" lon="1.87498">
        <ele>234.4</ele>
        <time>2022-08-14T09:56:34Z</time>
      </trkpt>
      <trkpt lat="43.96421" lon="1.87497">
        <ele>234.2</ele>
        <time>2022-08-14T09:56:35Z</time>
      </trkpt>
      <trkpt lat="43.96423" lon="1.87496">
        <ele>234</ele>
        <time>2022-08-14T09:56:36Z</time>
      </trkpt>
      <trkpt lat="43.96425" lon="1.87496">
        <ele>234</ele>
        <time>2022-08-14T09:56:37Z</time>
      </trkpt>
      <trkpt lat="43.96427" lon="1.87495">
        <ele>234</ele>
        <time>2022-08-14T09:56:38Z</time>
      </trkpt>
      <trkpt lat="43.96429" lon="1.87494">
        <ele>234</ele>
        <time>2022-08-14T09:56:39Z</time>
      </trkpt>
      <trkpt lat="43.96431" lon="1.87493">
        <ele>234</ele>
        <time>2022-08-14T09:56:40Z</time>
      </trkpt>
      <trkpt lat="43.96434" lon="1.87492">
        <ele>234</ele>
        <time>2022-08-14T09:56:41Z</time>
      </trkpt>
      <trkpt lat="43.96458" lon="1.8748">
        <ele>233.8</ele>
        <time>2022-08-14T09:56:48Z</time>
      </trkpt>
      <trkpt lat="43.96489" lon="1.87468">
        <ele>233.4</ele>
        <time>2022-08-14T09:56:55Z</time>
      </trkpt>
      <trkpt lat="43.96495" lon="1.87467">
        <ele>233.4</ele>
        <time>2022-08-14T09:56:56Z</time>
      </trkpt>
      <trkpt lat="43.96501" lon="1.8746">
        <ele>233</ele>
        <time>2022-08-14T09:56:58Z</time>
      </trkpt>
      <trkpt lat="43.96505" lon="1.87455">
        <ele>233</ele>
        <time>2022-08-14T09:56:59Z</time>
      </trkpt>
      <trkpt lat="43.9651" lon="1.87451">
        <ele>232.8</ele>
        <time>2022-08-14T09:57:00Z</time>
      </trkpt>
      <trkpt lat="43.96513" lon="1.87446">
        <ele>232.6</ele>
        <time>2022-08-14T09:57:01Z</time>
      </trkpt>
      <trkpt lat="43.96518" lon="1.87439">
        <ele>232.2</ele>
        <time>2022-08-14T09:57:02Z</time>
      </trkpt>
      <trkpt lat="43.96522" lon="1.87433">
        <ele>232</ele>
        <time>2022-08-14T09:57:03Z</time>
      </trkpt>
      <trkpt lat="43.96525" lon="1.87427">
        <ele>231.6</ele>
        <time>2022-08-14T09:57:04Z</time>
      </trkpt>
      <trkpt lat="43.96527" lon="1.87424">
        <ele>231.2</ele>
        <time>2022-08-14T09:57:05Z</time>
      </trkpt>
      <trkpt lat="43.96529" lon="1.87422">
        <ele>231.2</ele>
        <time>2022-08-14T09:57:06Z</time>
      </trkpt>
      <trkpt lat="43.96531" lon="1.87421">
        <ele>230.6</ele>
        <time>2022-08-14T09:57:07Z</time>
      </trkpt>
      <trkpt lat="43.96534" lon="1.87421">
        <ele>230.6</ele>
        <time>2022-08-14T09:57:08Z</time>
      </trkpt>
      <trkpt lat="43.96537" lon="1.87421">
        <ele>230.2</ele>
        <time>2022-08-14T09:57:09Z</time>
      </trkpt>
      <trkpt lat="43.96539" lon="1.87421">
        <ele>230</ele>
        <time>2022-08-14T09:57:10Z</time>
      </trkpt>
      <trkpt lat="43.96542" lon="1.87421">
        <ele>229.6</ele>
        <time>2022-08-14T09:57:11Z</time>
      </trkpt>
      <trkpt lat="43.96557" lon="1.87419">
        <ele>228.4</ele>
        <time>2022-08-14T09:57:14Z</time>
      </trkpt>
      <trkpt lat="43.96561" lon="1.87416">
        <ele>228.2</ele>
        <time>2022-08-14T09:57:15Z</time>
      </trkpt>
      <trkpt lat="43.96565" lon="1.8741">
        <ele>227.8</ele>
        <time>2022-08-14T09:57:16Z</time>
      </trkpt>
      <trkpt lat="43.96569" lon="1.87404">
        <ele>227.6</ele>
        <time>2022-08-14T09:57:17Z</time>
      </trkpt>
      <trkpt lat="43.96572" lon="1.87397">
        <ele>227</ele>
        <time>2022-08-14T09:57:18Z</time>
      </trkpt>
      <trkpt lat="43.96576" lon="1.87389">
        <ele>226.8</ele>
        <time>2022-08-14T09:57:19Z</time>
      </trkpt>
      <trkpt lat="43.96579" lon="1.87382">
        <ele>225.8</ele>
        <time>2022-08-14T09:57:20Z</time>
      </trkpt>
      <trkpt lat="43.96582" lon="1.87377">
        <ele>225.2</ele>
        <time>2022-08-14T09:57:21Z</time>
      </trkpt>
      <trkpt lat="43.96584" lon="1.87373">
        <ele>225</ele>
        <time>2022-08-14T09:57:22Z</time>
      </trkpt>
      <trkpt lat="43.96585" lon="1.8737">
        <ele>224.6</ele>
        <time>2022-08-14T09:57:23Z</time>
      </trkpt>
      <trkpt lat="43.96588" lon="1.87366">
        <ele>224.4</ele>
        <time>2022-08-14T09:57:24Z</time>
      </trkpt>
      <trkpt lat="43.96595" lon="1.87357">
        <ele>224.2</ele>
        <time>2022-08-14T09:57:26Z</time>
      </trkpt>
      <trkpt lat="43.96598" lon="1.87345">
        <ele>223.8</ele>
        <time>2022-08-14T09:57:28Z</time>
      </trkpt>
      <trkpt lat="43.96599" lon="1.87339">
        <ele>223</ele>
        <time>2022-08-14T09:57:29Z</time>
      </trkpt>
      <trkpt lat="43.96601" lon="1.87333">
        <ele>222.8</ele>
        <time>2022-08-14T09:57:30Z</time>
      </trkpt>
      <trkpt lat="43.96603" lon="1.87328">
        <ele>222.6</ele>
        <time>2022-08-14T09:57:31Z</time>
      </trkpt>
      <trkpt lat="43.96604" lon="1.87323">
        <ele>222.4</ele>
        <time>2022-08-14T09:57:32Z</time>
      </trkpt>
      <trkpt lat="43.96605" lon="1.87319">
        <ele>222.2</ele>
        <time>2022-08-14T09:57:33Z</time>
      </trkpt>
      <trkpt lat="43.96606" lon="1.87315">
        <ele>221.6</ele>
        <time>2022-08-14T09:57:34Z</time>
      </trkpt>
      <trkpt lat="43.96607" lon="1.8731">
        <ele>221.4</ele>
        <time>2022-08-14T09:57:35Z</time>
      </trkpt>
      <trkpt lat="43.96611" lon="1.87301">
        <ele>220.8</ele>
        <time>2022-08-14T09:57:37Z</time>
      </trkpt>
      <trkpt lat="43.96613" lon="1.87297">
        <ele>220.8</ele>
        <time>2022-08-14T09:57:38Z</time>
      </trkpt>
      <trkpt lat="43.96615" lon="1.87292">
        <ele>220.6</ele>
        <time>2022-08-14T09:57:39Z</time>
      </trkpt>
      <trkpt lat="43.96618" lon="1.87285">
        <ele>220.6</ele>
        <time>2022-08-14T09:57:40Z</time>
      </trkpt>
      <trkpt lat="43.9662" lon="1.87279">
        <ele>220.2</ele>
        <time>2022-08-14T09:57:41Z</time>
      </trkpt>
      <trkpt lat="43.96621" lon="1.87273">
        <ele>220.2</ele>
        <time>2022-08-14T09:57:42Z</time>
      </trkpt>
      <trkpt lat="43.96621" lon="1.87266">
        <ele>220.2</ele>
        <time>2022-08-14T09:57:43Z</time>
      </trkpt>
      <trkpt lat="43.96622" lon="1.87261">
        <ele>220</ele>
        <time>2022-08-14T09:57:44Z</time>
      </trkpt>
      <trkpt lat="43.96623" lon="1.87258">
        <ele>220</ele>
        <time>2022-08-14T09:57:45Z</time>
      </trkpt>
      <trkpt lat="43.96624" lon="1.87255">
        <ele>220</ele>
        <time>2022-08-14T09:57:46Z</time>
      </trkpt>
      <trkpt lat="43.96626" lon="1.8725">
        <ele>220</ele>
        <time>2022-08-14T09:57:47Z</time>
      </trkpt>
      <trkpt lat="43.96627" lon="1.87247">
        <ele>220</ele>
        <time>2022-08-14T09:57:48Z</time>
      </trkpt>
      <trkpt lat="43.96629" lon="1.87244">
        <ele>220.2</ele>
        <time>2022-08-14T09:57:49Z</time>
      </trkpt>
      <trkpt lat="43.96635" lon="1.87237">
        <ele>220.2</ele>
        <time>2022-08-14T09:57:51Z</time>
      </trkpt>
      <trkpt lat="43.96638" lon="1.87228">
        <ele>220</ele>
        <time>2022-08-14T09:57:52Z</time>
      </trkpt>
      <trkpt lat="43.96642" lon="1.87216">
        <ele>220.2</ele>
        <time>2022-08-14T09:57:55Z</time>
      </trkpt>
      <trkpt lat="43.96643" lon="1.87213">
        <ele>220.2</ele>
        <time>2022-08-14T09:57:56Z</time>
      </trkpt>
      <trkpt lat="43.96647" lon="1.87206">
        <ele>220.2</ele>
        <time>2022-08-14T09:57:57Z</time>
      </trkpt>
      <trkpt lat="43.96649" lon="1.872">
        <ele>220.2</ele>
        <time>2022-08-14T09:57:58Z</time>
      </trkpt>
      <trkpt lat="43.96653" lon="1.8719">
        <ele>220.2</ele>
        <time>2022-08-14T09:58:00Z</time>
      </trkpt>
      <trkpt lat="43.96657" lon="1.87188">
        <ele>220</ele>
        <time>2022-08-14T09:58:02Z</time>
      </trkpt>
      <trkpt lat="43.9666" lon="1.87189">
        <ele>220</ele>
        <time>2022-08-14T09:58:03Z</time>
      </trkpt>
      <trkpt lat="43.96663" lon="1.87191">
        <ele>220</ele>
        <time>2022-08-14T09:58:04Z</time>
      </trkpt>
      <trkpt lat="43.96671" lon="1.87191">
        <ele>219.8</ele>
        <time>2022-08-14T09:58:06Z</time>
      </trkpt>
      <trkpt lat="43.96673" lon="1.87192">
        <ele>219.8</ele>
        <time>2022-08-14T09:58:07Z</time>
      </trkpt>
      <trkpt lat="43.96676" lon="1.87193">
        <ele>219.4</ele>
        <time>2022-08-14T09:58:08Z</time>
      </trkpt>
      <trkpt lat="43.96679" lon="1.87194">
        <ele>219.2</ele>
        <time>2022-08-14T09:58:09Z</time>
      </trkpt>
      <trkpt lat="43.96683" lon="1.87196">
        <ele>219</ele>
        <time>2022-08-14T09:58:10Z</time>
      </trkpt>
      <trkpt lat="43.96685" lon="1.87197">
        <ele>218.8</ele>
        <time>2022-08-14T09:58:11Z</time>
      </trkpt>
      <trkpt lat="43.96687" lon="1.87197">
        <ele>218.8</ele>
        <time>2022-08-14T09:58:12Z</time>
      </trkpt>
      <trkpt lat="43.96687" lon="1.87198">
        <ele>218.4</ele>
        <time>2022-08-14T09:58:13Z</time>
      </trkpt>
      <trkpt lat="43.96688" lon="1.87199">
        <ele>218.2</ele>
        <time>2022-08-14T09:58:14Z</time>
      </trkpt>
      <trkpt lat="43.9669" lon="1.87199">
        <ele>218</ele>
        <time>2022-08-14T09:58:15Z</time>
      </trkpt>
      <trkpt lat="43.96692" lon="1.87199">
        <ele>218</ele>
        <time>2022-08-14T09:58:16Z</time>
      </trkpt>
      <trkpt lat="43.96693" lon="1.872">
        <ele>218</ele>
        <time>2022-08-14T09:58:17Z</time>
      </trkpt>
      <trkpt lat="43.96693" lon="1.87201">
        <ele>217.6</ele>
        <time>2022-08-14T09:58:18Z</time>
      </trkpt>
      <trkpt lat="43.96692" lon="1.87201">
        <ele>217.8</ele>
        <time>2022-08-14T09:58:19Z</time>
      </trkpt>
      <trkpt lat="43.96692" lon="1.87199">
        <ele>217.6</ele>
        <time>2022-08-14T09:58:22Z</time>
      </trkpt>
      <trkpt lat="43.96691" lon="1.87196">
        <ele>217.6</ele>
        <time>2022-08-14T09:58:24Z</time>
      </trkpt>
      <trkpt lat="43.9669" lon="1.87195">
        <ele>217.4</ele>
        <time>2022-08-14T09:58:25Z</time>
      </trkpt>
      <trkpt lat="43.96689" lon="1.87194">
        <ele>217.4</ele>
        <time>2022-08-14T09:58:27Z</time>
      </trkpt>
      <trkpt lat="43.96688" lon="1.87192">
        <ele>217.4</ele>
        <time>2022-08-14T09:58:28Z</time>
      </trkpt>
      <trkpt lat="43.96688" lon="1.87191">
        <ele>217.6</ele>
        <time>2022-08-14T09:58:29Z</time>
      </trkpt>
      <trkpt lat="43.96686" lon="1.87189">
        <ele>217.6</ele>
        <time>2022-08-14T09:58:30Z</time>
      </trkpt>
      <trkpt lat="43.96684" lon="1.87188">
        <ele>217.6</ele>
        <time>2022-08-14T09:58:31Z</time>
      </trkpt>
      <trkpt lat="43.96683" lon="1.87188">
        <ele>217.6</ele>
        <time>2022-08-14T09:58:32Z</time>
      </trkpt>
      <trkpt lat="43.96681" lon="1.87187">
        <ele>217.8</ele>
        <time>2022-08-14T09:58:33Z</time>
      </trkpt>
      <trkpt lat="43.96672" lon="1.87184">
        <ele>218</ele>
        <time>2022-08-14T09:58:38Z</time>
      </trkpt>
      <trkpt lat="43.96671" lon="1.87184">
        <ele>218</ele>
        <time>2022-08-14T09:58:39Z</time>
      </trkpt>
      <trkpt lat="43.96669" lon="1.87184">
        <ele>218.2</ele>
        <time>2022-08-14T09:58:40Z</time>
      </trkpt>
      <trkpt lat="43.96664" lon="1.87184">
        <ele>218.4</ele>
        <time>2022-08-14T09:58:43Z</time>
      </trkpt>
      <trkpt lat="43.96662" lon="1.87185">
        <ele>218.6</ele>
        <time>2022-08-14T09:58:44Z</time>
      </trkpt>
      <trkpt lat="43.9666" lon="1.87186">
        <ele>218.6</ele>
        <time>2022-08-14T09:58:45Z</time>
      </trkpt>
      <trkpt lat="43.96658" lon="1.87188">
        <ele>218.6</ele>
        <time>2022-08-14T09:58:46Z</time>
      </trkpt>
      <trkpt lat="43.96657" lon="1.8719">
        <ele>218.8</ele>
        <time>2022-08-14T09:58:47Z</time>
      </trkpt>
      <trkpt lat="43.96656" lon="1.87193">
        <ele>218.8</ele>
        <time>2022-08-14T09:58:48Z</time>
      </trkpt>
      <trkpt lat="43.96655" lon="1.87195">
        <ele>219</ele>
        <time>2022-08-14T09:58:49Z</time>
      </trkpt>
      <trkpt lat="43.96654" lon="1.87197">
        <ele>219.2</ele>
        <time>2022-08-14T09:58:50Z</time>
      </trkpt>
      <trkpt lat="43.96647" lon="1.87208">
        <ele>219.4</ele>
        <time>2022-08-14T09:58:55Z</time>
      </trkpt>
      <trkpt lat="43.96645" lon="1.87215">
        <ele>219.6</ele>
        <time>2022-08-14T09:58:57Z</time>
      </trkpt>
      <trkpt lat="43.96634" lon="1.87238">
        <ele>220.2</ele>
        <time>2022-08-14T09:59:03Z</time>
      </trkpt>
      <trkpt lat="43.96629" lon="1.87252">
        <ele>220.2</ele>
        <time>2022-08-14T09:59:06Z</time>
      </trkpt>
      <trkpt lat="43.96628" lon="1.87256">
        <ele>220.2</ele>
        <time>2022-08-14T09:59:07Z</time>
      </trkpt>
      <trkpt lat="43.96627" lon="1.87261">
        <ele>220.2</ele>
        <time>2022-08-14T09:59:08Z</time>
      </trkpt>
      <trkpt lat="43.96626" lon="1.87265">
        <ele>220.2</ele>
        <time>2022-08-14T09:59:09Z</time>
      </trkpt>
      <trkpt lat="43.96623" lon="1.87268">
        <ele>220.2</ele>
        <time>2022-08-14T09:59:10Z</time>
      </trkpt>
      <trkpt lat="43.96622" lon="1.87274">
        <ele>220.2</ele>
        <time>2022-08-14T09:59:11Z</time>
      </trkpt>
      <trkpt lat="43.96619" lon="1.87281">
        <ele>220.2</ele>
        <time>2022-08-14T09:59:12Z</time>
      </trkpt>
      <trkpt lat="43.96619" lon="1.87292">
        <ele>220.2</ele>
        <time>2022-08-14T09:59:14Z</time>
      </trkpt>
      <trkpt lat="43.96617" lon="1.87297">
        <ele>220</ele>
        <time>2022-08-14T09:59:15Z</time>
      </trkpt>
      <trkpt lat="43.96616" lon="1.873">
        <ele>220</ele>
        <time>2022-08-14T09:59:16Z</time>
      </trkpt>
      <trkpt lat="43.96613" lon="1.87302">
        <ele>220</ele>
        <time>2022-08-14T09:59:17Z</time>
      </trkpt>
      <trkpt lat="43.96612" lon="1.87304">
        <ele>220</ele>
        <time>2022-08-14T09:59:18Z</time>
      </trkpt>
      <trkpt lat="43.96612" lon="1.87308">
        <ele>220</ele>
        <time>2022-08-14T09:59:19Z</time>
      </trkpt>
      <trkpt lat="43.96611" lon="1.8731">
        <ele>220</ele>
        <time>2022-08-14T09:59:20Z</time>
      </trkpt>
      <trkpt lat="43.96611" lon="1.87313">
        <ele>220.2</ele>
        <time>2022-08-14T09:59:21Z</time>
      </trkpt>
      <trkpt lat="43.96602" lon="1.8733">
        <ele>220.4</ele>
        <time>2022-08-14T09:59:24Z</time>
      </trkpt>
      <trkpt lat="43.96602" lon="1.87336">
        <ele>220.4</ele>
        <time>2022-08-14T09:59:25Z</time>
      </trkpt>
      <trkpt lat="43.96601" lon="1.87347">
        <ele>220.4</ele>
        <time>2022-08-14T09:59:27Z</time>
      </trkpt>
      <trkpt lat="43.96601" lon="1.87351">
        <ele>220.6</ele>
        <time>2022-08-14T09:59:28Z</time>
      </trkpt>
      <trkpt lat="43.96599" lon="1.87353">
        <ele>220.6</ele>
        <time>2022-08-14T09:59:29Z</time>
      </trkpt>
      <trkpt lat="43.96595" lon="1.87357">
        <ele>220.6</ele>
        <time>2022-08-14T09:59:30Z</time>
      </trkpt>
      <trkpt lat="43.96593" lon="1.87359">
        <ele>220.8</ele>
        <time>2022-08-14T09:59:31Z</time>
      </trkpt>
      <trkpt lat="43.96591" lon="1.87361">
        <ele>220.8</ele>
        <time>2022-08-14T09:59:32Z</time>
      </trkpt>
      <trkpt lat="43.96588" lon="1.87363">
        <ele>221</ele>
        <time>2022-08-14T09:59:33Z</time>
      </trkpt>
      <trkpt lat="43.96586" lon="1.87364">
        <ele>221</ele>
        <time>2022-08-14T09:59:34Z</time>
      </trkpt>
      <trkpt lat="43.96587" lon="1.87367">
        <ele>221.2</ele>
        <time>2022-08-14T09:59:35Z</time>
      </trkpt>
      <trkpt lat="43.96587" lon="1.87368">
        <ele>221.4</ele>
        <time>2022-08-14T09:59:36Z</time>
      </trkpt>
      <trkpt lat="43.96586" lon="1.87371">
        <ele>221.4</ele>
        <time>2022-08-14T09:59:37Z</time>
      </trkpt>
      <trkpt lat="43.96584" lon="1.87374">
        <ele>221.6</ele>
        <time>2022-08-14T09:59:38Z</time>
      </trkpt>
      <trkpt lat="43.96582" lon="1.87376">
        <ele>221.8</ele>
        <time>2022-08-14T09:59:39Z</time>
      </trkpt>
      <trkpt lat="43.96581" lon="1.87379">
        <ele>222</ele>
        <time>2022-08-14T09:59:40Z</time>
      </trkpt>
      <trkpt lat="43.9658" lon="1.87381">
        <ele>222.2</ele>
        <time>2022-08-14T09:59:41Z</time>
      </trkpt>
      <trkpt lat="43.9658" lon="1.87383">
        <ele>222.4</ele>
        <time>2022-08-14T09:59:42Z</time>
      </trkpt>
      <trkpt lat="43.9658" lon="1.87386">
        <ele>222.4</ele>
        <time>2022-08-14T09:59:43Z</time>
      </trkpt>
      <trkpt lat="43.96579" lon="1.87389">
        <ele>222.6</ele>
        <time>2022-08-14T09:59:44Z</time>
      </trkpt>
      <trkpt lat="43.96579" lon="1.8739">
        <ele>222.6</ele>
        <time>2022-08-14T09:59:45Z</time>
      </trkpt>
      <trkpt lat="43.96579" lon="1.87393">
        <ele>222.6</ele>
        <time>2022-08-14T09:59:46Z</time>
      </trkpt>
      <trkpt lat="43.96577" lon="1.87396">
        <ele>222.8</ele>
        <time>2022-08-14T09:59:48Z</time>
      </trkpt>
      <trkpt lat="43.96577" lon="1.87396">
        <ele>222.8</ele>
        <time>2022-08-14T09:59:49Z</time>
      </trkpt>
      <trkpt lat="43.96577" lon="1.87396">
        <ele>223</ele>
        <time>2022-08-14T09:59:50Z</time>
      </trkpt>
      <trkpt lat="43.96575" lon="1.87398">
        <ele>223</ele>
        <time>2022-08-14T09:59:51Z</time>
      </trkpt>
      <trkpt lat="43.96574" lon="1.874">
        <ele>223.2</ele>
        <time>2022-08-14T09:59:52Z</time>
      </trkpt>
      <trkpt lat="43.96572" lon="1.87402">
        <ele>223.2</ele>
        <time>2022-08-14T09:59:53Z</time>
      </trkpt>
      <trkpt lat="43.96571" lon="1.87404">
        <ele>223.4</ele>
        <time>2022-08-14T09:59:54Z</time>
      </trkpt>
      <trkpt lat="43.96569" lon="1.87405">
        <ele>223.4</ele>
        <time>2022-08-14T09:59:55Z</time>
      </trkpt>
      <trkpt lat="43.96567" lon="1.87407">
        <ele>223.6</ele>
        <time>2022-08-14T09:59:56Z</time>
      </trkpt>
      <trkpt lat="43.96566" lon="1.87408">
        <ele>223.8</ele>
        <time>2022-08-14T09:59:57Z</time>
      </trkpt>
      <trkpt lat="43.96563" lon="1.8741">
        <ele>223.8</ele>
        <time>2022-08-14T09:59:58Z</time>
      </trkpt>
      <trkpt lat="43.96562" lon="1.87411">
        <ele>224</ele>
        <time>2022-08-14T09:59:59Z</time>
      </trkpt>
      <trkpt lat="43.96561" lon="1.87412">
        <ele>224.2</ele>
        <time>2022-08-14T10:00:00Z</time>
      </trkpt>
      <trkpt lat="43.96559" lon="1.87414">
        <ele>224.4</ele>
        <time>2022-08-14T10:00:01Z</time>
      </trkpt>
      <trkpt lat="43.96559" lon="1.87415">
        <ele>224.4</ele>
        <time>2022-08-14T10:00:02Z</time>
      </trkpt>
      <trkpt lat="43.96558" lon="1.87415">
        <ele>224.6</ele>
        <time>2022-08-14T10:00:03Z</time>
      </trkpt>
      <trkpt lat="43.96558" lon="1.87416">
        <ele>224.6</ele>
        <time>2022-08-14T10:00:04Z</time>
      </trkpt>
      <trkpt lat="43.96557" lon="1.87417">
        <ele>224.8</ele>
        <time>2022-08-14T10:00:05Z</time>
      </trkpt>
      <trkpt lat="43.96556" lon="1.87418">
        <ele>225</ele>
        <time>2022-08-14T10:00:06Z</time>
      </trkpt>
      <trkpt lat="43.96554" lon="1.87418">
        <ele>225</ele>
        <time>2022-08-14T10:00:07Z</time>
      </trkpt>
      <trkpt lat="43.96552" lon="1.87418">
        <ele>225.4</ele>
        <time>2022-08-14T10:00:08Z</time>
      </trkpt>
      <trkpt lat="43.9655" lon="1.87419">
        <ele>225.4</ele>
        <time>2022-08-14T10:00:09Z</time>
      </trkpt>
      <trkpt lat="43.96548" lon="1.87419">
        <ele>225.8</ele>
        <time>2022-08-14T10:00:10Z</time>
      </trkpt>
      <trkpt lat="43.96546" lon="1.87421">
        <ele>226</ele>
        <time>2022-08-14T10:00:11Z</time>
      </trkpt>
      <trkpt lat="43.96544" lon="1.87421">
        <ele>226.4</ele>
        <time>2022-08-14T10:00:12Z</time>
      </trkpt>
      <trkpt lat="43.96542" lon="1.8742">
        <ele>226.6</ele>
        <time>2022-08-14T10:00:13Z</time>
      </trkpt>
      <trkpt lat="43.9654" lon="1.87421">
        <ele>227</ele>
        <time>2022-08-14T10:00:14Z</time>
      </trkpt>
      <trkpt lat="43.96537" lon="1.87422">
        <ele>227.2</ele>
        <time>2022-08-14T10:00:15Z</time>
      </trkpt>
      <trkpt lat="43.96536" lon="1.87424">
        <ele>227.4</ele>
        <time>2022-08-14T10:00:16Z</time>
      </trkpt>
      <trkpt lat="43.96535" lon="1.87425">
        <ele>227.6</ele>
        <time>2022-08-14T10:00:17Z</time>
      </trkpt>
      <trkpt lat="43.96532" lon="1.87428">
        <ele>227.8</ele>
        <time>2022-08-14T10:00:18Z</time>
      </trkpt>
      <trkpt lat="43.9653" lon="1.87431">
        <ele>228</ele>
        <time>2022-08-14T10:00:19Z</time>
      </trkpt>
      <trkpt lat="43.9653" lon="1.87432">
        <ele>228</ele>
        <time>2022-08-14T10:00:20Z</time>
      </trkpt>
      <trkpt lat="43.9653" lon="1.87434">
        <ele>228.4</ele>
        <time>2022-08-14T10:00:21Z</time>
      </trkpt>
      <trkpt lat="43.96529" lon="1.87435">
        <ele>228.4</ele>
        <time>2022-08-14T10:00:22Z</time>
      </trkpt>
      <trkpt lat="43.96529" lon="1.87438">
        <ele>228.6</ele>
        <time>2022-08-14T10:00:23Z</time>
      </trkpt>
      <trkpt lat="43.96526" lon="1.8744">
        <ele>228.8</ele>
        <time>2022-08-14T10:00:24Z</time>
      </trkpt>
      <trkpt lat="43.96523" lon="1.87441">
        <ele>228.8</ele>
        <time>2022-08-14T10:00:25Z</time>
      </trkpt>
      <trkpt lat="43.96522" lon="1.87442">
        <ele>229</ele>
        <time>2022-08-14T10:00:26Z</time>
      </trkpt>
      <trkpt lat="43.96521" lon="1.87444">
        <ele>229.2</ele>
        <time>2022-08-14T10:00:27Z</time>
      </trkpt>
      <trkpt lat="43.96519" lon="1.87445">
        <ele>229.4</ele>
        <time>2022-08-14T10:00:28Z</time>
      </trkpt>
      <trkpt lat="43.96518" lon="1.87446">
        <ele>229.4</ele>
        <time>2022-08-14T10:00:29Z</time>
      </trkpt>
      <trkpt lat="43.96517" lon="1.87447">
        <ele>229.6</ele>
        <time>2022-08-14T10:00:30Z</time>
      </trkpt>
      <trkpt lat="43.96516" lon="1.87448">
        <ele>229.6</ele>
        <time>2022-08-14T10:00:31Z</time>
      </trkpt>
      <trkpt lat="43.96515" lon="1.87449">
        <ele>229.8</ele>
        <time>2022-08-14T10:00:32Z</time>
      </trkpt>
      <trkpt lat="43.96514" lon="1.8745">
        <ele>230.2</ele>
        <time>2022-08-14T10:00:33Z</time>
      </trkpt>
      <trkpt lat="43.96513" lon="1.87451">
        <ele>230.2</ele>
        <time>2022-08-14T10:00:34Z</time>
      </trkpt>
      <trkpt lat="43.96512" lon="1.87453">
        <ele>230.4</ele>
        <time>2022-08-14T10:00:35Z</time>
      </trkpt>
      <trkpt lat="43.96511" lon="1.87454">
        <ele>230.6</ele>
        <time>2022-08-14T10:00:36Z</time>
      </trkpt>
      <trkpt lat="43.9651" lon="1.87454">
        <ele>230.8</ele>
        <time>2022-08-14T10:00:37Z</time>
      </trkpt>
      <trkpt lat="43.96508" lon="1.87455">
        <ele>230.8</ele>
        <time>2022-08-14T10:00:38Z</time>
      </trkpt>
      <trkpt lat="43.96506" lon="1.87456">
        <ele>231</ele>
        <time>2022-08-14T10:00:39Z</time>
      </trkpt>
      <trkpt lat="43.96504" lon="1.87456">
        <ele>231.2</ele>
        <time>2022-08-14T10:00:40Z</time>
      </trkpt>
      <trkpt lat="43.96503" lon="1.87458">
        <ele>231.2</ele>
        <time>2022-08-14T10:00:41Z</time>
      </trkpt>
      <trkpt lat="43.96501" lon="1.87459">
        <ele>231.4</ele>
        <time>2022-08-14T10:00:42Z</time>
      </trkpt>
      <trkpt lat="43.96499" lon="1.8746">
        <ele>231.4</ele>
        <time>2022-08-14T10:00:43Z</time>
      </trkpt>
      <trkpt lat="43.96497" lon="1.87461">
        <ele>231.6</ele>
        <time>2022-08-14T10:00:44Z</time>
      </trkpt>
      <trkpt lat="43.96495" lon="1.87463">
        <ele>231.6</ele>
        <time>2022-08-14T10:00:45Z</time>
      </trkpt>
      <trkpt lat="43.96493" lon="1.87463">
        <ele>231.8</ele>
        <time>2022-08-14T10:00:46Z</time>
      </trkpt>
      <trkpt lat="43.96492" lon="1.87464">
        <ele>231.8</ele>
        <time>2022-08-14T10:00:47Z</time>
      </trkpt>
      <trkpt lat="43.9649" lon="1.87464">
        <ele>232</ele>
        <time>2022-08-14T10:00:48Z</time>
      </trkpt>
      <trkpt lat="43.96489" lon="1.87465">
        <ele>232</ele>
        <time>2022-08-14T10:00:49Z</time>
      </trkpt>
      <trkpt lat="43.96487" lon="1.87467">
        <ele>232</ele>
        <time>2022-08-14T10:00:50Z</time>
      </trkpt>
      <trkpt lat="43.96486" lon="1.87469">
        <ele>232.2</ele>
        <time>2022-08-14T10:00:51Z</time>
      </trkpt>
      <trkpt lat="43.96484" lon="1.87471">
        <ele>232.2</ele>
        <time>2022-08-14T10:00:52Z</time>
      </trkpt>
      <trkpt lat="43.96482" lon="1.87472">
        <ele>232.2</ele>
        <time>2022-08-14T10:00:53Z</time>
      </trkpt>
      <trkpt lat="43.96481" lon="1.87473">
        <ele>232.4</ele>
        <time>2022-08-14T10:00:54Z</time>
      </trkpt>
      <trkpt lat="43.96479" lon="1.87474">
        <ele>232.4</ele>
        <time>2022-08-14T10:00:55Z</time>
      </trkpt>
      <trkpt lat="43.96477" lon="1.87474">
        <ele>232.6</ele>
        <time>2022-08-14T10:00:56Z</time>
      </trkpt>
      <trkpt lat="43.96475" lon="1.87475">
        <ele>232.8</ele>
        <time>2022-08-14T10:00:57Z</time>
      </trkpt>
      <trkpt lat="43.96473" lon="1.87477">
        <ele>233</ele>
        <time>2022-08-14T10:00:58Z</time>
      </trkpt>
      <trkpt lat="43.96471" lon="1.87477">
        <ele>233</ele>
        <time>2022-08-14T10:00:59Z</time>
      </trkpt>
      <trkpt lat="43.96468" lon="1.87478">
        <ele>233</ele>
        <time>2022-08-14T10:01:00Z</time>
      </trkpt>
      <trkpt lat="43.96465" lon="1.87478">
        <ele>233.2</ele>
        <time>2022-08-14T10:01:01Z</time>
      </trkpt>
      <trkpt lat="43.96461" lon="1.87476">
        <ele>233.2</ele>
        <time>2022-08-14T10:01:02Z</time>
      </trkpt>
      <trkpt lat="43.96459" lon="1.87477">
        <ele>233.4</ele>
        <time>2022-08-14T10:01:03Z</time>
      </trkpt>
      <trkpt lat="43.96455" lon="1.87478">
        <ele>233.4</ele>
        <time>2022-08-14T10:01:04Z</time>
      </trkpt>
      <trkpt lat="43.96453" lon="1.87481">
        <ele>233.6</ele>
        <time>2022-08-14T10:01:05Z</time>
      </trkpt>
      <trkpt lat="43.9645" lon="1.87484">
        <ele>233.6</ele>
        <time>2022-08-14T10:01:06Z</time>
      </trkpt>
      <trkpt lat="43.96448" lon="1.87485">
        <ele>233.6</ele>
        <time>2022-08-14T10:01:07Z</time>
      </trkpt>
      <trkpt lat="43.96446" lon="1.87485">
        <ele>233.6</ele>
        <time>2022-08-14T10:01:08Z</time>
      </trkpt>
      <trkpt lat="43.96444" lon="1.87486">
        <ele>233.8</ele>
        <time>2022-08-14T10:01:09Z</time>
      </trkpt>
      <trkpt lat="43.9644" lon="1.87489">
        <ele>233.8</ele>
        <time>2022-08-14T10:01:10Z</time>
      </trkpt>
      <trkpt lat="43.96435" lon="1.87491">
        <ele>233.8</ele>
        <time>2022-08-14T10:01:11Z</time>
      </trkpt>
      <trkpt lat="43.96432" lon="1.87492">
        <ele>233.8</ele>
        <time>2022-08-14T10:01:12Z</time>
      </trkpt>
      <trkpt lat="43.96418" lon="1.87499">
        <ele>234</ele>
        <time>2022-08-14T10:01:16Z</time>
      </trkpt>
      <trkpt lat="43.96404" lon="1.87503">
        <ele>234</ele>
        <time>2022-08-14T10:01:20Z</time>
      </trkpt>
      <trkpt lat="43.96402" lon="1.87505">
        <ele>234</ele>
        <time>2022-08-14T10:01:21Z</time>
      </trkpt>
      <trkpt lat="43.96399" lon="1.87505">
        <ele>234</ele>
        <time>2022-08-14T10:01:22Z</time>
      </trkpt>
      <trkpt lat="43.96397" lon="1.87505">
        <ele>233.8</ele>
        <time>2022-08-14T10:01:23Z</time>
      </trkpt>
      <trkpt lat="43.96395" lon="1.87506">
        <ele>233.8</ele>
        <time>2022-08-14T10:01:24Z</time>
      </trkpt>
      <trkpt lat="43.96393" lon="1.87506">
        <ele>233.8</ele>
        <time>2022-08-14T10:01:25Z</time>
      </trkpt>
      <trkpt lat="43.96392" lon="1.87506">
        <ele>233.8</ele>
        <time>2022-08-14T10:01:26Z</time>
      </trkpt>
      <trkpt lat="43.96391" lon="1.87505">
        <ele>234</ele>
        <time>2022-08-14T10:01:27Z</time>
      </trkpt>
      <trkpt lat="43.9639" lon="1.87504">
        <ele>234</ele>
        <time>2022-08-14T10:01:28Z</time>
      </trkpt>
      <trkpt lat="43.96388" lon="1.87504">
        <ele>234</ele>
        <time>2022-08-14T10:01:29Z</time>
      </trkpt>
      <trkpt lat="43.96386" lon="1.87504">
        <ele>234</ele>
        <time>2022-08-14T10:01:30Z</time>
      </trkpt>
      <trkpt lat="43.96385" lon="1.87504">
        <ele>234</ele>
        <time>2022-08-14T10:01:31Z</time>
      </trkpt>
      <trkpt lat="43.96383" lon="1.87503">
        <ele>234.4</ele>
        <time>2022-08-14T10:01:32Z</time>
      </trkpt>
      <trkpt lat="43.96382" lon="1.87502">
        <ele>234.4</ele>
        <time>2022-08-14T10:01:33Z</time>
      </trkpt>
      <trkpt lat="43.96381" lon="1.87502">
        <ele>234.6</ele>
        <time>2022-08-14T10:01:34Z</time>
      </trkpt>
      <trkpt lat="43.96379" lon="1.87502">
        <ele>235</ele>
        <time>2022-08-14T10:01:35Z</time>
      </trkpt>
      <trkpt lat="43.96372" lon="1.87501">
        <ele>235.4</ele>
        <time>2022-08-14T10:01:38Z</time>
      </trkpt>
      <trkpt lat="43.9637" lon="1.87501">
        <ele>235.6</ele>
        <time>2022-08-14T10:01:39Z</time>
      </trkpt>
      <trkpt lat="43.96368" lon="1.87501">
        <ele>235.6</ele>
        <time>2022-08-14T10:01:40Z</time>
      </trkpt>
      <trkpt lat="43.96363" lon="1.87501">
        <ele>235.8</ele>
        <time>2022-08-14T10:01:42Z</time>
      </trkpt>
      <trkpt lat="43.96359" lon="1.87501">
        <ele>236.2</ele>
        <time>2022-08-14T10:01:44Z</time>
      </trkpt>
      <trkpt lat="43.96357" lon="1.87501">
        <ele>236.2</ele>
        <time>2022-08-14T10:01:45Z</time>
      </trkpt>
      <trkpt lat="43.96355" lon="1.87501">
        <ele>236.4</ele>
        <time>2022-08-14T10:01:46Z</time>
      </trkpt>
      <trkpt lat="43.96347" lon="1.87502">
        <ele>236.6</ele>
        <time>2022-08-14T10:01:50Z</time>
      </trkpt>
      <trkpt lat="43.96344" lon="1.87503">
        <ele>236.8</ele>
        <time>2022-08-14T10:01:51Z</time>
      </trkpt>
      <trkpt lat="43.9634" lon="1.87503">
        <ele>236.8</ele>
        <time>2022-08-14T10:01:52Z</time>
      </trkpt>
      <trkpt lat="43.96337" lon="1.87504">
        <ele>237</ele>
        <time>2022-08-14T10:01:53Z</time>
      </trkpt>
      <trkpt lat="43.96335" lon="1.87505">
        <ele>237</ele>
        <time>2022-08-14T10:01:54Z</time>
      </trkpt>
      <trkpt lat="43.96333" lon="1.87506">
        <ele>237.2</ele>
        <time>2022-08-14T10:01:55Z</time>
      </trkpt>
      <trkpt lat="43.96331" lon="1.87506">
        <ele>237.4</ele>
        <time>2022-08-14T10:01:56Z</time>
      </trkpt>
      <trkpt lat="43.9633" lon="1.87506">
        <ele>237.6</ele>
        <time>2022-08-14T10:01:57Z</time>
      </trkpt>
      <trkpt lat="43.96328" lon="1.87507">
        <ele>237.8</ele>
        <time>2022-08-14T10:01:58Z</time>
      </trkpt>
      <trkpt lat="43.96326" lon="1.87506">
        <ele>238</ele>
        <time>2022-08-14T10:01:59Z</time>
      </trkpt>
      <trkpt lat="43.96326" lon="1.87506">
        <ele>238.2</ele>
        <time>2022-08-14T10:02:00Z</time>
      </trkpt>
      <trkpt lat="43.96326" lon="1.87506">
        <ele>238.2</ele>
        <time>2022-08-14T10:02:01Z</time>
      </trkpt>
      <trkpt lat="43.96324" lon="1.87504">
        <ele>238.4</ele>
        <time>2022-08-14T10:02:02Z</time>
      </trkpt>
      <trkpt lat="43.96322" lon="1.87501">
        <ele>238.6</ele>
        <time>2022-08-14T10:02:03Z</time>
      </trkpt>
      <trkpt lat="43.96318" lon="1.87497">
        <ele>238.8</ele>
        <time>2022-08-14T10:02:04Z</time>
      </trkpt>
      <trkpt lat="43.96315" lon="1.87496">
        <ele>238.8</ele>
        <time>2022-08-14T10:02:05Z</time>
      </trkpt>
      <trkpt lat="43.96314" lon="1.87496">
        <ele>239</ele>
        <time>2022-08-14T10:02:06Z</time>
      </trkpt>
      <trkpt lat="43.96314" lon="1.87496">
        <ele>239</ele>
        <time>2022-08-14T10:02:07Z</time>
      </trkpt>
      <trkpt lat="43.96313" lon="1.87496">
        <ele>239.2</ele>
        <time>2022-08-14T10:02:08Z</time>
      </trkpt>
      <trkpt lat="43.96311" lon="1.87496">
        <ele>239.6</ele>
        <time>2022-08-14T10:02:09Z</time>
      </trkpt>
      <trkpt lat="43.9631" lon="1.87497">
        <ele>239.6</ele>
        <time>2022-08-14T10:02:10Z</time>
      </trkpt>
      <trkpt lat="43.96309" lon="1.87496">
        <ele>239.8</ele>
        <time>2022-08-14T10:02:11Z</time>
      </trkpt>
      <trkpt lat="43.96309" lon="1.87496">
        <ele>239.8</ele>
        <time>2022-08-14T10:02:12Z</time>
      </trkpt>
      <trkpt lat="43.96309" lon="1.87494">
        <ele>240</ele>
        <time>2022-08-14T10:02:13Z</time>
      </trkpt>
      <trkpt lat="43.96307" lon="1.87494">
        <ele>240</ele>
        <time>2022-08-14T10:02:14Z</time>
      </trkpt>
      <trkpt lat="43.96307" lon="1.87494">
        <ele>240.2</ele>
        <time>2022-08-14T10:02:15Z</time>
      </trkpt>
      <trkpt lat="43.96305" lon="1.87493">
        <ele>240.4</ele>
        <time>2022-08-14T10:02:16Z</time>
      </trkpt>
      <trkpt lat="43.96304" lon="1.87492">
        <ele>240.6</ele>
        <time>2022-08-14T10:02:17Z</time>
      </trkpt>
      <trkpt lat="43.963" lon="1.87491">
        <ele>240.8</ele>
        <time>2022-08-14T10:02:18Z</time>
      </trkpt>
      <trkpt lat="43.96297" lon="1.8749">
        <ele>240.8</ele>
        <time>2022-08-14T10:02:19Z</time>
      </trkpt>
      <trkpt lat="43.96295" lon="1.8749">
        <ele>241.2</ele>
        <time>2022-08-14T10:02:20Z</time>
      </trkpt>
      <trkpt lat="43.96295" lon="1.87489">
        <ele>241.6</ele>
        <time>2022-08-14T10:02:21Z</time>
      </trkpt>
      <trkpt lat="43.96294" lon="1.87488">
        <ele>241.8</ele>
        <time>2022-08-14T10:02:22Z</time>
      </trkpt>
      <trkpt lat="43.96294" lon="1.87487">
        <ele>242</ele>
        <time>2022-08-14T10:02:23Z</time>
      </trkpt>
      <trkpt lat="43.96292" lon="1.87486">
        <ele>242</ele>
        <time>2022-08-14T10:02:24Z</time>
      </trkpt>
      <trkpt lat="43.96292" lon="1.87485">
        <ele>242.2</ele>
        <time>2022-08-14T10:02:25Z</time>
      </trkpt>
      <trkpt lat="43.96292" lon="1.87485">
        <ele>242.2</ele>
        <time>2022-08-14T10:02:26Z</time>
      </trkpt>
      <trkpt lat="43.96292" lon="1.87485">
        <ele>242.4</ele>
        <time>2022-08-14T10:02:27Z</time>
      </trkpt>
      <trkpt lat="43.96291" lon="1.87484">
        <ele>242.8</ele>
        <time>2022-08-14T10:02:28Z</time>
      </trkpt>
      <trkpt lat="43.96288" lon="1.87483">
        <ele>243.2</ele>
        <time>2022-08-14T10:02:29Z</time>
      </trkpt>
      <trkpt lat="43.96285" lon="1.8748">
        <ele>243.4</ele>
        <time>2022-08-14T10:02:30Z</time>
      </trkpt>
      <trkpt lat="43.96284" lon="1.87479">
        <ele>243.4</ele>
        <time>2022-08-14T10:02:31Z</time>
      </trkpt>
      <trkpt lat="43.96283" lon="1.87478">
        <ele>243.6</ele>
        <time>2022-08-14T10:02:32Z</time>
      </trkpt>
      <trkpt lat="43.96281" lon="1.87476">
        <ele>243.8</ele>
        <time>2022-08-14T10:02:33Z</time>
      </trkpt>
      <trkpt lat="43.96278" lon="1.87474">
        <ele>244.2</ele>
        <time>2022-08-14T10:02:34Z</time>
      </trkpt>
      <trkpt lat="43.96275" lon="1.87471">
        <ele>244.4</ele>
        <time>2022-08-14T10:02:35Z</time>
      </trkpt>
      <trkpt lat="43.96275" lon="1.87471">
        <ele>244.6</ele>
        <time>2022-08-14T10:02:36Z</time>
      </trkpt>
      <trkpt lat="43.96273" lon="1.8747">
        <ele>245</ele>
        <time>2022-08-14T10:02:37Z</time>
      </trkpt>
      <trkpt lat="43.96271" lon="1.87469">
        <ele>245</ele>
        <time>2022-08-14T10:02:38Z</time>
      </trkpt>
      <trkpt lat="43.96268" lon="1.87467">
        <ele>245.4</ele>
        <time>2022-08-14T10:02:39Z</time>
      </trkpt>
      <trkpt lat="43.96268" lon="1.87466">
        <ele>245.4</ele>
        <time>2022-08-14T10:02:40Z</time>
      </trkpt>
      <trkpt lat="43.96266" lon="1.87467">
        <ele>245.6</ele>
        <time>2022-08-14T10:02:41Z</time>
      </trkpt>
      <trkpt lat="43.96264" lon="1.87466">
        <ele>245.8</ele>
        <time>2022-08-14T10:02:42Z</time>
      </trkpt>
      <trkpt lat="43.96263" lon="1.87466">
        <ele>246</ele>
        <time>2022-08-14T10:02:43Z</time>
      </trkpt>
      <trkpt lat="43.96262" lon="1.87465">
        <ele>246.2</ele>
        <time>2022-08-14T10:02:44Z</time>
      </trkpt>
      <trkpt lat="43.9626" lon="1.87464">
        <ele>246.4</ele>
        <time>2022-08-14T10:02:45Z</time>
      </trkpt>
      <trkpt lat="43.96259" lon="1.87463">
        <ele>246.4</ele>
        <time>2022-08-14T10:02:46Z</time>
      </trkpt>
      <trkpt lat="43.96258" lon="1.87462">
        <ele>246.4</ele>
        <time>2022-08-14T10:02:47Z</time>
      </trkpt>
      <trkpt lat="43.96257" lon="1.87461">
        <ele>246.6</ele>
        <time>2022-08-14T10:02:48Z</time>
      </trkpt>
      <trkpt lat="43.96256" lon="1.8746">
        <ele>246.6</ele>
        <time>2022-08-14T10:02:49Z</time>
      </trkpt>
      <trkpt lat="43.96255" lon="1.8746">
        <ele>246.8</ele>
        <time>2022-08-14T10:02:50Z</time>
      </trkpt>
      <trkpt lat="43.96252" lon="1.87458">
        <ele>246.8</ele>
        <time>2022-08-14T10:02:51Z</time>
      </trkpt>
      <trkpt lat="43.9625" lon="1.87457">
        <ele>247</ele>
        <time>2022-08-14T10:02:52Z</time>
      </trkpt>
      <trkpt lat="43.96248" lon="1.87456">
        <ele>247</ele>
        <time>2022-08-14T10:02:53Z</time>
      </trkpt>
      <trkpt lat="43.96247" lon="1.87455">
        <ele>247</ele>
        <time>2022-08-14T10:02:54Z</time>
      </trkpt>
      <trkpt lat="43.96244" lon="1.87454">
        <ele>247.2</ele>
        <time>2022-08-14T10:02:55Z</time>
      </trkpt>
      <trkpt lat="43.96243" lon="1.87453">
        <ele>247.2</ele>
        <time>2022-08-14T10:02:56Z</time>
      </trkpt>
      <trkpt lat="43.96242" lon="1.87452">
        <ele>247.4</ele>
        <time>2022-08-14T10:02:57Z</time>
      </trkpt>
      <trkpt lat="43.96241" lon="1.87451">
        <ele>247.6</ele>
        <time>2022-08-14T10:02:58Z</time>
      </trkpt>
      <trkpt lat="43.96241" lon="1.8745">
        <ele>247.8</ele>
        <time>2022-08-14T10:02:59Z</time>
      </trkpt>
      <trkpt lat="43.9624" lon="1.8745">
        <ele>247.8</ele>
        <time>2022-08-14T10:03:00Z</time>
      </trkpt>
      <trkpt lat="43.96237" lon="1.87449">
        <ele>248</ele>
        <time>2022-08-14T10:03:01Z</time>
      </trkpt>
      <trkpt lat="43.96236" lon="1.87448">
        <ele>248.2</ele>
        <time>2022-08-14T10:03:02Z</time>
      </trkpt>
      <trkpt lat="43.96236" lon="1.87448">
        <ele>248.2</ele>
        <time>2022-08-14T10:03:03Z</time>
      </trkpt>
      <trkpt lat="43.96235" lon="1.87447">
        <ele>248.6</ele>
        <time>2022-08-14T10:03:04Z</time>
      </trkpt>
      <trkpt lat="43.96235" lon="1.87447">
        <ele>248.8</ele>
        <time>2022-08-14T10:03:05Z</time>
      </trkpt>
      <trkpt lat="43.96234" lon="1.87447">
        <ele>248.8</ele>
        <time>2022-08-14T10:03:06Z</time>
      </trkpt>
      <trkpt lat="43.96232" lon="1.87447">
        <ele>249</ele>
        <time>2022-08-14T10:03:07Z</time>
      </trkpt>
      <trkpt lat="43.9623" lon="1.87446">
        <ele>249.2</ele>
        <time>2022-08-14T10:03:08Z</time>
      </trkpt>
      <trkpt lat="43.96227" lon="1.87444">
        <ele>249.4</ele>
        <time>2022-08-14T10:03:09Z</time>
      </trkpt>
      <trkpt lat="43.96225" lon="1.87443">
        <ele>249.6</ele>
        <time>2022-08-14T10:03:10Z</time>
      </trkpt>
      <trkpt lat="43.96222" lon="1.87442">
        <ele>249.8</ele>
        <time>2022-08-14T10:03:11Z</time>
      </trkpt>
      <trkpt lat="43.96221" lon="1.87442">
        <ele>249.8</ele>
        <time>2022-08-14T10:03:12Z</time>
      </trkpt>
      <trkpt lat="43.96218" lon="1.87442">
        <ele>250</ele>
        <time>2022-08-14T10:03:13Z</time>
      </trkpt>
      <trkpt lat="43.96217" lon="1.87442">
        <ele>250.2</ele>
        <time>2022-08-14T10:03:14Z</time>
      </trkpt>
      <trkpt lat="43.96214" lon="1.87442">
        <ele>250.4</ele>
        <time>2022-08-14T10:03:15Z</time>
      </trkpt>
      <trkpt lat="43.96211" lon="1.87441">
        <ele>250.4</ele>
        <time>2022-08-14T10:03:16Z</time>
      </trkpt>
      <trkpt lat="43.96208" lon="1.8744">
        <ele>250.6</ele>
        <time>2022-08-14T10:03:17Z</time>
      </trkpt>
      <trkpt lat="43.96207" lon="1.87441">
        <ele>250.8</ele>
        <time>2022-08-14T10:03:18Z</time>
      </trkpt>
      <trkpt lat="43.96206" lon="1.87441">
        <ele>251</ele>
        <time>2022-08-14T10:03:19Z</time>
      </trkpt>
      <trkpt lat="43.96204" lon="1.87441">
        <ele>251.4</ele>
        <time>2022-08-14T10:03:20Z</time>
      </trkpt>
      <trkpt lat="43.96201" lon="1.87441">
        <ele>251.4</ele>
        <time>2022-08-14T10:03:21Z</time>
      </trkpt>
      <trkpt lat="43.96199" lon="1.87441">
        <ele>251.6</ele>
        <time>2022-08-14T10:03:22Z</time>
      </trkpt>
      <trkpt lat="43.96195" lon="1.87441">
        <ele>251.8</ele>
        <time>2022-08-14T10:03:23Z</time>
      </trkpt>
      <trkpt lat="43.96194" lon="1.87441">
        <ele>252</ele>
        <time>2022-08-14T10:03:24Z</time>
      </trkpt>
      <trkpt lat="43.96192" lon="1.87441">
        <ele>252.2</ele>
        <time>2022-08-14T10:03:25Z</time>
      </trkpt>
      <trkpt lat="43.96191" lon="1.87441">
        <ele>252.4</ele>
        <time>2022-08-14T10:03:26Z</time>
      </trkpt>
      <trkpt lat="43.9619" lon="1.87441">
        <ele>252.6</ele>
        <time>2022-08-14T10:03:27Z</time>
      </trkpt>
      <trkpt lat="43.96189" lon="1.87441">
        <ele>252.6</ele>
        <time>2022-08-14T10:03:28Z</time>
      </trkpt>
      <trkpt lat="43.96188" lon="1.87442">
        <ele>252.8</ele>
        <time>2022-08-14T10:03:29Z</time>
      </trkpt>
      <trkpt lat="43.96187" lon="1.87442">
        <ele>253</ele>
        <time>2022-08-14T10:03:30Z</time>
      </trkpt>
      <trkpt lat="43.96186" lon="1.87442">
        <ele>253.2</ele>
        <time>2022-08-14T10:03:31Z</time>
      </trkpt>
      <trkpt lat="43.96184" lon="1.87442">
        <ele>253.4</ele>
        <time>2022-08-14T10:03:32Z</time>
      </trkpt>
      <trkpt lat="43.96183" lon="1.87441">
        <ele>253.8</ele>
        <time>2022-08-14T10:03:33Z</time>
      </trkpt>
      <trkpt lat="43.96181" lon="1.87441">
        <ele>254</ele>
        <time>2022-08-14T10:03:34Z</time>
      </trkpt>
      <trkpt lat="43.9618" lon="1.87441">
        <ele>254.2</ele>
        <time>2022-08-14T10:03:35Z</time>
      </trkpt>
      <trkpt lat="43.96178" lon="1.87441">
        <ele>254.6</ele>
        <time>2022-08-14T10:03:36Z</time>
      </trkpt>
      <trkpt lat="43.96177" lon="1.87441">
        <ele>254.6</ele>
        <time>2022-08-14T10:03:37Z</time>
      </trkpt>
      <trkpt lat="43.96176" lon="1.87441">
        <ele>254.8</ele>
        <time>2022-08-14T10:03:38Z</time>
      </trkpt>
      <trkpt lat="43.96174" lon="1.87441">
        <ele>255</ele>
        <time>2022-08-14T10:03:39Z</time>
      </trkpt>
      <trkpt lat="43.96172" lon="1.87442">
        <ele>255</ele>
        <time>2022-08-14T10:03:40Z</time>
      </trkpt>
      <trkpt lat="43.9617" lon="1.87442">
        <ele>255.4</ele>
        <time>2022-08-14T10:03:41Z</time>
      </trkpt>
      <trkpt lat="43.96169" lon="1.87442">
        <ele>255.6</ele>
        <time>2022-08-14T10:03:42Z</time>
      </trkpt>
      <trkpt lat="43.96167" lon="1.87443">
        <ele>255.8</ele>
        <time>2022-08-14T10:03:43Z</time>
      </trkpt>
      <trkpt lat="43.96165" lon="1.87443">
        <ele>256</ele>
        <time>2022-08-14T10:03:44Z</time>
      </trkpt>
      <trkpt lat="43.96163" lon="1.87443">
        <ele>256</ele>
        <time>2022-08-14T10:03:45Z</time>
      </trkpt>
      <trkpt lat="43.96162" lon="1.87444">
        <ele>256.2</ele>
        <time>2022-08-14T10:03:46Z</time>
      </trkpt>
      <trkpt lat="43.9616" lon="1.87444">
        <ele>256.4</ele>
        <time>2022-08-14T10:03:47Z</time>
      </trkpt>
      <trkpt lat="43.9616" lon="1.87445">
        <ele>256.6</ele>
        <time>2022-08-14T10:03:48Z</time>
      </trkpt>
      <trkpt lat="43.96159" lon="1.87446">
        <ele>257</ele>
        <time>2022-08-14T10:03:49Z</time>
      </trkpt>
      <trkpt lat="43.96158" lon="1.87448">
        <ele>257.6</ele>
        <time>2022-08-14T10:03:50Z</time>
      </trkpt>
      <trkpt lat="43.96156" lon="1.87449">
        <ele>257.8</ele>
        <time>2022-08-14T10:03:51Z</time>
      </trkpt>
      <trkpt lat="43.96155" lon="1.8745">
        <ele>258.2</ele>
        <time>2022-08-14T10:03:52Z</time>
      </trkpt>
      <trkpt lat="43.96154" lon="1.87451">
        <ele>258.2</ele>
        <time>2022-08-14T10:03:53Z</time>
      </trkpt>
      <trkpt lat="43.96152" lon="1.8745">
        <ele>258.4</ele>
        <time>2022-08-14T10:03:54Z</time>
      </trkpt>
      <trkpt lat="43.96151" lon="1.87449">
        <ele>258.6</ele>
        <time>2022-08-14T10:03:55Z</time>
      </trkpt>
      <trkpt lat="43.9615" lon="1.8745">
        <ele>259.2</ele>
        <time>2022-08-14T10:03:56Z</time>
      </trkpt>
      <trkpt lat="43.96149" lon="1.87451">
        <ele>259.8</ele>
        <time>2022-08-14T10:03:57Z</time>
      </trkpt>
      <trkpt lat="43.96146" lon="1.87452">
        <ele>260</ele>
        <time>2022-08-14T10:03:58Z</time>
      </trkpt>
      <trkpt lat="43.96143" lon="1.87451">
        <ele>260.4</ele>
        <time>2022-08-14T10:03:59Z</time>
      </trkpt>
      <trkpt lat="43.96141" lon="1.87451">
        <ele>260.6</ele>
        <time>2022-08-14T10:04:00Z</time>
      </trkpt>
      <trkpt lat="43.9614" lon="1.87452">
        <ele>260.8</ele>
        <time>2022-08-14T10:04:01Z</time>
      </trkpt>
      <trkpt lat="43.96137" lon="1.87453">
        <ele>261</ele>
        <time>2022-08-14T10:04:02Z</time>
      </trkpt>
      <trkpt lat="43.96136" lon="1.87455">
        <ele>261.2</ele>
        <time>2022-08-14T10:04:03Z</time>
      </trkpt>
      <trkpt lat="43.96135" lon="1.87457">
        <ele>261.4</ele>
        <time>2022-08-14T10:04:04Z</time>
      </trkpt>
      <trkpt lat="43.96135" lon="1.87459">
        <ele>261.6</ele>
        <time>2022-08-14T10:04:05Z</time>
      </trkpt>
      <trkpt lat="43.96135" lon="1.87459">
        <ele>262</ele>
        <time>2022-08-14T10:04:06Z</time>
      </trkpt>
      <trkpt lat="43.96135" lon="1.87459">
        <ele>262.2</ele>
        <time>2022-08-14T10:04:07Z</time>
      </trkpt>
      <trkpt lat="43.96135" lon="1.87459">
        <ele>262.6</ele>
        <time>2022-08-14T10:04:08Z</time>
      </trkpt>
      <trkpt lat="43.96134" lon="1.87462">
        <ele>262.8</ele>
        <time>2022-08-14T10:04:09Z</time>
      </trkpt>
      <trkpt lat="43.9613" lon="1.87465">
        <ele>263.2</ele>
        <time>2022-08-14T10:04:10Z</time>
      </trkpt>
      <trkpt lat="43.96126" lon="1.87472">
        <ele>263.6</ele>
        <time>2022-08-14T10:04:11Z</time>
      </trkpt>
      <trkpt lat="43.96125" lon="1.87475">
        <ele>264</ele>
        <time>2022-08-14T10:04:12Z</time>
      </trkpt>
      <trkpt lat="43.96125" lon="1.87478">
        <ele>264.2</ele>
        <time>2022-08-14T10:04:13Z</time>
      </trkpt>
      <trkpt lat="43.96125" lon="1.87481">
        <ele>264.4</ele>
        <time>2022-08-14T10:04:14Z</time>
      </trkpt>
      <trkpt lat="43.96125" lon="1.87483">
        <ele>264.8</ele>
        <time>2022-08-14T10:04:15Z</time>
      </trkpt>
      <trkpt lat="43.96124" lon="1.87486">
        <ele>265</ele>
        <time>2022-08-14T10:04:16Z</time>
      </trkpt>
      <trkpt lat="43.96124" lon="1.87487">
        <ele>265.2</ele>
        <time>2022-08-14T10:04:17Z</time>
      </trkpt>
      <trkpt lat="43.96124" lon="1.87488">
        <ele>265.4</ele>
        <time>2022-08-14T10:04:18Z</time>
      </trkpt>
      <trkpt lat="43.96123" lon="1.8749">
        <ele>265.6</ele>
        <time>2022-08-14T10:04:19Z</time>
      </trkpt>
      <trkpt lat="43.96122" lon="1.87491">
        <ele>265.8</ele>
        <time>2022-08-14T10:04:20Z</time>
      </trkpt>
      <trkpt lat="43.96122" lon="1.87492">
        <ele>266</ele>
        <time>2022-08-14T10:04:21Z</time>
      </trkpt>
      <trkpt lat="43.96121" lon="1.87494">
        <ele>266.2</ele>
        <time>2022-08-14T10:04:22Z</time>
      </trkpt>
      <trkpt lat="43.96121" lon="1.87496">
        <ele>266.4</ele>
        <time>2022-08-14T10:04:23Z</time>
      </trkpt>
      <trkpt lat="43.9612" lon="1.87498">
        <ele>266.6</ele>
        <time>2022-08-14T10:04:24Z</time>
      </trkpt>
      <trkpt lat="43.96118" lon="1.875">
        <ele>266.6</ele>
        <time>2022-08-14T10:04:25Z</time>
      </trkpt>
      <trkpt lat="43.96117" lon="1.87502">
        <ele>267</ele>
        <time>2022-08-14T10:04:26Z</time>
      </trkpt>
      <trkpt lat="43.96116" lon="1.87503">
        <ele>267.2</ele>
        <time>2022-08-14T10:04:27Z</time>
      </trkpt>
      <trkpt lat="43.96115" lon="1.87504">
        <ele>267.4</ele>
        <time>2022-08-14T10:04:28Z</time>
      </trkpt>
      <trkpt lat="43.96114" lon="1.87505">
        <ele>267.6</ele>
        <time>2022-08-14T10:04:29Z</time>
      </trkpt>
      <trkpt lat="43.96113" lon="1.87505">
        <ele>267.6</ele>
        <time>2022-08-14T10:04:30Z</time>
      </trkpt>
      <trkpt lat="43.96112" lon="1.87505">
        <ele>268</ele>
        <time>2022-08-14T10:04:31Z</time>
      </trkpt>
      <trkpt lat="43.96111" lon="1.87506">
        <ele>268</ele>
        <time>2022-08-14T10:04:32Z</time>
      </trkpt>
      <trkpt lat="43.9611" lon="1.87506">
        <ele>268.4</ele>
        <time>2022-08-14T10:04:33Z</time>
      </trkpt>
      <trkpt lat="43.96107" lon="1.87508">
        <ele>268.4</ele>
        <time>2022-08-14T10:04:34Z</time>
      </trkpt>
      <trkpt lat="43.96106" lon="1.87509">
        <ele>268.6</ele>
        <time>2022-08-14T10:04:35Z</time>
      </trkpt>
      <trkpt lat="43.96105" lon="1.87511">
        <ele>269</ele>
        <time>2022-08-14T10:04:36Z</time>
      </trkpt>
      <trkpt lat="43.96103" lon="1.87512">
        <ele>269</ele>
        <time>2022-08-14T10:04:37Z</time>
      </trkpt>
      <trkpt lat="43.96102" lon="1.87513">
        <ele>269.4</ele>
        <time>2022-08-14T10:04:38Z</time>
      </trkpt>
      <trkpt lat="43.96101" lon="1.87514">
        <ele>269.6</ele>
        <time>2022-08-14T10:04:39Z</time>
      </trkpt>
      <trkpt lat="43.961" lon="1.87516">
        <ele>269.8</ele>
        <time>2022-08-14T10:04:40Z</time>
      </trkpt>
      <trkpt lat="43.961" lon="1.87518">
        <ele>269.8</ele>
        <time>2022-08-14T10:04:41Z</time>
      </trkpt>
      <trkpt lat="43.961" lon="1.87519">
        <ele>270.2</ele>
        <time>2022-08-14T10:04:42Z</time>
      </trkpt>
      <trkpt lat="43.96099" lon="1.8752">
        <ele>270.4</ele>
        <time>2022-08-14T10:04:43Z</time>
      </trkpt>
      <trkpt lat="43.96098" lon="1.87521">
        <ele>270.6</ele>
        <time>2022-08-14T10:04:44Z</time>
      </trkpt>
      <trkpt lat="43.96098" lon="1.87522">
        <ele>271</ele>
        <time>2022-08-14T10:04:45Z</time>
      </trkpt>
      <trkpt lat="43.96097" lon="1.87524">
        <ele>271.2</ele>
        <time>2022-08-14T10:04:46Z</time>
      </trkpt>
      <trkpt lat="43.96096" lon="1.87525">
        <ele>271.4</ele>
        <time>2022-08-14T10:04:47Z</time>
      </trkpt>
      <trkpt lat="43.96095" lon="1.87526">
        <ele>271.4</ele>
        <time>2022-08-14T10:04:48Z</time>
      </trkpt>
      <trkpt lat="43.96095" lon="1.87527">
        <ele>271.6</ele>
        <time>2022-08-14T10:04:49Z</time>
      </trkpt>
      <trkpt lat="43.96094" lon="1.87528">
        <ele>271.6</ele>
        <time>2022-08-14T10:04:50Z</time>
      </trkpt>
      <trkpt lat="43.96093" lon="1.8753">
        <ele>272</ele>
        <time>2022-08-14T10:04:51Z</time>
      </trkpt>
      <trkpt lat="43.96091" lon="1.87532">
        <ele>272.2</ele>
        <time>2022-08-14T10:04:52Z</time>
      </trkpt>
      <trkpt lat="43.96089" lon="1.87534">
        <ele>272.2</ele>
        <time>2022-08-14T10:04:53Z</time>
      </trkpt>
      <trkpt lat="43.96088" lon="1.87536">
        <ele>272.4</ele>
        <time>2022-08-14T10:04:54Z</time>
      </trkpt>
      <trkpt lat="43.96086" lon="1.87537">
        <ele>272.6</ele>
        <time>2022-08-14T10:04:55Z</time>
      </trkpt>
      <trkpt lat="43.96084" lon="1.8754">
        <ele>272.8</ele>
        <time>2022-08-14T10:04:56Z</time>
      </trkpt>
      <trkpt lat="43.96081" lon="1.87543">
        <ele>272.8</ele>
        <time>2022-08-14T10:04:57Z</time>
      </trkpt>
      <trkpt lat="43.96079" lon="1.87545">
        <ele>273</ele>
        <time>2022-08-14T10:04:58Z</time>
      </trkpt>
      <trkpt lat="43.96077" lon="1.87548">
        <ele>273</ele>
        <time>2022-08-14T10:04:59Z</time>
      </trkpt>
      <trkpt lat="43.96074" lon="1.8755">
        <ele>273.2</ele>
        <time>2022-08-14T10:05:00Z</time>
      </trkpt>
      <trkpt lat="43.96072" lon="1.87552">
        <ele>273.4</ele>
        <time>2022-08-14T10:05:01Z</time>
      </trkpt>
      <trkpt lat="43.9607" lon="1.87554">
        <ele>273.4</ele>
        <time>2022-08-14T10:05:02Z</time>
      </trkpt>
      <trkpt lat="43.96068" lon="1.87556">
        <ele>273.6</ele>
        <time>2022-08-14T10:05:03Z</time>
      </trkpt>
      <trkpt lat="43.96066" lon="1.87559">
        <ele>273.6</ele>
        <time>2022-08-14T10:05:04Z</time>
      </trkpt>
      <trkpt lat="43.96064" lon="1.87562">
        <ele>273.6</ele>
        <time>2022-08-14T10:05:05Z</time>
      </trkpt>
      <trkpt lat="43.96063" lon="1.87564">
        <ele>273.6</ele>
        <time>2022-08-14T10:05:06Z</time>
      </trkpt>
      <trkpt lat="43.96062" lon="1.87567">
        <ele>273.8</ele>
        <time>2022-08-14T10:05:07Z</time>
      </trkpt>
      <trkpt lat="43.96062" lon="1.87568">
        <ele>273.8</ele>
        <time>2022-08-14T10:05:08Z</time>
      </trkpt>
      <trkpt lat="43.96063" lon="1.8757">
        <ele>273.8</ele>
        <time>2022-08-14T10:05:09Z</time>
      </trkpt>
      <trkpt lat="43.9606" lon="1.87572">
        <ele>274</ele>
        <time>2022-08-14T10:05:10Z</time>
      </trkpt>
      <trkpt lat="43.96058" lon="1.87573">
        <ele>274</ele>
        <time>2022-08-14T10:05:11Z</time>
      </trkpt>
      <trkpt lat="43.96056" lon="1.87575">
        <ele>274.2</ele>
        <time>2022-08-14T10:05:12Z</time>
      </trkpt>
      <trkpt lat="43.96055" lon="1.87577">
        <ele>274.2</ele>
        <time>2022-08-14T10:05:13Z</time>
      </trkpt>
      <trkpt lat="43.96053" lon="1.87579">
        <ele>274.2</ele>
        <time>2022-08-14T10:05:14Z</time>
      </trkpt>
      <trkpt lat="43.96051" lon="1.8758">
        <ele>274.2</ele>
        <time>2022-08-14T10:05:15Z</time>
      </trkpt>
      <trkpt lat="43.9605" lon="1.87581">
        <ele>274.4</ele>
        <time>2022-08-14T10:05:16Z</time>
      </trkpt>
      <trkpt lat="43.96048" lon="1.87582">
        <ele>274.6</ele>
        <time>2022-08-14T10:05:17Z</time>
      </trkpt>
      <trkpt lat="43.96046" lon="1.87582">
        <ele>274.8</ele>
        <time>2022-08-14T10:05:18Z</time>
      </trkpt>
      <trkpt lat="43.96045" lon="1.87582">
        <ele>274.8</ele>
        <time>2022-08-14T10:05:19Z</time>
      </trkpt>
      <trkpt lat="43.96044" lon="1.87581">
        <ele>275</ele>
        <time>2022-08-14T10:05:20Z</time>
      </trkpt>
      <trkpt lat="43.96042" lon="1.87581">
        <ele>275.2</ele>
        <time>2022-08-14T10:05:21Z</time>
      </trkpt>
      <trkpt lat="43.96039" lon="1.8758">
        <ele>275.2</ele>
        <time>2022-08-14T10:05:22Z</time>
      </trkpt>
      <trkpt lat="43.96037" lon="1.8758">
        <ele>275.4</ele>
        <time>2022-08-14T10:05:23Z</time>
      </trkpt>
      <trkpt lat="43.96034" lon="1.87579">
        <ele>275.6</ele>
        <time>2022-08-14T10:05:24Z</time>
      </trkpt>
      <trkpt lat="43.96032" lon="1.8758">
        <ele>275.8</ele>
        <time>2022-08-14T10:05:25Z</time>
      </trkpt>
      <trkpt lat="43.9603" lon="1.8758">
        <ele>275.8</ele>
        <time>2022-08-14T10:05:26Z</time>
      </trkpt>
      <trkpt lat="43.96028" lon="1.8758">
        <ele>276</ele>
        <time>2022-08-14T10:05:27Z</time>
      </trkpt>
      <trkpt lat="43.96026" lon="1.8758">
        <ele>276</ele>
        <time>2022-08-14T10:05:28Z</time>
      </trkpt>
      <trkpt lat="43.96023" lon="1.8758">
        <ele>276.2</ele>
        <time>2022-08-14T10:05:29Z</time>
      </trkpt>
      <trkpt lat="43.9602" lon="1.8758">
        <ele>276.2</ele>
        <time>2022-08-14T10:05:30Z</time>
      </trkpt>
      <trkpt lat="43.96017" lon="1.87581">
        <ele>276.4</ele>
        <time>2022-08-14T10:05:31Z</time>
      </trkpt>
      <trkpt lat="43.96015" lon="1.87582">
        <ele>276.4</ele>
        <time>2022-08-14T10:05:32Z</time>
      </trkpt>
      <trkpt lat="43.96012" lon="1.87583">
        <ele>276.6</ele>
        <time>2022-08-14T10:05:33Z</time>
      </trkpt>
      <trkpt lat="43.9601" lon="1.87584">
        <ele>276.6</ele>
        <time>2022-08-14T10:05:34Z</time>
      </trkpt>
      <trkpt lat="43.96008" lon="1.87586">
        <ele>276.8</ele>
        <time>2022-08-14T10:05:35Z</time>
      </trkpt>
      <trkpt lat="43.96006" lon="1.87588">
        <ele>276.8</ele>
        <time>2022-08-14T10:05:36Z</time>
      </trkpt>
      <trkpt lat="43.96003" lon="1.8759">
        <ele>277</ele>
        <time>2022-08-14T10:05:37Z</time>
      </trkpt>
      <trkpt lat="43.96001" lon="1.87592">
        <ele>277</ele>
        <time>2022-08-14T10:05:38Z</time>
      </trkpt>
      <trkpt lat="43.95998" lon="1.87595">
        <ele>277.2</ele>
        <time>2022-08-14T10:05:39Z</time>
      </trkpt>
      <trkpt lat="43.95997" lon="1.87596">
        <ele>277.2</ele>
        <time>2022-08-14T10:05:40Z</time>
      </trkpt>
      <trkpt lat="43.95996" lon="1.87596">
        <ele>277.4</ele>
        <time>2022-08-14T10:05:41Z</time>
      </trkpt>
      <trkpt lat="43.95995" lon="1.87594">
        <ele>278.2</ele>
        <time>2022-08-14T10:06:34Z</time>
      </trkpt>
      <trkpt lat="43.95994" lon="1.87589">
        <ele>278.2</ele>
        <time>2022-08-14T10:06:36Z</time>
      </trkpt>
      <trkpt lat="43.95992" lon="1.87582">
        <ele>278.4</ele>
        <time>2022-08-14T10:06:39Z</time>
      </trkpt>
      <trkpt lat="43.95992" lon="1.87579">
        <ele>278.4</ele>
        <time>2022-08-14T10:06:40Z</time>
      </trkpt>
      <trkpt lat="43.95992" lon="1.87576">
        <ele>278.2</ele>
        <time>2022-08-14T10:06:41Z</time>
      </trkpt>
      <trkpt lat="43.95991" lon="1.87574">
        <ele>278.2</ele>
        <time>2022-08-14T10:06:42Z</time>
      </trkpt>
      <trkpt lat="43.95991" lon="1.87571">
        <ele>278.2</ele>
        <time>2022-08-14T10:06:43Z</time>
      </trkpt>
      <trkpt lat="43.95989" lon="1.87555">
        <ele>278.2</ele>
        <time>2022-08-14T10:06:50Z</time>
      </trkpt>
      <trkpt lat="43.95989" lon="1.87552">
        <ele>278.2</ele>
        <time>2022-08-14T10:06:51Z</time>
      </trkpt>
      <trkpt lat="43.95986" lon="1.87531">
        <ele>278.2</ele>
        <time>2022-08-14T10:06:58Z</time>
      </trkpt>
      <trkpt lat="43.95985" lon="1.87525">
        <ele>278.2</ele>
        <time>2022-08-14T10:07:00Z</time>
      </trkpt>
      <trkpt lat="43.95984" lon="1.87521">
        <ele>278.2</ele>
        <time>2022-08-14T10:07:01Z</time>
      </trkpt>
      <trkpt lat="43.95984" lon="1.87517">
        <ele>278.2</ele>
        <time>2022-08-14T10:07:02Z</time>
      </trkpt>
      <trkpt lat="43.95984" lon="1.87514">
        <ele>278.2</ele>
        <time>2022-08-14T10:07:03Z</time>
      </trkpt>
      <trkpt lat="43.95983" lon="1.87499">
        <ele>278.6</ele>
        <time>2022-08-14T10:07:07Z</time>
      </trkpt>
      <trkpt lat="43.95982" lon="1.87487">
        <ele>278.6</ele>
        <time>2022-08-14T10:07:10Z</time>
      </trkpt>
      <trkpt lat="43.95981" lon="1.87479">
        <ele>278.8</ele>
        <time>2022-08-14T10:07:12Z</time>
      </trkpt>
      <trkpt lat="43.95979" lon="1.87466">
        <ele>279</ele>
        <time>2022-08-14T10:07:15Z</time>
      </trkpt>
      <trkpt lat="43.95972" lon="1.87426">
        <ele>279</ele>
        <time>2022-08-14T10:07:23Z</time>
      </trkpt>
      <trkpt lat="43.95963" lon="1.87385">
        <ele>278.6</ele>
        <time>2022-08-14T10:07:30Z</time>
      </trkpt>
      <trkpt lat="43.95957" lon="1.8736">
        <ele>278.4</ele>
        <time>2022-08-14T10:07:34Z</time>
      </trkpt>
      <trkpt lat="43.95956" lon="1.87354">
        <ele>278.2</ele>
        <time>2022-08-14T10:07:35Z</time>
      </trkpt>
      <trkpt lat="43.95953" lon="1.87341">
        <ele>278</ele>
        <time>2022-08-14T10:07:37Z</time>
      </trkpt>
      <trkpt lat="43.95942" lon="1.87292">
        <ele>277.4</ele>
        <time>2022-08-14T10:07:44Z</time>
      </trkpt>
      <trkpt lat="43.9594" lon="1.87285">
        <ele>277.2</ele>
        <time>2022-08-14T10:07:45Z</time>
      </trkpt>
      <trkpt lat="43.9593" lon="1.87241">
        <ele>276.4</ele>
        <time>2022-08-14T10:07:51Z</time>
      </trkpt>
      <trkpt lat="43.95928" lon="1.87234">
        <ele>276.2</ele>
        <time>2022-08-14T10:07:52Z</time>
      </trkpt>
      <trkpt lat="43.95917" lon="1.87207">
        <ele>275.8</ele>
        <time>2022-08-14T10:07:56Z</time>
      </trkpt>
      <trkpt lat="43.95914" lon="1.872">
        <ele>275.6</ele>
        <time>2022-08-14T10:07:57Z</time>
      </trkpt>
      <trkpt lat="43.9591" lon="1.87195">
        <ele>275.6</ele>
        <time>2022-08-14T10:07:58Z</time>
      </trkpt>
      <trkpt lat="43.95906" lon="1.87189">
        <ele>275.4</ele>
        <time>2022-08-14T10:07:59Z</time>
      </trkpt>
      <trkpt lat="43.95902" lon="1.87184">
        <ele>275.4</ele>
        <time>2022-08-14T10:08:00Z</time>
      </trkpt>
      <trkpt lat="43.95898" lon="1.8718">
        <ele>275.2</ele>
        <time>2022-08-14T10:08:01Z</time>
      </trkpt>
      <trkpt lat="43.95888" lon="1.87172">
        <ele>275.2</ele>
        <time>2022-08-14T10:08:03Z</time>
      </trkpt>
      <trkpt lat="43.95883" lon="1.87169">
        <ele>275.2</ele>
        <time>2022-08-14T10:08:04Z</time>
      </trkpt>
      <trkpt lat="43.95879" lon="1.87166">
        <ele>275</ele>
        <time>2022-08-14T10:08:05Z</time>
      </trkpt>
      <trkpt lat="43.95874" lon="1.87163">
        <ele>275</ele>
        <time>2022-08-14T10:08:06Z</time>
      </trkpt>
      <trkpt lat="43.9587" lon="1.8716">
        <ele>275</ele>
        <time>2022-08-14T10:08:07Z</time>
      </trkpt>
      <trkpt lat="43.95865" lon="1.87157">
        <ele>275</ele>
        <time>2022-08-14T10:08:08Z</time>
      </trkpt>
      <trkpt lat="43.95861" lon="1.87155">
        <ele>275</ele>
        <time>2022-08-14T10:08:09Z</time>
      </trkpt>
      <trkpt lat="43.95857" lon="1.87153">
        <ele>275</ele>
        <time>2022-08-14T10:08:10Z</time>
      </trkpt>
      <trkpt lat="43.95853" lon="1.87151">
        <ele>275.2</ele>
        <time>2022-08-14T10:08:11Z</time>
      </trkpt>
      <trkpt lat="43.95849" lon="1.87149">
        <ele>275.2</ele>
        <time>2022-08-14T10:08:12Z</time>
      </trkpt>
      <trkpt lat="43.95844" lon="1.87146">
        <ele>275.2</ele>
        <time>2022-08-14T10:08:13Z</time>
      </trkpt>
      <trkpt lat="43.95823" lon="1.87137">
        <ele>275.4</ele>
        <time>2022-08-14T10:08:18Z</time>
      </trkpt>
      <trkpt lat="43.95819" lon="1.87136">
        <ele>275.6</ele>
        <time>2022-08-14T10:08:19Z</time>
      </trkpt>
      <trkpt lat="43.95815" lon="1.87135">
        <ele>275.6</ele>
        <time>2022-08-14T10:08:20Z</time>
      </trkpt>
      <trkpt lat="43.95812" lon="1.87134">
        <ele>275.6</ele>
        <time>2022-08-14T10:08:21Z</time>
      </trkpt>
      <trkpt lat="43.958" lon="1.87131">
        <ele>275.8</ele>
        <time>2022-08-14T10:08:24Z</time>
      </trkpt>
      <trkpt lat="43.95795" lon="1.8713">
        <ele>275.8</ele>
        <time>2022-08-14T10:08:25Z</time>
      </trkpt>
      <trkpt lat="43.95795" lon="1.8713">
        <ele>275.8</ele>
        <time>2022-08-14T10:08:26Z</time>
      </trkpt>
      <trkpt lat="43.95788" lon="1.87128">
        <ele>275.8</ele>
        <time>2022-08-14T10:08:27Z</time>
      </trkpt>
      <trkpt lat="43.95784" lon="1.87125">
        <ele>275.8</ele>
        <time>2022-08-14T10:08:28Z</time>
      </trkpt>
      <trkpt lat="43.95777" lon="1.8712">
        <ele>275.8</ele>
        <time>2022-08-14T10:08:31Z</time>
      </trkpt>
      <trkpt lat="43.95771" lon="1.87115">
        <ele>275.8</ele>
        <time>2022-08-14T10:08:32Z</time>
      </trkpt>
      <trkpt lat="43.95768" lon="1.87113">
        <ele>275.8</ele>
        <time>2022-08-14T10:08:33Z</time>
      </trkpt>
      <trkpt lat="43.95764" lon="1.87112">
        <ele>275.8</ele>
        <time>2022-08-14T10:08:34Z</time>
      </trkpt>
      <trkpt lat="43.95762" lon="1.87109">
        <ele>275.8</ele>
        <time>2022-08-14T10:08:35Z</time>
      </trkpt>
      <trkpt lat="43.9576" lon="1.87107">
        <ele>275.8</ele>
        <time>2022-08-14T10:08:36Z</time>
      </trkpt>
      <trkpt lat="43.95756" lon="1.87098">
        <ele>275.8</ele>
        <time>2022-08-14T10:08:38Z</time>
      </trkpt>
      <trkpt lat="43.95755" lon="1.87094">
        <ele>275.8</ele>
        <time>2022-08-14T10:08:39Z</time>
      </trkpt>
      <trkpt lat="43.95755" lon="1.87092">
        <ele>275.8</ele>
        <time>2022-08-14T10:08:40Z</time>
      </trkpt>
      <trkpt lat="43.95754" lon="1.87089">
        <ele>275.8</ele>
        <time>2022-08-14T10:08:41Z</time>
      </trkpt>
      <trkpt lat="43.95753" lon="1.87087">
        <ele>275.8</ele>
        <time>2022-08-14T10:08:42Z</time>
      </trkpt>
      <trkpt lat="43.95751" lon="1.87084">
        <ele>275.8</ele>
        <time>2022-08-14T10:08:43Z</time>
      </trkpt>
      <trkpt lat="43.95751" lon="1.87082">
        <ele>275.8</ele>
        <time>2022-08-14T10:08:44Z</time>
      </trkpt>
      <trkpt lat="43.95751" lon="1.8708">
        <ele>275.8</ele>
        <time>2022-08-14T10:08:45Z</time>
      </trkpt>
      <trkpt lat="43.9575" lon="1.87078">
        <ele>275.8</ele>
        <time>2022-08-14T10:08:46Z</time>
      </trkpt>
      <trkpt lat="43.95744" lon="1.87071">
        <ele>275.8</ele>
        <time>2022-08-14T10:08:49Z</time>
      </trkpt>
      <trkpt lat="43.95742" lon="1.8707">
        <ele>275.6</ele>
        <time>2022-08-14T10:08:50Z</time>
      </trkpt>
      <trkpt lat="43.95739" lon="1.87071">
        <ele>275.6</ele>
        <time>2022-08-14T10:08:51Z</time>
      </trkpt>
      <trkpt lat="43.95737" lon="1.87072">
        <ele>275.4</ele>
        <time>2022-08-14T10:08:52Z</time>
      </trkpt>
      <trkpt lat="43.95734" lon="1.87075">
        <ele>275.4</ele>
        <time>2022-08-14T10:08:53Z</time>
      </trkpt>
      <trkpt lat="43.95734" lon="1.87075">
        <ele>275.4</ele>
        <time>2022-08-14T10:08:54Z</time>
      </trkpt>
      <trkpt lat="43.95731" lon="1.87078">
        <ele>275.4</ele>
        <time>2022-08-14T10:08:55Z</time>
      </trkpt>
      <trkpt lat="43.95731" lon="1.8708">
        <ele>275.4</ele>
        <time>2022-08-14T10:08:56Z</time>
      </trkpt>
      <trkpt lat="43.95729" lon="1.87082">
        <ele>275.4</ele>
        <time>2022-08-14T10:08:57Z</time>
      </trkpt>
      <trkpt lat="43.95728" lon="1.87084">
        <ele>275.4</ele>
        <time>2022-08-14T10:08:58Z</time>
      </trkpt>
      <trkpt lat="43.95726" lon="1.87087">
        <ele>275.4</ele>
        <time>2022-08-14T10:08:59Z</time>
      </trkpt>
      <trkpt lat="43.95721" lon="1.87091">
        <ele>275.8</ele>
        <time>2022-08-14T10:09:01Z</time>
      </trkpt>
      <trkpt lat="43.95719" lon="1.87093">
        <ele>275.8</ele>
        <time>2022-08-14T10:09:02Z</time>
      </trkpt>
      <trkpt lat="43.95716" lon="1.87095">
        <ele>276.6</ele>
        <time>2022-08-14T10:09:03Z</time>
      </trkpt>
      <trkpt lat="43.95706" lon="1.87103">
        <ele>277.6</ele>
        <time>2022-08-14T10:09:07Z</time>
      </trkpt>
      <trkpt lat="43.95699" lon="1.87111">
        <ele>278.2</ele>
        <time>2022-08-14T10:09:10Z</time>
      </trkpt>
      <trkpt lat="43.95696" lon="1.87113">
        <ele>278.4</ele>
        <time>2022-08-14T10:09:11Z</time>
      </trkpt>
      <trkpt lat="43.95694" lon="1.87114">
        <ele>278.8</ele>
        <time>2022-08-14T10:09:12Z</time>
      </trkpt>
      <trkpt lat="43.95692" lon="1.87117">
        <ele>279</ele>
        <time>2022-08-14T10:09:13Z</time>
      </trkpt>
      <trkpt lat="43.9569" lon="1.87119">
        <ele>279.8</ele>
        <time>2022-08-14T10:09:14Z</time>
      </trkpt>
      <trkpt lat="43.95687" lon="1.87121">
        <ele>280.4</ele>
        <time>2022-08-14T10:09:15Z</time>
      </trkpt>
      <trkpt lat="43.95685" lon="1.87124">
        <ele>280.6</ele>
        <time>2022-08-14T10:09:16Z</time>
      </trkpt>
      <trkpt lat="43.95683" lon="1.87127">
        <ele>281.2</ele>
        <time>2022-08-14T10:09:17Z</time>
      </trkpt>
      <trkpt lat="43.95681" lon="1.87129">
        <ele>281.4</ele>
        <time>2022-08-14T10:09:18Z</time>
      </trkpt>
      <trkpt lat="43.95679" lon="1.87131">
        <ele>281.8</ele>
        <time>2022-08-14T10:09:19Z</time>
      </trkpt>
      <trkpt lat="43.95677" lon="1.87133">
        <ele>282</ele>
        <time>2022-08-14T10:09:20Z</time>
      </trkpt>
      <trkpt lat="43.95675" lon="1.87135">
        <ele>282.2</ele>
        <time>2022-08-14T10:09:21Z</time>
      </trkpt>
      <trkpt lat="43.95673" lon="1.87137">
        <ele>282.4</ele>
        <time>2022-08-14T10:09:22Z</time>
      </trkpt>
      <trkpt lat="43.95672" lon="1.87138">
        <ele>282.6</ele>
        <time>2022-08-14T10:09:23Z</time>
      </trkpt>
      <trkpt lat="43.95672" lon="1.87138">
        <ele>283</ele>
        <time>2022-08-14T10:09:24Z</time>
      </trkpt>
      <trkpt lat="43.95669" lon="1.87142">
        <ele>283.2</ele>
        <time>2022-08-14T10:09:25Z</time>
      </trkpt>
      <trkpt lat="43.95668" lon="1.87144">
        <ele>283.6</ele>
        <time>2022-08-14T10:09:26Z</time>
      </trkpt>
      <trkpt lat="43.95665" lon="1.87147">
        <ele>283.8</ele>
        <time>2022-08-14T10:09:27Z</time>
      </trkpt>
      <trkpt lat="43.95662" lon="1.87149">
        <ele>284</ele>
        <time>2022-08-14T10:09:28Z</time>
      </trkpt>
      <trkpt lat="43.9566" lon="1.87152">
        <ele>284.2</ele>
        <time>2022-08-14T10:09:29Z</time>
      </trkpt>
      <trkpt lat="43.95658" lon="1.87154">
        <ele>284.4</ele>
        <time>2022-08-14T10:09:30Z</time>
      </trkpt>
      <trkpt lat="43.95655" lon="1.87156">
        <ele>284.6</ele>
        <time>2022-08-14T10:09:31Z</time>
      </trkpt>
      <trkpt lat="43.95652" lon="1.87158">
        <ele>284.8</ele>
        <time>2022-08-14T10:09:32Z</time>
      </trkpt>
      <trkpt lat="43.95651" lon="1.8716">
        <ele>285.2</ele>
        <time>2022-08-14T10:09:33Z</time>
      </trkpt>
      <trkpt lat="43.95649" lon="1.87161">
        <ele>285.6</ele>
        <time>2022-08-14T10:09:34Z</time>
      </trkpt>
      <trkpt lat="43.95649" lon="1.87161">
        <ele>286</ele>
        <time>2022-08-14T10:09:35Z</time>
      </trkpt>
      <trkpt lat="43.95646" lon="1.87164">
        <ele>286.2</ele>
        <time>2022-08-14T10:09:36Z</time>
      </trkpt>
      <trkpt lat="43.95645" lon="1.87165">
        <ele>286.4</ele>
        <time>2022-08-14T10:09:37Z</time>
      </trkpt>
      <trkpt lat="43.95643" lon="1.87165">
        <ele>286.6</ele>
        <time>2022-08-14T10:09:38Z</time>
      </trkpt>
      <trkpt lat="43.95641" lon="1.87165">
        <ele>286.8</ele>
        <time>2022-08-14T10:09:39Z</time>
      </trkpt>
      <trkpt lat="43.9564" lon="1.87164">
        <ele>287</ele>
        <time>2022-08-14T10:09:40Z</time>
      </trkpt>
      <trkpt lat="43.95639" lon="1.87163">
        <ele>287.2</ele>
        <time>2022-08-14T10:09:41Z</time>
      </trkpt>
      <trkpt lat="43.95639" lon="1.87161">
        <ele>287.6</ele>
        <time>2022-08-14T10:09:42Z</time>
      </trkpt>
      <trkpt lat="43.95639" lon="1.8716">
        <ele>287.8</ele>
        <time>2022-08-14T10:09:43Z</time>
      </trkpt>
      <trkpt lat="43.95639" lon="1.87159">
        <ele>288</ele>
        <time>2022-08-14T10:09:44Z</time>
      </trkpt>
      <trkpt lat="43.95639" lon="1.87158">
        <ele>288.2</ele>
        <time>2022-08-14T10:09:45Z</time>
      </trkpt>
      <trkpt lat="43.9564" lon="1.87156">
        <ele>289.2</ele>
        <time>2022-08-14T10:10:30Z</time>
      </trkpt>
      <trkpt lat="43.95639" lon="1.87153">
        <ele>289.2</ele>
        <time>2022-08-14T10:10:31Z</time>
      </trkpt>
      <trkpt lat="43.95636" lon="1.87149">
        <ele>289.2</ele>
        <time>2022-08-14T10:10:33Z</time>
      </trkpt>
      <trkpt lat="43.95632" lon="1.87148">
        <ele>289.2</ele>
        <time>2022-08-14T10:10:35Z</time>
      </trkpt>
      <trkpt lat="43.9563" lon="1.87148">
        <ele>289</ele>
        <time>2022-08-14T10:10:36Z</time>
      </trkpt>
      <trkpt lat="43.95627" lon="1.87149">
        <ele>289</ele>
        <time>2022-08-14T10:10:38Z</time>
      </trkpt>
      <trkpt lat="43.95625" lon="1.8715">
        <ele>288.8</ele>
        <time>2022-08-14T10:10:39Z</time>
      </trkpt>
      <trkpt lat="43.95624" lon="1.87151">
        <ele>288.8</ele>
        <time>2022-08-14T10:10:40Z</time>
      </trkpt>
      <trkpt lat="43.9562" lon="1.87152">
        <ele>288.2</ele>
        <time>2022-08-14T10:10:42Z</time>
      </trkpt>
      <trkpt lat="43.95618" lon="1.87152">
        <ele>287.8</ele>
        <time>2022-08-14T10:10:43Z</time>
      </trkpt>
      <trkpt lat="43.95617" lon="1.87151">
        <ele>287.4</ele>
        <time>2022-08-14T10:10:44Z</time>
      </trkpt>
      <trkpt lat="43.95615" lon="1.87151">
        <ele>287.2</ele>
        <time>2022-08-14T10:10:45Z</time>
      </trkpt>
      <trkpt lat="43.95613" lon="1.87151">
        <ele>286.6</ele>
        <time>2022-08-14T10:10:46Z</time>
      </trkpt>
      <trkpt lat="43.95611" lon="1.87151">
        <ele>286.4</ele>
        <time>2022-08-14T10:10:47Z</time>
      </trkpt>
      <trkpt lat="43.95609" lon="1.87151">
        <ele>286</ele>
        <time>2022-08-14T10:10:48Z</time>
      </trkpt>
      <trkpt lat="43.95607" lon="1.87152">
        <ele>285.4</ele>
        <time>2022-08-14T10:10:49Z</time>
      </trkpt>
      <trkpt lat="43.95605" lon="1.87153">
        <ele>284.8</ele>
        <time>2022-08-14T10:10:50Z</time>
      </trkpt>
      <trkpt lat="43.95604" lon="1.87154">
        <ele>284.4</ele>
        <time>2022-08-14T10:10:51Z</time>
      </trkpt>
      <trkpt lat="43.95603" lon="1.87155">
        <ele>284.2</ele>
        <time>2022-08-14T10:10:52Z</time>
      </trkpt>
      <trkpt lat="43.95601" lon="1.87158">
        <ele>284</ele>
        <time>2022-08-14T10:10:54Z</time>
      </trkpt>
      <trkpt lat="43.956" lon="1.87159">
        <ele>283.6</ele>
        <time>2022-08-14T10:10:55Z</time>
      </trkpt>
      <trkpt lat="43.95594" lon="1.87167">
        <ele>283</ele>
        <time>2022-08-14T10:11:00Z</time>
      </trkpt>
      <trkpt lat="43.95592" lon="1.87165">
        <ele>282.2</ele>
        <time>2022-08-14T10:11:25Z</time>
      </trkpt>
      <trkpt lat="43.9559" lon="1.87163">
        <ele>282.2</ele>
        <time>2022-08-14T10:11:26Z</time>
      </trkpt>
      <trkpt lat="43.95578" lon="1.87147">
        <ele>282.4</ele>
        <time>2022-08-14T10:11:31Z</time>
      </trkpt>
      <trkpt lat="43.95557" lon="1.87119">
        <ele>281.4</ele>
        <time>2022-08-14T10:11:36Z</time>
      </trkpt>
      <trkpt lat="43.95552" lon="1.87114">
        <ele>280.6</ele>
        <time>2022-08-14T10:11:37Z</time>
      </trkpt>
      <trkpt lat="43.95535" lon="1.87089">
        <ele>279.2</ele>
        <time>2022-08-14T10:11:41Z</time>
      </trkpt>
      <trkpt lat="43.95526" lon="1.87076">
        <ele>278.8</ele>
        <time>2022-08-14T10:11:43Z</time>
      </trkpt>
      <trkpt lat="43.95518" lon="1.87064">
        <ele>278.6</ele>
        <time>2022-08-14T10:11:45Z</time>
      </trkpt>
      <trkpt lat="43.95504" lon="1.87045">
        <ele>277.8</ele>
        <time>2022-08-14T10:11:48Z</time>
      </trkpt>
      <trkpt lat="43.955" lon="1.87039">
        <ele>277.4</ele>
        <time>2022-08-14T10:11:49Z</time>
      </trkpt>
      <trkpt lat="43.95496" lon="1.87033">
        <ele>277.2</ele>
        <time>2022-08-14T10:11:50Z</time>
      </trkpt>
      <trkpt lat="43.95492" lon="1.87027">
        <ele>277</ele>
        <time>2022-08-14T10:11:51Z</time>
      </trkpt>
      <trkpt lat="43.95488" lon="1.87021">
        <ele>276.4</ele>
        <time>2022-08-14T10:11:52Z</time>
      </trkpt>
      <trkpt lat="43.95484" lon="1.87015">
        <ele>276.2</ele>
        <time>2022-08-14T10:11:53Z</time>
      </trkpt>
      <trkpt lat="43.9548" lon="1.87009">
        <ele>276</ele>
        <time>2022-08-14T10:11:54Z</time>
      </trkpt>
      <trkpt lat="43.95476" lon="1.87003">
        <ele>276</ele>
        <time>2022-08-14T10:11:55Z</time>
      </trkpt>
      <trkpt lat="43.95473" lon="1.86998">
        <ele>276.2</ele>
        <time>2022-08-14T10:11:56Z</time>
      </trkpt>
      <trkpt lat="43.95468" lon="1.86993">
        <ele>275.8</ele>
        <time>2022-08-14T10:11:57Z</time>
      </trkpt>
      <trkpt lat="43.95464" lon="1.8699">
        <ele>275.6</ele>
        <time>2022-08-14T10:11:58Z</time>
      </trkpt>
      <trkpt lat="43.9546" lon="1.86988">
        <ele>274.8</ele>
        <time>2022-08-14T10:11:59Z</time>
      </trkpt>
      <trkpt lat="43.95456" lon="1.86988">
        <ele>274.6</ele>
        <time>2022-08-14T10:12:00Z</time>
      </trkpt>
      <trkpt lat="43.95451" lon="1.8699">
        <ele>274.4</ele>
        <time>2022-08-14T10:12:01Z</time>
      </trkpt>
      <trkpt lat="43.95444" lon="1.86997">
        <ele>274.2</ele>
        <time>2022-08-14T10:12:03Z</time>
      </trkpt>
      <trkpt lat="43.95441" lon="1.87001">
        <ele>273.8</ele>
        <time>2022-08-14T10:12:04Z</time>
      </trkpt>
      <trkpt lat="43.95438" lon="1.87004">
        <ele>273.6</ele>
        <time>2022-08-14T10:12:05Z</time>
      </trkpt>
      <trkpt lat="43.95434" lon="1.87008">
        <ele>273.4</ele>
        <time>2022-08-14T10:12:06Z</time>
      </trkpt>
      <trkpt lat="43.95431" lon="1.87011">
        <ele>273.2</ele>
        <time>2022-08-14T10:12:07Z</time>
      </trkpt>
      <trkpt lat="43.95428" lon="1.87014">
        <ele>273</ele>
        <time>2022-08-14T10:12:08Z</time>
      </trkpt>
      <trkpt lat="43.95425" lon="1.87018">
        <ele>272.8</ele>
        <time>2022-08-14T10:12:09Z</time>
      </trkpt>
      <trkpt lat="43.95423" lon="1.87021">
        <ele>272.6</ele>
        <time>2022-08-14T10:12:10Z</time>
      </trkpt>
      <trkpt lat="43.9542" lon="1.87023">
        <ele>272.6</ele>
        <time>2022-08-14T10:12:11Z</time>
      </trkpt>
      <trkpt lat="43.95417" lon="1.87024">
        <ele>272.6</ele>
        <time>2022-08-14T10:12:12Z</time>
      </trkpt>
      <trkpt lat="43.95407" lon="1.87012">
        <ele>272.4</ele>
        <time>2022-08-14T10:12:16Z</time>
      </trkpt>
      <trkpt lat="43.9538" lon="1.86987">
        <ele>271.8</ele>
        <time>2022-08-14T10:12:25Z</time>
      </trkpt>
      <trkpt lat="43.95377" lon="1.86984">
        <ele>271.6</ele>
        <time>2022-08-14T10:12:26Z</time>
      </trkpt>
      <trkpt lat="43.95374" lon="1.86982">
        <ele>271.6</ele>
        <time>2022-08-14T10:12:27Z</time>
      </trkpt>
      <trkpt lat="43.95367" lon="1.86977">
        <ele>271.4</ele>
        <time>2022-08-14T10:12:29Z</time>
      </trkpt>
      <trkpt lat="43.95365" lon="1.86974">
        <ele>271.4</ele>
        <time>2022-08-14T10:12:30Z</time>
      </trkpt>
      <trkpt lat="43.95362" lon="1.86972">
        <ele>271.2</ele>
        <time>2022-08-14T10:12:31Z</time>
      </trkpt>
      <trkpt lat="43.95362" lon="1.86972">
        <ele>271.2</ele>
        <time>2022-08-14T10:12:32Z</time>
      </trkpt>
      <trkpt lat="43.95358" lon="1.86968">
        <ele>271.2</ele>
        <time>2022-08-14T10:12:33Z</time>
      </trkpt>
      <trkpt lat="43.95355" lon="1.86965">
        <ele>271.2</ele>
        <time>2022-08-14T10:12:34Z</time>
      </trkpt>
      <trkpt lat="43.95346" lon="1.86955">
        <ele>271</ele>
        <time>2022-08-14T10:12:38Z</time>
      </trkpt>
      <trkpt lat="43.95338" lon="1.8694">
        <ele>270.8</ele>
        <time>2022-08-14T10:12:43Z</time>
      </trkpt>
      <trkpt lat="43.95338" lon="1.86937">
        <ele>270.8</ele>
        <time>2022-08-14T10:12:44Z</time>
      </trkpt>
      <trkpt lat="43.95338" lon="1.86935">
        <ele>270.8</ele>
        <time>2022-08-14T10:12:45Z</time>
      </trkpt>
      <trkpt lat="43.95339" lon="1.86934">
        <ele>270.8</ele>
        <time>2022-08-14T10:12:46Z</time>
      </trkpt>
      <trkpt lat="43.9534" lon="1.86933">
        <ele>270.8</ele>
        <time>2022-08-14T10:12:47Z</time>
      </trkpt>
      <trkpt lat="43.95343" lon="1.86931">
        <ele>270.6</ele>
        <time>2022-08-14T10:12:49Z</time>
      </trkpt>
      <trkpt lat="43.95347" lon="1.86934">
        <ele>270.6</ele>
        <time>2022-08-14T10:12:51Z</time>
      </trkpt>
      <trkpt lat="43.95348" lon="1.86936">
        <ele>270.8</ele>
        <time>2022-08-14T10:12:52Z</time>
      </trkpt>
      <trkpt lat="43.95349" lon="1.86938">
        <ele>270.8</ele>
        <time>2022-08-14T10:12:53Z</time>
      </trkpt>
      <trkpt lat="43.95351" lon="1.86939">
        <ele>270.8</ele>
        <time>2022-08-14T10:12:54Z</time>
      </trkpt>
      <trkpt lat="43.95352" lon="1.8694">
        <ele>270.8</ele>
        <time>2022-08-14T10:12:55Z</time>
      </trkpt>
      <trkpt lat="43.95354" lon="1.86942">
        <ele>270.8</ele>
        <time>2022-08-14T10:12:56Z</time>
      </trkpt>
      <trkpt lat="43.95355" lon="1.86945">
        <ele>270.8</ele>
        <time>2022-08-14T10:12:57Z</time>
      </trkpt>
      <trkpt lat="43.95356" lon="1.86948">
        <ele>270.8</ele>
        <time>2022-08-14T10:12:58Z</time>
      </trkpt>
      <trkpt lat="43.95356" lon="1.8695">
        <ele>270.8</ele>
        <time>2022-08-14T10:12:59Z</time>
      </trkpt>
      <trkpt lat="43.95357" lon="1.86953">
        <ele>270.8</ele>
        <time>2022-08-14T10:13:00Z</time>
      </trkpt>
      <trkpt lat="43.95358" lon="1.86954">
        <ele>270.8</ele>
        <time>2022-08-14T10:13:01Z</time>
      </trkpt>
      <trkpt lat="43.9536" lon="1.86952">
        <ele>271</ele>
        <time>2022-08-14T10:13:02Z</time>
      </trkpt>
      <trkpt lat="43.95359" lon="1.8695">
        <ele>271</ele>
        <time>2022-08-14T10:13:03Z</time>
      </trkpt>
      <trkpt lat="43.95358" lon="1.86948">
        <ele>271</ele>
        <time>2022-08-14T10:13:04Z</time>
      </trkpt>
      <trkpt lat="43.95357" lon="1.86946">
        <ele>271</ele>
        <time>2022-08-14T10:13:05Z</time>
      </trkpt>
      <trkpt lat="43.95355" lon="1.86945">
        <ele>271</ele>
        <time>2022-08-14T10:13:06Z</time>
      </trkpt>
      <trkpt lat="43.95354" lon="1.86944">
        <ele>271</ele>
        <time>2022-08-14T10:13:07Z</time>
      </trkpt>
      <trkpt lat="43.95353" lon="1.86943">
        <ele>271</ele>
        <time>2022-08-14T10:13:08Z</time>
      </trkpt>
      <trkpt lat="43.95353" lon="1.86943">
        <ele>271</ele>
        <time>2022-08-14T10:13:09Z</time>
      </trkpt>
    </trkseg>
  </trk>
</gpx>